<?xml version='1.0' encoding='UTF-8'?><gpx version="1.1" creator="JPX - https://github.com/jenetics/jpx" xmlns="http://www.topografix.com/GPX/1/1"><trk><trkseg><trkpt lat="43.0571661" lon="13.4276301"><ele>590.0</ele><time>2026-04-09T11:48:59.377Z</time></trkpt><trkpt lat="43.0570651" lon="13.4276283"><ele>590.0</ele><time>2026-04-09T11:49:02.374Z</time></trkpt><trkpt lat="43.0569813" lon="13.427633"><ele>590.0</ele><time>2026-04-09T11:49:04.375Z</time></trkpt><trkpt lat="43.0569195" lon="13.4275897"><ele>590.0</ele><time>2026-04-09T11:49:07.375Z</time></trkpt><trkpt lat="43.0569152" lon="13.4274665"><ele>590.0</ele><time>2026-04-09T11:49:10.381Z</time></trkpt><trkpt lat="43.0568956" lon="13.4273747"><ele>590.0</ele><time>2026-04-09T11:49:12.375Z</time></trkpt><trkpt lat="43.056843" lon="13.4273043"><ele>590.0</ele><time>2026-04-09T11:49:14.375Z</time></trkpt><trkpt lat="43.0567632" lon="13.4272254"><ele>590.0</ele><time>2026-04-09T11:49:16.378Z</time></trkpt><trkpt lat="43.0566829" lon="13.4271254"><ele>590.0</ele><time>2026-04-09T11:49:18.378Z</time></trkpt><trkpt lat="43.0565994" lon="13.4269881"><ele>590.0</ele><time>2026-04-09T11:49:20.38Z</time></trkpt><trkpt lat="43.056557" lon="13.426866"><ele>590.0</ele><time>2026-04-09T11:49:21.375Z</time></trkpt><trkpt lat="43.0565124" lon="13.4267616"><ele>589.0</ele><time>2026-04-09T11:49:22.375Z</time></trkpt><trkpt lat="43.0564651" lon="13.4266658"><ele>588.0</ele><time>2026-04-09T11:49:23.375Z</time></trkpt><trkpt lat="43.0564153" lon="13.4265625"><ele>587.0</ele><time>2026-04-09T11:49:24.377Z</time></trkpt><trkpt lat="43.0563622" lon="13.4264592"><ele>586.0</ele><time>2026-04-09T11:49:25.375Z</time></trkpt><trkpt lat="43.0563133" lon="13.4263467"><ele>585.0</ele><time>2026-04-09T11:49:26.377Z</time></trkpt><trkpt lat="43.0562667" lon="13.426225"><ele>585.0</ele><time>2026-04-09T11:49:27.378Z</time></trkpt><trkpt lat="43.0562217" lon="13.42611"><ele>585.0</ele><time>2026-04-09T11:49:28.375Z</time></trkpt><trkpt lat="43.05617" lon="13.4259817"><ele>585.0</ele><time>2026-04-09T11:49:29.374Z</time></trkpt><trkpt lat="43.0561133" lon="13.4258567"><ele>585.0</ele><time>2026-04-09T11:49:30.375Z</time></trkpt><trkpt lat="43.0560583" lon="13.4257267"><ele>585.0</ele><time>2026-04-09T11:49:31.375Z</time></trkpt><trkpt lat="43.0560017" lon="13.4255867"><ele>588.5</ele><time>2026-04-09T11:49:32.375Z</time></trkpt><trkpt lat="43.0559433" lon="13.4254417"><ele>592.0</ele><time>2026-04-09T11:49:33.374Z</time></trkpt><trkpt lat="43.055895" lon="13.4252817"><ele>595.5</ele><time>2026-04-09T11:49:34.374Z</time></trkpt><trkpt lat="43.055855" lon="13.4251167"><ele>599.0</ele><time>2026-04-09T11:49:35.374Z</time></trkpt><trkpt lat="43.0558167" lon="13.4249517"><ele>592.5</ele><time>2026-04-09T11:49:36.375Z</time></trkpt><trkpt lat="43.05578" lon="13.42479"><ele>586.0</ele><time>2026-04-09T11:49:37.374Z</time></trkpt><trkpt lat="43.0557383" lon="13.4246367"><ele>579.5</ele><time>2026-04-09T11:49:38.375Z</time></trkpt><trkpt lat="43.0556933" lon="13.424475"><ele>573.0</ele><time>2026-04-09T11:49:39.375Z</time></trkpt><trkpt lat="43.0556433" lon="13.4243167"><ele>573.0</ele><time>2026-04-09T11:49:40.375Z</time></trkpt><trkpt lat="43.0555867" lon="13.4241683"><ele>573.0</ele><time>2026-04-09T11:49:41.375Z</time></trkpt><trkpt lat="43.05552" lon="13.424025"><ele>573.0</ele><time>2026-04-09T11:49:42.378Z</time></trkpt><trkpt lat="43.055445" lon="13.4238917"><ele>573.0</ele><time>2026-04-09T11:49:43.378Z</time></trkpt><trkpt lat="43.0553533" lon="13.4237717"><ele>578.0</ele><time>2026-04-09T11:49:44.378Z</time></trkpt><trkpt lat="43.055255" lon="13.4236633"><ele>583.0</ele><time>2026-04-09T11:49:45.378Z</time></trkpt><trkpt lat="43.055155" lon="13.42357"><ele>588.0</ele><time>2026-04-09T11:49:46.374Z</time></trkpt><trkpt lat="43.055065" lon="13.4234817"><ele>593.0</ele><time>2026-04-09T11:49:47.378Z</time></trkpt><trkpt lat="43.05498" lon="13.4233933"><ele>585.8</ele><time>2026-04-09T11:49:48.375Z</time></trkpt><trkpt lat="43.0549033" lon="13.4233067"><ele>578.5999999999999</ele><time>2026-04-09T11:49:49.376Z</time></trkpt><trkpt lat="43.05484" lon="13.423205"><ele>571.4000000000001</ele><time>2026-04-09T11:49:50.374Z</time></trkpt><trkpt lat="43.0547967" lon="13.42307"><ele>564.2</ele><time>2026-04-09T11:49:51.375Z</time></trkpt><trkpt lat="43.0547917" lon="13.4229117"><ele>557.0</ele><time>2026-04-09T11:49:52.377Z</time></trkpt><trkpt lat="43.0548117" lon="13.4227467"><ele>557.0</ele><time>2026-04-09T11:49:53.377Z</time></trkpt><trkpt lat="43.0548267" lon="13.42258"><ele>557.0</ele><time>2026-04-09T11:49:54.378Z</time></trkpt><trkpt lat="43.0548317" lon="13.4224033"><ele>557.0</ele><time>2026-04-09T11:49:55.378Z</time></trkpt><trkpt lat="43.0548233" lon="13.422225"><ele>557.0</ele><time>2026-04-09T11:49:56.378Z</time></trkpt><trkpt lat="43.05479" lon="13.4220633"><ele>558.0</ele><time>2026-04-09T11:49:57.377Z</time></trkpt><trkpt lat="43.0547483" lon="13.4219183"><ele>559.0</ele><time>2026-04-09T11:49:58.374Z</time></trkpt><trkpt lat="43.0547083" lon="13.421785"><ele>560.0</ele><time>2026-04-09T11:49:59.374Z</time></trkpt><trkpt lat="43.054685" lon="13.42165"><ele>561.0</ele><time>2026-04-09T11:50:00.377Z</time></trkpt><trkpt lat="43.0546867" lon="13.4215183"><ele>562.0</ele><time>2026-04-09T11:50:01.376Z</time></trkpt><trkpt lat="43.0547267" lon="13.421395"><ele>560.6</ele><time>2026-04-09T11:50:02.375Z</time></trkpt><trkpt lat="43.0547817" lon="13.42127"><ele>559.2</ele><time>2026-04-09T11:50:03.375Z</time></trkpt><trkpt lat="43.0548433" lon="13.4211433"><ele>557.8</ele><time>2026-04-09T11:50:04.374Z</time></trkpt><trkpt lat="43.054905" lon="13.4210117"><ele>556.4</ele><time>2026-04-09T11:50:05.374Z</time></trkpt><trkpt lat="43.0549567" lon="13.4208683"><ele>555.0</ele><time>2026-04-09T11:50:06.375Z</time></trkpt><trkpt lat="43.0549883" lon="13.4207133"><ele>558.5</ele><time>2026-04-09T11:50:07.375Z</time></trkpt><trkpt lat="43.0550083" lon="13.4205517"><ele>562.0</ele><time>2026-04-09T11:50:08.376Z</time></trkpt><trkpt lat="43.0550267" lon="13.42039"><ele>565.5</ele><time>2026-04-09T11:50:09.375Z</time></trkpt><trkpt lat="43.0550517" lon="13.4202367"><ele>569.0</ele><time>2026-04-09T11:50:10.375Z</time></trkpt><trkpt lat="43.0550933" lon="13.42009"><ele>569.0</ele><time>2026-04-09T11:50:11.378Z</time></trkpt><trkpt lat="43.0551533" lon="13.419955"><ele>569.0</ele><time>2026-04-09T11:50:12.375Z</time></trkpt><trkpt lat="43.05523" lon="13.4198283"><ele>569.0</ele><time>2026-04-09T11:50:13.375Z</time></trkpt><trkpt lat="43.05531" lon="13.4197133"><ele>569.0</ele><time>2026-04-09T11:50:14.377Z</time></trkpt><trkpt lat="43.0553867" lon="13.4195933"><ele>566.25</ele><time>2026-04-09T11:50:15.378Z</time></trkpt><trkpt lat="43.05545" lon="13.4194717"><ele>563.5</ele><time>2026-04-09T11:50:16.377Z</time></trkpt><trkpt lat="43.0554967" lon="13.4193283"><ele>560.75</ele><time>2026-04-09T11:50:17.378Z</time></trkpt><trkpt lat="43.05553" lon="13.419175"><ele>558.0</ele><time>2026-04-09T11:50:18.374Z</time></trkpt><trkpt lat="43.0555483" lon="13.41901"><ele>558.0</ele><time>2026-04-09T11:50:19.376Z</time></trkpt><trkpt lat="43.0555633" lon="13.4188367"><ele>558.0</ele><time>2026-04-09T11:50:20.373Z</time></trkpt><trkpt lat="43.0555833" lon="13.41866"><ele>558.0</ele><time>2026-04-09T11:50:21.375Z</time></trkpt><trkpt lat="43.0556" lon="13.41848"><ele>558.0</ele><time>2026-04-09T11:50:22.375Z</time></trkpt><trkpt lat="43.0556133" lon="13.4183033"><ele>556.75</ele><time>2026-04-09T11:50:23.374Z</time></trkpt><trkpt lat="43.0556267" lon="13.4181233"><ele>555.5</ele><time>2026-04-09T11:50:24.375Z</time></trkpt><trkpt lat="43.0556417" lon="13.417945"><ele>554.25</ele><time>2026-04-09T11:50:25.373Z</time></trkpt><trkpt lat="43.0556517" lon="13.41776"><ele>553.0</ele><time>2026-04-09T11:50:26.374Z</time></trkpt><trkpt lat="43.0556483" lon="13.417575"><ele>553.0</ele><time>2026-04-09T11:50:27.378Z</time></trkpt><trkpt lat="43.0556383" lon="13.4173917"><ele>553.0</ele><time>2026-04-09T11:50:28.374Z</time></trkpt><trkpt lat="43.0556217" lon="13.4172167"><ele>553.0</ele><time>2026-04-09T11:50:29.375Z</time></trkpt><trkpt lat="43.0556" lon="13.417035"><ele>553.0</ele><time>2026-04-09T11:50:30.375Z</time></trkpt><trkpt lat="43.0555667" lon="13.4168567"><ele>552.75</ele><time>2026-04-09T11:50:31.374Z</time></trkpt><trkpt lat="43.0555283" lon="13.4166767"><ele>552.5</ele><time>2026-04-09T11:50:32.375Z</time></trkpt><trkpt lat="43.0554817" lon="13.4165033"><ele>552.25</ele><time>2026-04-09T11:50:33.374Z</time></trkpt><trkpt lat="43.0554383" lon="13.4163333"><ele>552.0</ele><time>2026-04-09T11:50:34.375Z</time></trkpt><trkpt lat="43.05541" lon="13.41616"><ele>551.5</ele><time>2026-04-09T11:50:35.374Z</time></trkpt><trkpt lat="43.0554" lon="13.415985"><ele>551.0</ele><time>2026-04-09T11:50:36.374Z</time></trkpt><trkpt lat="43.05541" lon="13.4158067"><ele>550.5</ele><time>2026-04-09T11:50:37.374Z</time></trkpt><trkpt lat="43.0554317" lon="13.4156267"><ele>550.0</ele><time>2026-04-09T11:50:38.378Z</time></trkpt><trkpt lat="43.055455" lon="13.4154467"><ele>548.0</ele><time>2026-04-09T11:50:39.377Z</time></trkpt><trkpt lat="43.0554617" lon="13.4152733"><ele>546.0</ele><time>2026-04-09T11:50:40.378Z</time></trkpt><trkpt lat="43.055455" lon="13.4150983"><ele>544.0</ele><time>2026-04-09T11:50:41.378Z</time></trkpt><trkpt lat="43.0554417" lon="13.4149317"><ele>542.0</ele><time>2026-04-09T11:50:42.377Z</time></trkpt><trkpt lat="43.0554483" lon="13.4147767"><ele>539.6</ele><time>2026-04-09T11:50:43.375Z</time></trkpt><trkpt lat="43.0554733" lon="13.4146367"><ele>537.2</ele><time>2026-04-09T11:50:44.375Z</time></trkpt><trkpt lat="43.0555217" lon="13.4145117"><ele>534.8</ele><time>2026-04-09T11:50:45.377Z</time></trkpt><trkpt lat="43.0555933" lon="13.414405"><ele>532.4</ele><time>2026-04-09T11:50:46.375Z</time></trkpt><trkpt lat="43.0556817" lon="13.4143267"><ele>530.0</ele><time>2026-04-09T11:50:47.374Z</time></trkpt><trkpt lat="43.0557833" lon="13.414255"><ele>533.25</ele><time>2026-04-09T11:50:48.375Z</time></trkpt><trkpt lat="43.05589" lon="13.4141817"><ele>536.5</ele><time>2026-04-09T11:50:49.374Z</time></trkpt><trkpt lat="43.0559983" lon="13.4141033"><ele>539.75</ele><time>2026-04-09T11:50:50.374Z</time></trkpt><trkpt lat="43.056105" lon="13.4140267"><ele>543.0</ele><time>2026-04-09T11:50:51.378Z</time></trkpt><trkpt lat="43.0562" lon="13.413935"><ele>543.0</ele><time>2026-04-09T11:50:52.379Z</time></trkpt><trkpt lat="43.056275" lon="13.4138233"><ele>543.0</ele><time>2026-04-09T11:50:53.378Z</time></trkpt><trkpt lat="43.056335" lon="13.413685"><ele>543.0</ele><time>2026-04-09T11:50:54.377Z</time></trkpt><trkpt lat="43.0563817" lon="13.4135333"><ele>543.0</ele><time>2026-04-09T11:50:55.375Z</time></trkpt><trkpt lat="43.05642" lon="13.4133783"><ele>539.1999999999999</ele><time>2026-04-09T11:50:56.378Z</time></trkpt><trkpt lat="43.0564417" lon="13.41322"><ele>535.4</ele><time>2026-04-09T11:50:57.374Z</time></trkpt><trkpt lat="43.056465" lon="13.41307"><ele>531.5999999999999</ele><time>2026-04-09T11:50:58.378Z</time></trkpt><trkpt lat="43.0564867" lon="13.412925"><ele>527.8</ele><time>2026-04-09T11:50:59.376Z</time></trkpt><trkpt lat="43.0565117" lon="13.4127867"><ele>524.0</ele><time>2026-04-09T11:51:00.376Z</time></trkpt><trkpt lat="43.0565283" lon="13.41265"><ele>522.2</ele><time>2026-04-09T11:51:01.378Z</time></trkpt><trkpt lat="43.0565433" lon="13.4125217"><ele>520.4</ele><time>2026-04-09T11:51:02.378Z</time></trkpt><trkpt lat="43.0565567" lon="13.4124017"><ele>518.6</ele><time>2026-04-09T11:51:03.377Z</time></trkpt><trkpt lat="43.05657" lon="13.4122883"><ele>516.8</ele><time>2026-04-09T11:51:04.377Z</time></trkpt><trkpt lat="43.0565883" lon="13.4121683"><ele>515.0</ele><time>2026-04-09T11:51:05.374Z</time></trkpt><trkpt lat="43.0566083" lon="13.4120367"><ele>513.5</ele><time>2026-04-09T11:51:06.378Z</time></trkpt><trkpt lat="43.0566167" lon="13.411895"><ele>512.0</ele><time>2026-04-09T11:51:07.378Z</time></trkpt><trkpt lat="43.0566083" lon="13.41174"><ele>510.5</ele><time>2026-04-09T11:51:08.374Z</time></trkpt><trkpt lat="43.0565933" lon="13.4115767"><ele>509.0</ele><time>2026-04-09T11:51:09.374Z</time></trkpt><trkpt lat="43.0565583" lon="13.4114117"><ele>510.25</ele><time>2026-04-09T11:51:10.375Z</time></trkpt><trkpt lat="43.056515" lon="13.4112383"><ele>511.5</ele><time>2026-04-09T11:51:11.374Z</time></trkpt><trkpt lat="43.05647" lon="13.4110583"><ele>512.75</ele><time>2026-04-09T11:51:12.377Z</time></trkpt><trkpt lat="43.0564117" lon="13.4108917"><ele>514.0</ele><time>2026-04-09T11:51:13.376Z</time></trkpt><trkpt lat="43.0563417" lon="13.4107333"><ele>514.0</ele><time>2026-04-09T11:51:14.375Z</time></trkpt><trkpt lat="43.0562667" lon="13.4105833"><ele>514.0</ele><time>2026-04-09T11:51:15.374Z</time></trkpt><trkpt lat="43.0562" lon="13.41043"><ele>514.0</ele><time>2026-04-09T11:51:16.375Z</time></trkpt><trkpt lat="43.0561467" lon="13.4102733"><ele>514.0</ele><time>2026-04-09T11:51:17.375Z</time></trkpt><trkpt lat="43.05611" lon="13.4101083"><ele>516.75</ele><time>2026-04-09T11:51:18.375Z</time></trkpt><trkpt lat="43.056095" lon="13.409935"><ele>519.5</ele><time>2026-04-09T11:51:19.374Z</time></trkpt><trkpt lat="43.0560967" lon="13.4097633"><ele>522.25</ele><time>2026-04-09T11:51:20.375Z</time></trkpt><trkpt lat="43.05611" lon="13.4095867"><ele>525.0</ele><time>2026-04-09T11:51:21.375Z</time></trkpt><trkpt lat="43.0561267" lon="13.409405"><ele>526.25</ele><time>2026-04-09T11:51:22.375Z</time></trkpt><trkpt lat="43.0561417" lon="13.40921"><ele>527.5</ele><time>2026-04-09T11:51:23.376Z</time></trkpt><trkpt lat="43.0561567" lon="13.4090083"><ele>528.75</ele><time>2026-04-09T11:51:24.374Z</time></trkpt><trkpt lat="43.0561667" lon="13.408805"><ele>530.0</ele><time>2026-04-09T11:51:25.375Z</time></trkpt><trkpt lat="43.05618" lon="13.4085983"><ele>526.6666666666666</ele><time>2026-04-09T11:51:26.376Z</time></trkpt><trkpt lat="43.0561917" lon="13.40839"><ele>523.3333333333334</ele><time>2026-04-09T11:51:27.376Z</time></trkpt><trkpt lat="43.0562017" lon="13.408185"><ele>520.0</ele><time>2026-04-09T11:51:28.375Z</time></trkpt><trkpt lat="43.0562083" lon="13.40798"><ele>517.5</ele><time>2026-04-09T11:51:29.376Z</time></trkpt><trkpt lat="43.05621" lon="13.4077817"><ele>515.0</ele><time>2026-04-09T11:51:30.376Z</time></trkpt><trkpt lat="43.0562067" lon="13.4075883"><ele>512.5</ele><time>2026-04-09T11:51:31.374Z</time></trkpt><trkpt lat="43.0561967" lon="13.40739"><ele>510.0</ele><time>2026-04-09T11:51:32.374Z</time></trkpt><trkpt lat="43.0561733" lon="13.40719"><ele>510.25</ele><time>2026-04-09T11:51:33.375Z</time></trkpt><trkpt lat="43.0561233" lon="13.40701"><ele>510.5</ele><time>2026-04-09T11:51:34.375Z</time></trkpt><trkpt lat="43.0560517" lon="13.40684"><ele>510.75</ele><time>2026-04-09T11:51:35.374Z</time></trkpt><trkpt lat="43.0559817" lon="13.4066683"><ele>511.0</ele><time>2026-04-09T11:51:36.377Z</time></trkpt><trkpt lat="43.0559233" lon="13.4064883"><ele>510.5</ele><time>2026-04-09T11:51:37.375Z</time></trkpt><trkpt lat="43.05587" lon="13.4063"><ele>510.0</ele><time>2026-04-09T11:51:38.376Z</time></trkpt><trkpt lat="43.0558117" lon="13.4061117"><ele>509.5</ele><time>2026-04-09T11:51:39.375Z</time></trkpt><trkpt lat="43.0557583" lon="13.4059233"><ele>509.0</ele><time>2026-04-09T11:51:40.376Z</time></trkpt><trkpt lat="43.0557117" lon="13.4057317"><ele>503.75</ele><time>2026-04-09T11:51:41.374Z</time></trkpt><trkpt lat="43.0556733" lon="13.4055383"><ele>498.5</ele><time>2026-04-09T11:51:42.375Z</time></trkpt><trkpt lat="43.0556383" lon="13.4053533"><ele>493.25</ele><time>2026-04-09T11:51:43.374Z</time></trkpt><trkpt lat="43.0556083" lon="13.4051733"><ele>488.0</ele><time>2026-04-09T11:51:44.375Z</time></trkpt><trkpt lat="43.0555867" lon="13.4049983"><ele>488.0</ele><time>2026-04-09T11:51:45.375Z</time></trkpt><trkpt lat="43.05558" lon="13.4048317"><ele>488.0</ele><time>2026-04-09T11:51:46.379Z</time></trkpt><trkpt lat="43.055605" lon="13.404665"><ele>488.0</ele><time>2026-04-09T11:51:47.374Z</time></trkpt><trkpt lat="43.0556567" lon="13.4045067"><ele>488.0</ele><time>2026-04-09T11:51:48.375Z</time></trkpt><trkpt lat="43.0557217" lon="13.40435"><ele>489.0</ele><time>2026-04-09T11:51:49.376Z</time></trkpt><trkpt lat="43.0558" lon="13.4041867"><ele>490.0</ele><time>2026-04-09T11:51:50.375Z</time></trkpt><trkpt lat="43.05588" lon="13.4040167"><ele>491.0</ele><time>2026-04-09T11:51:51.375Z</time></trkpt><trkpt lat="43.0559617" lon="13.4038417"><ele>492.0</ele><time>2026-04-09T11:51:52.375Z</time></trkpt><trkpt lat="43.0560467" lon="13.403665"><ele>492.0</ele><time>2026-04-09T11:51:53.374Z</time></trkpt><trkpt lat="43.0561333" lon="13.4034867"><ele>492.0</ele><time>2026-04-09T11:51:54.38Z</time></trkpt><trkpt lat="43.05622" lon="13.4033033"><ele>492.0</ele><time>2026-04-09T11:51:55.375Z</time></trkpt><trkpt lat="43.0563067" lon="13.403115"><ele>489.66666666666663</ele><time>2026-04-09T11:51:56.376Z</time></trkpt><trkpt lat="43.056395" lon="13.4029233"><ele>487.3333333333333</ele><time>2026-04-09T11:51:57.375Z</time></trkpt><trkpt lat="43.0564783" lon="13.40272"><ele>485.0</ele><time>2026-04-09T11:51:58.375Z</time></trkpt><trkpt lat="43.056555" lon="13.4025083"><ele>486.3333333333333</ele><time>2026-04-09T11:51:59.375Z</time></trkpt><trkpt lat="43.056625" lon="13.4022933"><ele>487.66666666666663</ele><time>2026-04-09T11:52:00.375Z</time></trkpt><trkpt lat="43.0566883" lon="13.4020767"><ele>489.0</ele><time>2026-04-09T11:52:01.375Z</time></trkpt><trkpt lat="43.0567467" lon="13.4018583"><ele>488.66666666666663</ele><time>2026-04-09T11:52:02.376Z</time></trkpt><trkpt lat="43.056805" lon="13.4016417"><ele>488.3333333333333</ele><time>2026-04-09T11:52:03.374Z</time></trkpt><trkpt lat="43.05686" lon="13.40143"><ele>488.0</ele><time>2026-04-09T11:52:04.375Z</time></trkpt><trkpt lat="43.0569167" lon="13.4012217"><ele>488.0</ele><time>2026-04-09T11:52:05.374Z</time></trkpt><trkpt lat="43.0569767" lon="13.40102"><ele>488.0</ele><time>2026-04-09T11:52:06.375Z</time></trkpt><trkpt lat="43.0570467" lon="13.4008267"><ele>488.0</ele><time>2026-04-09T11:52:07.375Z</time></trkpt><trkpt lat="43.05714" lon="13.400655"><ele>488.0</ele><time>2026-04-09T11:52:08.375Z</time></trkpt><trkpt lat="43.057245" lon="13.400505"><ele>488.0</ele><time>2026-04-09T11:52:09.375Z</time></trkpt><trkpt lat="43.0573583" lon="13.4003667"><ele>488.0</ele><time>2026-04-09T11:52:10.375Z</time></trkpt><trkpt lat="43.0574667" lon="13.400225"><ele>489.0</ele><time>2026-04-09T11:52:11.378Z</time></trkpt><trkpt lat="43.057565" lon="13.400075"><ele>490.0</ele><time>2026-04-09T11:52:12.375Z</time></trkpt><trkpt lat="43.05765" lon="13.39991"><ele>491.0</ele><time>2026-04-09T11:52:13.375Z</time></trkpt><trkpt lat="43.0577317" lon="13.3997433"><ele>492.0</ele><time>2026-04-09T11:52:14.373Z</time></trkpt><trkpt lat="43.0578067" lon="13.39957"><ele>492.0</ele><time>2026-04-09T11:52:15.378Z</time></trkpt><trkpt lat="43.0578667" lon="13.3993833"><ele>492.0</ele><time>2026-04-09T11:52:16.378Z</time></trkpt><trkpt lat="43.057915" lon="13.39919"><ele>492.0</ele><time>2026-04-09T11:52:17.384Z</time></trkpt><trkpt lat="43.057955" lon="13.3989883"><ele>492.0</ele><time>2026-04-09T11:52:18.376Z</time></trkpt><trkpt lat="43.0579867" lon="13.3987817"><ele>492.0</ele><time>2026-04-09T11:52:19.376Z</time></trkpt><trkpt lat="43.0580133" lon="13.3985683"><ele>492.0</ele><time>2026-04-09T11:52:20.376Z</time></trkpt><trkpt lat="43.058035" lon="13.3983533"><ele>492.0</ele><time>2026-04-09T11:52:21.375Z</time></trkpt><trkpt lat="43.0580533" lon="13.39814"><ele>492.0</ele><time>2026-04-09T11:52:22.373Z</time></trkpt><trkpt lat="43.0580683" lon="13.397925"><ele>492.0</ele><time>2026-04-09T11:52:23.376Z</time></trkpt><trkpt lat="43.0580833" lon="13.39771"><ele>492.66666666666663</ele><time>2026-04-09T11:52:24.374Z</time></trkpt><trkpt lat="43.0580983" lon="13.3974933"><ele>493.3333333333333</ele><time>2026-04-09T11:52:25.375Z</time></trkpt><trkpt lat="43.0581133" lon="13.3972767"><ele>494.0</ele><time>2026-04-09T11:52:26.374Z</time></trkpt><trkpt lat="43.0581233" lon="13.3970633"><ele>495.3333333333333</ele><time>2026-04-09T11:52:27.375Z</time></trkpt><trkpt lat="43.058135" lon="13.3968517"><ele>496.66666666666663</ele><time>2026-04-09T11:52:28.374Z</time></trkpt><trkpt lat="43.058145" lon="13.3966383"><ele>498.0</ele><time>2026-04-09T11:52:29.375Z</time></trkpt><trkpt lat="43.0581583" lon="13.396425"><ele>500.33333333333337</ele><time>2026-04-09T11:52:30.375Z</time></trkpt><trkpt lat="43.0581733" lon="13.39621"><ele>502.6666666666667</ele><time>2026-04-09T11:52:31.374Z</time></trkpt><trkpt lat="43.05819" lon="13.396"><ele>505.0</ele><time>2026-04-09T11:52:32.375Z</time></trkpt><trkpt lat="43.0582033" lon="13.395785"><ele>505.0</ele><time>2026-04-09T11:52:33.376Z</time></trkpt><trkpt lat="43.05822" lon="13.395565"><ele>505.0</ele><time>2026-04-09T11:52:34.375Z</time></trkpt><trkpt lat="43.0582367" lon="13.3953417"><ele>505.0</ele><time>2026-04-09T11:52:35.374Z</time></trkpt><trkpt lat="43.0582483" lon="13.3951183"><ele>504.6666666666667</ele><time>2026-04-09T11:52:36.377Z</time></trkpt><trkpt lat="43.05826" lon="13.3948933"><ele>504.33333333333337</ele><time>2026-04-09T11:52:37.375Z</time></trkpt><trkpt lat="43.0582717" lon="13.3946717"><ele>504.0</ele><time>2026-04-09T11:52:38.375Z</time></trkpt><trkpt lat="43.058285" lon="13.394455"><ele>507.66666666666663</ele><time>2026-04-09T11:52:39.375Z</time></trkpt><trkpt lat="43.0582983" lon="13.394235"><ele>511.3333333333333</ele><time>2026-04-09T11:52:40.377Z</time></trkpt><trkpt lat="43.05831" lon="13.3940167"><ele>515.0</ele><time>2026-04-09T11:52:41.378Z</time></trkpt><trkpt lat="43.0583233" lon="13.3938017"><ele>516.0</ele><time>2026-04-09T11:52:42.376Z</time></trkpt><trkpt lat="43.05834" lon="13.39359"><ele>517.0</ele><time>2026-04-09T11:52:43.376Z</time></trkpt><trkpt lat="43.0583633" lon="13.39338"><ele>518.0</ele><time>2026-04-09T11:52:44.374Z</time></trkpt><trkpt lat="43.0583983" lon="13.3931717"><ele>518.3333333333333</ele><time>2026-04-09T11:52:45.374Z</time></trkpt><trkpt lat="43.058445" lon="13.3929633"><ele>518.6666666666666</ele><time>2026-04-09T11:52:46.377Z</time></trkpt><trkpt lat="43.0585017" lon="13.392755"><ele>519.0</ele><time>2026-04-09T11:52:47.376Z</time></trkpt><trkpt lat="43.05856" lon="13.392545"><ele>519.0</ele><time>2026-04-09T11:52:48.375Z</time></trkpt><trkpt lat="43.0586183" lon="13.3923333"><ele>519.0</ele><time>2026-04-09T11:52:49.375Z</time></trkpt><trkpt lat="43.0586733" lon="13.39212"><ele>519.0</ele><time>2026-04-09T11:52:50.373Z</time></trkpt><trkpt lat="43.0587217" lon="13.3919033"><ele>519.0</ele><time>2026-04-09T11:52:51.374Z</time></trkpt><trkpt lat="43.0587533" lon="13.39168"><ele>519.0</ele><time>2026-04-09T11:52:52.374Z</time></trkpt><trkpt lat="43.0587717" lon="13.3914533"><ele>519.0</ele><time>2026-04-09T11:52:53.373Z</time></trkpt><trkpt lat="43.0587767" lon="13.391225"><ele>519.0</ele><time>2026-04-09T11:52:54.375Z</time></trkpt><trkpt lat="43.05878" lon="13.3909917"><ele>519.0</ele><time>2026-04-09T11:52:55.375Z</time></trkpt><trkpt lat="43.05878" lon="13.390755"><ele>519.0</ele><time>2026-04-09T11:52:56.375Z</time></trkpt><trkpt lat="43.0587767" lon="13.3905217"><ele>520.3333333333334</ele><time>2026-04-09T11:52:57.376Z</time></trkpt><trkpt lat="43.0587733" lon="13.39029"><ele>521.6666666666667</ele><time>2026-04-09T11:52:58.374Z</time></trkpt><trkpt lat="43.0587683" lon="13.3900583"><ele>523.0</ele><time>2026-04-09T11:52:59.375Z</time></trkpt><trkpt lat="43.058765" lon="13.3898283"><ele>524.6666666666667</ele><time>2026-04-09T11:53:00.379Z</time></trkpt><trkpt lat="43.05876" lon="13.3895983"><ele>526.3333333333334</ele><time>2026-04-09T11:53:01.376Z</time></trkpt><trkpt lat="43.0587567" lon="13.3893667"><ele>528.0</ele><time>2026-04-09T11:53:02.374Z</time></trkpt><trkpt lat="43.0587433" lon="13.38914"><ele>528.0</ele><time>2026-04-09T11:53:03.375Z</time></trkpt><trkpt lat="43.05871" lon="13.388915"><ele>528.0</ele><time>2026-04-09T11:53:04.374Z</time></trkpt><trkpt lat="43.05866" lon="13.3886967"><ele>528.0</ele><time>2026-04-09T11:53:05.374Z</time></trkpt><trkpt lat="43.0585917" lon="13.3884867"><ele>529.3333333333334</ele><time>2026-04-09T11:53:06.376Z</time></trkpt><trkpt lat="43.058515" lon="13.3882817"><ele>530.6666666666667</ele><time>2026-04-09T11:53:07.374Z</time></trkpt><trkpt lat="43.0584367" lon="13.3880783"><ele>532.0</ele><time>2026-04-09T11:53:08.376Z</time></trkpt><trkpt lat="43.05836" lon="13.387875"><ele>529.0</ele><time>2026-04-09T11:53:09.375Z</time></trkpt><trkpt lat="43.0582817" lon="13.387675"><ele>526.0</ele><time>2026-04-09T11:53:10.376Z</time></trkpt><trkpt lat="43.0582017" lon="13.3874733"><ele>523.0</ele><time>2026-04-09T11:53:11.374Z</time></trkpt><trkpt lat="43.0581283" lon="13.3872733"><ele>525.6666666666667</ele><time>2026-04-09T11:53:12.379Z</time></trkpt><trkpt lat="43.0580583" lon="13.3870717"><ele>528.3333333333334</ele><time>2026-04-09T11:53:13.374Z</time></trkpt><trkpt lat="43.0579967" lon="13.3868633"><ele>531.0</ele><time>2026-04-09T11:53:14.376Z</time></trkpt><trkpt lat="43.0579433" lon="13.38665"><ele>531.0</ele><time>2026-04-09T11:53:15.373Z</time></trkpt><trkpt lat="43.0579017" lon="13.3864317"><ele>531.0</ele><time>2026-04-09T11:53:16.374Z</time></trkpt><trkpt lat="43.0578683" lon="13.3862083"><ele>531.0</ele><time>2026-04-09T11:53:17.373Z</time></trkpt><trkpt lat="43.05784" lon="13.3859867"><ele>532.6666666666666</ele><time>2026-04-09T11:53:18.374Z</time></trkpt><trkpt lat="43.0578233" lon="13.3857617"><ele>534.3333333333333</ele><time>2026-04-09T11:53:19.374Z</time></trkpt><trkpt lat="43.0578183" lon="13.385535"><ele>536.0</ele><time>2026-04-09T11:53:20.377Z</time></trkpt><trkpt lat="43.0578267" lon="13.385305"><ele>537.6666666666666</ele><time>2026-04-09T11:53:21.377Z</time></trkpt><trkpt lat="43.05784" lon="13.385075"><ele>539.3333333333334</ele><time>2026-04-09T11:53:22.377Z</time></trkpt><trkpt lat="43.0578533" lon="13.3848433"><ele>541.0</ele><time>2026-04-09T11:53:23.377Z</time></trkpt><trkpt lat="43.0578633" lon="13.3846117"><ele>543.6666666666667</ele><time>2026-04-09T11:53:24.378Z</time></trkpt><trkpt lat="43.0578733" lon="13.384375"><ele>546.3333333333334</ele><time>2026-04-09T11:53:25.376Z</time></trkpt><trkpt lat="43.0578833" lon="13.38414"><ele>549.0</ele><time>2026-04-09T11:53:26.378Z</time></trkpt><trkpt lat="43.0578983" lon="13.3839067"><ele>551.3333333333334</ele><time>2026-04-09T11:53:27.377Z</time></trkpt><trkpt lat="43.05791" lon="13.38368"><ele>553.6666666666667</ele><time>2026-04-09T11:53:28.377Z</time></trkpt><trkpt lat="43.0579283" lon="13.3834533"><ele>556.0</ele><time>2026-04-09T11:53:29.375Z</time></trkpt><trkpt lat="43.057955" lon="13.3832283"><ele>558.6666666666667</ele><time>2026-04-09T11:53:30.377Z</time></trkpt><trkpt lat="43.0579883" lon="13.3830117"><ele>561.3333333333334</ele><time>2026-04-09T11:53:31.377Z</time></trkpt><trkpt lat="43.0580317" lon="13.3827983"><ele>564.0</ele><time>2026-04-09T11:53:32.376Z</time></trkpt><trkpt lat="43.0580983" lon="13.3825917"><ele>564.0</ele><time>2026-04-09T11:53:33.376Z</time></trkpt><trkpt lat="43.058175" lon="13.3823933"><ele>564.0</ele><time>2026-04-09T11:53:34.376Z</time></trkpt><trkpt lat="43.0582633" lon="13.3822017"><ele>564.0</ele><time>2026-04-09T11:53:35.374Z</time></trkpt><trkpt lat="43.05836" lon="13.382015"><ele>565.6666666666666</ele><time>2026-04-09T11:53:36.377Z</time></trkpt><trkpt lat="43.0584617" lon="13.38183"><ele>567.3333333333333</ele><time>2026-04-09T11:53:37.377Z</time></trkpt><trkpt lat="43.0585667" lon="13.38165"><ele>569.0</ele><time>2026-04-09T11:53:38.376Z</time></trkpt><trkpt lat="43.0586717" lon="13.3814633"><ele>572.6666666666666</ele><time>2026-04-09T11:53:39.377Z</time></trkpt><trkpt lat="43.058775" lon="13.3812767"><ele>576.3333333333334</ele><time>2026-04-09T11:53:40.376Z</time></trkpt><trkpt lat="43.0588783" lon="13.3810867"><ele>580.0</ele><time>2026-04-09T11:53:41.377Z</time></trkpt><trkpt lat="43.0589783" lon="13.3808967"><ele>580.0</ele><time>2026-04-09T11:53:42.377Z</time></trkpt><trkpt lat="43.05907" lon="13.380705"><ele>580.0</ele><time>2026-04-09T11:53:43.377Z</time></trkpt><trkpt lat="43.0591483" lon="13.3805067"><ele>580.0</ele><time>2026-04-09T11:53:44.377Z</time></trkpt><trkpt lat="43.0592067" lon="13.3803"><ele>578.6666666666667</ele><time>2026-04-09T11:53:45.377Z</time></trkpt><trkpt lat="43.05924" lon="13.380085"><ele>577.3333333333334</ele><time>2026-04-09T11:53:46.376Z</time></trkpt><trkpt lat="43.0592483" lon="13.37987"><ele>576.0</ele><time>2026-04-09T11:53:47.373Z</time></trkpt><trkpt lat="43.0592317" lon="13.3796533"><ele>576.0</ele><time>2026-04-09T11:53:48.373Z</time></trkpt><trkpt lat="43.0591967" lon="13.3794367"><ele>576.0</ele><time>2026-04-09T11:53:49.375Z</time></trkpt><trkpt lat="43.0591583" lon="13.3792267"><ele>576.0</ele><time>2026-04-09T11:53:50.375Z</time></trkpt><trkpt lat="43.05912" lon="13.3790183"><ele>579.75</ele><time>2026-04-09T11:53:51.374Z</time></trkpt><trkpt lat="43.0590833" lon="13.3788117"><ele>583.5</ele><time>2026-04-09T11:53:52.377Z</time></trkpt><trkpt lat="43.0590467" lon="13.3786133"><ele>587.25</ele><time>2026-04-09T11:53:53.375Z</time></trkpt><trkpt lat="43.0590133" lon="13.3784333"><ele>591.0</ele><time>2026-04-09T11:53:54.374Z</time></trkpt><trkpt lat="43.05898" lon="13.3782733"><ele>591.0</ele><time>2026-04-09T11:53:55.377Z</time></trkpt><trkpt lat="43.0589517" lon="13.3781267"><ele>591.0</ele><time>2026-04-09T11:53:56.374Z</time></trkpt><trkpt lat="43.0589267" lon="13.3779967"><ele>591.0</ele><time>2026-04-09T11:53:57.373Z</time></trkpt><trkpt lat="43.058905" lon="13.37788"><ele>591.0</ele><time>2026-04-09T11:53:58.374Z</time></trkpt><trkpt lat="43.0588817" lon="13.377785"><ele>591.0</ele><time>2026-04-09T11:53:59.372Z</time></trkpt><trkpt lat="43.0588333" lon="13.3776583"><ele>591.8</ele><time>2026-04-09T11:54:01.378Z</time></trkpt><trkpt lat="43.05876" lon="13.3776633"><ele>592.6</ele><time>2026-04-09T11:54:03.373Z</time></trkpt><trkpt lat="43.0586317" lon="13.3777067"><ele>593.4</ele><time>2026-04-09T11:54:05.377Z</time></trkpt><trkpt lat="43.0585533" lon="13.3777433"><ele>594.2</ele><time>2026-04-09T11:54:06.376Z</time></trkpt><trkpt lat="43.0584617" lon="13.3777833"><ele>595.0</ele><time>2026-04-09T11:54:07.375Z</time></trkpt><trkpt lat="43.05835" lon="13.377835"><ele>596.25</ele><time>2026-04-09T11:54:08.376Z</time></trkpt><trkpt lat="43.0582383" lon="13.3778817"><ele>597.5</ele><time>2026-04-09T11:54:09.376Z</time></trkpt><trkpt lat="43.05812" lon="13.37793"><ele>598.75</ele><time>2026-04-09T11:54:10.372Z</time></trkpt><trkpt lat="43.057995" lon="13.3779783"><ele>600.0</ele><time>2026-04-09T11:54:11.374Z</time></trkpt><trkpt lat="43.0578767" lon="13.3780267"><ele>600.0</ele><time>2026-04-09T11:54:12.375Z</time></trkpt><trkpt lat="43.0577683" lon="13.3780717"><ele>600.0</ele><time>2026-04-09T11:54:13.374Z</time></trkpt><trkpt lat="43.0576733" lon="13.3781067"><ele>600.0</ele><time>2026-04-09T11:54:14.374Z</time></trkpt><trkpt lat="43.0575933" lon="13.3781433"><ele>600.0</ele><time>2026-04-09T11:54:15.374Z</time></trkpt><trkpt lat="43.0575283" lon="13.3781733"><ele>600.0</ele><time>2026-04-09T11:54:16.374Z</time></trkpt><trkpt lat="43.0574633" lon="13.37821"><ele>600.0</ele><time>2026-04-09T11:54:17.375Z</time></trkpt><trkpt lat="43.0573883" lon="13.378255"><ele>597.6</ele><time>2026-04-09T11:54:18.376Z</time></trkpt><trkpt lat="43.0573033" lon="13.3783017"><ele>595.2</ele><time>2026-04-09T11:54:19.377Z</time></trkpt><trkpt lat="43.0572133" lon="13.3783417"><ele>592.8</ele><time>2026-04-09T11:54:20.377Z</time></trkpt><trkpt lat="43.0571183" lon="13.37837"><ele>590.4</ele><time>2026-04-09T11:54:21.374Z</time></trkpt><trkpt lat="43.0570217" lon="13.3783817"><ele>588.0</ele><time>2026-04-09T11:54:22.376Z</time></trkpt><trkpt lat="43.0569267" lon="13.3783733"><ele>588.0</ele><time>2026-04-09T11:54:23.377Z</time></trkpt><trkpt lat="43.0568417" lon="13.37834"><ele>588.0</ele><time>2026-04-09T11:54:24.377Z</time></trkpt><trkpt lat="43.0567583" lon="13.3782867"><ele>588.0</ele><time>2026-04-09T11:54:25.375Z</time></trkpt><trkpt lat="43.0566767" lon="13.3782217"><ele>588.0</ele><time>2026-04-09T11:54:26.377Z</time></trkpt><trkpt lat="43.0565917" lon="13.3781433"><ele>588.0</ele><time>2026-04-09T11:54:27.373Z</time></trkpt><trkpt lat="43.056505" lon="13.37806"><ele>586.6</ele><time>2026-04-09T11:54:28.374Z</time></trkpt><trkpt lat="43.0564183" lon="13.377985"><ele>585.1999999999999</ele><time>2026-04-09T11:54:29.374Z</time></trkpt><trkpt lat="43.0563267" lon="13.3779333"><ele>583.8</ele><time>2026-04-09T11:54:30.373Z</time></trkpt><trkpt lat="43.0562317" lon="13.3778983"><ele>582.4</ele><time>2026-04-09T11:54:31.373Z</time></trkpt><trkpt lat="43.05613" lon="13.377875"><ele>581.0</ele><time>2026-04-09T11:54:32.374Z</time></trkpt><trkpt lat="43.0560233" lon="13.3778567"><ele>581.0</ele><time>2026-04-09T11:54:33.373Z</time></trkpt><trkpt lat="43.0559083" lon="13.37784"><ele>581.0</ele><time>2026-04-09T11:54:34.374Z</time></trkpt><trkpt lat="43.0557933" lon="13.37782"><ele>581.0</ele><time>2026-04-09T11:54:35.375Z</time></trkpt><trkpt lat="43.05568" lon="13.3778"><ele>581.0</ele><time>2026-04-09T11:54:36.375Z</time></trkpt><trkpt lat="43.0555717" lon="13.37778"><ele>578.0</ele><time>2026-04-09T11:54:37.375Z</time></trkpt><trkpt lat="43.0554667" lon="13.37776"><ele>575.0</ele><time>2026-04-09T11:54:38.376Z</time></trkpt><trkpt lat="43.05536" lon="13.3777383"><ele>572.0</ele><time>2026-04-09T11:54:39.374Z</time></trkpt><trkpt lat="43.05525" lon="13.377715"><ele>569.0</ele><time>2026-04-09T11:54:40.374Z</time></trkpt><trkpt lat="43.0551267" lon="13.3777"><ele>566.0</ele><time>2026-04-09T11:54:41.372Z</time></trkpt><trkpt lat="43.0549983" lon="13.3776917"><ele>562.25</ele><time>2026-04-09T11:54:42.373Z</time></trkpt><trkpt lat="43.0548633" lon="13.377685"><ele>558.5</ele><time>2026-04-09T11:54:43.373Z</time></trkpt><trkpt lat="43.0547267" lon="13.37767"><ele>554.75</ele><time>2026-04-09T11:54:44.374Z</time></trkpt><trkpt lat="43.0545867" lon="13.3776583"><ele>551.0</ele><time>2026-04-09T11:54:45.373Z</time></trkpt><trkpt lat="43.0544367" lon="13.37765"><ele>551.0</ele><time>2026-04-09T11:54:46.374Z</time></trkpt><trkpt lat="43.0542867" lon="13.3776417"><ele>551.0</ele><time>2026-04-09T11:54:47.377Z</time></trkpt><trkpt lat="43.05414" lon="13.3776283"><ele>551.0</ele><time>2026-04-09T11:54:48.376Z</time></trkpt><trkpt lat="43.053995" lon="13.3776117"><ele>551.0</ele><time>2026-04-09T11:54:49.377Z</time></trkpt><trkpt lat="43.0538567" lon="13.37759"><ele>548.25</ele><time>2026-04-09T11:54:50.376Z</time></trkpt><trkpt lat="43.0537183" lon="13.3775717"><ele>545.5</ele><time>2026-04-09T11:54:51.376Z</time></trkpt><trkpt lat="43.0535917" lon="13.37755"><ele>542.75</ele><time>2026-04-09T11:54:52.377Z</time></trkpt><trkpt lat="43.0534717" lon="13.377525"><ele>540.0</ele><time>2026-04-09T11:54:53.373Z</time></trkpt><trkpt lat="43.0533617" lon="13.3774983"><ele>539.2</ele><time>2026-04-09T11:54:54.376Z</time></trkpt><trkpt lat="43.05326" lon="13.3774717"><ele>538.4</ele><time>2026-04-09T11:54:55.374Z</time></trkpt><trkpt lat="43.0531617" lon="13.3774467"><ele>537.6</ele><time>2026-04-09T11:54:56.377Z</time></trkpt><trkpt lat="43.0530683" lon="13.3774267"><ele>536.8</ele><time>2026-04-09T11:54:57.377Z</time></trkpt><trkpt lat="43.0529867" lon="13.377405"><ele>536.0</ele><time>2026-04-09T11:54:58.378Z</time></trkpt><trkpt lat="43.05291" lon="13.377375"><ele>536.0</ele><time>2026-04-09T11:54:59.377Z</time></trkpt><trkpt lat="43.052845" lon="13.37733"><ele>536.0</ele><time>2026-04-09T11:55:00.378Z</time></trkpt><trkpt lat="43.0527867" lon="13.37727"><ele>536.0</ele><time>2026-04-09T11:55:01.378Z</time></trkpt><trkpt lat="43.0527267" lon="13.3772083"><ele>536.0</ele><time>2026-04-09T11:55:02.377Z</time></trkpt><trkpt lat="43.0526517" lon="13.3771533"><ele>536.0</ele><time>2026-04-09T11:55:03.378Z</time></trkpt><trkpt lat="43.0525733" lon="13.3771033"><ele>536.0</ele><time>2026-04-09T11:55:04.377Z</time></trkpt><trkpt lat="43.0524967" lon="13.377055"><ele>535.1666666666666</ele><time>2026-04-09T11:55:05.377Z</time></trkpt><trkpt lat="43.0524317" lon="13.3770133"><ele>534.3333333333333</ele><time>2026-04-09T11:55:06.377Z</time></trkpt><trkpt lat="43.0523167" lon="13.3769733"><ele>533.5</ele><time>2026-04-09T11:55:08.377Z</time></trkpt><trkpt lat="43.0523783" lon="13.37692"><ele>532.6666666666666</ele><time>2026-04-09T11:55:24.378Z</time></trkpt><trkpt lat="43.052435" lon="13.3768267"><ele>531.8333333333334</ele><time>2026-04-09T11:55:27.377Z</time></trkpt><trkpt lat="43.0524617" lon="13.37674"><ele>531.0</ele><time>2026-04-09T11:55:31.376Z</time></trkpt><trkpt lat="43.052395" lon="13.3766933"><ele>529.5</ele><time>2026-04-09T11:55:33.376Z</time></trkpt><trkpt lat="43.052285" lon="13.376635"><ele>528.0</ele><time>2026-04-09T11:55:35.378Z</time></trkpt><trkpt lat="43.05222" lon="13.3766017"><ele>526.5</ele><time>2026-04-09T11:55:36.377Z</time></trkpt><trkpt lat="43.0521583" lon="13.376565"><ele>525.0</ele><time>2026-04-09T11:55:37.379Z</time></trkpt><trkpt lat="43.0521" lon="13.3765267"><ele>523.5</ele><time>2026-04-09T11:55:38.375Z</time></trkpt><trkpt lat="43.05199" lon="13.3764633"><ele>522.0</ele><time>2026-04-09T11:55:40.377Z</time></trkpt><trkpt lat="43.0518883" lon="13.376385"><ele>521.0</ele><time>2026-04-09T11:55:42.377Z</time></trkpt><trkpt lat="43.0517783" lon="13.376305"><ele>520.0</ele><time>2026-04-09T11:55:44.375Z</time></trkpt><trkpt lat="43.0517217" lon="13.3762633"><ele>519.0</ele><time>2026-04-09T11:55:45.376Z</time></trkpt><trkpt lat="43.0516633" lon="13.37622"><ele>518.0</ele><time>2026-04-09T11:55:46.377Z</time></trkpt><trkpt lat="43.0516033" lon="13.37617"><ele>517.0</ele><time>2026-04-09T11:55:47.378Z</time></trkpt><trkpt lat="43.0515483" lon="13.3761167"><ele>516.0</ele><time>2026-04-09T11:55:48.376Z</time></trkpt><trkpt lat="43.051495" lon="13.37606"><ele>512.2</ele><time>2026-04-09T11:55:49.376Z</time></trkpt><trkpt lat="43.051445" lon="13.376005"><ele>508.40000000000003</ele><time>2026-04-09T11:55:50.378Z</time></trkpt><trkpt lat="43.0513467" lon="13.3758983"><ele>504.6</ele><time>2026-04-09T11:55:52.378Z</time></trkpt><trkpt lat="43.0512533" lon="13.3757917"><ele>500.8</ele><time>2026-04-09T11:55:54.374Z</time></trkpt><trkpt lat="43.0511883" lon="13.3756567"><ele>497.0</ele><time>2026-04-09T11:55:56.374Z</time></trkpt><trkpt lat="43.0511733" lon="13.3755717"><ele>495.0</ele><time>2026-04-09T11:55:57.376Z</time></trkpt><trkpt lat="43.051165" lon="13.3754817"><ele>493.00000000000006</ele><time>2026-04-09T11:55:58.376Z</time></trkpt><trkpt lat="43.0511533" lon="13.3753183"><ele>491.00000000000006</ele><time>2026-04-09T11:56:00.377Z</time></trkpt><trkpt lat="43.0511083" lon="13.375185"><ele>489.0</ele><time>2026-04-09T11:56:02.376Z</time></trkpt><trkpt lat="43.0510083" lon="13.3750883"><ele>487.0</ele><time>2026-04-09T11:56:04.377Z</time></trkpt><trkpt lat="43.0509467" lon="13.3750417"><ele>487.00000000000006</ele><time>2026-04-09T11:56:05.378Z</time></trkpt><trkpt lat="43.0508767" lon="13.3749917"><ele>487.0</ele><time>2026-04-09T11:56:06.377Z</time></trkpt><trkpt lat="43.0508067" lon="13.3749433"><ele>487.0</ele><time>2026-04-09T11:56:07.377Z</time></trkpt><trkpt lat="43.050735" lon="13.3748933"><ele>487.0</ele><time>2026-04-09T11:56:08.377Z</time></trkpt><trkpt lat="43.0506667" lon="13.3748333"><ele>487.00000000000006</ele><time>2026-04-09T11:56:09.377Z</time></trkpt><trkpt lat="43.0506033" lon="13.374765"><ele>487.0</ele><time>2026-04-09T11:56:10.377Z</time></trkpt><trkpt lat="43.050545" lon="13.3747033"><ele>484.00000000000006</ele><time>2026-04-09T11:56:11.377Z</time></trkpt><trkpt lat="43.05049" lon="13.374655"><ele>481.0</ele><time>2026-04-09T11:56:12.378Z</time></trkpt><trkpt lat="43.050375" lon="13.3745983"><ele>478.0</ele><time>2026-04-09T11:56:14.377Z</time></trkpt><trkpt lat="43.05031" lon="13.37459"><ele>475.0</ele><time>2026-04-09T11:56:15.377Z</time></trkpt><trkpt lat="43.0502433" lon="13.3745783"><ele>472.00000000000006</ele><time>2026-04-09T11:56:16.377Z</time></trkpt><trkpt lat="43.0501717" lon="13.3745583"><ele>469.0</ele><time>2026-04-09T11:56:17.378Z</time></trkpt><trkpt lat="43.0500983" lon="13.3745267"><ele>469.00000000000006</ele><time>2026-04-09T11:56:18.377Z</time></trkpt><trkpt lat="43.0500317" lon="13.37448"><ele>469.0</ele><time>2026-04-09T11:56:19.377Z</time></trkpt><trkpt lat="43.0499683" lon="13.37441"><ele>469.0</ele><time>2026-04-09T11:56:20.376Z</time></trkpt><trkpt lat="43.0499133" lon="13.37433"><ele>469.0</ele><time>2026-04-09T11:56:21.374Z</time></trkpt><trkpt lat="43.0498583" lon="13.374245"><ele>469.00000000000006</ele><time>2026-04-09T11:56:22.377Z</time></trkpt><trkpt lat="43.0498067" lon="13.37416"><ele>469.0</ele><time>2026-04-09T11:56:23.378Z</time></trkpt><trkpt lat="43.0497517" lon="13.3740817"><ele>465.83333333333337</ele><time>2026-04-09T11:56:24.377Z</time></trkpt><trkpt lat="43.049695" lon="13.3740117"><ele>462.6666666666667</ele><time>2026-04-09T11:56:25.376Z</time></trkpt><trkpt lat="43.0496317" lon="13.3739483"><ele>459.5</ele><time>2026-04-09T11:56:26.377Z</time></trkpt><trkpt lat="43.049565" lon="13.3738883"><ele>456.33333333333337</ele><time>2026-04-09T11:56:27.378Z</time></trkpt><trkpt lat="43.04949" lon="13.3738367"><ele>453.1666666666667</ele><time>2026-04-09T11:56:28.376Z</time></trkpt><trkpt lat="43.0494133" lon="13.3737933"><ele>450.0</ele><time>2026-04-09T11:56:29.377Z</time></trkpt><trkpt lat="43.0493367" lon="13.3737483"><ele>448.6666666666667</ele><time>2026-04-09T11:56:30.377Z</time></trkpt><trkpt lat="43.0492583" lon="13.3737"><ele>447.33333333333337</ele><time>2026-04-09T11:56:31.377Z</time></trkpt><trkpt lat="43.04918" lon="13.3736483"><ele>446.0</ele><time>2026-04-09T11:56:32.378Z</time></trkpt><trkpt lat="43.0491033" lon="13.373595"><ele>444.6666666666667</ele><time>2026-04-09T11:56:33.376Z</time></trkpt><trkpt lat="43.04903" lon="13.3735417"><ele>443.33333333333337</ele><time>2026-04-09T11:56:34.379Z</time></trkpt><trkpt lat="43.0489617" lon="13.37349"><ele>442.0</ele><time>2026-04-09T11:56:35.377Z</time></trkpt><trkpt lat="43.0488983" lon="13.3734433"><ele>440.42857142857144</ele><time>2026-04-09T11:56:36.376Z</time></trkpt><trkpt lat="43.0488333" lon="13.373405"><ele>438.8571428571429</ele><time>2026-04-09T11:56:37.377Z</time></trkpt><trkpt lat="43.0487667" lon="13.3733783"><ele>437.28571428571433</ele><time>2026-04-09T11:56:38.377Z</time></trkpt><trkpt lat="43.0487" lon="13.37336"><ele>435.7142857142857</ele><time>2026-04-09T11:56:39.377Z</time></trkpt><trkpt lat="43.0486317" lon="13.3733433"><ele>434.1428571428571</ele><time>2026-04-09T11:56:40.377Z</time></trkpt><trkpt lat="43.0485617" lon="13.3733267"><ele>432.5714285714286</ele><time>2026-04-09T11:56:41.377Z</time></trkpt><trkpt lat="43.0484967" lon="13.3733117"><ele>431.0</ele><time>2026-04-09T11:56:42.376Z</time></trkpt><trkpt lat="43.04838" lon="13.3732867"><ele>427.6</ele><time>2026-04-09T11:56:44.376Z</time></trkpt><trkpt lat="43.04829" lon="13.373285"><ele>424.20000000000005</ele><time>2026-04-09T11:56:46.376Z</time></trkpt><trkpt lat="43.0482133" lon="13.37335"><ele>420.79999999999995</ele><time>2026-04-09T11:56:48.376Z</time></trkpt><trkpt lat="43.0481767" lon="13.3734767"><ele>417.4</ele><time>2026-04-09T11:56:50.377Z</time></trkpt><trkpt lat="43.0481283" lon="13.373615"><ele>414.0</ele><time>2026-04-09T11:56:52.374Z</time></trkpt><trkpt lat="43.0480833" lon="13.37368"><ele>414.00000000000006</ele><time>2026-04-09T11:56:53.377Z</time></trkpt><trkpt lat="43.0480267" lon="13.3737367"><ele>414.0</ele><time>2026-04-09T11:56:54.377Z</time></trkpt><trkpt lat="43.0479667" lon="13.3737733"><ele>414.0</ele><time>2026-04-09T11:56:55.378Z</time></trkpt><trkpt lat="43.0478983" lon="13.3737883"><ele>414.0</ele><time>2026-04-09T11:56:56.374Z</time></trkpt><trkpt lat="43.0478333" lon="13.3737817"><ele>414.0</ele><time>2026-04-09T11:56:57.376Z</time></trkpt><trkpt lat="43.0477717" lon="13.373745"><ele>414.00000000000006</ele><time>2026-04-09T11:56:58.377Z</time></trkpt><trkpt lat="43.0477133" lon="13.373695"><ele>414.0</ele><time>2026-04-09T11:56:59.375Z</time></trkpt><trkpt lat="43.0476567" lon="13.3736317"><ele>414.0</ele><time>2026-04-09T11:57:00.378Z</time></trkpt><trkpt lat="43.0476" lon="13.373555"><ele>414.0</ele><time>2026-04-09T11:57:01.377Z</time></trkpt><trkpt lat="43.0475383" lon="13.37348"><ele>414.0</ele><time>2026-04-09T11:57:02.376Z</time></trkpt><trkpt lat="43.0474717" lon="13.373405"><ele>414.0</ele><time>2026-04-09T11:57:03.375Z</time></trkpt><trkpt lat="43.047405" lon="13.3733233"><ele>414.0</ele><time>2026-04-09T11:57:04.376Z</time></trkpt><trkpt lat="43.04734" lon="13.3732417"><ele>414.0</ele><time>2026-04-09T11:57:05.379Z</time></trkpt><trkpt lat="43.047275" lon="13.373165"><ele>409.8333333333333</ele><time>2026-04-09T11:57:06.377Z</time></trkpt><trkpt lat="43.0472083" lon="13.3731017"><ele>405.66666666666663</ele><time>2026-04-09T11:57:07.373Z</time></trkpt><trkpt lat="43.047145" lon="13.37305"><ele>401.5</ele><time>2026-04-09T11:57:08.374Z</time></trkpt><trkpt lat="43.0470767" lon="13.3730117"><ele>397.3333333333333</ele><time>2026-04-09T11:57:09.373Z</time></trkpt><trkpt lat="43.0470017" lon="13.3729917"><ele>393.16666666666663</ele><time>2026-04-09T11:57:10.374Z</time></trkpt><trkpt lat="43.0469217" lon="13.3729733"><ele>389.0</ele><time>2026-04-09T11:57:11.373Z</time></trkpt><trkpt lat="43.0468383" lon="13.3729633"><ele>388.99999999999994</ele><time>2026-04-09T11:57:12.375Z</time></trkpt><trkpt lat="43.0467583" lon="13.372955"><ele>389.0</ele><time>2026-04-09T11:57:13.374Z</time></trkpt><trkpt lat="43.0466733" lon="13.3729517"><ele>389.0</ele><time>2026-04-09T11:57:14.374Z</time></trkpt><trkpt lat="43.0465917" lon="13.37294"><ele>389.0</ele><time>2026-04-09T11:57:15.374Z</time></trkpt><trkpt lat="43.0465167" lon="13.3729167"><ele>388.99999999999994</ele><time>2026-04-09T11:57:16.375Z</time></trkpt><trkpt lat="43.0464483" lon="13.3728883"><ele>389.0</ele><time>2026-04-09T11:57:17.374Z</time></trkpt><trkpt lat="43.046385" lon="13.3728633"><ele>385.66666666666663</ele><time>2026-04-09T11:57:18.375Z</time></trkpt><trkpt lat="43.046265" lon="13.372855"><ele>382.3333333333333</ele><time>2026-04-09T11:57:20.377Z</time></trkpt><trkpt lat="43.0462017" lon="13.3728783"><ele>379.0</ele><time>2026-04-09T11:57:21.377Z</time></trkpt><trkpt lat="43.046135" lon="13.3728983"><ele>375.66666666666663</ele><time>2026-04-09T11:57:22.377Z</time></trkpt><trkpt lat="43.0460683" lon="13.37291"><ele>372.3333333333333</ele><time>2026-04-09T11:57:23.374Z</time></trkpt><trkpt lat="43.0460033" lon="13.3729217"><ele>369.0</ele><time>2026-04-09T11:57:24.376Z</time></trkpt><trkpt lat="43.0458983" lon="13.37295"><ele>366.8333333333333</ele><time>2026-04-09T11:57:26.374Z</time></trkpt><trkpt lat="43.04579" lon="13.373005"><ele>364.6666666666667</ele><time>2026-04-09T11:57:28.374Z</time></trkpt><trkpt lat="43.0456883" lon="13.37312"><ele>362.5</ele><time>2026-04-09T11:57:30.375Z</time></trkpt><trkpt lat="43.0456367" lon="13.3731767"><ele>360.33333333333337</ele><time>2026-04-09T11:57:31.376Z</time></trkpt><trkpt lat="43.0455817" lon="13.3732267"><ele>358.1666666666667</ele><time>2026-04-09T11:57:32.377Z</time></trkpt><trkpt lat="43.045525" lon="13.3732683"><ele>356.0</ele><time>2026-04-09T11:57:33.377Z</time></trkpt><trkpt lat="43.0454633" lon="13.3733067"><ele>356.0</ele><time>2026-04-09T11:57:34.377Z</time></trkpt><trkpt lat="43.0453283" lon="13.3733483"><ele>356.0</ele><time>2026-04-09T11:57:36.376Z</time></trkpt><trkpt lat="43.0452417" lon="13.3733667"><ele>356.0</ele><time>2026-04-09T11:57:37.375Z</time></trkpt><trkpt lat="43.0451567" lon="13.3733917"><ele>356.0</ele><time>2026-04-09T11:57:38.374Z</time></trkpt><trkpt lat="43.0450717" lon="13.3734283"><ele>356.0</ele><time>2026-04-09T11:57:39.375Z</time></trkpt><trkpt lat="43.0449817" lon="13.373485"><ele>353.5</ele><time>2026-04-09T11:57:40.382Z</time></trkpt><trkpt lat="43.0448967" lon="13.37353"><ele>351.0</ele><time>2026-04-09T11:57:41.38Z</time></trkpt><trkpt lat="43.04482" lon="13.37356"><ele>348.5</ele><time>2026-04-09T11:57:42.377Z</time></trkpt><trkpt lat="43.0447433" lon="13.3735633"><ele>346.0</ele><time>2026-04-09T11:57:43.377Z</time></trkpt><trkpt lat="43.044665" lon="13.3735583"><ele>343.5</ele><time>2026-04-09T11:57:44.374Z</time></trkpt><trkpt lat="43.044585" lon="13.3735533"><ele>341.0</ele><time>2026-04-09T11:57:45.373Z</time></trkpt><trkpt lat="43.044505" lon="13.3735567"><ele>341.0</ele><time>2026-04-09T11:57:46.374Z</time></trkpt><trkpt lat="43.0444267" lon="13.37356"><ele>341.0</ele><time>2026-04-09T11:57:47.375Z</time></trkpt><trkpt lat="43.0443583" lon="13.3735783"><ele>341.0</ele><time>2026-04-09T11:57:48.374Z</time></trkpt><trkpt lat="43.0442683" lon="13.3735883"><ele>341.0</ele><time>2026-04-09T11:57:49.375Z</time></trkpt><trkpt lat="43.044195" lon="13.3736117"><ele>341.0</ele><time>2026-04-09T11:57:50.375Z</time></trkpt><trkpt lat="43.0441333" lon="13.37365"><ele>341.0</ele><time>2026-04-09T11:57:51.377Z</time></trkpt><trkpt lat="43.0440833" lon="13.3737033"><ele>341.0</ele><time>2026-04-09T11:57:52.378Z</time></trkpt><trkpt lat="43.04398" lon="13.3738033"><ele>337.83333333333337</ele><time>2026-04-09T11:57:54.375Z</time></trkpt><trkpt lat="43.0439333" lon="13.3738667"><ele>334.6666666666667</ele><time>2026-04-09T11:57:55.373Z</time></trkpt><trkpt lat="43.0438483" lon="13.3739483"><ele>331.5</ele><time>2026-04-09T11:57:57.378Z</time></trkpt><trkpt lat="43.04378" lon="13.37395"><ele>328.3333333333333</ele><time>2026-04-09T11:57:59.378Z</time></trkpt><trkpt lat="43.043725" lon="13.373865"><ele>325.16666666666663</ele><time>2026-04-09T11:58:01.378Z</time></trkpt><trkpt lat="43.0436883" lon="13.3737417"><ele>322.0</ele><time>2026-04-09T11:58:03.376Z</time></trkpt><trkpt lat="43.0436467" lon="13.373605"><ele>321.75</ele><time>2026-04-09T11:58:05.378Z</time></trkpt><trkpt lat="43.043635" lon="13.3734633"><ele>321.5</ele><time>2026-04-09T11:58:07.373Z</time></trkpt><trkpt lat="43.043645" lon="13.3733167"><ele>321.25</ele><time>2026-04-09T11:58:09.373Z</time></trkpt><trkpt lat="43.0436633" lon="13.373155"><ele>321.0</ele><time>2026-04-09T11:58:11.378Z</time></trkpt><trkpt lat="43.0436483" lon="13.3729933"><ele>320.5</ele><time>2026-04-09T11:58:13.377Z</time></trkpt><trkpt lat="43.0436167" lon="13.37283"><ele>320.0</ele><time>2026-04-09T11:58:15.374Z</time></trkpt><trkpt lat="43.0435917" lon="13.3727467"><ele>319.5</ele><time>2026-04-09T11:58:16.373Z</time></trkpt><trkpt lat="43.0435617" lon="13.3726667"><ele>319.0</ele><time>2026-04-09T11:58:17.374Z</time></trkpt><trkpt lat="43.0435233" lon="13.3725917"><ele>318.5</ele><time>2026-04-09T11:58:18.374Z</time></trkpt><trkpt lat="43.0434817" lon="13.3725217"><ele>318.0</ele><time>2026-04-09T11:58:19.374Z</time></trkpt><trkpt lat="43.0434083" lon="13.3724233"><ele>318.0</ele><time>2026-04-09T11:58:21.375Z</time></trkpt><trkpt lat="43.0433517" lon="13.372355"><ele>318.0</ele><time>2026-04-09T11:58:23.377Z</time></trkpt><trkpt lat="43.04329" lon="13.3722783"><ele>318.0</ele><time>2026-04-09T11:58:26.378Z</time></trkpt><trkpt lat="43.04323" lon="13.37224"><ele>318.0</ele><time>2026-04-09T11:58:28.378Z</time></trkpt><trkpt lat="43.0431717" lon="13.3721933"><ele>318.0</ele><time>2026-04-09T11:58:30.378Z</time></trkpt><trkpt lat="43.0431233" lon="13.372115"><ele>318.0</ele><time>2026-04-09T11:58:33.377Z</time></trkpt><trkpt lat="43.0430833" lon="13.3720383"><ele>318.0</ele><time>2026-04-09T11:58:35.377Z</time></trkpt><trkpt lat="43.0430317" lon="13.3719583"><ele>318.2857142857143</ele><time>2026-04-09T11:58:37.378Z</time></trkpt><trkpt lat="43.0429567" lon="13.37189"><ele>318.5714285714286</ele><time>2026-04-09T11:58:40.377Z</time></trkpt><trkpt lat="43.04291" lon="13.3718317"><ele>318.8571428571429</ele><time>2026-04-09T11:58:42.377Z</time></trkpt><trkpt lat="43.0428767" lon="13.3717517"><ele>319.1428571428571</ele><time>2026-04-09T11:58:44.378Z</time></trkpt><trkpt lat="43.0428383" lon="13.371665"><ele>319.42857142857144</ele><time>2026-04-09T11:58:46.377Z</time></trkpt><trkpt lat="43.0428" lon="13.3715767"><ele>319.7142857142857</ele><time>2026-04-09T11:58:48.378Z</time></trkpt><trkpt lat="43.0427583" lon="13.3714883"><ele>320.0</ele><time>2026-04-09T11:58:50.374Z</time></trkpt><trkpt lat="43.0427083" lon="13.371395"><ele>320.2</ele><time>2026-04-09T11:58:52.375Z</time></trkpt><trkpt lat="43.0426667" lon="13.371285"><ele>320.4</ele><time>2026-04-09T11:58:55.378Z</time></trkpt><trkpt lat="43.0426467" lon="13.37119"><ele>320.6</ele><time>2026-04-09T11:58:57.379Z</time></trkpt><trkpt lat="43.042625" lon="13.3710817"><ele>320.8</ele><time>2026-04-09T11:58:59.378Z</time></trkpt><trkpt lat="43.042595" lon="13.3709567"><ele>321.0</ele><time>2026-04-09T11:59:01.377Z</time></trkpt><trkpt lat="43.0425617" lon="13.3708133"><ele>321.0</ele><time>2026-04-09T11:59:03.378Z</time></trkpt><trkpt lat="43.0425417" lon="13.370675"><ele>321.0</ele><time>2026-04-09T11:59:05.377Z</time></trkpt><trkpt lat="43.0425317" lon="13.3705333"><ele>321.0</ele><time>2026-04-09T11:59:07.377Z</time></trkpt><trkpt lat="43.0425367" lon="13.3703983"><ele>321.0</ele><time>2026-04-09T11:59:09.378Z</time></trkpt><trkpt lat="43.04256" lon="13.370265"><ele>321.0</ele><time>2026-04-09T11:59:11.378Z</time></trkpt><trkpt lat="43.042595" lon="13.37016"><ele>321.6666666666667</ele><time>2026-04-09T11:59:13.377Z</time></trkpt><trkpt lat="43.0426483" lon="13.3700667"><ele>322.3333333333333</ele><time>2026-04-09T11:59:15.378Z</time></trkpt><trkpt lat="43.04269" lon="13.3699733"><ele>323.0</ele><time>2026-04-09T11:59:17.378Z</time></trkpt><trkpt lat="43.0427217" lon="13.36987"><ele>323.66666666666663</ele><time>2026-04-09T11:59:20.377Z</time></trkpt><trkpt lat="43.0427233" lon="13.369755"><ele>324.3333333333333</ele><time>2026-04-09T12:00:23.373Z</time></trkpt><trkpt lat="43.0427533" lon="13.3696383"><ele>325.0</ele><time>2026-04-09T12:00:25.374Z</time></trkpt><trkpt lat="43.0428033" lon="13.3695267"><ele>325.0</ele><time>2026-04-09T12:00:27.375Z</time></trkpt><trkpt lat="43.04285" lon="13.3694417"><ele>325.0</ele><time>2026-04-09T12:00:29.375Z</time></trkpt><trkpt lat="43.0427767" lon="13.3695317"><ele>325.0</ele><time>2026-04-09T12:01:35.377Z</time></trkpt><trkpt lat="43.042735" lon="13.3696417"><ele>325.0</ele><time>2026-04-09T12:01:37.376Z</time></trkpt><trkpt lat="43.0427" lon="13.369735"><ele>325.0</ele><time>2026-04-09T12:01:40.375Z</time></trkpt><trkpt lat="43.0426917" lon="13.3698217"><ele>325.0</ele><time>2026-04-09T12:01:44.377Z</time></trkpt><trkpt lat="43.0426867" lon="13.36994"><ele>325.0</ele><time>2026-04-09T12:01:47.377Z</time></trkpt><trkpt lat="43.0426317" lon="13.3700383"><ele>325.0</ele><time>2026-04-09T12:01:51.373Z</time></trkpt><trkpt lat="43.04259" lon="13.370105"><ele>325.0</ele><time>2026-04-09T12:01:53.381Z</time></trkpt><trkpt lat="43.0425517" lon="13.3702"><ele>325.0</ele><time>2026-04-09T12:01:56.374Z</time></trkpt><trkpt lat="43.042535" lon="13.3703117"><ele>325.0</ele><time>2026-04-09T12:01:59.374Z</time></trkpt><trkpt lat="43.04252" lon="13.3704333"><ele>325.0</ele><time>2026-04-09T12:02:01.374Z</time></trkpt><trkpt lat="43.0425183" lon="13.3705667"><ele>324.3333333333333</ele><time>2026-04-09T12:02:03.374Z</time></trkpt><trkpt lat="43.0425317" lon="13.3706683"><ele>323.66666666666663</ele><time>2026-04-09T12:02:05.373Z</time></trkpt><trkpt lat="43.04255" lon="13.370785"><ele>323.0</ele><time>2026-04-09T12:02:07.373Z</time></trkpt><trkpt lat="43.0425683" lon="13.3709467"><ele>322.3333333333333</ele><time>2026-04-09T12:02:09.374Z</time></trkpt><trkpt lat="43.0425833" lon="13.3710333"><ele>321.6666666666667</ele><time>2026-04-09T12:02:10.375Z</time></trkpt><trkpt lat="43.0426" lon="13.3711167"><ele>321.0</ele><time>2026-04-09T12:02:11.373Z</time></trkpt><trkpt lat="43.0426433" lon="13.37128"><ele>320.8</ele><time>2026-04-09T12:02:13.373Z</time></trkpt><trkpt lat="43.0427017" lon="13.37142"><ele>320.6</ele><time>2026-04-09T12:02:15.377Z</time></trkpt><trkpt lat="43.0427633" lon="13.371555"><ele>320.4</ele><time>2026-04-09T12:02:17.376Z</time></trkpt><trkpt lat="43.0428367" lon="13.3716883"><ele>320.2</ele><time>2026-04-09T12:02:19.377Z</time></trkpt><trkpt lat="43.0428767" lon="13.371755"><ele>320.0</ele><time>2026-04-09T12:02:20.377Z</time></trkpt><trkpt lat="43.04295" lon="13.371875"><ele>320.0</ele><time>2026-04-09T12:02:22.376Z</time></trkpt><trkpt lat="43.043025" lon="13.371965"><ele>320.0</ele><time>2026-04-09T12:02:24.372Z</time></trkpt><trkpt lat="43.0431117" lon="13.372065"><ele>320.0</ele><time>2026-04-09T12:02:26.376Z</time></trkpt><trkpt lat="43.043195" lon="13.3721867"><ele>320.0</ele><time>2026-04-09T12:02:28.373Z</time></trkpt><trkpt lat="43.0432483" lon="13.3722483"><ele>320.0</ele><time>2026-04-09T12:02:29.373Z</time></trkpt><trkpt lat="43.0433033" lon="13.3723"><ele>319.7142857142857</ele><time>2026-04-09T12:02:30.374Z</time></trkpt><trkpt lat="43.043355" lon="13.3723583"><ele>319.42857142857144</ele><time>2026-04-09T12:02:31.375Z</time></trkpt><trkpt lat="43.043405" lon="13.37242"><ele>319.1428571428571</ele><time>2026-04-09T12:02:32.374Z</time></trkpt><trkpt lat="43.0434533" lon="13.37249"><ele>318.8571428571429</ele><time>2026-04-09T12:02:33.375Z</time></trkpt><trkpt lat="43.0434933" lon="13.3725667"><ele>318.5714285714286</ele><time>2026-04-09T12:02:34.375Z</time></trkpt><trkpt lat="43.0435317" lon="13.37265"><ele>318.2857142857143</ele><time>2026-04-09T12:02:35.377Z</time></trkpt><trkpt lat="43.043565" lon="13.3727367"><ele>318.0</ele><time>2026-04-09T12:02:36.377Z</time></trkpt><trkpt lat="43.0435883" lon="13.3728267"><ele>318.0</ele><time>2026-04-09T12:02:37.376Z</time></trkpt><trkpt lat="43.0436067" lon="13.3729167"><ele>318.0</ele><time>2026-04-09T12:02:38.375Z</time></trkpt><trkpt lat="43.043625" lon="13.3730133"><ele>318.0</ele><time>2026-04-09T12:02:39.374Z</time></trkpt><trkpt lat="43.0436433" lon="13.37311"><ele>318.0</ele><time>2026-04-09T12:02:40.375Z</time></trkpt><trkpt lat="43.04365" lon="13.37321"><ele>318.0</ele><time>2026-04-09T12:02:41.374Z</time></trkpt><trkpt lat="43.0436433" lon="13.3733083"><ele>318.0</ele><time>2026-04-09T12:02:42.376Z</time></trkpt><trkpt lat="43.04363" lon="13.373405"><ele>318.0</ele><time>2026-04-09T12:02:43.378Z</time></trkpt><trkpt lat="43.0436317" lon="13.37351"><ele>318.5</ele><time>2026-04-09T12:02:44.375Z</time></trkpt><trkpt lat="43.0436433" lon="13.3736117"><ele>319.0</ele><time>2026-04-09T12:02:45.375Z</time></trkpt><trkpt lat="43.0436583" lon="13.3737183"><ele>319.5</ele><time>2026-04-09T12:02:46.375Z</time></trkpt><trkpt lat="43.0436767" lon="13.37382"><ele>320.0</ele><time>2026-04-09T12:02:47.374Z</time></trkpt><trkpt lat="43.0437067" lon="13.3739017"><ele>320.5</ele><time>2026-04-09T12:02:48.375Z</time></trkpt><trkpt lat="43.043755" lon="13.37401"><ele>321.0</ele><time>2026-04-09T12:02:50.375Z</time></trkpt><trkpt lat="43.043665" lon="13.37399"><ele>321.20000000000005</ele><time>2026-04-09T12:03:06.376Z</time></trkpt><trkpt lat="43.0435817" lon="13.373985"><ele>321.40000000000003</ele><time>2026-04-09T12:03:08.377Z</time></trkpt><trkpt lat="43.04348" lon="13.3739733"><ele>321.6</ele><time>2026-04-09T12:03:10.376Z</time></trkpt><trkpt lat="43.0433717" lon="13.3739617"><ele>321.8</ele><time>2026-04-09T12:03:12.375Z</time></trkpt><trkpt lat="43.0432717" lon="13.373965"><ele>322.0</ele><time>2026-04-09T12:03:14.373Z</time></trkpt><trkpt lat="43.0431767" lon="13.3740083"><ele>320.6</ele><time>2026-04-09T12:03:16.378Z</time></trkpt><trkpt lat="43.0430967" lon="13.3740733"><ele>319.20000000000005</ele><time>2026-04-09T12:03:18.374Z</time></trkpt><trkpt lat="43.04301" lon="13.3741133"><ele>317.8</ele><time>2026-04-09T12:03:20.376Z</time></trkpt><trkpt lat="43.0429217" lon="13.3741217"><ele>316.4</ele><time>2026-04-09T12:03:22.375Z</time></trkpt><trkpt lat="43.04282" lon="13.37412"><ele>315.0</ele><time>2026-04-09T12:03:24.375Z</time></trkpt><trkpt lat="43.0427267" lon="13.374105"><ele>315.0</ele><time>2026-04-09T12:03:26.376Z</time></trkpt><trkpt lat="43.042635" lon="13.3741017"><ele>315.0</ele><time>2026-04-09T12:03:28.374Z</time></trkpt><trkpt lat="43.042555" lon="13.3741183"><ele>315.0</ele><time>2026-04-09T12:03:31.376Z</time></trkpt><trkpt lat="43.0424783" lon="13.3741317"><ele>315.0</ele><time>2026-04-09T12:04:11.377Z</time></trkpt><trkpt lat="43.0423833" lon="13.3741383"><ele>315.0</ele><time>2026-04-09T12:04:14.377Z</time></trkpt><trkpt lat="43.0423117" lon="13.3741617"><ele>315.0</ele><time>2026-04-09T12:04:16.374Z</time></trkpt><trkpt lat="43.042235" lon="13.3742017"><ele>315.4</ele><time>2026-04-09T12:04:18.373Z</time></trkpt><trkpt lat="43.042145" lon="13.37424"><ele>315.8</ele><time>2026-04-09T12:04:20.374Z</time></trkpt><trkpt lat="43.04206" lon="13.3742967"><ele>316.2</ele><time>2026-04-09T12:04:22.374Z</time></trkpt><trkpt lat="43.0419817" lon="13.3743667"><ele>316.6</ele><time>2026-04-09T12:04:24.375Z</time></trkpt><trkpt lat="43.041915" lon="13.3744517"><ele>317.0</ele><time>2026-04-09T12:04:26.374Z</time></trkpt><trkpt lat="43.0418767" lon="13.374565"><ele>317.4</ele><time>2026-04-09T12:04:28.373Z</time></trkpt><trkpt lat="43.0418867" lon="13.3747067"><ele>317.79999999999995</ele><time>2026-04-09T12:04:30.374Z</time></trkpt><trkpt lat="43.041915" lon="13.37486"><ele>318.2</ele><time>2026-04-09T12:04:32.374Z</time></trkpt><trkpt lat="43.0419367" lon="13.3750283"><ele>318.59999999999997</ele><time>2026-04-09T12:04:34.374Z</time></trkpt><trkpt lat="43.04195" lon="13.375125"><ele>319.0</ele><time>2026-04-09T12:04:35.373Z</time></trkpt><trkpt lat="43.0419667" lon="13.3752283"><ele>319.0</ele><time>2026-04-09T12:04:36.374Z</time></trkpt><trkpt lat="43.041985" lon="13.3753333"><ele>319.0</ele><time>2026-04-09T12:04:37.378Z</time></trkpt><trkpt lat="43.0420067" lon="13.3754333"><ele>319.0</ele><time>2026-04-09T12:04:38.378Z</time></trkpt><trkpt lat="43.04203" lon="13.3755267"><ele>319.0</ele><time>2026-04-09T12:04:39.377Z</time></trkpt><trkpt lat="43.0420517" lon="13.375615"><ele>319.0</ele><time>2026-04-09T12:04:40.377Z</time></trkpt><trkpt lat="43.0420733" lon="13.3756967"><ele>319.0</ele><time>2026-04-09T12:04:41.375Z</time></trkpt><trkpt lat="43.042135" lon="13.3758417"><ele>318.7142857142857</ele><time>2026-04-09T12:04:43.377Z</time></trkpt><trkpt lat="43.0421733" lon="13.3759183"><ele>318.4285714285714</ele><time>2026-04-09T12:04:44.378Z</time></trkpt><trkpt lat="43.0422067" lon="13.3760033"><ele>318.1428571428571</ele><time>2026-04-09T12:04:45.379Z</time></trkpt><trkpt lat="43.0422383" lon="13.3760917"><ele>317.8571428571429</ele><time>2026-04-09T12:04:46.377Z</time></trkpt><trkpt lat="43.04227" lon="13.376175"><ele>317.57142857142856</ele><time>2026-04-09T12:04:47.375Z</time></trkpt><trkpt lat="43.0423033" lon="13.3762567"><ele>317.2857142857143</ele><time>2026-04-09T12:04:48.375Z</time></trkpt><trkpt lat="43.04233" lon="13.3763483"><ele>317.0</ele><time>2026-04-09T12:04:49.375Z</time></trkpt><trkpt lat="43.0423583" lon="13.3764433"><ele>316.5</ele><time>2026-04-09T12:04:50.374Z</time></trkpt><trkpt lat="43.0423833" lon="13.3765417"><ele>316.0</ele><time>2026-04-09T12:04:51.381Z</time></trkpt><trkpt lat="43.0424033" lon="13.376645"><ele>315.5</ele><time>2026-04-09T12:04:52.375Z</time></trkpt><trkpt lat="43.0424167" lon="13.3767517"><ele>315.0</ele><time>2026-04-09T12:04:53.374Z</time></trkpt><trkpt lat="43.0424333" lon="13.37685"><ele>314.5</ele><time>2026-04-09T12:04:54.376Z</time></trkpt><trkpt lat="43.04245" lon="13.3769533"><ele>314.0</ele><time>2026-04-09T12:04:55.376Z</time></trkpt><trkpt lat="43.0424683" lon="13.3770533"><ele>313.85714285714283</ele><time>2026-04-09T12:04:56.375Z</time></trkpt><trkpt lat="43.0424867" lon="13.37715"><ele>313.7142857142857</ele><time>2026-04-09T12:04:57.375Z</time></trkpt><trkpt lat="43.0424967" lon="13.3772483"><ele>313.57142857142856</ele><time>2026-04-09T12:04:58.374Z</time></trkpt><trkpt lat="43.04251" lon="13.3773483"><ele>313.42857142857144</ele><time>2026-04-09T12:04:59.374Z</time></trkpt><trkpt lat="43.0425267" lon="13.3774517"><ele>313.2857142857143</ele><time>2026-04-09T12:05:00.375Z</time></trkpt><trkpt lat="43.0425433" lon="13.37755"><ele>313.1428571428571</ele><time>2026-04-09T12:05:01.376Z</time></trkpt><trkpt lat="43.0425583" lon="13.377645"><ele>313.0</ele><time>2026-04-09T12:05:02.375Z</time></trkpt><trkpt lat="43.0425717" lon="13.3777417"><ele>313.0</ele><time>2026-04-09T12:05:03.376Z</time></trkpt><trkpt lat="43.0425817" lon="13.377835"><ele>313.0</ele><time>2026-04-09T12:05:04.377Z</time></trkpt><trkpt lat="43.0426083" lon="13.3779817"><ele>313.0</ele><time>2026-04-09T12:05:06.377Z</time></trkpt><trkpt lat="43.0426267" lon="13.3780867"><ele>313.0</ele><time>2026-04-09T12:05:08.376Z</time></trkpt><trkpt lat="43.042645" lon="13.3781883"><ele>313.0</ele><time>2026-04-09T12:05:11.375Z</time></trkpt><trkpt lat="43.0427033" lon="13.37814"><ele>313.0</ele><time>2026-04-09T12:09:10.378Z</time></trkpt><trkpt lat="43.0426467" lon="13.3780867"><ele>313.0</ele><time>2026-04-09T12:09:15.377Z</time></trkpt><trkpt lat="43.04263" lon="13.3779967"><ele>313.0</ele><time>2026-04-09T12:09:18.378Z</time></trkpt><trkpt lat="43.0426133" lon="13.3778917"><ele>313.0</ele><time>2026-04-09T12:09:20.377Z</time></trkpt><trkpt lat="43.0425917" lon="13.3777533"><ele>313.0</ele><time>2026-04-09T12:09:22.377Z</time></trkpt><trkpt lat="43.04257" lon="13.3775983"><ele>313.0</ele><time>2026-04-09T12:09:24.378Z</time></trkpt><trkpt lat="43.04254" lon="13.3774333"><ele>313.0</ele><time>2026-04-09T12:09:26.377Z</time></trkpt><trkpt lat="43.0425217" lon="13.3773467"><ele>313.0</ele><time>2026-04-09T12:09:27.376Z</time></trkpt><trkpt lat="43.042495" lon="13.3771867"><ele>313.0</ele><time>2026-04-09T12:09:29.378Z</time></trkpt><trkpt lat="43.0424817" lon="13.3771017"><ele>313.0</ele><time>2026-04-09T12:09:30.378Z</time></trkpt><trkpt lat="43.0424667" lon="13.377015"><ele>313.0</ele><time>2026-04-09T12:09:31.378Z</time></trkpt><trkpt lat="43.0424483" lon="13.3769233"><ele>313.0</ele><time>2026-04-09T12:09:32.377Z</time></trkpt><trkpt lat="43.0424283" lon="13.37683"><ele>313.1428571428571</ele><time>2026-04-09T12:09:33.379Z</time></trkpt><trkpt lat="43.04241" lon="13.376735"><ele>313.2857142857143</ele><time>2026-04-09T12:09:34.377Z</time></trkpt><trkpt lat="43.0423883" lon="13.37664"><ele>313.42857142857144</ele><time>2026-04-09T12:09:35.378Z</time></trkpt><trkpt lat="43.0423667" lon="13.376545"><ele>313.57142857142856</ele><time>2026-04-09T12:09:36.378Z</time></trkpt><trkpt lat="43.0423433" lon="13.3764517"><ele>313.7142857142857</ele><time>2026-04-09T12:09:37.378Z</time></trkpt><trkpt lat="43.04232" lon="13.3763617"><ele>313.85714285714283</ele><time>2026-04-09T12:09:38.378Z</time></trkpt><trkpt lat="43.0422983" lon="13.376275"><ele>314.0</ele><time>2026-04-09T12:09:39.378Z</time></trkpt><trkpt lat="43.04227" lon="13.37619"><ele>314.5</ele><time>2026-04-09T12:09:40.378Z</time></trkpt><trkpt lat="43.042235" lon="13.3761083"><ele>315.0</ele><time>2026-04-09T12:09:41.376Z</time></trkpt><trkpt lat="43.0421967" lon="13.376025"><ele>315.5</ele><time>2026-04-09T12:09:42.377Z</time></trkpt><trkpt lat="43.04216" lon="13.3759467"><ele>316.0</ele><time>2026-04-09T12:09:43.378Z</time></trkpt><trkpt lat="43.04212" lon="13.37587"><ele>316.5</ele><time>2026-04-09T12:09:44.377Z</time></trkpt><trkpt lat="43.042085" lon="13.3757967"><ele>317.0</ele><time>2026-04-09T12:09:45.377Z</time></trkpt><trkpt lat="43.042045" lon="13.375645"><ele>317.4</ele><time>2026-04-09T12:09:47.378Z</time></trkpt><trkpt lat="43.0420133" lon="13.3754667"><ele>317.79999999999995</ele><time>2026-04-09T12:09:49.378Z</time></trkpt><trkpt lat="43.0419967" lon="13.3753617"><ele>318.2</ele><time>2026-04-09T12:09:50.377Z</time></trkpt><trkpt lat="43.0419733" lon="13.3752533"><ele>318.59999999999997</ele><time>2026-04-09T12:09:51.378Z</time></trkpt><trkpt lat="43.041955" lon="13.3751417"><ele>319.0</ele><time>2026-04-09T12:09:52.378Z</time></trkpt><trkpt lat="43.0419383" lon="13.37503"><ele>319.0</ele><time>2026-04-09T12:09:53.378Z</time></trkpt><trkpt lat="43.0419183" lon="13.3749183"><ele>319.0</ele><time>2026-04-09T12:09:54.377Z</time></trkpt><trkpt lat="43.0419" lon="13.3748167"><ele>319.0</ele><time>2026-04-09T12:09:55.377Z</time></trkpt><trkpt lat="43.0418833" lon="13.3747267"><ele>319.0</ele><time>2026-04-09T12:09:56.378Z</time></trkpt><trkpt lat="43.0418683" lon="13.3745867"><ele>319.0</ele><time>2026-04-09T12:09:58.378Z</time></trkpt><trkpt lat="43.0418833" lon="13.374475"><ele>319.0</ele><time>2026-04-09T12:10:00.378Z</time></trkpt><trkpt lat="43.041935" lon="13.374375"><ele>318.59999999999997</ele><time>2026-04-09T12:10:02.378Z</time></trkpt><trkpt lat="43.042045" lon="13.3742867"><ele>318.2</ele><time>2026-04-09T12:10:04.377Z</time></trkpt><trkpt lat="43.0421083" lon="13.3742567"><ele>317.79999999999995</ele><time>2026-04-09T12:10:05.378Z</time></trkpt><trkpt lat="43.0421683" lon="13.37423"><ele>317.4</ele><time>2026-04-09T12:10:06.377Z</time></trkpt><trkpt lat="43.04227" lon="13.374175"><ele>317.0</ele><time>2026-04-09T12:10:08.376Z</time></trkpt><trkpt lat="43.04237" lon="13.3741433"><ele>317.0</ele><time>2026-04-09T12:10:10.377Z</time></trkpt><trkpt lat="43.0424567" lon="13.3741417"><ele>317.0</ele><time>2026-04-09T12:10:12.378Z</time></trkpt><trkpt lat="43.0425267" lon="13.374125"><ele>317.0</ele><time>2026-04-09T12:10:15.378Z</time></trkpt><trkpt lat="43.042605" lon="13.3741167"><ele>317.0</ele><time>2026-04-09T12:10:51.376Z</time></trkpt><trkpt lat="43.042675" lon="13.374115"><ele>317.0</ele><time>2026-04-09T12:10:52.374Z</time></trkpt><trkpt lat="43.0427467" lon="13.374115"><ele>317.0</ele><time>2026-04-09T12:10:53.377Z</time></trkpt><trkpt lat="43.04282" lon="13.3741217"><ele>316.7142857142857</ele><time>2026-04-09T12:10:54.374Z</time></trkpt><trkpt lat="43.042895" lon="13.3741183"><ele>316.42857142857144</ele><time>2026-04-09T12:10:55.374Z</time></trkpt><trkpt lat="43.04297" lon="13.3741117"><ele>316.1428571428571</ele><time>2026-04-09T12:10:56.377Z</time></trkpt><trkpt lat="43.04304" lon="13.3740933"><ele>315.8571428571429</ele><time>2026-04-09T12:10:57.375Z</time></trkpt><trkpt lat="43.04311" lon="13.3740633"><ele>315.57142857142856</ele><time>2026-04-09T12:10:58.378Z</time></trkpt><trkpt lat="43.0431717" lon="13.374025"><ele>315.2857142857143</ele><time>2026-04-09T12:10:59.377Z</time></trkpt><trkpt lat="43.043235" lon="13.3739917"><ele>315.0</ele><time>2026-04-09T12:11:00.374Z</time></trkpt><trkpt lat="43.0433033" lon="13.3739717"><ele>316.1666666666667</ele><time>2026-04-09T12:11:01.373Z</time></trkpt><trkpt lat="43.0433783" lon="13.3739717"><ele>317.3333333333333</ele><time>2026-04-09T12:11:02.375Z</time></trkpt><trkpt lat="43.0434683" lon="13.373985"><ele>318.5</ele><time>2026-04-09T12:11:03.376Z</time></trkpt><trkpt lat="43.0435533" lon="13.3739933"><ele>319.66666666666663</ele><time>2026-04-09T12:11:04.378Z</time></trkpt><trkpt lat="43.0436283" lon="13.3739967"><ele>320.8333333333333</ele><time>2026-04-09T12:11:05.373Z</time></trkpt><trkpt lat="43.0437033" lon="13.3739933"><ele>322.0</ele><time>2026-04-09T12:11:06.374Z</time></trkpt><trkpt lat="43.04378" lon="13.3739817"><ele>322.0</ele><time>2026-04-09T12:11:07.373Z</time></trkpt><trkpt lat="43.0438567" lon="13.37396"><ele>322.0</ele><time>2026-04-09T12:11:08.375Z</time></trkpt><trkpt lat="43.043915" lon="13.3739133"><ele>322.0</ele><time>2026-04-09T12:11:09.375Z</time></trkpt><trkpt lat="43.0439683" lon="13.3738483"><ele>322.0</ele><time>2026-04-09T12:11:10.374Z</time></trkpt><trkpt lat="43.0440333" lon="13.373785"><ele>322.0</ele><time>2026-04-09T12:11:11.377Z</time></trkpt><trkpt lat="43.0441017" lon="13.3737283"><ele>322.0</ele><time>2026-04-09T12:11:12.373Z</time></trkpt><trkpt lat="43.0441767" lon="13.37368"><ele>325.16666666666663</ele><time>2026-04-09T12:11:13.375Z</time></trkpt><trkpt lat="43.0442567" lon="13.3736483"><ele>328.3333333333333</ele><time>2026-04-09T12:11:14.374Z</time></trkpt><trkpt lat="43.0443433" lon="13.373625"><ele>331.5</ele><time>2026-04-09T12:11:15.374Z</time></trkpt><trkpt lat="43.0444283" lon="13.3736117"><ele>334.6666666666667</ele><time>2026-04-09T12:11:16.374Z</time></trkpt><trkpt lat="43.044515" lon="13.3736083"><ele>337.83333333333337</ele><time>2026-04-09T12:11:17.375Z</time></trkpt><trkpt lat="43.0446017" lon="13.3736133"><ele>341.0</ele><time>2026-04-09T12:11:18.375Z</time></trkpt><trkpt lat="43.04469" lon="13.373605"><ele>341.0</ele><time>2026-04-09T12:11:19.376Z</time></trkpt><trkpt lat="43.0447817" lon="13.3735933"><ele>341.0</ele><time>2026-04-09T12:11:20.375Z</time></trkpt><trkpt lat="43.0448733" lon="13.373575"><ele>341.0</ele><time>2026-04-09T12:11:21.376Z</time></trkpt><trkpt lat="43.0449683" lon="13.37354"><ele>341.0</ele><time>2026-04-09T12:11:22.375Z</time></trkpt><trkpt lat="43.0450617" lon="13.3734983"><ele>341.0</ele><time>2026-04-09T12:11:23.374Z</time></trkpt><trkpt lat="43.0451533" lon="13.3734633"><ele>343.5</ele><time>2026-04-09T12:11:24.375Z</time></trkpt><trkpt lat="43.0452433" lon="13.373435"><ele>346.0</ele><time>2026-04-09T12:11:25.375Z</time></trkpt><trkpt lat="43.0453283" lon="13.37341"><ele>348.5</ele><time>2026-04-09T12:11:26.375Z</time></trkpt><trkpt lat="43.045415" lon="13.37338"><ele>351.0</ele><time>2026-04-09T12:11:27.374Z</time></trkpt><trkpt lat="43.0454917" lon="13.373345"><ele>353.5</ele><time>2026-04-09T12:11:28.378Z</time></trkpt><trkpt lat="43.0455667" lon="13.3732967"><ele>356.0</ele><time>2026-04-09T12:11:29.375Z</time></trkpt><trkpt lat="43.045635" lon="13.373235"><ele>355.99999999999994</ele><time>2026-04-09T12:11:30.375Z</time></trkpt><trkpt lat="43.045695" lon="13.3731683"><ele>356.0</ele><time>2026-04-09T12:11:31.375Z</time></trkpt><trkpt lat="43.04575" lon="13.373105"><ele>356.0</ele><time>2026-04-09T12:11:32.376Z</time></trkpt><trkpt lat="43.045805" lon="13.3730483"><ele>356.0</ele><time>2026-04-09T12:11:33.375Z</time></trkpt><trkpt lat="43.0458633" lon="13.3730017"><ele>356.0</ele><time>2026-04-09T12:11:34.374Z</time></trkpt><trkpt lat="43.0459317" lon="13.3729717"><ele>355.99999999999994</ele><time>2026-04-09T12:11:35.375Z</time></trkpt><trkpt lat="43.0460083" lon="13.3729417"><ele>356.0</ele><time>2026-04-09T12:11:36.377Z</time></trkpt><trkpt lat="43.0460967" lon="13.3729167"><ele>358.6</ele><time>2026-04-09T12:11:37.373Z</time></trkpt><trkpt lat="43.0461983" lon="13.3728983"><ele>361.20000000000005</ele><time>2026-04-09T12:11:38.376Z</time></trkpt><trkpt lat="43.0463017" lon="13.37288"><ele>363.79999999999995</ele><time>2026-04-09T12:11:39.375Z</time></trkpt><trkpt lat="43.0463933" lon="13.37288"><ele>366.4</ele><time>2026-04-09T12:11:40.374Z</time></trkpt><trkpt lat="43.0464833" lon="13.3728983"><ele>369.0</ele><time>2026-04-09T12:11:41.375Z</time></trkpt><trkpt lat="43.0465783" lon="13.3729233"><ele>374.0</ele><time>2026-04-09T12:11:42.377Z</time></trkpt><trkpt lat="43.0466967" lon="13.3729467"><ele>379.0</ele><time>2026-04-09T12:11:43.376Z</time></trkpt><trkpt lat="43.0468283" lon="13.37297"><ele>384.0</ele><time>2026-04-09T12:11:44.374Z</time></trkpt><trkpt lat="43.0469533" lon="13.37299"><ele>389.0</ele><time>2026-04-09T12:11:45.374Z</time></trkpt><trkpt lat="43.0470683" lon="13.373015"><ele>389.0</ele><time>2026-04-09T12:11:46.375Z</time></trkpt><trkpt lat="43.04716" lon="13.37305"><ele>389.0</ele><time>2026-04-09T12:11:47.374Z</time></trkpt><trkpt lat="43.047235" lon="13.3730967"><ele>389.0</ele><time>2026-04-09T12:11:48.374Z</time></trkpt><trkpt lat="43.0473067" lon="13.373155"><ele>389.0</ele><time>2026-04-09T12:11:49.373Z</time></trkpt><trkpt lat="43.0473817" lon="13.37323"><ele>389.0</ele><time>2026-04-09T12:11:50.374Z</time></trkpt><trkpt lat="43.0474583" lon="13.3733233"><ele>394.0</ele><time>2026-04-09T12:11:51.376Z</time></trkpt><trkpt lat="43.0475317" lon="13.373425"><ele>399.0</ele><time>2026-04-09T12:11:52.377Z</time></trkpt><trkpt lat="43.0476017" lon="13.3735217"><ele>404.0</ele><time>2026-04-09T12:11:53.373Z</time></trkpt><trkpt lat="43.0476717" lon="13.3736117"><ele>409.0</ele><time>2026-04-09T12:11:54.374Z</time></trkpt><trkpt lat="43.047735" lon="13.3736867"><ele>414.0</ele><time>2026-04-09T12:11:55.377Z</time></trkpt><trkpt lat="43.0478017" lon="13.3737467"><ele>414.0</ele><time>2026-04-09T12:11:56.375Z</time></trkpt><trkpt lat="43.0478683" lon="13.3737783"><ele>414.0</ele><time>2026-04-09T12:11:57.377Z</time></trkpt><trkpt lat="43.0479417" lon="13.3737817"><ele>414.0</ele><time>2026-04-09T12:11:58.376Z</time></trkpt><trkpt lat="43.04802" lon="13.373755"><ele>414.0</ele><time>2026-04-09T12:11:59.377Z</time></trkpt><trkpt lat="43.0480983" lon="13.3737"><ele>414.0</ele><time>2026-04-09T12:12:00.377Z</time></trkpt><trkpt lat="43.0481667" lon="13.3736133"><ele>414.0</ele><time>2026-04-09T12:12:01.378Z</time></trkpt><trkpt lat="43.0482167" lon="13.3735167"><ele>414.0</ele><time>2026-04-09T12:12:02.376Z</time></trkpt><trkpt lat="43.0482433" lon="13.3734167"><ele>414.0</ele><time>2026-04-09T12:12:03.374Z</time></trkpt><trkpt lat="43.0482833" lon="13.37329"><ele>414.0</ele><time>2026-04-09T12:12:05.375Z</time></trkpt><trkpt lat="43.0483767" lon="13.3732567"><ele>414.0</ele><time>2026-04-09T12:12:08.377Z</time></trkpt><trkpt lat="43.0484983" lon="13.3733017"><ele>414.0</ele><time>2026-04-09T12:12:10.377Z</time></trkpt><trkpt lat="43.0485833" lon="13.3733233"><ele>417.4</ele><time>2026-04-09T12:12:11.376Z</time></trkpt><trkpt lat="43.0486667" lon="13.3733467"><ele>420.79999999999995</ele><time>2026-04-09T12:12:12.377Z</time></trkpt><trkpt lat="43.04876" lon="13.3733683"><ele>424.20000000000005</ele><time>2026-04-09T12:12:13.377Z</time></trkpt><trkpt lat="43.0488533" lon="13.3734017"><ele>427.6</ele><time>2026-04-09T12:12:14.376Z</time></trkpt><trkpt lat="43.0489417" lon="13.3734483"><ele>431.0</ele><time>2026-04-09T12:12:15.377Z</time></trkpt><trkpt lat="43.04903" lon="13.3735167"><ele>431.0</ele><time>2026-04-09T12:12:16.377Z</time></trkpt><trkpt lat="43.0491217" lon="13.37359"><ele>431.0</ele><time>2026-04-09T12:12:17.376Z</time></trkpt><trkpt lat="43.0492183" lon="13.37366"><ele>431.0</ele><time>2026-04-09T12:12:18.378Z</time></trkpt><trkpt lat="43.0493183" lon="13.3737267"><ele>431.0</ele><time>2026-04-09T12:12:19.376Z</time></trkpt><trkpt lat="43.04942" lon="13.3737867"><ele>431.0</ele><time>2026-04-09T12:12:20.377Z</time></trkpt><trkpt lat="43.0495133" lon="13.3738517"><ele>434.8</ele><time>2026-04-09T12:12:21.377Z</time></trkpt><trkpt lat="43.0496033" lon="13.37392"><ele>438.6</ele><time>2026-04-09T12:12:22.377Z</time></trkpt><trkpt lat="43.0496833" lon="13.373995"><ele>442.4</ele><time>2026-04-09T12:12:23.377Z</time></trkpt><trkpt lat="43.0497583" lon="13.3740783"><ele>446.2</ele><time>2026-04-09T12:12:24.376Z</time></trkpt><trkpt lat="43.049825" lon="13.3741717"><ele>450.0</ele><time>2026-04-09T12:12:25.377Z</time></trkpt><trkpt lat="43.049885" lon="13.3742733"><ele>450.0</ele><time>2026-04-09T12:12:26.376Z</time></trkpt><trkpt lat="43.0499467" lon="13.37437"><ele>450.0</ele><time>2026-04-09T12:12:27.376Z</time></trkpt><trkpt lat="43.0500167" lon="13.3744533"><ele>450.0</ele><time>2026-04-09T12:12:28.378Z</time></trkpt><trkpt lat="43.0500967" lon="13.374515"><ele>450.0</ele><time>2026-04-09T12:12:29.377Z</time></trkpt><trkpt lat="43.0501917" lon="13.37456"><ele>450.0</ele><time>2026-04-09T12:12:30.376Z</time></trkpt><trkpt lat="43.050295" lon="13.3745933"><ele>453.8</ele><time>2026-04-09T12:12:31.377Z</time></trkpt><trkpt lat="43.0503917" lon="13.3746183"><ele>457.6</ele><time>2026-04-09T12:12:32.377Z</time></trkpt><trkpt lat="43.050475" lon="13.3746517"><ele>461.4</ele><time>2026-04-09T12:12:33.377Z</time></trkpt><trkpt lat="43.0505533" lon="13.374695"><ele>465.2</ele><time>2026-04-09T12:12:34.377Z</time></trkpt><trkpt lat="43.05063" lon="13.37476"><ele>469.0</ele><time>2026-04-09T12:12:35.377Z</time></trkpt><trkpt lat="43.0507183" lon="13.3748383"><ele>472.6</ele><time>2026-04-09T12:12:36.377Z</time></trkpt><trkpt lat="43.0508117" lon="13.374915"><ele>476.2</ele><time>2026-04-09T12:12:37.377Z</time></trkpt><trkpt lat="43.0509083" lon="13.3749883"><ele>479.80000000000007</ele><time>2026-04-09T12:12:38.377Z</time></trkpt><trkpt lat="43.051" lon="13.375055"><ele>483.40000000000003</ele><time>2026-04-09T12:12:39.377Z</time></trkpt><trkpt lat="43.0510767" lon="13.37512"><ele>487.0</ele><time>2026-04-09T12:12:40.377Z</time></trkpt><trkpt lat="43.0511333" lon="13.37519"><ele>487.00000000000006</ele><time>2026-04-09T12:12:41.377Z</time></trkpt><trkpt lat="43.0511767" lon="13.375265"><ele>487.0</ele><time>2026-04-09T12:12:42.376Z</time></trkpt><trkpt lat="43.0512033" lon="13.3753533"><ele>487.0</ele><time>2026-04-09T12:12:43.378Z</time></trkpt><trkpt lat="43.0512217" lon="13.37546"><ele>487.0</ele><time>2026-04-09T12:12:44.376Z</time></trkpt><trkpt lat="43.0512333" lon="13.375575"><ele>487.00000000000006</ele><time>2026-04-09T12:12:45.373Z</time></trkpt><trkpt lat="43.05125" lon="13.37568"><ele>487.0</ele><time>2026-04-09T12:12:46.378Z</time></trkpt><trkpt lat="43.051275" lon="13.3757783"><ele>489.0</ele><time>2026-04-09T12:12:47.377Z</time></trkpt><trkpt lat="43.05132" lon="13.375865"><ele>491.00000000000006</ele><time>2026-04-09T12:12:48.377Z</time></trkpt><trkpt lat="43.05139" lon="13.3759467"><ele>493.00000000000006</ele><time>2026-04-09T12:12:49.377Z</time></trkpt><trkpt lat="43.0514683" lon="13.3760267"><ele>495.0</ele><time>2026-04-09T12:12:50.373Z</time></trkpt><trkpt lat="43.0515517" lon="13.3761083"><ele>497.0</ele><time>2026-04-09T12:12:51.377Z</time></trkpt><trkpt lat="43.051635" lon="13.376185"><ele>500.8</ele><time>2026-04-09T12:12:52.376Z</time></trkpt><trkpt lat="43.0517267" lon="13.37626"><ele>504.6</ele><time>2026-04-09T12:12:53.377Z</time></trkpt><trkpt lat="43.05182" lon="13.3763317"><ele>508.40000000000003</ele><time>2026-04-09T12:12:54.376Z</time></trkpt><trkpt lat="43.0519167" lon="13.3764"><ele>512.2</ele><time>2026-04-09T12:12:55.378Z</time></trkpt><trkpt lat="43.0520133" lon="13.3764667"><ele>516.0</ele><time>2026-04-09T12:12:56.376Z</time></trkpt><trkpt lat="43.0521067" lon="13.3765267"><ele>517.2</ele><time>2026-04-09T12:12:57.377Z</time></trkpt><trkpt lat="43.0522017" lon="13.3765817"><ele>518.4000000000001</ele><time>2026-04-09T12:12:58.377Z</time></trkpt><trkpt lat="43.0522917" lon="13.37663"><ele>519.6</ele><time>2026-04-09T12:12:59.377Z</time></trkpt><trkpt lat="43.052375" lon="13.3766783"><ele>520.8000000000001</ele><time>2026-04-09T12:13:00.378Z</time></trkpt><trkpt lat="43.0524517" lon="13.3767283"><ele>522.0</ele><time>2026-04-09T12:13:01.377Z</time></trkpt><trkpt lat="43.0525267" lon="13.376775"><ele>523.8000000000001</ele><time>2026-04-09T12:13:02.376Z</time></trkpt><trkpt lat="43.0525917" lon="13.3768283"><ele>525.6</ele><time>2026-04-09T12:13:03.373Z</time></trkpt><trkpt lat="43.0526683" lon="13.376925"><ele>527.4000000000001</ele><time>2026-04-09T12:13:05.373Z</time></trkpt><trkpt lat="43.0527067" lon="13.3770017"><ele>529.2</ele><time>2026-04-09T12:13:07.374Z</time></trkpt><trkpt lat="43.0527717" lon="13.37695"><ele>531.0</ele><time>2026-04-09T12:13:21.378Z</time></trkpt><trkpt lat="43.052865" lon="13.3768267"><ele>531.0</ele><time>2026-04-09T12:13:23.375Z</time></trkpt><trkpt lat="43.0529217" lon="13.3767517"><ele>531.0</ele><time>2026-04-09T12:13:24.377Z</time></trkpt><trkpt lat="43.052985" lon="13.37667"><ele>531.0</ele><time>2026-04-09T12:13:25.377Z</time></trkpt><trkpt lat="43.0530517" lon="13.3765817"><ele>531.0</ele><time>2026-04-09T12:13:26.378Z</time></trkpt><trkpt lat="43.0531217" lon="13.3764883"><ele>531.0</ele><time>2026-04-09T12:13:27.378Z</time></trkpt><trkpt lat="43.0531917" lon="13.3763917"><ele>530.8</ele><time>2026-04-09T12:13:28.382Z</time></trkpt><trkpt lat="43.05325" lon="13.37629"><ele>530.6</ele><time>2026-04-09T12:13:29.377Z</time></trkpt><trkpt lat="43.053295" lon="13.3761767"><ele>530.4</ele><time>2026-04-09T12:13:30.376Z</time></trkpt><trkpt lat="43.053325" lon="13.3760533"><ele>530.2</ele><time>2026-04-09T12:13:31.377Z</time></trkpt><trkpt lat="43.05335" lon="13.37592"><ele>530.0</ele><time>2026-04-09T12:13:32.376Z</time></trkpt><trkpt lat="43.053375" lon="13.37578"><ele>530.0</ele><time>2026-04-09T12:13:33.377Z</time></trkpt><trkpt lat="43.0534017" lon="13.375625"><ele>530.0</ele><time>2026-04-09T12:13:34.377Z</time></trkpt><trkpt lat="43.0534317" lon="13.3754683"><ele>530.0</ele><time>2026-04-09T12:13:35.375Z</time></trkpt><trkpt lat="43.053465" lon="13.3753133"><ele>530.0</ele><time>2026-04-09T12:13:36.376Z</time></trkpt><trkpt lat="43.0534983" lon="13.3751567"><ele>529.5</ele><time>2026-04-09T12:13:37.377Z</time></trkpt><trkpt lat="43.0535333" lon="13.374995"><ele>529.0</ele><time>2026-04-09T12:13:38.378Z</time></trkpt><trkpt lat="43.0535683" lon="13.3748333"><ele>528.5</ele><time>2026-04-09T12:13:39.378Z</time></trkpt><trkpt lat="43.0536017" lon="13.374675"><ele>528.0</ele><time>2026-04-09T12:13:40.377Z</time></trkpt><trkpt lat="43.053625" lon="13.3745233"><ele>528.0</ele><time>2026-04-09T12:13:41.377Z</time></trkpt><trkpt lat="43.0536417" lon="13.3743733"><ele>528.0</ele><time>2026-04-09T12:13:42.378Z</time></trkpt><trkpt lat="43.0536583" lon="13.3742233"><ele>528.0</ele><time>2026-04-09T12:13:43.378Z</time></trkpt><trkpt lat="43.0536767" lon="13.3740833"><ele>528.0</ele><time>2026-04-09T12:13:44.377Z</time></trkpt><trkpt lat="43.0536883" lon="13.3739517"><ele>528.0</ele><time>2026-04-09T12:13:45.382Z</time></trkpt><trkpt lat="43.053685" lon="13.3738233"><ele>527.0</ele><time>2026-04-09T12:13:46.378Z</time></trkpt><trkpt lat="43.05367" lon="13.3737033"><ele>526.0</ele><time>2026-04-09T12:13:47.378Z</time></trkpt><trkpt lat="43.0536433" lon="13.3735817"><ele>525.0</ele><time>2026-04-09T12:13:48.376Z</time></trkpt><trkpt lat="43.0536133" lon="13.3734567"><ele>524.0</ele><time>2026-04-09T12:13:49.374Z</time></trkpt><trkpt lat="43.0535817" lon="13.37333"><ele>523.0</ele><time>2026-04-09T12:13:50.377Z</time></trkpt><trkpt lat="43.0535467" lon="13.3731967"><ele>523.0</ele><time>2026-04-09T12:13:51.378Z</time></trkpt><trkpt lat="43.0535083" lon="13.3730517"><ele>523.0</ele><time>2026-04-09T12:13:52.378Z</time></trkpt><trkpt lat="43.0534683" lon="13.372905"><ele>523.0</ele><time>2026-04-09T12:13:53.378Z</time></trkpt><trkpt lat="43.0534233" lon="13.372755"><ele>523.0</ele><time>2026-04-09T12:13:54.377Z</time></trkpt><trkpt lat="43.0533783" lon="13.3726117"><ele>522.4</ele><time>2026-04-09T12:13:55.378Z</time></trkpt><trkpt lat="43.0533333" lon="13.3724733"><ele>521.8</ele><time>2026-04-09T12:13:56.378Z</time></trkpt><trkpt lat="43.0532933" lon="13.37234"><ele>521.2</ele><time>2026-04-09T12:13:57.378Z</time></trkpt><trkpt lat="43.0532567" lon="13.3722083"><ele>520.6</ele><time>2026-04-09T12:13:58.375Z</time></trkpt><trkpt lat="43.0532233" lon="13.37208"><ele>520.0</ele><time>2026-04-09T12:13:59.375Z</time></trkpt><trkpt lat="43.0531967" lon="13.3719583"><ele>517.0</ele><time>2026-04-09T12:14:00.378Z</time></trkpt><trkpt lat="43.0531733" lon="13.37184"><ele>514.0</ele><time>2026-04-09T12:14:01.378Z</time></trkpt><trkpt lat="43.053155" lon="13.3717333"><ele>511.0</ele><time>2026-04-09T12:14:02.377Z</time></trkpt><trkpt lat="43.0531383" lon="13.37165"><ele>508.0</ele><time>2026-04-09T12:14:03.377Z</time></trkpt><trkpt lat="43.0531133" lon="13.3715383"><ele>505.00000000000006</ele><time>2026-04-09T12:14:05.377Z</time></trkpt><trkpt lat="43.053075" lon="13.3714533"><ele>502.0</ele><time>2026-04-09T12:14:08.378Z</time></trkpt><trkpt lat="43.0530167" lon="13.3714183"><ele>502.00000000000006</ele><time>2026-04-09T12:14:11.377Z</time></trkpt><trkpt lat="43.0529983" lon="13.371505"><ele>502.0</ele><time>2026-04-09T12:15:07.377Z</time></trkpt><trkpt lat="43.0530683" lon="13.3715433"><ele>502.0</ele><time>2026-04-09T12:15:10.378Z</time></trkpt><trkpt lat="43.053145" lon="13.3714767"><ele>502.0</ele><time>2026-04-09T12:15:13.376Z</time></trkpt><trkpt lat="43.0531917" lon="13.3714017"><ele>502.00000000000006</ele><time>2026-04-09T12:15:15.375Z</time></trkpt><trkpt lat="43.0532583" lon="13.3713433"><ele>502.0</ele><time>2026-04-09T12:15:17.378Z</time></trkpt><trkpt lat="43.053335" lon="13.3712917"><ele>500.33333333333337</ele><time>2026-04-09T12:15:19.374Z</time></trkpt><trkpt lat="43.0533883" lon="13.37124"><ele>498.6666666666667</ele><time>2026-04-09T12:15:21.373Z</time></trkpt><trkpt lat="43.0533583" lon="13.37114"><ele>497.0</ele><time>2026-04-09T12:15:25.375Z</time></trkpt><trkpt lat="43.0533083" lon="13.371085"><ele>495.33333333333337</ele><time>2026-04-09T12:15:27.375Z</time></trkpt><trkpt lat="43.0532617" lon="13.3709983"><ele>493.6666666666667</ele><time>2026-04-09T12:15:30.378Z</time></trkpt><trkpt lat="43.0532083" lon="13.3709033"><ele>492.0</ele><time>2026-04-09T12:15:33.378Z</time></trkpt><trkpt lat="43.0531367" lon="13.3708417"><ele>492.0</ele><time>2026-04-09T12:15:36.378Z</time></trkpt><trkpt lat="43.05321" lon="13.3708967"><ele>492.0</ele><time>2026-04-09T12:16:02.376Z</time></trkpt><trkpt lat="43.053265" lon="13.3709767"><ele>492.0</ele><time>2026-04-09T12:16:04.374Z</time></trkpt><trkpt lat="43.053315" lon="13.371055"><ele>492.0</ele><time>2026-04-09T12:16:06.377Z</time></trkpt><trkpt lat="43.053375" lon="13.3711333"><ele>492.0</ele><time>2026-04-09T12:16:08.373Z</time></trkpt><trkpt lat="43.0533983" lon="13.3712167"><ele>492.0</ele><time>2026-04-09T12:16:11.378Z</time></trkpt><trkpt lat="43.0533333" lon="13.371295"><ele>492.0</ele><time>2026-04-09T12:16:14.376Z</time></trkpt><trkpt lat="43.053255" lon="13.371335"><ele>492.0</ele><time>2026-04-09T12:16:17.377Z</time></trkpt><trkpt lat="43.0532017" lon="13.3713883"><ele>492.0</ele><time>2026-04-09T12:16:19.374Z</time></trkpt><trkpt lat="43.05315" lon="13.3714517"><ele>492.0</ele><time>2026-04-09T12:16:21.375Z</time></trkpt><trkpt lat="43.0531133" lon="13.3715283"><ele>492.0</ele><time>2026-04-09T12:16:23.376Z</time></trkpt><trkpt lat="43.05313" lon="13.3716583"><ele>492.0</ele><time>2026-04-09T12:16:26.374Z</time></trkpt><trkpt lat="43.0531617" lon="13.371795"><ele>493.6666666666667</ele><time>2026-04-09T12:16:28.373Z</time></trkpt><trkpt lat="43.05318" lon="13.3718867"><ele>495.33333333333337</ele><time>2026-04-09T12:16:29.376Z</time></trkpt><trkpt lat="43.0532" lon="13.371975"><ele>497.0</ele><time>2026-04-09T12:16:30.377Z</time></trkpt><trkpt lat="43.0532267" lon="13.3720917"><ele>498.6666666666667</ele><time>2026-04-09T12:16:32.377Z</time></trkpt><trkpt lat="43.0532567" lon="13.372185"><ele>500.33333333333337</ele><time>2026-04-09T12:16:38.376Z</time></trkpt><trkpt lat="43.0532967" lon="13.3723333"><ele>502.0</ele><time>2026-04-09T12:16:40.378Z</time></trkpt><trkpt lat="43.0533367" lon="13.3724483"><ele>505.00000000000006</ele><time>2026-04-09T12:16:41.376Z</time></trkpt><trkpt lat="43.05337" lon="13.3725533"><ele>508.0</ele><time>2026-04-09T12:16:42.377Z</time></trkpt><trkpt lat="43.0534033" lon="13.3726517"><ele>511.0</ele><time>2026-04-09T12:16:43.377Z</time></trkpt><trkpt lat="43.0534367" lon="13.372755"><ele>514.0</ele><time>2026-04-09T12:16:44.377Z</time></trkpt><trkpt lat="43.0534683" lon="13.3728717"><ele>517.0</ele><time>2026-04-09T12:16:45.378Z</time></trkpt><trkpt lat="43.0535033" lon="13.3729933"><ele>520.0</ele><time>2026-04-09T12:16:46.377Z</time></trkpt><trkpt lat="43.053535" lon="13.37312"><ele>520.6</ele><time>2026-04-09T12:16:47.377Z</time></trkpt><trkpt lat="43.0535667" lon="13.3732517"><ele>521.2</ele><time>2026-04-09T12:16:48.374Z</time></trkpt><trkpt lat="43.0536" lon="13.3733883"><ele>521.8</ele><time>2026-04-09T12:16:49.374Z</time></trkpt><trkpt lat="43.0536333" lon="13.3735317"><ele>522.4</ele><time>2026-04-09T12:16:50.373Z</time></trkpt><trkpt lat="43.0536633" lon="13.3736767"><ele>523.0</ele><time>2026-04-09T12:16:51.374Z</time></trkpt><trkpt lat="43.0536833" lon="13.373815"><ele>524.0</ele><time>2026-04-09T12:16:52.375Z</time></trkpt><trkpt lat="43.0536833" lon="13.37394"><ele>525.0</ele><time>2026-04-09T12:16:53.374Z</time></trkpt><trkpt lat="43.0536683" lon="13.3740667"><ele>526.0</ele><time>2026-04-09T12:16:54.375Z</time></trkpt><trkpt lat="43.0536483" lon="13.3742"><ele>527.0</ele><time>2026-04-09T12:16:55.374Z</time></trkpt><trkpt lat="43.0536317" lon="13.3743383"><ele>528.0</ele><time>2026-04-09T12:16:56.374Z</time></trkpt><trkpt lat="43.0536183" lon="13.37448"><ele>528.0</ele><time>2026-04-09T12:16:57.375Z</time></trkpt><trkpt lat="43.0536033" lon="13.374625"><ele>528.0</ele><time>2026-04-09T12:16:58.374Z</time></trkpt><trkpt lat="43.05358" lon="13.3747733"><ele>528.0</ele><time>2026-04-09T12:16:59.377Z</time></trkpt><trkpt lat="43.05355" lon="13.374925"><ele>528.0</ele><time>2026-04-09T12:17:00.378Z</time></trkpt><trkpt lat="43.0535183" lon="13.3750733"><ele>528.0</ele><time>2026-04-09T12:17:01.373Z</time></trkpt><trkpt lat="43.053485" lon="13.3752217"><ele>528.0</ele><time>2026-04-09T12:17:02.377Z</time></trkpt><trkpt lat="43.0534533" lon="13.3753717"><ele>528.0</ele><time>2026-04-09T12:17:03.379Z</time></trkpt><trkpt lat="43.05342" lon="13.3755167"><ele>528.0</ele><time>2026-04-09T12:17:04.377Z</time></trkpt><trkpt lat="43.0533933" lon="13.37566"><ele>528.0</ele><time>2026-04-09T12:17:05.38Z</time></trkpt><trkpt lat="43.0533683" lon="13.3758"><ele>528.0</ele><time>2026-04-09T12:17:06.377Z</time></trkpt><trkpt lat="43.0533483" lon="13.375935"><ele>528.4</ele><time>2026-04-09T12:17:07.378Z</time></trkpt><trkpt lat="43.05333" lon="13.3760667"><ele>528.8</ele><time>2026-04-09T12:17:08.378Z</time></trkpt><trkpt lat="43.0532967" lon="13.37619"><ele>529.2</ele><time>2026-04-09T12:17:09.374Z</time></trkpt><trkpt lat="43.0532517" lon="13.3763"><ele>529.6</ele><time>2026-04-09T12:17:10.378Z</time></trkpt><trkpt lat="43.0531967" lon="13.37639"><ele>530.0</ele><time>2026-04-09T12:17:11.374Z</time></trkpt><trkpt lat="43.0531283" lon="13.3764733"><ele>530.1666666666666</ele><time>2026-04-09T12:17:12.374Z</time></trkpt><trkpt lat="43.0530567" lon="13.3765517"><ele>530.3333333333333</ele><time>2026-04-09T12:17:13.378Z</time></trkpt><trkpt lat="43.052985" lon="13.3766333"><ele>530.5</ele><time>2026-04-09T12:17:14.377Z</time></trkpt><trkpt lat="43.05292" lon="13.37672"><ele>530.6666666666666</ele><time>2026-04-09T12:17:15.377Z</time></trkpt><trkpt lat="43.0528567" lon="13.3767967"><ele>530.8333333333334</ele><time>2026-04-09T12:17:16.377Z</time></trkpt><trkpt lat="43.0528017" lon="13.37687"><ele>531.0</ele><time>2026-04-09T12:17:17.374Z</time></trkpt><trkpt lat="43.052755" lon="13.376935"><ele>531.0</ele><time>2026-04-09T12:17:18.376Z</time></trkpt><trkpt lat="43.0527" lon="13.3770433"><ele>531.0</ele><time>2026-04-09T12:17:20.373Z</time></trkpt><trkpt lat="43.0527333" lon="13.3771567"><ele>531.0</ele><time>2026-04-09T12:17:23.376Z</time></trkpt><trkpt lat="43.0527983" lon="13.3772583"><ele>531.0</ele><time>2026-04-09T12:17:25.377Z</time></trkpt><trkpt lat="43.0528967" lon="13.377365"><ele>531.0</ele><time>2026-04-09T12:17:27.377Z</time></trkpt><trkpt lat="43.0529567" lon="13.3773967"><ele>532.0</ele><time>2026-04-09T12:17:28.376Z</time></trkpt><trkpt lat="43.0530333" lon="13.37742"><ele>533.0</ele><time>2026-04-09T12:17:29.377Z</time></trkpt><trkpt lat="43.053125" lon="13.37744"><ele>534.0</ele><time>2026-04-09T12:17:30.378Z</time></trkpt><trkpt lat="43.0532217" lon="13.377465"><ele>535.0</ele><time>2026-04-09T12:17:31.377Z</time></trkpt><trkpt lat="43.053325" lon="13.3774983"><ele>536.0</ele><time>2026-04-09T12:17:32.378Z</time></trkpt><trkpt lat="43.0534383" lon="13.3775317"><ele>537.0</ele><time>2026-04-09T12:17:33.376Z</time></trkpt><trkpt lat="43.053555" lon="13.3775583"><ele>538.0</ele><time>2026-04-09T12:17:34.377Z</time></trkpt><trkpt lat="43.0536767" lon="13.3775817"><ele>539.0</ele><time>2026-04-09T12:17:35.377Z</time></trkpt><trkpt lat="43.053805" lon="13.3776017"><ele>540.0</ele><time>2026-04-09T12:17:36.377Z</time></trkpt><trkpt lat="43.0539367" lon="13.37762"><ele>540.0</ele><time>2026-04-09T12:17:37.378Z</time></trkpt><trkpt lat="43.0540717" lon="13.3776333"><ele>540.0</ele><time>2026-04-09T12:17:38.378Z</time></trkpt><trkpt lat="43.0542067" lon="13.3776433"><ele>540.0</ele><time>2026-04-09T12:17:39.378Z</time></trkpt><trkpt lat="43.0543483" lon="13.3776533"><ele>540.0</ele><time>2026-04-09T12:17:40.376Z</time></trkpt><trkpt lat="43.0544967" lon="13.3776617"><ele>543.6666666666666</ele><time>2026-04-09T12:17:41.374Z</time></trkpt><trkpt lat="43.0546517" lon="13.3776767"><ele>547.3333333333333</ele><time>2026-04-09T12:17:42.378Z</time></trkpt><trkpt lat="43.05481" lon="13.37769"><ele>551.0</ele><time>2026-04-09T12:17:43.378Z</time></trkpt><trkpt lat="43.054965" lon="13.3777"><ele>554.75</ele><time>2026-04-09T12:17:44.378Z</time></trkpt><trkpt lat="43.05511" lon="13.3777117"><ele>558.5</ele><time>2026-04-09T12:17:45.378Z</time></trkpt><trkpt lat="43.0552433" lon="13.3777267"><ele>562.25</ele><time>2026-04-09T12:17:46.378Z</time></trkpt><trkpt lat="43.0553783" lon="13.3777517"><ele>566.0</ele><time>2026-04-09T12:17:47.374Z</time></trkpt><trkpt lat="43.0555233" lon="13.3777783"><ele>566.0</ele><time>2026-04-09T12:17:48.377Z</time></trkpt><trkpt lat="43.0556783" lon="13.3778033"><ele>566.0</ele><time>2026-04-09T12:17:49.374Z</time></trkpt><trkpt lat="43.0558383" lon="13.3778283"><ele>566.0</ele><time>2026-04-09T12:17:50.377Z</time></trkpt><trkpt lat="43.0559933" lon="13.3778567"><ele>569.75</ele><time>2026-04-09T12:17:51.377Z</time></trkpt><trkpt lat="43.0561333" lon="13.3778833"><ele>573.5</ele><time>2026-04-09T12:17:52.378Z</time></trkpt><trkpt lat="43.0562517" lon="13.3779083"><ele>577.25</ele><time>2026-04-09T12:17:53.374Z</time></trkpt><trkpt lat="43.056355" lon="13.377945"><ele>581.0</ele><time>2026-04-09T12:17:54.378Z</time></trkpt><trkpt lat="43.0564517" lon="13.378005"><ele>582.75</ele><time>2026-04-09T12:17:55.378Z</time></trkpt><trkpt lat="43.0565433" lon="13.378095"><ele>584.5</ele><time>2026-04-09T12:17:56.376Z</time></trkpt><trkpt lat="43.05664" lon="13.3781967"><ele>586.25</ele><time>2026-04-09T12:17:57.378Z</time></trkpt><trkpt lat="43.05674" lon="13.3782917"><ele>588.0</ele><time>2026-04-09T12:17:58.378Z</time></trkpt><trkpt lat="43.0568383" lon="13.3783633"><ele>588.0</ele><time>2026-04-09T12:17:59.378Z</time></trkpt><trkpt lat="43.0569333" lon="13.3784033"><ele>588.0</ele><time>2026-04-09T12:18:00.378Z</time></trkpt><trkpt lat="43.0570317" lon="13.3784133"><ele>588.0</ele><time>2026-04-09T12:18:01.377Z</time></trkpt><trkpt lat="43.05714" lon="13.3784"><ele>588.0</ele><time>2026-04-09T12:18:02.378Z</time></trkpt><trkpt lat="43.057255" lon="13.3783683"><ele>588.0</ele><time>2026-04-09T12:18:03.378Z</time></trkpt><trkpt lat="43.057375" lon="13.3783167"><ele>590.4</ele><time>2026-04-09T12:18:04.378Z</time></trkpt><trkpt lat="43.05749" lon="13.3782617"><ele>592.8</ele><time>2026-04-09T12:18:05.377Z</time></trkpt><trkpt lat="43.0575883" lon="13.378215"><ele>595.2</ele><time>2026-04-09T12:18:06.378Z</time></trkpt><trkpt lat="43.0576783" lon="13.37818"><ele>597.6</ele><time>2026-04-09T12:18:07.377Z</time></trkpt><trkpt lat="43.0577667" lon="13.378145"><ele>600.0</ele><time>2026-04-09T12:18:08.378Z</time></trkpt><trkpt lat="43.057855" lon="13.3781083"><ele>600.0</ele><time>2026-04-09T12:18:09.377Z</time></trkpt><trkpt lat="43.057945" lon="13.37807"><ele>600.0</ele><time>2026-04-09T12:18:10.377Z</time></trkpt><trkpt lat="43.05804" lon="13.3780333"><ele>600.0</ele><time>2026-04-09T12:18:11.378Z</time></trkpt><trkpt lat="43.058135" lon="13.377995"><ele>600.0</ele><time>2026-04-09T12:18:12.378Z</time></trkpt><trkpt lat="43.0582333" lon="13.377955"><ele>600.0</ele><time>2026-04-09T12:18:13.378Z</time></trkpt><trkpt lat="43.0583283" lon="13.377915"><ele>599.0</ele><time>2026-04-09T12:18:14.377Z</time></trkpt><trkpt lat="43.0584183" lon="13.377875"><ele>598.0</ele><time>2026-04-09T12:18:15.378Z</time></trkpt><trkpt lat="43.058505" lon="13.3778433"><ele>597.0</ele><time>2026-04-09T12:18:16.378Z</time></trkpt><trkpt lat="43.0585867" lon="13.3778167"><ele>596.0</ele><time>2026-04-09T12:18:17.377Z</time></trkpt><trkpt lat="43.05866" lon="13.377795"><ele>595.0</ele><time>2026-04-09T12:18:18.374Z</time></trkpt><trkpt lat="43.0587633" lon="13.3777583"><ele>595.0</ele><time>2026-04-09T12:18:20.378Z</time></trkpt><trkpt lat="43.0588217" lon="13.3776783"><ele>595.0</ele><time>2026-04-09T12:18:23.378Z</time></trkpt><trkpt lat="43.0588217" lon="13.3775467"><ele>595.0</ele><time>2026-04-09T12:18:25.377Z</time></trkpt><trkpt lat="43.058805" lon="13.3774517"><ele>595.0</ele><time>2026-04-09T12:18:26.377Z</time></trkpt><trkpt lat="43.058785" lon="13.377355"><ele>595.0</ele><time>2026-04-09T12:18:27.378Z</time></trkpt><trkpt lat="43.0587683" lon="13.3772583"><ele>595.0</ele><time>2026-04-09T12:18:28.378Z</time></trkpt><trkpt lat="43.0587517" lon="13.3771517"><ele>596.2</ele><time>2026-04-09T12:18:29.377Z</time></trkpt><trkpt lat="43.0587317" lon="13.377035"><ele>597.4</ele><time>2026-04-09T12:18:30.378Z</time></trkpt><trkpt lat="43.0587117" lon="13.37691"><ele>598.6</ele><time>2026-04-09T12:18:31.377Z</time></trkpt><trkpt lat="43.058695" lon="13.3767683"><ele>599.8</ele><time>2026-04-09T12:18:32.378Z</time></trkpt><trkpt lat="43.0586817" lon="13.3766183"><ele>601.0</ele><time>2026-04-09T12:18:33.378Z</time></trkpt><trkpt lat="43.0586783" lon="13.376455"><ele>603.25</ele><time>2026-04-09T12:18:34.377Z</time></trkpt><trkpt lat="43.0586883" lon="13.3762867"><ele>605.5</ele><time>2026-04-09T12:18:35.377Z</time></trkpt><trkpt lat="43.0587117" lon="13.3761233"><ele>607.75</ele><time>2026-04-09T12:18:36.378Z</time></trkpt><trkpt lat="43.058745" lon="13.3759617"><ele>610.0</ele><time>2026-04-09T12:18:37.378Z</time></trkpt><trkpt lat="43.0587833" lon="13.375795"><ele>610.0</ele><time>2026-04-09T12:18:38.379Z</time></trkpt><trkpt lat="43.0588283" lon="13.3756267"><ele>610.0</ele><time>2026-04-09T12:18:39.378Z</time></trkpt><trkpt lat="43.0588783" lon="13.3754617"><ele>610.0</ele><time>2026-04-09T12:18:40.379Z</time></trkpt><trkpt lat="43.0589367" lon="13.3752983"><ele>610.0</ele><time>2026-04-09T12:18:41.375Z</time></trkpt><trkpt lat="43.0590033" lon="13.3751367"><ele>611.5</ele><time>2026-04-09T12:18:42.378Z</time></trkpt><trkpt lat="43.05908" lon="13.3749817"><ele>613.0</ele><time>2026-04-09T12:18:43.378Z</time></trkpt><trkpt lat="43.0591667" lon="13.374835"><ele>614.5</ele><time>2026-04-09T12:18:44.378Z</time></trkpt><trkpt lat="43.0592667" lon="13.3747"><ele>616.0</ele><time>2026-04-09T12:18:45.374Z</time></trkpt><trkpt lat="43.0593733" lon="13.37457"><ele>616.0</ele><time>2026-04-09T12:18:46.377Z</time></trkpt><trkpt lat="43.0594767" lon="13.3744333"><ele>616.0</ele><time>2026-04-09T12:18:47.375Z</time></trkpt><trkpt lat="43.0595767" lon="13.3742867"><ele>616.0</ele><time>2026-04-09T12:18:48.378Z</time></trkpt><trkpt lat="43.0596733" lon="13.3741383"><ele>616.0</ele><time>2026-04-09T12:18:49.373Z</time></trkpt><trkpt lat="43.0597733" lon="13.3739883"><ele>616.25</ele><time>2026-04-09T12:18:50.378Z</time></trkpt><trkpt lat="43.0598717" lon="13.373835"><ele>616.5</ele><time>2026-04-09T12:18:51.375Z</time></trkpt><trkpt lat="43.0599667" lon="13.3736817"><ele>616.75</ele><time>2026-04-09T12:18:52.378Z</time></trkpt><trkpt lat="43.0600633" lon="13.3735283"><ele>617.0</ele><time>2026-04-09T12:18:53.374Z</time></trkpt><trkpt lat="43.06016" lon="13.3733733"><ele>617.0</ele><time>2026-04-09T12:18:54.377Z</time></trkpt><trkpt lat="43.0602483" lon="13.3732133"><ele>617.0</ele><time>2026-04-09T12:18:55.378Z</time></trkpt><trkpt lat="43.060325" lon="13.373045"><ele>617.0</ele><time>2026-04-09T12:18:56.378Z</time></trkpt><trkpt lat="43.06038" lon="13.3728633"><ele>617.0</ele><time>2026-04-09T12:18:57.378Z</time></trkpt><trkpt lat="43.0604217" lon="13.372675"><ele>619.5</ele><time>2026-04-09T12:18:58.375Z</time></trkpt><trkpt lat="43.06047" lon="13.3724883"><ele>622.0</ele><time>2026-04-09T12:18:59.374Z</time></trkpt><trkpt lat="43.060515" lon="13.3723033"><ele>624.5</ele><time>2026-04-09T12:19:00.373Z</time></trkpt><trkpt lat="43.0605583" lon="13.3721333"><ele>627.0</ele><time>2026-04-09T12:19:01.374Z</time></trkpt><trkpt lat="43.0606" lon="13.3719783"><ele>628.0</ele><time>2026-04-09T12:19:02.378Z</time></trkpt><trkpt lat="43.060625" lon="13.3718233"><ele>629.0</ele><time>2026-04-09T12:19:03.377Z</time></trkpt><trkpt lat="43.0606283" lon="13.3716617"><ele>630.0</ele><time>2026-04-09T12:19:04.378Z</time></trkpt><trkpt lat="43.0605933" lon="13.3715033"><ele>631.0</ele><time>2026-04-09T12:19:05.378Z</time></trkpt><trkpt lat="43.060535" lon="13.3713483"><ele>631.0</ele><time>2026-04-09T12:19:06.379Z</time></trkpt><trkpt lat="43.0604617" lon="13.371195"><ele>631.0</ele><time>2026-04-09T12:19:07.377Z</time></trkpt><trkpt lat="43.0603833" lon="13.3710417"><ele>631.0</ele><time>2026-04-09T12:19:08.377Z</time></trkpt><trkpt lat="43.060305" lon="13.37088"><ele>631.0</ele><time>2026-04-09T12:19:09.378Z</time></trkpt><trkpt lat="43.06023" lon="13.3707167"><ele>631.0</ele><time>2026-04-09T12:19:10.378Z</time></trkpt><trkpt lat="43.06016" lon="13.37055"><ele>631.0</ele><time>2026-04-09T12:19:11.374Z</time></trkpt><trkpt lat="43.0601033" lon="13.3703783"><ele>631.0</ele><time>2026-04-09T12:19:12.378Z</time></trkpt><trkpt lat="43.0600717" lon="13.3702067"><ele>631.0</ele><time>2026-04-09T12:19:13.374Z</time></trkpt><trkpt lat="43.0600767" lon="13.37004"><ele>631.0</ele><time>2026-04-09T12:19:14.381Z</time></trkpt><trkpt lat="43.060105" lon="13.36987"><ele>631.0</ele><time>2026-04-09T12:19:15.377Z</time></trkpt><trkpt lat="43.0601367" lon="13.369685"><ele>631.0</ele><time>2026-04-09T12:19:16.378Z</time></trkpt><trkpt lat="43.0601633" lon="13.3694833"><ele>631.0</ele><time>2026-04-09T12:19:17.378Z</time></trkpt><trkpt lat="43.0601817" lon="13.36928"><ele>630.5</ele><time>2026-04-09T12:19:18.378Z</time></trkpt><trkpt lat="43.0601983" lon="13.369095"><ele>630.0</ele><time>2026-04-09T12:19:19.378Z</time></trkpt><trkpt lat="43.060195" lon="13.3689283"><ele>629.5</ele><time>2026-04-09T12:19:20.378Z</time></trkpt><trkpt lat="43.0601667" lon="13.3687767"><ele>629.0</ele><time>2026-04-09T12:19:21.378Z</time></trkpt><trkpt lat="43.060115" lon="13.3686433"><ele>629.0</ele><time>2026-04-09T12:19:22.379Z</time></trkpt><trkpt lat="43.060055" lon="13.368515"><ele>629.0</ele><time>2026-04-09T12:19:23.378Z</time></trkpt><trkpt lat="43.0599767" lon="13.3684067"><ele>629.0</ele><time>2026-04-09T12:19:24.374Z</time></trkpt><trkpt lat="43.0598883" lon="13.3683067"><ele>629.0</ele><time>2026-04-09T12:19:25.377Z</time></trkpt><trkpt lat="43.059795" lon="13.3682067"><ele>628.4</ele><time>2026-04-09T12:19:26.378Z</time></trkpt><trkpt lat="43.059705" lon="13.368105"><ele>627.8</ele><time>2026-04-09T12:19:27.378Z</time></trkpt><trkpt lat="43.0596233" lon="13.368005"><ele>627.2</ele><time>2026-04-09T12:19:28.375Z</time></trkpt><trkpt lat="43.0595517" lon="13.367905"><ele>626.6</ele><time>2026-04-09T12:19:29.377Z</time></trkpt><trkpt lat="43.0594933" lon="13.3678017"><ele>626.0</ele><time>2026-04-09T12:19:30.376Z</time></trkpt><trkpt lat="43.05944" lon="13.367695"><ele>626.0</ele><time>2026-04-09T12:19:31.374Z</time></trkpt><trkpt lat="43.0593967" lon="13.3675867"><ele>626.0</ele><time>2026-04-09T12:19:32.375Z</time></trkpt><trkpt lat="43.0593617" lon="13.36748"><ele>626.0</ele><time>2026-04-09T12:19:33.374Z</time></trkpt><trkpt lat="43.0593283" lon="13.3673667"><ele>626.0</ele><time>2026-04-09T12:19:34.376Z</time></trkpt><trkpt lat="43.0592933" lon="13.3672467"><ele>626.0</ele><time>2026-04-09T12:19:35.375Z</time></trkpt><trkpt lat="43.05926" lon="13.3671167"><ele>626.0</ele><time>2026-04-09T12:19:36.375Z</time></trkpt><trkpt lat="43.05923" lon="13.366985"><ele>626.0</ele><time>2026-04-09T12:19:37.377Z</time></trkpt><trkpt lat="43.0592117" lon="13.3668483"><ele>626.0</ele><time>2026-04-09T12:19:38.375Z</time></trkpt><trkpt lat="43.0592083" lon="13.3667117"><ele>626.0</ele><time>2026-04-09T12:19:39.375Z</time></trkpt><trkpt lat="43.0592117" lon="13.366575"><ele>626.0</ele><time>2026-04-09T12:19:40.375Z</time></trkpt><trkpt lat="43.0592217" lon="13.3664383"><ele>626.4</ele><time>2026-04-09T12:19:41.374Z</time></trkpt><trkpt lat="43.059235" lon="13.3663"><ele>626.8</ele><time>2026-04-09T12:19:42.373Z</time></trkpt><trkpt lat="43.05925" lon="13.3661567"><ele>627.1999999999999</ele><time>2026-04-09T12:19:43.373Z</time></trkpt><trkpt lat="43.0592667" lon="13.3660067"><ele>627.6</ele><time>2026-04-09T12:19:44.375Z</time></trkpt><trkpt lat="43.059285" lon="13.3658517"><ele>628.0</ele><time>2026-04-09T12:19:45.378Z</time></trkpt><trkpt lat="43.0593017" lon="13.3656967"><ele>628.0</ele><time>2026-04-09T12:19:46.378Z</time></trkpt><trkpt lat="43.059305" lon="13.3655383"><ele>628.0</ele><time>2026-04-09T12:19:47.379Z</time></trkpt><trkpt lat="43.05929" lon="13.36538"><ele>628.0</ele><time>2026-04-09T12:19:48.379Z</time></trkpt><trkpt lat="43.0592583" lon="13.3652283"><ele>628.0</ele><time>2026-04-09T12:19:49.378Z</time></trkpt><trkpt lat="43.0591917" lon="13.365095"><ele>626.0</ele><time>2026-04-09T12:19:50.378Z</time></trkpt><trkpt lat="43.0591083" lon="13.364985"><ele>624.0</ele><time>2026-04-09T12:19:51.378Z</time></trkpt><trkpt lat="43.05901" lon="13.3648867"><ele>622.0</ele><time>2026-04-09T12:19:52.377Z</time></trkpt><trkpt lat="43.0588967" lon="13.36481"><ele>620.0</ele><time>2026-04-09T12:19:53.378Z</time></trkpt><trkpt lat="43.0587733" lon="13.3647583"><ele>620.0</ele><time>2026-04-09T12:19:54.378Z</time></trkpt><trkpt lat="43.0586467" lon="13.364725"><ele>620.0</ele><time>2026-04-09T12:19:55.377Z</time></trkpt><trkpt lat="43.0585183" lon="13.3647067"><ele>620.0</ele><time>2026-04-09T12:19:56.379Z</time></trkpt><trkpt lat="43.05839" lon="13.3646867"><ele>620.0</ele><time>2026-04-09T12:19:57.378Z</time></trkpt><trkpt lat="43.058265" lon="13.3646667"><ele>620.75</ele><time>2026-04-09T12:19:58.378Z</time></trkpt><trkpt lat="43.0581433" lon="13.3646383"><ele>621.5</ele><time>2026-04-09T12:19:59.378Z</time></trkpt><trkpt lat="43.0580233" lon="13.3645983"><ele>622.25</ele><time>2026-04-09T12:20:00.377Z</time></trkpt><trkpt lat="43.0579017" lon="13.3645517"><ele>623.0</ele><time>2026-04-09T12:20:01.375Z</time></trkpt><trkpt lat="43.0577833" lon="13.364485"><ele>623.0</ele><time>2026-04-09T12:20:02.377Z</time></trkpt><trkpt lat="43.05767" lon="13.3644017"><ele>623.0</ele><time>2026-04-09T12:20:03.376Z</time></trkpt><trkpt lat="43.057565" lon="13.3643017"><ele>623.0</ele><time>2026-04-09T12:20:04.377Z</time></trkpt><trkpt lat="43.0574767" lon="13.3641833"><ele>623.0</ele><time>2026-04-09T12:20:05.376Z</time></trkpt><trkpt lat="43.057405" lon="13.36405"><ele>619.0</ele><time>2026-04-09T12:20:06.374Z</time></trkpt><trkpt lat="43.057355" lon="13.3638933"><ele>615.0</ele><time>2026-04-09T12:20:07.373Z</time></trkpt><trkpt lat="43.0573183" lon="13.3637233"><ele>611.0</ele><time>2026-04-09T12:20:08.376Z</time></trkpt><trkpt lat="43.0572933" lon="13.3635567"><ele>607.0</ele><time>2026-04-09T12:20:09.377Z</time></trkpt><trkpt lat="43.0572617" lon="13.3633967"><ele>607.0</ele><time>2026-04-09T12:20:10.376Z</time></trkpt><trkpt lat="43.05721" lon="13.36325"><ele>607.0</ele><time>2026-04-09T12:20:11.377Z</time></trkpt><trkpt lat="43.057135" lon="13.36312"><ele>607.0</ele><time>2026-04-09T12:20:12.377Z</time></trkpt><trkpt lat="43.0570433" lon="13.36301"><ele>607.0</ele><time>2026-04-09T12:20:13.376Z</time></trkpt><trkpt lat="43.0569333" lon="13.3629117"><ele>606.75</ele><time>2026-04-09T12:20:14.377Z</time></trkpt><trkpt lat="43.0568167" lon="13.36282"><ele>606.5</ele><time>2026-04-09T12:20:15.376Z</time></trkpt><trkpt lat="43.0566933" lon="13.3627383"><ele>606.25</ele><time>2026-04-09T12:20:16.377Z</time></trkpt><trkpt lat="43.0565683" lon="13.3626583"><ele>606.0</ele><time>2026-04-09T12:20:17.377Z</time></trkpt><trkpt lat="43.05644" lon="13.3625767"><ele>606.0</ele><time>2026-04-09T12:20:18.377Z</time></trkpt><trkpt lat="43.056315" lon="13.3624967"><ele>606.0</ele><time>2026-04-09T12:20:19.377Z</time></trkpt><trkpt lat="43.0561917" lon="13.3624133"><ele>606.0</ele><time>2026-04-09T12:20:20.376Z</time></trkpt><trkpt lat="43.056075" lon="13.3623267"><ele>606.0</ele><time>2026-04-09T12:20:21.377Z</time></trkpt><trkpt lat="43.0559683" lon="13.362245"><ele>607.0</ele><time>2026-04-09T12:20:22.377Z</time></trkpt><trkpt lat="43.0558767" lon="13.3621533"><ele>608.0</ele><time>2026-04-09T12:20:23.376Z</time></trkpt><trkpt lat="43.0558033" lon="13.362055"><ele>609.0</ele><time>2026-04-09T12:20:24.376Z</time></trkpt><trkpt lat="43.05575" lon="13.3619517"><ele>610.0</ele><time>2026-04-09T12:20:25.377Z</time></trkpt><trkpt lat="43.0557167" lon="13.361845"><ele>611.0</ele><time>2026-04-09T12:20:26.382Z</time></trkpt><trkpt lat="43.0557067" lon="13.3617317"><ele>609.1666666666666</ele><time>2026-04-09T12:20:27.376Z</time></trkpt><trkpt lat="43.0557133" lon="13.3616117"><ele>607.3333333333333</ele><time>2026-04-09T12:20:28.377Z</time></trkpt><trkpt lat="43.0557333" lon="13.3614983"><ele>605.5</ele><time>2026-04-09T12:20:29.377Z</time></trkpt><trkpt lat="43.0557633" lon="13.3613967"><ele>603.6666666666666</ele><time>2026-04-09T12:20:30.378Z</time></trkpt><trkpt lat="43.0557967" lon="13.3613067"><ele>601.8333333333334</ele><time>2026-04-09T12:20:31.377Z</time></trkpt><trkpt lat="43.0558417" lon="13.361175"><ele>600.0</ele><time>2026-04-09T12:20:33.377Z</time></trkpt><trkpt lat="43.0557783" lon="13.3611867"><ele>597.3333333333334</ele><time>2026-04-09T12:20:37.377Z</time></trkpt><trkpt lat="43.05572" lon="13.3612667"><ele>594.6666666666666</ele><time>2026-04-09T12:20:40.376Z</time></trkpt><trkpt lat="43.0556433" lon="13.3612117"><ele>592.0</ele><time>2026-04-09T12:20:43.377Z</time></trkpt><trkpt lat="43.055595" lon="13.361125"><ele>589.3333333333333</ele><time>2026-04-09T12:20:56.377Z</time></trkpt><trkpt lat="43.0555367" lon="13.3609883"><ele>586.6666666666666</ele><time>2026-04-09T12:20:58.376Z</time></trkpt><trkpt lat="43.055505" lon="13.3609017"><ele>584.0</ele><time>2026-04-09T12:20:59.377Z</time></trkpt><trkpt lat="43.055475" lon="13.36081"><ele>584.0</ele><time>2026-04-09T12:21:00.377Z</time></trkpt><trkpt lat="43.055445" lon="13.3607183"><ele>584.0</ele><time>2026-04-09T12:21:01.377Z</time></trkpt><trkpt lat="43.0554117" lon="13.3606183"><ele>584.0</ele><time>2026-04-09T12:21:02.378Z</time></trkpt><trkpt lat="43.0553783" lon="13.3605167"><ele>584.0</ele><time>2026-04-09T12:21:03.377Z</time></trkpt><trkpt lat="43.0553483" lon="13.3604117"><ele>584.0</ele><time>2026-04-09T12:21:04.377Z</time></trkpt><trkpt lat="43.055325" lon="13.3603033"><ele>584.0</ele><time>2026-04-09T12:21:05.377Z</time></trkpt><trkpt lat="43.0553067" lon="13.36019"><ele>583.3333333333333</ele><time>2026-04-09T12:21:06.377Z</time></trkpt><trkpt lat="43.0552917" lon="13.3600733"><ele>582.6666666666666</ele><time>2026-04-09T12:21:07.376Z</time></trkpt><trkpt lat="43.0552783" lon="13.3599517"><ele>582.0</ele><time>2026-04-09T12:21:08.376Z</time></trkpt><trkpt lat="43.0552583" lon="13.35983"><ele>581.3333333333334</ele><time>2026-04-09T12:21:09.377Z</time></trkpt><trkpt lat="43.055245" lon="13.3597117"><ele>580.6666666666667</ele><time>2026-04-09T12:21:10.376Z</time></trkpt><trkpt lat="43.0552317" lon="13.3596017"><ele>580.0</ele><time>2026-04-09T12:21:11.377Z</time></trkpt><trkpt lat="43.055215" lon="13.3595"><ele>578.8571428571429</ele><time>2026-04-09T12:21:12.378Z</time></trkpt><trkpt lat="43.0551967" lon="13.359405"><ele>577.7142857142858</ele><time>2026-04-09T12:21:13.377Z</time></trkpt><trkpt lat="43.0551667" lon="13.3593217"><ele>576.5714285714286</ele><time>2026-04-09T12:21:14.377Z</time></trkpt><trkpt lat="43.0551233" lon="13.359245"><ele>575.4285714285714</ele><time>2026-04-09T12:21:15.377Z</time></trkpt><trkpt lat="43.05507" lon="13.35919"><ele>574.2857142857142</ele><time>2026-04-09T12:21:16.373Z</time></trkpt><trkpt lat="43.0550133" lon="13.35915"><ele>573.1428571428571</ele><time>2026-04-09T12:21:17.377Z</time></trkpt><trkpt lat="43.0549433" lon="13.35914"><ele>572.0</ele><time>2026-04-09T12:21:18.374Z</time></trkpt><trkpt lat="43.054875" lon="13.3591433"><ele>568.4</ele><time>2026-04-09T12:21:19.378Z</time></trkpt><trkpt lat="43.0548083" lon="13.3591583"><ele>564.8000000000001</ele><time>2026-04-09T12:21:20.374Z</time></trkpt><trkpt lat="43.05469" lon="13.3591783"><ele>561.2</ele><time>2026-04-09T12:21:22.377Z</time></trkpt><trkpt lat="43.0545983" lon="13.35911"><ele>557.6</ele><time>2026-04-09T12:21:24.377Z</time></trkpt><trkpt lat="43.0545617" lon="13.35903"><ele>554.0</ele><time>2026-04-09T12:21:25.375Z</time></trkpt><trkpt lat="43.0545167" lon="13.358915"><ele>553.0</ele><time>2026-04-09T12:21:26.374Z</time></trkpt><trkpt lat="43.0544533" lon="13.3588067"><ele>552.0</ele><time>2026-04-09T12:21:27.377Z</time></trkpt><trkpt lat="43.0543817" lon="13.35872"><ele>551.0</ele><time>2026-04-09T12:21:28.377Z</time></trkpt><trkpt lat="43.054305" lon="13.3586533"><ele>550.0</ele><time>2026-04-09T12:21:29.374Z</time></trkpt><trkpt lat="43.0542317" lon="13.35861"><ele>549.0</ele><time>2026-04-09T12:21:30.374Z</time></trkpt><trkpt lat="43.054155" lon="13.3585883"><ele>548.0</ele><time>2026-04-09T12:21:31.378Z</time></trkpt><trkpt lat="43.0540367" lon="13.3586167"><ele>545.0</ele><time>2026-04-09T12:21:33.378Z</time></trkpt><trkpt lat="43.0539367" lon="13.3587217"><ele>542.0</ele><time>2026-04-09T12:21:35.374Z</time></trkpt><trkpt lat="43.05389" lon="13.35878"><ele>539.0</ele><time>2026-04-09T12:21:36.373Z</time></trkpt><trkpt lat="43.0537933" lon="13.3588617"><ele>536.0</ele><time>2026-04-09T12:21:38.377Z</time></trkpt><trkpt lat="43.05368" lon="13.3588483"><ele>533.0</ele><time>2026-04-09T12:21:48.373Z</time></trkpt><trkpt lat="43.0536517" lon="13.3587333"><ele>533.0</ele><time>2026-04-09T12:21:50.377Z</time></trkpt><trkpt lat="43.0536383" lon="13.3586333"><ele>533.0</ele><time>2026-04-09T12:21:51.373Z</time></trkpt><trkpt lat="43.0536333" lon="13.35853"><ele>533.0</ele><time>2026-04-09T12:21:52.377Z</time></trkpt><trkpt lat="43.0536367" lon="13.3584383"><ele>533.0</ele><time>2026-04-09T12:21:53.377Z</time></trkpt><trkpt lat="43.0536417" lon="13.3582833"><ele>533.0</ele><time>2026-04-09T12:21:55.374Z</time></trkpt><trkpt lat="43.0536267" lon="13.3581767"><ele>533.0</ele><time>2026-04-09T12:21:57.378Z</time></trkpt><trkpt lat="43.0535367" lon="13.3581267"><ele>533.0</ele><time>2026-04-09T12:21:59.374Z</time></trkpt><trkpt lat="43.0534683" lon="13.3581233"><ele>533.0</ele><time>2026-04-09T12:22:00.374Z</time></trkpt><trkpt lat="43.0533933" lon="13.3581367"><ele>533.0</ele><time>2026-04-09T12:22:01.373Z</time></trkpt><trkpt lat="43.0533067" lon="13.3581683"><ele>533.0</ele><time>2026-04-09T12:22:02.378Z</time></trkpt><trkpt lat="43.0532233" lon="13.3582117"><ele>533.0</ele><time>2026-04-09T12:22:03.378Z</time></trkpt><trkpt lat="43.053145" lon="13.3582717"><ele>533.0</ele><time>2026-04-09T12:22:04.378Z</time></trkpt><trkpt lat="43.0530717" lon="13.3583317"><ele>529.8333333333333</ele><time>2026-04-09T12:22:05.378Z</time></trkpt><trkpt lat="43.0530083" lon="13.3584017"><ele>526.6666666666666</ele><time>2026-04-09T12:22:06.378Z</time></trkpt><trkpt lat="43.0529517" lon="13.35848"><ele>523.5</ele><time>2026-04-09T12:22:07.378Z</time></trkpt><trkpt lat="43.0528917" lon="13.3585633"><ele>520.3333333333334</ele><time>2026-04-09T12:22:08.377Z</time></trkpt><trkpt lat="43.0528283" lon="13.3586383"><ele>517.1666666666667</ele><time>2026-04-09T12:22:09.377Z</time></trkpt><trkpt lat="43.0527633" lon="13.3587183"><ele>514.0</ele><time>2026-04-09T12:22:10.376Z</time></trkpt><trkpt lat="43.0526983" lon="13.3588033"><ele>513.3333333333334</ele><time>2026-04-09T12:22:11.376Z</time></trkpt><trkpt lat="43.0526333" lon="13.358885"><ele>512.6666666666667</ele><time>2026-04-09T12:22:12.378Z</time></trkpt><trkpt lat="43.0525733" lon="13.3589567"><ele>512.0</ele><time>2026-04-09T12:22:13.377Z</time></trkpt><trkpt lat="43.0525133" lon="13.3590183"><ele>511.33333333333337</ele><time>2026-04-09T12:22:14.373Z</time></trkpt><trkpt lat="43.0524567" lon="13.3590617"><ele>510.6666666666667</ele><time>2026-04-09T12:22:15.378Z</time></trkpt><trkpt lat="43.0523767" lon="13.3591383"><ele>510.0</ele><time>2026-04-09T12:22:17.377Z</time></trkpt><trkpt lat="43.0523567" lon="13.35922"><ele>510.0</ele><time>2026-04-09T12:22:19.375Z</time></trkpt><trkpt lat="43.0524467" lon="13.3593083"><ele>510.0</ele><time>2026-04-09T12:22:22.378Z</time></trkpt><trkpt lat="43.0525433" lon="13.3594183"><ele>510.0</ele><time>2026-04-09T12:22:24.378Z</time></trkpt><trkpt lat="43.0525517" lon="13.3596067"><ele>510.0</ele><time>2026-04-09T12:22:26.376Z</time></trkpt><trkpt lat="43.0525333" lon="13.3597283"><ele>508.5</ele><time>2026-04-09T12:22:27.378Z</time></trkpt><trkpt lat="43.0524967" lon="13.3598533"><ele>507.0</ele><time>2026-04-09T12:22:28.378Z</time></trkpt><trkpt lat="43.05246" lon="13.3599567"><ele>505.5</ele><time>2026-04-09T12:22:29.377Z</time></trkpt><trkpt lat="43.052415" lon="13.3600483"><ele>504.0</ele><time>2026-04-09T12:22:30.377Z</time></trkpt><trkpt lat="43.05237" lon="13.36012"><ele>502.5</ele><time>2026-04-09T12:22:31.377Z</time></trkpt><trkpt lat="43.0523183" lon="13.3601783"><ele>501.0</ele><time>2026-04-09T12:22:32.377Z</time></trkpt><trkpt lat="43.0522183" lon="13.3602117"><ele>498.1666666666667</ele><time>2026-04-09T12:22:34.377Z</time></trkpt><trkpt lat="43.0521483" lon="13.3601167"><ele>495.33333333333337</ele><time>2026-04-09T12:22:36.377Z</time></trkpt><trkpt lat="43.05211" lon="13.3600233"><ele>492.5</ele><time>2026-04-09T12:22:37.378Z</time></trkpt><trkpt lat="43.0520567" lon="13.3599283"><ele>489.6666666666667</ele><time>2026-04-09T12:22:38.378Z</time></trkpt><trkpt lat="43.05199" lon="13.3598417"><ele>486.83333333333337</ele><time>2026-04-09T12:22:39.378Z</time></trkpt><trkpt lat="43.0519117" lon="13.3597783"><ele>484.0</ele><time>2026-04-09T12:22:40.375Z</time></trkpt><trkpt lat="43.0518233" lon="13.3597233"><ele>485.4</ele><time>2026-04-09T12:22:41.378Z</time></trkpt><trkpt lat="43.051735" lon="13.359675"><ele>486.79999999999995</ele><time>2026-04-09T12:22:42.377Z</time></trkpt><trkpt lat="43.05164" lon="13.3596333"><ele>488.20000000000005</ele><time>2026-04-09T12:22:43.378Z</time></trkpt><trkpt lat="43.0515483" lon="13.3595967"><ele>489.6</ele><time>2026-04-09T12:22:44.378Z</time></trkpt><trkpt lat="43.0514633" lon="13.35956"><ele>491.0</ele><time>2026-04-09T12:22:45.378Z</time></trkpt><trkpt lat="43.051375" lon="13.3595317"><ele>488.16666666666663</ele><time>2026-04-09T12:22:46.378Z</time></trkpt><trkpt lat="43.051285" lon="13.359515"><ele>485.3333333333333</ele><time>2026-04-09T12:22:47.375Z</time></trkpt><trkpt lat="43.0511967" lon="13.3595017"><ele>482.5</ele><time>2026-04-09T12:22:48.374Z</time></trkpt><trkpt lat="43.05111" lon="13.3594867"><ele>479.66666666666663</ele><time>2026-04-09T12:22:49.375Z</time></trkpt><trkpt lat="43.0510283" lon="13.3594683"><ele>476.8333333333333</ele><time>2026-04-09T12:22:50.373Z</time></trkpt><trkpt lat="43.0509517" lon="13.3594467"><ele>474.0</ele><time>2026-04-09T12:22:51.374Z</time></trkpt><trkpt lat="43.0508817" lon="13.3594317"><ele>474.0</ele><time>2026-04-09T12:22:52.374Z</time></trkpt><trkpt lat="43.0508117" lon="13.359435"><ele>474.0</ele><time>2026-04-09T12:22:53.374Z</time></trkpt><trkpt lat="43.050745" lon="13.3594467"><ele>474.0</ele><time>2026-04-09T12:22:54.378Z</time></trkpt><trkpt lat="43.05068" lon="13.3594633"><ele>474.0</ele><time>2026-04-09T12:22:55.378Z</time></trkpt><trkpt lat="43.0506167" lon="13.35947"><ele>474.0</ele><time>2026-04-09T12:22:56.378Z</time></trkpt><trkpt lat="43.0505" lon="13.3594267"><ele>474.0</ele><time>2026-04-09T12:22:58.378Z</time></trkpt><trkpt lat="43.050425" lon="13.3592933"><ele>471.5714285714285</ele><time>2026-04-09T12:23:00.377Z</time></trkpt><trkpt lat="43.0503967" lon="13.359215"><ele>469.1428571428571</ele><time>2026-04-09T12:23:01.378Z</time></trkpt><trkpt lat="43.05037" lon="13.3591333"><ele>466.7142857142857</ele><time>2026-04-09T12:23:02.377Z</time></trkpt><trkpt lat="43.05034" lon="13.3590517"><ele>464.2857142857143</ele><time>2026-04-09T12:23:03.375Z</time></trkpt><trkpt lat="43.0503" lon="13.3589767"><ele>461.8571428571429</ele><time>2026-04-09T12:23:04.377Z</time></trkpt><trkpt lat="43.0502517" lon="13.358905"><ele>459.4285714285715</ele><time>2026-04-09T12:23:05.378Z</time></trkpt><trkpt lat="43.0501933" lon="13.3588433"><ele>457.00000000000006</ele><time>2026-04-09T12:23:06.377Z</time></trkpt><trkpt lat="43.0501367" lon="13.3587867"><ele>457.00000000000006</ele><time>2026-04-09T12:23:07.377Z</time></trkpt><trkpt lat="43.0500833" lon="13.3587383"><ele>457.0</ele><time>2026-04-09T12:23:08.378Z</time></trkpt><trkpt lat="43.0500017" lon="13.3586883"><ele>457.0</ele><time>2026-04-09T12:23:10.378Z</time></trkpt><trkpt lat="43.0499217" lon="13.3587467"><ele>457.0</ele><time>2026-04-09T12:23:12.378Z</time></trkpt><trkpt lat="43.0498867" lon="13.358835"><ele>457.00000000000006</ele><time>2026-04-09T12:23:13.378Z</time></trkpt><trkpt lat="43.0498617" lon="13.3589383"><ele>457.0</ele><time>2026-04-09T12:23:14.378Z</time></trkpt><trkpt lat="43.0498383" lon="13.359045"><ele>453.40000000000003</ele><time>2026-04-09T12:23:15.378Z</time></trkpt><trkpt lat="43.0498183" lon="13.35915"><ele>449.80000000000007</ele><time>2026-04-09T12:23:16.378Z</time></trkpt><trkpt lat="43.0498" lon="13.3592517"><ele>446.2</ele><time>2026-04-09T12:23:17.375Z</time></trkpt><trkpt lat="43.04978" lon="13.3593433"><ele>442.6</ele><time>2026-04-09T12:23:18.375Z</time></trkpt><trkpt lat="43.0497267" lon="13.35949"><ele>439.0</ele><time>2026-04-09T12:23:20.378Z</time></trkpt><trkpt lat="43.0496383" lon="13.359595"><ele>439.00000000000006</ele><time>2026-04-09T12:23:22.377Z</time></trkpt><trkpt lat="43.0495267" lon="13.35962"><ele>439.0</ele><time>2026-04-09T12:23:24.377Z</time></trkpt><trkpt lat="43.0494667" lon="13.3595933"><ele>439.0</ele><time>2026-04-09T12:23:25.378Z</time></trkpt><trkpt lat="43.0493867" lon="13.3595433"><ele>439.0</ele><time>2026-04-09T12:23:26.377Z</time></trkpt><trkpt lat="43.0493067" lon="13.359485"><ele>439.00000000000006</ele><time>2026-04-09T12:23:27.378Z</time></trkpt><trkpt lat="43.0492283" lon="13.3594267"><ele>439.0</ele><time>2026-04-09T12:23:28.378Z</time></trkpt><trkpt lat="43.0491483" lon="13.3593583"><ele>437.00000000000006</ele><time>2026-04-09T12:23:29.375Z</time></trkpt><trkpt lat="43.0490717" lon="13.3592833"><ele>435.0</ele><time>2026-04-09T12:23:30.378Z</time></trkpt><trkpt lat="43.0489983" lon="13.35921"><ele>433.0</ele><time>2026-04-09T12:23:31.378Z</time></trkpt><trkpt lat="43.0489283" lon="13.359145"><ele>431.0</ele><time>2026-04-09T12:23:32.379Z</time></trkpt><trkpt lat="43.0488633" lon="13.3590867"><ele>429.00000000000006</ele><time>2026-04-09T12:23:33.377Z</time></trkpt><trkpt lat="43.04881" lon="13.3590233"><ele>427.0</ele><time>2026-04-09T12:23:34.377Z</time></trkpt><trkpt lat="43.0487717" lon="13.3589467"><ele>427.1666666666667</ele><time>2026-04-09T12:23:35.379Z</time></trkpt><trkpt lat="43.048755" lon="13.3588567"><ele>427.33333333333337</ele><time>2026-04-09T12:23:36.377Z</time></trkpt><trkpt lat="43.0487583" lon="13.35875"><ele>427.5</ele><time>2026-04-09T12:23:37.378Z</time></trkpt><trkpt lat="43.0487683" lon="13.3586317"><ele>427.66666666666663</ele><time>2026-04-09T12:23:38.378Z</time></trkpt><trkpt lat="43.0487783" lon="13.3585083"><ele>427.8333333333333</ele><time>2026-04-09T12:23:39.377Z</time></trkpt><trkpt lat="43.048795" lon="13.3583833"><ele>428.0</ele><time>2026-04-09T12:23:40.377Z</time></trkpt><trkpt lat="43.04882" lon="13.358265"><ele>428.0</ele><time>2026-04-09T12:23:41.378Z</time></trkpt><trkpt lat="43.0488617" lon="13.35816"><ele>427.99999999999994</ele><time>2026-04-09T12:23:42.377Z</time></trkpt><trkpt lat="43.0489083" lon="13.358055"><ele>427.99999999999994</ele><time>2026-04-09T12:23:43.378Z</time></trkpt><trkpt lat="43.0489517" lon="13.3579433"><ele>428.0</ele><time>2026-04-09T12:23:44.378Z</time></trkpt><trkpt lat="43.0489917" lon="13.35782"><ele>428.0</ele><time>2026-04-09T12:23:45.377Z</time></trkpt><trkpt lat="43.0490217" lon="13.357695"><ele>428.49999999999994</ele><time>2026-04-09T12:23:46.375Z</time></trkpt><trkpt lat="43.0490433" lon="13.3575667"><ele>429.0</ele><time>2026-04-09T12:23:47.375Z</time></trkpt><trkpt lat="43.0490467" lon="13.35745"><ele>429.5</ele><time>2026-04-09T12:23:48.378Z</time></trkpt><trkpt lat="43.049035" lon="13.3573383"><ele>430.0</ele><time>2026-04-09T12:23:49.379Z</time></trkpt><trkpt lat="43.04901" lon="13.3572317"><ele>430.49999999999994</ele><time>2026-04-09T12:23:50.378Z</time></trkpt><trkpt lat="43.048965" lon="13.3571367"><ele>431.0</ele><time>2026-04-09T12:23:51.377Z</time></trkpt><trkpt lat="43.0489" lon="13.3570417"><ele>431.6</ele><time>2026-04-09T12:23:52.378Z</time></trkpt><trkpt lat="43.0488267" lon="13.35694"><ele>432.20000000000005</ele><time>2026-04-09T12:23:53.377Z</time></trkpt><trkpt lat="43.0487583" lon="13.3568467"><ele>432.79999999999995</ele><time>2026-04-09T12:23:54.377Z</time></trkpt><trkpt lat="43.0486883" lon="13.3567717"><ele>433.4</ele><time>2026-04-09T12:23:55.378Z</time></trkpt><trkpt lat="43.0486167" lon="13.3567117"><ele>434.0</ele><time>2026-04-09T12:23:56.377Z</time></trkpt><trkpt lat="43.0485383" lon="13.3566733"><ele>434.0</ele><time>2026-04-09T12:23:57.378Z</time></trkpt><trkpt lat="43.0484583" lon="13.3566533"><ele>434.0</ele><time>2026-04-09T12:23:58.377Z</time></trkpt><trkpt lat="43.0483717" lon="13.356655"><ele>434.0</ele><time>2026-04-09T12:23:59.375Z</time></trkpt><trkpt lat="43.048285" lon="13.3566733"><ele>434.0</ele><time>2026-04-09T12:24:00.378Z</time></trkpt><trkpt lat="43.0481933" lon="13.3567067"><ele>434.0</ele><time>2026-04-09T12:24:01.376Z</time></trkpt><trkpt lat="43.0480933" lon="13.3567417"><ele>432.8333333333333</ele><time>2026-04-09T12:24:02.378Z</time></trkpt><trkpt lat="43.0480017" lon="13.3567683"><ele>431.66666666666663</ele><time>2026-04-09T12:24:03.378Z</time></trkpt><trkpt lat="43.047915" lon="13.3567983"><ele>430.5</ele><time>2026-04-09T12:24:04.378Z</time></trkpt><trkpt lat="43.047835" lon="13.3568283"><ele>429.33333333333337</ele><time>2026-04-09T12:24:05.375Z</time></trkpt><trkpt lat="43.047765" lon="13.3568533"><ele>428.1666666666667</ele><time>2026-04-09T12:24:06.377Z</time></trkpt><trkpt lat="43.0477017" lon="13.3568733"><ele>427.0</ele><time>2026-04-09T12:24:07.377Z</time></trkpt><trkpt lat="43.04759" lon="13.3569183"><ele>427.00000000000006</ele><time>2026-04-09T12:24:09.378Z</time></trkpt><trkpt lat="43.0475133" lon="13.356945"><ele>427.0</ele><time>2026-04-09T12:24:11.377Z</time></trkpt><trkpt lat="43.0476433" lon="13.3569117"><ele>427.0</ele><time>2026-04-09T12:24:46.376Z</time></trkpt><trkpt lat="43.047715" lon="13.3568867"><ele>427.0</ele><time>2026-04-09T12:24:47.376Z</time></trkpt><trkpt lat="43.04779" lon="13.3568633"><ele>427.00000000000006</ele><time>2026-04-09T12:24:48.376Z</time></trkpt><trkpt lat="43.0478717" lon="13.3568367"><ele>427.0</ele><time>2026-04-09T12:24:49.378Z</time></trkpt><trkpt lat="43.0479617" lon="13.35681"><ele>427.00000000000006</ele><time>2026-04-09T12:24:50.377Z</time></trkpt><trkpt lat="43.0480517" lon="13.3567817"><ele>427.0</ele><time>2026-04-09T12:24:51.377Z</time></trkpt><trkpt lat="43.0481367" lon="13.3567517"><ele>427.0</ele><time>2026-04-09T12:24:52.379Z</time></trkpt><trkpt lat="43.0482117" lon="13.35672"><ele>427.0</ele><time>2026-04-09T12:24:53.377Z</time></trkpt><trkpt lat="43.0482717" lon="13.3566883"><ele>427.00000000000006</ele><time>2026-04-09T12:24:54.377Z</time></trkpt><trkpt lat="43.0483417" lon="13.3565917"><ele>427.0</ele><time>2026-04-09T12:24:56.378Z</time></trkpt><trkpt lat="43.0483783" lon="13.3564567"><ele>426.6</ele><time>2026-04-09T12:24:58.377Z</time></trkpt><trkpt lat="43.0483967" lon="13.3563167"><ele>426.20000000000005</ele><time>2026-04-09T12:25:00.377Z</time></trkpt><trkpt lat="43.0483617" lon="13.35616"><ele>425.8</ele><time>2026-04-09T12:25:02.377Z</time></trkpt><trkpt lat="43.0483283" lon="13.3560683"><ele>425.4</ele><time>2026-04-09T12:25:03.377Z</time></trkpt><trkpt lat="43.0482917" lon="13.3559683"><ele>425.0</ele><time>2026-04-09T12:25:04.376Z</time></trkpt><trkpt lat="43.0482533" lon="13.3558733"><ele>424.99999999999994</ele><time>2026-04-09T12:25:05.376Z</time></trkpt><trkpt lat="43.0482217" lon="13.3557783"><ele>425.0</ele><time>2026-04-09T12:25:06.374Z</time></trkpt><trkpt lat="43.0481933" lon="13.3556883"><ele>425.0</ele><time>2026-04-09T12:25:07.377Z</time></trkpt><trkpt lat="43.0481717" lon="13.3555983"><ele>425.0</ele><time>2026-04-09T12:25:08.377Z</time></trkpt><trkpt lat="43.0481567" lon="13.3555117"><ele>424.99999999999994</ele><time>2026-04-09T12:25:09.377Z</time></trkpt><trkpt lat="43.0481583" lon="13.3553617"><ele>425.0</ele><time>2026-04-09T12:25:11.377Z</time></trkpt><trkpt lat="43.0482167" lon="13.3552633"><ele>423.2</ele><time>2026-04-09T12:25:13.373Z</time></trkpt><trkpt lat="43.0483083" lon="13.3551983"><ele>421.4</ele><time>2026-04-09T12:25:15.373Z</time></trkpt><trkpt lat="43.0484033" lon="13.3551333"><ele>419.6</ele><time>2026-04-09T12:25:17.374Z</time></trkpt><trkpt lat="43.04851" lon="13.3550833"><ele>417.8</ele><time>2026-04-09T12:25:19.375Z</time></trkpt><trkpt lat="43.0486083" lon="13.355065"><ele>416.0</ele><time>2026-04-09T12:25:21.375Z</time></trkpt><trkpt lat="43.0487367" lon="13.355075"><ele>416.0</ele><time>2026-04-09T12:25:23.377Z</time></trkpt><trkpt lat="43.0488017" lon="13.35508"><ele>416.0</ele><time>2026-04-09T12:25:24.374Z</time></trkpt><trkpt lat="43.04887" lon="13.3550817"><ele>416.0</ele><time>2026-04-09T12:25:25.374Z</time></trkpt><trkpt lat="43.0489417" lon="13.3550717"><ele>416.0</ele><time>2026-04-09T12:25:26.377Z</time></trkpt><trkpt lat="43.0490167" lon="13.3550517"><ele>416.0</ele><time>2026-04-09T12:25:27.373Z</time></trkpt><trkpt lat="43.0490917" lon="13.3550317"><ele>416.0</ele><time>2026-04-09T12:25:28.376Z</time></trkpt><trkpt lat="43.049165" lon="13.3550133"><ele>416.0</ele><time>2026-04-09T12:25:29.376Z</time></trkpt><trkpt lat="43.0492283" lon="13.355005"><ele>415.20000000000005</ele><time>2026-04-09T12:25:30.377Z</time></trkpt><trkpt lat="43.0493317" lon="13.3550017"><ele>414.40000000000003</ele><time>2026-04-09T12:25:32.374Z</time></trkpt><trkpt lat="43.049425" lon="13.3550117"><ele>413.6</ele><time>2026-04-09T12:25:34.377Z</time></trkpt><trkpt lat="43.0495233" lon="13.3550067"><ele>412.8</ele><time>2026-04-09T12:25:36.374Z</time></trkpt><trkpt lat="43.04962" lon="13.3549317"><ele>412.0</ele><time>2026-04-09T12:25:38.374Z</time></trkpt><trkpt lat="43.0496467" lon="13.3548483"><ele>412.0</ele><time>2026-04-09T12:25:39.374Z</time></trkpt><trkpt lat="43.0496667" lon="13.35475"><ele>412.0</ele><time>2026-04-09T12:25:40.377Z</time></trkpt><trkpt lat="43.0496667" lon="13.35462"><ele>412.0</ele><time>2026-04-09T12:25:41.377Z</time></trkpt><trkpt lat="43.0496583" lon="13.35449"><ele>412.0</ele><time>2026-04-09T12:25:42.378Z</time></trkpt><trkpt lat="43.04965" lon="13.3543633"><ele>412.0</ele><time>2026-04-09T12:25:43.376Z</time></trkpt><trkpt lat="43.0496483" lon="13.3542267"><ele>410.6</ele><time>2026-04-09T12:25:44.378Z</time></trkpt><trkpt lat="43.0496517" lon="13.35409"><ele>409.20000000000005</ele><time>2026-04-09T12:25:45.376Z</time></trkpt><trkpt lat="43.0496533" lon="13.353955"><ele>407.8</ele><time>2026-04-09T12:25:46.376Z</time></trkpt><trkpt lat="43.0496567" lon="13.35382"><ele>406.4</ele><time>2026-04-09T12:25:47.375Z</time></trkpt><trkpt lat="43.0496533" lon="13.3536817"><ele>405.0</ele><time>2026-04-09T12:25:48.377Z</time></trkpt><trkpt lat="43.049645" lon="13.3535467"><ele>405.0</ele><time>2026-04-09T12:25:49.377Z</time></trkpt><trkpt lat="43.0496333" lon="13.3534167"><ele>405.0</ele><time>2026-04-09T12:25:50.374Z</time></trkpt><trkpt lat="43.0496217" lon="13.3532883"><ele>405.0</ele><time>2026-04-09T12:25:51.377Z</time></trkpt><trkpt lat="43.0496133" lon="13.353145"><ele>405.0</ele><time>2026-04-09T12:25:52.377Z</time></trkpt><trkpt lat="43.049615" lon="13.3529983"><ele>405.0</ele><time>2026-04-09T12:25:53.378Z</time></trkpt><trkpt lat="43.049625" lon="13.35285"><ele>407.0</ele><time>2026-04-09T12:25:54.377Z</time></trkpt><trkpt lat="43.0496433" lon="13.3526933"><ele>409.0</ele><time>2026-04-09T12:25:55.377Z</time></trkpt><trkpt lat="43.049665" lon="13.3525317"><ele>411.0</ele><time>2026-04-09T12:25:56.377Z</time></trkpt><trkpt lat="43.0496817" lon="13.35237"><ele>413.0</ele><time>2026-04-09T12:25:57.377Z</time></trkpt><trkpt lat="43.049695" lon="13.35221"><ele>415.2</ele><time>2026-04-09T12:25:58.375Z</time></trkpt><trkpt lat="43.0497033" lon="13.35206"><ele>417.4</ele><time>2026-04-09T12:25:59.377Z</time></trkpt><trkpt lat="43.0497" lon="13.351925"><ele>419.59999999999997</ele><time>2026-04-09T12:26:00.373Z</time></trkpt><trkpt lat="43.049675" lon="13.3517917"><ele>421.79999999999995</ele><time>2026-04-09T12:26:01.375Z</time></trkpt><trkpt lat="43.0496233" lon="13.351665"><ele>424.0</ele><time>2026-04-09T12:26:02.379Z</time></trkpt><trkpt lat="43.0495567" lon="13.3515483"><ele>424.0</ele><time>2026-04-09T12:26:03.377Z</time></trkpt><trkpt lat="43.0494867" lon="13.35143"><ele>424.0</ele><time>2026-04-09T12:26:04.376Z</time></trkpt><trkpt lat="43.049425" lon="13.3513067"><ele>424.0</ele><time>2026-04-09T12:26:05.377Z</time></trkpt><trkpt lat="43.04938" lon="13.35118"><ele>424.0</ele><time>2026-04-09T12:26:06.373Z</time></trkpt><trkpt lat="43.0493517" lon="13.3510417"><ele>424.0</ele><time>2026-04-09T12:26:07.375Z</time></trkpt><trkpt lat="43.0493267" lon="13.3509017"><ele>425.2</ele><time>2026-04-09T12:26:08.375Z</time></trkpt><trkpt lat="43.049295" lon="13.3507583"><ele>426.4</ele><time>2026-04-09T12:26:09.377Z</time></trkpt><trkpt lat="43.0492567" lon="13.3506233"><ele>427.6</ele><time>2026-04-09T12:26:10.377Z</time></trkpt><trkpt lat="43.04922" lon="13.350495"><ele>428.8</ele><time>2026-04-09T12:26:11.377Z</time></trkpt><trkpt lat="43.0491867" lon="13.3503717"><ele>430.0</ele><time>2026-04-09T12:26:12.374Z</time></trkpt><trkpt lat="43.0491617" lon="13.350255"><ele>430.1666666666667</ele><time>2026-04-09T12:26:13.373Z</time></trkpt><trkpt lat="43.0491517" lon="13.3501417"><ele>430.33333333333337</ele><time>2026-04-09T12:26:14.377Z</time></trkpt><trkpt lat="43.0491567" lon="13.3500283"><ele>430.5</ele><time>2026-04-09T12:26:15.373Z</time></trkpt><trkpt lat="43.0491583" lon="13.349915"><ele>430.66666666666663</ele><time>2026-04-09T12:26:16.377Z</time></trkpt><trkpt lat="43.04916" lon="13.3498017"><ele>430.8333333333333</ele><time>2026-04-09T12:26:17.377Z</time></trkpt><trkpt lat="43.0491633" lon="13.3496917"><ele>431.0</ele><time>2026-04-09T12:26:18.378Z</time></trkpt><trkpt lat="43.0491683" lon="13.3495817"><ele>429.66666666666663</ele><time>2026-04-09T12:26:19.378Z</time></trkpt><trkpt lat="43.0491717" lon="13.3494733"><ele>428.3333333333333</ele><time>2026-04-09T12:26:20.379Z</time></trkpt><trkpt lat="43.0491767" lon="13.3493617"><ele>427.0</ele><time>2026-04-09T12:26:21.379Z</time></trkpt><trkpt lat="43.0491867" lon="13.3492467"><ele>425.66666666666663</ele><time>2026-04-09T12:26:22.378Z</time></trkpt><trkpt lat="43.0492067" lon="13.3491267"><ele>424.3333333333333</ele><time>2026-04-09T12:26:23.378Z</time></trkpt><trkpt lat="43.0492317" lon="13.3489983"><ele>423.0</ele><time>2026-04-09T12:26:24.374Z</time></trkpt><trkpt lat="43.0492567" lon="13.3488667"><ele>422.1666666666667</ele><time>2026-04-09T12:26:25.378Z</time></trkpt><trkpt lat="43.0492717" lon="13.3487317"><ele>421.33333333333337</ele><time>2026-04-09T12:26:26.374Z</time></trkpt><trkpt lat="43.0492867" lon="13.3486"><ele>420.5</ele><time>2026-04-09T12:26:27.377Z</time></trkpt><trkpt lat="43.0493" lon="13.348485"><ele>419.6666666666667</ele><time>2026-04-09T12:26:28.378Z</time></trkpt><trkpt lat="43.0493133" lon="13.348375"><ele>418.83333333333337</ele><time>2026-04-09T12:26:29.375Z</time></trkpt><trkpt lat="43.0493283" lon="13.34827"><ele>418.0</ele><time>2026-04-09T12:26:30.374Z</time></trkpt><trkpt lat="43.049345" lon="13.3481717"><ele>418.0</ele><time>2026-04-09T12:26:31.374Z</time></trkpt><trkpt lat="43.049365" lon="13.3480867"><ele>418.0</ele><time>2026-04-09T12:26:32.375Z</time></trkpt><trkpt lat="43.0494383" lon="13.3479683"><ele>418.0</ele><time>2026-04-09T12:26:34.375Z</time></trkpt><trkpt lat="43.049545" lon="13.347905"><ele>418.0</ele><time>2026-04-09T12:26:36.378Z</time></trkpt><trkpt lat="43.0496333" lon="13.3478783"><ele>418.0</ele><time>2026-04-09T12:26:37.378Z</time></trkpt><trkpt lat="43.0497283" lon="13.3478433"><ele>418.59999999999997</ele><time>2026-04-09T12:26:38.377Z</time></trkpt><trkpt lat="43.0498117" lon="13.3477917"><ele>419.2</ele><time>2026-04-09T12:26:39.378Z</time></trkpt><trkpt lat="43.0498867" lon="13.3477267"><ele>419.8</ele><time>2026-04-09T12:26:40.377Z</time></trkpt><trkpt lat="43.0499617" lon="13.34765"><ele>420.4</ele><time>2026-04-09T12:26:41.378Z</time></trkpt><trkpt lat="43.0500383" lon="13.34757"><ele>421.0</ele><time>2026-04-09T12:26:42.378Z</time></trkpt><trkpt lat="43.0501067" lon="13.3474933"><ele>421.00000000000006</ele><time>2026-04-09T12:26:43.378Z</time></trkpt><trkpt lat="43.0501683" lon="13.3474167"><ele>421.0</ele><time>2026-04-09T12:26:44.378Z</time></trkpt><trkpt lat="43.0502233" lon="13.347345"><ele>421.0</ele><time>2026-04-09T12:26:45.374Z</time></trkpt><trkpt lat="43.0502767" lon="13.34727"><ele>421.0</ele><time>2026-04-09T12:26:46.376Z</time></trkpt><trkpt lat="43.0503217" lon="13.3471917"><ele>421.00000000000006</ele><time>2026-04-09T12:26:47.377Z</time></trkpt><trkpt lat="43.0503667" lon="13.3470517"><ele>421.0</ele><time>2026-04-09T12:26:49.377Z</time></trkpt><trkpt lat="43.0503467" lon="13.346945"><ele>421.33333333333337</ele><time>2026-04-09T12:26:51.377Z</time></trkpt><trkpt lat="43.0502433" lon="13.3468633"><ele>421.6666666666667</ele><time>2026-04-09T12:26:53.378Z</time></trkpt><trkpt lat="43.05018" lon="13.3468183"><ele>422.0</ele><time>2026-04-09T12:26:54.373Z</time></trkpt><trkpt lat="43.050125" lon="13.346765"><ele>422.33333333333337</ele><time>2026-04-09T12:26:55.378Z</time></trkpt><trkpt lat="43.050075" lon="13.3467"><ele>422.6666666666667</ele><time>2026-04-09T12:26:56.374Z</time></trkpt><trkpt lat="43.0500167" lon="13.3465783"><ele>423.0</ele><time>2026-04-09T12:26:58.378Z</time></trkpt><trkpt lat="43.0499917" lon="13.346455"><ele>421.2</ele><time>2026-04-09T12:27:01.376Z</time></trkpt><trkpt lat="43.049935" lon="13.3462983"><ele>419.4</ele><time>2026-04-09T12:27:03.378Z</time></trkpt><trkpt lat="43.0498967" lon="13.3461983"><ele>417.59999999999997</ele><time>2026-04-09T12:27:04.377Z</time></trkpt><trkpt lat="43.0498583" lon="13.346085"><ele>415.79999999999995</ele><time>2026-04-09T12:27:05.378Z</time></trkpt><trkpt lat="43.0498183" lon="13.345965"><ele>414.0</ele><time>2026-04-09T12:27:06.377Z</time></trkpt><trkpt lat="43.0497817" lon="13.3458417"><ele>414.0</ele><time>2026-04-09T12:27:07.377Z</time></trkpt><trkpt lat="43.049735" lon="13.3457267"><ele>414.0</ele><time>2026-04-09T12:27:08.377Z</time></trkpt><trkpt lat="43.049695" lon="13.3456283"><ele>414.0</ele><time>2026-04-09T12:27:09.378Z</time></trkpt><trkpt lat="43.0496533" lon="13.3455417"><ele>414.0</ele><time>2026-04-09T12:27:10.374Z</time></trkpt><trkpt lat="43.0496067" lon="13.345475"><ele>414.0</ele><time>2026-04-09T12:27:11.377Z</time></trkpt><trkpt lat="43.049495" lon="13.345425"><ele>414.0</ele><time>2026-04-09T12:27:13.377Z</time></trkpt><trkpt lat="43.0494333" lon="13.3454433"><ele>414.0</ele><time>2026-04-09T12:27:14.378Z</time></trkpt><trkpt lat="43.04938" lon="13.3454933"><ele>414.0</ele><time>2026-04-09T12:27:15.378Z</time></trkpt><trkpt lat="43.0493367" lon="13.3455683"><ele>414.0</ele><time>2026-04-09T12:27:16.378Z</time></trkpt><trkpt lat="43.0493083" lon="13.3456633"><ele>414.0</ele><time>2026-04-09T12:27:17.378Z</time></trkpt><trkpt lat="43.0492983" lon="13.3457717"><ele>414.0</ele><time>2026-04-09T12:27:18.373Z</time></trkpt><trkpt lat="43.049295" lon="13.3458817"><ele>414.0</ele><time>2026-04-09T12:27:19.375Z</time></trkpt><trkpt lat="43.0492833" lon="13.34599"><ele>414.00000000000006</ele><time>2026-04-09T12:27:20.375Z</time></trkpt><trkpt lat="43.0492667" lon="13.3460833"><ele>414.0</ele><time>2026-04-09T12:27:21.375Z</time></trkpt><trkpt lat="43.0492417" lon="13.3461667"><ele>414.0</ele><time>2026-04-09T12:27:22.375Z</time></trkpt><trkpt lat="43.0492033" lon="13.3462417"><ele>414.0</ele><time>2026-04-09T12:27:23.376Z</time></trkpt><trkpt lat="43.0491467" lon="13.3463067"><ele>414.0</ele><time>2026-04-09T12:27:24.375Z</time></trkpt><trkpt lat="43.0490683" lon="13.3463433"><ele>414.00000000000006</ele><time>2026-04-09T12:27:25.375Z</time></trkpt><trkpt lat="43.04898" lon="13.346345"><ele>414.0</ele><time>2026-04-09T12:27:26.373Z</time></trkpt><trkpt lat="43.048895" lon="13.3463367"><ele>411.2</ele><time>2026-04-09T12:27:27.375Z</time></trkpt><trkpt lat="43.048795" lon="13.3463067"><ele>408.4</ele><time>2026-04-09T12:27:28.374Z</time></trkpt><trkpt lat="43.0486917" lon="13.346275"><ele>405.6</ele><time>2026-04-09T12:27:29.375Z</time></trkpt><trkpt lat="43.0485933" lon="13.3462417"><ele>402.8</ele><time>2026-04-09T12:27:30.375Z</time></trkpt><trkpt lat="43.048495" lon="13.3462067"><ele>400.0</ele><time>2026-04-09T12:27:31.374Z</time></trkpt><trkpt lat="43.0483933" lon="13.3461733"><ele>400.0</ele><time>2026-04-09T12:27:32.376Z</time></trkpt><trkpt lat="43.0482933" lon="13.346145"><ele>400.0</ele><time>2026-04-09T12:27:33.374Z</time></trkpt><trkpt lat="43.048195" lon="13.3461183"><ele>400.0</ele><time>2026-04-09T12:27:34.375Z</time></trkpt><trkpt lat="43.048095" lon="13.3460983"><ele>400.0</ele><time>2026-04-09T12:27:35.373Z</time></trkpt><trkpt lat="43.0480017" lon="13.346095"><ele>400.0</ele><time>2026-04-09T12:27:36.377Z</time></trkpt><trkpt lat="43.047905" lon="13.3461167"><ele>397.2</ele><time>2026-04-09T12:27:37.378Z</time></trkpt><trkpt lat="43.0478033" lon="13.3461483"><ele>394.4</ele><time>2026-04-09T12:27:38.377Z</time></trkpt><trkpt lat="43.0476933" lon="13.3461883"><ele>391.6</ele><time>2026-04-09T12:27:39.38Z</time></trkpt><trkpt lat="43.0475833" lon="13.34623"><ele>388.8</ele><time>2026-04-09T12:27:40.378Z</time></trkpt><trkpt lat="43.047475" lon="13.3462733"><ele>386.0</ele><time>2026-04-09T12:27:41.378Z</time></trkpt><trkpt lat="43.0473667" lon="13.346315"><ele>383.4</ele><time>2026-04-09T12:27:42.377Z</time></trkpt><trkpt lat="43.0472617" lon="13.3463533"><ele>380.8</ele><time>2026-04-09T12:27:43.378Z</time></trkpt><trkpt lat="43.04716" lon="13.3463883"><ele>378.2</ele><time>2026-04-09T12:27:44.378Z</time></trkpt><trkpt lat="43.0470617" lon="13.346415"><ele>375.59999999999997</ele><time>2026-04-09T12:27:45.377Z</time></trkpt><trkpt lat="43.0469683" lon="13.3464333"><ele>373.0</ele><time>2026-04-09T12:27:46.378Z</time></trkpt><trkpt lat="43.0468867" lon="13.34644"><ele>373.0</ele><time>2026-04-09T12:27:47.378Z</time></trkpt><trkpt lat="43.0468133" lon="13.3464333"><ele>373.0</ele><time>2026-04-09T12:27:48.374Z</time></trkpt><trkpt lat="43.0467467" lon="13.3464117"><ele>373.0</ele><time>2026-04-09T12:27:49.376Z</time></trkpt><trkpt lat="43.0466917" lon="13.3463667"><ele>373.0</ele><time>2026-04-09T12:27:50.375Z</time></trkpt><trkpt lat="43.0466433" lon="13.3462883"><ele>373.0</ele><time>2026-04-09T12:27:51.374Z</time></trkpt><trkpt lat="43.0465967" lon="13.3461933"><ele>373.0</ele><time>2026-04-09T12:27:52.375Z</time></trkpt><trkpt lat="43.0465533" lon="13.3460867"><ele>370.16666666666663</ele><time>2026-04-09T12:27:53.374Z</time></trkpt><trkpt lat="43.0465133" lon="13.3459783"><ele>367.3333333333333</ele><time>2026-04-09T12:27:54.375Z</time></trkpt><trkpt lat="43.046475" lon="13.34588"><ele>364.5</ele><time>2026-04-09T12:27:55.374Z</time></trkpt><trkpt lat="43.0464367" lon="13.345805"><ele>361.6666666666667</ele><time>2026-04-09T12:27:56.375Z</time></trkpt><trkpt lat="43.0463617" lon="13.3457017"><ele>358.83333333333337</ele><time>2026-04-09T12:27:58.375Z</time></trkpt><trkpt lat="43.0462917" lon="13.345755"><ele>356.0</ele><time>2026-04-09T12:28:01.378Z</time></trkpt><trkpt lat="43.046295" lon="13.34585"><ele>356.0</ele><time>2026-04-09T12:28:02.374Z</time></trkpt><trkpt lat="43.0462983" lon="13.346005"><ele>356.0</ele><time>2026-04-09T12:28:04.374Z</time></trkpt><trkpt lat="43.0462733" lon="13.3461333"><ele>356.0</ele><time>2026-04-09T12:28:06.374Z</time></trkpt><trkpt lat="43.0462117" lon="13.3461883"><ele>356.0</ele><time>2026-04-09T12:28:08.377Z</time></trkpt><trkpt lat="43.0460833" lon="13.3461133"><ele>356.0</ele><time>2026-04-09T12:28:10.378Z</time></trkpt><trkpt lat="43.046015" lon="13.346055"><ele>355.99999999999994</ele><time>2026-04-09T12:28:11.378Z</time></trkpt><trkpt lat="43.0459417" lon="13.3459983"><ele>356.0</ele><time>2026-04-09T12:28:12.378Z</time></trkpt><trkpt lat="43.04587" lon="13.3459383"><ele>356.0</ele><time>2026-04-09T12:28:13.377Z</time></trkpt><trkpt lat="43.0458167" lon="13.3458733"><ele>356.0</ele><time>2026-04-09T12:28:14.38Z</time></trkpt><trkpt lat="43.0457767" lon="13.345795"><ele>356.0</ele><time>2026-04-09T12:28:15.378Z</time></trkpt><trkpt lat="43.04575" lon="13.345715"><ele>355.99999999999994</ele><time>2026-04-09T12:28:16.377Z</time></trkpt><trkpt lat="43.0457483" lon="13.345615"><ele>356.0</ele><time>2026-04-09T12:28:17.377Z</time></trkpt><trkpt lat="43.0457683" lon="13.3454967"><ele>355.8</ele><time>2026-04-09T12:28:18.375Z</time></trkpt><trkpt lat="43.0458083" lon="13.3453633"><ele>355.6</ele><time>2026-04-09T12:28:19.374Z</time></trkpt><trkpt lat="43.045825" lon="13.3452267"><ele>355.4</ele><time>2026-04-09T12:28:20.374Z</time></trkpt><trkpt lat="43.04584" lon="13.3450917"><ele>355.2</ele><time>2026-04-09T12:28:21.374Z</time></trkpt><trkpt lat="43.0458517" lon="13.3449683"><ele>355.0</ele><time>2026-04-09T12:28:22.374Z</time></trkpt><trkpt lat="43.0458683" lon="13.3448567"><ele>355.0</ele><time>2026-04-09T12:28:23.375Z</time></trkpt><trkpt lat="43.04588" lon="13.344765"><ele>355.0</ele><time>2026-04-09T12:28:24.374Z</time></trkpt><trkpt lat="43.0458717" lon="13.3446233"><ele>355.0</ele><time>2026-04-09T12:28:26.374Z</time></trkpt><trkpt lat="43.045845" lon="13.344535"><ele>355.0</ele><time>2026-04-09T12:28:29.377Z</time></trkpt><trkpt lat="43.04577" lon="13.34451"><ele>355.0</ele><time>2026-04-09T12:29:14.374Z</time></trkpt><trkpt lat="43.0456467" lon="13.3444617"><ele>355.0</ele><time>2026-04-09T12:29:16.378Z</time></trkpt><trkpt lat="43.04558" lon="13.3444133"><ele>355.0</ele><time>2026-04-09T12:29:17.379Z</time></trkpt><trkpt lat="43.0455183" lon="13.344355"><ele>355.0</ele><time>2026-04-09T12:29:18.374Z</time></trkpt><trkpt lat="43.0454533" lon="13.3442833"><ele>355.0</ele><time>2026-04-09T12:29:19.375Z</time></trkpt><trkpt lat="43.045375" lon="13.3442083"><ele>355.0</ele><time>2026-04-09T12:29:20.373Z</time></trkpt><trkpt lat="43.0452883" lon="13.3441267"><ele>355.0</ele><time>2026-04-09T12:29:21.376Z</time></trkpt><trkpt lat="43.0452183" lon="13.344055"><ele>355.0</ele><time>2026-04-09T12:29:22.373Z</time></trkpt><trkpt lat="43.04516" lon="13.3439833"><ele>355.0</ele><time>2026-04-09T12:29:23.373Z</time></trkpt><trkpt lat="43.0451167" lon="13.3439067"><ele>355.0</ele><time>2026-04-09T12:29:24.373Z</time></trkpt><trkpt lat="43.045075" lon="13.3438167"><ele>355.0</ele><time>2026-04-09T12:29:25.374Z</time></trkpt><trkpt lat="43.0450517" lon="13.3437233"><ele>355.0</ele><time>2026-04-09T12:29:26.374Z</time></trkpt><trkpt lat="43.0450683" lon="13.34364"><ele>355.0</ele><time>2026-04-09T12:29:27.373Z</time></trkpt><trkpt lat="43.0451117" lon="13.3435583"><ele>355.0</ele><time>2026-04-09T12:29:28.374Z</time></trkpt><trkpt lat="43.0451583" lon="13.3434717"><ele>355.0</ele><time>2026-04-09T12:29:29.374Z</time></trkpt><trkpt lat="43.0451917" lon="13.34339"><ele>355.3333333333333</ele><time>2026-04-09T12:29:30.373Z</time></trkpt><trkpt lat="43.0452117" lon="13.3433067"><ele>355.66666666666663</ele><time>2026-04-09T12:29:31.374Z</time></trkpt><trkpt lat="43.04518" lon="13.3431683"><ele>356.0</ele><time>2026-04-09T12:29:33.374Z</time></trkpt><trkpt lat="43.0450783" lon="13.3430833"><ele>356.3333333333333</ele><time>2026-04-09T12:29:35.374Z</time></trkpt><trkpt lat="43.0449983" lon="13.3430617"><ele>356.6666666666667</ele><time>2026-04-09T12:29:36.374Z</time></trkpt><trkpt lat="43.0449233" lon="13.3430567"><ele>357.0</ele><time>2026-04-09T12:29:37.376Z</time></trkpt><trkpt lat="43.0448383" lon="13.3430617"><ele>359.5</ele><time>2026-04-09T12:29:38.376Z</time></trkpt><trkpt lat="43.0447617" lon="13.3430667"><ele>362.0</ele><time>2026-04-09T12:29:39.376Z</time></trkpt><trkpt lat="43.044685" lon="13.34306"><ele>364.5</ele><time>2026-04-09T12:29:40.377Z</time></trkpt><trkpt lat="43.0446133" lon="13.34304"><ele>367.0</ele><time>2026-04-09T12:29:41.377Z</time></trkpt><trkpt lat="43.0445483" lon="13.3429933"><ele>369.5</ele><time>2026-04-09T12:29:42.373Z</time></trkpt><trkpt lat="43.0444817" lon="13.3429333"><ele>372.0</ele><time>2026-04-09T12:29:43.372Z</time></trkpt><trkpt lat="43.0444283" lon="13.3428367"><ele>374.5</ele><time>2026-04-09T12:29:44.374Z</time></trkpt><trkpt lat="43.0443883" lon="13.3427083"><ele>377.0</ele><time>2026-04-09T12:29:45.377Z</time></trkpt><trkpt lat="43.0443817" lon="13.342535"><ele>379.5</ele><time>2026-04-09T12:29:46.377Z</time></trkpt><trkpt lat="43.0443833" lon="13.3423717"><ele>382.0</ele><time>2026-04-09T12:29:47.374Z</time></trkpt><trkpt lat="43.0444017" lon="13.3422117"><ele>382.75</ele><time>2026-04-09T12:29:48.373Z</time></trkpt><trkpt lat="43.0444383" lon="13.3420617"><ele>383.5</ele><time>2026-04-09T12:29:49.373Z</time></trkpt><trkpt lat="43.0444917" lon="13.341905"><ele>384.25</ele><time>2026-04-09T12:29:50.376Z</time></trkpt><trkpt lat="43.0445517" lon="13.341755"><ele>385.0</ele><time>2026-04-09T12:29:51.377Z</time></trkpt><trkpt lat="43.044585" lon="13.34161"><ele>385.0</ele><time>2026-04-09T12:29:52.376Z</time></trkpt><trkpt lat="43.044605" lon="13.34145"><ele>385.0</ele><time>2026-04-09T12:29:53.376Z</time></trkpt><trkpt lat="43.0446183" lon="13.34127"><ele>385.0</ele><time>2026-04-09T12:29:54.376Z</time></trkpt><trkpt lat="43.0446267" lon="13.34108"><ele>385.0</ele><time>2026-04-09T12:29:55.377Z</time></trkpt><trkpt lat="43.0446383" lon="13.3408967"><ele>385.5</ele><time>2026-04-09T12:29:56.374Z</time></trkpt><trkpt lat="43.0446667" lon="13.340725"><ele>386.0</ele><time>2026-04-09T12:29:57.373Z</time></trkpt><trkpt lat="43.0447133" lon="13.3405733"><ele>386.5</ele><time>2026-04-09T12:29:58.372Z</time></trkpt><trkpt lat="43.0447833" lon="13.3404383"><ele>387.0</ele><time>2026-04-09T12:29:59.377Z</time></trkpt><trkpt lat="43.0448617" lon="13.340315"><ele>386.8</ele><time>2026-04-09T12:30:00.373Z</time></trkpt><trkpt lat="43.0449317" lon="13.3402017"><ele>386.6</ele><time>2026-04-09T12:30:01.374Z</time></trkpt><trkpt lat="43.04499" lon="13.3400967"><ele>386.40000000000003</ele><time>2026-04-09T12:30:02.374Z</time></trkpt><trkpt lat="43.0450367" lon="13.3399883"><ele>386.20000000000005</ele><time>2026-04-09T12:30:03.374Z</time></trkpt><trkpt lat="43.0450633" lon="13.3398733"><ele>386.0</ele><time>2026-04-09T12:30:04.373Z</time></trkpt><trkpt lat="43.045065" lon="13.3397483"><ele>386.8</ele><time>2026-04-09T12:30:05.373Z</time></trkpt><trkpt lat="43.0450433" lon="13.339615"><ele>387.6</ele><time>2026-04-09T12:30:06.373Z</time></trkpt><trkpt lat="43.04501" lon="13.3394733"><ele>388.4</ele><time>2026-04-09T12:30:07.375Z</time></trkpt><trkpt lat="43.0449633" lon="13.3393417"><ele>389.2</ele><time>2026-04-09T12:30:08.376Z</time></trkpt><trkpt lat="43.0449117" lon="13.33922"><ele>390.0</ele><time>2026-04-09T12:30:09.372Z</time></trkpt><trkpt lat="43.0448483" lon="13.3391217"><ele>393.0</ele><time>2026-04-09T12:30:10.373Z</time></trkpt><trkpt lat="43.0447683" lon="13.33905"><ele>396.0</ele><time>2026-04-09T12:30:11.378Z</time></trkpt><trkpt lat="43.0446717" lon="13.3389983"><ele>399.0</ele><time>2026-04-09T12:30:12.374Z</time></trkpt><trkpt lat="43.0445567" lon="13.3389617"><ele>402.0</ele><time>2026-04-09T12:30:13.372Z</time></trkpt><trkpt lat="43.0444367" lon="13.3389317"><ele>405.0</ele><time>2026-04-09T12:30:14.374Z</time></trkpt><trkpt lat="43.0443183" lon="13.338895"><ele>403.75</ele><time>2026-04-09T12:30:15.377Z</time></trkpt><trkpt lat="43.0442017" lon="13.3388283"><ele>402.5</ele><time>2026-04-09T12:30:16.377Z</time></trkpt><trkpt lat="43.0440933" lon="13.3387333"><ele>401.25</ele><time>2026-04-09T12:30:17.376Z</time></trkpt><trkpt lat="43.0439833" lon="13.33861"><ele>400.0</ele><time>2026-04-09T12:30:18.376Z</time></trkpt><trkpt lat="43.0438683" lon="13.3384667"><ele>403.75</ele><time>2026-04-09T12:30:19.378Z</time></trkpt><trkpt lat="43.04375" lon="13.3383217"><ele>407.5</ele><time>2026-04-09T12:30:20.377Z</time></trkpt><trkpt lat="43.0436467" lon="13.338195"><ele>411.25</ele><time>2026-04-09T12:30:21.377Z</time></trkpt><trkpt lat="43.0435633" lon="13.33808"><ele>415.0</ele><time>2026-04-09T12:30:22.376Z</time></trkpt><trkpt lat="43.0435017" lon="13.337955"><ele>415.0</ele><time>2026-04-09T12:30:23.377Z</time></trkpt><trkpt lat="43.043455" lon="13.3378183"><ele>415.0</ele><time>2026-04-09T12:30:24.378Z</time></trkpt><trkpt lat="43.04342" lon="13.33767"><ele>415.0</ele><time>2026-04-09T12:30:25.377Z</time></trkpt><trkpt lat="43.043395" lon="13.3375267"><ele>415.0</ele><time>2026-04-09T12:30:26.377Z</time></trkpt><trkpt lat="43.0433733" lon="13.3373967"><ele>415.0</ele><time>2026-04-09T12:30:27.377Z</time></trkpt><trkpt lat="43.043345" lon="13.3372933"><ele>415.6666666666667</ele><time>2026-04-09T12:30:28.374Z</time></trkpt><trkpt lat="43.0433167" lon="13.337215"><ele>416.33333333333337</ele><time>2026-04-09T12:30:29.374Z</time></trkpt><trkpt lat="43.0432483" lon="13.3371567"><ele>417.0</ele><time>2026-04-09T12:30:31.372Z</time></trkpt><trkpt lat="43.0431483" lon="13.3372133"><ele>417.66666666666663</ele><time>2026-04-09T12:30:33.374Z</time></trkpt><trkpt lat="43.0430867" lon="13.337265"><ele>418.3333333333333</ele><time>2026-04-09T12:30:34.374Z</time></trkpt><trkpt lat="43.0430333" lon="13.3373317"><ele>419.0</ele><time>2026-04-09T12:30:35.376Z</time></trkpt><trkpt lat="43.0429917" lon="13.3374117"><ele>420.66666666666663</ele><time>2026-04-09T12:30:36.378Z</time></trkpt><trkpt lat="43.0429733" lon="13.3375017"><ele>422.3333333333333</ele><time>2026-04-09T12:30:37.375Z</time></trkpt><trkpt lat="43.04297" lon="13.337605"><ele>424.0</ele><time>2026-04-09T12:30:38.375Z</time></trkpt><trkpt lat="43.042985" lon="13.3377267"><ele>425.66666666666663</ele><time>2026-04-09T12:30:39.374Z</time></trkpt><trkpt lat="43.043015" lon="13.3378483"><ele>427.3333333333333</ele><time>2026-04-09T12:30:40.374Z</time></trkpt><trkpt lat="43.043045" lon="13.3379667"><ele>429.0</ele><time>2026-04-09T12:30:41.378Z</time></trkpt><trkpt lat="43.04306" lon="13.338095"><ele>429.0</ele><time>2026-04-09T12:30:42.378Z</time></trkpt><trkpt lat="43.0430583" lon="13.3382183"><ele>429.0</ele><time>2026-04-09T12:30:43.378Z</time></trkpt><trkpt lat="43.0430467" lon="13.3383267"><ele>429.0</ele><time>2026-04-09T12:30:44.374Z</time></trkpt><trkpt lat="43.0430217" lon="13.3384183"><ele>429.0</ele><time>2026-04-09T12:30:45.376Z</time></trkpt><trkpt lat="43.0429717" lon="13.338475"><ele>429.0</ele><time>2026-04-09T12:30:46.374Z</time></trkpt><trkpt lat="43.0429017" lon="13.3384833"><ele>429.0</ele><time>2026-04-09T12:30:47.378Z</time></trkpt><trkpt lat="43.0428217" lon="13.33848"><ele>429.0</ele><time>2026-04-09T12:30:48.377Z</time></trkpt><trkpt lat="43.0427183" lon="13.338415"><ele>429.0</ele><time>2026-04-09T12:30:49.376Z</time></trkpt><trkpt lat="43.0426217" lon="13.3383417"><ele>429.0</ele><time>2026-04-09T12:30:50.377Z</time></trkpt><trkpt lat="43.0425417" lon="13.3382233"><ele>429.0</ele><time>2026-04-09T12:30:51.377Z</time></trkpt><trkpt lat="43.0424767" lon="13.3381017"><ele>431.8333333333333</ele><time>2026-04-09T12:30:52.378Z</time></trkpt><trkpt lat="43.0424183" lon="13.3380033"><ele>434.66666666666663</ele><time>2026-04-09T12:30:53.377Z</time></trkpt><trkpt lat="43.0423567" lon="13.3379383"><ele>437.5</ele><time>2026-04-09T12:30:54.377Z</time></trkpt><trkpt lat="43.042285" lon="13.3378983"><ele>440.3333333333333</ele><time>2026-04-09T12:30:55.376Z</time></trkpt><trkpt lat="43.042195" lon="13.3378983"><ele>443.16666666666663</ele><time>2026-04-09T12:30:56.378Z</time></trkpt><trkpt lat="43.04209" lon="13.3379383"><ele>446.0</ele><time>2026-04-09T12:30:57.467Z</time></trkpt><trkpt lat="43.0419533" lon="13.33801"><ele>447.25</ele><time>2026-04-09T12:30:58.375Z</time></trkpt><trkpt lat="43.0418233" lon="13.3380767"><ele>448.5</ele><time>2026-04-09T12:30:59.373Z</time></trkpt><trkpt lat="43.0417017" lon="13.338155"><ele>449.75</ele><time>2026-04-09T12:31:00.374Z</time></trkpt><trkpt lat="43.041585" lon="13.338255"><ele>451.0</ele><time>2026-04-09T12:31:01.374Z</time></trkpt><trkpt lat="43.0414733" lon="13.3383717"><ele>451.0</ele><time>2026-04-09T12:31:02.376Z</time></trkpt><trkpt lat="43.04136" lon="13.3384983"><ele>451.0</ele><time>2026-04-09T12:31:03.373Z</time></trkpt><trkpt lat="43.0412467" lon="13.3386333"><ele>451.0</ele><time>2026-04-09T12:31:04.374Z</time></trkpt><trkpt lat="43.0411283" lon="13.33877"><ele>450.5</ele><time>2026-04-09T12:31:05.373Z</time></trkpt><trkpt lat="43.0410183" lon="13.3388933"><ele>450.0</ele><time>2026-04-09T12:31:06.373Z</time></trkpt><trkpt lat="43.0409067" lon="13.3390017"><ele>449.5</ele><time>2026-04-09T12:31:07.373Z</time></trkpt><trkpt lat="43.0407983" lon="13.3391"><ele>449.0</ele><time>2026-04-09T12:31:08.373Z</time></trkpt><trkpt lat="43.040695" lon="13.3391767"><ele>451.25</ele><time>2026-04-09T12:31:09.372Z</time></trkpt><trkpt lat="43.04059" lon="13.3392367"><ele>453.5</ele><time>2026-04-09T12:31:10.374Z</time></trkpt><trkpt lat="43.0404833" lon="13.33929"><ele>455.75</ele><time>2026-04-09T12:31:11.376Z</time></trkpt><trkpt lat="43.0403683" lon="13.339345"><ele>458.0</ele><time>2026-04-09T12:31:12.378Z</time></trkpt><trkpt lat="43.04025" lon="13.339415"><ele>458.0</ele><time>2026-04-09T12:31:13.378Z</time></trkpt><trkpt lat="43.04013" lon="13.3394917"><ele>458.0</ele><time>2026-04-09T12:31:14.377Z</time></trkpt><trkpt lat="43.040005" lon="13.3395883"><ele>458.0</ele><time>2026-04-09T12:31:15.378Z</time></trkpt><trkpt lat="43.0398767" lon="13.3396917"><ele>458.0</ele><time>2026-04-09T12:31:16.378Z</time></trkpt><trkpt lat="43.039745" lon="13.3397967"><ele>457.25</ele><time>2026-04-09T12:31:17.378Z</time></trkpt><trkpt lat="43.03961" lon="13.339905"><ele>456.5</ele><time>2026-04-09T12:31:18.377Z</time></trkpt><trkpt lat="43.0394833" lon="13.3400067"><ele>455.75</ele><time>2026-04-09T12:31:19.377Z</time></trkpt><trkpt lat="43.039365" lon="13.3400967"><ele>455.0</ele><time>2026-04-09T12:31:20.377Z</time></trkpt><trkpt lat="43.0392483" lon="13.3401733"><ele>456.75</ele><time>2026-04-09T12:31:21.377Z</time></trkpt><trkpt lat="43.0391233" lon="13.34023"><ele>458.5</ele><time>2026-04-09T12:31:22.378Z</time></trkpt><trkpt lat="43.0389833" lon="13.3402683"><ele>460.25</ele><time>2026-04-09T12:31:23.378Z</time></trkpt><trkpt lat="43.0388283" lon="13.3402983"><ele>462.0</ele><time>2026-04-09T12:31:24.378Z</time></trkpt><trkpt lat="43.03867" lon="13.340325"><ele>462.0</ele><time>2026-04-09T12:31:25.377Z</time></trkpt><trkpt lat="43.038525" lon="13.3403483"><ele>462.0</ele><time>2026-04-09T12:31:26.378Z</time></trkpt><trkpt lat="43.0384" lon="13.34037"><ele>462.0</ele><time>2026-04-09T12:31:27.378Z</time></trkpt><trkpt lat="43.03829" lon="13.3403917"><ele>462.0</ele><time>2026-04-09T12:31:28.375Z</time></trkpt><trkpt lat="43.0381933" lon="13.3404117"><ele>463.5</ele><time>2026-04-09T12:31:29.373Z</time></trkpt><trkpt lat="43.0381133" lon="13.3404267"><ele>465.0</ele><time>2026-04-09T12:31:30.374Z</time></trkpt><trkpt lat="43.038045" lon="13.3404383"><ele>466.5</ele><time>2026-04-09T12:31:31.375Z</time></trkpt><trkpt lat="43.0379367" lon="13.34042"><ele>468.0</ele><time>2026-04-09T12:31:33.374Z</time></trkpt><trkpt lat="43.037865" lon="13.3403767"><ele>469.5</ele><time>2026-04-09T12:31:35.374Z</time></trkpt><trkpt lat="43.0377717" lon="13.3402983"><ele>471.0</ele><time>2026-04-09T12:31:47.378Z</time></trkpt><trkpt lat="43.0377133" lon="13.3402533"><ele>471.0</ele><time>2026-04-09T12:31:48.377Z</time></trkpt><trkpt lat="43.0376483" lon="13.3402033"><ele>471.0</ele><time>2026-04-09T12:31:49.378Z</time></trkpt><trkpt lat="43.0375767" lon="13.3401467"><ele>471.0</ele><time>2026-04-09T12:31:50.378Z</time></trkpt><trkpt lat="43.0375" lon="13.340085"><ele>471.0</ele><time>2026-04-09T12:31:51.377Z</time></trkpt><trkpt lat="43.0374183" lon="13.3400217"><ele>471.0</ele><time>2026-04-09T12:31:52.377Z</time></trkpt><trkpt lat="43.03733" lon="13.3399483"><ele>471.0</ele><time>2026-04-09T12:31:53.376Z</time></trkpt><trkpt lat="43.0372483" lon="13.339865"><ele>470.4</ele><time>2026-04-09T12:31:54.378Z</time></trkpt><trkpt lat="43.0371767" lon="13.3397683"><ele>469.8</ele><time>2026-04-09T12:31:55.378Z</time></trkpt><trkpt lat="43.0371233" lon="13.339655"><ele>469.19999999999993</ele><time>2026-04-09T12:31:56.378Z</time></trkpt><trkpt lat="43.0370867" lon="13.3395267"><ele>468.59999999999997</ele><time>2026-04-09T12:31:57.378Z</time></trkpt><trkpt lat="43.03707" lon="13.3393733"><ele>468.0</ele><time>2026-04-09T12:31:58.374Z</time></trkpt><trkpt lat="43.0370633" lon="13.3392033"><ele>468.0</ele><time>2026-04-09T12:31:59.373Z</time></trkpt><trkpt lat="43.0370633" lon="13.3390217"><ele>468.0</ele><time>2026-04-09T12:32:00.375Z</time></trkpt><trkpt lat="43.0370633" lon="13.3388367"><ele>468.0</ele><time>2026-04-09T12:32:01.374Z</time></trkpt><trkpt lat="43.037065" lon="13.3386683"><ele>468.0</ele><time>2026-04-09T12:32:02.376Z</time></trkpt><trkpt lat="43.037075" lon="13.3385233"><ele>469.0</ele><time>2026-04-09T12:32:03.374Z</time></trkpt><trkpt lat="43.0371017" lon="13.3383983"><ele>469.99999999999994</ele><time>2026-04-09T12:32:04.376Z</time></trkpt><trkpt lat="43.0371483" lon="13.3382867"><ele>470.99999999999994</ele><time>2026-04-09T12:32:05.374Z</time></trkpt><trkpt lat="43.037215" lon="13.33818"><ele>472.0</ele><time>2026-04-09T12:32:06.374Z</time></trkpt><trkpt lat="43.0372967" lon="13.338065"><ele>473.0</ele><time>2026-04-09T12:32:07.374Z</time></trkpt><trkpt lat="43.037395" lon="13.3379367"><ele>478.25</ele><time>2026-04-09T12:32:08.376Z</time></trkpt><trkpt lat="43.0375017" lon="13.3377983"><ele>483.5</ele><time>2026-04-09T12:32:09.373Z</time></trkpt><trkpt lat="43.0376167" lon="13.3376617"><ele>488.75</ele><time>2026-04-09T12:32:10.376Z</time></trkpt><trkpt lat="43.0377317" lon="13.3375333"><ele>494.0</ele><time>2026-04-09T12:32:11.376Z</time></trkpt><trkpt lat="43.0378467" lon="13.337405"><ele>494.0</ele><time>2026-04-09T12:32:12.374Z</time></trkpt><trkpt lat="43.0379533" lon="13.3372917"><ele>494.0</ele><time>2026-04-09T12:32:13.374Z</time></trkpt><trkpt lat="43.03805" lon="13.3371967"><ele>494.0</ele><time>2026-04-09T12:32:14.375Z</time></trkpt><trkpt lat="43.0381383" lon="13.33711"><ele>494.0</ele><time>2026-04-09T12:32:15.373Z</time></trkpt><trkpt lat="43.0382233" lon="13.337025"><ele>495.6</ele><time>2026-04-09T12:32:16.374Z</time></trkpt><trkpt lat="43.0383083" lon="13.3369367"><ele>497.2</ele><time>2026-04-09T12:32:17.377Z</time></trkpt><trkpt lat="43.03839" lon="13.3368567"><ele>498.80000000000007</ele><time>2026-04-09T12:32:18.378Z</time></trkpt><trkpt lat="43.0384633" lon="13.3367833"><ele>500.40000000000003</ele><time>2026-04-09T12:32:19.377Z</time></trkpt><trkpt lat="43.0385283" lon="13.336715"><ele>502.0</ele><time>2026-04-09T12:32:20.377Z</time></trkpt><trkpt lat="43.0385817" lon="13.3366417"><ele>502.00000000000006</ele><time>2026-04-09T12:32:21.378Z</time></trkpt><trkpt lat="43.038625" lon="13.3365617"><ele>502.0</ele><time>2026-04-09T12:32:22.377Z</time></trkpt><trkpt lat="43.03864" lon="13.3364767"><ele>502.0</ele><time>2026-04-09T12:32:23.377Z</time></trkpt><trkpt lat="43.0385867" lon="13.3363567"><ele>502.0</ele><time>2026-04-09T12:32:25.378Z</time></trkpt><trkpt lat="43.03851" lon="13.3363267"><ele>502.00000000000006</ele><time>2026-04-09T12:32:26.378Z</time></trkpt><trkpt lat="43.0384067" lon="13.33632"><ele>502.0</ele><time>2026-04-09T12:32:27.377Z</time></trkpt><trkpt lat="43.0383067" lon="13.3363117"><ele>506.0</ele><time>2026-04-09T12:32:28.373Z</time></trkpt><trkpt lat="43.038185" lon="13.3363183"><ele>510.0</ele><time>2026-04-09T12:32:29.374Z</time></trkpt><trkpt lat="43.0380417" lon="13.3363267"><ele>514.0</ele><time>2026-04-09T12:32:30.375Z</time></trkpt><trkpt lat="43.0378983" lon="13.3363317"><ele>518.0</ele><time>2026-04-09T12:32:31.375Z</time></trkpt><trkpt lat="43.0377817" lon="13.3363167"><ele>518.0</ele><time>2026-04-09T12:32:32.374Z</time></trkpt><trkpt lat="43.0376717" lon="13.3362817"><ele>518.0</ele><time>2026-04-09T12:32:33.375Z</time></trkpt><trkpt lat="43.0375683" lon="13.33622"><ele>518.0</ele><time>2026-04-09T12:32:34.374Z</time></trkpt><trkpt lat="43.0374633" lon="13.33613"><ele>518.0</ele><time>2026-04-09T12:32:35.374Z</time></trkpt><trkpt lat="43.0373667" lon="13.3360367"><ele>519.4</ele><time>2026-04-09T12:32:36.374Z</time></trkpt><trkpt lat="43.0372817" lon="13.33594"><ele>520.8</ele><time>2026-04-09T12:32:37.374Z</time></trkpt><trkpt lat="43.0372217" lon="13.3358517"><ele>522.2</ele><time>2026-04-09T12:32:38.375Z</time></trkpt><trkpt lat="43.03718" lon="13.3357617"><ele>523.6</ele><time>2026-04-09T12:32:39.374Z</time></trkpt><trkpt lat="43.0371583" lon="13.335675"><ele>525.0</ele><time>2026-04-09T12:32:40.373Z</time></trkpt><trkpt lat="43.037215" lon="13.3355517"><ele>525.0</ele><time>2026-04-09T12:32:42.377Z</time></trkpt><trkpt lat="43.0373417" lon="13.3354667"><ele>525.0</ele><time>2026-04-09T12:32:44.377Z</time></trkpt><trkpt lat="43.0374133" lon="13.3354067"><ele>525.0</ele><time>2026-04-09T12:32:45.377Z</time></trkpt><trkpt lat="43.03746" lon="13.3353267"><ele>525.0</ele><time>2026-04-09T12:32:46.378Z</time></trkpt><trkpt lat="43.0374883" lon="13.3352167"><ele>525.0</ele><time>2026-04-09T12:32:47.378Z</time></trkpt><trkpt lat="43.0374867" lon="13.3350817"><ele>525.0</ele><time>2026-04-09T12:32:48.378Z</time></trkpt><trkpt lat="43.03746" lon="13.3349117"><ele>525.0</ele><time>2026-04-09T12:32:49.377Z</time></trkpt><trkpt lat="43.037425" lon="13.3347317"><ele>525.0</ele><time>2026-04-09T12:32:50.377Z</time></trkpt><trkpt lat="43.03738" lon="13.334555"><ele>525.0</ele><time>2026-04-09T12:32:51.377Z</time></trkpt><trkpt lat="43.03732" lon="13.3343833"><ele>528.25</ele><time>2026-04-09T12:32:52.378Z</time></trkpt><trkpt lat="43.037245" lon="13.334215"><ele>531.5</ele><time>2026-04-09T12:32:53.378Z</time></trkpt><trkpt lat="43.03717" lon="13.3340517"><ele>534.75</ele><time>2026-04-09T12:32:54.377Z</time></trkpt><trkpt lat="43.0370967" lon="13.333895"><ele>538.0</ele><time>2026-04-09T12:32:55.378Z</time></trkpt><trkpt lat="43.0370217" lon="13.33374"><ele>539.5</ele><time>2026-04-09T12:32:56.378Z</time></trkpt><trkpt lat="43.0369417" lon="13.3335867"><ele>541.0</ele><time>2026-04-09T12:32:57.378Z</time></trkpt><trkpt lat="43.03685" lon="13.3334317"><ele>542.5</ele><time>2026-04-09T12:32:58.373Z</time></trkpt><trkpt lat="43.036745" lon="13.3332783"><ele>544.0</ele><time>2026-04-09T12:32:59.374Z</time></trkpt><trkpt lat="43.0366467" lon="13.3331333"><ele>547.0</ele><time>2026-04-09T12:33:00.378Z</time></trkpt><trkpt lat="43.0365617" lon="13.3329967"><ele>550.0</ele><time>2026-04-09T12:33:01.378Z</time></trkpt><trkpt lat="43.03648" lon="13.33287"><ele>553.0</ele><time>2026-04-09T12:33:02.374Z</time></trkpt><trkpt lat="43.0364017" lon="13.3327417"><ele>556.0</ele><time>2026-04-09T12:33:03.375Z</time></trkpt><trkpt lat="43.036335" lon="13.332605"><ele>556.0</ele><time>2026-04-09T12:33:04.374Z</time></trkpt><trkpt lat="43.0362717" lon="13.332465"><ele>556.0</ele><time>2026-04-09T12:33:05.374Z</time></trkpt><trkpt lat="43.03621" lon="13.3323233"><ele>556.0</ele><time>2026-04-09T12:33:06.375Z</time></trkpt><trkpt lat="43.0361483" lon="13.3321883"><ele>556.0</ele><time>2026-04-09T12:33:07.373Z</time></trkpt><trkpt lat="43.0360833" lon="13.3320617"><ele>556.8</ele><time>2026-04-09T12:33:08.377Z</time></trkpt><trkpt lat="43.0360217" lon="13.3319433"><ele>557.6</ele><time>2026-04-09T12:33:09.378Z</time></trkpt><trkpt lat="43.03597" lon="13.331825"><ele>558.4</ele><time>2026-04-09T12:33:10.378Z</time></trkpt><trkpt lat="43.0359383" lon="13.3317067"><ele>559.2</ele><time>2026-04-09T12:33:11.377Z</time></trkpt><trkpt lat="43.0359217" lon="13.3315783"><ele>560.0</ele><time>2026-04-09T12:33:12.375Z</time></trkpt><trkpt lat="43.03593" lon="13.331455"><ele>561.6666666666666</ele><time>2026-04-09T12:33:13.375Z</time></trkpt><trkpt lat="43.0359483" lon="13.33133"><ele>563.3333333333333</ele><time>2026-04-09T12:33:14.376Z</time></trkpt><trkpt lat="43.03597" lon="13.3312217"><ele>565.0</ele><time>2026-04-09T12:33:15.374Z</time></trkpt><trkpt lat="43.03599" lon="13.3311317"><ele>566.6666666666666</ele><time>2026-04-09T12:33:16.373Z</time></trkpt><trkpt lat="43.0360283" lon="13.3309933"><ele>568.3333333333334</ele><time>2026-04-09T12:33:18.375Z</time></trkpt><trkpt lat="43.03607" lon="13.330885"><ele>570.0</ele><time>2026-04-09T12:33:20.376Z</time></trkpt><trkpt lat="43.0361117" lon="13.3308"><ele>570.0</ele><time>2026-04-09T12:33:22.377Z</time></trkpt><trkpt lat="43.0361433" lon="13.3307117"><ele>570.0</ele><time>2026-04-09T12:33:24.376Z</time></trkpt><trkpt lat="43.03618" lon="13.3306133"><ele>570.0</ele><time>2026-04-09T12:33:26.377Z</time></trkpt><trkpt lat="43.0362367" lon="13.330475"><ele>570.0</ele><time>2026-04-09T12:33:28.376Z</time></trkpt><trkpt lat="43.03629" lon="13.3303683"><ele>570.0</ele><time>2026-04-09T12:33:29.376Z</time></trkpt><trkpt lat="43.0363483" lon="13.33025"><ele>572.25</ele><time>2026-04-09T12:33:30.375Z</time></trkpt><trkpt lat="43.0364133" lon="13.3301233"><ele>574.5</ele><time>2026-04-09T12:33:31.376Z</time></trkpt><trkpt lat="43.0364717" lon="13.3299883"><ele>576.75</ele><time>2026-04-09T12:33:32.376Z</time></trkpt><trkpt lat="43.0365267" lon="13.329845"><ele>579.0</ele><time>2026-04-09T12:33:33.376Z</time></trkpt><trkpt lat="43.0365767" lon="13.329715"><ele>579.8571428571428</ele><time>2026-04-09T12:33:34.376Z</time></trkpt><trkpt lat="43.0366283" lon="13.3296067"><ele>580.7142857142857</ele><time>2026-04-09T12:33:35.378Z</time></trkpt><trkpt lat="43.0366783" lon="13.32952"><ele>581.5714285714286</ele><time>2026-04-09T12:33:36.378Z</time></trkpt><trkpt lat="43.036725" lon="13.32945"><ele>582.4285714285713</ele><time>2026-04-09T12:33:37.378Z</time></trkpt><trkpt lat="43.0367717" lon="13.32939"><ele>583.2857142857142</ele><time>2026-04-09T12:33:38.376Z</time></trkpt><trkpt lat="43.0368233" lon="13.3293317"><ele>584.1428571428571</ele><time>2026-04-09T12:33:39.376Z</time></trkpt><trkpt lat="43.0368783" lon="13.32928"><ele>585.0</ele><time>2026-04-09T12:33:40.374Z</time></trkpt><trkpt lat="43.0369467" lon="13.32922"><ele>581.6</ele><time>2026-04-09T12:33:41.374Z</time></trkpt><trkpt lat="43.03703" lon="13.329165"><ele>578.2</ele><time>2026-04-09T12:33:42.376Z</time></trkpt><trkpt lat="43.0371217" lon="13.3291083"><ele>574.8</ele><time>2026-04-09T12:33:43.378Z</time></trkpt><trkpt lat="43.0372217" lon="13.3290633"><ele>571.4</ele><time>2026-04-09T12:33:44.377Z</time></trkpt><trkpt lat="43.0373183" lon="13.3290217"><ele>568.0</ele><time>2026-04-09T12:33:45.378Z</time></trkpt><trkpt lat="43.0374167" lon="13.3289917"><ele>565.0</ele><time>2026-04-09T12:33:46.376Z</time></trkpt><trkpt lat="43.037515" lon="13.328965"><ele>562.0</ele><time>2026-04-09T12:33:47.378Z</time></trkpt><trkpt lat="43.037615" lon="13.3289333"><ele>559.0</ele><time>2026-04-09T12:33:48.374Z</time></trkpt><trkpt lat="43.03771" lon="13.3288967"><ele>556.0</ele><time>2026-04-09T12:33:49.378Z</time></trkpt><trkpt lat="43.0378033" lon="13.328845"><ele>553.0</ele><time>2026-04-09T12:33:50.374Z</time></trkpt><trkpt lat="43.0378867" lon="13.328775"><ele>553.0</ele><time>2026-04-09T12:33:51.379Z</time></trkpt><trkpt lat="43.0379567" lon="13.3286917"><ele>553.0</ele><time>2026-04-09T12:33:52.378Z</time></trkpt><trkpt lat="43.0380083" lon="13.3285917"><ele>553.0</ele><time>2026-04-09T12:33:53.377Z</time></trkpt><trkpt lat="43.0380383" lon="13.3284767"><ele>553.0</ele><time>2026-04-09T12:33:54.379Z</time></trkpt><trkpt lat="43.0380517" lon="13.328355"><ele>553.0</ele><time>2026-04-09T12:33:55.379Z</time></trkpt><trkpt lat="43.03805" lon="13.32823"><ele>553.0</ele><time>2026-04-09T12:33:56.376Z</time></trkpt><trkpt lat="43.0380383" lon="13.328115"><ele>553.0</ele><time>2026-04-09T12:33:57.379Z</time></trkpt><trkpt lat="43.0380117" lon="13.3279983"><ele>553.0</ele><time>2026-04-09T12:33:58.375Z</time></trkpt><trkpt lat="43.0379717" lon="13.3278833"><ele>553.0</ele><time>2026-04-09T12:33:59.375Z</time></trkpt><trkpt lat="43.0379217" lon="13.32778"><ele>553.0</ele><time>2026-04-09T12:34:00.375Z</time></trkpt><trkpt lat="43.037865" lon="13.3276833"><ele>553.0</ele><time>2026-04-09T12:34:01.374Z</time></trkpt><trkpt lat="43.0377967" lon="13.32759"><ele>551.0</ele><time>2026-04-09T12:34:02.378Z</time></trkpt><trkpt lat="43.0377183" lon="13.3274983"><ele>549.0</ele><time>2026-04-09T12:34:03.377Z</time></trkpt><trkpt lat="43.0376317" lon="13.327405"><ele>547.0</ele><time>2026-04-09T12:34:04.378Z</time></trkpt><trkpt lat="43.03754" lon="13.3273133"><ele>545.0</ele><time>2026-04-09T12:34:05.468Z</time></trkpt><trkpt lat="43.03744" lon="13.3272217"><ele>543.0</ele><time>2026-04-09T12:34:06.374Z</time></trkpt><trkpt lat="43.03734" lon="13.3271333"><ele>542.25</ele><time>2026-04-09T12:34:07.378Z</time></trkpt><trkpt lat="43.0372367" lon="13.3270483"><ele>541.5</ele><time>2026-04-09T12:34:08.378Z</time></trkpt><trkpt lat="43.0371333" lon="13.3269667"><ele>540.75</ele><time>2026-04-09T12:34:09.378Z</time></trkpt><trkpt lat="43.0370283" lon="13.326895"><ele>540.0</ele><time>2026-04-09T12:34:10.376Z</time></trkpt><trkpt lat="43.0369183" lon="13.3268367"><ele>540.0</ele><time>2026-04-09T12:34:11.375Z</time></trkpt><trkpt lat="43.0368067" lon="13.3267833"><ele>540.0</ele><time>2026-04-09T12:34:12.376Z</time></trkpt><trkpt lat="43.03669" lon="13.326725"><ele>540.0</ele><time>2026-04-09T12:34:13.375Z</time></trkpt><trkpt lat="43.0365833" lon="13.3266717"><ele>540.0</ele><time>2026-04-09T12:34:14.376Z</time></trkpt><trkpt lat="43.036485" lon="13.3266133"><ele>543.0</ele><time>2026-04-09T12:34:15.378Z</time></trkpt><trkpt lat="43.0364033" lon="13.3265383"><ele>546.0</ele><time>2026-04-09T12:34:16.378Z</time></trkpt><trkpt lat="43.0363267" lon="13.3264467"><ele>549.0</ele><time>2026-04-09T12:34:17.374Z</time></trkpt><trkpt lat="43.0362733" lon="13.3263383"><ele>552.0</ele><time>2026-04-09T12:34:18.376Z</time></trkpt><trkpt lat="43.036245" lon="13.3262133"><ele>555.0</ele><time>2026-04-09T12:34:19.375Z</time></trkpt><trkpt lat="43.0362483" lon="13.3260783"><ele>555.0</ele><time>2026-04-09T12:34:20.374Z</time></trkpt><trkpt lat="43.0362617" lon="13.3259383"><ele>555.0</ele><time>2026-04-09T12:34:21.374Z</time></trkpt><trkpt lat="43.036275" lon="13.3257967"><ele>555.0</ele><time>2026-04-09T12:34:22.379Z</time></trkpt><trkpt lat="43.0362817" lon="13.3256517"><ele>555.0</ele><time>2026-04-09T12:34:23.376Z</time></trkpt><trkpt lat="43.0362667" lon="13.3255133"><ele>555.0</ele><time>2026-04-09T12:34:24.376Z</time></trkpt><trkpt lat="43.0362317" lon="13.3253783"><ele>552.25</ele><time>2026-04-09T12:34:25.376Z</time></trkpt><trkpt lat="43.03619" lon="13.3252367"><ele>549.5</ele><time>2026-04-09T12:34:26.378Z</time></trkpt><trkpt lat="43.0361333" lon="13.3251033"><ele>546.75</ele><time>2026-04-09T12:34:27.376Z</time></trkpt><trkpt lat="43.036065" lon="13.3249767"><ele>544.0</ele><time>2026-04-09T12:34:28.376Z</time></trkpt><trkpt lat="43.035985" lon="13.32486"><ele>544.0</ele><time>2026-04-09T12:34:29.375Z</time></trkpt><trkpt lat="43.03589" lon="13.3247633"><ele>544.0</ele><time>2026-04-09T12:34:30.376Z</time></trkpt><trkpt lat="43.0357683" lon="13.3246817"><ele>544.0</ele><time>2026-04-09T12:34:31.374Z</time></trkpt><trkpt lat="43.03565" lon="13.3246133"><ele>544.0</ele><time>2026-04-09T12:34:32.377Z</time></trkpt><trkpt lat="43.0355217" lon="13.3245467"><ele>543.5</ele><time>2026-04-09T12:34:33.376Z</time></trkpt><trkpt lat="43.0353883" lon="13.3244767"><ele>543.0</ele><time>2026-04-09T12:34:34.376Z</time></trkpt><trkpt lat="43.0352583" lon="13.3243883"><ele>542.5</ele><time>2026-04-09T12:34:35.376Z</time></trkpt><trkpt lat="43.0351367" lon="13.3242833"><ele>542.0</ele><time>2026-04-09T12:34:36.376Z</time></trkpt><trkpt lat="43.0350283" lon="13.3241883"><ele>545.4</ele><time>2026-04-09T12:34:37.375Z</time></trkpt><trkpt lat="43.0349267" lon="13.3241017"><ele>548.8000000000001</ele><time>2026-04-09T12:34:38.376Z</time></trkpt><trkpt lat="43.034845" lon="13.3240083"><ele>552.2</ele><time>2026-04-09T12:34:39.376Z</time></trkpt><trkpt lat="43.034785" lon="13.323895"><ele>555.6</ele><time>2026-04-09T12:34:40.376Z</time></trkpt><trkpt lat="43.03474" lon="13.3237633"><ele>559.0</ele><time>2026-04-09T12:34:41.375Z</time></trkpt><trkpt lat="43.0347133" lon="13.3236183"><ele>559.0</ele><time>2026-04-09T12:34:42.375Z</time></trkpt><trkpt lat="43.0347033" lon="13.3234517"><ele>559.0</ele><time>2026-04-09T12:34:43.375Z</time></trkpt><trkpt lat="43.0347183" lon="13.32327"><ele>559.0</ele><time>2026-04-09T12:34:44.376Z</time></trkpt><trkpt lat="43.03473" lon="13.3230967"><ele>559.0</ele><time>2026-04-09T12:34:45.375Z</time></trkpt><trkpt lat="43.0347433" lon="13.3229233"><ele>559.0</ele><time>2026-04-09T12:34:46.376Z</time></trkpt><trkpt lat="43.0347733" lon="13.32275"><ele>559.0</ele><time>2026-04-09T12:34:47.375Z</time></trkpt><trkpt lat="43.0348317" lon="13.3225633"><ele>559.0</ele><time>2026-04-09T12:34:48.376Z</time></trkpt><trkpt lat="43.0348883" lon="13.3223767"><ele>559.0</ele><time>2026-04-09T12:34:49.376Z</time></trkpt><trkpt lat="43.0349417" lon="13.3221883"><ele>559.0</ele><time>2026-04-09T12:34:50.375Z</time></trkpt><trkpt lat="43.034965" lon="13.322"><ele>559.0</ele><time>2026-04-09T12:34:51.376Z</time></trkpt><trkpt lat="43.034975" lon="13.321805"><ele>559.0</ele><time>2026-04-09T12:34:52.377Z</time></trkpt><trkpt lat="43.0349717" lon="13.3216217"><ele>559.0</ele><time>2026-04-09T12:34:53.378Z</time></trkpt><trkpt lat="43.0349633" lon="13.32145"><ele>557.5</ele><time>2026-04-09T12:34:54.376Z</time></trkpt><trkpt lat="43.0349667" lon="13.32128"><ele>556.0</ele><time>2026-04-09T12:34:55.377Z</time></trkpt><trkpt lat="43.0349783" lon="13.321115"><ele>554.5</ele><time>2026-04-09T12:34:56.376Z</time></trkpt><trkpt lat="43.034995" lon="13.32096"><ele>553.0</ele><time>2026-04-09T12:34:57.375Z</time></trkpt><trkpt lat="43.0350283" lon="13.3208217"><ele>549.1999999999999</ele><time>2026-04-09T12:34:58.377Z</time></trkpt><trkpt lat="43.0350617" lon="13.3206933"><ele>545.4</ele><time>2026-04-09T12:34:59.376Z</time></trkpt><trkpt lat="43.0351383" lon="13.3205833"><ele>541.5999999999999</ele><time>2026-04-09T12:35:00.375Z</time></trkpt><trkpt lat="43.0352233" lon="13.3204767"><ele>537.8</ele><time>2026-04-09T12:35:01.374Z</time></trkpt><trkpt lat="43.035285" lon="13.3203667"><ele>534.0</ele><time>2026-04-09T12:35:02.375Z</time></trkpt><trkpt lat="43.0353233" lon="13.3202417"><ele>532.6</ele><time>2026-04-09T12:35:03.373Z</time></trkpt><trkpt lat="43.0353333" lon="13.3201133"><ele>531.2</ele><time>2026-04-09T12:35:04.376Z</time></trkpt><trkpt lat="43.0353217" lon="13.319995"><ele>529.8000000000001</ele><time>2026-04-09T12:35:05.376Z</time></trkpt><trkpt lat="43.035285" lon="13.319875"><ele>528.4</ele><time>2026-04-09T12:35:06.375Z</time></trkpt><trkpt lat="43.0352267" lon="13.3197567"><ele>527.0</ele><time>2026-04-09T12:35:07.377Z</time></trkpt><trkpt lat="43.0351517" lon="13.31965"><ele>524.5</ele><time>2026-04-09T12:35:08.378Z</time></trkpt><trkpt lat="43.0350633" lon="13.3195433"><ele>522.0</ele><time>2026-04-09T12:35:09.374Z</time></trkpt><trkpt lat="43.034975" lon="13.3194333"><ele>519.5</ele><time>2026-04-09T12:35:10.374Z</time></trkpt><trkpt lat="43.034895" lon="13.319315"><ele>517.0</ele><time>2026-04-09T12:35:11.374Z</time></trkpt><trkpt lat="43.0348167" lon="13.3191917"><ele>517.0</ele><time>2026-04-09T12:35:12.374Z</time></trkpt><trkpt lat="43.0347467" lon="13.3190733"><ele>517.0</ele><time>2026-04-09T12:35:13.373Z</time></trkpt><trkpt lat="43.034685" lon="13.318955"><ele>517.0</ele><time>2026-04-09T12:35:14.374Z</time></trkpt><trkpt lat="43.0346233" lon="13.31884"><ele>517.0</ele><time>2026-04-09T12:35:15.374Z</time></trkpt><trkpt lat="43.0345683" lon="13.3187333"><ele>517.0</ele><time>2026-04-09T12:35:16.376Z</time></trkpt><trkpt lat="43.0345083" lon="13.3186483"><ele>514.0</ele><time>2026-04-09T12:35:17.374Z</time></trkpt><trkpt lat="43.034435" lon="13.3185817"><ele>511.00000000000006</ele><time>2026-04-09T12:35:18.374Z</time></trkpt><trkpt lat="43.0343483" lon="13.318525"><ele>508.00000000000006</ele><time>2026-04-09T12:35:19.374Z</time></trkpt><trkpt lat="43.0342567" lon="13.318475"><ele>505.0</ele><time>2026-04-09T12:35:20.375Z</time></trkpt><trkpt lat="43.0341633" lon="13.3184283"><ele>502.0</ele><time>2026-04-09T12:35:21.374Z</time></trkpt><trkpt lat="43.0340683" lon="13.3183817"><ele>500.6666666666667</ele><time>2026-04-09T12:35:22.374Z</time></trkpt><trkpt lat="43.0339833" lon="13.318335"><ele>499.33333333333337</ele><time>2026-04-09T12:35:23.375Z</time></trkpt><trkpt lat="43.0339017" lon="13.3182883"><ele>498.0</ele><time>2026-04-09T12:35:24.374Z</time></trkpt><trkpt lat="43.0338233" lon="13.318245"><ele>496.66666666666663</ele><time>2026-04-09T12:35:25.374Z</time></trkpt><trkpt lat="43.0337517" lon="13.31821"><ele>495.3333333333333</ele><time>2026-04-09T12:35:26.375Z</time></trkpt><trkpt lat="43.0336833" lon="13.3181917"><ele>494.0</ele><time>2026-04-09T12:35:27.374Z</time></trkpt><trkpt lat="43.0336217" lon="13.31821"><ele>493.99999999999994</ele><time>2026-04-09T12:35:28.375Z</time></trkpt><trkpt lat="43.0335533" lon="13.3182433"><ele>494.0</ele><time>2026-04-09T12:35:29.373Z</time></trkpt><trkpt lat="43.0334867" lon="13.318255"><ele>494.0</ele><time>2026-04-09T12:35:30.374Z</time></trkpt><trkpt lat="43.0334117" lon="13.3182483"><ele>494.0</ele><time>2026-04-09T12:35:31.374Z</time></trkpt><trkpt lat="43.0333367" lon="13.31822"><ele>493.99999999999994</ele><time>2026-04-09T12:35:32.375Z</time></trkpt><trkpt lat="43.03322" lon="13.3181667"><ele>494.0</ele><time>2026-04-09T12:35:34.375Z</time></trkpt><trkpt lat="43.0331267" lon="13.3181717"><ele>492.66666666666663</ele><time>2026-04-09T12:35:36.375Z</time></trkpt><trkpt lat="43.033065" lon="13.3181917"><ele>491.3333333333333</ele><time>2026-04-09T12:35:37.375Z</time></trkpt><trkpt lat="43.0329933" lon="13.318255"><ele>490.0</ele><time>2026-04-09T12:35:38.375Z</time></trkpt><trkpt lat="43.03292" lon="13.3183583"><ele>488.66666666666663</ele><time>2026-04-09T12:35:39.375Z</time></trkpt><trkpt lat="43.0328633" lon="13.3184217"><ele>487.3333333333333</ele><time>2026-04-09T12:35:40.374Z</time></trkpt><trkpt lat="43.0327967" lon="13.3184733"><ele>486.0</ele><time>2026-04-09T12:35:41.374Z</time></trkpt><trkpt lat="43.0327333" lon="13.31851"><ele>486.0</ele><time>2026-04-09T12:35:42.373Z</time></trkpt><trkpt lat="43.03267" lon="13.3185317"><ele>486.0</ele><time>2026-04-09T12:35:43.375Z</time></trkpt><trkpt lat="43.0326067" lon="13.318475"><ele>486.0</ele><time>2026-04-09T12:35:45.374Z</time></trkpt><trkpt lat="43.0326017" lon="13.3183683"><ele>486.0</ele><time>2026-04-09T12:35:46.374Z</time></trkpt><trkpt lat="43.0326083" lon="13.3182717"><ele>486.0</ele><time>2026-04-09T12:35:47.375Z</time></trkpt><trkpt lat="43.03263" lon="13.3181367"><ele>486.0</ele><time>2026-04-09T12:35:48.374Z</time></trkpt><trkpt lat="43.0327183" lon="13.3178983"><ele>483.5</ele><time>2026-04-09T12:35:49.374Z</time></trkpt><trkpt lat="43.0327967" lon="13.3177117"><ele>481.0</ele><time>2026-04-09T12:35:50.375Z</time></trkpt><trkpt lat="43.0328483" lon="13.3175483"><ele>478.5</ele><time>2026-04-09T12:35:51.373Z</time></trkpt><trkpt lat="43.0328783" lon="13.3173983"><ele>476.0</ele><time>2026-04-09T12:35:52.376Z</time></trkpt><trkpt lat="43.0328933" lon="13.3172483"><ele>474.6</ele><time>2026-04-09T12:35:53.378Z</time></trkpt><trkpt lat="43.0329017" lon="13.3171067"><ele>473.20000000000005</ele><time>2026-04-09T12:35:54.377Z</time></trkpt><trkpt lat="43.0329083" lon="13.31697"><ele>471.79999999999995</ele><time>2026-04-09T12:35:55.373Z</time></trkpt><trkpt lat="43.0329217" lon="13.3168283"><ele>470.4</ele><time>2026-04-09T12:35:56.375Z</time></trkpt><trkpt lat="43.032935" lon="13.3166783"><ele>469.0</ele><time>2026-04-09T12:35:57.374Z</time></trkpt><trkpt lat="43.032935" lon="13.316525"><ele>467.75</ele><time>2026-04-09T12:35:58.375Z</time></trkpt><trkpt lat="43.0329233" lon="13.31635"><ele>466.5</ele><time>2026-04-09T12:35:59.377Z</time></trkpt><trkpt lat="43.0329083" lon="13.316175"><ele>465.25</ele><time>2026-04-09T12:36:00.375Z</time></trkpt><trkpt lat="43.0328833" lon="13.3159883"><ele>464.0</ele><time>2026-04-09T12:36:01.375Z</time></trkpt><trkpt lat="43.0328617" lon="13.3158117"><ele>464.0</ele><time>2026-04-09T12:36:02.375Z</time></trkpt><trkpt lat="43.0328433" lon="13.3156367"><ele>464.0</ele><time>2026-04-09T12:36:03.376Z</time></trkpt><trkpt lat="43.0328267" lon="13.3154767"><ele>464.0</ele><time>2026-04-09T12:36:04.375Z</time></trkpt><trkpt lat="43.032815" lon="13.315335"><ele>464.0</ele><time>2026-04-09T12:36:05.374Z</time></trkpt><trkpt lat="43.0328033" lon="13.3152183"><ele>464.0</ele><time>2026-04-09T12:36:06.374Z</time></trkpt><trkpt lat="43.0327883" lon="13.3151217"><ele>463.99999999999994</ele><time>2026-04-09T12:36:07.375Z</time></trkpt><trkpt lat="43.0327583" lon="13.3150333"><ele>464.0</ele><time>2026-04-09T12:36:08.374Z</time></trkpt><trkpt lat="43.03272" lon="13.3149567"><ele>464.0</ele><time>2026-04-09T12:36:09.373Z</time></trkpt><trkpt lat="43.0326667" lon="13.3148933"><ele>464.0</ele><time>2026-04-09T12:36:10.377Z</time></trkpt><trkpt lat="43.0325933" lon="13.3148333"><ele>463.99999999999994</ele><time>2026-04-09T12:36:11.376Z</time></trkpt><trkpt lat="43.0325133" lon="13.3147817"><ele>464.0</ele><time>2026-04-09T12:36:12.374Z</time></trkpt><trkpt lat="43.03243" lon="13.3147267"><ele>463.2</ele><time>2026-04-09T12:36:13.374Z</time></trkpt><trkpt lat="43.03235" lon="13.3146533"><ele>462.4</ele><time>2026-04-09T12:36:14.376Z</time></trkpt><trkpt lat="43.0322767" lon="13.3145667"><ele>461.6</ele><time>2026-04-09T12:36:15.374Z</time></trkpt><trkpt lat="43.0322117" lon="13.3144667"><ele>460.8</ele><time>2026-04-09T12:36:16.377Z</time></trkpt><trkpt lat="43.032145" lon="13.3143583"><ele>460.0</ele><time>2026-04-09T12:36:17.374Z</time></trkpt><trkpt lat="43.0320767" lon="13.3142383"><ele>460.0</ele><time>2026-04-09T12:36:18.374Z</time></trkpt><trkpt lat="43.0319933" lon="13.3141183"><ele>460.0</ele><time>2026-04-09T12:36:19.378Z</time></trkpt><trkpt lat="43.0319117" lon="13.314"><ele>460.0</ele><time>2026-04-09T12:36:20.377Z</time></trkpt><trkpt lat="43.0318233" lon="13.3138833"><ele>460.0</ele><time>2026-04-09T12:36:21.376Z</time></trkpt><trkpt lat="43.0317317" lon="13.3137667"><ele>460.4</ele><time>2026-04-09T12:36:22.378Z</time></trkpt><trkpt lat="43.0316433" lon="13.31365"><ele>460.8</ele><time>2026-04-09T12:36:23.378Z</time></trkpt><trkpt lat="43.03157" lon="13.31353"><ele>461.20000000000005</ele><time>2026-04-09T12:36:24.378Z</time></trkpt><trkpt lat="43.03152" lon="13.3134067"><ele>461.6</ele><time>2026-04-09T12:36:25.378Z</time></trkpt><trkpt lat="43.0314967" lon="13.3132767"><ele>462.0</ele><time>2026-04-09T12:36:26.378Z</time></trkpt><trkpt lat="43.031495" lon="13.3131483"><ele>463.8</ele><time>2026-04-09T12:36:27.377Z</time></trkpt><trkpt lat="43.0315" lon="13.3130333"><ele>465.6</ele><time>2026-04-09T12:36:28.374Z</time></trkpt><trkpt lat="43.0315033" lon="13.312935"><ele>467.40000000000003</ele><time>2026-04-09T12:36:29.374Z</time></trkpt><trkpt lat="43.0314983" lon="13.3127567"><ele>469.20000000000005</ele><time>2026-04-09T12:36:31.375Z</time></trkpt><trkpt lat="43.0315" lon="13.31265"><ele>471.0</ele><time>2026-04-09T12:36:32.375Z</time></trkpt><trkpt lat="43.0315" lon="13.3125283"><ele>471.0</ele><time>2026-04-09T12:36:33.373Z</time></trkpt><trkpt lat="43.031495" lon="13.3123917"><ele>471.0</ele><time>2026-04-09T12:36:34.374Z</time></trkpt><trkpt lat="43.0314867" lon="13.312255"><ele>471.0</ele><time>2026-04-09T12:36:35.375Z</time></trkpt><trkpt lat="43.0314783" lon="13.3121117"><ele>471.0</ele><time>2026-04-09T12:36:36.374Z</time></trkpt><trkpt lat="43.0314683" lon="13.3119583"><ele>471.0</ele><time>2026-04-09T12:36:37.374Z</time></trkpt><trkpt lat="43.0314583" lon="13.3117983"><ele>472.5</ele><time>2026-04-09T12:36:38.375Z</time></trkpt><trkpt lat="43.0314467" lon="13.31163"><ele>474.0</ele><time>2026-04-09T12:36:39.373Z</time></trkpt><trkpt lat="43.0314333" lon="13.311455"><ele>475.5</ele><time>2026-04-09T12:36:40.373Z</time></trkpt><trkpt lat="43.03142" lon="13.3112783"><ele>477.0</ele><time>2026-04-09T12:36:41.377Z</time></trkpt><trkpt lat="43.0314117" lon="13.3111017"><ele>477.0</ele><time>2026-04-09T12:36:42.378Z</time></trkpt><trkpt lat="43.0314" lon="13.3109217"><ele>477.0</ele><time>2026-04-09T12:36:43.378Z</time></trkpt><trkpt lat="43.0313883" lon="13.31074"><ele>477.0</ele><time>2026-04-09T12:36:44.377Z</time></trkpt><trkpt lat="43.0313717" lon="13.3105533"><ele>477.0</ele><time>2026-04-09T12:36:45.378Z</time></trkpt><trkpt lat="43.0313567" lon="13.3103733"><ele>473.75</ele><time>2026-04-09T12:36:46.377Z</time></trkpt><trkpt lat="43.0313433" lon="13.3102"><ele>470.5</ele><time>2026-04-09T12:36:47.377Z</time></trkpt><trkpt lat="43.0313317" lon="13.3100367"><ele>467.25</ele><time>2026-04-09T12:36:48.373Z</time></trkpt><trkpt lat="43.0313167" lon="13.309875"><ele>464.0</ele><time>2026-04-09T12:36:49.377Z</time></trkpt><trkpt lat="43.0313067" lon="13.3097183"><ele>463.0</ele><time>2026-04-09T12:36:50.378Z</time></trkpt><trkpt lat="43.0312983" lon="13.3095667"><ele>462.0</ele><time>2026-04-09T12:36:51.378Z</time></trkpt><trkpt lat="43.0312917" lon="13.309405"><ele>461.0</ele><time>2026-04-09T12:36:52.377Z</time></trkpt><trkpt lat="43.031285" lon="13.3092317"><ele>460.0</ele><time>2026-04-09T12:36:53.377Z</time></trkpt><trkpt lat="43.0312733" lon="13.30905"><ele>460.5</ele><time>2026-04-09T12:36:54.378Z</time></trkpt><trkpt lat="43.03126" lon="13.3088583"><ele>461.0</ele><time>2026-04-09T12:36:55.377Z</time></trkpt><trkpt lat="43.0312467" lon="13.3086633"><ele>461.5</ele><time>2026-04-09T12:36:56.378Z</time></trkpt><trkpt lat="43.0312317" lon="13.308465"><ele>462.0</ele><time>2026-04-09T12:36:57.378Z</time></trkpt><trkpt lat="43.0312183" lon="13.3082683"><ele>462.0</ele><time>2026-04-09T12:36:58.376Z</time></trkpt><trkpt lat="43.0312033" lon="13.3080733"><ele>462.0</ele><time>2026-04-09T12:36:59.375Z</time></trkpt><trkpt lat="43.03119" lon="13.3078867"><ele>462.0</ele><time>2026-04-09T12:37:00.374Z</time></trkpt><trkpt lat="43.03117" lon="13.3077083"><ele>462.0</ele><time>2026-04-09T12:37:01.374Z</time></trkpt><trkpt lat="43.0311583" lon="13.30754"><ele>462.0</ele><time>2026-04-09T12:37:02.373Z</time></trkpt><trkpt lat="43.0311533" lon="13.30738"><ele>462.0</ele><time>2026-04-09T12:37:03.373Z</time></trkpt><trkpt lat="43.0311467" lon="13.3072317"><ele>462.0</ele><time>2026-04-09T12:37:04.374Z</time></trkpt><trkpt lat="43.031135" lon="13.3070783"><ele>462.0</ele><time>2026-04-09T12:37:05.374Z</time></trkpt><trkpt lat="43.03112" lon="13.3069183"><ele>462.75</ele><time>2026-04-09T12:37:06.375Z</time></trkpt><trkpt lat="43.0311067" lon="13.3067583"><ele>463.5</ele><time>2026-04-09T12:37:07.378Z</time></trkpt><trkpt lat="43.03109" lon="13.3065933"><ele>464.25</ele><time>2026-04-09T12:37:08.377Z</time></trkpt><trkpt lat="43.0310717" lon="13.3064133"><ele>465.0</ele><time>2026-04-09T12:37:09.374Z</time></trkpt><trkpt lat="43.0310583" lon="13.3062283"><ele>465.25</ele><time>2026-04-09T12:37:10.378Z</time></trkpt><trkpt lat="43.0310483" lon="13.3060367"><ele>465.5</ele><time>2026-04-09T12:37:11.378Z</time></trkpt><trkpt lat="43.0310333" lon="13.3058417"><ele>465.75</ele><time>2026-04-09T12:37:12.378Z</time></trkpt><trkpt lat="43.0310167" lon="13.305645"><ele>466.0</ele><time>2026-04-09T12:37:13.377Z</time></trkpt><trkpt lat="43.031005" lon="13.3054417"><ele>466.0</ele><time>2026-04-09T12:37:14.376Z</time></trkpt><trkpt lat="43.0309933" lon="13.3052367"><ele>466.0</ele><time>2026-04-09T12:37:15.375Z</time></trkpt><trkpt lat="43.0309817" lon="13.3050283"><ele>466.0</ele><time>2026-04-09T12:37:16.375Z</time></trkpt><trkpt lat="43.0309683" lon="13.304825"><ele>465.75</ele><time>2026-04-09T12:37:17.374Z</time></trkpt><trkpt lat="43.0309583" lon="13.30462"><ele>465.5</ele><time>2026-04-09T12:37:18.375Z</time></trkpt><trkpt lat="43.0309467" lon="13.304415"><ele>465.25</ele><time>2026-04-09T12:37:19.375Z</time></trkpt><trkpt lat="43.0309333" lon="13.3042167"><ele>465.0</ele><time>2026-04-09T12:37:20.373Z</time></trkpt><trkpt lat="43.0309217" lon="13.3040283"><ele>465.25</ele><time>2026-04-09T12:37:21.378Z</time></trkpt><trkpt lat="43.03091" lon="13.30385"><ele>465.5</ele><time>2026-04-09T12:37:22.378Z</time></trkpt><trkpt lat="43.0309" lon="13.3036817"><ele>465.75</ele><time>2026-04-09T12:37:23.377Z</time></trkpt><trkpt lat="43.030895" lon="13.30353"><ele>466.0</ele><time>2026-04-09T12:37:24.378Z</time></trkpt><trkpt lat="43.030885" lon="13.3033833"><ele>466.00000000000006</ele><time>2026-04-09T12:37:25.378Z</time></trkpt><trkpt lat="43.0308733" lon="13.3032467"><ele>466.0</ele><time>2026-04-09T12:37:26.378Z</time></trkpt><trkpt lat="43.0308633" lon="13.303125"><ele>466.0</ele><time>2026-04-09T12:37:27.378Z</time></trkpt><trkpt lat="43.03085" lon="13.303035"><ele>466.0</ele><time>2026-04-09T12:37:28.373Z</time></trkpt><trkpt lat="43.03081" lon="13.3029267"><ele>466.00000000000006</ele><time>2026-04-09T12:37:30.373Z</time></trkpt><trkpt lat="43.0307183" lon="13.3029317"><ele>466.0</ele><time>2026-04-09T12:37:32.375Z</time></trkpt><trkpt lat="43.030645" lon="13.3029633"><ele>465.6666666666667</ele><time>2026-04-09T12:37:33.377Z</time></trkpt><trkpt lat="43.0305633" lon="13.3029783"><ele>465.33333333333337</ele><time>2026-04-09T12:37:34.374Z</time></trkpt><trkpt lat="43.0304783" lon="13.3029817"><ele>465.0</ele><time>2026-04-09T12:37:35.373Z</time></trkpt><trkpt lat="43.0303917" lon="13.30298"><ele>464.66666666666663</ele><time>2026-04-09T12:37:36.374Z</time></trkpt><trkpt lat="43.03031" lon="13.3029783"><ele>464.3333333333333</ele><time>2026-04-09T12:37:37.374Z</time></trkpt><trkpt lat="43.030225" lon="13.3029717"><ele>464.0</ele><time>2026-04-09T12:37:38.375Z</time></trkpt><trkpt lat="43.0301417" lon="13.3029617"><ele>463.99999999999994</ele><time>2026-04-09T12:37:39.378Z</time></trkpt><trkpt lat="43.0300583" lon="13.3029533"><ele>464.0</ele><time>2026-04-09T12:37:40.377Z</time></trkpt><trkpt lat="43.029975" lon="13.302945"><ele>464.0</ele><time>2026-04-09T12:37:41.377Z</time></trkpt><trkpt lat="43.029895" lon="13.3029383"><ele>464.0</ele><time>2026-04-09T12:37:42.378Z</time></trkpt><trkpt lat="43.0298183" lon="13.302935"><ele>463.99999999999994</ele><time>2026-04-09T12:37:43.377Z</time></trkpt><trkpt lat="43.029745" lon="13.3029383"><ele>464.0</ele><time>2026-04-09T12:37:44.374Z</time></trkpt><trkpt lat="43.0296767" lon="13.302955"><ele>465.0</ele><time>2026-04-09T12:37:45.373Z</time></trkpt><trkpt lat="43.0296033" lon="13.3029817"><ele>466.0</ele><time>2026-04-09T12:37:46.378Z</time></trkpt><trkpt lat="43.0295033" lon="13.303035"><ele>467.0</ele><time>2026-04-09T12:37:48.378Z</time></trkpt><trkpt lat="43.0294317" lon="13.303045"><ele>468.0</ele><time>2026-04-09T12:37:50.376Z</time></trkpt><trkpt lat="43.029345" lon="13.3029717"><ele>469.0</ele><time>2026-04-09T12:37:53.378Z</time></trkpt><trkpt lat="43.02926" lon="13.3028783"><ele>469.0</ele><time>2026-04-09T12:37:55.374Z</time></trkpt><trkpt lat="43.0291833" lon="13.3027483"><ele>469.0</ele><time>2026-04-09T12:37:57.376Z</time></trkpt><trkpt lat="43.029135" lon="13.3026633"><ele>469.0</ele><time>2026-04-09T12:37:58.375Z</time></trkpt><trkpt lat="43.02909" lon="13.30255"><ele>469.0</ele><time>2026-04-09T12:37:59.377Z</time></trkpt><trkpt lat="43.02906" lon="13.3024117"><ele>469.0</ele><time>2026-04-09T12:38:00.373Z</time></trkpt><trkpt lat="43.02903" lon="13.3022817"><ele>470.1666666666667</ele><time>2026-04-09T12:38:01.374Z</time></trkpt><trkpt lat="43.0290067" lon="13.3021583"><ele>471.33333333333337</ele><time>2026-04-09T12:38:02.378Z</time></trkpt><trkpt lat="43.02898" lon="13.3020517"><ele>472.5</ele><time>2026-04-09T12:38:03.374Z</time></trkpt><trkpt lat="43.0289583" lon="13.3019583"><ele>473.66666666666663</ele><time>2026-04-09T12:38:04.374Z</time></trkpt><trkpt lat="43.0289367" lon="13.301835"><ele>474.8333333333333</ele><time>2026-04-09T12:38:06.374Z</time></trkpt><trkpt lat="43.0289583" lon="13.3017183"><ele>476.0</ele><time>2026-04-09T12:38:08.374Z</time></trkpt><trkpt lat="43.02896" lon="13.3015583"><ele>475.66666666666663</ele><time>2026-04-09T12:38:10.378Z</time></trkpt><trkpt lat="43.0289367" lon="13.301415"><ele>475.3333333333333</ele><time>2026-04-09T12:38:12.378Z</time></trkpt><trkpt lat="43.0288667" lon="13.3013583"><ele>475.0</ele><time>2026-04-09T12:38:14.378Z</time></trkpt><trkpt lat="43.02876" lon="13.30139"><ele>474.66666666666663</ele><time>2026-04-09T12:38:16.378Z</time></trkpt><trkpt lat="43.028695" lon="13.301395"><ele>474.3333333333333</ele><time>2026-04-09T12:38:17.378Z</time></trkpt><trkpt lat="43.02863" lon="13.301375"><ele>474.0</ele><time>2026-04-09T12:38:18.377Z</time></trkpt><trkpt lat="43.028555" lon="13.3012783"><ele>474.0</ele><time>2026-04-09T12:38:20.378Z</time></trkpt><trkpt lat="43.028505" lon="13.3011417"><ele>474.0</ele><time>2026-04-09T12:38:22.374Z</time></trkpt><trkpt lat="43.0284533" lon="13.3010133"><ele>474.0</ele><time>2026-04-09T12:38:24.374Z</time></trkpt><trkpt lat="43.0284183" lon="13.3009333"><ele>474.0</ele><time>2026-04-09T12:38:26.378Z</time></trkpt><trkpt lat="43.0283767" lon="13.3008683"><ele>474.0</ele><time>2026-04-09T12:38:29.375Z</time></trkpt><trkpt lat="43.0282667" lon="13.3008383"><ele>474.1666666666667</ele><time>2026-04-09T12:38:32.376Z</time></trkpt><trkpt lat="43.0282017" lon="13.300825"><ele>474.33333333333337</ele><time>2026-04-09T12:38:33.374Z</time></trkpt><trkpt lat="43.028125" lon="13.3008167"><ele>474.5</ele><time>2026-04-09T12:38:34.378Z</time></trkpt><trkpt lat="43.02805" lon="13.3008133"><ele>474.6666666666667</ele><time>2026-04-09T12:38:35.375Z</time></trkpt><trkpt lat="43.02797" lon="13.3008167"><ele>474.83333333333337</ele><time>2026-04-09T12:38:36.374Z</time></trkpt><trkpt lat="43.027885" lon="13.3008233"><ele>475.0</ele><time>2026-04-09T12:38:37.376Z</time></trkpt><trkpt lat="43.0278033" lon="13.3008317"><ele>475.00000000000006</ele><time>2026-04-09T12:38:38.374Z</time></trkpt><trkpt lat="43.0277233" lon="13.300825"><ele>475.0</ele><time>2026-04-09T12:38:39.375Z</time></trkpt><trkpt lat="43.02765" lon="13.3008067"><ele>475.0</ele><time>2026-04-09T12:38:40.375Z</time></trkpt><trkpt lat="43.0275817" lon="13.3007867"><ele>475.0</ele><time>2026-04-09T12:38:41.373Z</time></trkpt><trkpt lat="43.02752" lon="13.3007517"><ele>475.00000000000006</ele><time>2026-04-09T12:38:42.468Z</time></trkpt><trkpt lat="43.0274583" lon="13.30064"><ele>475.0</ele><time>2026-04-09T12:38:44.375Z</time></trkpt><trkpt lat="43.0274083" lon="13.3005183"><ele>475.8</ele><time>2026-04-09T12:38:46.377Z</time></trkpt><trkpt lat="43.0273383" lon="13.3004183"><ele>476.6</ele><time>2026-04-09T12:38:48.374Z</time></trkpt><trkpt lat="43.02728" lon="13.3002983"><ele>477.4</ele><time>2026-04-09T12:38:50.375Z</time></trkpt><trkpt lat="43.0272367" lon="13.3001983"><ele>478.2</ele><time>2026-04-09T12:38:52.377Z</time></trkpt><trkpt lat="43.0272783" lon="13.3002933"><ele>479.0</ele><time>2026-04-09T12:39:08.374Z</time></trkpt><trkpt lat="43.0273417" lon="13.30041"><ele>479.0</ele><time>2026-04-09T12:39:10.374Z</time></trkpt><trkpt lat="43.0274067" lon="13.30054"><ele>479.0</ele><time>2026-04-09T12:39:12.378Z</time></trkpt><trkpt lat="43.0274267" lon="13.3006517"><ele>479.0</ele><time>2026-04-09T12:39:14.375Z</time></trkpt><trkpt lat="43.0273917" lon="13.3007333"><ele>479.0</ele><time>2026-04-09T12:39:16.375Z</time></trkpt><trkpt lat="43.027315" lon="13.300775"><ele>479.0</ele><time>2026-04-09T12:39:18.374Z</time></trkpt><trkpt lat="43.0271967" lon="13.300785"><ele>478.99999999999994</ele><time>2026-04-09T12:39:20.375Z</time></trkpt><trkpt lat="43.02713" lon="13.3007717"><ele>479.0</ele><time>2026-04-09T12:39:21.373Z</time></trkpt><trkpt lat="43.02706" lon="13.30076"><ele>479.0</ele><time>2026-04-09T12:39:22.375Z</time></trkpt><trkpt lat="43.0269867" lon="13.300745"><ele>479.0</ele><time>2026-04-09T12:39:23.374Z</time></trkpt><trkpt lat="43.0269083" lon="13.300725"><ele>478.99999999999994</ele><time>2026-04-09T12:39:24.375Z</time></trkpt><trkpt lat="43.0268233" lon="13.300705"><ele>479.0</ele><time>2026-04-09T12:39:25.374Z</time></trkpt><trkpt lat="43.0267333" lon="13.3006833"><ele>479.4</ele><time>2026-04-09T12:39:26.376Z</time></trkpt><trkpt lat="43.0266367" lon="13.3006583"><ele>479.79999999999995</ele><time>2026-04-09T12:39:27.374Z</time></trkpt><trkpt lat="43.0265333" lon="13.3006367"><ele>480.20000000000005</ele><time>2026-04-09T12:39:28.374Z</time></trkpt><trkpt lat="43.0264283" lon="13.3006167"><ele>480.6</ele><time>2026-04-09T12:39:29.378Z</time></trkpt><trkpt lat="43.0263267" lon="13.3005983"><ele>481.0</ele><time>2026-04-09T12:39:30.377Z</time></trkpt><trkpt lat="43.0262233" lon="13.3005867"><ele>481.0</ele><time>2026-04-09T12:39:31.378Z</time></trkpt><trkpt lat="43.026115" lon="13.3005867"><ele>481.0</ele><time>2026-04-09T12:39:32.377Z</time></trkpt><trkpt lat="43.0260033" lon="13.300595"><ele>481.0</ele><time>2026-04-09T12:39:33.374Z</time></trkpt><trkpt lat="43.0258867" lon="13.300605"><ele>481.0</ele><time>2026-04-09T12:39:34.375Z</time></trkpt><trkpt lat="43.0257667" lon="13.3006183"><ele>481.75</ele><time>2026-04-09T12:39:35.376Z</time></trkpt><trkpt lat="43.0256417" lon="13.3006333"><ele>482.5</ele><time>2026-04-09T12:39:36.376Z</time></trkpt><trkpt lat="43.0255183" lon="13.300655"><ele>483.25</ele><time>2026-04-09T12:39:37.375Z</time></trkpt><trkpt lat="43.02539" lon="13.300675"><ele>484.0</ele><time>2026-04-09T12:39:38.374Z</time></trkpt><trkpt lat="43.0252617" lon="13.3006917"><ele>484.0</ele><time>2026-04-09T12:39:39.376Z</time></trkpt><trkpt lat="43.0251417" lon="13.3007267"><ele>484.0</ele><time>2026-04-09T12:39:40.377Z</time></trkpt><trkpt lat="43.0250217" lon="13.300765"><ele>484.0</ele><time>2026-04-09T12:39:41.376Z</time></trkpt><trkpt lat="43.02491" lon="13.300815"><ele>484.0</ele><time>2026-04-09T12:39:42.376Z</time></trkpt><trkpt lat="43.0248083" lon="13.300885"><ele>484.4</ele><time>2026-04-09T12:39:43.376Z</time></trkpt><trkpt lat="43.0247133" lon="13.30098"><ele>484.79999999999995</ele><time>2026-04-09T12:39:44.378Z</time></trkpt><trkpt lat="43.0246283" lon="13.3010867"><ele>485.20000000000005</ele><time>2026-04-09T12:39:45.378Z</time></trkpt><trkpt lat="43.0245467" lon="13.3011783"><ele>485.6</ele><time>2026-04-09T12:39:46.377Z</time></trkpt><trkpt lat="43.024465" lon="13.3012367"><ele>486.0</ele><time>2026-04-09T12:39:47.377Z</time></trkpt><trkpt lat="43.024385" lon="13.3012717"><ele>486.0</ele><time>2026-04-09T12:39:48.376Z</time></trkpt><trkpt lat="43.0243133" lon="13.3012733"><ele>486.0</ele><time>2026-04-09T12:39:49.376Z</time></trkpt><trkpt lat="43.0242333" lon="13.3012267"><ele>486.0</ele><time>2026-04-09T12:39:50.375Z</time></trkpt><trkpt lat="43.0241583" lon="13.3011417"><ele>486.0</ele><time>2026-04-09T12:39:51.375Z</time></trkpt><trkpt lat="43.0240867" lon="13.30105"><ele>486.0</ele><time>2026-04-09T12:39:52.374Z</time></trkpt><trkpt lat="43.0240117" lon="13.30096"><ele>486.8</ele><time>2026-04-09T12:39:53.375Z</time></trkpt><trkpt lat="43.0239283" lon="13.3008917"><ele>487.6</ele><time>2026-04-09T12:39:54.374Z</time></trkpt><trkpt lat="43.0238283" lon="13.3008617"><ele>488.4</ele><time>2026-04-09T12:39:55.375Z</time></trkpt><trkpt lat="43.0237233" lon="13.3008667"><ele>489.2</ele><time>2026-04-09T12:39:56.376Z</time></trkpt><trkpt lat="43.0236183" lon="13.3008933"><ele>490.0</ele><time>2026-04-09T12:39:57.373Z</time></trkpt><trkpt lat="43.023515" lon="13.3009233"><ele>490.00000000000006</ele><time>2026-04-09T12:39:58.375Z</time></trkpt><trkpt lat="43.0234217" lon="13.3009383"><ele>490.0</ele><time>2026-04-09T12:39:59.378Z</time></trkpt><trkpt lat="43.0233367" lon="13.3009267"><ele>490.0</ele><time>2026-04-09T12:40:00.377Z</time></trkpt><trkpt lat="43.0232567" lon="13.3008933"><ele>490.0</ele><time>2026-04-09T12:40:01.375Z</time></trkpt><trkpt lat="43.02318" lon="13.3008317"><ele>490.00000000000006</ele><time>2026-04-09T12:40:02.38Z</time></trkpt><trkpt lat="43.0231133" lon="13.3007733"><ele>490.0</ele><time>2026-04-09T12:40:03.378Z</time></trkpt><trkpt lat="43.0230433" lon="13.3007383"><ele>491.0</ele><time>2026-04-09T12:40:04.378Z</time></trkpt><trkpt lat="43.022965" lon="13.300715"><ele>492.0</ele><time>2026-04-09T12:40:05.378Z</time></trkpt><trkpt lat="43.0228733" lon="13.300715"><ele>493.0</ele><time>2026-04-09T12:40:06.374Z</time></trkpt><trkpt lat="43.02276" lon="13.3007383"><ele>494.0</ele><time>2026-04-09T12:40:07.373Z</time></trkpt><trkpt lat="43.0226467" lon="13.3007667"><ele>495.0</ele><time>2026-04-09T12:40:08.375Z</time></trkpt><trkpt lat="43.0225333" lon="13.300805"><ele>496.0</ele><time>2026-04-09T12:40:09.374Z</time></trkpt><trkpt lat="43.02243" lon="13.3008767"><ele>497.0</ele><time>2026-04-09T12:40:10.374Z</time></trkpt><trkpt lat="43.0223367" lon="13.3009717"><ele>498.0</ele><time>2026-04-09T12:40:11.377Z</time></trkpt><trkpt lat="43.02225" lon="13.3010917"><ele>499.0</ele><time>2026-04-09T12:40:12.377Z</time></trkpt><trkpt lat="43.0221633" lon="13.3012183"><ele>499.0</ele><time>2026-04-09T12:40:13.377Z</time></trkpt><trkpt lat="43.0220783" lon="13.30134"><ele>499.0</ele><time>2026-04-09T12:40:14.379Z</time></trkpt><trkpt lat="43.0219883" lon="13.3014567"><ele>499.0</ele><time>2026-04-09T12:40:15.376Z</time></trkpt><trkpt lat="43.0218967" lon="13.3015683"><ele>499.0</ele><time>2026-04-09T12:40:16.377Z</time></trkpt><trkpt lat="43.021805" lon="13.3016617"><ele>498.0</ele><time>2026-04-09T12:40:17.378Z</time></trkpt><trkpt lat="43.0217117" lon="13.30173"><ele>497.0</ele><time>2026-04-09T12:40:18.374Z</time></trkpt><trkpt lat="43.0216217" lon="13.301775"><ele>496.0</ele><time>2026-04-09T12:40:19.373Z</time></trkpt><trkpt lat="43.0215317" lon="13.301795"><ele>495.0</ele><time>2026-04-09T12:40:20.373Z</time></trkpt><trkpt lat="43.021445" lon="13.301805"><ele>494.0</ele><time>2026-04-09T12:40:21.374Z</time></trkpt><trkpt lat="43.0213633" lon="13.301815"><ele>493.99999999999994</ele><time>2026-04-09T12:40:22.374Z</time></trkpt><trkpt lat="43.0212917" lon="13.3018183"><ele>494.0</ele><time>2026-04-09T12:40:23.373Z</time></trkpt><trkpt lat="43.021215" lon="13.3017867"><ele>494.0</ele><time>2026-04-09T12:40:25.375Z</time></trkpt><trkpt lat="43.021255" lon="13.3016717"><ele>494.0</ele><time>2026-04-09T12:40:28.374Z</time></trkpt><trkpt lat="43.021335" lon="13.3015517"><ele>493.99999999999994</ele><time>2026-04-09T12:40:30.373Z</time></trkpt><trkpt lat="43.0213733" lon="13.30147"><ele>494.0</ele><time>2026-04-09T12:40:31.377Z</time></trkpt><trkpt lat="43.0214" lon="13.3013767"><ele>495.66666666666663</ele><time>2026-04-09T12:40:32.376Z</time></trkpt><trkpt lat="43.0214117" lon="13.3012767"><ele>497.3333333333333</ele><time>2026-04-09T12:40:33.377Z</time></trkpt><trkpt lat="43.0214067" lon="13.301175"><ele>499.0</ele><time>2026-04-09T12:40:34.373Z</time></trkpt><trkpt lat="43.0213833" lon="13.3010583"><ele>500.66666666666663</ele><time>2026-04-09T12:40:35.374Z</time></trkpt><trkpt lat="43.021355" lon="13.30094"><ele>502.3333333333333</ele><time>2026-04-09T12:40:36.373Z</time></trkpt><trkpt lat="43.0213217" lon="13.30083"><ele>504.0</ele><time>2026-04-09T12:40:37.374Z</time></trkpt><trkpt lat="43.0212783" lon="13.3007317"><ele>504.0</ele><time>2026-04-09T12:40:38.374Z</time></trkpt><trkpt lat="43.0212267" lon="13.3006467"><ele>504.0</ele><time>2026-04-09T12:40:39.374Z</time></trkpt><trkpt lat="43.021165" lon="13.3005633"><ele>504.0</ele><time>2026-04-09T12:40:40.375Z</time></trkpt><trkpt lat="43.0211133" lon="13.3004767"><ele>504.0</ele><time>2026-04-09T12:40:41.374Z</time></trkpt><trkpt lat="43.021055" lon="13.300375"><ele>504.0</ele><time>2026-04-09T12:40:42.374Z</time></trkpt><trkpt lat="43.0209933" lon="13.3002717"><ele>504.0</ele><time>2026-04-09T12:40:43.376Z</time></trkpt><trkpt lat="43.0209267" lon="13.3001733"><ele>505.2</ele><time>2026-04-09T12:40:44.374Z</time></trkpt><trkpt lat="43.0208633" lon="13.3000783"><ele>506.4</ele><time>2026-04-09T12:40:45.373Z</time></trkpt><trkpt lat="43.0207967" lon="13.299995"><ele>507.6</ele><time>2026-04-09T12:40:46.373Z</time></trkpt><trkpt lat="43.0207217" lon="13.2999283"><ele>508.8</ele><time>2026-04-09T12:40:47.375Z</time></trkpt><trkpt lat="43.0206333" lon="13.299865"><ele>510.0</ele><time>2026-04-09T12:40:48.373Z</time></trkpt><trkpt lat="43.0205433" lon="13.299805"><ele>512.0</ele><time>2026-04-09T12:40:49.373Z</time></trkpt><trkpt lat="43.0204567" lon="13.2997483"><ele>514.0</ele><time>2026-04-09T12:40:50.374Z</time></trkpt><trkpt lat="43.0203717" lon="13.29969"><ele>516.0</ele><time>2026-04-09T12:40:51.373Z</time></trkpt><trkpt lat="43.0202833" lon="13.2996283"><ele>518.0</ele><time>2026-04-09T12:40:52.373Z</time></trkpt><trkpt lat="43.0201967" lon="13.2995767"><ele>520.0</ele><time>2026-04-09T12:40:53.374Z</time></trkpt><trkpt lat="43.02011" lon="13.2995317"><ele>520.0</ele><time>2026-04-09T12:40:54.373Z</time></trkpt><trkpt lat="43.0200217" lon="13.2994817"><ele>520.0</ele><time>2026-04-09T12:40:55.373Z</time></trkpt><trkpt lat="43.0199367" lon="13.29943"><ele>520.0</ele><time>2026-04-09T12:40:56.374Z</time></trkpt><trkpt lat="43.019865" lon="13.2993933"><ele>520.0</ele><time>2026-04-09T12:40:57.373Z</time></trkpt><trkpt lat="43.019785" lon="13.29937"><ele>520.0</ele><time>2026-04-09T12:40:58.375Z</time></trkpt><trkpt lat="43.019705" lon="13.2993583"><ele>520.0</ele><time>2026-04-09T12:40:59.374Z</time></trkpt><trkpt lat="43.01963" lon="13.2993517"><ele>521.1666666666667</ele><time>2026-04-09T12:41:00.374Z</time></trkpt><trkpt lat="43.0195033" lon="13.2993817"><ele>522.3333333333334</ele><time>2026-04-09T12:41:02.373Z</time></trkpt><trkpt lat="43.0194367" lon="13.2994117"><ele>523.5</ele><time>2026-04-09T12:41:03.373Z</time></trkpt><trkpt lat="43.0193633" lon="13.29944"><ele>524.6666666666666</ele><time>2026-04-09T12:41:04.375Z</time></trkpt><trkpt lat="43.019295" lon="13.29946"><ele>525.8333333333333</ele><time>2026-04-09T12:41:05.374Z</time></trkpt><trkpt lat="43.019195" lon="13.299485"><ele>527.0</ele><time>2026-04-09T12:41:07.374Z</time></trkpt><trkpt lat="43.0190983" lon="13.299495"><ele>527.6666666666666</ele><time>2026-04-09T12:41:09.374Z</time></trkpt><trkpt lat="43.019" lon="13.2994483"><ele>528.3333333333333</ele><time>2026-04-09T12:41:11.376Z</time></trkpt><trkpt lat="43.0189483" lon="13.2993967"><ele>529.0</ele><time>2026-04-09T12:41:12.376Z</time></trkpt><trkpt lat="43.0188983" lon="13.2993433"><ele>529.6666666666666</ele><time>2026-04-09T12:41:13.374Z</time></trkpt><trkpt lat="43.0188517" lon="13.2992833"><ele>530.3333333333334</ele><time>2026-04-09T12:41:14.378Z</time></trkpt><trkpt lat="43.0187833" lon="13.2991767"><ele>531.0</ele><time>2026-04-09T12:41:16.377Z</time></trkpt><trkpt lat="43.0187533" lon="13.2990467"><ele>531.0</ele><time>2026-04-09T12:41:23.377Z</time></trkpt><trkpt lat="43.0187383" lon="13.2989233"><ele>531.0</ele><time>2026-04-09T12:41:27.374Z</time></trkpt><trkpt lat="43.01872" lon="13.2988317"><ele>531.0</ele><time>2026-04-09T12:41:29.373Z</time></trkpt><trkpt lat="43.0186583" lon="13.2987317"><ele>531.0</ele><time>2026-04-09T12:41:32.376Z</time></trkpt><trkpt lat="43.018595" lon="13.298675"><ele>531.0</ele><time>2026-04-09T12:41:34.374Z</time></trkpt><trkpt lat="43.0185017" lon="13.2986217"><ele>531.0</ele><time>2026-04-09T12:41:36.374Z</time></trkpt><trkpt lat="43.01844" lon="13.298595"><ele>532.0</ele><time>2026-04-09T12:41:37.374Z</time></trkpt><trkpt lat="43.0183767" lon="13.2985617"><ele>533.0</ele><time>2026-04-09T12:41:38.375Z</time></trkpt><trkpt lat="43.0183183" lon="13.2985233"><ele>534.0</ele><time>2026-04-09T12:41:39.374Z</time></trkpt><trkpt lat="43.0182617" lon="13.29848"><ele>535.0</ele><time>2026-04-09T12:41:40.373Z</time></trkpt><trkpt lat="43.0182017" lon="13.29844"><ele>536.0</ele><time>2026-04-09T12:41:41.375Z</time></trkpt><trkpt lat="43.0181367" lon="13.2983983"><ele>537.0</ele><time>2026-04-09T12:41:42.373Z</time></trkpt><trkpt lat="43.0180733" lon="13.2983617"><ele>538.0</ele><time>2026-04-09T12:41:43.376Z</time></trkpt><trkpt lat="43.018005" lon="13.2983283"><ele>538.7142857142858</ele><time>2026-04-09T12:41:44.375Z</time></trkpt><trkpt lat="43.0179467" lon="13.298295"><ele>539.4285714285714</ele><time>2026-04-09T12:41:45.374Z</time></trkpt><trkpt lat="43.017885" lon="13.2982633"><ele>540.1428571428571</ele><time>2026-04-09T12:41:46.374Z</time></trkpt><trkpt lat="43.0178233" lon="13.29824"><ele>540.8571428571429</ele><time>2026-04-09T12:41:47.373Z</time></trkpt><trkpt lat="43.0177417" lon="13.2982133"><ele>541.5714285714286</ele><time>2026-04-09T12:41:48.373Z</time></trkpt><trkpt lat="43.017665" lon="13.298185"><ele>542.2857142857143</ele><time>2026-04-09T12:41:49.375Z</time></trkpt><trkpt lat="43.0176" lon="13.2981533"><ele>543.0</ele><time>2026-04-09T12:41:50.375Z</time></trkpt><trkpt lat="43.017505" lon="13.2980933"><ele>545.5</ele><time>2026-04-09T12:41:52.373Z</time></trkpt><trkpt lat="43.01744" lon="13.2980533"><ele>548.0</ele><time>2026-04-09T12:41:54.375Z</time></trkpt><trkpt lat="43.0173783" lon="13.2980283"><ele>550.5</ele><time>2026-04-09T12:41:56.376Z</time></trkpt><trkpt lat="43.0172767" lon="13.29802"><ele>553.0</ele><time>2026-04-09T12:41:59.376Z</time></trkpt><trkpt lat="43.0171983" lon="13.2980433"><ele>555.5</ele><time>2026-04-09T12:42:01.374Z</time></trkpt><trkpt lat="43.017095" lon="13.29802"><ele>558.0</ele><time>2026-04-09T12:42:40.373Z</time></trkpt><trkpt lat="43.0170133" lon="13.297975"><ele>558.0</ele><time>2026-04-09T12:42:43.375Z</time></trkpt><trkpt lat="43.016945" lon="13.2979267"><ele>558.0</ele><time>2026-04-09T12:42:45.373Z</time></trkpt><trkpt lat="43.0168683" lon="13.2978733"><ele>558.0</ele><time>2026-04-09T12:42:47.373Z</time></trkpt><trkpt lat="43.016775" lon="13.2978217"><ele>558.0</ele><time>2026-04-09T12:42:49.375Z</time></trkpt><trkpt lat="43.016705" lon="13.29776"><ele>558.0</ele><time>2026-04-09T12:42:51.374Z</time></trkpt><trkpt lat="43.016635" lon="13.29769"><ele>558.0</ele><time>2026-04-09T12:42:53.375Z</time></trkpt><trkpt lat="43.0165583" lon="13.2975867"><ele>560.0</ele><time>2026-04-09T12:42:55.373Z</time></trkpt><trkpt lat="43.01648" lon="13.2974783"><ele>562.0</ele><time>2026-04-09T12:42:57.374Z</time></trkpt><trkpt lat="43.0163783" lon="13.2973917"><ele>564.0</ele><time>2026-04-09T12:42:59.373Z</time></trkpt><trkpt lat="43.0163183" lon="13.2973583"><ele>566.0</ele><time>2026-04-09T12:43:00.374Z</time></trkpt><trkpt lat="43.0162583" lon="13.2973183"><ele>568.0</ele><time>2026-04-09T12:43:01.375Z</time></trkpt><trkpt lat="43.01619" lon="13.29728"><ele>570.0</ele><time>2026-04-09T12:43:02.374Z</time></trkpt><trkpt lat="43.0161183" lon="13.2972383"><ele>571.8333333333334</ele><time>2026-04-09T12:43:03.373Z</time></trkpt><trkpt lat="43.0160417" lon="13.2971917"><ele>573.6666666666666</ele><time>2026-04-09T12:43:04.374Z</time></trkpt><trkpt lat="43.01598" lon="13.2971533"><ele>575.5</ele><time>2026-04-09T12:43:05.373Z</time></trkpt><trkpt lat="43.0159167" lon="13.297115"><ele>577.3333333333333</ele><time>2026-04-09T12:43:06.374Z</time></trkpt><trkpt lat="43.0158567" lon="13.2970717"><ele>579.1666666666666</ele><time>2026-04-09T12:43:07.373Z</time></trkpt><trkpt lat="43.0157433" lon="13.2969783"><ele>581.0</ele><time>2026-04-09T12:43:09.376Z</time></trkpt><trkpt lat="43.015675" lon="13.2969333"><ele>582.6</ele><time>2026-04-09T12:43:10.376Z</time></trkpt><trkpt lat="43.0156133" lon="13.2969"><ele>584.2</ele><time>2026-04-09T12:43:11.375Z</time></trkpt><trkpt lat="43.0155167" lon="13.2968467"><ele>585.8</ele><time>2026-04-09T12:43:13.373Z</time></trkpt><trkpt lat="43.0154183" lon="13.2967833"><ele>587.4</ele><time>2026-04-09T12:43:15.373Z</time></trkpt><trkpt lat="43.0153" lon="13.2967167"><ele>589.0</ele><time>2026-04-09T12:43:17.374Z</time></trkpt><trkpt lat="43.0151917" lon="13.296645"><ele>589.0</ele><time>2026-04-09T12:43:19.376Z</time></trkpt><trkpt lat="43.0151533" lon="13.2965633"><ele>589.0</ele><time>2026-04-09T12:43:47.375Z</time></trkpt><trkpt lat="43.0152517" lon="13.2965083"><ele>589.0</ele><time>2026-04-09T12:43:49.377Z</time></trkpt><trkpt lat="43.015355" lon="13.29644"><ele>589.0</ele><time>2026-04-09T12:43:51.376Z</time></trkpt><trkpt lat="43.015415" lon="13.2963583"><ele>589.0</ele><time>2026-04-09T12:43:53.375Z</time></trkpt><trkpt lat="43.0154517" lon="13.29627"><ele>591.1666666666667</ele><time>2026-04-09T12:43:55.378Z</time></trkpt><trkpt lat="43.0154783" lon="13.29618"><ele>593.3333333333334</ele><time>2026-04-09T12:43:58.375Z</time></trkpt><trkpt lat="43.0155333" lon="13.2960683"><ele>595.5</ele><time>2026-04-09T12:44:02.374Z</time></trkpt><trkpt lat="43.0155883" lon="13.2959167"><ele>597.6666666666666</ele><time>2026-04-09T12:44:04.374Z</time></trkpt><trkpt lat="43.015615" lon="13.295825"><ele>599.8333333333333</ele><time>2026-04-09T12:44:05.374Z</time></trkpt><trkpt lat="43.0156467" lon="13.2957283"><ele>602.0</ele><time>2026-04-09T12:44:06.375Z</time></trkpt><trkpt lat="43.0156817" lon="13.2956317"><ele>601.0</ele><time>2026-04-09T12:44:07.374Z</time></trkpt><trkpt lat="43.0157233" lon="13.29553"><ele>600.0</ele><time>2026-04-09T12:44:08.374Z</time></trkpt><trkpt lat="43.0157667" lon="13.2954167"><ele>599.0</ele><time>2026-04-09T12:44:09.375Z</time></trkpt><trkpt lat="43.0158067" lon="13.29529"><ele>598.0</ele><time>2026-04-09T12:44:10.375Z</time></trkpt><trkpt lat="43.0158483" lon="13.2951733"><ele>597.0</ele><time>2026-04-09T12:44:11.373Z</time></trkpt><trkpt lat="43.0158933" lon="13.2950667"><ele>597.0</ele><time>2026-04-09T12:44:12.374Z</time></trkpt><trkpt lat="43.0159433" lon="13.294965"><ele>597.0</ele><time>2026-04-09T12:44:13.377Z</time></trkpt><trkpt lat="43.016" lon="13.2948667"><ele>597.0</ele><time>2026-04-09T12:44:14.375Z</time></trkpt><trkpt lat="43.01607" lon="13.2947633"><ele>597.0</ele><time>2026-04-09T12:44:15.374Z</time></trkpt><trkpt lat="43.0161433" lon="13.2946583"><ele>597.0</ele><time>2026-04-09T12:44:16.374Z</time></trkpt><trkpt lat="43.0162117" lon="13.294545"><ele>597.0</ele><time>2026-04-09T12:44:17.375Z</time></trkpt><trkpt lat="43.016275" lon="13.294425"><ele>597.0</ele><time>2026-04-09T12:44:18.375Z</time></trkpt><trkpt lat="43.01633" lon="13.294305"><ele>597.0</ele><time>2026-04-09T12:44:19.377Z</time></trkpt><trkpt lat="43.0163783" lon="13.2941917"><ele>597.0</ele><time>2026-04-09T12:44:20.377Z</time></trkpt><trkpt lat="43.016425" lon="13.2941033"><ele>597.0</ele><time>2026-04-09T12:44:21.378Z</time></trkpt><trkpt lat="43.0164567" lon="13.2940233"><ele>597.0</ele><time>2026-04-09T12:44:22.378Z</time></trkpt><trkpt lat="43.016495" lon="13.2939133"><ele>597.0</ele><time>2026-04-09T12:44:24.378Z</time></trkpt><trkpt lat="43.016395" lon="13.2938917"><ele>597.0</ele><time>2026-04-09T12:44:27.378Z</time></trkpt><trkpt lat="43.0163133" lon="13.293925"><ele>597.0</ele><time>2026-04-09T12:44:28.376Z</time></trkpt><trkpt lat="43.0162283" lon="13.2939533"><ele>597.0</ele><time>2026-04-09T12:44:29.377Z</time></trkpt><trkpt lat="43.0161383" lon="13.2939767"><ele>597.0</ele><time>2026-04-09T12:44:30.377Z</time></trkpt><trkpt lat="43.0160417" lon="13.2939967"><ele>597.0</ele><time>2026-04-09T12:44:31.377Z</time></trkpt><trkpt lat="43.0159417" lon="13.2940183"><ele>597.0</ele><time>2026-04-09T12:44:32.378Z</time></trkpt><trkpt lat="43.01584" lon="13.294055"><ele>597.0</ele><time>2026-04-09T12:44:33.38Z</time></trkpt><trkpt lat="43.0157333" lon="13.2941083"><ele>597.0</ele><time>2026-04-09T12:44:34.376Z</time></trkpt><trkpt lat="43.0156217" lon="13.294165"><ele>598.0</ele><time>2026-04-09T12:44:35.375Z</time></trkpt><trkpt lat="43.0155067" lon="13.294215"><ele>599.0</ele><time>2026-04-09T12:44:36.377Z</time></trkpt><trkpt lat="43.01539" lon="13.2942567"><ele>600.0</ele><time>2026-04-09T12:44:37.378Z</time></trkpt><trkpt lat="43.015275" lon="13.2942917"><ele>601.0</ele><time>2026-04-09T12:44:38.379Z</time></trkpt><trkpt lat="43.0151617" lon="13.2943283"><ele>601.0</ele><time>2026-04-09T12:44:39.376Z</time></trkpt><trkpt lat="43.01505" lon="13.2943767"><ele>601.0</ele><time>2026-04-09T12:44:40.376Z</time></trkpt><trkpt lat="43.0149433" lon="13.29443"><ele>601.0</ele><time>2026-04-09T12:44:41.377Z</time></trkpt><trkpt lat="43.0148433" lon="13.2944983"><ele>601.0</ele><time>2026-04-09T12:44:42.377Z</time></trkpt><trkpt lat="43.014745" lon="13.2945733"><ele>603.25</ele><time>2026-04-09T12:44:43.377Z</time></trkpt><trkpt lat="43.014645" lon="13.2946617"><ele>605.5</ele><time>2026-04-09T12:44:44.377Z</time></trkpt><trkpt lat="43.014535" lon="13.2947633"><ele>607.75</ele><time>2026-04-09T12:44:45.377Z</time></trkpt><trkpt lat="43.0144283" lon="13.2948683"><ele>610.0</ele><time>2026-04-09T12:44:46.378Z</time></trkpt><trkpt lat="43.01432" lon="13.2949717"><ele>610.0</ele><time>2026-04-09T12:44:47.375Z</time></trkpt><trkpt lat="43.0141983" lon="13.2950783"><ele>610.0</ele><time>2026-04-09T12:44:48.38Z</time></trkpt><trkpt lat="43.01407" lon="13.2951833"><ele>610.0</ele><time>2026-04-09T12:44:49.377Z</time></trkpt><trkpt lat="43.013935" lon="13.2952867"><ele>610.0</ele><time>2026-04-09T12:44:50.377Z</time></trkpt><trkpt lat="43.0138017" lon="13.29539"><ele>611.6666666666667</ele><time>2026-04-09T12:44:51.377Z</time></trkpt><trkpt lat="43.0136633" lon="13.2954933"><ele>613.3333333333334</ele><time>2026-04-09T12:44:52.377Z</time></trkpt><trkpt lat="43.0135267" lon="13.2955917"><ele>615.0</ele><time>2026-04-09T12:44:53.376Z</time></trkpt><trkpt lat="43.01339" lon="13.29569"><ele>612.3333333333334</ele><time>2026-04-09T12:44:54.376Z</time></trkpt><trkpt lat="43.013255" lon="13.2957967"><ele>609.6666666666667</ele><time>2026-04-09T12:44:55.377Z</time></trkpt><trkpt lat="43.0131217" lon="13.2959067"><ele>607.0</ele><time>2026-04-09T12:44:56.378Z</time></trkpt><trkpt lat="43.01299" lon="13.29602"><ele>607.0</ele><time>2026-04-09T12:44:57.376Z</time></trkpt><trkpt lat="43.01286" lon="13.29613"><ele>607.0</ele><time>2026-04-09T12:44:58.376Z</time></trkpt><trkpt lat="43.012735" lon="13.2962333"><ele>607.0</ele><time>2026-04-09T12:44:59.378Z</time></trkpt><trkpt lat="43.0126167" lon="13.296335"><ele>607.0</ele><time>2026-04-09T12:45:00.377Z</time></trkpt><trkpt lat="43.012505" lon="13.2964383"><ele>612.5</ele><time>2026-04-09T12:45:01.378Z</time></trkpt><trkpt lat="43.0123983" lon="13.2965467"><ele>618.0</ele><time>2026-04-09T12:45:02.378Z</time></trkpt><trkpt lat="43.0123" lon="13.2966483"><ele>623.5</ele><time>2026-04-09T12:45:03.377Z</time></trkpt><trkpt lat="43.0122" lon="13.2967467"><ele>629.0</ele><time>2026-04-09T12:45:04.377Z</time></trkpt><trkpt lat="43.0120917" lon="13.2968367"><ele>629.0</ele><time>2026-04-09T12:45:05.376Z</time></trkpt><trkpt lat="43.01198" lon="13.2969183"><ele>629.0</ele><time>2026-04-09T12:45:06.376Z</time></trkpt><trkpt lat="43.0118667" lon="13.2969867"><ele>629.0</ele><time>2026-04-09T12:45:07.376Z</time></trkpt><trkpt lat="43.0117583" lon="13.29704"><ele>629.0</ele><time>2026-04-09T12:45:08.376Z</time></trkpt><trkpt lat="43.0116517" lon="13.2970767"><ele>628.5</ele><time>2026-04-09T12:45:09.378Z</time></trkpt><trkpt lat="43.011535" lon="13.2971067"><ele>628.0</ele><time>2026-04-09T12:45:10.377Z</time></trkpt><trkpt lat="43.0114233" lon="13.2971383"><ele>627.5</ele><time>2026-04-09T12:45:11.378Z</time></trkpt><trkpt lat="43.0113117" lon="13.297185"><ele>627.0</ele><time>2026-04-09T12:45:12.377Z</time></trkpt><trkpt lat="43.011205" lon="13.2972517"><ele>633.0</ele><time>2026-04-09T12:45:13.374Z</time></trkpt><trkpt lat="43.0110983" lon="13.2973183"><ele>639.0</ele><time>2026-04-09T12:45:14.375Z</time></trkpt><trkpt lat="43.0109883" lon="13.29738"><ele>645.0</ele><time>2026-04-09T12:45:15.374Z</time></trkpt><trkpt lat="43.010875" lon="13.2974333"><ele>651.0</ele><time>2026-04-09T12:45:16.375Z</time></trkpt><trkpt lat="43.01076" lon="13.2974883"><ele>651.25</ele><time>2026-04-09T12:45:17.375Z</time></trkpt><trkpt lat="43.0106383" lon="13.29754"><ele>651.5</ele><time>2026-04-09T12:45:18.374Z</time></trkpt><trkpt lat="43.01051" lon="13.2975883"><ele>651.75</ele><time>2026-04-09T12:45:19.375Z</time></trkpt><trkpt lat="43.0103833" lon="13.2976367"><ele>652.0</ele><time>2026-04-09T12:45:20.375Z</time></trkpt><trkpt lat="43.0102617" lon="13.29768"><ele>652.0</ele><time>2026-04-09T12:45:21.377Z</time></trkpt><trkpt lat="43.0101533" lon="13.2977167"><ele>652.0</ele><time>2026-04-09T12:45:22.378Z</time></trkpt><trkpt lat="43.010055" lon="13.297755"><ele>652.0</ele><time>2026-04-09T12:45:23.374Z</time></trkpt><trkpt lat="43.0099517" lon="13.29779"><ele>652.0</ele><time>2026-04-09T12:45:24.376Z</time></trkpt><trkpt lat="43.00985" lon="13.2978333"><ele>652.0</ele><time>2026-04-09T12:45:25.375Z</time></trkpt><trkpt lat="43.0097467" lon="13.2978817"><ele>651.4000000000001</ele><time>2026-04-09T12:45:26.376Z</time></trkpt><trkpt lat="43.009655" lon="13.2979333"><ele>650.8000000000001</ele><time>2026-04-09T12:45:27.376Z</time></trkpt><trkpt lat="43.009585" lon="13.2979817"><ele>650.2</ele><time>2026-04-09T12:45:28.376Z</time></trkpt><trkpt lat="43.0095233" lon="13.2980167"><ele>649.6</ele><time>2026-04-09T12:45:29.376Z</time></trkpt><trkpt lat="43.009415" lon="13.298045"><ele>649.0</ele><time>2026-04-09T12:45:31.375Z</time></trkpt><trkpt lat="43.0093017" lon="13.2980483"><ele>649.0</ele><time>2026-04-09T12:45:33.375Z</time></trkpt><trkpt lat="43.009235" lon="13.2980583"><ele>649.0</ele><time>2026-04-09T12:45:34.376Z</time></trkpt><trkpt lat="43.0091583" lon="13.2980717"><ele>649.0</ele><time>2026-04-09T12:45:35.376Z</time></trkpt><trkpt lat="43.00908" lon="13.2980883"><ele>649.0</ele><time>2026-04-09T12:45:36.374Z</time></trkpt><trkpt lat="43.0089983" lon="13.2981133"><ele>649.0</ele><time>2026-04-09T12:45:37.377Z</time></trkpt><trkpt lat="43.0089167" lon="13.2981383"><ele>649.0</ele><time>2026-04-09T12:45:38.377Z</time></trkpt><trkpt lat="43.0088333" lon="13.2981667"><ele>653.6</ele><time>2026-04-09T12:45:39.375Z</time></trkpt><trkpt lat="43.0087467" lon="13.2981933"><ele>658.2</ele><time>2026-04-09T12:45:40.374Z</time></trkpt><trkpt lat="43.0086617" lon="13.2982283"><ele>662.8000000000001</ele><time>2026-04-09T12:45:41.376Z</time></trkpt><trkpt lat="43.008575" lon="13.2982617"><ele>667.4000000000001</ele><time>2026-04-09T12:45:42.375Z</time></trkpt><trkpt lat="43.008485" lon="13.29829"><ele>672.0</ele><time>2026-04-09T12:45:43.376Z</time></trkpt><trkpt lat="43.0083967" lon="13.2983133"><ele>672.3333333333334</ele><time>2026-04-09T12:45:44.378Z</time></trkpt><trkpt lat="43.0083083" lon="13.29834"><ele>672.6666666666666</ele><time>2026-04-09T12:45:45.376Z</time></trkpt><trkpt lat="43.0082167" lon="13.2983667"><ele>673.0</ele><time>2026-04-09T12:45:46.375Z</time></trkpt><trkpt lat="43.0081267" lon="13.2983967"><ele>673.3333333333333</ele><time>2026-04-09T12:45:47.376Z</time></trkpt><trkpt lat="43.0080417" lon="13.2984233"><ele>673.6666666666666</ele><time>2026-04-09T12:45:48.374Z</time></trkpt><trkpt lat="43.0079617" lon="13.2984533"><ele>674.0</ele><time>2026-04-09T12:45:49.376Z</time></trkpt><trkpt lat="43.00788" lon="13.298475"><ele>674.0</ele><time>2026-04-09T12:45:50.375Z</time></trkpt><trkpt lat="43.0077967" lon="13.2984967"><ele>674.0</ele><time>2026-04-09T12:45:51.376Z</time></trkpt><trkpt lat="43.007715" lon="13.2985133"><ele>674.0</ele><time>2026-04-09T12:45:52.374Z</time></trkpt><trkpt lat="43.007635" lon="13.298525"><ele>674.0</ele><time>2026-04-09T12:45:53.376Z</time></trkpt><trkpt lat="43.00755" lon="13.2985367"><ele>674.0</ele><time>2026-04-09T12:45:54.377Z</time></trkpt><trkpt lat="43.007465" lon="13.2985567"><ele>674.0</ele><time>2026-04-09T12:45:55.377Z</time></trkpt><trkpt lat="43.0073767" lon="13.29857"><ele>675.0</ele><time>2026-04-09T12:45:56.378Z</time></trkpt><trkpt lat="43.0072883" lon="13.298585"><ele>676.0</ele><time>2026-04-09T12:45:57.377Z</time></trkpt><trkpt lat="43.0072067" lon="13.2986017"><ele>677.0</ele><time>2026-04-09T12:45:58.374Z</time></trkpt><trkpt lat="43.007135" lon="13.2986233"><ele>678.0</ele><time>2026-04-09T12:45:59.376Z</time></trkpt><trkpt lat="43.0070633" lon="13.29865"><ele>679.0</ele><time>2026-04-09T12:46:00.376Z</time></trkpt><trkpt lat="43.0069883" lon="13.298675"><ele>680.0</ele><time>2026-04-09T12:46:01.375Z</time></trkpt><trkpt lat="43.0069033" lon="13.2986867"><ele>680.0</ele><time>2026-04-09T12:46:02.374Z</time></trkpt><trkpt lat="43.00682" lon="13.2987"><ele>680.0</ele><time>2026-04-09T12:46:03.376Z</time></trkpt><trkpt lat="43.00674" lon="13.298715"><ele>680.0</ele><time>2026-04-09T12:46:04.376Z</time></trkpt><trkpt lat="43.006655" lon="13.2987317"><ele>680.0</ele><time>2026-04-09T12:46:05.376Z</time></trkpt><trkpt lat="43.0065667" lon="13.2987533"><ele>680.0</ele><time>2026-04-09T12:46:06.376Z</time></trkpt><trkpt lat="43.0064783" lon="13.2987767"><ele>680.0</ele><time>2026-04-09T12:46:07.376Z</time></trkpt><trkpt lat="43.006385" lon="13.2987933"><ele>682.5</ele><time>2026-04-09T12:46:08.375Z</time></trkpt><trkpt lat="43.0062917" lon="13.2988117"><ele>685.0</ele><time>2026-04-09T12:46:09.376Z</time></trkpt><trkpt lat="43.0062017" lon="13.2988333"><ele>687.5</ele><time>2026-04-09T12:46:10.376Z</time></trkpt><trkpt lat="43.0061117" lon="13.298855"><ele>690.0</ele><time>2026-04-09T12:46:11.375Z</time></trkpt><trkpt lat="43.00603" lon="13.2988867"><ele>692.5</ele><time>2026-04-09T12:46:12.376Z</time></trkpt><trkpt lat="43.0059467" lon="13.2989067"><ele>695.0</ele><time>2026-04-09T12:46:13.376Z</time></trkpt><trkpt lat="43.00586" lon="13.29893"><ele>696.8333333333333</ele><time>2026-04-09T12:46:14.376Z</time></trkpt><trkpt lat="43.0057783" lon="13.29896"><ele>698.6666666666666</ele><time>2026-04-09T12:46:15.376Z</time></trkpt><trkpt lat="43.0057017" lon="13.2989983"><ele>700.5</ele><time>2026-04-09T12:46:16.375Z</time></trkpt><trkpt lat="43.0056267" lon="13.29904"><ele>702.3333333333334</ele><time>2026-04-09T12:46:17.376Z</time></trkpt><trkpt lat="43.0055483" lon="13.2990833"><ele>704.1666666666667</ele><time>2026-04-09T12:46:18.376Z</time></trkpt><trkpt lat="43.0054667" lon="13.2991267"><ele>706.0</ele><time>2026-04-09T12:46:19.375Z</time></trkpt><trkpt lat="43.005385" lon="13.2991633"><ele>706.0</ele><time>2026-04-09T12:46:20.376Z</time></trkpt><trkpt lat="43.0053033" lon="13.299185"><ele>706.0</ele><time>2026-04-09T12:46:21.377Z</time></trkpt><trkpt lat="43.0052283" lon="13.2991967"><ele>706.0</ele><time>2026-04-09T12:46:22.374Z</time></trkpt><trkpt lat="43.0051617" lon="13.29921"><ele>706.0</ele><time>2026-04-09T12:46:23.375Z</time></trkpt><trkpt lat="43.00509" lon="13.2992117"><ele>706.0</ele><time>2026-04-09T12:46:24.377Z</time></trkpt><trkpt lat="43.005015" lon="13.299205"><ele>706.0</ele><time>2026-04-09T12:46:25.377Z</time></trkpt><trkpt lat="43.0049417" lon="13.2991867"><ele>706.0</ele><time>2026-04-09T12:46:26.374Z</time></trkpt><trkpt lat="43.0048683" lon="13.299165"><ele>706.2857142857142</ele><time>2026-04-09T12:46:27.376Z</time></trkpt><trkpt lat="43.0047917" lon="13.2991367"><ele>706.5714285714287</ele><time>2026-04-09T12:46:28.376Z</time></trkpt><trkpt lat="43.0047217" lon="13.2991083"><ele>706.8571428571429</ele><time>2026-04-09T12:46:29.376Z</time></trkpt><trkpt lat="43.0046517" lon="13.2990867"><ele>707.1428571428571</ele><time>2026-04-09T12:46:30.377Z</time></trkpt><trkpt lat="43.0045867" lon="13.2990667"><ele>707.4285714285713</ele><time>2026-04-09T12:46:31.377Z</time></trkpt><trkpt lat="43.0044967" lon="13.2990667"><ele>707.7142857142858</ele><time>2026-04-09T12:46:33.376Z</time></trkpt><trkpt lat="43.004435" lon="13.2990917"><ele>708.0</ele><time>2026-04-09T12:46:38.377Z</time></trkpt><trkpt lat="43.0043533" lon="13.2991167"><ele>708.0</ele><time>2026-04-09T12:46:43.376Z</time></trkpt><trkpt lat="43.0042633" lon="13.299135"><ele>708.0</ele><time>2026-04-09T12:46:45.376Z</time></trkpt><trkpt lat="43.0041433" lon="13.29916"><ele>708.0</ele><time>2026-04-09T12:46:47.376Z</time></trkpt><trkpt lat="43.0040817" lon="13.2991783"><ele>708.0</ele><time>2026-04-09T12:46:48.375Z</time></trkpt><trkpt lat="43.0039567" lon="13.299195"><ele>708.0</ele><time>2026-04-09T12:46:50.377Z</time></trkpt><trkpt lat="43.0038467" lon="13.2992183"><ele>710.8</ele><time>2026-04-09T12:46:52.375Z</time></trkpt><trkpt lat="43.0037567" lon="13.299305"><ele>713.5999999999999</ele><time>2026-04-09T12:46:54.376Z</time></trkpt><trkpt lat="43.0036717" lon="13.29939"><ele>716.4000000000001</ele><time>2026-04-09T12:46:56.375Z</time></trkpt><trkpt lat="43.003575" lon="13.2994333"><ele>719.2</ele><time>2026-04-09T12:46:58.377Z</time></trkpt><trkpt lat="43.0035083" lon="13.299455"><ele>722.0</ele><time>2026-04-09T12:47:00.376Z</time></trkpt><trkpt lat="43.0034417" lon="13.2994783"><ele>722.0</ele><time>2026-04-09T12:47:09.373Z</time></trkpt><trkpt lat="43.0033583" lon="13.29951"><ele>722.0</ele><time>2026-04-09T12:47:25.376Z</time></trkpt><trkpt lat="43.0032633" lon="13.2995167"><ele>722.0</ele><time>2026-04-09T12:47:28.378Z</time></trkpt><trkpt lat="43.003195" lon="13.2995217"><ele>722.0</ele><time>2026-04-09T12:47:30.377Z</time></trkpt><trkpt lat="43.0031267" lon="13.2995167"><ele>722.0</ele><time>2026-04-09T12:47:33.378Z</time></trkpt><trkpt lat="43.00304" lon="13.299505"><ele>722.0</ele><time>2026-04-09T12:47:37.377Z</time></trkpt><trkpt lat="43.0029767" lon="13.2994983"><ele>725.4000000000001</ele><time>2026-04-09T12:47:39.378Z</time></trkpt><trkpt lat="43.002895" lon="13.2995083"><ele>728.8000000000001</ele><time>2026-04-09T12:47:41.377Z</time></trkpt><trkpt lat="43.0027933" lon="13.29954"><ele>732.2</ele><time>2026-04-09T12:47:43.377Z</time></trkpt><trkpt lat="43.0026867" lon="13.2995817"><ele>735.6</ele><time>2026-04-09T12:47:45.376Z</time></trkpt><trkpt lat="43.00259" lon="13.29963"><ele>739.0</ele><time>2026-04-09T12:47:47.376Z</time></trkpt><trkpt lat="43.002525" lon="13.2996583"><ele>739.8571428571429</ele><time>2026-04-09T12:47:49.377Z</time></trkpt><trkpt lat="43.0024567" lon="13.299695"><ele>740.7142857142858</ele><time>2026-04-09T12:47:52.376Z</time></trkpt><trkpt lat="43.00239" lon="13.2997233"><ele>741.5714285714286</ele><time>2026-04-09T12:47:54.377Z</time></trkpt><trkpt lat="43.0023233" lon="13.2997433"><ele>742.4285714285714</ele><time>2026-04-09T12:47:57.376Z</time></trkpt><trkpt lat="43.0022533" lon="13.2997467"><ele>743.2857142857142</ele><time>2026-04-09T12:48:02.377Z</time></trkpt><trkpt lat="43.0021933" lon="13.299675"><ele>744.1428571428571</ele><time>2026-04-09T12:48:05.377Z</time></trkpt><trkpt lat="43.0021517" lon="13.2995983"><ele>745.0</ele><time>2026-04-09T12:48:07.375Z</time></trkpt><trkpt lat="43.0021233" lon="13.2995167"><ele>745.0</ele><time>2026-04-09T12:48:09.376Z</time></trkpt><trkpt lat="43.0020933" lon="13.2994133"><ele>745.0</ele><time>2026-04-09T12:48:11.378Z</time></trkpt><trkpt lat="43.0020267" lon="13.2993317"><ele>745.0</ele><time>2026-04-09T12:48:13.376Z</time></trkpt><trkpt lat="43.0019317" lon="13.29929"><ele>745.0</ele><time>2026-04-09T12:48:15.377Z</time></trkpt><trkpt lat="43.00185" lon="13.2992367"><ele>745.0</ele><time>2026-04-09T12:48:17.377Z</time></trkpt><trkpt lat="43.00177" lon="13.299165"><ele>745.0</ele><time>2026-04-09T12:48:47.377Z</time></trkpt><trkpt lat="43.0017167" lon="13.299105"><ele>745.0</ele><time>2026-04-09T12:48:49.377Z</time></trkpt><trkpt lat="43.001645" lon="13.2990283"><ele>745.0</ele><time>2026-04-09T12:48:51.374Z</time></trkpt><trkpt lat="43.0015667" lon="13.298945"><ele>745.0</ele><time>2026-04-09T12:48:53.375Z</time></trkpt><trkpt lat="43.00149" lon="13.29888"><ele>745.0</ele><time>2026-04-09T12:48:55.375Z</time></trkpt><trkpt lat="43.0014067" lon="13.2988267"><ele>745.0</ele><time>2026-04-09T12:48:57.374Z</time></trkpt><trkpt lat="43.0013433" lon="13.2988117"><ele>748.3333333333334</ele><time>2026-04-09T12:48:59.375Z</time></trkpt><trkpt lat="43.0012567" lon="13.2988083"><ele>751.6666666666667</ele><time>2026-04-09T12:49:01.375Z</time></trkpt><trkpt lat="43.0011617" lon="13.2988017"><ele>755.0</ele><time>2026-04-09T12:49:03.377Z</time></trkpt><trkpt lat="43.0010733" lon="13.2987783"><ele>758.3333333333334</ele><time>2026-04-09T12:49:05.377Z</time></trkpt><trkpt lat="43.0009983" lon="13.2987683"><ele>761.6666666666666</ele><time>2026-04-09T12:49:08.377Z</time></trkpt><trkpt lat="43.0009133" lon="13.2988"><ele>765.0</ele><time>2026-04-09T12:49:17.377Z</time></trkpt><trkpt lat="43.0008117" lon="13.2988083"><ele>764.6</ele><time>2026-04-09T12:49:19.375Z</time></trkpt><trkpt lat="43.00071" lon="13.29881"><ele>764.2</ele><time>2026-04-09T12:49:21.375Z</time></trkpt><trkpt lat="43.0006383" lon="13.2988"><ele>763.8</ele><time>2026-04-09T12:49:24.377Z</time></trkpt><trkpt lat="43.000545" lon="13.298845"><ele>763.4</ele><time>2026-04-09T12:51:09.377Z</time></trkpt><trkpt lat="43.0004883" lon="13.29897"><ele>763.0</ele><time>2026-04-09T12:51:18.374Z</time></trkpt><trkpt lat="43.0004383" lon="13.299055"><ele>763.0</ele><time>2026-04-09T12:51:37.376Z</time></trkpt><trkpt lat="43.0004083" lon="13.2991383"><ele>763.0</ele><time>2026-04-09T12:51:42.375Z</time></trkpt><trkpt lat="43.000385" lon="13.2992283"><ele>763.0</ele><time>2026-04-09T12:51:46.376Z</time></trkpt><trkpt lat="43.0003233" lon="13.29933"><ele>763.0</ele><time>2026-04-09T12:51:50.374Z</time></trkpt><trkpt lat="43.0002617" lon="13.2994083"><ele>763.0</ele><time>2026-04-09T12:51:52.375Z</time></trkpt><trkpt lat="43.0001833" lon="13.299485"><ele>763.0</ele><time>2026-04-09T12:51:54.376Z</time></trkpt><trkpt lat="43.0001083" lon="13.2995767"><ele>763.0</ele><time>2026-04-09T12:51:56.375Z</time></trkpt><trkpt lat="43.0000333" lon="13.299645"><ele>763.0</ele><time>2026-04-09T12:51:58.375Z</time></trkpt><trkpt lat="42.99997" lon="13.2997"><ele>763.0</ele><time>2026-04-09T12:52:00.376Z</time></trkpt><trkpt lat="42.9998967" lon="13.2997433"><ele>763.0</ele><time>2026-04-09T12:52:37.374Z</time></trkpt><trkpt lat="42.999825" lon="13.29979"><ele>763.0</ele><time>2026-04-09T12:52:41.375Z</time></trkpt><trkpt lat="42.999765" lon="13.2998417"><ele>763.0</ele><time>2026-04-09T12:52:44.375Z</time></trkpt><trkpt lat="42.9997133" lon="13.2999"><ele>757.0</ele><time>2026-04-09T12:52:47.377Z</time></trkpt><trkpt lat="42.999635" lon="13.299985"><ele>751.0</ele><time>2026-04-09T12:52:50.374Z</time></trkpt><trkpt lat="42.9995783" lon="13.3000783"><ele>745.0</ele><time>2026-04-09T12:52:52.372Z</time></trkpt><trkpt lat="42.9995117" lon="13.3001767"><ele>739.0</ele><time>2026-04-09T12:52:54.374Z</time></trkpt><trkpt lat="42.99943" lon="13.3002567"><ele>733.0</ele><time>2026-04-09T12:52:56.374Z</time></trkpt><trkpt lat="42.9993617" lon="13.300315"><ele>733.0</ele><time>2026-04-09T12:52:58.374Z</time></trkpt><trkpt lat="42.9992917" lon="13.3003467"><ele>733.0</ele><time>2026-04-09T12:53:00.373Z</time></trkpt><trkpt lat="42.999215" lon="13.3003683"><ele>733.0</ele><time>2026-04-09T12:53:02.375Z</time></trkpt><trkpt lat="42.99915" lon="13.3003983"><ele>733.0</ele><time>2026-04-09T12:53:04.374Z</time></trkpt><trkpt lat="42.9990667" lon="13.3004483"><ele>733.0</ele><time>2026-04-09T12:53:06.374Z</time></trkpt><trkpt lat="42.9990017" lon="13.30048"><ele>733.0</ele><time>2026-04-09T12:53:08.374Z</time></trkpt><trkpt lat="42.9989267" lon="13.3005083"><ele>730.2</ele><time>2026-04-09T12:53:11.374Z</time></trkpt><trkpt lat="42.9988717" lon="13.3005983"><ele>727.4</ele><time>2026-04-09T12:53:14.374Z</time></trkpt><trkpt lat="42.99881" lon="13.300685"><ele>724.6</ele><time>2026-04-09T12:53:16.373Z</time></trkpt><trkpt lat="42.99874" lon="13.3007883"><ele>721.8000000000001</ele><time>2026-04-09T12:53:18.375Z</time></trkpt><trkpt lat="42.9986633" lon="13.30091"><ele>719.0</ele><time>2026-04-09T12:53:20.376Z</time></trkpt><trkpt lat="42.9986183" lon="13.3009783"><ele>719.0</ele><time>2026-04-09T12:53:21.375Z</time></trkpt><trkpt lat="42.9985717" lon="13.30104"><ele>719.0</ele><time>2026-04-09T12:53:22.374Z</time></trkpt><trkpt lat="42.998485" lon="13.3011483"><ele>719.0</ele><time>2026-04-09T12:53:24.376Z</time></trkpt><trkpt lat="42.998405" lon="13.3012533"><ele>719.0</ele><time>2026-04-09T12:53:26.374Z</time></trkpt><trkpt lat="42.998355" lon="13.3013433"><ele>719.0</ele><time>2026-04-09T12:53:28.374Z</time></trkpt><trkpt lat="42.9983183" lon="13.301415"><ele>719.0</ele><time>2026-04-09T12:53:30.375Z</time></trkpt><trkpt lat="42.998265" lon="13.3015217"><ele>718.6666666666666</ele><time>2026-04-09T12:53:33.377Z</time></trkpt><trkpt lat="42.9982117" lon="13.3016117"><ele>718.3333333333333</ele><time>2026-04-09T12:53:35.377Z</time></trkpt><trkpt lat="42.9981633" lon="13.3016917"><ele>718.0</ele><time>2026-04-09T12:53:37.376Z</time></trkpt><trkpt lat="42.99813" lon="13.301795"><ele>717.6666666666666</ele><time>2026-04-09T12:53:40.376Z</time></trkpt><trkpt lat="42.9981" lon="13.3018883"><ele>717.3333333333334</ele><time>2026-04-09T12:53:43.375Z</time></trkpt><trkpt lat="42.9980417" lon="13.3019767"><ele>717.0</ele><time>2026-04-09T12:53:46.375Z</time></trkpt><trkpt lat="42.99797" lon="13.3020283"><ele>717.0</ele><time>2026-04-09T12:53:49.376Z</time></trkpt><trkpt lat="42.99789" lon="13.3019717"><ele>717.0</ele><time>2026-04-09T12:53:51.377Z</time></trkpt><trkpt lat="42.997785" lon="13.3018817"><ele>717.0</ele><time>2026-04-09T12:53:53.374Z</time></trkpt><trkpt lat="42.9977267" lon="13.3018417"><ele>717.0</ele><time>2026-04-09T12:53:54.377Z</time></trkpt><trkpt lat="42.997655" lon="13.3018017"><ele>717.0</ele><time>2026-04-09T12:53:55.377Z</time></trkpt><trkpt lat="42.99758" lon="13.30176"><ele>717.0</ele><time>2026-04-09T12:53:56.377Z</time></trkpt><trkpt lat="42.9974983" lon="13.30172"><ele>718.4000000000001</ele><time>2026-04-09T12:53:57.373Z</time></trkpt><trkpt lat="42.997415" lon="13.3016817"><ele>719.8000000000001</ele><time>2026-04-09T12:53:58.374Z</time></trkpt><trkpt lat="42.9973283" lon="13.3016383"><ele>721.2</ele><time>2026-04-09T12:53:59.375Z</time></trkpt><trkpt lat="42.99724" lon="13.3015933"><ele>722.6</ele><time>2026-04-09T12:54:00.373Z</time></trkpt><trkpt lat="42.9971517" lon="13.3015517"><ele>724.0</ele><time>2026-04-09T12:54:01.375Z</time></trkpt><trkpt lat="42.9970517" lon="13.3015217"><ele>724.0</ele><time>2026-04-09T12:54:02.378Z</time></trkpt><trkpt lat="42.99695" lon="13.3015017"><ele>724.0</ele><time>2026-04-09T12:54:03.376Z</time></trkpt><trkpt lat="42.99685" lon="13.3014883"><ele>724.0</ele><time>2026-04-09T12:54:04.375Z</time></trkpt><trkpt lat="42.9967533" lon="13.301485"><ele>724.0</ele><time>2026-04-09T12:54:05.375Z</time></trkpt><trkpt lat="42.9966583" lon="13.3014967"><ele>724.0</ele><time>2026-04-09T12:54:06.376Z</time></trkpt><trkpt lat="42.99656" lon="13.3015067"><ele>725.6</ele><time>2026-04-09T12:54:07.375Z</time></trkpt><trkpt lat="42.9964617" lon="13.30151"><ele>727.2</ele><time>2026-04-09T12:54:08.377Z</time></trkpt><trkpt lat="42.9963583" lon="13.3015067"><ele>728.8000000000001</ele><time>2026-04-09T12:54:09.375Z</time></trkpt><trkpt lat="42.9962433" lon="13.3014917"><ele>730.4000000000001</ele><time>2026-04-09T12:54:10.375Z</time></trkpt><trkpt lat="42.99613" lon="13.3014733"><ele>732.0</ele><time>2026-04-09T12:54:11.375Z</time></trkpt><trkpt lat="42.9960133" lon="13.3014717"><ele>732.0</ele><time>2026-04-09T12:54:12.376Z</time></trkpt><trkpt lat="42.995895" lon="13.3014817"><ele>732.0</ele><time>2026-04-09T12:54:13.375Z</time></trkpt><trkpt lat="42.995775" lon="13.3015017"><ele>732.0</ele><time>2026-04-09T12:54:14.374Z</time></trkpt><trkpt lat="42.9956517" lon="13.30153"><ele>732.0</ele><time>2026-04-09T12:54:15.377Z</time></trkpt><trkpt lat="42.9955317" lon="13.30157"><ele>733.0</ele><time>2026-04-09T12:54:16.375Z</time></trkpt><trkpt lat="42.9954133" lon="13.301615"><ele>734.0</ele><time>2026-04-09T12:54:17.377Z</time></trkpt><trkpt lat="42.9952917" lon="13.3016667"><ele>735.0</ele><time>2026-04-09T12:54:18.376Z</time></trkpt><trkpt lat="42.99517" lon="13.30171"><ele>736.0</ele><time>2026-04-09T12:54:19.376Z</time></trkpt><trkpt lat="42.9950533" lon="13.3017467"><ele>737.0</ele><time>2026-04-09T12:54:20.374Z</time></trkpt><trkpt lat="42.9949417" lon="13.3017767"><ele>738.0</ele><time>2026-04-09T12:54:21.376Z</time></trkpt><trkpt lat="42.99485" lon="13.3017867"><ele>739.0</ele><time>2026-04-09T12:54:22.374Z</time></trkpt><trkpt lat="42.9947717" lon="13.301775"><ele>740.0</ele><time>2026-04-09T12:54:23.376Z</time></trkpt><trkpt lat="42.9947067" lon="13.3017567"><ele>741.0</ele><time>2026-04-09T12:54:24.374Z</time></trkpt><trkpt lat="42.9946367" lon="13.3016417"><ele>741.0</ele><time>2026-04-09T12:54:26.376Z</time></trkpt><trkpt lat="42.9946617" lon="13.3015417"><ele>741.0</ele><time>2026-04-09T12:54:27.374Z</time></trkpt><trkpt lat="42.994775" lon="13.3014067"><ele>741.0</ele><time>2026-04-09T12:54:28.374Z</time></trkpt><trkpt lat="42.9948517" lon="13.301285"><ele>741.0</ele><time>2026-04-09T12:54:29.374Z</time></trkpt><trkpt lat="42.9949617" lon="13.3011267"><ele>747.0</ele><time>2026-04-09T12:54:30.377Z</time></trkpt><trkpt lat="42.99503" lon="13.3009817"><ele>753.0</ele><time>2026-04-09T12:54:31.377Z</time></trkpt><trkpt lat="42.995105" lon="13.30083"><ele>759.0</ele><time>2026-04-09T12:54:32.374Z</time></trkpt><trkpt lat="42.9951733" lon="13.3006633"><ele>765.0</ele><time>2026-04-09T12:54:33.373Z</time></trkpt><trkpt lat="42.995235" lon="13.3004883"><ele>765.25</ele><time>2026-04-09T12:54:34.374Z</time></trkpt><trkpt lat="42.9952783" lon="13.3003083"><ele>765.5</ele><time>2026-04-09T12:54:35.378Z</time></trkpt><trkpt lat="42.9953033" lon="13.300135"><ele>765.75</ele><time>2026-04-09T12:54:36.377Z</time></trkpt><trkpt lat="42.9953183" lon="13.2999867"><ele>766.0</ele><time>2026-04-09T12:54:37.377Z</time></trkpt><trkpt lat="42.9953183" lon="13.2998567"><ele>765.8</ele><time>2026-04-09T12:54:38.377Z</time></trkpt><trkpt lat="42.9953" lon="13.2997467"><ele>765.5999999999999</ele><time>2026-04-09T12:54:39.378Z</time></trkpt><trkpt lat="42.9952633" lon="13.2996733"><ele>765.4</ele><time>2026-04-09T12:54:40.377Z</time></trkpt><trkpt lat="42.9951417" lon="13.299625"><ele>765.2</ele><time>2026-04-09T12:54:42.374Z</time></trkpt><trkpt lat="42.99506" lon="13.29965"><ele>765.0</ele><time>2026-04-09T12:54:43.375Z</time></trkpt><trkpt lat="42.9949667" lon="13.2997067"><ele>765.5</ele><time>2026-04-09T12:54:44.374Z</time></trkpt><trkpt lat="42.9948717" lon="13.299755"><ele>766.0</ele><time>2026-04-09T12:54:45.374Z</time></trkpt><trkpt lat="42.9947917" lon="13.2997733"><ele>766.5</ele><time>2026-04-09T12:54:46.378Z</time></trkpt><trkpt lat="42.9947133" lon="13.299695"><ele>767.0</ele><time>2026-04-09T12:54:48.378Z</time></trkpt><trkpt lat="42.994715" lon="13.2995917"><ele>767.5</ele><time>2026-04-09T12:54:49.378Z</time></trkpt><trkpt lat="42.9946933" lon="13.299495"><ele>768.0</ele><time>2026-04-09T12:54:50.378Z</time></trkpt><trkpt lat="42.9946617" lon="13.299375"><ele>768.0</ele><time>2026-04-09T12:54:51.377Z</time></trkpt><trkpt lat="42.9946083" lon="13.2992717"><ele>768.0</ele><time>2026-04-09T12:54:52.377Z</time></trkpt><trkpt lat="42.99453" lon="13.299195"><ele>768.0</ele><time>2026-04-09T12:54:53.377Z</time></trkpt><trkpt lat="42.9944333" lon="13.2991483"><ele>768.0</ele><time>2026-04-09T12:54:54.374Z</time></trkpt><trkpt lat="42.9943217" lon="13.2991283"><ele>768.0</ele><time>2026-04-09T12:54:55.377Z</time></trkpt><trkpt lat="42.9942133" lon="13.29909"><ele>767.5</ele><time>2026-04-09T12:54:56.378Z</time></trkpt><trkpt lat="42.9941133" lon="13.2990383"><ele>767.0</ele><time>2026-04-09T12:54:57.375Z</time></trkpt><trkpt lat="42.9940133" lon="13.2989617"><ele>766.5</ele><time>2026-04-09T12:54:58.381Z</time></trkpt><trkpt lat="42.9939183" lon="13.2988567"><ele>766.0</ele><time>2026-04-09T12:54:59.377Z</time></trkpt><trkpt lat="42.9938267" lon="13.2987417"><ele>768.5</ele><time>2026-04-09T12:55:00.378Z</time></trkpt><trkpt lat="42.9937333" lon="13.29862"><ele>771.0</ele><time>2026-04-09T12:55:01.378Z</time></trkpt><trkpt lat="42.9936417" lon="13.2984967"><ele>773.5</ele><time>2026-04-09T12:55:02.376Z</time></trkpt><trkpt lat="42.9935517" lon="13.2983683"><ele>776.0</ele><time>2026-04-09T12:55:03.376Z</time></trkpt><trkpt lat="42.9934717" lon="13.2982317"><ele>776.0</ele><time>2026-04-09T12:55:04.377Z</time></trkpt><trkpt lat="42.9933967" lon="13.2980867"><ele>776.0</ele><time>2026-04-09T12:55:05.376Z</time></trkpt><trkpt lat="42.9933283" lon="13.2979367"><ele>776.0</ele><time>2026-04-09T12:55:06.375Z</time></trkpt><trkpt lat="42.993255" lon="13.2977833"><ele>776.0</ele><time>2026-04-09T12:55:07.376Z</time></trkpt><trkpt lat="42.9931767" lon="13.29763"><ele>777.75</ele><time>2026-04-09T12:55:08.376Z</time></trkpt><trkpt lat="42.9931" lon="13.2974767"><ele>779.5</ele><time>2026-04-09T12:55:09.375Z</time></trkpt><trkpt lat="42.9930283" lon="13.2973233"><ele>781.25</ele><time>2026-04-09T12:55:10.376Z</time></trkpt><trkpt lat="42.992955" lon="13.297175"><ele>783.0</ele><time>2026-04-09T12:55:11.375Z</time></trkpt><trkpt lat="42.992885" lon="13.2970333"><ele>785.4</ele><time>2026-04-09T12:55:12.375Z</time></trkpt><trkpt lat="42.99282" lon="13.296905"><ele>787.8</ele><time>2026-04-09T12:55:13.376Z</time></trkpt><trkpt lat="42.9927683" lon="13.2967917"><ele>790.2</ele><time>2026-04-09T12:55:14.376Z</time></trkpt><trkpt lat="42.9927217" lon="13.2966983"><ele>792.6</ele><time>2026-04-09T12:55:15.378Z</time></trkpt><trkpt lat="42.9926833" lon="13.2966167"><ele>795.0</ele><time>2026-04-09T12:55:16.378Z</time></trkpt><trkpt lat="42.9926217" lon="13.2965083"><ele>795.0</ele><time>2026-04-09T12:55:18.378Z</time></trkpt><trkpt lat="42.9925567" lon="13.29645"><ele>795.0</ele><time>2026-04-09T12:55:30.376Z</time></trkpt><trkpt lat="42.9925117" lon="13.29638"><ele>795.0</ele><time>2026-04-09T12:55:31.378Z</time></trkpt><trkpt lat="42.9924617" lon="13.2963"><ele>795.0</ele><time>2026-04-09T12:55:32.377Z</time></trkpt><trkpt lat="42.99241" lon="13.2962117"><ele>795.0</ele><time>2026-04-09T12:55:33.376Z</time></trkpt><trkpt lat="42.9923567" lon="13.2961167"><ele>795.0</ele><time>2026-04-09T12:55:34.378Z</time></trkpt><trkpt lat="42.9922983" lon="13.2960183"><ele>796.2</ele><time>2026-04-09T12:55:35.378Z</time></trkpt><trkpt lat="42.9922383" lon="13.29592"><ele>797.4</ele><time>2026-04-09T12:55:36.378Z</time></trkpt><trkpt lat="42.9921767" lon="13.2958167"><ele>798.5999999999999</ele><time>2026-04-09T12:55:37.377Z</time></trkpt><trkpt lat="42.9921167" lon="13.295715"><ele>799.8</ele><time>2026-04-09T12:55:38.378Z</time></trkpt><trkpt lat="42.99205" lon="13.2956083"><ele>801.0</ele><time>2026-04-09T12:55:39.378Z</time></trkpt><trkpt lat="42.99198" lon="13.2955033"><ele>801.5999999999999</ele><time>2026-04-09T12:55:40.378Z</time></trkpt><trkpt lat="42.9919117" lon="13.2953967"><ele>802.2</ele><time>2026-04-09T12:55:41.374Z</time></trkpt><trkpt lat="42.9918383" lon="13.2952983"><ele>802.8</ele><time>2026-04-09T12:55:42.374Z</time></trkpt><trkpt lat="42.9917633" lon="13.2952"><ele>803.4000000000001</ele><time>2026-04-09T12:55:43.374Z</time></trkpt><trkpt lat="42.9916883" lon="13.2951083"><ele>804.0</ele><time>2026-04-09T12:55:44.375Z</time></trkpt><trkpt lat="42.991615" lon="13.29503"><ele>804.0</ele><time>2026-04-09T12:55:45.378Z</time></trkpt><trkpt lat="42.99153" lon="13.2949667"><ele>804.0</ele><time>2026-04-09T12:55:46.374Z</time></trkpt><trkpt lat="42.9914483" lon="13.2949233"><ele>804.0</ele><time>2026-04-09T12:55:47.377Z</time></trkpt><trkpt lat="42.991365" lon="13.2948883"><ele>804.0</ele><time>2026-04-09T12:55:48.378Z</time></trkpt><trkpt lat="42.9912883" lon="13.2948633"><ele>804.0</ele><time>2026-04-09T12:55:49.374Z</time></trkpt><trkpt lat="42.99122" lon="13.2948483"><ele>804.0</ele><time>2026-04-09T12:55:50.375Z</time></trkpt><trkpt lat="42.9911217" lon="13.2948633"><ele>804.0</ele><time>2026-04-09T12:55:52.376Z</time></trkpt><trkpt lat="42.991085" lon="13.2949567"><ele>804.0</ele><time>2026-04-09T12:55:54.375Z</time></trkpt><trkpt lat="42.9910733" lon="13.2951117"><ele>804.0</ele><time>2026-04-09T12:55:56.376Z</time></trkpt><trkpt lat="42.99103" lon="13.2952533"><ele>804.0</ele><time>2026-04-09T12:55:58.375Z</time></trkpt><trkpt lat="42.9909417" lon="13.295315"><ele>804.0</ele><time>2026-04-09T12:56:00.374Z</time></trkpt><trkpt lat="42.9908767" lon="13.2953083"><ele>804.6</ele><time>2026-04-09T12:56:01.377Z</time></trkpt><trkpt lat="42.9907967" lon="13.2953"><ele>805.2</ele><time>2026-04-09T12:56:02.377Z</time></trkpt><trkpt lat="42.9907117" lon="13.2952817"><ele>805.8000000000001</ele><time>2026-04-09T12:56:03.377Z</time></trkpt><trkpt lat="42.9906217" lon="13.29526"><ele>806.4000000000001</ele><time>2026-04-09T12:56:04.378Z</time></trkpt><trkpt lat="42.9905283" lon="13.295235"><ele>807.0</ele><time>2026-04-09T12:56:05.378Z</time></trkpt><trkpt lat="42.9904233" lon="13.29522"><ele>807.0</ele><time>2026-04-09T12:56:06.377Z</time></trkpt><trkpt lat="42.9903133" lon="13.2952167"><ele>807.0</ele><time>2026-04-09T12:56:07.377Z</time></trkpt><trkpt lat="42.9902" lon="13.29522"><ele>807.0</ele><time>2026-04-09T12:56:08.377Z</time></trkpt><trkpt lat="42.9900817" lon="13.295225"><ele>807.0</ele><time>2026-04-09T12:56:09.377Z</time></trkpt><trkpt lat="42.9899633" lon="13.2952317"><ele>808.6</ele><time>2026-04-09T12:56:10.378Z</time></trkpt><trkpt lat="42.98985" lon="13.2952433"><ele>810.2</ele><time>2026-04-09T12:56:11.378Z</time></trkpt><trkpt lat="42.98974" lon="13.2952617"><ele>811.8</ele><time>2026-04-09T12:56:12.375Z</time></trkpt><trkpt lat="42.98963" lon="13.2952983"><ele>813.4</ele><time>2026-04-09T12:56:13.374Z</time></trkpt><trkpt lat="42.9895267" lon="13.295355"><ele>815.0</ele><time>2026-04-09T12:56:14.374Z</time></trkpt><trkpt lat="42.9894267" lon="13.29542"><ele>815.0000000000001</ele><time>2026-04-09T12:56:15.374Z</time></trkpt><trkpt lat="42.9893383" lon="13.29549"><ele>815.0</ele><time>2026-04-09T12:56:16.374Z</time></trkpt><trkpt lat="42.9892583" lon="13.2955483"><ele>815.0</ele><time>2026-04-09T12:56:17.375Z</time></trkpt><trkpt lat="42.98918" lon="13.2955867"><ele>815.0</ele><time>2026-04-09T12:56:18.379Z</time></trkpt><trkpt lat="42.9890983" lon="13.2955883"><ele>815.0000000000001</ele><time>2026-04-09T12:56:20.377Z</time></trkpt><trkpt lat="42.9890333" lon="13.29555"><ele>815.0</ele><time>2026-04-09T12:56:22.377Z</time></trkpt><trkpt lat="42.9889583" lon="13.2954767"><ele>817.6</ele><time>2026-04-09T12:56:24.378Z</time></trkpt><trkpt lat="42.9888783" lon="13.29538"><ele>820.2</ele><time>2026-04-09T12:56:26.378Z</time></trkpt><trkpt lat="42.9888167" lon="13.295295"><ele>822.8</ele><time>2026-04-09T12:56:28.374Z</time></trkpt><trkpt lat="42.9887333" lon="13.29523"><ele>825.4</ele><time>2026-04-09T12:56:30.373Z</time></trkpt><trkpt lat="42.9886483" lon="13.2951917"><ele>828.0</ele><time>2026-04-09T12:56:32.378Z</time></trkpt><trkpt lat="42.9885567" lon="13.29518"><ele>828.0</ele><time>2026-04-09T12:56:34.378Z</time></trkpt><trkpt lat="42.9884433" lon="13.295185"><ele>828.0</ele><time>2026-04-09T12:56:36.378Z</time></trkpt><trkpt lat="42.98838" lon="13.2951933"><ele>828.0</ele><time>2026-04-09T12:56:37.378Z</time></trkpt><trkpt lat="42.9883117" lon="13.2952083"><ele>828.0</ele><time>2026-04-09T12:56:38.378Z</time></trkpt><trkpt lat="42.9882367" lon="13.2952233"><ele>828.0</ele><time>2026-04-09T12:56:39.377Z</time></trkpt><trkpt lat="42.9881617" lon="13.2952333"><ele>828.0</ele><time>2026-04-09T12:56:40.378Z</time></trkpt><trkpt lat="42.9880783" lon="13.2952367"><ele>830.4</ele><time>2026-04-09T12:56:41.377Z</time></trkpt><trkpt lat="42.9879883" lon="13.29523"><ele>832.8</ele><time>2026-04-09T12:56:42.378Z</time></trkpt><trkpt lat="42.9878917" lon="13.2952167"><ele>835.2</ele><time>2026-04-09T12:56:43.378Z</time></trkpt><trkpt lat="42.98779" lon="13.2951867"><ele>837.6</ele><time>2026-04-09T12:56:44.377Z</time></trkpt><trkpt lat="42.9876817" lon="13.295155"><ele>840.0</ele><time>2026-04-09T12:56:45.378Z</time></trkpt><trkpt lat="42.9875733" lon="13.29512"><ele>842.2</ele><time>2026-04-09T12:56:46.376Z</time></trkpt><trkpt lat="42.98747" lon="13.295085"><ele>844.4</ele><time>2026-04-09T12:56:47.376Z</time></trkpt><trkpt lat="42.9873733" lon="13.2950567"><ele>846.5999999999999</ele><time>2026-04-09T12:56:48.376Z</time></trkpt><trkpt lat="42.987275" lon="13.295035"><ele>848.8</ele><time>2026-04-09T12:56:49.378Z</time></trkpt><trkpt lat="42.9871833" lon="13.29501"><ele>851.0</ele><time>2026-04-09T12:56:50.377Z</time></trkpt><trkpt lat="42.987095" lon="13.294985"><ele>851.0000000000001</ele><time>2026-04-09T12:56:51.376Z</time></trkpt><trkpt lat="42.9870133" lon="13.2949633"><ele>851.0</ele><time>2026-04-09T12:56:52.376Z</time></trkpt><trkpt lat="42.98693" lon="13.2949467"><ele>851.0</ele><time>2026-04-09T12:56:53.375Z</time></trkpt><trkpt lat="42.9868467" lon="13.2949233"><ele>851.0</ele><time>2026-04-09T12:56:54.377Z</time></trkpt><trkpt lat="42.9867567" lon="13.2948917"><ele>851.0000000000001</ele><time>2026-04-09T12:56:55.377Z</time></trkpt><trkpt lat="42.9866683" lon="13.2948583"><ele>851.0</ele><time>2026-04-09T12:56:56.374Z</time></trkpt><trkpt lat="42.9865933" lon="13.29483"><ele>852.3333333333334</ele><time>2026-04-09T12:56:57.375Z</time></trkpt><trkpt lat="42.9865283" lon="13.2948033"><ele>853.6666666666667</ele><time>2026-04-09T12:56:58.376Z</time></trkpt><trkpt lat="42.9864667" lon="13.2947717"><ele>855.0</ele><time>2026-04-09T12:56:59.377Z</time></trkpt><trkpt lat="42.9863667" lon="13.2946917"><ele>856.3333333333333</ele><time>2026-04-09T12:57:01.376Z</time></trkpt><trkpt lat="42.986285" lon="13.2946117"><ele>857.6666666666666</ele><time>2026-04-09T12:57:03.376Z</time></trkpt><trkpt lat="42.9862167" lon="13.2946317"><ele>859.0</ele><time>2026-04-09T12:57:06.375Z</time></trkpt><trkpt lat="42.986195" lon="13.2947367"><ele>859.0</ele><time>2026-04-09T12:57:08.377Z</time></trkpt><trkpt lat="42.9861733" lon="13.2948883"><ele>859.0</ele><time>2026-04-09T12:57:10.377Z</time></trkpt><trkpt lat="42.9861417" lon="13.2950483"><ele>859.0</ele><time>2026-04-09T12:57:12.375Z</time></trkpt><trkpt lat="42.9860917" lon="13.2951967"><ele>859.0</ele><time>2026-04-09T12:57:14.373Z</time></trkpt><trkpt lat="42.98603" lon="13.29532"><ele>859.0</ele><time>2026-04-09T12:57:16.377Z</time></trkpt><trkpt lat="42.98595" lon="13.2953967"><ele>859.0000000000001</ele><time>2026-04-09T12:57:18.374Z</time></trkpt><trkpt lat="42.9858633" lon="13.2954667"><ele>859.0000000000001</ele><time>2026-04-09T12:57:20.375Z</time></trkpt><trkpt lat="42.9858183" lon="13.2955617"><ele>859.0</ele><time>2026-04-09T12:57:22.374Z</time></trkpt><trkpt lat="42.9858517" lon="13.2957183"><ele>859.0</ele><time>2026-04-09T12:57:24.374Z</time></trkpt><trkpt lat="42.9858883" lon="13.2958233"><ele>858.8333333333333</ele><time>2026-04-09T12:57:25.377Z</time></trkpt><trkpt lat="42.985935" lon="13.2959233"><ele>858.6666666666666</ele><time>2026-04-09T12:57:26.374Z</time></trkpt><trkpt lat="42.9859783" lon="13.29603"><ele>858.5</ele><time>2026-04-09T12:57:27.377Z</time></trkpt><trkpt lat="42.986015" lon="13.2961367"><ele>858.3333333333333</ele><time>2026-04-09T12:57:28.377Z</time></trkpt><trkpt lat="42.9860433" lon="13.2962467"><ele>858.1666666666666</ele><time>2026-04-09T12:57:29.374Z</time></trkpt><trkpt lat="42.9860633" lon="13.29635"><ele>858.0</ele><time>2026-04-09T12:57:30.377Z</time></trkpt><trkpt lat="42.9860733" lon="13.296435"><ele>858.0</ele><time>2026-04-09T12:57:31.373Z</time></trkpt><trkpt lat="42.98609" lon="13.2965567"><ele>858.0</ele><time>2026-04-09T12:57:33.373Z</time></trkpt><trkpt lat="42.9860883" lon="13.29665"><ele>858.0</ele><time>2026-04-09T12:57:36.375Z</time></trkpt><trkpt lat="42.9860067" lon="13.2966883"><ele>858.0</ele><time>2026-04-09T12:57:43.373Z</time></trkpt><trkpt lat="42.98593" lon="13.29668"><ele>858.0</ele><time>2026-04-09T12:57:45.374Z</time></trkpt><trkpt lat="42.985845" lon="13.2966733"><ele>858.0</ele><time>2026-04-09T12:57:47.375Z</time></trkpt><trkpt lat="42.9857417" lon="13.2966833"><ele>859.4</ele><time>2026-04-09T12:57:49.374Z</time></trkpt><trkpt lat="42.9856017" lon="13.2966917"><ele>860.8</ele><time>2026-04-09T12:57:51.373Z</time></trkpt><trkpt lat="42.98553" lon="13.2966867"><ele>862.2</ele><time>2026-04-09T12:57:52.375Z</time></trkpt><trkpt lat="42.9854583" lon="13.2966867"><ele>863.6</ele><time>2026-04-09T12:57:53.375Z</time></trkpt><trkpt lat="42.9853783" lon="13.2966883"><ele>865.0</ele><time>2026-04-09T12:57:54.376Z</time></trkpt><trkpt lat="42.9852883" lon="13.2966883"><ele>865.0</ele><time>2026-04-09T12:57:55.377Z</time></trkpt><trkpt lat="42.9851983" lon="13.2966867"><ele>865.0</ele><time>2026-04-09T12:57:56.377Z</time></trkpt><trkpt lat="42.9851167" lon="13.296695"><ele>865.0</ele><time>2026-04-09T12:57:57.374Z</time></trkpt><trkpt lat="42.9850217" lon="13.29672"><ele>865.0</ele><time>2026-04-09T12:57:58.377Z</time></trkpt><trkpt lat="42.9849233" lon="13.2967567"><ele>865.0</ele><time>2026-04-09T12:57:59.377Z</time></trkpt><trkpt lat="42.9848267" lon="13.2968"><ele>866.0</ele><time>2026-04-09T12:58:00.377Z</time></trkpt><trkpt lat="42.9847283" lon="13.2968467"><ele>867.0</ele><time>2026-04-09T12:58:01.377Z</time></trkpt><trkpt lat="42.98463" lon="13.2968967"><ele>868.0</ele><time>2026-04-09T12:58:02.376Z</time></trkpt><trkpt lat="42.9845317" lon="13.2969517"><ele>869.0</ele><time>2026-04-09T12:58:03.379Z</time></trkpt><trkpt lat="42.9844433" lon="13.2970133"><ele>870.0</ele><time>2026-04-09T12:58:04.377Z</time></trkpt><trkpt lat="42.98436" lon="13.2970933"><ele>870.0</ele><time>2026-04-09T12:58:05.378Z</time></trkpt><trkpt lat="42.9842883" lon="13.297185"><ele>870.0</ele><time>2026-04-09T12:58:06.375Z</time></trkpt><trkpt lat="42.9842217" lon="13.2972833"><ele>870.0</ele><time>2026-04-09T12:58:07.377Z</time></trkpt><trkpt lat="42.9841517" lon="13.2973817"><ele>870.0</ele><time>2026-04-09T12:58:08.375Z</time></trkpt><trkpt lat="42.9840867" lon="13.2974683"><ele>870.0</ele><time>2026-04-09T12:58:09.377Z</time></trkpt><trkpt lat="42.9840117" lon="13.2975517"><ele>869.6666666666666</ele><time>2026-04-09T12:58:10.378Z</time></trkpt><trkpt lat="42.98394" lon="13.29763"><ele>869.3333333333333</ele><time>2026-04-09T12:58:11.377Z</time></trkpt><trkpt lat="42.9838817" lon="13.29771"><ele>869.0</ele><time>2026-04-09T12:58:12.372Z</time></trkpt><trkpt lat="42.9838333" lon="13.2977933"><ele>868.6666666666666</ele><time>2026-04-09T12:58:13.373Z</time></trkpt><trkpt lat="42.983795" lon="13.2978733"><ele>868.3333333333333</ele><time>2026-04-09T12:58:14.382Z</time></trkpt><trkpt lat="42.9837617" lon="13.29795"><ele>868.0</ele><time>2026-04-09T12:58:15.377Z</time></trkpt><trkpt lat="42.9837017" lon="13.2980867"><ele>868.0</ele><time>2026-04-09T12:58:17.377Z</time></trkpt><trkpt lat="42.9836667" lon="13.2982267"><ele>868.0</ele><time>2026-04-09T12:58:19.374Z</time></trkpt><trkpt lat="42.98365" lon="13.29836"><ele>868.0</ele><time>2026-04-09T12:58:21.375Z</time></trkpt><trkpt lat="42.983645" lon="13.2984983"><ele>868.0</ele><time>2026-04-09T12:58:23.374Z</time></trkpt><trkpt lat="42.9836383" lon="13.298655"><ele>868.0</ele><time>2026-04-09T12:58:25.375Z</time></trkpt><trkpt lat="42.983625" lon="13.298815"><ele>865.4999999999999</ele><time>2026-04-09T12:58:27.375Z</time></trkpt><trkpt lat="42.9835917" lon="13.2989817"><ele>863.0</ele><time>2026-04-09T12:58:29.374Z</time></trkpt><trkpt lat="42.9835633" lon="13.299065"><ele>860.5</ele><time>2026-04-09T12:58:30.375Z</time></trkpt><trkpt lat="42.983525" lon="13.2991383"><ele>858.0</ele><time>2026-04-09T12:58:31.373Z</time></trkpt><trkpt lat="42.9834833" lon="13.2992067"><ele>855.4999999999999</ele><time>2026-04-09T12:58:32.374Z</time></trkpt><trkpt lat="42.983435" lon="13.2992767"><ele>853.0</ele><time>2026-04-09T12:58:33.378Z</time></trkpt><trkpt lat="42.983375" lon="13.29935"><ele>851.8</ele><time>2026-04-09T12:58:34.376Z</time></trkpt><trkpt lat="42.9833033" lon="13.2994317"><ele>850.5999999999999</ele><time>2026-04-09T12:58:35.374Z</time></trkpt><trkpt lat="42.98323" lon="13.29952"><ele>849.4000000000001</ele><time>2026-04-09T12:58:36.375Z</time></trkpt><trkpt lat="42.9831567" lon="13.2996183"><ele>848.2</ele><time>2026-04-09T12:58:37.375Z</time></trkpt><trkpt lat="42.9830883" lon="13.2997283"><ele>847.0</ele><time>2026-04-09T12:58:38.377Z</time></trkpt><trkpt lat="42.983025" lon="13.2998367"><ele>846.9999999999999</ele><time>2026-04-09T12:58:39.376Z</time></trkpt><trkpt lat="42.9829617" lon="13.2999367"><ele>847.0</ele><time>2026-04-09T12:58:40.377Z</time></trkpt><trkpt lat="42.9829017" lon="13.3000117"><ele>847.0</ele><time>2026-04-09T12:58:41.376Z</time></trkpt><trkpt lat="42.9828367" lon="13.3000833"><ele>847.0</ele><time>2026-04-09T12:58:42.376Z</time></trkpt><trkpt lat="42.9827667" lon="13.3001583"><ele>846.9999999999999</ele><time>2026-04-09T12:58:43.376Z</time></trkpt><trkpt lat="42.98269" lon="13.3002367"><ele>847.0</ele><time>2026-04-09T12:58:44.374Z</time></trkpt><trkpt lat="42.9826167" lon="13.3003233"><ele>846.9999999999999</ele><time>2026-04-09T12:58:45.375Z</time></trkpt><trkpt lat="42.9825467" lon="13.3004167"><ele>847.0</ele><time>2026-04-09T12:58:46.375Z</time></trkpt><trkpt lat="42.9824783" lon="13.300515"><ele>847.0</ele><time>2026-04-09T12:58:47.376Z</time></trkpt><trkpt lat="42.9824183" lon="13.3006017"><ele>847.0</ele><time>2026-04-09T12:58:48.374Z</time></trkpt><trkpt lat="42.98236" lon="13.30068"><ele>846.9999999999999</ele><time>2026-04-09T12:58:49.374Z</time></trkpt><trkpt lat="42.982295" lon="13.3007367"><ele>847.0</ele><time>2026-04-09T12:58:50.377Z</time></trkpt><trkpt lat="42.98222" lon="13.30078"><ele>847.6666666666666</ele><time>2026-04-09T12:58:51.376Z</time></trkpt><trkpt lat="42.9821417" lon="13.3008267"><ele>848.3333333333333</ele><time>2026-04-09T12:58:52.373Z</time></trkpt><trkpt lat="42.9820567" lon="13.30087"><ele>849.0</ele><time>2026-04-09T12:58:53.373Z</time></trkpt><trkpt lat="42.981975" lon="13.300915"><ele>849.6666666666667</ele><time>2026-04-09T12:58:54.375Z</time></trkpt><trkpt lat="42.9818983" lon="13.300965"><ele>850.3333333333334</ele><time>2026-04-09T12:58:55.375Z</time></trkpt><trkpt lat="42.9818233" lon="13.3010083"><ele>851.0</ele><time>2026-04-09T12:58:56.374Z</time></trkpt><trkpt lat="42.9817533" lon="13.3010533"><ele>851.0000000000001</ele><time>2026-04-09T12:58:57.375Z</time></trkpt><trkpt lat="42.9816883" lon="13.3011183"><ele>851.0</ele><time>2026-04-09T12:58:58.376Z</time></trkpt><trkpt lat="42.9816333" lon="13.3011917"><ele>851.0</ele><time>2026-04-09T12:58:59.374Z</time></trkpt><trkpt lat="42.98159" lon="13.30127"><ele>851.0</ele><time>2026-04-09T12:59:00.378Z</time></trkpt><trkpt lat="42.9815467" lon="13.3013417"><ele>851.0000000000001</ele><time>2026-04-09T12:59:01.376Z</time></trkpt><trkpt lat="42.98149" lon="13.3014133"><ele>851.0</ele><time>2026-04-09T12:59:02.375Z</time></trkpt><trkpt lat="42.9814183" lon="13.3014817"><ele>851.1999999999999</ele><time>2026-04-09T12:59:03.374Z</time></trkpt><trkpt lat="42.9813383" lon="13.3015583"><ele>851.4</ele><time>2026-04-09T12:59:04.375Z</time></trkpt><trkpt lat="42.9812633" lon="13.30164"><ele>851.6</ele><time>2026-04-09T12:59:05.374Z</time></trkpt><trkpt lat="42.9811883" lon="13.301725"><ele>851.8</ele><time>2026-04-09T12:59:06.374Z</time></trkpt><trkpt lat="42.9811183" lon="13.301795"><ele>852.0</ele><time>2026-04-09T12:59:07.375Z</time></trkpt><trkpt lat="42.981045" lon="13.3018533"><ele>852.0</ele><time>2026-04-09T12:59:08.374Z</time></trkpt><trkpt lat="42.9809667" lon="13.3019067"><ele>852.0</ele><time>2026-04-09T12:59:09.373Z</time></trkpt><trkpt lat="42.9808867" lon="13.3019583"><ele>852.0</ele><time>2026-04-09T12:59:10.374Z</time></trkpt><trkpt lat="42.9808017" lon="13.3020083"><ele>852.0</ele><time>2026-04-09T12:59:11.374Z</time></trkpt><trkpt lat="42.98072" lon="13.3020783"><ele>852.0</ele><time>2026-04-09T12:59:12.373Z</time></trkpt><trkpt lat="42.9806383" lon="13.3021583"><ele>850.8</ele><time>2026-04-09T12:59:13.374Z</time></trkpt><trkpt lat="42.9805583" lon="13.302235"><ele>849.6</ele><time>2026-04-09T12:59:14.373Z</time></trkpt><trkpt lat="42.9804883" lon="13.3022783"><ele>848.4</ele><time>2026-04-09T12:59:15.374Z</time></trkpt><trkpt lat="42.9804067" lon="13.302325"><ele>847.1999999999999</ele><time>2026-04-09T12:59:16.374Z</time></trkpt><trkpt lat="42.98032" lon="13.302365"><ele>846.0</ele><time>2026-04-09T12:59:17.375Z</time></trkpt><trkpt lat="42.98023" lon="13.3024067"><ele>846.0</ele><time>2026-04-09T12:59:18.374Z</time></trkpt><trkpt lat="42.980135" lon="13.3024483"><ele>846.0</ele><time>2026-04-09T12:59:19.375Z</time></trkpt><trkpt lat="42.98005" lon="13.3024933"><ele>846.0</ele><time>2026-04-09T12:59:20.375Z</time></trkpt><trkpt lat="42.9799717" lon="13.302545"><ele>846.0</ele><time>2026-04-09T12:59:21.374Z</time></trkpt><trkpt lat="42.9798967" lon="13.30258"><ele>846.0</ele><time>2026-04-09T12:59:22.375Z</time></trkpt><trkpt lat="42.979825" lon="13.3026117"><ele>846.0</ele><time>2026-04-09T12:59:23.375Z</time></trkpt><trkpt lat="42.9797583" lon="13.3026367"><ele>846.3333333333334</ele><time>2026-04-09T12:59:24.375Z</time></trkpt><trkpt lat="42.9796433" lon="13.3027017"><ele>846.6666666666667</ele><time>2026-04-09T12:59:26.375Z</time></trkpt><trkpt lat="42.979585" lon="13.302765"><ele>847.0</ele><time>2026-04-09T12:59:27.376Z</time></trkpt><trkpt lat="42.9795417" lon="13.30286"><ele>847.3333333333334</ele><time>2026-04-09T12:59:28.373Z</time></trkpt><trkpt lat="42.9794967" lon="13.3029583"><ele>847.6666666666667</ele><time>2026-04-09T12:59:29.375Z</time></trkpt><trkpt lat="42.9794517" lon="13.3030533"><ele>848.0</ele><time>2026-04-09T12:59:30.374Z</time></trkpt><trkpt lat="42.979405" lon="13.30315"><ele>845.8333333333334</ele><time>2026-04-09T12:59:31.375Z</time></trkpt><trkpt lat="42.9793517" lon="13.3032417"><ele>843.6666666666667</ele><time>2026-04-09T12:59:32.375Z</time></trkpt><trkpt lat="42.9793033" lon="13.303325"><ele>841.5</ele><time>2026-04-09T12:59:33.374Z</time></trkpt><trkpt lat="42.9792617" lon="13.3034067"><ele>839.3333333333333</ele><time>2026-04-09T12:59:34.375Z</time></trkpt><trkpt lat="42.97922" lon="13.303485"><ele>837.1666666666666</ele><time>2026-04-09T12:59:35.374Z</time></trkpt><trkpt lat="42.9791733" lon="13.3035633"><ele>835.0</ele><time>2026-04-09T12:59:36.375Z</time></trkpt><trkpt lat="42.9791217" lon="13.3036483"><ele>835.0</ele><time>2026-04-09T12:59:37.375Z</time></trkpt><trkpt lat="42.9790767" lon="13.3037233"><ele>835.0</ele><time>2026-04-09T12:59:38.375Z</time></trkpt><trkpt lat="42.9790017" lon="13.3038533"><ele>835.0</ele><time>2026-04-09T12:59:40.373Z</time></trkpt><trkpt lat="42.9789317" lon="13.3039767"><ele>835.0</ele><time>2026-04-09T12:59:42.374Z</time></trkpt><trkpt lat="42.9788717" lon="13.3040883"><ele>835.0</ele><time>2026-04-09T12:59:44.375Z</time></trkpt><trkpt lat="42.9788367" lon="13.30418"><ele>834.9999999999999</ele><time>2026-04-09T12:59:46.376Z</time></trkpt><trkpt lat="42.9788" lon="13.3042783"><ele>835.0</ele><time>2026-04-09T12:59:49.377Z</time></trkpt><trkpt lat="42.9787533" lon="13.30436"><ele>835.0</ele><time>2026-04-09T12:59:52.376Z</time></trkpt><trkpt lat="42.9787167" lon="13.3044583"><ele>835.0</ele><time>2026-04-09T12:59:55.375Z</time></trkpt><trkpt lat="42.9786967" lon="13.3045717"><ele>834.9999999999999</ele><time>2026-04-09T12:59:58.374Z</time></trkpt><trkpt lat="42.9786783" lon="13.3046983"><ele>835.0</ele><time>2026-04-09T13:00:01.374Z</time></trkpt><trkpt lat="42.9786667" lon="13.3047867"><ele>834.2857142857143</ele><time>2026-04-09T13:00:03.375Z</time></trkpt><trkpt lat="42.9786583" lon="13.3048783"><ele>833.5714285714286</ele><time>2026-04-09T13:00:05.375Z</time></trkpt><trkpt lat="42.9786433" lon="13.304975"><ele>832.8571428571429</ele><time>2026-04-09T13:00:07.374Z</time></trkpt><trkpt lat="42.9786467" lon="13.30507"><ele>832.1428571428571</ele><time>2026-04-09T13:00:09.374Z</time></trkpt><trkpt lat="42.9786567" lon="13.3051583"><ele>831.4285714285714</ele><time>2026-04-09T13:00:11.374Z</time></trkpt><trkpt lat="42.978685" lon="13.3052667"><ele>830.7142857142858</ele><time>2026-04-09T13:00:13.374Z</time></trkpt><trkpt lat="42.9787283" lon="13.3053467"><ele>830.0</ele><time>2026-04-09T13:00:15.375Z</time></trkpt><trkpt lat="42.978795" lon="13.3053933"><ele>830.0000000000001</ele><time>2026-04-09T13:00:17.378Z</time></trkpt><trkpt lat="42.9788717" lon="13.30542"><ele>830.0</ele><time>2026-04-09T13:00:47.378Z</time></trkpt><trkpt lat="42.9789367" lon="13.3053733"><ele>830.0</ele><time>2026-04-09T13:00:50.375Z</time></trkpt><trkpt lat="42.9790133" lon="13.305325"><ele>830.0</ele><time>2026-04-09T13:00:52.378Z</time></trkpt><trkpt lat="42.9790733" lon="13.3052983"><ele>830.0000000000001</ele><time>2026-04-09T13:00:54.376Z</time></trkpt><trkpt lat="42.9791383" lon="13.30528"><ele>830.0</ele><time>2026-04-09T13:00:56.378Z</time></trkpt><trkpt lat="42.97922" lon="13.3052333"><ele>828.5000000000001</ele><time>2026-04-09T13:00:58.375Z</time></trkpt><trkpt lat="42.979295" lon="13.3051783"><ele>827.0</ele><time>2026-04-09T13:01:00.377Z</time></trkpt><trkpt lat="42.97935" lon="13.30512"><ele>825.5</ele><time>2026-04-09T13:01:02.376Z</time></trkpt><trkpt lat="42.9794117" lon="13.3050383"><ele>824.0</ele><time>2026-04-09T13:01:05.375Z</time></trkpt><trkpt lat="42.979475" lon="13.3049467"><ele>822.5000000000001</ele><time>2026-04-09T13:01:08.376Z</time></trkpt><trkpt lat="42.9795267" lon="13.30488"><ele>821.0</ele><time>2026-04-09T13:01:10.376Z</time></trkpt><trkpt lat="42.97958" lon="13.3048217"><ele>820.6666666666667</ele><time>2026-04-09T13:01:12.375Z</time></trkpt><trkpt lat="42.9796433" lon="13.30473"><ele>820.3333333333334</ele><time>2026-04-09T13:01:15.378Z</time></trkpt><trkpt lat="42.97969" lon="13.3046717"><ele>820.0</ele><time>2026-04-09T13:01:17.378Z</time></trkpt><trkpt lat="42.9797417" lon="13.3046133"><ele>819.6666666666667</ele><time>2026-04-09T13:01:19.375Z</time></trkpt><trkpt lat="42.9798067" lon="13.3045483"><ele>819.3333333333334</ele><time>2026-04-09T13:01:21.375Z</time></trkpt><trkpt lat="42.9798783" lon="13.3044883"><ele>819.0</ele><time>2026-04-09T13:01:23.375Z</time></trkpt><trkpt lat="42.979935" lon="13.304425"><ele>819.0</ele><time>2026-04-09T13:01:25.374Z</time></trkpt><trkpt lat="42.9800033" lon="13.30436"><ele>819.0</ele><time>2026-04-09T13:01:28.373Z</time></trkpt><trkpt lat="42.9800717" lon="13.304295"><ele>819.0</ele><time>2026-04-09T13:01:31.375Z</time></trkpt><trkpt lat="42.980165" lon="13.3042783"><ele>819.0</ele><time>2026-04-09T13:01:34.375Z</time></trkpt><trkpt lat="42.9802367" lon="13.304225"><ele>819.0</ele><time>2026-04-09T13:01:37.375Z</time></trkpt><trkpt lat="42.9803083" lon="13.304165"><ele>819.0</ele><time>2026-04-09T13:01:40.374Z</time></trkpt><trkpt lat="42.98038" lon="13.3041017"><ele>819.8000000000001</ele><time>2026-04-09T13:01:42.378Z</time></trkpt><trkpt lat="42.980455" lon="13.304025"><ele>820.6</ele><time>2026-04-09T13:01:44.375Z</time></trkpt><trkpt lat="42.98053" lon="13.30394"><ele>821.4</ele><time>2026-04-09T13:01:46.374Z</time></trkpt><trkpt lat="42.98061" lon="13.3038683"><ele>822.2</ele><time>2026-04-09T13:01:48.374Z</time></trkpt><trkpt lat="42.9806917" lon="13.3037967"><ele>823.0</ele><time>2026-04-09T13:01:50.375Z</time></trkpt><trkpt lat="42.98076" lon="13.3037417"><ele>822.9999999999999</ele><time>2026-04-09T13:01:52.375Z</time></trkpt><trkpt lat="42.9808267" lon="13.3036883"><ele>823.0</ele><time>2026-04-09T13:01:54.374Z</time></trkpt><trkpt lat="42.9809017" lon="13.303635"><ele>823.0</ele><time>2026-04-09T13:01:56.374Z</time></trkpt><trkpt lat="42.9809733" lon="13.3035983"><ele>823.0</ele><time>2026-04-09T13:01:58.373Z</time></trkpt><trkpt lat="42.9810383" lon="13.3035867"><ele>822.9999999999999</ele><time>2026-04-09T13:02:00.379Z</time></trkpt><trkpt lat="42.9811233" lon="13.30358"><ele>823.0</ele><time>2026-04-09T13:02:02.374Z</time></trkpt><trkpt lat="42.981225" lon="13.3035517"><ele>820.0</ele><time>2026-04-09T13:02:04.375Z</time></trkpt><trkpt lat="42.9813317" lon="13.30349"><ele>817.0</ele><time>2026-04-09T13:02:06.377Z</time></trkpt><trkpt lat="42.9814217" lon="13.3034233"><ele>814.0</ele><time>2026-04-09T13:02:08.376Z</time></trkpt><trkpt lat="42.9815083" lon="13.303365"><ele>811.0</ele><time>2026-04-09T13:02:10.375Z</time></trkpt><trkpt lat="42.98159" lon="13.30331"><ele>808.0</ele><time>2026-04-09T13:02:12.375Z</time></trkpt><trkpt lat="42.98168" lon="13.30326"><ele>807.9999999999999</ele><time>2026-04-09T13:02:14.376Z</time></trkpt><trkpt lat="42.9817817" lon="13.3032167"><ele>808.0</ele><time>2026-04-09T13:02:16.378Z</time></trkpt><trkpt lat="42.9818717" lon="13.30318"><ele>808.0</ele><time>2026-04-09T13:02:18.377Z</time></trkpt><trkpt lat="42.9819517" lon="13.3031617"><ele>808.0</ele><time>2026-04-09T13:02:20.377Z</time></trkpt><trkpt lat="42.9820217" lon="13.3031117"><ele>807.9999999999999</ele><time>2026-04-09T13:02:23.378Z</time></trkpt><trkpt lat="42.982065" lon="13.3030417"><ele>808.0</ele><time>2026-04-09T13:02:26.374Z</time></trkpt><trkpt lat="42.9820867" lon="13.3029567"><ele>808.0</ele><time>2026-04-09T13:02:28.375Z</time></trkpt><trkpt lat="42.982125" lon="13.3028333"><ele>808.0</ele><time>2026-04-09T13:02:31.377Z</time></trkpt><trkpt lat="42.98219" lon="13.302765"><ele>808.0</ele><time>2026-04-09T13:02:33.376Z</time></trkpt><trkpt lat="42.982285" lon="13.3027033"><ele>808.0</ele><time>2026-04-09T13:02:35.374Z</time></trkpt><trkpt lat="42.982395" lon="13.3026467"><ele>808.0</ele><time>2026-04-09T13:02:37.374Z</time></trkpt><trkpt lat="42.982505" lon="13.3026083"><ele>805.8333333333333</ele><time>2026-04-09T13:02:39.374Z</time></trkpt><trkpt lat="42.9826067" lon="13.3025933"><ele>803.6666666666666</ele><time>2026-04-09T13:02:41.375Z</time></trkpt><trkpt lat="42.982695" lon="13.3025717"><ele>801.5</ele><time>2026-04-09T13:02:43.375Z</time></trkpt><trkpt lat="42.982755" lon="13.30253"><ele>799.3333333333333</ele><time>2026-04-09T13:02:45.375Z</time></trkpt><trkpt lat="42.9828433" lon="13.30246"><ele>797.1666666666666</ele><time>2026-04-09T13:02:47.373Z</time></trkpt><trkpt lat="42.982905" lon="13.3024167"><ele>795.0</ele><time>2026-04-09T13:02:48.376Z</time></trkpt><trkpt lat="42.9829667" lon="13.302375"><ele>795.0</ele><time>2026-04-09T13:02:49.374Z</time></trkpt><trkpt lat="42.9830717" lon="13.3023083"><ele>795.0</ele><time>2026-04-09T13:02:51.375Z</time></trkpt><trkpt lat="42.983175" lon="13.3022417"><ele>795.0</ele><time>2026-04-09T13:02:53.375Z</time></trkpt><trkpt lat="42.9832983" lon="13.3021817"><ele>795.0</ele><time>2026-04-09T13:02:55.374Z</time></trkpt><trkpt lat="42.98336" lon="13.30216"><ele>795.0</ele><time>2026-04-09T13:02:56.374Z</time></trkpt><trkpt lat="42.9834333" lon="13.3021317"><ele>795.2857142857143</ele><time>2026-04-09T13:02:57.373Z</time></trkpt><trkpt lat="42.983505" lon="13.3021133"><ele>795.5714285714287</ele><time>2026-04-09T13:02:58.373Z</time></trkpt><trkpt lat="42.98357" lon="13.30209"><ele>795.8571428571429</ele><time>2026-04-09T13:02:59.374Z</time></trkpt><trkpt lat="42.983635" lon="13.3020633"><ele>796.1428571428571</ele><time>2026-04-09T13:03:00.375Z</time></trkpt><trkpt lat="42.98371" lon="13.3020283"><ele>796.4285714285714</ele><time>2026-04-09T13:03:01.373Z</time></trkpt><trkpt lat="42.9837883" lon="13.301995"><ele>796.7142857142857</ele><time>2026-04-09T13:03:02.375Z</time></trkpt><trkpt lat="42.9838567" lon="13.3019633"><ele>797.0</ele><time>2026-04-09T13:03:03.375Z</time></trkpt><trkpt lat="42.9839617" lon="13.30191"><ele>797.0000000000001</ele><time>2026-04-09T13:03:05.375Z</time></trkpt><trkpt lat="42.9840333" lon="13.3018533"><ele>797.0</ele><time>2026-04-09T13:03:07.374Z</time></trkpt><trkpt lat="42.9840917" lon="13.301795"><ele>797.0</ele><time>2026-04-09T13:03:09.374Z</time></trkpt><trkpt lat="42.984155" lon="13.30175"><ele>797.0</ele><time>2026-04-09T13:03:11.373Z</time></trkpt><trkpt lat="42.98421" lon="13.3017"><ele>797.0000000000001</ele><time>2026-04-09T13:03:13.374Z</time></trkpt><trkpt lat="42.9842633" lon="13.3016133"><ele>797.0</ele><time>2026-04-09T13:03:16.376Z</time></trkpt><trkpt lat="42.9843233" lon="13.3015333"><ele>796.0</ele><time>2026-04-09T13:03:19.374Z</time></trkpt><trkpt lat="42.9844" lon="13.3015017"><ele>795.0</ele><time>2026-04-09T13:03:22.374Z</time></trkpt><trkpt lat="42.9844733" lon="13.30157"><ele>794.0</ele><time>2026-04-09T13:03:25.376Z</time></trkpt><trkpt lat="42.9845333" lon="13.3016617"><ele>793.0</ele><time>2026-04-09T13:03:27.374Z</time></trkpt><trkpt lat="42.9846233" lon="13.301755"><ele>792.0</ele><time>2026-04-09T13:03:29.374Z</time></trkpt><trkpt lat="42.9847233" lon="13.3017933"><ele>792.0</ele><time>2026-04-09T13:03:31.377Z</time></trkpt><trkpt lat="42.9848333" lon="13.3017883"><ele>792.0</ele><time>2026-04-09T13:03:33.373Z</time></trkpt><trkpt lat="42.9849333" lon="13.3017417"><ele>792.0</ele><time>2026-04-09T13:03:35.373Z</time></trkpt><trkpt lat="42.985035" lon="13.3016983"><ele>792.0</ele><time>2026-04-09T13:03:37.373Z</time></trkpt><trkpt lat="42.985095" lon="13.3016683"><ele>792.0</ele><time>2026-04-09T13:03:38.374Z</time></trkpt><trkpt lat="42.98521" lon="13.301615"><ele>792.0</ele><time>2026-04-09T13:03:40.374Z</time></trkpt><trkpt lat="42.9853117" lon="13.3015583"><ele>792.0</ele><time>2026-04-09T13:03:42.374Z</time></trkpt><trkpt lat="42.9854217" lon="13.3015033"><ele>792.0</ele><time>2026-04-09T13:03:44.373Z</time></trkpt><trkpt lat="42.9855267" lon="13.3014383"><ele>792.0</ele><time>2026-04-09T13:03:46.373Z</time></trkpt><trkpt lat="42.98561" lon="13.3013817"><ele>792.0</ele><time>2026-04-09T13:03:48.374Z</time></trkpt><trkpt lat="42.9856917" lon="13.301305"><ele>793.0</ele><time>2026-04-09T13:03:50.375Z</time></trkpt><trkpt lat="42.9857633" lon="13.3011917"><ele>794.0</ele><time>2026-04-09T13:03:52.373Z</time></trkpt><trkpt lat="42.98583" lon="13.30107"><ele>795.0</ele><time>2026-04-09T13:03:54.374Z</time></trkpt><trkpt lat="42.9858783" lon="13.3009683"><ele>796.0</ele><time>2026-04-09T13:03:56.374Z</time></trkpt><trkpt lat="42.9859267" lon="13.3008917"><ele>797.0</ele><time>2026-04-09T13:03:58.375Z</time></trkpt><trkpt lat="42.9859917" lon="13.30084"><ele>797.0</ele><time>2026-04-09T13:04:00.375Z</time></trkpt><trkpt lat="42.9860967" lon="13.3008017"><ele>797.0</ele><time>2026-04-09T13:04:02.377Z</time></trkpt><trkpt lat="42.98621" lon="13.300755"><ele>797.0</ele><time>2026-04-09T13:04:04.377Z</time></trkpt><trkpt lat="42.9863133" lon="13.300705"><ele>797.0</ele><time>2026-04-09T13:04:06.377Z</time></trkpt><trkpt lat="42.9864233" lon="13.3006467"><ele>797.0</ele><time>2026-04-09T13:04:08.377Z</time></trkpt><trkpt lat="42.9864833" lon="13.3006033"><ele>797.0</ele><time>2026-04-09T13:04:09.374Z</time></trkpt><trkpt lat="42.9865467" lon="13.3005617"><ele>797.0</ele><time>2026-04-09T13:04:10.374Z</time></trkpt><trkpt lat="42.9866067" lon="13.300515"><ele>797.0</ele><time>2026-04-09T13:04:11.374Z</time></trkpt><trkpt lat="42.9866667" lon="13.3004583"><ele>797.0</ele><time>2026-04-09T13:04:12.375Z</time></trkpt><trkpt lat="42.986725" lon="13.300405"><ele>797.0</ele><time>2026-04-09T13:04:13.377Z</time></trkpt><trkpt lat="42.9867867" lon="13.3003533"><ele>797.0</ele><time>2026-04-09T13:04:14.375Z</time></trkpt><trkpt lat="42.9868483" lon="13.3003017"><ele>796.8333333333334</ele><time>2026-04-09T13:04:15.377Z</time></trkpt><trkpt lat="42.98691" lon="13.300245"><ele>796.6666666666667</ele><time>2026-04-09T13:04:16.377Z</time></trkpt><trkpt lat="42.98697" lon="13.300185"><ele>796.5</ele><time>2026-04-09T13:04:17.376Z</time></trkpt><trkpt lat="42.9870283" lon="13.300125"><ele>796.3333333333333</ele><time>2026-04-09T13:04:18.374Z</time></trkpt><trkpt lat="42.9870833" lon="13.3000733"><ele>796.1666666666666</ele><time>2026-04-09T13:04:19.373Z</time></trkpt><trkpt lat="42.9871783" lon="13.2999817"><ele>796.0</ele><time>2026-04-09T13:04:21.374Z</time></trkpt><trkpt lat="42.987265" lon="13.299905"><ele>795.9999999999999</ele><time>2026-04-09T13:04:23.374Z</time></trkpt><trkpt lat="42.9873417" lon="13.2998417"><ele>796.0</ele><time>2026-04-09T13:04:25.375Z</time></trkpt><trkpt lat="42.987405" lon="13.2998017"><ele>796.0</ele><time>2026-04-09T13:04:27.374Z</time></trkpt><trkpt lat="42.987465" lon="13.2998367"><ele>796.0</ele><time>2026-04-09T13:04:30.373Z</time></trkpt><trkpt lat="42.98754" lon="13.2998767"><ele>795.9999999999999</ele><time>2026-04-09T13:04:33.374Z</time></trkpt><trkpt lat="42.9876217" lon="13.2999217"><ele>796.0</ele><time>2026-04-09T13:04:36.374Z</time></trkpt><trkpt lat="42.987685" lon="13.29999"><ele>794.6666666666666</ele><time>2026-04-09T13:04:38.374Z</time></trkpt><trkpt lat="42.9877517" lon="13.3000683"><ele>793.3333333333333</ele><time>2026-04-09T13:04:40.377Z</time></trkpt><trkpt lat="42.9878133" lon="13.3001433"><ele>792.0</ele><time>2026-04-09T13:04:42.374Z</time></trkpt><trkpt lat="42.987885" lon="13.3002183"><ele>790.6666666666667</ele><time>2026-04-09T13:04:44.375Z</time></trkpt><trkpt lat="42.9879467" lon="13.3002717"><ele>789.3333333333334</ele><time>2026-04-09T13:04:46.377Z</time></trkpt><trkpt lat="42.9880017" lon="13.300325"><ele>788.0</ele><time>2026-04-09T13:04:48.374Z</time></trkpt><trkpt lat="42.98805" lon="13.3003833"><ele>788.0000000000001</ele><time>2026-04-09T13:04:50.374Z</time></trkpt><trkpt lat="42.9880983" lon="13.30044"><ele>788.0</ele><time>2026-04-09T13:04:52.373Z</time></trkpt><trkpt lat="42.9881483" lon="13.3005083"><ele>788.0</ele><time>2026-04-09T13:04:54.374Z</time></trkpt><trkpt lat="42.9881933" lon="13.3005767"><ele>788.0</ele><time>2026-04-09T13:04:56.375Z</time></trkpt><trkpt lat="42.9882633" lon="13.3006633"><ele>788.0000000000001</ele><time>2026-04-09T13:04:59.375Z</time></trkpt><trkpt lat="42.98831" lon="13.3007717"><ele>788.0</ele><time>2026-04-09T13:05:02.375Z</time></trkpt><trkpt lat="42.9883117" lon="13.3008583"><ele>786.1666666666667</ele><time>2026-04-09T13:05:04.374Z</time></trkpt><trkpt lat="42.9882817" lon="13.3009667"><ele>784.3333333333334</ele><time>2026-04-09T13:05:07.375Z</time></trkpt><trkpt lat="42.9882583" lon="13.3010667"><ele>782.5</ele><time>2026-04-09T13:05:10.375Z</time></trkpt><trkpt lat="42.9882267" lon="13.3011567"><ele>780.6666666666667</ele><time>2026-04-09T13:05:13.375Z</time></trkpt><trkpt lat="42.988195" lon="13.3012533"><ele>778.8333333333334</ele><time>2026-04-09T13:05:16.374Z</time></trkpt><trkpt lat="42.9881733" lon="13.301355"><ele>777.0</ele><time>2026-04-09T13:05:19.373Z</time></trkpt><trkpt lat="42.98814" lon="13.301465"><ele>774.7142857142857</ele><time>2026-04-09T13:05:22.374Z</time></trkpt><trkpt lat="42.98811" lon="13.301545"><ele>772.4285714285714</ele><time>2026-04-09T13:05:24.375Z</time></trkpt><trkpt lat="42.98806" lon="13.3016167"><ele>770.1428571428571</ele><time>2026-04-09T13:05:26.374Z</time></trkpt><trkpt lat="42.9880017" lon="13.3016583"><ele>767.8571428571429</ele><time>2026-04-09T13:05:28.374Z</time></trkpt><trkpt lat="42.9879317" lon="13.30169"><ele>765.5714285714286</ele><time>2026-04-09T13:05:30.375Z</time></trkpt><trkpt lat="42.987865" lon="13.30174"><ele>763.2857142857142</ele><time>2026-04-09T13:05:32.374Z</time></trkpt><trkpt lat="42.987805" lon="13.3017783"><ele>761.0</ele><time>2026-04-09T13:05:34.374Z</time></trkpt><trkpt lat="42.987745" lon="13.301835"><ele>761.0</ele><time>2026-04-09T13:05:36.374Z</time></trkpt><trkpt lat="42.987685" lon="13.3018917"><ele>761.0</ele><time>2026-04-09T13:05:38.375Z</time></trkpt><trkpt lat="42.98762" lon="13.30196"><ele>761.0</ele><time>2026-04-09T13:05:40.375Z</time></trkpt><trkpt lat="42.9875583" lon="13.3020483"><ele>761.0</ele><time>2026-04-09T13:05:42.374Z</time></trkpt><trkpt lat="42.9875" lon="13.3021267"><ele>761.0</ele><time>2026-04-09T13:05:44.374Z</time></trkpt><trkpt lat="42.98743" lon="13.3022033"><ele>761.0</ele><time>2026-04-09T13:05:47.375Z</time></trkpt><trkpt lat="42.9873667" lon="13.3022617"><ele>758.3333333333333</ele><time>2026-04-09T13:05:49.374Z</time></trkpt><trkpt lat="42.9873017" lon="13.3023167"><ele>755.6666666666666</ele><time>2026-04-09T13:05:51.375Z</time></trkpt><trkpt lat="42.9872433" lon="13.3023917"><ele>753.0</ele><time>2026-04-09T13:05:53.375Z</time></trkpt><trkpt lat="42.9871917" lon="13.3024633"><ele>750.3333333333334</ele><time>2026-04-09T13:05:55.374Z</time></trkpt><trkpt lat="42.987145" lon="13.302545"><ele>747.6666666666667</ele><time>2026-04-09T13:05:57.373Z</time></trkpt><trkpt lat="42.9871" lon="13.30262"><ele>745.0</ele><time>2026-04-09T13:05:59.373Z</time></trkpt><trkpt lat="42.987045" lon="13.3027033"><ele>745.0</ele><time>2026-04-09T13:06:01.374Z</time></trkpt><trkpt lat="42.9869983" lon="13.3027917"><ele>745.0</ele><time>2026-04-09T13:06:03.375Z</time></trkpt><trkpt lat="42.9869467" lon="13.30285"><ele>745.0</ele><time>2026-04-09T13:06:05.375Z</time></trkpt><trkpt lat="42.9868933" lon="13.30295"><ele>745.0</ele><time>2026-04-09T13:06:08.375Z</time></trkpt><trkpt lat="42.9869367" lon="13.3030317"><ele>745.0</ele><time>2026-04-09T13:06:11.376Z</time></trkpt><trkpt lat="42.98702" lon="13.3030233"><ele>745.0</ele><time>2026-04-09T13:06:14.374Z</time></trkpt><trkpt lat="42.9871183" lon="13.303"><ele>745.0</ele><time>2026-04-09T13:06:17.375Z</time></trkpt><trkpt lat="42.9871917" lon="13.30296"><ele>745.0</ele><time>2026-04-09T13:06:19.374Z</time></trkpt><trkpt lat="42.98727" lon="13.3029367"><ele>745.0</ele><time>2026-04-09T13:06:21.375Z</time></trkpt><trkpt lat="42.9873417" lon="13.3029217"><ele>745.0</ele><time>2026-04-09T13:06:23.374Z</time></trkpt><trkpt lat="42.9874217" lon="13.3029033"><ele>745.0</ele><time>2026-04-09T13:06:25.376Z</time></trkpt><trkpt lat="42.9875" lon="13.3029017"><ele>745.0</ele><time>2026-04-09T13:06:27.377Z</time></trkpt><trkpt lat="42.9875683" lon="13.3029083"><ele>743.0</ele><time>2026-04-09T13:06:29.376Z</time></trkpt><trkpt lat="42.9876317" lon="13.3029667"><ele>741.0</ele><time>2026-04-09T13:06:33.378Z</time></trkpt><trkpt lat="42.9877183" lon="13.3029483"><ele>739.0</ele><time>2026-04-09T13:06:44.375Z</time></trkpt><trkpt lat="42.987805" lon="13.30295"><ele>737.0</ele><time>2026-04-09T13:06:47.377Z</time></trkpt><trkpt lat="42.9878883" lon="13.30298"><ele>735.0</ele><time>2026-04-09T13:06:50.377Z</time></trkpt><trkpt lat="42.987965" lon="13.3029933"><ele>733.0</ele><time>2026-04-09T13:06:53.378Z</time></trkpt><trkpt lat="42.9880533" lon="13.303"><ele>732.9999999999999</ele><time>2026-04-09T13:06:56.378Z</time></trkpt><trkpt lat="42.988115" lon="13.3030183"><ele>733.0</ele><time>2026-04-09T13:06:58.377Z</time></trkpt><trkpt lat="42.9881817" lon="13.30309"><ele>733.0</ele><time>2026-04-09T13:07:01.374Z</time></trkpt><trkpt lat="42.9882433" lon="13.3031517"><ele>733.0</ele><time>2026-04-09T13:07:04.374Z</time></trkpt><trkpt lat="42.98831" lon="13.30321"><ele>733.0</ele><time>2026-04-09T13:07:07.375Z</time></trkpt><trkpt lat="42.9883633" lon="13.3032633"><ele>732.9999999999999</ele><time>2026-04-09T13:07:10.375Z</time></trkpt><trkpt lat="42.9883" lon="13.3032683"><ele>733.0</ele><time>2026-04-09T13:14:08.375Z</time></trkpt><trkpt lat="42.9882283" lon="13.3032383"><ele>732.9999999999999</ele><time>2026-04-09T13:14:11.377Z</time></trkpt><trkpt lat="42.9881417" lon="13.3031983"><ele>733.0</ele><time>2026-04-09T13:14:14.377Z</time></trkpt><trkpt lat="42.9880767" lon="13.3031633"><ele>733.0</ele><time>2026-04-09T13:14:16.379Z</time></trkpt><trkpt lat="42.98802" lon="13.3031233"><ele>733.0</ele><time>2026-04-09T13:14:18.376Z</time></trkpt><trkpt lat="42.987955" lon="13.3030817"><ele>733.0</ele><time>2026-04-09T13:14:20.377Z</time></trkpt><trkpt lat="42.9878917" lon="13.30305"><ele>732.9999999999999</ele><time>2026-04-09T13:14:22.376Z</time></trkpt><trkpt lat="42.9878167" lon="13.303015"><ele>733.0</ele><time>2026-04-09T13:14:25.377Z</time></trkpt><trkpt lat="42.9877467" lon="13.303"><ele>733.0</ele><time>2026-04-09T13:14:27.376Z</time></trkpt><trkpt lat="42.9876717" lon="13.3029783"><ele>733.0</ele><time>2026-04-09T13:14:29.373Z</time></trkpt><trkpt lat="42.98761" lon="13.3029483"><ele>733.0</ele><time>2026-04-09T13:14:31.374Z</time></trkpt><trkpt lat="42.98752" lon="13.3029267"><ele>733.0</ele><time>2026-04-09T13:17:36.376Z</time></trkpt><trkpt lat="42.9874467" lon="13.302915"><ele>733.0</ele><time>2026-04-09T13:17:39.374Z</time></trkpt><trkpt lat="42.9873567" lon="13.3029217"><ele>733.0</ele><time>2026-04-09T13:17:42.376Z</time></trkpt><trkpt lat="42.9872783" lon="13.3029417"><ele>735.0</ele><time>2026-04-09T13:17:44.376Z</time></trkpt><trkpt lat="42.987195" lon="13.3029883"><ele>737.0</ele><time>2026-04-09T13:17:46.374Z</time></trkpt><trkpt lat="42.98713" lon="13.30304"><ele>739.0</ele><time>2026-04-09T13:17:48.376Z</time></trkpt><trkpt lat="42.9870617" lon="13.303075"><ele>741.0</ele><time>2026-04-09T13:17:50.376Z</time></trkpt><trkpt lat="42.9869917" lon="13.303085"><ele>743.0</ele><time>2026-04-09T13:17:52.376Z</time></trkpt><trkpt lat="42.9869283" lon="13.30302"><ele>745.0</ele><time>2026-04-09T13:17:55.376Z</time></trkpt><trkpt lat="42.9869967" lon="13.3029433"><ele>745.0</ele><time>2026-04-09T13:17:59.378Z</time></trkpt><trkpt lat="42.98704" lon="13.3028367"><ele>745.0</ele><time>2026-04-09T13:18:02.378Z</time></trkpt><trkpt lat="42.98707" lon="13.302755"><ele>745.0</ele><time>2026-04-09T13:18:04.377Z</time></trkpt><trkpt lat="42.9871083" lon="13.3026667"><ele>745.0</ele><time>2026-04-09T13:18:06.376Z</time></trkpt><trkpt lat="42.9871583" lon="13.3025683"><ele>745.0</ele><time>2026-04-09T13:18:08.376Z</time></trkpt><trkpt lat="42.9872033" lon="13.3024833"><ele>745.0</ele><time>2026-04-09T13:18:10.377Z</time></trkpt><trkpt lat="42.9872667" lon="13.302395"><ele>745.0</ele><time>2026-04-09T13:18:12.374Z</time></trkpt><trkpt lat="42.987335" lon="13.30231"><ele>745.0</ele><time>2026-04-09T13:18:14.376Z</time></trkpt><trkpt lat="42.9874033" lon="13.3022383"><ele>745.0</ele><time>2026-04-09T13:18:16.376Z</time></trkpt><trkpt lat="42.9874733" lon="13.3021767"><ele>745.0</ele><time>2026-04-09T13:18:18.377Z</time></trkpt><trkpt lat="42.9875317" lon="13.3020967"><ele>745.0</ele><time>2026-04-09T13:18:20.376Z</time></trkpt><trkpt lat="42.9875967" lon="13.30201"><ele>745.0</ele><time>2026-04-09T13:18:22.376Z</time></trkpt><trkpt lat="42.98768" lon="13.3019317"><ele>747.6666666666667</ele><time>2026-04-09T13:18:24.376Z</time></trkpt><trkpt lat="42.9877567" lon="13.3018767"><ele>750.3333333333334</ele><time>2026-04-09T13:18:26.377Z</time></trkpt><trkpt lat="42.987845" lon="13.3018267"><ele>753.0</ele><time>2026-04-09T13:18:28.377Z</time></trkpt><trkpt lat="42.9879383" lon="13.3017883"><ele>755.6666666666666</ele><time>2026-04-09T13:18:30.376Z</time></trkpt><trkpt lat="42.9880167" lon="13.30176"><ele>758.3333333333333</ele><time>2026-04-09T13:18:32.377Z</time></trkpt><trkpt lat="42.988075" lon="13.3016867"><ele>761.0</ele><time>2026-04-09T13:18:35.375Z</time></trkpt><trkpt lat="42.9881067" lon="13.3016117"><ele>761.0</ele><time>2026-04-09T13:18:37.377Z</time></trkpt><trkpt lat="42.9881367" lon="13.301525"><ele>761.0</ele><time>2026-04-09T13:18:39.376Z</time></trkpt><trkpt lat="42.98816" lon="13.3014183"><ele>761.0</ele><time>2026-04-09T13:18:41.376Z</time></trkpt><trkpt lat="42.98819" lon="13.3012967"><ele>761.0</ele><time>2026-04-09T13:18:43.378Z</time></trkpt><trkpt lat="42.988235" lon="13.3011867"><ele>761.0</ele><time>2026-04-09T13:18:45.377Z</time></trkpt><trkpt lat="42.9882733" lon="13.3010483"><ele>761.0</ele><time>2026-04-09T13:18:47.378Z</time></trkpt><trkpt lat="42.9883017" lon="13.30093"><ele>763.6666666666666</ele><time>2026-04-09T13:18:49.373Z</time></trkpt><trkpt lat="42.9883" lon="13.30082"><ele>766.3333333333333</ele><time>2026-04-09T13:18:51.376Z</time></trkpt><trkpt lat="42.988265" lon="13.3007317"><ele>769.0</ele><time>2026-04-09T13:18:53.377Z</time></trkpt><trkpt lat="42.9882183" lon="13.3006467"><ele>771.6666666666666</ele><time>2026-04-09T13:18:55.377Z</time></trkpt><trkpt lat="42.9881617" lon="13.30056"><ele>774.3333333333334</ele><time>2026-04-09T13:18:57.377Z</time></trkpt><trkpt lat="42.988115" lon="13.30045"><ele>777.0</ele><time>2026-04-09T13:19:37.374Z</time></trkpt><trkpt lat="42.9880633" lon="13.30038"><ele>778.8333333333334</ele><time>2026-04-09T13:19:40.375Z</time></trkpt><trkpt lat="42.9879967" lon="13.300315"><ele>780.6666666666667</ele><time>2026-04-09T13:19:43.375Z</time></trkpt><trkpt lat="42.987945" lon="13.3002567"><ele>782.5</ele><time>2026-04-09T13:19:45.377Z</time></trkpt><trkpt lat="42.98786" lon="13.3001833"><ele>784.3333333333334</ele><time>2026-04-09T13:19:48.377Z</time></trkpt><trkpt lat="42.9877883" lon="13.3001"><ele>786.1666666666667</ele><time>2026-04-09T13:19:50.375Z</time></trkpt><trkpt lat="42.987715" lon="13.30001"><ele>788.0</ele><time>2026-04-09T13:19:52.373Z</time></trkpt><trkpt lat="42.9876417" lon="13.2999333"><ele>788.0</ele><time>2026-04-09T13:19:54.375Z</time></trkpt><trkpt lat="42.9875567" lon="13.2998767"><ele>788.0</ele><time>2026-04-09T13:19:56.377Z</time></trkpt><trkpt lat="42.987475" lon="13.2998383"><ele>788.0</ele><time>2026-04-09T13:19:58.378Z</time></trkpt><trkpt lat="42.9874067" lon="13.2998283"><ele>788.0</ele><time>2026-04-09T13:20:00.375Z</time></trkpt><trkpt lat="42.9873217" lon="13.2998833"><ele>788.0</ele><time>2026-04-09T13:20:02.377Z</time></trkpt><trkpt lat="42.9872317" lon="13.2999783"><ele>789.5999999999999</ele><time>2026-04-09T13:20:04.381Z</time></trkpt><trkpt lat="42.9871417" lon="13.300065"><ele>791.1999999999999</ele><time>2026-04-09T13:20:06.375Z</time></trkpt><trkpt lat="42.987055" lon="13.3001517"><ele>792.8</ele><time>2026-04-09T13:20:08.376Z</time></trkpt><trkpt lat="42.9869583" lon="13.300245"><ele>794.4</ele><time>2026-04-09T13:20:10.375Z</time></trkpt><trkpt lat="42.9868667" lon="13.3003217"><ele>796.0</ele><time>2026-04-09T13:20:12.376Z</time></trkpt><trkpt lat="42.98678" lon="13.300395"><ele>795.9999999999999</ele><time>2026-04-09T13:20:14.375Z</time></trkpt><trkpt lat="42.9866967" lon="13.3004567"><ele>796.0</ele><time>2026-04-09T13:20:16.376Z</time></trkpt><trkpt lat="42.9866167" lon="13.3005267"><ele>796.0</ele><time>2026-04-09T13:20:18.375Z</time></trkpt><trkpt lat="42.9865433" lon="13.3005683"><ele>796.0</ele><time>2026-04-09T13:20:20.377Z</time></trkpt><trkpt lat="42.9864433" lon="13.300625"><ele>795.9999999999999</ele><time>2026-04-09T13:20:22.374Z</time></trkpt><trkpt lat="42.9863833" lon="13.3006617"><ele>796.0</ele><time>2026-04-09T13:20:23.378Z</time></trkpt><trkpt lat="42.9862767" lon="13.30072"><ele>796.1666666666666</ele><time>2026-04-09T13:20:25.375Z</time></trkpt><trkpt lat="42.9861833" lon="13.3007783"><ele>796.3333333333333</ele><time>2026-04-09T13:20:27.374Z</time></trkpt><trkpt lat="42.986105" lon="13.3008117"><ele>796.5</ele><time>2026-04-09T13:20:29.379Z</time></trkpt><trkpt lat="42.9860467" lon="13.3008467"><ele>796.6666666666667</ele><time>2026-04-09T13:20:32.375Z</time></trkpt><trkpt lat="42.985995" lon="13.3009083"><ele>796.8333333333334</ele><time>2026-04-09T13:20:34.377Z</time></trkpt><trkpt lat="42.9859433" lon="13.3009783"><ele>797.0</ele><time>2026-04-09T13:20:36.378Z</time></trkpt><trkpt lat="42.98589" lon="13.3010567"><ele>796.1666666666667</ele><time>2026-04-09T13:20:38.378Z</time></trkpt><trkpt lat="42.9858367" lon="13.3011517"><ele>795.3333333333334</ele><time>2026-04-09T13:20:40.378Z</time></trkpt><trkpt lat="42.9857817" lon="13.3012533"><ele>794.5</ele><time>2026-04-09T13:20:42.377Z</time></trkpt><trkpt lat="42.985725" lon="13.301335"><ele>793.6666666666667</ele><time>2026-04-09T13:20:44.378Z</time></trkpt><trkpt lat="42.9856617" lon="13.3013917"><ele>792.8333333333334</ele><time>2026-04-09T13:20:46.376Z</time></trkpt><trkpt lat="42.985585" lon="13.301445"><ele>792.0</ele><time>2026-04-09T13:20:48.376Z</time></trkpt><trkpt lat="42.9854767" lon="13.3015067"><ele>792.0</ele><time>2026-04-09T13:20:50.375Z</time></trkpt><trkpt lat="42.9854133" lon="13.301525"><ele>792.0</ele><time>2026-04-09T13:20:51.376Z</time></trkpt><trkpt lat="42.9853517" lon="13.301545"><ele>792.0</ele><time>2026-04-09T13:20:52.376Z</time></trkpt><trkpt lat="42.985245" lon="13.3016"><ele>792.0</ele><time>2026-04-09T13:20:54.374Z</time></trkpt><trkpt lat="42.98514" lon="13.3016533"><ele>792.0</ele><time>2026-04-09T13:20:56.377Z</time></trkpt><trkpt lat="42.9850367" lon="13.3017067"><ele>792.0</ele><time>2026-04-09T13:20:58.375Z</time></trkpt><trkpt lat="42.9849367" lon="13.30175"><ele>792.0</ele><time>2026-04-09T13:21:00.377Z</time></trkpt><trkpt lat="42.9848617" lon="13.3017867"><ele>792.0</ele><time>2026-04-09T13:21:02.377Z</time></trkpt><trkpt lat="42.984795" lon="13.3018067"><ele>792.0</ele><time>2026-04-09T13:21:04.376Z</time></trkpt><trkpt lat="42.9847283" lon="13.3018067"><ele>792.0</ele><time>2026-04-09T13:21:06.377Z</time></trkpt><trkpt lat="42.9846633" lon="13.3017783"><ele>792.0</ele><time>2026-04-09T13:21:09.376Z</time></trkpt><trkpt lat="42.98461" lon="13.3017217"><ele>792.0</ele><time>2026-04-09T13:21:12.375Z</time></trkpt><trkpt lat="42.9845567" lon="13.3016167"><ele>792.0</ele><time>2026-04-09T13:21:46.374Z</time></trkpt><trkpt lat="42.984515" lon="13.3015233"><ele>792.0</ele><time>2026-04-09T13:21:49.375Z</time></trkpt><trkpt lat="42.984445" lon="13.3014967"><ele>792.0</ele><time>2026-04-09T13:21:52.375Z</time></trkpt><trkpt lat="42.9843567" lon="13.30155"><ele>792.0</ele><time>2026-04-09T13:21:55.374Z</time></trkpt><trkpt lat="42.9842967" lon="13.3016383"><ele>792.0</ele><time>2026-04-09T13:21:57.376Z</time></trkpt><trkpt lat="42.98423" lon="13.30172"><ele>793.0</ele><time>2026-04-09T13:21:59.374Z</time></trkpt><trkpt lat="42.9841617" lon="13.3017967"><ele>794.0</ele><time>2026-04-09T13:22:01.374Z</time></trkpt><trkpt lat="42.9840867" lon="13.3018783"><ele>795.0</ele><time>2026-04-09T13:22:03.374Z</time></trkpt><trkpt lat="42.9840133" lon="13.3019483"><ele>796.0</ele><time>2026-04-09T13:22:05.376Z</time></trkpt><trkpt lat="42.9839333" lon="13.30199"><ele>797.0</ele><time>2026-04-09T13:22:07.375Z</time></trkpt><trkpt lat="42.98383" lon="13.302015"><ele>797.0</ele><time>2026-04-09T13:22:09.374Z</time></trkpt><trkpt lat="42.9837167" lon="13.302055"><ele>797.0</ele><time>2026-04-09T13:22:11.375Z</time></trkpt><trkpt lat="42.9836033" lon="13.3020933"><ele>797.0</ele><time>2026-04-09T13:22:13.375Z</time></trkpt><trkpt lat="42.9834983" lon="13.302125"><ele>797.0</ele><time>2026-04-09T13:22:15.373Z</time></trkpt><trkpt lat="42.9833967" lon="13.3021583"><ele>797.0</ele><time>2026-04-09T13:22:17.373Z</time></trkpt><trkpt lat="42.9833033" lon="13.3021867"><ele>796.6</ele><time>2026-04-09T13:22:19.374Z</time></trkpt><trkpt lat="42.9832217" lon="13.3022283"><ele>796.2</ele><time>2026-04-09T13:22:21.375Z</time></trkpt><trkpt lat="42.98313" lon="13.3022817"><ele>795.8</ele><time>2026-04-09T13:22:23.374Z</time></trkpt><trkpt lat="42.9830683" lon="13.3023083"><ele>795.4</ele><time>2026-04-09T13:22:24.374Z</time></trkpt><trkpt lat="42.9829483" lon="13.3023767"><ele>795.0</ele><time>2026-04-09T13:22:26.376Z</time></trkpt><trkpt lat="42.982885" lon="13.3024133"><ele>795.0</ele><time>2026-04-09T13:22:27.376Z</time></trkpt><trkpt lat="42.9828233" lon="13.30244"><ele>795.0</ele><time>2026-04-09T13:22:28.378Z</time></trkpt><trkpt lat="42.9827233" lon="13.3024917"><ele>795.0</ele><time>2026-04-09T13:22:30.375Z</time></trkpt><trkpt lat="42.982645" lon="13.30252"><ele>795.0</ele><time>2026-04-09T13:22:32.376Z</time></trkpt><trkpt lat="42.9825517" lon="13.3025417"><ele>795.0</ele><time>2026-04-09T13:22:34.375Z</time></trkpt><trkpt lat="42.9824517" lon="13.3025783"><ele>797.6</ele><time>2026-04-09T13:22:36.373Z</time></trkpt><trkpt lat="42.9823567" lon="13.3026367"><ele>800.2</ele><time>2026-04-09T13:22:38.374Z</time></trkpt><trkpt lat="42.98226" lon="13.3027017"><ele>802.8</ele><time>2026-04-09T13:22:40.374Z</time></trkpt><trkpt lat="42.9821817" lon="13.3027767"><ele>805.4</ele><time>2026-04-09T13:22:42.378Z</time></trkpt><trkpt lat="42.9821217" lon="13.3028917"><ele>808.0</ele><time>2026-04-09T13:22:44.376Z</time></trkpt><trkpt lat="42.982085" lon="13.3030017"><ele>807.9999999999999</ele><time>2026-04-09T13:22:46.376Z</time></trkpt><trkpt lat="42.98205" lon="13.3030833"><ele>808.0</ele><time>2026-04-09T13:22:48.376Z</time></trkpt><trkpt lat="42.98198" lon="13.3031583"><ele>808.0</ele><time>2026-04-09T13:22:51.374Z</time></trkpt><trkpt lat="42.9818983" lon="13.3032"><ele>808.0</ele><time>2026-04-09T13:22:53.374Z</time></trkpt><trkpt lat="42.98181" lon="13.3032317"><ele>807.9999999999999</ele><time>2026-04-09T13:22:55.373Z</time></trkpt><trkpt lat="42.9817133" lon="13.30327"><ele>808.0</ele><time>2026-04-09T13:22:57.374Z</time></trkpt><trkpt lat="42.9816" lon="13.3033317"><ele>808.0</ele><time>2026-04-09T13:22:59.377Z</time></trkpt><trkpt lat="42.9814883" lon="13.3033983"><ele>808.0</ele><time>2026-04-09T13:23:01.377Z</time></trkpt><trkpt lat="42.9813833" lon="13.3034633"><ele>808.0</ele><time>2026-04-09T13:23:03.375Z</time></trkpt><trkpt lat="42.981325" lon="13.3034983"><ele>808.0</ele><time>2026-04-09T13:23:04.373Z</time></trkpt><trkpt lat="42.9812183" lon="13.3035483"><ele>808.0</ele><time>2026-04-09T13:23:06.374Z</time></trkpt><trkpt lat="42.9811467" lon="13.3035867"><ele>807.9999999999999</ele><time>2026-04-09T13:23:08.375Z</time></trkpt><trkpt lat="42.9810783" lon="13.3036067"><ele>808.0</ele><time>2026-04-09T13:23:12.375Z</time></trkpt><trkpt lat="42.98099" lon="13.3036367"><ele>808.0</ele><time>2026-04-09T13:23:17.374Z</time></trkpt><trkpt lat="42.98092" lon="13.3036717"><ele>808.0</ele><time>2026-04-09T13:23:19.374Z</time></trkpt><trkpt lat="42.9808283" lon="13.3037233"><ele>807.9999999999999</ele><time>2026-04-09T13:23:21.374Z</time></trkpt><trkpt lat="42.980725" lon="13.3037833"><ele>808.0</ele><time>2026-04-09T13:23:23.373Z</time></trkpt><trkpt lat="42.9806233" lon="13.3038517"><ele>807.6666666666666</ele><time>2026-04-09T13:23:25.375Z</time></trkpt><trkpt lat="42.980535" lon="13.303925"><ele>807.3333333333333</ele><time>2026-04-09T13:23:27.375Z</time></trkpt><trkpt lat="42.980475" lon="13.304"><ele>807.0</ele><time>2026-04-09T13:23:29.374Z</time></trkpt><trkpt lat="42.9804" lon="13.3040783"><ele>806.6666666666667</ele><time>2026-04-09T13:23:32.377Z</time></trkpt><trkpt lat="42.9803217" lon="13.304145"><ele>806.3333333333334</ele><time>2026-04-09T13:23:35.376Z</time></trkpt><trkpt lat="42.9802533" lon="13.3041967"><ele>806.0</ele><time>2026-04-09T13:23:37.377Z</time></trkpt><trkpt lat="42.9801767" lon="13.3042467"><ele>806.0</ele><time>2026-04-09T13:23:39.378Z</time></trkpt><trkpt lat="42.9801133" lon="13.3042417"><ele>806.0</ele><time>2026-04-09T13:23:41.374Z</time></trkpt><trkpt lat="42.9800483" lon="13.304275"><ele>806.0</ele><time>2026-04-09T13:23:43.377Z</time></trkpt><trkpt lat="42.979975" lon="13.304355"><ele>806.0</ele><time>2026-04-09T13:23:45.377Z</time></trkpt><trkpt lat="42.9798933" lon="13.3044417"><ele>806.0</ele><time>2026-04-09T13:23:47.376Z</time></trkpt><trkpt lat="42.9798017" lon="13.3045483"><ele>808.5999999999999</ele><time>2026-04-09T13:23:49.373Z</time></trkpt><trkpt lat="42.97972" lon="13.30465"><ele>811.2</ele><time>2026-04-09T13:23:51.375Z</time></trkpt><trkpt lat="42.9796383" lon="13.3047467"><ele>813.8</ele><time>2026-04-09T13:23:53.376Z</time></trkpt><trkpt lat="42.9795583" lon="13.30485"><ele>816.4000000000001</ele><time>2026-04-09T13:23:55.378Z</time></trkpt><trkpt lat="42.97949" lon="13.30495"><ele>819.0</ele><time>2026-04-09T13:23:57.375Z</time></trkpt><trkpt lat="42.9794183" lon="13.3050467"><ele>819.3333333333334</ele><time>2026-04-09T13:23:59.376Z</time></trkpt><trkpt lat="42.9793517" lon="13.3051333"><ele>819.6666666666667</ele><time>2026-04-09T13:24:01.377Z</time></trkpt><trkpt lat="42.9792833" lon="13.305215"><ele>820.0</ele><time>2026-04-09T13:24:03.377Z</time></trkpt><trkpt lat="42.9792283" lon="13.3052633"><ele>820.3333333333334</ele><time>2026-04-09T13:24:05.375Z</time></trkpt><trkpt lat="42.9791467" lon="13.3053017"><ele>820.6666666666667</ele><time>2026-04-09T13:24:08.375Z</time></trkpt><trkpt lat="42.97908" lon="13.3053267"><ele>821.0</ele><time>2026-04-09T13:24:11.376Z</time></trkpt><trkpt lat="42.979015" lon="13.3053217"><ele>822.5000000000001</ele><time>2026-04-09T13:28:17.372Z</time></trkpt><trkpt lat="42.9789367" lon="13.30535"><ele>824.0</ele><time>2026-04-09T13:28:21.378Z</time></trkpt><trkpt lat="42.978875" lon="13.3054067"><ele>825.5</ele><time>2026-04-09T13:28:24.374Z</time></trkpt><trkpt lat="42.9787917" lon="13.3054033"><ele>827.0</ele><time>2026-04-09T13:28:27.374Z</time></trkpt><trkpt lat="42.9787167" lon="13.305365"><ele>828.5000000000001</ele><time>2026-04-09T13:28:30.375Z</time></trkpt><trkpt lat="42.9786567" lon="13.30526"><ele>830.0</ele><time>2026-04-09T13:28:33.373Z</time></trkpt><trkpt lat="42.9786233" lon="13.3051517"><ele>830.0</ele><time>2026-04-09T13:28:35.375Z</time></trkpt><trkpt lat="42.9786067" lon="13.3050283"><ele>830.0</ele><time>2026-04-09T13:28:37.374Z</time></trkpt><trkpt lat="42.9785983" lon="13.3048867"><ele>830.0</ele><time>2026-04-09T13:28:39.375Z</time></trkpt><trkpt lat="42.9786167" lon="13.30471"><ele>830.0</ele><time>2026-04-09T13:28:41.374Z</time></trkpt><trkpt lat="42.978645" lon="13.3046183"><ele>830.0</ele><time>2026-04-09T13:28:42.376Z</time></trkpt><trkpt lat="42.9786733" lon="13.3045283"><ele>830.0</ele><time>2026-04-09T13:28:43.376Z</time></trkpt><trkpt lat="42.9787" lon="13.3044417"><ele>830.0</ele><time>2026-04-09T13:28:44.378Z</time></trkpt><trkpt lat="42.9787483" lon="13.30431"><ele>830.0</ele><time>2026-04-09T13:28:46.377Z</time></trkpt><trkpt lat="42.9787817" lon="13.3041917"><ele>830.0</ele><time>2026-04-09T13:28:48.374Z</time></trkpt><trkpt lat="42.978825" lon="13.304055"><ele>830.0</ele><time>2026-04-09T13:28:50.375Z</time></trkpt><trkpt lat="42.97889" lon="13.30391"><ele>830.0000000000001</ele><time>2026-04-09T13:28:52.373Z</time></trkpt><trkpt lat="42.9789333" lon="13.3038233"><ele>830.0</ele><time>2026-04-09T13:28:53.373Z</time></trkpt><trkpt lat="42.9789783" lon="13.3037317"><ele>830.0</ele><time>2026-04-09T13:28:54.375Z</time></trkpt><trkpt lat="42.9790267" lon="13.3036433"><ele>830.0</ele><time>2026-04-09T13:28:55.375Z</time></trkpt><trkpt lat="42.9790733" lon="13.3035633"><ele>830.0000000000001</ele><time>2026-04-09T13:28:56.375Z</time></trkpt><trkpt lat="42.9791167" lon="13.3034983"><ele>830.0</ele><time>2026-04-09T13:28:57.377Z</time></trkpt><trkpt lat="42.9791933" lon="13.303385"><ele>831.0</ele><time>2026-04-09T13:28:59.374Z</time></trkpt><trkpt lat="42.9792467" lon="13.3032583"><ele>832.0</ele><time>2026-04-09T13:29:01.375Z</time></trkpt><trkpt lat="42.97931" lon="13.3031333"><ele>833.0</ele><time>2026-04-09T13:29:03.375Z</time></trkpt><trkpt lat="42.979375" lon="13.3030433"><ele>834.0</ele><time>2026-04-09T13:29:05.375Z</time></trkpt><trkpt lat="42.9794067" lon="13.3029483"><ele>835.0</ele><time>2026-04-09T13:29:07.378Z</time></trkpt><trkpt lat="42.979435" lon="13.3028533"><ele>837.1666666666666</ele><time>2026-04-09T13:29:09.378Z</time></trkpt><trkpt lat="42.9794883" lon="13.3027517"><ele>839.3333333333333</ele><time>2026-04-09T13:29:11.373Z</time></trkpt><trkpt lat="42.97954" lon="13.3026167"><ele>841.5</ele><time>2026-04-09T13:29:13.375Z</time></trkpt><trkpt lat="42.979575" lon="13.3025367"><ele>843.6666666666667</ele><time>2026-04-09T13:29:14.375Z</time></trkpt><trkpt lat="42.9796067" lon="13.302455"><ele>845.8333333333334</ele><time>2026-04-09T13:29:15.374Z</time></trkpt><trkpt lat="42.979645" lon="13.302375"><ele>848.0</ele><time>2026-04-09T13:29:16.375Z</time></trkpt><trkpt lat="42.9796783" lon="13.3023"><ele>846.0</ele><time>2026-04-09T13:29:17.375Z</time></trkpt><trkpt lat="42.97973" lon="13.302185"><ele>844.0</ele><time>2026-04-09T13:29:19.374Z</time></trkpt><trkpt lat="42.9797683" lon="13.3020867"><ele>842.0</ele><time>2026-04-09T13:29:21.373Z</time></trkpt><trkpt lat="42.9798167" lon="13.3019617"><ele>840.0</ele><time>2026-04-09T13:29:23.374Z</time></trkpt><trkpt lat="42.9798717" lon="13.3018283"><ele>838.0</ele><time>2026-04-09T13:29:25.374Z</time></trkpt><trkpt lat="42.979905" lon="13.3017483"><ele>837.9999999999999</ele><time>2026-04-09T13:29:26.375Z</time></trkpt><trkpt lat="42.9799383" lon="13.3016667"><ele>838.0</ele><time>2026-04-09T13:29:27.375Z</time></trkpt><trkpt lat="42.9799717" lon="13.3015883"><ele>838.0</ele><time>2026-04-09T13:29:28.374Z</time></trkpt><trkpt lat="42.9800033" lon="13.3015117"><ele>838.0</ele><time>2026-04-09T13:29:29.375Z</time></trkpt><trkpt lat="42.9800517" lon="13.30136"><ele>837.9999999999999</ele><time>2026-04-09T13:29:31.374Z</time></trkpt><trkpt lat="42.9800883" lon="13.3012"><ele>838.0</ele><time>2026-04-09T13:29:33.375Z</time></trkpt><trkpt lat="42.98013" lon="13.3010617"><ele>840.5999999999999</ele><time>2026-04-09T13:29:35.373Z</time></trkpt><trkpt lat="42.9801633" lon="13.3009417"><ele>843.1999999999999</ele><time>2026-04-09T13:29:37.374Z</time></trkpt><trkpt lat="42.98019" lon="13.3008217"><ele>845.8</ele><time>2026-04-09T13:29:39.374Z</time></trkpt><trkpt lat="42.98021" lon="13.3006967"><ele>848.4</ele><time>2026-04-09T13:29:41.375Z</time></trkpt><trkpt lat="42.9802367" lon="13.300575"><ele>851.0</ele><time>2026-04-09T13:29:43.373Z</time></trkpt><trkpt lat="42.9802867" lon="13.3004583"><ele>851.0000000000001</ele><time>2026-04-09T13:29:45.374Z</time></trkpt><trkpt lat="42.980345" lon="13.3003267"><ele>851.0</ele><time>2026-04-09T13:29:47.375Z</time></trkpt><trkpt lat="42.9803817" lon="13.3002567"><ele>851.0</ele><time>2026-04-09T13:29:48.374Z</time></trkpt><trkpt lat="42.9804017" lon="13.30013"><ele>851.0</ele><time>2026-04-09T13:29:50.375Z</time></trkpt><trkpt lat="42.9804183" lon="13.3000267"><ele>851.0000000000001</ele><time>2026-04-09T13:29:53.375Z</time></trkpt><trkpt lat="42.9804533" lon="13.2999233"><ele>851.0</ele><time>2026-04-09T13:30:26.378Z</time></trkpt><trkpt lat="42.98048" lon="13.299795"><ele>850.0</ele><time>2026-04-09T13:30:28.376Z</time></trkpt><trkpt lat="42.9805183" lon="13.2996383"><ele>849.0</ele><time>2026-04-09T13:30:30.377Z</time></trkpt><trkpt lat="42.980565" lon="13.299515"><ele>848.0</ele><time>2026-04-09T13:30:32.38Z</time></trkpt><trkpt lat="42.9806183" lon="13.2994483"><ele>847.0</ele><time>2026-04-09T13:30:34.374Z</time></trkpt><trkpt lat="42.9806917" lon="13.2994117"><ele>846.0</ele><time>2026-04-09T13:30:37.374Z</time></trkpt><trkpt lat="42.980745" lon="13.2993317"><ele>846.0</ele><time>2026-04-09T13:30:41.375Z</time></trkpt><trkpt lat="42.9807567" lon="13.2992317"><ele>846.0</ele><time>2026-04-09T13:30:44.375Z</time></trkpt><trkpt lat="42.98072" lon="13.299135"><ele>846.0</ele><time>2026-04-09T13:30:52.373Z</time></trkpt><trkpt lat="42.980795" lon="13.29897"><ele>846.0</ele><time>2026-04-09T13:31:03.375Z</time></trkpt><trkpt lat="42.98078" lon="13.2988617"><ele>846.0</ele><time>2026-04-09T13:31:07.377Z</time></trkpt><trkpt lat="42.9807033" lon="13.2988283"><ele>847.7142857142857</ele><time>2026-04-09T13:31:09.376Z</time></trkpt><trkpt lat="42.98064" lon="13.2988067"><ele>849.4285714285714</ele><time>2026-04-09T13:31:11.377Z</time></trkpt><trkpt lat="42.9805717" lon="13.298775"><ele>851.1428571428571</ele><time>2026-04-09T13:31:13.376Z</time></trkpt><trkpt lat="42.9805" lon="13.29875"><ele>852.8571428571429</ele><time>2026-04-09T13:31:15.375Z</time></trkpt><trkpt lat="42.98043" lon="13.29874"><ele>854.5714285714287</ele><time>2026-04-09T13:31:18.376Z</time></trkpt><trkpt lat="42.9803517" lon="13.298735"><ele>856.2857142857143</ele><time>2026-04-09T13:31:23.377Z</time></trkpt><trkpt lat="42.98027" lon="13.2987267"><ele>858.0</ele><time>2026-04-09T13:31:27.376Z</time></trkpt><trkpt lat="42.9801867" lon="13.2987133"><ele>858.0</ele><time>2026-04-09T13:31:29.374Z</time></trkpt><trkpt lat="42.9801183" lon="13.2987217"><ele>858.0</ele><time>2026-04-09T13:31:31.375Z</time></trkpt><trkpt lat="42.980055" lon="13.2987433"><ele>858.0</ele><time>2026-04-09T13:31:33.375Z</time></trkpt><trkpt lat="42.9799967" lon="13.2987767"><ele>858.0</ele><time>2026-04-09T13:31:35.374Z</time></trkpt><trkpt lat="42.97994" lon="13.29883"><ele>858.0</ele><time>2026-04-09T13:31:37.378Z</time></trkpt><trkpt lat="42.9798783" lon="13.2989133"><ele>858.0</ele><time>2026-04-09T13:31:39.375Z</time></trkpt><trkpt lat="42.9798183" lon="13.299015"><ele>858.0</ele><time>2026-04-09T13:31:41.377Z</time></trkpt><trkpt lat="42.9797417" lon="13.29912"><ele>850.5999999999999</ele><time>2026-04-09T13:31:43.377Z</time></trkpt><trkpt lat="42.97966" lon="13.2992333"><ele>843.1999999999999</ele><time>2026-04-09T13:31:45.377Z</time></trkpt><trkpt lat="42.9795667" lon="13.2993483"><ele>835.8</ele><time>2026-04-09T13:31:47.377Z</time></trkpt><trkpt lat="42.97952" lon="13.29941"><ele>828.4</ele><time>2026-04-09T13:31:48.373Z</time></trkpt><trkpt lat="42.9794333" lon="13.2995333"><ele>821.0</ele><time>2026-04-09T13:31:50.377Z</time></trkpt><trkpt lat="42.97934" lon="13.2996433"><ele>821.0</ele><time>2026-04-09T13:31:52.377Z</time></trkpt><trkpt lat="42.9792583" lon="13.29975"><ele>821.0</ele><time>2026-04-09T13:31:54.374Z</time></trkpt><trkpt lat="42.9791783" lon="13.2998467"><ele>821.0</ele><time>2026-04-09T13:31:56.376Z</time></trkpt><trkpt lat="42.97908" lon="13.2999567"><ele>821.0</ele><time>2026-04-09T13:31:58.374Z</time></trkpt><trkpt lat="42.979025" lon="13.3000067"><ele>821.0</ele><time>2026-04-09T13:31:59.374Z</time></trkpt><trkpt lat="42.9789667" lon="13.3000483"><ele>816.0</ele><time>2026-04-09T13:32:00.374Z</time></trkpt><trkpt lat="42.9788667" lon="13.3001133"><ele>811.0</ele><time>2026-04-09T13:32:02.374Z</time></trkpt><trkpt lat="42.9787867" lon="13.3001483"><ele>806.0</ele><time>2026-04-09T13:32:04.373Z</time></trkpt><trkpt lat="42.9787233" lon="13.3001633"><ele>801.0</ele><time>2026-04-09T13:32:06.373Z</time></trkpt><trkpt lat="42.978585" lon="13.3000467"><ele>796.0</ele><time>2026-04-09T13:32:25.373Z</time></trkpt><trkpt lat="42.9785233" lon="13.2999733"><ele>795.9999999999999</ele><time>2026-04-09T13:32:29.375Z</time></trkpt><trkpt lat="42.9784833" lon="13.2998883"><ele>796.0</ele><time>2026-04-09T13:32:33.375Z</time></trkpt><trkpt lat="42.9784567" lon="13.29981"><ele>796.0</ele><time>2026-04-09T13:32:36.376Z</time></trkpt><trkpt lat="42.9784217" lon="13.299715"><ele>796.0</ele><time>2026-04-09T13:32:39.375Z</time></trkpt><trkpt lat="42.97831" lon="13.2995783"><ele>795.9999999999999</ele><time>2026-04-09T13:34:07.374Z</time></trkpt><trkpt lat="42.9782767" lon="13.2996717"><ele>796.0</ele><time>2026-04-09T13:34:15.374Z</time></trkpt><trkpt lat="42.9782717" lon="13.2997683"><ele>795.3333333333333</ele><time>2026-04-09T13:34:18.374Z</time></trkpt><trkpt lat="42.9782467" lon="13.29989"><ele>794.6666666666666</ele><time>2026-04-09T13:34:21.375Z</time></trkpt><trkpt lat="42.978225" lon="13.2999717"><ele>794.0</ele><time>2026-04-09T13:34:23.374Z</time></trkpt><trkpt lat="42.9781767" lon="13.300055"><ele>793.3333333333333</ele><time>2026-04-09T13:34:25.375Z</time></trkpt><trkpt lat="42.9781033" lon="13.3001167"><ele>792.6666666666666</ele><time>2026-04-09T13:34:27.375Z</time></trkpt><trkpt lat="42.9780083" lon="13.30017"><ele>792.0</ele><time>2026-04-09T13:34:29.375Z</time></trkpt><trkpt lat="42.9779233" lon="13.3002333"><ele>792.0</ele><time>2026-04-09T13:34:31.376Z</time></trkpt><trkpt lat="42.9778667" lon="13.3002767"><ele>792.0</ele><time>2026-04-09T13:34:33.375Z</time></trkpt><trkpt lat="42.9777933" lon="13.300275"><ele>792.0</ele><time>2026-04-09T13:34:36.375Z</time></trkpt><trkpt lat="42.9777083" lon="13.3002567"><ele>792.0</ele><time>2026-04-09T13:34:39.374Z</time></trkpt><trkpt lat="42.9776483" lon="13.300295"><ele>792.0</ele><time>2026-04-09T13:34:42.375Z</time></trkpt><trkpt lat="42.9775783" lon="13.3003083"><ele>792.0</ele><time>2026-04-09T13:34:45.373Z</time></trkpt><trkpt lat="42.977515" lon="13.3003067"><ele>792.0</ele><time>2026-04-09T13:34:55.377Z</time></trkpt><trkpt lat="42.977445" lon="13.3003367"><ele>792.3333333333334</ele><time>2026-04-09T13:34:59.376Z</time></trkpt><trkpt lat="42.9773617" lon="13.3003833"><ele>792.6666666666667</ele><time>2026-04-09T13:35:12.378Z</time></trkpt><trkpt lat="42.9772817" lon="13.3004267"><ele>793.0</ele><time>2026-04-09T13:35:16.378Z</time></trkpt><trkpt lat="42.977215" lon="13.3004883"><ele>793.3333333333334</ele><time>2026-04-09T13:35:19.375Z</time></trkpt><trkpt lat="42.977145" lon="13.3005633"><ele>793.6666666666667</ele><time>2026-04-09T13:35:22.376Z</time></trkpt><trkpt lat="42.9771167" lon="13.300655"><ele>794.0</ele><time>2026-04-09T13:35:25.376Z</time></trkpt><trkpt lat="42.9771283" lon="13.300755"><ele>792.6666666666667</ele><time>2026-04-09T13:35:28.377Z</time></trkpt><trkpt lat="42.97713" lon="13.3008417"><ele>791.3333333333334</ele><time>2026-04-09T13:35:30.375Z</time></trkpt><trkpt lat="42.97713" lon="13.3009367"><ele>790.0</ele><time>2026-04-09T13:35:32.375Z</time></trkpt><trkpt lat="42.9771033" lon="13.3010317"><ele>788.6666666666667</ele><time>2026-04-09T13:35:34.373Z</time></trkpt><trkpt lat="42.9770483" lon="13.3011567"><ele>787.3333333333334</ele><time>2026-04-09T13:35:36.374Z</time></trkpt><trkpt lat="42.9769767" lon="13.3012717"><ele>786.0</ele><time>2026-04-09T13:35:38.377Z</time></trkpt><trkpt lat="42.9769017" lon="13.301385"><ele>785.3333333333334</ele><time>2026-04-09T13:35:40.373Z</time></trkpt><trkpt lat="42.9768433" lon="13.3014733"><ele>784.6666666666667</ele><time>2026-04-09T13:35:42.377Z</time></trkpt><trkpt lat="42.9767917" lon="13.3015417"><ele>784.0</ele><time>2026-04-09T13:35:44.375Z</time></trkpt><trkpt lat="42.976735" lon="13.301615"><ele>783.3333333333334</ele><time>2026-04-09T13:35:47.374Z</time></trkpt><trkpt lat="42.9766983" lon="13.301695"><ele>782.6666666666667</ele><time>2026-04-09T13:35:49.374Z</time></trkpt><trkpt lat="42.97664" lon="13.3018283"><ele>782.0</ele><time>2026-04-09T13:35:51.374Z</time></trkpt><trkpt lat="42.9765817" lon="13.301975"><ele>781.6</ele><time>2026-04-09T13:35:53.374Z</time></trkpt><trkpt lat="42.9765117" lon="13.3021133"><ele>781.2</ele><time>2026-04-09T13:35:55.378Z</time></trkpt><trkpt lat="42.9764467" lon="13.30226"><ele>780.8</ele><time>2026-04-09T13:35:57.374Z</time></trkpt><trkpt lat="42.9764167" lon="13.3023367"><ele>780.4</ele><time>2026-04-09T13:35:58.374Z</time></trkpt><trkpt lat="42.9763567" lon="13.3024783"><ele>780.0</ele><time>2026-04-09T13:36:00.378Z</time></trkpt><trkpt lat="42.976295" lon="13.3026"><ele>780.0</ele><time>2026-04-09T13:36:02.378Z</time></trkpt><trkpt lat="42.9762333" lon="13.30271"><ele>780.0</ele><time>2026-04-09T13:36:04.377Z</time></trkpt><trkpt lat="42.9761617" lon="13.302825"><ele>780.0</ele><time>2026-04-09T13:36:06.374Z</time></trkpt><trkpt lat="42.97611" lon="13.30297"><ele>780.0</ele><time>2026-04-09T13:36:08.375Z</time></trkpt><trkpt lat="42.976035" lon="13.3031017"><ele>778.5714285714286</ele><time>2026-04-09T13:36:10.377Z</time></trkpt><trkpt lat="42.9759817" lon="13.3031533"><ele>777.1428571428571</ele><time>2026-04-09T13:36:11.375Z</time></trkpt><trkpt lat="42.9759267" lon="13.3031967"><ele>775.7142857142858</ele><time>2026-04-09T13:36:12.375Z</time></trkpt><trkpt lat="42.9758683" lon="13.3032367"><ele>774.2857142857142</ele><time>2026-04-09T13:36:13.375Z</time></trkpt><trkpt lat="42.97581" lon="13.3032717"><ele>772.8571428571429</ele><time>2026-04-09T13:36:14.376Z</time></trkpt><trkpt lat="42.97575" lon="13.3032983"><ele>771.4285714285714</ele><time>2026-04-09T13:36:15.373Z</time></trkpt><trkpt lat="42.9756317" lon="13.3033283"><ele>770.0</ele><time>2026-04-09T13:36:17.375Z</time></trkpt><trkpt lat="42.97554" lon="13.303385"><ele>770.0000000000001</ele><time>2026-04-09T13:36:19.375Z</time></trkpt><trkpt lat="42.97549" lon="13.30348"><ele>770.0</ele><time>2026-04-09T13:36:21.377Z</time></trkpt><trkpt lat="42.9754967" lon="13.30357"><ele>770.0</ele><time>2026-04-09T13:36:22.374Z</time></trkpt><trkpt lat="42.9755183" lon="13.3036867"><ele>770.0</ele><time>2026-04-09T13:36:23.374Z</time></trkpt><trkpt lat="42.9755533" lon="13.30381"><ele>770.0000000000001</ele><time>2026-04-09T13:36:24.372Z</time></trkpt><trkpt lat="42.9755933" lon="13.303925"><ele>770.0</ele><time>2026-04-09T13:36:25.374Z</time></trkpt><trkpt lat="42.97563" lon="13.3040417"><ele>768.6666666666667</ele><time>2026-04-09T13:36:26.373Z</time></trkpt><trkpt lat="42.9756583" lon="13.304165"><ele>767.3333333333334</ele><time>2026-04-09T13:36:27.372Z</time></trkpt><trkpt lat="42.9756833" lon="13.3042917"><ele>766.0</ele><time>2026-04-09T13:36:28.375Z</time></trkpt><trkpt lat="42.9757017" lon="13.30441"><ele>764.6666666666667</ele><time>2026-04-09T13:36:29.373Z</time></trkpt><trkpt lat="42.97572" lon="13.304525"><ele>763.3333333333334</ele><time>2026-04-09T13:36:30.373Z</time></trkpt><trkpt lat="42.9757267" lon="13.30463"><ele>762.0</ele><time>2026-04-09T13:36:31.375Z</time></trkpt><trkpt lat="42.9757167" lon="13.3047367"><ele>760.3333333333334</ele><time>2026-04-09T13:36:32.374Z</time></trkpt><trkpt lat="42.9756967" lon="13.304855"><ele>758.6666666666666</ele><time>2026-04-09T13:36:33.373Z</time></trkpt><trkpt lat="42.975685" lon="13.3049733"><ele>757.0</ele><time>2026-04-09T13:36:34.372Z</time></trkpt><trkpt lat="42.9756867" lon="13.3050983"><ele>755.3333333333333</ele><time>2026-04-09T13:36:35.374Z</time></trkpt><trkpt lat="42.9756933" lon="13.3052167"><ele>753.6666666666666</ele><time>2026-04-09T13:36:36.373Z</time></trkpt><trkpt lat="42.9757" lon="13.3053333"><ele>752.0</ele><time>2026-04-09T13:36:37.372Z</time></trkpt><trkpt lat="42.9757" lon="13.3054467"><ele>752.0</ele><time>2026-04-09T13:36:38.374Z</time></trkpt><trkpt lat="42.9756917" lon="13.3055667"><ele>752.0</ele><time>2026-04-09T13:36:39.373Z</time></trkpt><trkpt lat="42.9756833" lon="13.30568"><ele>752.0</ele><time>2026-04-09T13:36:40.373Z</time></trkpt><trkpt lat="42.9756817" lon="13.3058"><ele>752.0</ele><time>2026-04-09T13:36:41.373Z</time></trkpt><trkpt lat="42.97569" lon="13.3059083"><ele>752.0</ele><time>2026-04-09T13:36:42.373Z</time></trkpt><trkpt lat="42.975695" lon="13.3060133"><ele>752.0</ele><time>2026-04-09T13:36:43.375Z</time></trkpt><trkpt lat="42.9756967" lon="13.306115"><ele>749.3333333333333</ele><time>2026-04-09T13:36:44.374Z</time></trkpt><trkpt lat="42.9756917" lon="13.3062067"><ele>746.6666666666666</ele><time>2026-04-09T13:36:45.375Z</time></trkpt><trkpt lat="42.9756767" lon="13.306295"><ele>744.0</ele><time>2026-04-09T13:36:46.375Z</time></trkpt><trkpt lat="42.97564" lon="13.30645"><ele>741.3333333333334</ele><time>2026-04-09T13:36:48.375Z</time></trkpt><trkpt lat="42.97561" lon="13.306575"><ele>738.6666666666667</ele><time>2026-04-09T13:36:50.374Z</time></trkpt><trkpt lat="42.9756217" lon="13.306665"><ele>736.0</ele><time>2026-04-09T13:36:52.374Z</time></trkpt><trkpt lat="42.9756833" lon="13.306695"><ele>733.6666666666667</ele><time>2026-04-09T13:36:56.376Z</time></trkpt><trkpt lat="42.9757167" lon="13.306605"><ele>731.3333333333334</ele><time>2026-04-09T13:36:58.376Z</time></trkpt><trkpt lat="42.9757433" lon="13.3064933"><ele>729.0</ele><time>2026-04-09T13:37:00.375Z</time></trkpt><trkpt lat="42.97578" lon="13.3064167"><ele>726.6666666666666</ele><time>2026-04-09T13:37:03.375Z</time></trkpt><trkpt lat="42.9758033" lon="13.3064983"><ele>724.3333333333333</ele><time>2026-04-09T13:37:07.374Z</time></trkpt><trkpt lat="42.9757767" lon="13.3065917"><ele>722.0</ele><time>2026-04-09T13:37:09.376Z</time></trkpt><trkpt lat="42.97574" lon="13.3067067"><ele>722.0</ele><time>2026-04-09T13:37:11.376Z</time></trkpt><trkpt lat="42.9757183" lon="13.3068483"><ele>722.0</ele><time>2026-04-09T13:37:13.377Z</time></trkpt><trkpt lat="42.9757117" lon="13.3070117"><ele>722.0</ele><time>2026-04-09T13:37:15.374Z</time></trkpt><trkpt lat="42.9757117" lon="13.307115"><ele>722.0</ele><time>2026-04-09T13:37:16.375Z</time></trkpt><trkpt lat="42.975705" lon="13.30722"><ele>722.0</ele><time>2026-04-09T13:37:17.376Z</time></trkpt><trkpt lat="42.9757017" lon="13.3073183"><ele>719.1428571428572</ele><time>2026-04-09T13:37:18.376Z</time></trkpt><trkpt lat="42.9757" lon="13.3074183"><ele>716.2857142857142</ele><time>2026-04-09T13:37:19.374Z</time></trkpt><trkpt lat="42.9756933" lon="13.307515"><ele>713.4285714285714</ele><time>2026-04-09T13:37:20.376Z</time></trkpt><trkpt lat="42.9756883" lon="13.307605"><ele>710.5714285714287</ele><time>2026-04-09T13:37:21.374Z</time></trkpt><trkpt lat="42.9756933" lon="13.3076917"><ele>707.7142857142858</ele><time>2026-04-09T13:37:22.373Z</time></trkpt><trkpt lat="42.9757017" lon="13.3077867"><ele>704.8571428571429</ele><time>2026-04-09T13:37:23.374Z</time></trkpt><trkpt lat="42.9757117" lon="13.30789"><ele>702.0</ele><time>2026-04-09T13:37:24.374Z</time></trkpt><trkpt lat="42.975715" lon="13.307985"><ele>697.2</ele><time>2026-04-09T13:37:25.374Z</time></trkpt><trkpt lat="42.975725" lon="13.3080817"><ele>692.4000000000001</ele><time>2026-04-09T13:37:26.374Z</time></trkpt><trkpt lat="42.9757317" lon="13.3081683"><ele>687.5999999999999</ele><time>2026-04-09T13:37:27.374Z</time></trkpt><trkpt lat="42.97572" lon="13.3083283"><ele>682.8</ele><time>2026-04-09T13:37:29.375Z</time></trkpt><trkpt lat="42.9757033" lon="13.3084983"><ele>678.0</ele><time>2026-04-09T13:37:31.375Z</time></trkpt><trkpt lat="42.9756817" lon="13.3086683"><ele>678.0</ele><time>2026-04-09T13:37:33.374Z</time></trkpt><trkpt lat="42.9756733" lon="13.308765"><ele>678.0</ele><time>2026-04-09T13:37:34.375Z</time></trkpt><trkpt lat="42.975665" lon="13.30887"><ele>678.0</ele><time>2026-04-09T13:37:35.376Z</time></trkpt><trkpt lat="42.975665" lon="13.308975"><ele>678.0</ele><time>2026-04-09T13:37:36.374Z</time></trkpt><trkpt lat="42.97567" lon="13.3090983"><ele>678.0</ele><time>2026-04-09T13:37:37.375Z</time></trkpt><trkpt lat="42.9756833" lon="13.3092183"><ele>678.0</ele><time>2026-04-09T13:37:38.375Z</time></trkpt><trkpt lat="42.9756917" lon="13.3093383"><ele>676.3333333333334</ele><time>2026-04-09T13:37:39.374Z</time></trkpt><trkpt lat="42.9757117" lon="13.3094567"><ele>674.6666666666666</ele><time>2026-04-09T13:37:40.375Z</time></trkpt><trkpt lat="42.9757183" lon="13.3095667"><ele>673.0</ele><time>2026-04-09T13:37:41.374Z</time></trkpt><trkpt lat="42.975715" lon="13.30968"><ele>671.3333333333333</ele><time>2026-04-09T13:37:42.374Z</time></trkpt><trkpt lat="42.9757317" lon="13.3097717"><ele>669.6666666666666</ele><time>2026-04-09T13:37:43.373Z</time></trkpt><trkpt lat="42.9757333" lon="13.3099317"><ele>668.0</ele><time>2026-04-09T13:37:45.376Z</time></trkpt><trkpt lat="42.9757217" lon="13.3100233"><ele>665.0</ele><time>2026-04-09T13:37:46.374Z</time></trkpt><trkpt lat="42.9757217" lon="13.3101233"><ele>662.0</ele><time>2026-04-09T13:37:47.374Z</time></trkpt><trkpt lat="42.9757167" lon="13.310225"><ele>659.0</ele><time>2026-04-09T13:37:48.375Z</time></trkpt><trkpt lat="42.9757083" lon="13.3103383"><ele>656.0</ele><time>2026-04-09T13:37:49.375Z</time></trkpt><trkpt lat="42.9757017" lon="13.3073183"><ele>662.5714285714286</ele><time>2026-04-09T13:37:18.376Z</time></trkpt><trkpt lat="42.9757" lon="13.3074183"><ele>669.1428571428571</ele><time>2026-04-09T13:37:19.374Z</time></trkpt><trkpt lat="42.9756933" lon="13.307515"><ele>675.7142857142858</ele><time>2026-04-09T13:37:20.376Z</time></trkpt><trkpt lat="42.9756883" lon="13.307605"><ele>682.2857142857142</ele><time>2026-04-09T13:37:21.374Z</time></trkpt><trkpt lat="42.9756933" lon="13.3076917"><ele>688.8571428571429</ele><time>2026-04-09T13:37:22.373Z</time></trkpt><trkpt lat="42.9757017" lon="13.3077867"><ele>695.4285714285714</ele><time>2026-04-09T13:37:23.374Z</time></trkpt><trkpt lat="42.9757117" lon="13.30789"><ele>702.0</ele><time>2026-04-09T13:37:24.374Z</time></trkpt><trkpt lat="42.975715" lon="13.307985"><ele>697.2</ele><time>2026-04-09T13:37:25.374Z</time></trkpt><trkpt lat="42.975725" lon="13.3080817"><ele>692.4000000000001</ele><time>2026-04-09T13:37:26.374Z</time></trkpt><trkpt lat="42.9757317" lon="13.3081683"><ele>687.5999999999999</ele><time>2026-04-09T13:37:27.374Z</time></trkpt><trkpt lat="42.97572" lon="13.3083283"><ele>682.8</ele><time>2026-04-09T13:37:29.375Z</time></trkpt><trkpt lat="42.9757033" lon="13.3084983"><ele>678.0</ele><time>2026-04-09T13:37:31.375Z</time></trkpt><trkpt lat="42.9756817" lon="13.3086683"><ele>678.0</ele><time>2026-04-09T13:37:33.374Z</time></trkpt><trkpt lat="42.9756733" lon="13.308765"><ele>678.0</ele><time>2026-04-09T13:37:34.375Z</time></trkpt><trkpt lat="42.975665" lon="13.30887"><ele>678.0</ele><time>2026-04-09T13:37:35.376Z</time></trkpt><trkpt lat="42.975665" lon="13.308975"><ele>678.0</ele><time>2026-04-09T13:37:36.374Z</time></trkpt><trkpt lat="42.97567" lon="13.3090983"><ele>678.0</ele><time>2026-04-09T13:37:37.375Z</time></trkpt><trkpt lat="42.9756833" lon="13.3092183"><ele>678.0</ele><time>2026-04-09T13:37:38.375Z</time></trkpt><trkpt lat="42.9756917" lon="13.3093383"><ele>676.3333333333334</ele><time>2026-04-09T13:37:39.374Z</time></trkpt><trkpt lat="42.9757117" lon="13.3094567"><ele>674.6666666666666</ele><time>2026-04-09T13:37:40.375Z</time></trkpt><trkpt lat="42.9757183" lon="13.3095667"><ele>673.0</ele><time>2026-04-09T13:37:41.374Z</time></trkpt><trkpt lat="42.975715" lon="13.30968"><ele>671.3333333333333</ele><time>2026-04-09T13:37:42.374Z</time></trkpt><trkpt lat="42.9757317" lon="13.3097717"><ele>669.6666666666666</ele><time>2026-04-09T13:37:43.373Z</time></trkpt><trkpt lat="42.9757333" lon="13.3099317"><ele>668.0</ele><time>2026-04-09T13:37:45.376Z</time></trkpt><trkpt lat="42.9757217" lon="13.3100233"><ele>666.0</ele><time>2026-04-09T13:37:46.374Z</time></trkpt><trkpt lat="42.9757217" lon="13.3101233"><ele>664.0</ele><time>2026-04-09T13:37:47.374Z</time></trkpt><trkpt lat="42.9757167" lon="13.310225"><ele>662.0</ele><time>2026-04-09T13:37:48.375Z</time></trkpt><trkpt lat="42.9757083" lon="13.3103383"><ele>660.0</ele><time>2026-04-09T13:37:49.375Z</time></trkpt><trkpt lat="42.9756967" lon="13.31045"><ele>658.0</ele><time>2026-04-09T13:37:50.376Z</time></trkpt><trkpt lat="42.975675" lon="13.31058"><ele>656.0</ele><time>2026-04-09T13:37:51.375Z</time></trkpt><trkpt lat="42.97566" lon="13.3107133"><ele>654.0</ele><time>2026-04-09T13:37:52.374Z</time></trkpt><trkpt lat="42.97565" lon="13.3108517"><ele>652.0</ele><time>2026-04-09T13:37:53.375Z</time></trkpt><trkpt lat="42.9756417" lon="13.310995"><ele>650.0</ele><time>2026-04-09T13:37:54.374Z</time></trkpt><trkpt lat="42.9756367" lon="13.3111367"><ele>648.0</ele><time>2026-04-09T13:37:55.375Z</time></trkpt><trkpt lat="42.975635" lon="13.3112833"><ele>646.0</ele><time>2026-04-09T13:37:56.374Z</time></trkpt><trkpt lat="42.9756317" lon="13.311425"><ele>644.0</ele><time>2026-04-09T13:37:57.374Z</time></trkpt><trkpt lat="42.9756367" lon="13.311565"><ele>642.0</ele><time>2026-04-09T13:37:58.374Z</time></trkpt><trkpt lat="42.9756483" lon="13.311695"><ele>640.0</ele><time>2026-04-09T13:37:59.374Z</time></trkpt><trkpt lat="42.975665" lon="13.3118167"><ele>638.0</ele><time>2026-04-09T13:38:00.374Z</time></trkpt><trkpt lat="42.9756817" lon="13.3119383"><ele>636.0</ele><time>2026-04-09T13:38:01.373Z</time></trkpt><trkpt lat="42.9756983" lon="13.312055"><ele>636.0</ele><time>2026-04-09T13:38:02.374Z</time></trkpt><trkpt lat="42.97573" lon="13.3121767"><ele>636.0</ele><time>2026-04-09T13:38:03.373Z</time></trkpt><trkpt lat="42.9757633" lon="13.3122917"><ele>636.0</ele><time>2026-04-09T13:38:04.376Z</time></trkpt><trkpt lat="42.975815" lon="13.3124083"><ele>636.0</ele><time>2026-04-09T13:38:05.376Z</time></trkpt><trkpt lat="42.9758483" lon="13.3125567"><ele>636.0</ele><time>2026-04-09T13:38:06.375Z</time></trkpt><trkpt lat="42.9758817" lon="13.312685"><ele>633.8</ele><time>2026-04-09T13:38:07.375Z</time></trkpt><trkpt lat="42.9759167" lon="13.312815"><ele>631.6</ele><time>2026-04-09T13:38:08.379Z</time></trkpt><trkpt lat="42.9759517" lon="13.31294"><ele>629.4</ele><time>2026-04-09T13:38:09.374Z</time></trkpt><trkpt lat="42.975985" lon="13.313045"><ele>627.2</ele><time>2026-04-09T13:38:10.374Z</time></trkpt><trkpt lat="42.9760267" lon="13.31314"><ele>625.0</ele><time>2026-04-09T13:38:11.374Z</time></trkpt><trkpt lat="42.97608" lon="13.3132583"><ele>621.6666666666667</ele><time>2026-04-09T13:38:12.375Z</time></trkpt><trkpt lat="42.9761383" lon="13.3133567"><ele>618.3333333333334</ele><time>2026-04-09T13:38:13.374Z</time></trkpt><trkpt lat="42.9762033" lon="13.3134383"><ele>615.0</ele><time>2026-04-09T13:38:14.378Z</time></trkpt><trkpt lat="42.976265" lon="13.3135017"><ele>611.6666666666666</ele><time>2026-04-09T13:38:15.372Z</time></trkpt><trkpt lat="42.9763317" lon="13.313575"><ele>608.3333333333333</ele><time>2026-04-09T13:38:16.374Z</time></trkpt><trkpt lat="42.976385" lon="13.31366"><ele>605.0</ele><time>2026-04-09T13:38:17.376Z</time></trkpt><trkpt lat="42.976425" lon="13.3137383"><ele>605.0</ele><time>2026-04-09T13:38:18.377Z</time></trkpt><trkpt lat="42.9764567" lon="13.3138317"><ele>605.0</ele><time>2026-04-09T13:38:19.373Z</time></trkpt><trkpt lat="42.9764717" lon="13.3139267"><ele>605.0</ele><time>2026-04-09T13:38:20.375Z</time></trkpt><trkpt lat="42.97647" lon="13.3140267"><ele>605.0</ele><time>2026-04-09T13:38:21.375Z</time></trkpt><trkpt lat="42.9764683" lon="13.3141217"><ele>605.0</ele><time>2026-04-09T13:38:22.375Z</time></trkpt><trkpt lat="42.97646" lon="13.314215"><ele>605.0</ele><time>2026-04-09T13:38:23.376Z</time></trkpt><trkpt lat="42.9764417" lon="13.314315"><ele>605.0</ele><time>2026-04-09T13:38:24.375Z</time></trkpt><trkpt lat="42.9764133" lon="13.3144083"><ele>603.2</ele><time>2026-04-09T13:38:25.376Z</time></trkpt><trkpt lat="42.9763217" lon="13.314565"><ele>601.4</ele><time>2026-04-09T13:38:27.376Z</time></trkpt><trkpt lat="42.976245" lon="13.31465"><ele>599.6</ele><time>2026-04-09T13:38:28.377Z</time></trkpt><trkpt lat="42.9761667" lon="13.3147217"><ele>597.8</ele><time>2026-04-09T13:38:29.374Z</time></trkpt><trkpt lat="42.9760867" lon="13.3147833"><ele>596.0</ele><time>2026-04-09T13:38:30.375Z</time></trkpt><trkpt lat="42.9760167" lon="13.3148333"><ele>595.4</ele><time>2026-04-09T13:38:31.376Z</time></trkpt><trkpt lat="42.9759467" lon="13.3148767"><ele>594.8</ele><time>2026-04-09T13:38:32.375Z</time></trkpt><trkpt lat="42.97588" lon="13.314915"><ele>594.1999999999999</ele><time>2026-04-09T13:38:33.374Z</time></trkpt><trkpt lat="42.9757733" lon="13.3149767"><ele>593.6</ele><time>2026-04-09T13:38:35.375Z</time></trkpt><trkpt lat="42.9756933" lon="13.3150617"><ele>593.0</ele><time>2026-04-09T13:38:37.374Z</time></trkpt><trkpt lat="42.9756117" lon="13.31517"><ele>593.0</ele><time>2026-04-09T13:38:39.375Z</time></trkpt><trkpt lat="42.9755283" lon="13.3152983"><ele>593.0</ele><time>2026-04-09T13:38:41.375Z</time></trkpt><trkpt lat="42.975485" lon="13.3153683"><ele>593.0</ele><time>2026-04-09T13:38:42.375Z</time></trkpt><trkpt lat="42.9754017" lon="13.3154933"><ele>593.0</ele><time>2026-04-09T13:38:44.375Z</time></trkpt><trkpt lat="42.9753517" lon="13.315565"><ele>593.0</ele><time>2026-04-09T13:38:45.375Z</time></trkpt><trkpt lat="42.9753033" lon="13.31563"><ele>590.1428571428571</ele><time>2026-04-09T13:38:46.376Z</time></trkpt><trkpt lat="42.9752517" lon="13.3156933"><ele>587.2857142857142</ele><time>2026-04-09T13:38:47.375Z</time></trkpt><trkpt lat="42.9752067" lon="13.3157617"><ele>584.4285714285714</ele><time>2026-04-09T13:38:48.376Z</time></trkpt><trkpt lat="42.9751583" lon="13.315845"><ele>581.5714285714286</ele><time>2026-04-09T13:38:49.374Z</time></trkpt><trkpt lat="42.9751133" lon="13.31593"><ele>578.7142857142858</ele><time>2026-04-09T13:38:50.375Z</time></trkpt><trkpt lat="42.9750783" lon="13.316025"><ele>575.8571428571429</ele><time>2026-04-09T13:38:51.375Z</time></trkpt><trkpt lat="42.9750467" lon="13.316125"><ele>573.0</ele><time>2026-04-09T13:38:52.375Z</time></trkpt><trkpt lat="42.975025" lon="13.316235"><ele>573.3333333333334</ele><time>2026-04-09T13:38:53.376Z</time></trkpt><trkpt lat="42.9750067" lon="13.3163533"><ele>573.6666666666666</ele><time>2026-04-09T13:38:54.374Z</time></trkpt><trkpt lat="42.9749883" lon="13.3164683"><ele>574.0</ele><time>2026-04-09T13:38:55.374Z</time></trkpt><trkpt lat="42.974975" lon="13.3165833"><ele>574.3333333333333</ele><time>2026-04-09T13:38:56.376Z</time></trkpt><trkpt lat="42.9749583" lon="13.3167117"><ele>574.6666666666666</ele><time>2026-04-09T13:38:57.376Z</time></trkpt><trkpt lat="42.9749517" lon="13.31682"><ele>575.0</ele><time>2026-04-09T13:38:58.374Z</time></trkpt><trkpt lat="42.9749517" lon="13.3169317"><ele>573.5</ele><time>2026-04-09T13:38:59.375Z</time></trkpt><trkpt lat="42.9749633" lon="13.3170467"><ele>572.0</ele><time>2026-04-09T13:39:00.378Z</time></trkpt><trkpt lat="42.9749817" lon="13.3171583"><ele>570.5</ele><time>2026-04-09T13:39:01.374Z</time></trkpt><trkpt lat="42.97501" lon="13.3172617"><ele>569.0</ele><time>2026-04-09T13:39:02.374Z</time></trkpt><trkpt lat="42.97505" lon="13.3173467"><ele>567.5</ele><time>2026-04-09T13:39:03.373Z</time></trkpt><trkpt lat="42.9751017" lon="13.3174383"><ele>566.0</ele><time>2026-04-09T13:39:04.375Z</time></trkpt><trkpt lat="42.975155" lon="13.3175133"><ele>565.2857142857143</ele><time>2026-04-09T13:39:05.374Z</time></trkpt><trkpt lat="42.9752017" lon="13.3175933"><ele>564.5714285714287</ele><time>2026-04-09T13:39:06.374Z</time></trkpt><trkpt lat="42.975235" lon="13.3176683"><ele>563.8571428571429</ele><time>2026-04-09T13:39:07.374Z</time></trkpt><trkpt lat="42.97525" lon="13.3177533"><ele>563.1428571428571</ele><time>2026-04-09T13:39:08.374Z</time></trkpt><trkpt lat="42.97526" lon="13.3178433"><ele>562.4285714285713</ele><time>2026-04-09T13:39:09.374Z</time></trkpt><trkpt lat="42.97525" lon="13.3179433"><ele>561.7142857142857</ele><time>2026-04-09T13:39:10.374Z</time></trkpt><trkpt lat="42.9752183" lon="13.318065"><ele>561.0</ele><time>2026-04-09T13:39:11.375Z</time></trkpt><trkpt lat="42.975185" lon="13.318185"><ele>560.8333333333334</ele><time>2026-04-09T13:39:12.374Z</time></trkpt><trkpt lat="42.975145" lon="13.3182917"><ele>560.6666666666666</ele><time>2026-04-09T13:39:13.377Z</time></trkpt><trkpt lat="42.9751" lon="13.3183967"><ele>560.5</ele><time>2026-04-09T13:39:14.374Z</time></trkpt><trkpt lat="42.97506" lon="13.31849"><ele>560.3333333333333</ele><time>2026-04-09T13:39:15.375Z</time></trkpt><trkpt lat="42.9750217" lon="13.3186017"><ele>560.1666666666666</ele><time>2026-04-09T13:39:16.376Z</time></trkpt><trkpt lat="42.9749967" lon="13.3187067"><ele>560.0</ele><time>2026-04-09T13:39:17.374Z</time></trkpt><trkpt lat="42.9749917" lon="13.3188117"><ele>559.8333333333333</ele><time>2026-04-09T13:39:18.373Z</time></trkpt><trkpt lat="42.975005" lon="13.31892"><ele>559.6666666666666</ele><time>2026-04-09T13:39:19.375Z</time></trkpt><trkpt lat="42.9750133" lon="13.3190317"><ele>559.5</ele><time>2026-04-09T13:39:20.374Z</time></trkpt><trkpt lat="42.9750267" lon="13.3191283"><ele>559.3333333333334</ele><time>2026-04-09T13:39:21.374Z</time></trkpt><trkpt lat="42.975035" lon="13.319235"><ele>559.1666666666667</ele><time>2026-04-09T13:39:22.374Z</time></trkpt><trkpt lat="42.9750483" lon="13.3193417"><ele>559.0</ele><time>2026-04-09T13:39:23.375Z</time></trkpt><trkpt lat="42.9750667" lon="13.3194433"><ele>559.0</ele><time>2026-04-09T13:39:24.374Z</time></trkpt><trkpt lat="42.9750833" lon="13.3195633"><ele>559.0</ele><time>2026-04-09T13:39:25.374Z</time></trkpt><trkpt lat="42.975095" lon="13.3196833"><ele>559.0</ele><time>2026-04-09T13:39:26.374Z</time></trkpt><trkpt lat="42.9751133" lon="13.3198"><ele>559.0</ele><time>2026-04-09T13:39:27.375Z</time></trkpt><trkpt lat="42.9751367" lon="13.3199033"><ele>559.0</ele><time>2026-04-09T13:39:28.375Z</time></trkpt><trkpt lat="42.9751767" lon="13.3199933"><ele>559.0</ele><time>2026-04-09T13:39:29.378Z</time></trkpt><trkpt lat="42.9752583" lon="13.320105"><ele>557.6</ele><time>2026-04-09T13:39:31.378Z</time></trkpt><trkpt lat="42.9753483" lon="13.320165"><ele>556.2</ele><time>2026-04-09T13:39:33.375Z</time></trkpt><trkpt lat="42.9754217" lon="13.3201583"><ele>554.8000000000001</ele><time>2026-04-09T13:39:34.377Z</time></trkpt><trkpt lat="42.9755333" lon="13.32014"><ele>553.4</ele><time>2026-04-09T13:39:35.377Z</time></trkpt><trkpt lat="42.9756467" lon="13.32014"><ele>552.0</ele><time>2026-04-09T13:39:36.376Z</time></trkpt><trkpt lat="42.9757683" lon="13.3201667"><ele>558.75</ele><time>2026-04-09T13:39:37.375Z</time></trkpt><trkpt lat="42.975895" lon="13.3202217"><ele>565.5</ele><time>2026-04-09T13:39:38.375Z</time></trkpt><trkpt lat="42.97602" lon="13.3203083"><ele>572.25</ele><time>2026-04-09T13:39:39.378Z</time></trkpt><trkpt lat="42.9761283" lon="13.3204083"><ele>579.0</ele><time>2026-04-09T13:39:40.377Z</time></trkpt><trkpt lat="42.9762217" lon="13.3204983"><ele>575.8333333333334</ele><time>2026-04-09T13:39:41.376Z</time></trkpt><trkpt lat="42.9763017" lon="13.3205767"><ele>572.6666666666666</ele><time>2026-04-09T13:39:42.374Z</time></trkpt><trkpt lat="42.97637" lon="13.3206467"><ele>569.5</ele><time>2026-04-09T13:39:43.375Z</time></trkpt><trkpt lat="42.9764333" lon="13.3207117"><ele>566.3333333333333</ele><time>2026-04-09T13:39:44.377Z</time></trkpt><trkpt lat="42.9765" lon="13.3207667"><ele>563.1666666666666</ele><time>2026-04-09T13:39:45.381Z</time></trkpt><trkpt lat="42.9765683" lon="13.320825"><ele>560.0</ele><time>2026-04-09T13:39:46.375Z</time></trkpt><trkpt lat="42.9766483" lon="13.3208833"><ele>564.6666666666666</ele><time>2026-04-09T13:39:47.468Z</time></trkpt><trkpt lat="42.9767267" lon="13.3209417"><ele>569.3333333333333</ele><time>2026-04-09T13:39:48.374Z</time></trkpt><trkpt lat="42.9768033" lon="13.32099"><ele>574.0</ele><time>2026-04-09T13:39:49.376Z</time></trkpt><trkpt lat="42.976875" lon="13.321035"><ele>578.6666666666666</ele><time>2026-04-09T13:39:50.374Z</time></trkpt><trkpt lat="42.976945" lon="13.321085"><ele>583.3333333333334</ele><time>2026-04-09T13:39:51.375Z</time></trkpt><trkpt lat="42.97701" lon="13.321145"><ele>588.0</ele><time>2026-04-09T13:39:52.377Z</time></trkpt><trkpt lat="42.9770717" lon="13.3212067"><ele>588.0</ele><time>2026-04-09T13:39:53.375Z</time></trkpt><trkpt lat="42.9771317" lon="13.3212533"><ele>588.0</ele><time>2026-04-09T13:39:54.374Z</time></trkpt><trkpt lat="42.9772283" lon="13.3212417"><ele>588.0</ele><time>2026-04-09T13:39:56.377Z</time></trkpt><trkpt lat="42.9772483" lon="13.3210617"><ele>588.0</ele><time>2026-04-09T13:39:58.376Z</time></trkpt><trkpt lat="42.9772183" lon="13.3209467"><ele>588.0</ele><time>2026-04-09T13:39:59.377Z</time></trkpt><trkpt lat="42.97718" lon="13.3208433"><ele>588.0</ele><time>2026-04-09T13:40:00.376Z</time></trkpt><trkpt lat="42.97712" lon="13.320745"><ele>588.0</ele><time>2026-04-09T13:40:01.377Z</time></trkpt><trkpt lat="42.97705" lon="13.3206567"><ele>588.0</ele><time>2026-04-09T13:40:02.379Z</time></trkpt><trkpt lat="42.9769683" lon="13.320585"><ele>588.0</ele><time>2026-04-09T13:40:03.378Z</time></trkpt><trkpt lat="42.9768917" lon="13.3205233"><ele>588.0</ele><time>2026-04-09T13:40:04.374Z</time></trkpt><trkpt lat="42.9768267" lon="13.3204567"><ele>586.1999999999999</ele><time>2026-04-09T13:40:05.376Z</time></trkpt><trkpt lat="42.97676" lon="13.3203683"><ele>584.4</ele><time>2026-04-09T13:40:06.377Z</time></trkpt><trkpt lat="42.9767083" lon="13.320245"><ele>582.5999999999999</ele><time>2026-04-09T13:40:07.377Z</time></trkpt><trkpt lat="42.976665" lon="13.3201067"><ele>580.8</ele><time>2026-04-09T13:40:08.378Z</time></trkpt><trkpt lat="42.976625" lon="13.3199783"><ele>579.0</ele><time>2026-04-09T13:40:09.379Z</time></trkpt><trkpt lat="42.9765867" lon="13.3198617"><ele>579.0</ele><time>2026-04-09T13:40:10.373Z</time></trkpt><trkpt lat="42.9765633" lon="13.3197417"><ele>579.0</ele><time>2026-04-09T13:40:11.378Z</time></trkpt><trkpt lat="42.9765483" lon="13.319625"><ele>579.0</ele><time>2026-04-09T13:40:12.378Z</time></trkpt><trkpt lat="42.9765483" lon="13.3195067"><ele>579.0</ele><time>2026-04-09T13:40:13.376Z</time></trkpt><trkpt lat="42.9765717" lon="13.3193867"><ele>579.0</ele><time>2026-04-09T13:40:14.379Z</time></trkpt><trkpt lat="42.9766033" lon="13.3192667"><ele>579.0</ele><time>2026-04-09T13:40:15.374Z</time></trkpt><trkpt lat="42.9766317" lon="13.319155"><ele>580.1666666666666</ele><time>2026-04-09T13:40:16.377Z</time></trkpt><trkpt lat="42.97665" lon="13.3190517"><ele>581.3333333333334</ele><time>2026-04-09T13:40:17.376Z</time></trkpt><trkpt lat="42.976675" lon="13.3189583"><ele>582.5</ele><time>2026-04-09T13:40:18.376Z</time></trkpt><trkpt lat="42.976725" lon="13.3188433"><ele>583.6666666666667</ele><time>2026-04-09T13:40:20.375Z</time></trkpt><trkpt lat="42.9767817" lon="13.318785"><ele>584.8333333333334</ele><time>2026-04-09T13:40:22.375Z</time></trkpt><trkpt lat="42.9768217" lon="13.318695"><ele>586.0</ele><time>2026-04-09T13:40:24.375Z</time></trkpt><trkpt lat="42.9768417" lon="13.3185617"><ele>589.1666666666667</ele><time>2026-04-09T13:40:26.375Z</time></trkpt><trkpt lat="42.9768583" lon="13.3184283"><ele>592.3333333333334</ele><time>2026-04-09T13:40:28.376Z</time></trkpt><trkpt lat="42.9768783" lon="13.318305"><ele>595.5</ele><time>2026-04-09T13:40:30.376Z</time></trkpt><trkpt lat="42.9769217" lon="13.3182083"><ele>598.6666666666666</ele><time>2026-04-09T13:40:32.377Z</time></trkpt><trkpt lat="42.976955" lon="13.3181183"><ele>601.8333333333333</ele><time>2026-04-09T13:40:34.374Z</time></trkpt><trkpt lat="42.97698" lon="13.318025"><ele>605.0</ele><time>2026-04-09T13:40:36.375Z</time></trkpt><trkpt lat="42.9770733" lon="13.3180133"><ele>606.3333333333333</ele><time>2026-04-09T13:40:40.379Z</time></trkpt><trkpt lat="42.9771367" lon="13.3180767"><ele>607.6666666666666</ele><time>2026-04-09T13:40:42.375Z</time></trkpt><trkpt lat="42.9772133" lon="13.318145"><ele>609.0</ele><time>2026-04-09T13:40:44.378Z</time></trkpt><trkpt lat="42.9772883" lon="13.3182117"><ele>610.3333333333334</ele><time>2026-04-09T13:40:46.377Z</time></trkpt><trkpt lat="42.9773733" lon="13.3182283"><ele>611.6666666666667</ele><time>2026-04-09T13:40:48.378Z</time></trkpt><trkpt lat="42.9774733" lon="13.318195"><ele>613.0</ele><time>2026-04-09T13:40:50.376Z</time></trkpt><trkpt lat="42.9775767" lon="13.3181467"><ele>613.0</ele><time>2026-04-09T13:40:52.378Z</time></trkpt><trkpt lat="42.9776783" lon="13.3181117"><ele>613.0</ele><time>2026-04-09T13:40:54.375Z</time></trkpt><trkpt lat="42.9777733" lon="13.3181"><ele>613.0</ele><time>2026-04-09T13:40:56.376Z</time></trkpt><trkpt lat="42.97768" lon="13.3181317"><ele>613.0</ele><time>2026-04-09T13:43:54.377Z</time></trkpt><trkpt lat="42.9775967" lon="13.3181633"><ele>613.0</ele><time>2026-04-09T13:43:56.377Z</time></trkpt><trkpt lat="42.9775117" lon="13.3181983"><ele>613.0</ele><time>2026-04-09T13:43:58.374Z</time></trkpt><trkpt lat="42.977445" lon="13.31823"><ele>613.0</ele><time>2026-04-09T13:44:00.376Z</time></trkpt><trkpt lat="42.9773783" lon="13.3182583"><ele>613.0</ele><time>2026-04-09T13:44:02.378Z</time></trkpt><trkpt lat="42.9773" lon="13.318285"><ele>613.0</ele><time>2026-04-09T13:44:05.373Z</time></trkpt><trkpt lat="42.9772133" lon="13.3182317"><ele>613.0</ele><time>2026-04-09T13:44:16.375Z</time></trkpt><trkpt lat="42.977155" lon="13.31815"><ele>613.0</ele><time>2026-04-09T13:44:18.375Z</time></trkpt><trkpt lat="42.9771033" lon="13.31807"><ele>613.0</ele><time>2026-04-09T13:44:20.375Z</time></trkpt><trkpt lat="42.9770317" lon="13.3180217"><ele>613.0</ele><time>2026-04-09T13:44:22.375Z</time></trkpt><trkpt lat="42.97697" lon="13.31804"><ele>613.0</ele><time>2026-04-09T13:44:26.375Z</time></trkpt><trkpt lat="42.9769383" lon="13.3181633"><ele>613.0</ele><time>2026-04-09T13:44:29.375Z</time></trkpt><trkpt lat="42.9768917" lon="13.318245"><ele>613.0</ele><time>2026-04-09T13:44:32.375Z</time></trkpt><trkpt lat="42.9768417" lon="13.3183633"><ele>613.0</ele><time>2026-04-09T13:44:35.374Z</time></trkpt><trkpt lat="42.9768167" lon="13.3184833"><ele>613.0</ele><time>2026-04-09T13:44:37.374Z</time></trkpt><trkpt lat="42.9768" lon="13.3186067"><ele>613.0</ele><time>2026-04-09T13:44:39.378Z</time></trkpt><trkpt lat="42.9767817" lon="13.31872"><ele>613.0</ele><time>2026-04-09T13:44:41.375Z</time></trkpt><trkpt lat="42.9767333" lon="13.31882"><ele>613.0</ele><time>2026-04-09T13:44:44.376Z</time></trkpt><trkpt lat="42.97669" lon="13.31889"><ele>613.0</ele><time>2026-04-09T13:44:46.375Z</time></trkpt><trkpt lat="42.97665" lon="13.3189883"><ele>613.0</ele><time>2026-04-09T13:44:48.374Z</time></trkpt><trkpt lat="42.9766333" lon="13.3191233"><ele>608.5</ele><time>2026-04-09T13:44:50.375Z</time></trkpt><trkpt lat="42.9766067" lon="13.3192767"><ele>604.0</ele><time>2026-04-09T13:44:52.375Z</time></trkpt><trkpt lat="42.9765783" lon="13.31936"><ele>599.5</ele><time>2026-04-09T13:44:53.377Z</time></trkpt><trkpt lat="42.9765567" lon="13.3194483"><ele>595.0</ele><time>2026-04-09T13:44:54.375Z</time></trkpt><trkpt lat="42.97654" lon="13.3195517"><ele>590.5</ele><time>2026-04-09T13:44:55.375Z</time></trkpt><trkpt lat="42.9765317" lon="13.3196567"><ele>586.0</ele><time>2026-04-09T13:44:56.374Z</time></trkpt><trkpt lat="42.976535" lon="13.3197667"><ele>584.8333333333334</ele><time>2026-04-09T13:44:57.375Z</time></trkpt><trkpt lat="42.9765583" lon="13.3198683"><ele>583.6666666666667</ele><time>2026-04-09T13:44:58.377Z</time></trkpt><trkpt lat="42.97659" lon="13.3199733"><ele>582.5</ele><time>2026-04-09T13:44:59.377Z</time></trkpt><trkpt lat="42.9766267" lon="13.3200817"><ele>581.3333333333334</ele><time>2026-04-09T13:45:00.374Z</time></trkpt><trkpt lat="42.9766617" lon="13.32019"><ele>580.1666666666666</ele><time>2026-04-09T13:45:01.374Z</time></trkpt><trkpt lat="42.9766983" lon="13.3202967"><ele>579.0</ele><time>2026-04-09T13:45:02.377Z</time></trkpt><trkpt lat="42.976735" lon="13.3203917"><ele>580.5</ele><time>2026-04-09T13:45:03.377Z</time></trkpt><trkpt lat="42.9767883" lon="13.3204717"><ele>582.0</ele><time>2026-04-09T13:45:04.378Z</time></trkpt><trkpt lat="42.9768533" lon="13.32053"><ele>583.5</ele><time>2026-04-09T13:45:05.377Z</time></trkpt><trkpt lat="42.976925" lon="13.3205767"><ele>585.0</ele><time>2026-04-09T13:45:06.376Z</time></trkpt><trkpt lat="42.9769917" lon="13.3206333"><ele>586.5</ele><time>2026-04-09T13:45:07.376Z</time></trkpt><trkpt lat="42.9770517" lon="13.3207"><ele>588.0</ele><time>2026-04-09T13:45:08.379Z</time></trkpt><trkpt lat="42.9771017" lon="13.3207783"><ele>588.0</ele><time>2026-04-09T13:45:09.378Z</time></trkpt><trkpt lat="42.977145" lon="13.3208583"><ele>588.0</ele><time>2026-04-09T13:45:10.378Z</time></trkpt><trkpt lat="42.977175" lon="13.32094"><ele>588.0</ele><time>2026-04-09T13:45:11.378Z</time></trkpt><trkpt lat="42.9771983" lon="13.3210217"><ele>588.0</ele><time>2026-04-09T13:45:12.375Z</time></trkpt><trkpt lat="42.97721" lon="13.3211667"><ele>588.0</ele><time>2026-04-09T13:45:14.374Z</time></trkpt><trkpt lat="42.9771533" lon="13.321235"><ele>588.0</ele><time>2026-04-09T13:45:17.378Z</time></trkpt><trkpt lat="42.9770917" lon="13.3211833"><ele>588.0</ele><time>2026-04-09T13:45:19.374Z</time></trkpt><trkpt lat="42.977025" lon="13.3211"><ele>588.0</ele><time>2026-04-09T13:45:21.377Z</time></trkpt><trkpt lat="42.9769283" lon="13.3210267"><ele>588.0</ele><time>2026-04-09T13:45:23.377Z</time></trkpt><trkpt lat="42.9768683" lon="13.32099"><ele>588.0</ele><time>2026-04-09T13:45:24.374Z</time></trkpt><trkpt lat="42.976805" lon="13.3209533"><ele>588.0</ele><time>2026-04-09T13:45:25.377Z</time></trkpt><trkpt lat="42.97674" lon="13.3209133"><ele>588.0</ele><time>2026-04-09T13:45:26.375Z</time></trkpt><trkpt lat="42.9766733" lon="13.3208733"><ele>583.3333333333334</ele><time>2026-04-09T13:45:27.375Z</time></trkpt><trkpt lat="42.9766033" lon="13.32083"><ele>578.6666666666666</ele><time>2026-04-09T13:45:28.375Z</time></trkpt><trkpt lat="42.9765367" lon="13.32079"><ele>574.0</ele><time>2026-04-09T13:45:29.376Z</time></trkpt><trkpt lat="42.9764267" lon="13.3207417"><ele>569.3333333333333</ele><time>2026-04-09T13:45:31.375Z</time></trkpt><trkpt lat="42.976325" lon="13.320785"><ele>564.6666666666666</ele><time>2026-04-09T13:45:33.374Z</time></trkpt><trkpt lat="42.97629" lon="13.3208617"><ele>560.0</ele><time>2026-04-09T13:45:34.374Z</time></trkpt><trkpt lat="42.9762817" lon="13.3209583"><ele>560.0</ele><time>2026-04-09T13:45:35.38Z</time></trkpt><trkpt lat="42.97629" lon="13.3211033"><ele>560.0</ele><time>2026-04-09T13:45:36.378Z</time></trkpt><trkpt lat="42.9762833" lon="13.3212233"><ele>560.0</ele><time>2026-04-09T13:45:37.377Z</time></trkpt><trkpt lat="42.976275" lon="13.321345"><ele>560.0</ele><time>2026-04-09T13:45:38.379Z</time></trkpt><trkpt lat="42.9762617" lon="13.3214667"><ele>560.0</ele><time>2026-04-09T13:45:39.378Z</time></trkpt><trkpt lat="42.9762583" lon="13.321595"><ele>557.6</ele><time>2026-04-09T13:45:40.377Z</time></trkpt><trkpt lat="42.9762683" lon="13.3217183"><ele>555.2</ele><time>2026-04-09T13:45:41.377Z</time></trkpt><trkpt lat="42.9762983" lon="13.3218417"><ele>552.8</ele><time>2026-04-09T13:45:42.373Z</time></trkpt><trkpt lat="42.9763483" lon="13.321975"><ele>550.4</ele><time>2026-04-09T13:45:43.376Z</time></trkpt><trkpt lat="42.9764067" lon="13.3221117"><ele>548.0</ele><time>2026-04-09T13:45:44.377Z</time></trkpt><trkpt lat="42.9764683" lon="13.322255"><ele>545.75</ele><time>2026-04-09T13:45:45.373Z</time></trkpt><trkpt lat="42.9765283" lon="13.3224"><ele>543.5</ele><time>2026-04-09T13:45:46.377Z</time></trkpt><trkpt lat="42.976585" lon="13.3225483"><ele>541.25</ele><time>2026-04-09T13:45:47.374Z</time></trkpt><trkpt lat="42.9766467" lon="13.3226967"><ele>539.0</ele><time>2026-04-09T13:45:48.375Z</time></trkpt><trkpt lat="42.9767133" lon="13.3228433"><ele>542.25</ele><time>2026-04-09T13:45:49.375Z</time></trkpt><trkpt lat="42.976775" lon="13.3229933"><ele>545.5</ele><time>2026-04-09T13:45:50.376Z</time></trkpt><trkpt lat="42.976835" lon="13.3231417"><ele>548.75</ele><time>2026-04-09T13:45:51.377Z</time></trkpt><trkpt lat="42.9768867" lon="13.323285"><ele>552.0</ele><time>2026-04-09T13:45:52.376Z</time></trkpt><trkpt lat="42.9769283" lon="13.32343"><ele>552.0</ele><time>2026-04-09T13:45:53.376Z</time></trkpt><trkpt lat="42.9769567" lon="13.323575"><ele>552.0</ele><time>2026-04-09T13:45:54.378Z</time></trkpt><trkpt lat="42.976975" lon="13.3237117"><ele>552.0</ele><time>2026-04-09T13:45:55.375Z</time></trkpt><trkpt lat="42.9769917" lon="13.3238417"><ele>552.0</ele><time>2026-04-09T13:45:56.374Z</time></trkpt><trkpt lat="42.977015" lon="13.3239683"><ele>552.0</ele><time>2026-04-09T13:45:57.375Z</time></trkpt><trkpt lat="42.9770483" lon="13.324085"><ele>549.8000000000001</ele><time>2026-04-09T13:45:58.375Z</time></trkpt><trkpt lat="42.9770933" lon="13.3241917"><ele>547.6</ele><time>2026-04-09T13:45:59.375Z</time></trkpt><trkpt lat="42.97715" lon="13.3242883"><ele>545.4000000000001</ele><time>2026-04-09T13:46:00.374Z</time></trkpt><trkpt lat="42.9772117" lon="13.3243967"><ele>543.2</ele><time>2026-04-09T13:46:01.375Z</time></trkpt><trkpt lat="42.9772733" lon="13.32451"><ele>541.0</ele><time>2026-04-09T13:46:02.375Z</time></trkpt><trkpt lat="42.9773283" lon="13.3246283"><ele>539.8333333333334</ele><time>2026-04-09T13:46:03.375Z</time></trkpt><trkpt lat="42.9773783" lon="13.3247383"><ele>538.6666666666667</ele><time>2026-04-09T13:46:04.375Z</time></trkpt><trkpt lat="42.977415" lon="13.324845"><ele>537.5</ele><time>2026-04-09T13:46:05.375Z</time></trkpt><trkpt lat="42.9774367" lon="13.3249583"><ele>536.3333333333334</ele><time>2026-04-09T13:46:06.376Z</time></trkpt><trkpt lat="42.977435" lon="13.325055"><ele>535.1666666666666</ele><time>2026-04-09T13:46:07.375Z</time></trkpt><trkpt lat="42.97743" lon="13.3251633"><ele>534.0</ele><time>2026-04-09T13:46:08.373Z</time></trkpt><trkpt lat="42.97738" lon="13.325265"><ele>534.0</ele><time>2026-04-09T13:46:09.375Z</time></trkpt><trkpt lat="42.977335" lon="13.325385"><ele>534.0</ele><time>2026-04-09T13:46:10.375Z</time></trkpt><trkpt lat="42.977315" lon="13.3255167"><ele>534.0</ele><time>2026-04-09T13:46:11.375Z</time></trkpt><trkpt lat="42.9773117" lon="13.3256583"><ele>534.0</ele><time>2026-04-09T13:46:12.374Z</time></trkpt><trkpt lat="42.9773183" lon="13.32579"><ele>534.0</ele><time>2026-04-09T13:46:13.375Z</time></trkpt><trkpt lat="42.977315" lon="13.32592"><ele>532.5</ele><time>2026-04-09T13:46:14.374Z</time></trkpt><trkpt lat="42.9773117" lon="13.326045"><ele>531.0</ele><time>2026-04-09T13:46:15.375Z</time></trkpt><trkpt lat="42.9773167" lon="13.3261567"><ele>529.5</ele><time>2026-04-09T13:46:16.373Z</time></trkpt><trkpt lat="42.9773417" lon="13.3262567"><ele>528.0</ele><time>2026-04-09T13:46:17.374Z</time></trkpt><trkpt lat="42.9773867" lon="13.3263233"><ele>526.5</ele><time>2026-04-09T13:46:18.374Z</time></trkpt><trkpt lat="42.9774467" lon="13.326365"><ele>525.0</ele><time>2026-04-09T13:46:19.374Z</time></trkpt><trkpt lat="42.9775367" lon="13.3263883"><ele>521.8</ele><time>2026-04-09T13:46:20.375Z</time></trkpt><trkpt lat="42.97765" lon="13.3264"><ele>518.6</ele><time>2026-04-09T13:46:21.374Z</time></trkpt><trkpt lat="42.97776" lon="13.3264033"><ele>515.4</ele><time>2026-04-09T13:46:22.375Z</time></trkpt><trkpt lat="42.9778517" lon="13.32642"><ele>512.2</ele><time>2026-04-09T13:46:23.377Z</time></trkpt><trkpt lat="42.9779317" lon="13.3264483"><ele>509.0</ele><time>2026-04-09T13:46:24.373Z</time></trkpt><trkpt lat="42.9780017" lon="13.3264867"><ele>509.0</ele><time>2026-04-09T13:46:25.375Z</time></trkpt><trkpt lat="42.9780583" lon="13.3266067"><ele>509.0</ele><time>2026-04-09T13:46:27.374Z</time></trkpt><trkpt lat="42.9780167" lon="13.326685"><ele>509.0</ele><time>2026-04-09T13:46:28.375Z</time></trkpt><trkpt lat="42.9779817" lon="13.3267633"><ele>509.0</ele><time>2026-04-09T13:46:29.376Z</time></trkpt><trkpt lat="42.977895" lon="13.32687"><ele>509.0</ele><time>2026-04-09T13:46:30.375Z</time></trkpt><trkpt lat="42.97781" lon="13.3269767"><ele>509.0</ele><time>2026-04-09T13:46:31.375Z</time></trkpt><trkpt lat="42.9777433" lon="13.32709"><ele>509.0</ele><time>2026-04-09T13:46:32.375Z</time></trkpt><trkpt lat="42.9776467" lon="13.3272183"><ele>509.0</ele><time>2026-04-09T13:46:33.375Z</time></trkpt><trkpt lat="42.9775733" lon="13.3273317"><ele>509.0</ele><time>2026-04-09T13:46:34.375Z</time></trkpt><trkpt lat="42.9775033" lon="13.3274383"><ele>508.3333333333333</ele><time>2026-04-09T13:46:35.375Z</time></trkpt><trkpt lat="42.9774483" lon="13.32753"><ele>507.66666666666663</ele><time>2026-04-09T13:46:36.374Z</time></trkpt><trkpt lat="42.9773967" lon="13.3276117"><ele>507.0</ele><time>2026-04-09T13:46:37.374Z</time></trkpt><trkpt lat="42.977355" lon="13.32768"><ele>506.33333333333337</ele><time>2026-04-09T13:46:38.375Z</time></trkpt><trkpt lat="42.9773033" lon="13.3277783"><ele>505.6666666666667</ele><time>2026-04-09T13:46:40.374Z</time></trkpt><trkpt lat="42.977305" lon="13.3278867"><ele>505.0</ele><time>2026-04-09T13:47:17.375Z</time></trkpt><trkpt lat="42.9773483" lon="13.327965"><ele>505.83333333333337</ele><time>2026-04-09T13:47:20.373Z</time></trkpt><trkpt lat="42.9773933" lon="13.3280683"><ele>506.6666666666667</ele><time>2026-04-09T13:47:23.374Z</time></trkpt><trkpt lat="42.9773917" lon="13.32816"><ele>507.5</ele><time>2026-04-09T13:47:25.374Z</time></trkpt><trkpt lat="42.97735" lon="13.3282733"><ele>508.33333333333337</ele><time>2026-04-09T13:47:27.374Z</time></trkpt><trkpt lat="42.97728" lon="13.328395"><ele>509.1666666666667</ele><time>2026-04-09T13:47:29.374Z</time></trkpt><trkpt lat="42.9772417" lon="13.328465"><ele>510.0</ele><time>2026-04-09T13:47:30.373Z</time></trkpt><trkpt lat="42.9771983" lon="13.3285383"><ele>510.0</ele><time>2026-04-09T13:47:31.375Z</time></trkpt><trkpt lat="42.9771483" lon="13.3286167"><ele>510.0</ele><time>2026-04-09T13:47:32.376Z</time></trkpt><trkpt lat="42.9770883" lon="13.3286917"><ele>510.0</ele><time>2026-04-09T13:47:33.373Z</time></trkpt><trkpt lat="42.97703" lon="13.3287717"><ele>510.0</ele><time>2026-04-09T13:47:34.374Z</time></trkpt><trkpt lat="42.976975" lon="13.328855"><ele>510.0</ele><time>2026-04-09T13:47:35.377Z</time></trkpt><trkpt lat="42.9769217" lon="13.3289283"><ele>510.0</ele><time>2026-04-09T13:47:36.374Z</time></trkpt><trkpt lat="42.9768733" lon="13.3289883"><ele>510.0</ele><time>2026-04-09T13:47:37.374Z</time></trkpt><trkpt lat="42.9768117" lon="13.329075"><ele>510.0</ele><time>2026-04-09T13:47:39.374Z</time></trkpt><trkpt lat="42.9768717" lon="13.3291017"><ele>510.0</ele><time>2026-04-09T13:47:44.375Z</time></trkpt><trkpt lat="42.97695" lon="13.3290283"><ele>510.0</ele><time>2026-04-09T13:47:57.373Z</time></trkpt><trkpt lat="42.9770433" lon="13.3289517"><ele>510.0</ele><time>2026-04-09T13:47:59.374Z</time></trkpt><trkpt lat="42.97715" lon="13.3288667"><ele>510.0</ele><time>2026-04-09T13:48:01.375Z</time></trkpt><trkpt lat="42.977245" lon="13.3288033"><ele>510.0</ele><time>2026-04-09T13:48:02.375Z</time></trkpt><trkpt lat="42.9773483" lon="13.3287317"><ele>510.0</ele><time>2026-04-09T13:48:03.374Z</time></trkpt><trkpt lat="42.97744" lon="13.3286583"><ele>510.0</ele><time>2026-04-09T13:48:04.374Z</time></trkpt><trkpt lat="42.977535" lon="13.3285833"><ele>510.0</ele><time>2026-04-09T13:48:05.374Z</time></trkpt><trkpt lat="42.9776283" lon="13.3285017"><ele>514.0</ele><time>2026-04-09T13:48:06.375Z</time></trkpt><trkpt lat="42.9777383" lon="13.3284117"><ele>518.0</ele><time>2026-04-09T13:48:07.373Z</time></trkpt><trkpt lat="42.9778567" lon="13.3283133"><ele>522.0</ele><time>2026-04-09T13:48:08.375Z</time></trkpt><trkpt lat="42.9779617" lon="13.3282183"><ele>526.0</ele><time>2026-04-09T13:48:09.374Z</time></trkpt><trkpt lat="42.9780683" lon="13.3281283"><ele>529.25</ele><time>2026-04-09T13:48:10.375Z</time></trkpt><trkpt lat="42.9781733" lon="13.32804"><ele>532.5</ele><time>2026-04-09T13:48:11.373Z</time></trkpt><trkpt lat="42.9782717" lon="13.32795"><ele>535.75</ele><time>2026-04-09T13:48:12.374Z</time></trkpt><trkpt lat="42.9783583" lon="13.3278533"><ele>539.0</ele><time>2026-04-09T13:48:13.374Z</time></trkpt><trkpt lat="42.9784267" lon="13.32774"><ele>539.0</ele><time>2026-04-09T13:48:14.374Z</time></trkpt><trkpt lat="42.97848" lon="13.3276217"><ele>539.0</ele><time>2026-04-09T13:48:15.373Z</time></trkpt><trkpt lat="42.9785217" lon="13.3274967"><ele>539.0</ele><time>2026-04-09T13:48:16.374Z</time></trkpt><trkpt lat="42.9785617" lon="13.327365"><ele>539.0</ele><time>2026-04-09T13:48:17.374Z</time></trkpt><trkpt lat="42.9786133" lon="13.3272433"><ele>539.0</ele><time>2026-04-09T13:48:18.374Z</time></trkpt><trkpt lat="42.9786833" lon="13.3271317"><ele>534.25</ele><time>2026-04-09T13:48:19.376Z</time></trkpt><trkpt lat="42.9787667" lon="13.3270333"><ele>529.5</ele><time>2026-04-09T13:48:20.373Z</time></trkpt><trkpt lat="42.9788617" lon="13.3269383"><ele>524.75</ele><time>2026-04-09T13:48:21.374Z</time></trkpt><trkpt lat="42.9789567" lon="13.3268467"><ele>520.0</ele><time>2026-04-09T13:48:22.373Z</time></trkpt><trkpt lat="42.9790583" lon="13.3267617"><ele>520.0</ele><time>2026-04-09T13:48:23.376Z</time></trkpt><trkpt lat="42.9791667" lon="13.32668"><ele>520.0</ele><time>2026-04-09T13:48:24.374Z</time></trkpt><trkpt lat="42.9792783" lon="13.326605"><ele>520.0</ele><time>2026-04-09T13:48:25.377Z</time></trkpt><trkpt lat="42.9793817" lon="13.326525"><ele>520.0</ele><time>2026-04-09T13:48:26.374Z</time></trkpt><trkpt lat="42.9794883" lon="13.3264367"><ele>520.25</ele><time>2026-04-09T13:48:27.374Z</time></trkpt><trkpt lat="42.979595" lon="13.3263317"><ele>520.5</ele><time>2026-04-09T13:48:28.374Z</time></trkpt><trkpt lat="42.979695" lon="13.32621"><ele>520.75</ele><time>2026-04-09T13:48:29.374Z</time></trkpt><trkpt lat="42.9797967" lon="13.3260883"><ele>521.0</ele><time>2026-04-09T13:48:30.373Z</time></trkpt><trkpt lat="42.9799017" lon="13.325975"><ele>524.0</ele><time>2026-04-09T13:48:31.373Z</time></trkpt><trkpt lat="42.9800233" lon="13.325885"><ele>527.0</ele><time>2026-04-09T13:48:32.373Z</time></trkpt><trkpt lat="42.9801583" lon="13.3258083"><ele>530.0</ele><time>2026-04-09T13:48:33.373Z</time></trkpt><trkpt lat="42.9802983" lon="13.3257367"><ele>533.0</ele><time>2026-04-09T13:48:34.375Z</time></trkpt><trkpt lat="42.98044" lon="13.3256733"><ele>533.0</ele><time>2026-04-09T13:48:35.377Z</time></trkpt><trkpt lat="42.9805783" lon="13.32561"><ele>533.0</ele><time>2026-04-09T13:48:36.373Z</time></trkpt><trkpt lat="42.9807133" lon="13.3255383"><ele>533.0</ele><time>2026-04-09T13:48:37.374Z</time></trkpt><trkpt lat="42.9808567" lon="13.3254717"><ele>533.0</ele><time>2026-04-09T13:48:38.374Z</time></trkpt><trkpt lat="42.9810067" lon="13.3254133"><ele>530.5</ele><time>2026-04-09T13:48:39.373Z</time></trkpt><trkpt lat="42.9811517" lon="13.325365"><ele>528.0</ele><time>2026-04-09T13:48:40.374Z</time></trkpt><trkpt lat="42.981295" lon="13.3253217"><ele>525.5</ele><time>2026-04-09T13:48:41.374Z</time></trkpt><trkpt lat="42.98143" lon="13.32528"><ele>523.0</ele><time>2026-04-09T13:48:42.373Z</time></trkpt><trkpt lat="42.9815567" lon="13.3252133"><ele>523.0</ele><time>2026-04-09T13:48:43.374Z</time></trkpt><trkpt lat="42.9816733" lon="13.325105"><ele>523.0</ele><time>2026-04-09T13:48:44.377Z</time></trkpt><trkpt lat="42.9817733" lon="13.3249667"><ele>523.0</ele><time>2026-04-09T13:48:45.374Z</time></trkpt><trkpt lat="42.9818717" lon="13.324835"><ele>523.0</ele><time>2026-04-09T13:48:46.374Z</time></trkpt><trkpt lat="42.9819617" lon="13.3247117"><ele>523.75</ele><time>2026-04-09T13:48:47.375Z</time></trkpt><trkpt lat="42.9820517" lon="13.3246033"><ele>524.5</ele><time>2026-04-09T13:48:48.375Z</time></trkpt><trkpt lat="42.982145" lon="13.3245233"><ele>525.25</ele><time>2026-04-09T13:48:49.374Z</time></trkpt><trkpt lat="42.9822567" lon="13.3244917"><ele>526.0</ele><time>2026-04-09T13:48:50.375Z</time></trkpt><trkpt lat="42.98237" lon="13.3244917"><ele>526.0</ele><time>2026-04-09T13:48:51.374Z</time></trkpt><trkpt lat="42.9824883" lon="13.324505"><ele>526.0</ele><time>2026-04-09T13:48:52.374Z</time></trkpt><trkpt lat="42.9826167" lon="13.324525"><ele>526.0</ele><time>2026-04-09T13:48:53.373Z</time></trkpt><trkpt lat="42.9827383" lon="13.3245183"><ele>526.0</ele><time>2026-04-09T13:48:54.376Z</time></trkpt><trkpt lat="42.9828483" lon="13.3244833"><ele>527.6</ele><time>2026-04-09T13:48:55.375Z</time></trkpt><trkpt lat="42.9829433" lon="13.3244117"><ele>529.2</ele><time>2026-04-09T13:48:56.378Z</time></trkpt><trkpt lat="42.9830233" lon="13.3243117"><ele>530.8</ele><time>2026-04-09T13:48:57.374Z</time></trkpt><trkpt lat="42.98309" lon="13.3241867"><ele>532.4</ele><time>2026-04-09T13:48:58.374Z</time></trkpt><trkpt lat="42.9831583" lon="13.3240767"><ele>534.0</ele><time>2026-04-09T13:48:59.373Z</time></trkpt><trkpt lat="42.98323" lon="13.3239883"><ele>534.0</ele><time>2026-04-09T13:49:00.374Z</time></trkpt><trkpt lat="42.9833117" lon="13.3239217"><ele>534.0</ele><time>2026-04-09T13:49:01.374Z</time></trkpt><trkpt lat="42.9834133" lon="13.32389"><ele>534.0</ele><time>2026-04-09T13:49:02.374Z</time></trkpt><trkpt lat="42.9835333" lon="13.3238783"><ele>534.0</ele><time>2026-04-09T13:49:03.374Z</time></trkpt><trkpt lat="42.9836533" lon="13.3238617"><ele>534.0</ele><time>2026-04-09T13:49:04.374Z</time></trkpt><trkpt lat="42.9837767" lon="13.3238333"><ele>534.0</ele><time>2026-04-09T13:49:05.373Z</time></trkpt><trkpt lat="42.983885" lon="13.3237967"><ele>534.0</ele><time>2026-04-09T13:49:06.374Z</time></trkpt><trkpt lat="42.98398" lon="13.3237533"><ele>534.0</ele><time>2026-04-09T13:49:07.374Z</time></trkpt><trkpt lat="42.984055" lon="13.3236933"><ele>534.0</ele><time>2026-04-09T13:49:08.374Z</time></trkpt><trkpt lat="42.984105" lon="13.3236167"><ele>534.0</ele><time>2026-04-09T13:49:09.374Z</time></trkpt><trkpt lat="42.9841083" lon="13.32352"><ele>534.0</ele><time>2026-04-09T13:49:10.375Z</time></trkpt><trkpt lat="42.9840917" lon="13.32338"><ele>534.0000000000001</ele><time>2026-04-09T13:49:12.374Z</time></trkpt><trkpt lat="42.9840783" lon="13.3232683"><ele>534.0</ele><time>2026-04-09T13:49:29.373Z</time></trkpt><trkpt lat="42.98408" lon="13.323175"><ele>534.0</ele><time>2026-04-09T13:49:31.374Z</time></trkpt><trkpt lat="42.9840967" lon="13.3230867"><ele>534.0</ele><time>2026-04-09T13:49:33.374Z</time></trkpt><trkpt lat="42.984145" lon="13.32302"><ele>534.0</ele><time>2026-04-09T13:49:35.374Z</time></trkpt><trkpt lat="42.9841983" lon="13.3229733"><ele>534.0000000000001</ele><time>2026-04-09T13:49:37.375Z</time></trkpt><trkpt lat="42.9841567" lon="13.323045"><ele>534.0</ele><time>2026-04-09T13:50:12.374Z</time></trkpt><trkpt lat="42.9841383" lon="13.323165"><ele>534.0</ele><time>2026-04-09T13:50:15.377Z</time></trkpt><trkpt lat="42.9841333" lon="13.3232533"><ele>534.0</ele><time>2026-04-09T13:50:17.374Z</time></trkpt><trkpt lat="42.98406" lon="13.323295"><ele>534.0</ele><time>2026-04-09T13:50:25.374Z</time></trkpt><trkpt lat="42.98404" lon="13.3231433"><ele>534.0</ele><time>2026-04-09T13:50:27.374Z</time></trkpt><trkpt lat="42.9840183" lon="13.3229917"><ele>534.0</ele><time>2026-04-09T13:50:29.377Z</time></trkpt><trkpt lat="42.984" lon="13.3228567"><ele>534.0</ele><time>2026-04-09T13:50:31.377Z</time></trkpt><trkpt lat="42.983975" lon="13.32273"><ele>534.0</ele><time>2026-04-09T13:50:33.377Z</time></trkpt><trkpt lat="42.9839583" lon="13.32262"><ele>534.0</ele><time>2026-04-09T13:50:35.377Z</time></trkpt><trkpt lat="42.983945" lon="13.3225267"><ele>534.0</ele><time>2026-04-09T13:50:47.373Z</time></trkpt><trkpt lat="42.9839867" lon="13.3224517"><ele>534.0</ele><time>2026-04-09T13:50:49.375Z</time></trkpt><trkpt lat="42.98408" lon="13.322325"><ele>534.0</ele><time>2026-04-09T13:50:51.374Z</time></trkpt><trkpt lat="42.9841383" lon="13.32224"><ele>536.2</ele><time>2026-04-09T13:50:52.374Z</time></trkpt><trkpt lat="42.9842017" lon="13.3221567"><ele>538.4</ele><time>2026-04-09T13:50:53.375Z</time></trkpt><trkpt lat="42.98427" lon="13.3220633"><ele>540.6</ele><time>2026-04-09T13:50:54.372Z</time></trkpt><trkpt lat="42.9843417" lon="13.3219717"><ele>542.8</ele><time>2026-04-09T13:50:55.373Z</time></trkpt><trkpt lat="42.9844117" lon="13.3218733"><ele>545.0</ele><time>2026-04-09T13:50:56.374Z</time></trkpt><trkpt lat="42.9844667" lon="13.32177"><ele>545.0</ele><time>2026-04-09T13:50:57.375Z</time></trkpt><trkpt lat="42.98451" lon="13.321665"><ele>545.0</ele><time>2026-04-09T13:50:58.374Z</time></trkpt><trkpt lat="42.9845467" lon="13.3215633"><ele>545.0</ele><time>2026-04-09T13:50:59.374Z</time></trkpt><trkpt lat="42.9845867" lon="13.321435"><ele>545.0</ele><time>2026-04-09T13:51:00.373Z</time></trkpt><trkpt lat="42.9846183" lon="13.321315"><ele>545.0</ele><time>2026-04-09T13:51:01.374Z</time></trkpt><trkpt lat="42.984655" lon="13.3212067"><ele>545.8</ele><time>2026-04-09T13:51:02.374Z</time></trkpt><trkpt lat="42.9846983" lon="13.32111"><ele>546.6</ele><time>2026-04-09T13:51:03.373Z</time></trkpt><trkpt lat="42.9847533" lon="13.32101"><ele>547.4</ele><time>2026-04-09T13:51:04.373Z</time></trkpt><trkpt lat="42.9848433" lon="13.32093"><ele>548.2</ele><time>2026-04-09T13:51:05.375Z</time></trkpt><trkpt lat="42.98495" lon="13.3208567"><ele>549.0</ele><time>2026-04-09T13:51:06.376Z</time></trkpt><trkpt lat="42.98506" lon="13.3207883"><ele>549.5</ele><time>2026-04-09T13:51:07.372Z</time></trkpt><trkpt lat="42.9851667" lon="13.320725"><ele>550.0</ele><time>2026-04-09T13:51:08.376Z</time></trkpt><trkpt lat="42.9852617" lon="13.3206383"><ele>550.5</ele><time>2026-04-09T13:51:09.377Z</time></trkpt><trkpt lat="42.9853567" lon="13.3205467"><ele>551.0</ele><time>2026-04-09T13:51:10.376Z</time></trkpt><trkpt lat="42.9854483" lon="13.3204467"><ele>554.75</ele><time>2026-04-09T13:51:11.376Z</time></trkpt><trkpt lat="42.9855333" lon="13.3203433"><ele>558.5</ele><time>2026-04-09T13:51:12.373Z</time></trkpt><trkpt lat="42.9856217" lon="13.3202267"><ele>562.25</ele><time>2026-04-09T13:51:13.374Z</time></trkpt><trkpt lat="42.98571" lon="13.3201"><ele>566.0</ele><time>2026-04-09T13:51:14.374Z</time></trkpt><trkpt lat="42.9858" lon="13.3199617"><ele>565.3333333333333</ele><time>2026-04-09T13:51:15.378Z</time></trkpt><trkpt lat="42.9859033" lon="13.3198167"><ele>564.6666666666666</ele><time>2026-04-09T13:51:16.374Z</time></trkpt><trkpt lat="42.9860083" lon="13.319665"><ele>564.0</ele><time>2026-04-09T13:51:17.372Z</time></trkpt><trkpt lat="42.9861133" lon="13.3195017"><ele>564.0</ele><time>2026-04-09T13:51:18.373Z</time></trkpt><trkpt lat="42.9862083" lon="13.3193333"><ele>564.0</ele><time>2026-04-09T13:51:19.373Z</time></trkpt><trkpt lat="42.9862917" lon="13.31916"><ele>564.0</ele><time>2026-04-09T13:51:20.374Z</time></trkpt><trkpt lat="42.986365" lon="13.31901"><ele>564.0</ele><time>2026-04-09T13:51:21.372Z</time></trkpt><trkpt lat="42.9864267" lon="13.31886"><ele>566.2</ele><time>2026-04-09T13:51:22.374Z</time></trkpt><trkpt lat="42.9864917" lon="13.3187283"><ele>568.4</ele><time>2026-04-09T13:51:23.373Z</time></trkpt><trkpt lat="42.986565" lon="13.31861"><ele>570.6</ele><time>2026-04-09T13:51:24.374Z</time></trkpt><trkpt lat="42.9866417" lon="13.3185217"><ele>572.8</ele><time>2026-04-09T13:51:25.375Z</time></trkpt><trkpt lat="42.986745" lon="13.3184617"><ele>575.0</ele><time>2026-04-09T13:51:26.372Z</time></trkpt><trkpt lat="42.98685" lon="13.3184083"><ele>575.0</ele><time>2026-04-09T13:51:27.373Z</time></trkpt><trkpt lat="42.986945" lon="13.31833"><ele>575.0</ele><time>2026-04-09T13:51:28.375Z</time></trkpt><trkpt lat="42.9870333" lon="13.3182383"><ele>575.0</ele><time>2026-04-09T13:51:29.378Z</time></trkpt><trkpt lat="42.9871217" lon="13.3181267"><ele>575.0</ele><time>2026-04-09T13:51:30.374Z</time></trkpt><trkpt lat="42.9872133" lon="13.3180133"><ele>576.75</ele><time>2026-04-09T13:51:31.374Z</time></trkpt><trkpt lat="42.9873033" lon="13.3178817"><ele>578.5</ele><time>2026-04-09T13:51:32.374Z</time></trkpt><trkpt lat="42.98739" lon="13.31776"><ele>580.25</ele><time>2026-04-09T13:51:33.373Z</time></trkpt><trkpt lat="42.9874617" lon="13.317655"><ele>582.0</ele><time>2026-04-09T13:51:34.375Z</time></trkpt><trkpt lat="42.9875233" lon="13.317555"><ele>583.8333333333334</ele><time>2026-04-09T13:51:35.375Z</time></trkpt><trkpt lat="42.98758" lon="13.3174783"><ele>585.6666666666666</ele><time>2026-04-09T13:51:36.377Z</time></trkpt><trkpt lat="42.98765" lon="13.3174317"><ele>587.5</ele><time>2026-04-09T13:51:37.377Z</time></trkpt><trkpt lat="42.9877183" lon="13.3174183"><ele>589.3333333333333</ele><time>2026-04-09T13:51:38.377Z</time></trkpt><trkpt lat="42.9877933" lon="13.3174067"><ele>591.1666666666666</ele><time>2026-04-09T13:51:39.373Z</time></trkpt><trkpt lat="42.98786" lon="13.3174667"><ele>593.0</ele><time>2026-04-09T13:51:40.379Z</time></trkpt><trkpt lat="42.9879367" lon="13.3175417"><ele>593.0</ele><time>2026-04-09T13:51:41.377Z</time></trkpt><trkpt lat="42.9880017" lon="13.31767"><ele>593.0</ele><time>2026-04-09T13:51:42.377Z</time></trkpt><trkpt lat="42.9880517" lon="13.31778"><ele>593.0</ele><time>2026-04-09T13:51:43.375Z</time></trkpt><trkpt lat="42.98809" lon="13.31789"><ele>593.0</ele><time>2026-04-09T13:51:44.375Z</time></trkpt><trkpt lat="42.988095" lon="13.3180533"><ele>593.0</ele><time>2026-04-09T13:51:45.374Z</time></trkpt><trkpt lat="42.98806" lon="13.3182083"><ele>592.3333333333333</ele><time>2026-04-09T13:51:46.375Z</time></trkpt><trkpt lat="42.9880667" lon="13.31833"><ele>591.6666666666666</ele><time>2026-04-09T13:51:47.375Z</time></trkpt><trkpt lat="42.9880767" lon="13.318445"><ele>591.0</ele><time>2026-04-09T13:51:48.375Z</time></trkpt><trkpt lat="42.98811" lon="13.31854"><ele>590.3333333333334</ele><time>2026-04-09T13:51:49.376Z</time></trkpt><trkpt lat="42.9881683" lon="13.3186267"><ele>589.6666666666667</ele><time>2026-04-09T13:51:50.374Z</time></trkpt><trkpt lat="42.98824" lon="13.31872"><ele>589.0</ele><time>2026-04-09T13:51:51.374Z</time></trkpt><trkpt lat="42.988315" lon="13.3188067"><ele>588.8333333333334</ele><time>2026-04-09T13:51:52.375Z</time></trkpt><trkpt lat="42.9883867" lon="13.3188967"><ele>588.6666666666667</ele><time>2026-04-09T13:51:53.373Z</time></trkpt><trkpt lat="42.9884567" lon="13.31896"><ele>588.5</ele><time>2026-04-09T13:51:54.374Z</time></trkpt><trkpt lat="42.98852" lon="13.3190033"><ele>588.3333333333334</ele><time>2026-04-09T13:51:55.374Z</time></trkpt><trkpt lat="42.98861" lon="13.3190217"><ele>588.1666666666666</ele><time>2026-04-09T13:51:56.375Z</time></trkpt><trkpt lat="42.988715" lon="13.3190083"><ele>588.0</ele><time>2026-04-09T13:51:57.375Z</time></trkpt><trkpt lat="42.9888333" lon="13.318985"><ele>588.0</ele><time>2026-04-09T13:51:58.375Z</time></trkpt><trkpt lat="42.9889717" lon="13.3189383"><ele>588.0</ele><time>2026-04-09T13:51:59.375Z</time></trkpt><trkpt lat="42.9890983" lon="13.3189083"><ele>588.0</ele><time>2026-04-09T13:52:00.379Z</time></trkpt><trkpt lat="42.9892067" lon="13.3189033"><ele>588.0</ele><time>2026-04-09T13:52:01.376Z</time></trkpt><trkpt lat="42.9893067" lon="13.31891"><ele>590.3333333333334</ele><time>2026-04-09T13:52:02.375Z</time></trkpt><trkpt lat="42.9894" lon="13.318945"><ele>592.6666666666666</ele><time>2026-04-09T13:52:03.374Z</time></trkpt><trkpt lat="42.9894817" lon="13.3190033"><ele>595.0</ele><time>2026-04-09T13:52:04.374Z</time></trkpt><trkpt lat="42.98954" lon="13.319075"><ele>597.3333333333333</ele><time>2026-04-09T13:52:05.375Z</time></trkpt><trkpt lat="42.9895417" lon="13.3191717"><ele>599.6666666666666</ele><time>2026-04-09T13:52:07.374Z</time></trkpt><trkpt lat="42.9894833" lon="13.3192367"><ele>602.0</ele><time>2026-04-09T13:52:08.374Z</time></trkpt><trkpt lat="42.9894133" lon="13.3192933"><ele>602.0</ele><time>2026-04-09T13:52:09.374Z</time></trkpt><trkpt lat="42.9893117" lon="13.3193717"><ele>602.0</ele><time>2026-04-09T13:52:10.375Z</time></trkpt><trkpt lat="42.9891883" lon="13.3194633"><ele>602.0</ele><time>2026-04-09T13:52:11.376Z</time></trkpt><trkpt lat="42.9890467" lon="13.319595"><ele>602.0</ele><time>2026-04-09T13:52:12.375Z</time></trkpt><trkpt lat="42.9889183" lon="13.3197167"><ele>603.6666666666666</ele><time>2026-04-09T13:52:13.375Z</time></trkpt><trkpt lat="42.9887567" lon="13.3198617"><ele>605.3333333333334</ele><time>2026-04-09T13:52:14.374Z</time></trkpt><trkpt lat="42.9885967" lon="13.3200017"><ele>607.0</ele><time>2026-04-09T13:52:15.375Z</time></trkpt><trkpt lat="42.9884333" lon="13.32014"><ele>602.6666666666667</ele><time>2026-04-09T13:52:16.377Z</time></trkpt><trkpt lat="42.9882867" lon="13.320265"><ele>598.3333333333334</ele><time>2026-04-09T13:52:17.376Z</time></trkpt><trkpt lat="42.9881467" lon="13.3203733"><ele>594.0</ele><time>2026-04-09T13:52:18.375Z</time></trkpt><trkpt lat="42.98803" lon="13.3204717"><ele>594.0</ele><time>2026-04-09T13:52:19.375Z</time></trkpt><trkpt lat="42.9879367" lon="13.32056"><ele>594.0</ele><time>2026-04-09T13:52:20.374Z</time></trkpt><trkpt lat="42.987865" lon="13.3206683"><ele>594.0</ele><time>2026-04-09T13:52:21.375Z</time></trkpt><trkpt lat="42.9878083" lon="13.3208017"><ele>594.0</ele><time>2026-04-09T13:52:22.376Z</time></trkpt><trkpt lat="42.98775" lon="13.3209567"><ele>596.75</ele><time>2026-04-09T13:52:23.374Z</time></trkpt><trkpt lat="42.9876917" lon="13.3211233"><ele>599.5</ele><time>2026-04-09T13:52:24.375Z</time></trkpt><trkpt lat="42.98762" lon="13.3212883"><ele>602.25</ele><time>2026-04-09T13:52:25.375Z</time></trkpt><trkpt lat="42.9875267" lon="13.32145"><ele>605.0</ele><time>2026-04-09T13:52:26.375Z</time></trkpt><trkpt lat="42.987425" lon="13.3215983"><ele>605.0</ele><time>2026-04-09T13:52:27.375Z</time></trkpt><trkpt lat="42.9873333" lon="13.3217317"><ele>605.0</ele><time>2026-04-09T13:52:28.375Z</time></trkpt><trkpt lat="42.98725" lon="13.3218583"><ele>605.0</ele><time>2026-04-09T13:52:29.374Z</time></trkpt><trkpt lat="42.9871917" lon="13.3219667"><ele>605.0</ele><time>2026-04-09T13:52:30.374Z</time></trkpt><trkpt lat="42.98715" lon="13.32205"><ele>605.0</ele><time>2026-04-09T13:52:31.373Z</time></trkpt><trkpt lat="42.987135" lon="13.3221567"><ele>605.0</ele><time>2026-04-09T13:52:33.377Z</time></trkpt><trkpt lat="42.9872083" lon="13.3221467"><ele>605.0</ele><time>2026-04-09T13:52:35.377Z</time></trkpt><trkpt lat="42.9872667" lon="13.3220967"><ele>605.0</ele><time>2026-04-09T13:52:36.377Z</time></trkpt><trkpt lat="42.9873467" lon="13.3220367"><ele>605.0</ele><time>2026-04-09T13:52:37.377Z</time></trkpt><trkpt lat="42.9874417" lon="13.3219317"><ele>605.0</ele><time>2026-04-09T13:52:38.375Z</time></trkpt><trkpt lat="42.9875233" lon="13.3218483"><ele>608.5</ele><time>2026-04-09T13:52:39.378Z</time></trkpt><trkpt lat="42.9876067" lon="13.3217667"><ele>612.0</ele><time>2026-04-09T13:52:40.375Z</time></trkpt><trkpt lat="42.987705" lon="13.3216717"><ele>615.5</ele><time>2026-04-09T13:52:41.376Z</time></trkpt><trkpt lat="42.987805" lon="13.32157"><ele>619.0</ele><time>2026-04-09T13:52:42.374Z</time></trkpt><trkpt lat="42.98789" lon="13.3214533"><ele>618.5</ele><time>2026-04-09T13:52:43.374Z</time></trkpt><trkpt lat="42.9879733" lon="13.321335"><ele>618.0</ele><time>2026-04-09T13:52:44.375Z</time></trkpt><trkpt lat="42.98805" lon="13.3212167"><ele>617.5</ele><time>2026-04-09T13:52:45.375Z</time></trkpt><trkpt lat="42.9881333" lon="13.321115"><ele>617.0</ele><time>2026-04-09T13:52:46.374Z</time></trkpt><trkpt lat="42.9882167" lon="13.3210233"><ele>617.0</ele><time>2026-04-09T13:52:47.374Z</time></trkpt><trkpt lat="42.988305" lon="13.3209417"><ele>617.0</ele><time>2026-04-09T13:52:48.374Z</time></trkpt><trkpt lat="42.9884033" lon="13.3208783"><ele>617.0</ele><time>2026-04-09T13:52:49.375Z</time></trkpt><trkpt lat="42.988505" lon="13.3208183"><ele>617.0</ele><time>2026-04-09T13:52:50.375Z</time></trkpt><trkpt lat="42.9886133" lon="13.3207733"><ele>617.0</ele><time>2026-04-09T13:52:51.374Z</time></trkpt><trkpt lat="42.9887317" lon="13.32074"><ele>620.0</ele><time>2026-04-09T13:52:52.374Z</time></trkpt><trkpt lat="42.9888517" lon="13.3207333"><ele>623.0</ele><time>2026-04-09T13:52:53.374Z</time></trkpt><trkpt lat="42.988975" lon="13.3207283"><ele>626.0</ele><time>2026-04-09T13:52:54.375Z</time></trkpt><trkpt lat="42.9891083" lon="13.3207333"><ele>629.0</ele><time>2026-04-09T13:52:55.375Z</time></trkpt><trkpt lat="42.9892567" lon="13.3207367"><ele>631.25</ele><time>2026-04-09T13:52:56.375Z</time></trkpt><trkpt lat="42.9893967" lon="13.3207367"><ele>633.5</ele><time>2026-04-09T13:52:57.374Z</time></trkpt><trkpt lat="42.989555" lon="13.3207267"><ele>635.75</ele><time>2026-04-09T13:52:58.375Z</time></trkpt><trkpt lat="42.989705" lon="13.3207083"><ele>638.0</ele><time>2026-04-09T13:52:59.374Z</time></trkpt><trkpt lat="42.9898517" lon="13.32068"><ele>638.0</ele><time>2026-04-09T13:53:00.381Z</time></trkpt><trkpt lat="42.9900033" lon="13.32065"><ele>638.0</ele><time>2026-04-09T13:53:01.375Z</time></trkpt><trkpt lat="42.9901567" lon="13.32061"><ele>638.0</ele><time>2026-04-09T13:53:02.375Z</time></trkpt><trkpt lat="42.9903033" lon="13.3205783"><ele>638.25</ele><time>2026-04-09T13:53:03.374Z</time></trkpt><trkpt lat="42.9904367" lon="13.32054"><ele>638.5</ele><time>2026-04-09T13:53:04.376Z</time></trkpt><trkpt lat="42.9905567" lon="13.3205017"><ele>638.75</ele><time>2026-04-09T13:53:05.375Z</time></trkpt><trkpt lat="42.9906667" lon="13.3204533"><ele>639.0</ele><time>2026-04-09T13:53:06.376Z</time></trkpt><trkpt lat="42.99077" lon="13.3203883"><ele>643.0</ele><time>2026-04-09T13:53:07.375Z</time></trkpt><trkpt lat="42.9908833" lon="13.32031"><ele>647.0</ele><time>2026-04-09T13:53:08.375Z</time></trkpt><trkpt lat="42.9909933" lon="13.320235"><ele>651.0</ele><time>2026-04-09T13:53:09.374Z</time></trkpt><trkpt lat="42.991115" lon="13.320165"><ele>655.0</ele><time>2026-04-09T13:53:10.375Z</time></trkpt><trkpt lat="42.9911983" lon="13.32011"><ele>655.0</ele><time>2026-04-09T13:53:11.375Z</time></trkpt><trkpt lat="42.9913317" lon="13.320045"><ele>655.0</ele><time>2026-04-09T13:53:12.375Z</time></trkpt><trkpt lat="42.9914533" lon="13.3199883"><ele>655.0</ele><time>2026-04-09T13:53:13.375Z</time></trkpt><trkpt lat="42.9915783" lon="13.3199417"><ele>655.0</ele><time>2026-04-09T13:53:14.374Z</time></trkpt><trkpt lat="42.9916883" lon="13.3198883"><ele>656.0</ele><time>2026-04-09T13:53:15.375Z</time></trkpt><trkpt lat="42.9917917" lon="13.3198233"><ele>657.0</ele><time>2026-04-09T13:53:16.375Z</time></trkpt><trkpt lat="42.99188" lon="13.3197583"><ele>658.0</ele><time>2026-04-09T13:53:17.375Z</time></trkpt><trkpt lat="42.9919517" lon="13.3196967"><ele>659.0</ele><time>2026-04-09T13:53:18.376Z</time></trkpt><trkpt lat="42.992015" lon="13.3196533"><ele>660.0</ele><time>2026-04-09T13:53:19.375Z</time></trkpt><trkpt lat="42.9920883" lon="13.3196233"><ele>661.0</ele><time>2026-04-09T13:53:20.374Z</time></trkpt><trkpt lat="42.9921633" lon="13.3196217"><ele>661.0</ele><time>2026-04-09T13:53:21.375Z</time></trkpt><trkpt lat="42.992245" lon="13.3196167"><ele>661.0</ele><time>2026-04-09T13:53:22.378Z</time></trkpt><trkpt lat="42.9923333" lon="13.319605"><ele>661.0</ele><time>2026-04-09T13:53:23.375Z</time></trkpt><trkpt lat="42.9924183" lon="13.3195917"><ele>661.0</ele><time>2026-04-09T13:53:24.375Z</time></trkpt><trkpt lat="42.992505" lon="13.3195733"><ele>661.0</ele><time>2026-04-09T13:53:25.375Z</time></trkpt><trkpt lat="42.9925767" lon="13.3195367"><ele>661.0</ele><time>2026-04-09T13:53:26.375Z</time></trkpt><trkpt lat="42.9926467" lon="13.3194833"><ele>666.0</ele><time>2026-04-09T13:53:27.374Z</time></trkpt><trkpt lat="42.9927033" lon="13.3194217"><ele>671.0</ele><time>2026-04-09T13:53:28.375Z</time></trkpt><trkpt lat="42.9927467" lon="13.319355"><ele>676.0</ele><time>2026-04-09T13:53:29.375Z</time></trkpt><trkpt lat="42.992835" lon="13.3192817"><ele>681.0</ele><time>2026-04-09T13:53:31.375Z</time></trkpt><trkpt lat="42.9929217" lon="13.3192667"><ele>686.0</ele><time>2026-04-09T13:53:33.375Z</time></trkpt><trkpt lat="42.9930383" lon="13.3193883"><ele>686.0</ele><time>2026-04-09T13:53:35.375Z</time></trkpt><trkpt lat="42.993095" lon="13.3194683"><ele>686.0</ele><time>2026-04-09T13:53:36.375Z</time></trkpt><trkpt lat="42.9931617" lon="13.3196083"><ele>686.0</ele><time>2026-04-09T13:53:37.378Z</time></trkpt><trkpt lat="42.9932117" lon="13.319725"><ele>686.0</ele><time>2026-04-09T13:53:38.378Z</time></trkpt><trkpt lat="42.9932383" lon="13.3198417"><ele>686.0</ele><time>2026-04-09T13:53:39.377Z</time></trkpt><trkpt lat="42.99324" lon="13.319955"><ele>686.1999999999999</ele><time>2026-04-09T13:53:40.375Z</time></trkpt><trkpt lat="42.993225" lon="13.3200733"><ele>686.4</ele><time>2026-04-09T13:53:41.373Z</time></trkpt><trkpt lat="42.993195" lon="13.3201517"><ele>686.6</ele><time>2026-04-09T13:53:42.377Z</time></trkpt><trkpt lat="42.99319" lon="13.3203033"><ele>686.8</ele><time>2026-04-09T13:53:44.375Z</time></trkpt><trkpt lat="42.9932767" lon="13.3204183"><ele>687.0</ele><time>2026-04-09T13:53:46.38Z</time></trkpt><trkpt lat="42.99337" lon="13.3204733"><ele>686.5</ele><time>2026-04-09T13:53:47.377Z</time></trkpt><trkpt lat="42.9935" lon="13.3205433"><ele>686.0</ele><time>2026-04-09T13:53:48.373Z</time></trkpt><trkpt lat="42.9936267" lon="13.3206233"><ele>685.5</ele><time>2026-04-09T13:53:49.377Z</time></trkpt><trkpt lat="42.9937483" lon="13.3207033"><ele>685.0</ele><time>2026-04-09T13:53:50.374Z</time></trkpt><trkpt lat="42.9938667" lon="13.3207783"><ele>685.0</ele><time>2026-04-09T13:53:51.378Z</time></trkpt><trkpt lat="42.99399" lon="13.3208367"><ele>685.0</ele><time>2026-04-09T13:53:52.378Z</time></trkpt><trkpt lat="42.994115" lon="13.320885"><ele>685.0</ele><time>2026-04-09T13:53:53.374Z</time></trkpt><trkpt lat="42.9942367" lon="13.320925"><ele>685.0</ele><time>2026-04-09T13:53:54.375Z</time></trkpt><trkpt lat="42.9943483" lon="13.320945"><ele>686.3333333333334</ele><time>2026-04-09T13:53:55.377Z</time></trkpt><trkpt lat="42.9944483" lon="13.3209583"><ele>687.6666666666667</ele><time>2026-04-09T13:53:56.379Z</time></trkpt><trkpt lat="42.9945383" lon="13.3209817"><ele>689.0</ele><time>2026-04-09T13:53:57.377Z</time></trkpt><trkpt lat="42.9946133" lon="13.321015"><ele>690.3333333333334</ele><time>2026-04-09T13:53:58.374Z</time></trkpt><trkpt lat="42.9946767" lon="13.3210533"><ele>691.6666666666666</ele><time>2026-04-09T13:53:59.374Z</time></trkpt><trkpt lat="42.9947317" lon="13.3211"><ele>693.0</ele><time>2026-04-09T13:54:00.375Z</time></trkpt><trkpt lat="42.9947817" lon="13.3211617"><ele>693.0</ele><time>2026-04-09T13:54:01.378Z</time></trkpt><trkpt lat="42.994845" lon="13.3212333"><ele>693.0</ele><time>2026-04-09T13:54:02.378Z</time></trkpt><trkpt lat="42.9949167" lon="13.32129"><ele>693.0</ele><time>2026-04-09T13:54:03.378Z</time></trkpt><trkpt lat="42.9949917" lon="13.3213283"><ele>693.0</ele><time>2026-04-09T13:54:04.373Z</time></trkpt><trkpt lat="42.9950817" lon="13.321345"><ele>693.0</ele><time>2026-04-09T13:54:05.376Z</time></trkpt><trkpt lat="42.9951867" lon="13.3213383"><ele>693.0</ele><time>2026-04-09T13:54:06.375Z</time></trkpt><trkpt lat="42.9952933" lon="13.3213267"><ele>692.5999999999999</ele><time>2026-04-09T13:54:07.375Z</time></trkpt><trkpt lat="42.995415" lon="13.32131"><ele>692.1999999999999</ele><time>2026-04-09T13:54:08.378Z</time></trkpt><trkpt lat="42.995535" lon="13.3213033"><ele>691.8</ele><time>2026-04-09T13:54:09.375Z</time></trkpt><trkpt lat="42.995645" lon="13.3213067"><ele>691.4</ele><time>2026-04-09T13:54:10.377Z</time></trkpt><trkpt lat="42.99574" lon="13.3213133"><ele>691.0</ele><time>2026-04-09T13:54:11.378Z</time></trkpt><trkpt lat="42.99583" lon="13.3213267"><ele>690.1428571428571</ele><time>2026-04-09T13:54:12.373Z</time></trkpt><trkpt lat="42.9959017" lon="13.3213583"><ele>689.2857142857142</ele><time>2026-04-09T13:54:13.375Z</time></trkpt><trkpt lat="42.9959633" lon="13.321405"><ele>688.4285714285713</ele><time>2026-04-09T13:54:14.375Z</time></trkpt><trkpt lat="42.9960167" lon="13.321475"><ele>687.5714285714286</ele><time>2026-04-09T13:54:15.378Z</time></trkpt><trkpt lat="42.9960567" lon="13.32155"><ele>686.7142857142858</ele><time>2026-04-09T13:54:16.375Z</time></trkpt><trkpt lat="42.9960883" lon="13.3216433"><ele>685.8571428571428</ele><time>2026-04-09T13:54:17.375Z</time></trkpt><trkpt lat="42.9961067" lon="13.3217317"><ele>685.0</ele><time>2026-04-09T13:54:18.374Z</time></trkpt><trkpt lat="42.9961067" lon="13.3218217"><ele>685.0</ele><time>2026-04-09T13:54:19.376Z</time></trkpt><trkpt lat="42.9960867" lon="13.32193"><ele>685.0</ele><time>2026-04-09T13:54:20.375Z</time></trkpt><trkpt lat="42.9960483" lon="13.3220583"><ele>685.0</ele><time>2026-04-09T13:54:21.375Z</time></trkpt><trkpt lat="42.996005" lon="13.32218"><ele>685.0</ele><time>2026-04-09T13:54:22.375Z</time></trkpt><trkpt lat="42.99596" lon="13.3223033"><ele>685.0</ele><time>2026-04-09T13:54:23.376Z</time></trkpt><trkpt lat="42.995905" lon="13.3224517"><ele>685.0</ele><time>2026-04-09T13:54:24.376Z</time></trkpt><trkpt lat="42.9958133" lon="13.3225817"><ele>685.0</ele><time>2026-04-09T13:54:25.376Z</time></trkpt><trkpt lat="42.9957383" lon="13.32271"><ele>685.0</ele><time>2026-04-09T13:54:26.375Z</time></trkpt><trkpt lat="42.9956833" lon="13.3228483"><ele>685.0</ele><time>2026-04-09T13:54:27.377Z</time></trkpt><trkpt lat="42.9956417" lon="13.3229917"><ele>686.2</ele><time>2026-04-09T13:54:28.377Z</time></trkpt><trkpt lat="42.9956017" lon="13.32313"><ele>687.4</ele><time>2026-04-09T13:54:29.378Z</time></trkpt><trkpt lat="42.99556" lon="13.3232617"><ele>688.5999999999999</ele><time>2026-04-09T13:54:30.374Z</time></trkpt><trkpt lat="42.9955117" lon="13.3233917"><ele>689.8</ele><time>2026-04-09T13:54:31.374Z</time></trkpt><trkpt lat="42.9954567" lon="13.3235033"><ele>691.0</ele><time>2026-04-09T13:54:32.375Z</time></trkpt><trkpt lat="42.9953833" lon="13.3235983"><ele>691.0</ele><time>2026-04-09T13:54:33.373Z</time></trkpt><trkpt lat="42.995305" lon="13.3236817"><ele>691.0</ele><time>2026-04-09T13:54:34.375Z</time></trkpt><trkpt lat="42.9952217" lon="13.323755"><ele>691.0</ele><time>2026-04-09T13:54:35.375Z</time></trkpt><trkpt lat="42.9951367" lon="13.3238233"><ele>691.0</ele><time>2026-04-09T13:54:36.375Z</time></trkpt><trkpt lat="42.995055" lon="13.3238917"><ele>691.0</ele><time>2026-04-09T13:54:37.375Z</time></trkpt><trkpt lat="42.9949933" lon="13.323975"><ele>688.3333333333334</ele><time>2026-04-09T13:54:38.375Z</time></trkpt><trkpt lat="42.9949517" lon="13.3240767"><ele>685.6666666666667</ele><time>2026-04-09T13:54:39.374Z</time></trkpt><trkpt lat="42.9949183" lon="13.3241667"><ele>683.0</ele><time>2026-04-09T13:54:40.374Z</time></trkpt><trkpt lat="42.99491" lon="13.3242733"><ele>680.3333333333334</ele><time>2026-04-09T13:54:41.375Z</time></trkpt><trkpt lat="42.9949067" lon="13.324375"><ele>677.6666666666666</ele><time>2026-04-09T13:54:42.378Z</time></trkpt><trkpt lat="42.9949217" lon="13.3244717"><ele>675.0</ele><time>2026-04-09T13:54:43.376Z</time></trkpt><trkpt lat="42.9949567" lon="13.3245833"><ele>676.25</ele><time>2026-04-09T13:54:44.378Z</time></trkpt><trkpt lat="42.9950083" lon="13.3247217"><ele>677.5</ele><time>2026-04-09T13:54:45.378Z</time></trkpt><trkpt lat="42.9950817" lon="13.3248717"><ele>678.75</ele><time>2026-04-09T13:54:46.378Z</time></trkpt><trkpt lat="42.99516" lon="13.3250117"><ele>680.0</ele><time>2026-04-09T13:54:47.377Z</time></trkpt><trkpt lat="42.99523" lon="13.3251233"><ele>680.0</ele><time>2026-04-09T13:54:48.377Z</time></trkpt><trkpt lat="42.9953" lon="13.325225"><ele>680.0</ele><time>2026-04-09T13:54:49.377Z</time></trkpt><trkpt lat="42.9953667" lon="13.32533"><ele>680.0</ele><time>2026-04-09T13:54:50.378Z</time></trkpt><trkpt lat="42.9954267" lon="13.3254317"><ele>680.0</ele><time>2026-04-09T13:54:51.375Z</time></trkpt><trkpt lat="42.99548" lon="13.3255383"><ele>680.0</ele><time>2026-04-09T13:54:52.375Z</time></trkpt><trkpt lat="42.99553" lon="13.3256683"><ele>677.2</ele><time>2026-04-09T13:54:53.377Z</time></trkpt><trkpt lat="42.9955367" lon="13.325795"><ele>674.4</ele><time>2026-04-09T13:54:54.375Z</time></trkpt><trkpt lat="42.9955167" lon="13.3259283"><ele>671.5999999999999</ele><time>2026-04-09T13:54:55.376Z</time></trkpt><trkpt lat="42.9954667" lon="13.326055"><ele>668.8</ele><time>2026-04-09T13:54:56.376Z</time></trkpt><trkpt lat="42.9954183" lon="13.3261817"><ele>666.0</ele><time>2026-04-09T13:54:57.376Z</time></trkpt><trkpt lat="42.9953933" lon="13.32631"><ele>664.1999999999999</ele><time>2026-04-09T13:54:58.378Z</time></trkpt><trkpt lat="42.99539" lon="13.3264267"><ele>662.4</ele><time>2026-04-09T13:54:59.376Z</time></trkpt><trkpt lat="42.9954017" lon="13.3265417"><ele>660.6</ele><time>2026-04-09T13:55:00.376Z</time></trkpt><trkpt lat="42.9954367" lon="13.3266767"><ele>658.8</ele><time>2026-04-09T13:55:01.378Z</time></trkpt><trkpt lat="42.9954933" lon="13.32683"><ele>657.0</ele><time>2026-04-09T13:55:02.378Z</time></trkpt><trkpt lat="42.9955533" lon="13.3269833"><ele>657.0</ele><time>2026-04-09T13:55:03.377Z</time></trkpt><trkpt lat="42.9956167" lon="13.3271483"><ele>657.0</ele><time>2026-04-09T13:55:04.374Z</time></trkpt><trkpt lat="42.9956767" lon="13.3273083"><ele>657.0</ele><time>2026-04-09T13:55:05.378Z</time></trkpt><trkpt lat="42.9957333" lon="13.3274567"><ele>657.0</ele><time>2026-04-09T13:55:06.377Z</time></trkpt><trkpt lat="42.995785" lon="13.3276017"><ele>655.5</ele><time>2026-04-09T13:55:07.378Z</time></trkpt><trkpt lat="42.9958267" lon="13.3277483"><ele>654.0</ele><time>2026-04-09T13:55:08.378Z</time></trkpt><trkpt lat="42.995855" lon="13.327895"><ele>652.5</ele><time>2026-04-09T13:55:09.378Z</time></trkpt><trkpt lat="42.99587" lon="13.3280483"><ele>651.0</ele><time>2026-04-09T13:55:10.378Z</time></trkpt><trkpt lat="42.9958683" lon="13.3282"><ele>649.75</ele><time>2026-04-09T13:55:11.375Z</time></trkpt><trkpt lat="42.99585" lon="13.32835"><ele>648.5</ele><time>2026-04-09T13:55:12.374Z</time></trkpt><trkpt lat="42.9958267" lon="13.3285"><ele>647.25</ele><time>2026-04-09T13:55:13.375Z</time></trkpt><trkpt lat="42.99581" lon="13.328655"><ele>646.0</ele><time>2026-04-09T13:55:14.376Z</time></trkpt><trkpt lat="42.9958183" lon="13.328825"><ele>644.5</ele><time>2026-04-09T13:55:15.375Z</time></trkpt><trkpt lat="42.9958367" lon="13.3289933"><ele>643.0</ele><time>2026-04-09T13:55:16.375Z</time></trkpt><trkpt lat="42.99587" lon="13.329175"><ele>641.5</ele><time>2026-04-09T13:55:17.375Z</time></trkpt><trkpt lat="42.9959083" lon="13.32936"><ele>640.0</ele><time>2026-04-09T13:55:18.374Z</time></trkpt><trkpt lat="42.9959483" lon="13.3295417"><ele>638.25</ele><time>2026-04-09T13:55:19.373Z</time></trkpt><trkpt lat="42.9959867" lon="13.3297183"><ele>636.5</ele><time>2026-04-09T13:55:20.375Z</time></trkpt><trkpt lat="42.99602" lon="13.32989"><ele>634.75</ele><time>2026-04-09T13:55:21.374Z</time></trkpt><trkpt lat="42.99604" lon="13.3300567"><ele>633.0</ele><time>2026-04-09T13:55:22.374Z</time></trkpt><trkpt lat="42.9960483" lon="13.3302233"><ele>633.0</ele><time>2026-04-09T13:55:23.373Z</time></trkpt><trkpt lat="42.99604" lon="13.3303733"><ele>633.0</ele><time>2026-04-09T13:55:24.374Z</time></trkpt><trkpt lat="42.99602" lon="13.3305283"><ele>633.0</ele><time>2026-04-09T13:55:25.374Z</time></trkpt><trkpt lat="42.996" lon="13.3306783"><ele>633.0</ele><time>2026-04-09T13:55:26.374Z</time></trkpt><trkpt lat="42.995995" lon="13.3308183"><ele>633.0</ele><time>2026-04-09T13:55:27.374Z</time></trkpt><trkpt lat="42.99601" lon="13.3309617"><ele>633.0</ele><time>2026-04-09T13:55:28.377Z</time></trkpt><trkpt lat="42.996045" lon="13.3311083"><ele>633.0</ele><time>2026-04-09T13:55:29.377Z</time></trkpt><trkpt lat="42.9960933" lon="13.331255"><ele>633.0</ele><time>2026-04-09T13:55:30.376Z</time></trkpt><trkpt lat="42.996145" lon="13.3314033"><ele>633.0</ele><time>2026-04-09T13:55:31.374Z</time></trkpt><trkpt lat="42.9961983" lon="13.3315383"><ele>634.6666666666666</ele><time>2026-04-09T13:55:32.378Z</time></trkpt><trkpt lat="42.9962433" lon="13.331665"><ele>636.3333333333334</ele><time>2026-04-09T13:55:33.375Z</time></trkpt><trkpt lat="42.9962767" lon="13.3317883"><ele>638.0</ele><time>2026-04-09T13:55:34.374Z</time></trkpt><trkpt lat="42.9962767" lon="13.331895"><ele>639.6666666666667</ele><time>2026-04-09T13:55:35.374Z</time></trkpt><trkpt lat="42.9962617" lon="13.3319967"><ele>641.3333333333334</ele><time>2026-04-09T13:55:36.374Z</time></trkpt><trkpt lat="42.9962333" lon="13.3320967"><ele>643.0</ele><time>2026-04-09T13:55:37.374Z</time></trkpt><trkpt lat="42.9961633" lon="13.3321967"><ele>642.75</ele><time>2026-04-09T13:55:38.375Z</time></trkpt><trkpt lat="42.9960967" lon="13.332295"><ele>642.5</ele><time>2026-04-09T13:55:39.374Z</time></trkpt><trkpt lat="42.996" lon="13.3324283"><ele>642.25</ele><time>2026-04-09T13:55:40.375Z</time></trkpt><trkpt lat="42.9959183" lon="13.332565"><ele>642.0</ele><time>2026-04-09T13:55:41.376Z</time></trkpt><trkpt lat="42.9958333" lon="13.3327133"><ele>642.0</ele><time>2026-04-09T13:55:42.374Z</time></trkpt><trkpt lat="42.9957483" lon="13.3328583"><ele>642.0</ele><time>2026-04-09T13:55:43.374Z</time></trkpt><trkpt lat="42.9956733" lon="13.3329967"><ele>642.0</ele><time>2026-04-09T13:55:44.374Z</time></trkpt><trkpt lat="42.9955967" lon="13.333125"><ele>642.0</ele><time>2026-04-09T13:55:45.377Z</time></trkpt><trkpt lat="42.9955283" lon="13.33324"><ele>643.6666666666666</ele><time>2026-04-09T13:55:46.377Z</time></trkpt><trkpt lat="42.9954833" lon="13.3333417"><ele>645.3333333333334</ele><time>2026-04-09T13:55:47.376Z</time></trkpt><trkpt lat="42.99546" lon="13.3334383"><ele>647.0</ele><time>2026-04-09T13:55:48.374Z</time></trkpt><trkpt lat="42.9954517" lon="13.3335283"><ele>648.6666666666667</ele><time>2026-04-09T13:55:49.377Z</time></trkpt><trkpt lat="42.9954867" lon="13.33364"><ele>650.3333333333334</ele><time>2026-04-09T13:55:51.377Z</time></trkpt><trkpt lat="42.9955917" lon="13.333615"><ele>652.0</ele><time>2026-04-09T13:55:53.377Z</time></trkpt><trkpt lat="42.9956717" lon="13.3335683"><ele>652.0</ele><time>2026-04-09T13:55:54.373Z</time></trkpt><trkpt lat="42.99577" lon="13.3334983"><ele>652.0</ele><time>2026-04-09T13:55:55.377Z</time></trkpt><trkpt lat="42.9958617" lon="13.3334283"><ele>652.0</ele><time>2026-04-09T13:55:56.377Z</time></trkpt><trkpt lat="42.9959567" lon="13.3333833"><ele>652.0</ele><time>2026-04-09T13:55:57.375Z</time></trkpt><trkpt lat="42.996055" lon="13.3333483"><ele>652.0</ele><time>2026-04-09T13:55:58.374Z</time></trkpt><trkpt lat="42.99616" lon="13.33333"><ele>652.5</ele><time>2026-04-09T13:55:59.377Z</time></trkpt><trkpt lat="42.9962717" lon="13.3333183"><ele>653.0</ele><time>2026-04-09T13:56:00.375Z</time></trkpt><trkpt lat="42.9963933" lon="13.3332933"><ele>653.5</ele><time>2026-04-09T13:56:01.378Z</time></trkpt><trkpt lat="42.9965183" lon="13.3332583"><ele>654.0</ele><time>2026-04-09T13:56:02.377Z</time></trkpt><trkpt lat="42.9966317" lon="13.33322"><ele>653.6</ele><time>2026-04-09T13:56:03.376Z</time></trkpt><trkpt lat="42.9967367" lon="13.3331867"><ele>653.2</ele><time>2026-04-09T13:56:04.376Z</time></trkpt><trkpt lat="42.9968417" lon="13.333155"><ele>652.8000000000001</ele><time>2026-04-09T13:56:05.375Z</time></trkpt><trkpt lat="42.996935" lon="13.333135"><ele>652.4000000000001</ele><time>2026-04-09T13:56:06.378Z</time></trkpt><trkpt lat="42.9970217" lon="13.3331283"><ele>652.0</ele><time>2026-04-09T13:56:07.375Z</time></trkpt><trkpt lat="42.9971133" lon="13.3331317"><ele>652.0</ele><time>2026-04-09T13:56:08.375Z</time></trkpt><trkpt lat="42.9972017" lon="13.3331733"><ele>652.0</ele><time>2026-04-09T13:56:09.375Z</time></trkpt><trkpt lat="42.99728" lon="13.333265"><ele>652.0</ele><time>2026-04-09T13:56:10.374Z</time></trkpt><trkpt lat="42.9973533" lon="13.333395"><ele>652.0</ele><time>2026-04-09T13:56:11.374Z</time></trkpt><trkpt lat="42.9974333" lon="13.33353"><ele>652.0</ele><time>2026-04-09T13:56:12.374Z</time></trkpt><trkpt lat="42.9975183" lon="13.3336717"><ele>649.25</ele><time>2026-04-09T13:56:13.374Z</time></trkpt><trkpt lat="42.9976067" lon="13.333815"><ele>646.5</ele><time>2026-04-09T13:56:14.375Z</time></trkpt><trkpt lat="42.9976933" lon="13.333955"><ele>643.75</ele><time>2026-04-09T13:56:15.375Z</time></trkpt><trkpt lat="42.9977767" lon="13.3341017"><ele>641.0</ele><time>2026-04-09T13:56:16.375Z</time></trkpt><trkpt lat="42.9978617" lon="13.3342467"><ele>640.0</ele><time>2026-04-09T13:56:17.374Z</time></trkpt><trkpt lat="42.99795" lon="13.3343867"><ele>639.0</ele><time>2026-04-09T13:56:18.374Z</time></trkpt><trkpt lat="42.998035" lon="13.334525"><ele>638.0</ele><time>2026-04-09T13:56:19.374Z</time></trkpt><trkpt lat="42.99812" lon="13.3346633"><ele>637.0</ele><time>2026-04-09T13:56:20.373Z</time></trkpt><trkpt lat="42.9981933" lon="13.334785"><ele>637.0</ele><time>2026-04-09T13:56:21.374Z</time></trkpt><trkpt lat="42.9982683" lon="13.3348983"><ele>637.0</ele><time>2026-04-09T13:56:22.374Z</time></trkpt><trkpt lat="42.998345" lon="13.335005"><ele>637.0</ele><time>2026-04-09T13:56:23.378Z</time></trkpt><trkpt lat="42.99842" lon="13.335115"><ele>637.0</ele><time>2026-04-09T13:56:24.377Z</time></trkpt><trkpt lat="42.998495" lon="13.3352183"><ele>637.0</ele><time>2026-04-09T13:56:25.377Z</time></trkpt><trkpt lat="42.9985667" lon="13.3353283"><ele>636.8000000000001</ele><time>2026-04-09T13:56:26.374Z</time></trkpt><trkpt lat="42.9986383" lon="13.33543"><ele>636.6</ele><time>2026-04-09T13:56:27.376Z</time></trkpt><trkpt lat="42.99872" lon="13.335505"><ele>636.4000000000001</ele><time>2026-04-09T13:56:28.378Z</time></trkpt><trkpt lat="42.9988" lon="13.3355583"><ele>636.2</ele><time>2026-04-09T13:56:29.376Z</time></trkpt><trkpt lat="42.9988867" lon="13.335585"><ele>636.0</ele><time>2026-04-09T13:56:30.377Z</time></trkpt><trkpt lat="42.998985" lon="13.3355917"><ele>636.0</ele><time>2026-04-09T13:56:31.374Z</time></trkpt><trkpt lat="42.9990867" lon="13.335585"><ele>636.0</ele><time>2026-04-09T13:56:32.374Z</time></trkpt><trkpt lat="42.9991917" lon="13.335575"><ele>636.0</ele><time>2026-04-09T13:56:33.378Z</time></trkpt><trkpt lat="42.9993017" lon="13.3355733"><ele>636.0</ele><time>2026-04-09T13:56:34.376Z</time></trkpt><trkpt lat="42.9994067" lon="13.3355733"><ele>636.0</ele><time>2026-04-09T13:56:35.373Z</time></trkpt><trkpt lat="42.999505" lon="13.3355833"><ele>634.0</ele><time>2026-04-09T13:56:36.376Z</time></trkpt><trkpt lat="42.9995933" lon="13.3356183"><ele>632.0</ele><time>2026-04-09T13:56:37.377Z</time></trkpt><trkpt lat="42.9996667" lon="13.335675"><ele>630.0</ele><time>2026-04-09T13:56:38.377Z</time></trkpt><trkpt lat="42.9997233" lon="13.3357617"><ele>628.0</ele><time>2026-04-09T13:56:39.378Z</time></trkpt><trkpt lat="42.999775" lon="13.33585"><ele>626.0</ele><time>2026-04-09T13:56:40.376Z</time></trkpt><trkpt lat="42.9997833" lon="13.3359833"><ele>624.0</ele><time>2026-04-09T13:56:41.373Z</time></trkpt><trkpt lat="42.9997867" lon="13.3361333"><ele>624.0</ele><time>2026-04-09T13:56:42.377Z</time></trkpt><trkpt lat="42.99979" lon="13.336285"><ele>624.0</ele><time>2026-04-09T13:56:43.374Z</time></trkpt><trkpt lat="42.999805" lon="13.336445"><ele>624.0</ele><time>2026-04-09T13:56:44.375Z</time></trkpt><trkpt lat="42.9998283" lon="13.3366083"><ele>624.0</ele><time>2026-04-09T13:56:45.376Z</time></trkpt><trkpt lat="42.9998533" lon="13.3367783"><ele>624.0</ele><time>2026-04-09T13:56:46.377Z</time></trkpt><trkpt lat="42.9998817" lon="13.3369417"><ele>624.0</ele><time>2026-04-09T13:56:47.376Z</time></trkpt><trkpt lat="42.9999117" lon="13.3370983"><ele>624.0</ele><time>2026-04-09T13:56:48.378Z</time></trkpt><trkpt lat="42.9999383" lon="13.3372483"><ele>624.0</ele><time>2026-04-09T13:56:49.377Z</time></trkpt><trkpt lat="42.9999633" lon="13.3373867"><ele>624.0</ele><time>2026-04-09T13:56:50.377Z</time></trkpt><trkpt lat="42.9999833" lon="13.3375017"><ele>624.0</ele><time>2026-04-09T13:56:51.377Z</time></trkpt><trkpt lat="43.0000017" lon="13.3376017"><ele>624.0</ele><time>2026-04-09T13:56:52.376Z</time></trkpt><trkpt lat="43.0000133" lon="13.33775"><ele>624.0</ele><time>2026-04-09T13:56:54.376Z</time></trkpt><trkpt lat="43.000045" lon="13.3378967"><ele>624.0</ele><time>2026-04-09T13:57:46.377Z</time></trkpt><trkpt lat="43.0000017" lon="13.33805"><ele>623.3333333333334</ele><time>2026-04-09T13:57:48.377Z</time></trkpt><trkpt lat="42.999955" lon="13.3381967"><ele>622.6666666666666</ele><time>2026-04-09T13:57:50.377Z</time></trkpt><trkpt lat="42.9999283" lon="13.3382767"><ele>622.0</ele><time>2026-04-09T13:57:51.374Z</time></trkpt><trkpt lat="42.9998967" lon="13.338365"><ele>621.3333333333333</ele><time>2026-04-09T13:57:52.377Z</time></trkpt><trkpt lat="42.9998533" lon="13.3384567"><ele>620.6666666666666</ele><time>2026-04-09T13:57:53.377Z</time></trkpt><trkpt lat="42.9997933" lon="13.3385433"><ele>620.0</ele><time>2026-04-09T13:57:54.377Z</time></trkpt><trkpt lat="42.9997283" lon="13.3386133"><ele>620.0</ele><time>2026-04-09T13:57:55.374Z</time></trkpt><trkpt lat="42.9996583" lon="13.33867"><ele>620.0</ele><time>2026-04-09T13:57:56.377Z</time></trkpt><trkpt lat="42.99958" lon="13.338705"><ele>620.0</ele><time>2026-04-09T13:57:57.373Z</time></trkpt><trkpt lat="42.99949" lon="13.3387167"><ele>620.0</ele><time>2026-04-09T13:57:58.374Z</time></trkpt><trkpt lat="42.999395" lon="13.33872"><ele>620.0</ele><time>2026-04-09T13:57:59.374Z</time></trkpt><trkpt lat="42.9992983" lon="13.3387133"><ele>620.0</ele><time>2026-04-09T13:58:00.376Z</time></trkpt><trkpt lat="42.9992033" lon="13.338705"><ele>622.0</ele><time>2026-04-09T13:58:01.375Z</time></trkpt><trkpt lat="42.9991033" lon="13.33867"><ele>624.0</ele><time>2026-04-09T13:58:02.377Z</time></trkpt><trkpt lat="42.99902" lon="13.338615"><ele>626.0</ele><time>2026-04-09T13:58:03.374Z</time></trkpt><trkpt lat="42.9989483" lon="13.33855"><ele>628.0</ele><time>2026-04-09T13:58:04.374Z</time></trkpt><trkpt lat="42.998865" lon="13.3384733"><ele>630.0</ele><time>2026-04-09T13:58:05.378Z</time></trkpt><trkpt lat="42.9987783" lon="13.338405"><ele>630.0</ele><time>2026-04-09T13:58:06.378Z</time></trkpt><trkpt lat="42.9986733" lon="13.33836"><ele>630.0</ele><time>2026-04-09T13:58:07.379Z</time></trkpt><trkpt lat="42.9985633" lon="13.3383333"><ele>630.0</ele><time>2026-04-09T13:58:08.377Z</time></trkpt><trkpt lat="42.99845" lon="13.338315"><ele>630.0</ele><time>2026-04-09T13:58:09.378Z</time></trkpt><trkpt lat="42.9983267" lon="13.3383033"><ele>629.0</ele><time>2026-04-09T13:58:10.377Z</time></trkpt><trkpt lat="42.9981933" lon="13.3383017"><ele>628.0</ele><time>2026-04-09T13:58:11.378Z</time></trkpt><trkpt lat="42.99806" lon="13.338295"><ele>627.0</ele><time>2026-04-09T13:58:12.377Z</time></trkpt><trkpt lat="42.9979233" lon="13.3382983"><ele>626.0</ele><time>2026-04-09T13:58:13.378Z</time></trkpt><trkpt lat="42.9977817" lon="13.3383183"><ele>626.0</ele><time>2026-04-09T13:58:14.378Z</time></trkpt><trkpt lat="42.9976433" lon="13.33836"><ele>626.0</ele><time>2026-04-09T13:58:15.377Z</time></trkpt><trkpt lat="42.9975017" lon="13.3384267"><ele>626.0</ele><time>2026-04-09T13:58:16.377Z</time></trkpt><trkpt lat="42.99737" lon="13.33851"><ele>626.0</ele><time>2026-04-09T13:58:17.375Z</time></trkpt><trkpt lat="42.9972467" lon="13.3386067"><ele>626.75</ele><time>2026-04-09T13:58:18.375Z</time></trkpt><trkpt lat="42.9971333" lon="13.33872"><ele>627.5</ele><time>2026-04-09T13:58:19.376Z</time></trkpt><trkpt lat="42.99704" lon="13.338855"><ele>628.25</ele><time>2026-04-09T13:58:20.375Z</time></trkpt><trkpt lat="42.99696" lon="13.3389933"><ele>629.0</ele><time>2026-04-09T13:58:21.376Z</time></trkpt><trkpt lat="42.9968867" lon="13.339125"><ele>629.0</ele><time>2026-04-09T13:58:22.374Z</time></trkpt><trkpt lat="42.9968083" lon="13.3392533"><ele>629.0</ele><time>2026-04-09T13:58:23.378Z</time></trkpt><trkpt lat="42.9967183" lon="13.3393667"><ele>629.0</ele><time>2026-04-09T13:58:24.377Z</time></trkpt><trkpt lat="42.9966133" lon="13.3394583"><ele>629.0</ele><time>2026-04-09T13:58:25.378Z</time></trkpt><trkpt lat="42.9965033" lon="13.3395283"><ele>629.0</ele><time>2026-04-09T13:58:26.374Z</time></trkpt><trkpt lat="42.9963983" lon="13.3395767"><ele>629.0</ele><time>2026-04-09T13:58:27.378Z</time></trkpt><trkpt lat="42.9963" lon="13.3396083"><ele>629.0</ele><time>2026-04-09T13:58:28.377Z</time></trkpt><trkpt lat="42.9962167" lon="13.33963"><ele>629.0</ele><time>2026-04-09T13:58:29.378Z</time></trkpt><trkpt lat="42.996155" lon="13.339655"><ele>629.0</ele><time>2026-04-09T13:58:30.377Z</time></trkpt><trkpt lat="42.9961067" lon="13.3397117"><ele>629.0</ele><time>2026-04-09T13:58:32.379Z</time></trkpt><trkpt lat="42.99619" lon="13.3397967"><ele>627.2</ele><time>2026-04-09T13:58:35.378Z</time></trkpt><trkpt lat="42.99626" lon="13.339805"><ele>625.4</ele><time>2026-04-09T13:58:36.378Z</time></trkpt><trkpt lat="42.9963617" lon="13.3398033"><ele>623.6</ele><time>2026-04-09T13:58:37.377Z</time></trkpt><trkpt lat="42.99646" lon="13.3397967"><ele>621.8</ele><time>2026-04-09T13:58:38.378Z</time></trkpt><trkpt lat="42.9965767" lon="13.33977"><ele>620.0</ele><time>2026-04-09T13:58:39.377Z</time></trkpt><trkpt lat="42.9966867" lon="13.3397217"><ele>620.25</ele><time>2026-04-09T13:58:40.377Z</time></trkpt><trkpt lat="42.9967983" lon="13.3396567"><ele>620.5</ele><time>2026-04-09T13:58:41.378Z</time></trkpt><trkpt lat="42.9969083" lon="13.3395783"><ele>620.75</ele><time>2026-04-09T13:58:42.377Z</time></trkpt><trkpt lat="42.99701" lon="13.3395017"><ele>621.0</ele><time>2026-04-09T13:58:43.376Z</time></trkpt><trkpt lat="42.9971033" lon="13.3394333"><ele>621.0</ele><time>2026-04-09T13:58:44.375Z</time></trkpt><trkpt lat="42.9971933" lon="13.339375"><ele>621.0</ele><time>2026-04-09T13:58:45.376Z</time></trkpt><trkpt lat="42.997275" lon="13.3393517"><ele>621.0</ele><time>2026-04-09T13:58:46.375Z</time></trkpt><trkpt lat="42.9973567" lon="13.3393517"><ele>621.0</ele><time>2026-04-09T13:58:47.374Z</time></trkpt><trkpt lat="42.997435" lon="13.3393833"><ele>621.0</ele><time>2026-04-09T13:58:48.376Z</time></trkpt><trkpt lat="42.997495" lon="13.3394567"><ele>621.0</ele><time>2026-04-09T13:58:49.376Z</time></trkpt><trkpt lat="42.9975333" lon="13.3395483"><ele>619.3333333333334</ele><time>2026-04-09T13:58:50.374Z</time></trkpt><trkpt lat="42.9975917" lon="13.3396083"><ele>617.6666666666666</ele><time>2026-04-09T13:58:51.375Z</time></trkpt><trkpt lat="42.99765" lon="13.3396483"><ele>616.0</ele><time>2026-04-09T13:58:52.375Z</time></trkpt><trkpt lat="42.9977133" lon="13.33964"><ele>614.3333333333333</ele><time>2026-04-09T13:58:53.376Z</time></trkpt><trkpt lat="42.9977717" lon="13.339575"><ele>612.6666666666666</ele><time>2026-04-09T13:58:54.377Z</time></trkpt><trkpt lat="42.9978267" lon="13.3394617"><ele>611.0</ele><time>2026-04-09T13:58:55.377Z</time></trkpt><trkpt lat="42.9978667" lon="13.3393267"><ele>611.0</ele><time>2026-04-09T13:58:56.373Z</time></trkpt><trkpt lat="42.99791" lon="13.3392217"><ele>611.0</ele><time>2026-04-09T13:58:57.375Z</time></trkpt><trkpt lat="42.997965" lon="13.3391233"><ele>611.0</ele><time>2026-04-09T13:58:58.375Z</time></trkpt><trkpt lat="42.9980317" lon="13.33905"><ele>611.0</ele><time>2026-04-09T13:58:59.375Z</time></trkpt><trkpt lat="42.998115" lon="13.3390117"><ele>611.0</ele><time>2026-04-09T13:59:00.375Z</time></trkpt><trkpt lat="42.99819" lon="13.3389783"><ele>611.0</ele><time>2026-04-09T13:59:01.377Z</time></trkpt><trkpt lat="42.9983283" lon="13.3390483"><ele>611.25</ele><time>2026-04-09T13:59:02.379Z</time></trkpt><trkpt lat="42.9984633" lon="13.339095"><ele>611.5</ele><time>2026-04-09T13:59:03.376Z</time></trkpt><trkpt lat="42.998575" lon="13.3391633"><ele>611.75</ele><time>2026-04-09T13:59:04.375Z</time></trkpt><trkpt lat="42.9986767" lon="13.3392383"><ele>612.0</ele><time>2026-04-09T13:59:05.376Z</time></trkpt><trkpt lat="42.9987767" lon="13.3393867"><ele>612.0</ele><time>2026-04-09T13:59:06.377Z</time></trkpt><trkpt lat="42.9988683" lon="13.3395"><ele>612.0</ele><time>2026-04-09T13:59:07.377Z</time></trkpt><trkpt lat="42.9989633" lon="13.3396133"><ele>612.0</ele><time>2026-04-09T13:59:08.378Z</time></trkpt><trkpt lat="42.999075" lon="13.3397117"><ele>612.0</ele><time>2026-04-09T13:59:09.378Z</time></trkpt><trkpt lat="42.999195" lon="13.3397833"><ele>608.75</ele><time>2026-04-09T13:59:10.376Z</time></trkpt><trkpt lat="42.9993067" lon="13.3398517"><ele>605.5</ele><time>2026-04-09T13:59:11.378Z</time></trkpt><trkpt lat="42.99942" lon="13.3399317"><ele>602.25</ele><time>2026-04-09T13:59:12.374Z</time></trkpt><trkpt lat="42.9995267" lon="13.3400183"><ele>599.0</ele><time>2026-04-09T13:59:13.374Z</time></trkpt><trkpt lat="42.9996117" lon="13.340145"><ele>599.0</ele><time>2026-04-09T13:59:14.375Z</time></trkpt><trkpt lat="42.99969" lon="13.340285"><ele>599.0</ele><time>2026-04-09T13:59:15.375Z</time></trkpt><trkpt lat="42.9997717" lon="13.3404133"><ele>599.0</ele><time>2026-04-09T13:59:16.378Z</time></trkpt><trkpt lat="42.99986" lon="13.3405433"><ele>599.0</ele><time>2026-04-09T13:59:17.373Z</time></trkpt><trkpt lat="42.9999633" lon="13.34066"><ele>595.0</ele><time>2026-04-09T13:59:18.376Z</time></trkpt><trkpt lat="43.0000683" lon="13.340785"><ele>591.0</ele><time>2026-04-09T13:59:19.376Z</time></trkpt><trkpt lat="43.0001733" lon="13.34091"><ele>587.0</ele><time>2026-04-09T13:59:20.375Z</time></trkpt><trkpt lat="43.0002783" lon="13.3410383"><ele>583.0</ele><time>2026-04-09T13:59:21.377Z</time></trkpt><trkpt lat="43.00038" lon="13.3411817"><ele>583.0</ele><time>2026-04-09T13:59:22.375Z</time></trkpt><trkpt lat="43.0004567" lon="13.3413533"><ele>583.0</ele><time>2026-04-09T13:59:23.375Z</time></trkpt><trkpt lat="43.0005083" lon="13.34155"><ele>583.0</ele><time>2026-04-09T13:59:24.378Z</time></trkpt><trkpt lat="43.000545" lon="13.3417483"><ele>583.0</ele><time>2026-04-09T13:59:25.376Z</time></trkpt><trkpt lat="43.0005717" lon="13.3419467"><ele>580.0</ele><time>2026-04-09T13:59:26.376Z</time></trkpt><trkpt lat="43.0005867" lon="13.3421333"><ele>577.0</ele><time>2026-04-09T13:59:27.376Z</time></trkpt><trkpt lat="43.0005933" lon="13.342315"><ele>574.0</ele><time>2026-04-09T13:59:28.376Z</time></trkpt><trkpt lat="43.0005883" lon="13.3425033"><ele>571.0</ele><time>2026-04-09T13:59:29.378Z</time></trkpt><trkpt lat="43.000565" lon="13.342675"><ele>571.0</ele><time>2026-04-09T13:59:30.377Z</time></trkpt><trkpt lat="43.0005367" lon="13.34286"><ele>571.0</ele><time>2026-04-09T13:59:31.375Z</time></trkpt><trkpt lat="43.0005017" lon="13.343045"><ele>571.0</ele><time>2026-04-09T13:59:32.376Z</time></trkpt><trkpt lat="43.000465" lon="13.3432233"><ele>571.0</ele><time>2026-04-09T13:59:33.376Z</time></trkpt><trkpt lat="43.00044" lon="13.3434083"><ele>572.5</ele><time>2026-04-09T13:59:34.374Z</time></trkpt><trkpt lat="43.0004333" lon="13.3436017"><ele>574.0</ele><time>2026-04-09T13:59:35.376Z</time></trkpt><trkpt lat="43.0004333" lon="13.3437967"><ele>575.5</ele><time>2026-04-09T13:59:36.376Z</time></trkpt><trkpt lat="43.0004467" lon="13.3439933"><ele>577.0</ele><time>2026-04-09T13:59:37.376Z</time></trkpt><trkpt lat="43.0004567" lon="13.3441967"><ele>578.0</ele><time>2026-04-09T13:59:38.375Z</time></trkpt><trkpt lat="43.0004483" lon="13.3444083"><ele>579.0</ele><time>2026-04-09T13:59:39.375Z</time></trkpt><trkpt lat="43.0004233" lon="13.344605"><ele>580.0</ele><time>2026-04-09T13:59:40.375Z</time></trkpt><trkpt lat="43.0003783" lon="13.3447867"><ele>581.0</ele><time>2026-04-09T13:59:41.375Z</time></trkpt><trkpt lat="43.00032" lon="13.3449617"><ele>583.5</ele><time>2026-04-09T13:59:42.377Z</time></trkpt><trkpt lat="43.000265" lon="13.345125"><ele>586.0</ele><time>2026-04-09T13:59:43.376Z</time></trkpt><trkpt lat="43.0002367" lon="13.3452983"><ele>588.5</ele><time>2026-04-09T13:59:44.375Z</time></trkpt><trkpt lat="43.0002433" lon="13.3454533"><ele>591.0</ele><time>2026-04-09T13:59:45.377Z</time></trkpt><trkpt lat="43.0002817" lon="13.3455967"><ele>591.0</ele><time>2026-04-09T13:59:46.378Z</time></trkpt><trkpt lat="43.0003417" lon="13.34574"><ele>591.0</ele><time>2026-04-09T13:59:47.378Z</time></trkpt><trkpt lat="43.0003967" lon="13.3458617"><ele>591.0</ele><time>2026-04-09T13:59:48.378Z</time></trkpt><trkpt lat="43.0004317" lon="13.34602"><ele>591.0</ele><time>2026-04-09T13:59:49.378Z</time></trkpt><trkpt lat="43.000455" lon="13.3462117"><ele>591.0</ele><time>2026-04-09T13:59:50.378Z</time></trkpt><trkpt lat="43.0004717" lon="13.3463983"><ele>591.0</ele><time>2026-04-09T13:59:51.378Z</time></trkpt><trkpt lat="43.0004767" lon="13.3465967"><ele>591.0</ele><time>2026-04-09T13:59:52.375Z</time></trkpt><trkpt lat="43.0004833" lon="13.34679"><ele>591.0</ele><time>2026-04-09T13:59:53.378Z</time></trkpt><trkpt lat="43.0004967" lon="13.346975"><ele>591.0</ele><time>2026-04-09T13:59:54.376Z</time></trkpt><trkpt lat="43.0005183" lon="13.34715"><ele>591.0</ele><time>2026-04-09T13:59:55.378Z</time></trkpt><trkpt lat="43.0005383" lon="13.347315"><ele>591.0</ele><time>2026-04-09T13:59:56.378Z</time></trkpt><trkpt lat="43.0005283" lon="13.347455"><ele>591.0</ele><time>2026-04-09T13:59:57.378Z</time></trkpt><trkpt lat="43.0005" lon="13.3475717"><ele>591.0</ele><time>2026-04-09T13:59:58.375Z</time></trkpt><trkpt lat="43.0004567" lon="13.3476683"><ele>593.1666666666666</ele><time>2026-04-09T13:59:59.375Z</time></trkpt><trkpt lat="43.0004" lon="13.3477367"><ele>595.3333333333334</ele><time>2026-04-09T14:00:00.376Z</time></trkpt><trkpt lat="43.0003117" lon="13.3477683"><ele>597.5</ele><time>2026-04-09T14:00:01.374Z</time></trkpt><trkpt lat="43.000225" lon="13.3478033"><ele>599.6666666666667</ele><time>2026-04-09T14:00:02.378Z</time></trkpt><trkpt lat="43.000135" lon="13.3478433"><ele>601.8333333333334</ele><time>2026-04-09T14:00:03.376Z</time></trkpt><trkpt lat="43.0000483" lon="13.34789"><ele>604.0</ele><time>2026-04-09T14:00:04.378Z</time></trkpt><trkpt lat="42.9999817" lon="13.3479517"><ele>604.0</ele><time>2026-04-09T14:00:05.377Z</time></trkpt><trkpt lat="42.9999517" lon="13.34804"><ele>604.0</ele><time>2026-04-09T14:00:06.377Z</time></trkpt><trkpt lat="42.99995" lon="13.3481517"><ele>604.0</ele><time>2026-04-09T14:00:07.376Z</time></trkpt><trkpt lat="42.9999683" lon="13.3482867"><ele>604.0</ele><time>2026-04-09T14:00:08.375Z</time></trkpt><trkpt lat="43.0000183" lon="13.348455"><ele>604.0</ele><time>2026-04-09T14:00:09.376Z</time></trkpt><trkpt lat="43.0000733" lon="13.3486017"><ele>606.2</ele><time>2026-04-09T14:00:10.376Z</time></trkpt><trkpt lat="43.000135" lon="13.34873"><ele>608.4</ele><time>2026-04-09T14:00:11.376Z</time></trkpt><trkpt lat="43.0002067" lon="13.3488383"><ele>610.6</ele><time>2026-04-09T14:00:12.378Z</time></trkpt><trkpt lat="43.0002767" lon="13.3489183"><ele>612.8</ele><time>2026-04-09T14:00:13.378Z</time></trkpt><trkpt lat="43.0003417" lon="13.348985"><ele>615.0</ele><time>2026-04-09T14:00:14.377Z</time></trkpt><trkpt lat="43.0003933" lon="13.3490383"><ele>616.5</ele><time>2026-04-09T14:00:15.377Z</time></trkpt><trkpt lat="43.0004467" lon="13.349125"><ele>618.0</ele><time>2026-04-09T14:00:17.379Z</time></trkpt><trkpt lat="43.0004317" lon="13.3492367"><ele>619.5</ele><time>2026-04-09T14:00:19.378Z</time></trkpt><trkpt lat="43.000405" lon="13.349315"><ele>621.0</ele><time>2026-04-09T14:00:20.377Z</time></trkpt><trkpt lat="43.000365" lon="13.3494117"><ele>622.5</ele><time>2026-04-09T14:00:21.377Z</time></trkpt><trkpt lat="43.0003283" lon="13.3495183"><ele>624.0</ele><time>2026-04-09T14:00:22.377Z</time></trkpt><trkpt lat="43.0002817" lon="13.34965"><ele>625.25</ele><time>2026-04-09T14:00:23.376Z</time></trkpt><trkpt lat="43.0002333" lon="13.3497917"><ele>626.5</ele><time>2026-04-09T14:00:24.379Z</time></trkpt><trkpt lat="43.0001933" lon="13.3499367"><ele>627.75</ele><time>2026-04-09T14:00:25.378Z</time></trkpt><trkpt lat="43.0001633" lon="13.3500883"><ele>629.0</ele><time>2026-04-09T14:00:26.378Z</time></trkpt><trkpt lat="43.0001483" lon="13.3502467"><ele>629.0</ele><time>2026-04-09T14:00:27.378Z</time></trkpt><trkpt lat="43.0001383" lon="13.350415"><ele>629.0</ele><time>2026-04-09T14:00:28.376Z</time></trkpt><trkpt lat="43.0001317" lon="13.3505817"><ele>629.0</ele><time>2026-04-09T14:00:29.375Z</time></trkpt><trkpt lat="43.0001133" lon="13.3507433"><ele>629.0</ele><time>2026-04-09T14:00:30.375Z</time></trkpt><trkpt lat="43.0000933" lon="13.35089"><ele>628.4</ele><time>2026-04-09T14:00:31.374Z</time></trkpt><trkpt lat="43.0000767" lon="13.3510267"><ele>627.8</ele><time>2026-04-09T14:00:32.375Z</time></trkpt><trkpt lat="43.00006" lon="13.3511667"><ele>627.2</ele><time>2026-04-09T14:00:33.375Z</time></trkpt><trkpt lat="43.000035" lon="13.351305"><ele>626.6</ele><time>2026-04-09T14:00:34.375Z</time></trkpt><trkpt lat="43.0000033" lon="13.3514217"><ele>626.0</ele><time>2026-04-09T14:00:35.375Z</time></trkpt><trkpt lat="42.99996" lon="13.3515333"><ele>624.8333333333333</ele><time>2026-04-09T14:00:36.376Z</time></trkpt><trkpt lat="42.9999117" lon="13.3516367"><ele>623.6666666666666</ele><time>2026-04-09T14:00:37.375Z</time></trkpt><trkpt lat="42.9998583" lon="13.3517317"><ele>622.5</ele><time>2026-04-09T14:00:38.376Z</time></trkpt><trkpt lat="42.999795" lon="13.351815"><ele>621.3333333333334</ele><time>2026-04-09T14:00:39.375Z</time></trkpt><trkpt lat="42.9997317" lon="13.351875"><ele>620.1666666666667</ele><time>2026-04-09T14:00:40.376Z</time></trkpt><trkpt lat="42.999665" lon="13.3519267"><ele>619.0</ele><time>2026-04-09T14:00:41.376Z</time></trkpt><trkpt lat="42.9995967" lon="13.35197"><ele>619.0</ele><time>2026-04-09T14:00:42.373Z</time></trkpt><trkpt lat="42.9995317" lon="13.35199"><ele>619.0</ele><time>2026-04-09T14:00:43.373Z</time></trkpt><trkpt lat="42.9994667" lon="13.3519833"><ele>619.0</ele><time>2026-04-09T14:00:44.373Z</time></trkpt><trkpt lat="42.9994033" lon="13.3519517"><ele>619.0</ele><time>2026-04-09T14:00:45.375Z</time></trkpt><trkpt lat="42.9993233" lon="13.3519083"><ele>619.0</ele><time>2026-04-09T14:00:46.376Z</time></trkpt><trkpt lat="42.9992367" lon="13.3518633"><ele>619.0</ele><time>2026-04-09T14:00:47.377Z</time></trkpt><trkpt lat="42.99916" lon="13.3518233"><ele>620.4</ele><time>2026-04-09T14:00:48.375Z</time></trkpt><trkpt lat="42.9990783" lon="13.3517883"><ele>621.8</ele><time>2026-04-09T14:00:49.374Z</time></trkpt><trkpt lat="42.998995" lon="13.35177"><ele>623.2</ele><time>2026-04-09T14:00:50.373Z</time></trkpt><trkpt lat="42.998895" lon="13.351775"><ele>624.6</ele><time>2026-04-09T14:00:51.376Z</time></trkpt><trkpt lat="42.9987933" lon="13.3517933"><ele>626.0</ele><time>2026-04-09T14:00:52.377Z</time></trkpt><trkpt lat="42.9986883" lon="13.3518"><ele>626.0</ele><time>2026-04-09T14:00:53.376Z</time></trkpt><trkpt lat="42.9985767" lon="13.3518017"><ele>626.0</ele><time>2026-04-09T14:00:54.374Z</time></trkpt><trkpt lat="42.998465" lon="13.351805"><ele>626.0</ele><time>2026-04-09T14:00:55.375Z</time></trkpt><trkpt lat="42.9983467" lon="13.3518117"><ele>626.0</ele><time>2026-04-09T14:00:56.375Z</time></trkpt><trkpt lat="42.9982183" lon="13.3518183"><ele>623.0</ele><time>2026-04-09T14:00:57.377Z</time></trkpt><trkpt lat="42.99809" lon="13.3518183"><ele>620.0</ele><time>2026-04-09T14:00:58.374Z</time></trkpt><trkpt lat="42.9979567" lon="13.35182"><ele>617.0</ele><time>2026-04-09T14:00:59.375Z</time></trkpt><trkpt lat="42.997825" lon="13.3518133"><ele>614.0</ele><time>2026-04-09T14:01:00.376Z</time></trkpt><trkpt lat="42.9977083" lon="13.3518133"><ele>614.0</ele><time>2026-04-09T14:01:01.374Z</time></trkpt><trkpt lat="42.9976083" lon="13.35181"><ele>614.0</ele><time>2026-04-09T14:01:02.375Z</time></trkpt><trkpt lat="42.9975183" lon="13.3518067"><ele>614.0</ele><time>2026-04-09T14:01:03.374Z</time></trkpt><trkpt lat="42.9974367" lon="13.3518133"><ele>614.0</ele><time>2026-04-09T14:01:04.375Z</time></trkpt><trkpt lat="42.9973667" lon="13.3518433"><ele>614.0</ele><time>2026-04-09T14:01:05.375Z</time></trkpt><trkpt lat="42.997315" lon="13.351895"><ele>614.0</ele><time>2026-04-09T14:01:06.374Z</time></trkpt><trkpt lat="42.9972667" lon="13.351975"><ele>614.2</ele><time>2026-04-09T14:01:07.375Z</time></trkpt><trkpt lat="42.99722" lon="13.3520583"><ele>614.4</ele><time>2026-04-09T14:01:08.374Z</time></trkpt><trkpt lat="42.997175" lon="13.3521733"><ele>614.6</ele><time>2026-04-09T14:01:09.375Z</time></trkpt><trkpt lat="42.9971183" lon="13.3523167"><ele>614.8</ele><time>2026-04-09T14:01:10.375Z</time></trkpt><trkpt lat="42.9970583" lon="13.3524567"><ele>615.0</ele><time>2026-04-09T14:01:11.377Z</time></trkpt><trkpt lat="42.9969983" lon="13.3526133"><ele>615.0</ele><time>2026-04-09T14:01:12.377Z</time></trkpt><trkpt lat="42.996935" lon="13.352765"><ele>615.0</ele><time>2026-04-09T14:01:13.375Z</time></trkpt><trkpt lat="42.9968717" lon="13.3529183"><ele>615.0</ele><time>2026-04-09T14:01:14.376Z</time></trkpt><trkpt lat="42.99681" lon="13.35307"><ele>615.0</ele><time>2026-04-09T14:01:15.376Z</time></trkpt><trkpt lat="42.9967467" lon="13.3532233"><ele>616.25</ele><time>2026-04-09T14:01:16.376Z</time></trkpt><trkpt lat="42.9966867" lon="13.3533733"><ele>617.5</ele><time>2026-04-09T14:01:17.374Z</time></trkpt><trkpt lat="42.9966333" lon="13.3535233"><ele>618.75</ele><time>2026-04-09T14:01:18.378Z</time></trkpt><trkpt lat="42.996585" lon="13.3536667"><ele>620.0</ele><time>2026-04-09T14:01:19.376Z</time></trkpt><trkpt lat="42.9965433" lon="13.3538133"><ele>619.5</ele><time>2026-04-09T14:01:20.377Z</time></trkpt><trkpt lat="42.9965083" lon="13.35397"><ele>619.0</ele><time>2026-04-09T14:01:21.374Z</time></trkpt><trkpt lat="42.9964767" lon="13.3541317"><ele>618.5</ele><time>2026-04-09T14:01:22.374Z</time></trkpt><trkpt lat="42.9964367" lon="13.3542967"><ele>618.0</ele><time>2026-04-09T14:01:23.374Z</time></trkpt><trkpt lat="42.9963867" lon="13.3544483"><ele>618.0</ele><time>2026-04-09T14:01:24.381Z</time></trkpt><trkpt lat="42.996325" lon="13.354595"><ele>618.0</ele><time>2026-04-09T14:01:25.376Z</time></trkpt><trkpt lat="42.9962633" lon="13.35472"><ele>618.0</ele><time>2026-04-09T14:01:26.377Z</time></trkpt><trkpt lat="42.996215" lon="13.3548317"><ele>618.0</ele><time>2026-04-09T14:01:27.377Z</time></trkpt><trkpt lat="42.99618" lon="13.3549467"><ele>618.0</ele><time>2026-04-09T14:01:28.374Z</time></trkpt><trkpt lat="42.99616" lon="13.3550767"><ele>616.5</ele><time>2026-04-09T14:01:29.376Z</time></trkpt><trkpt lat="42.9961533" lon="13.3552217"><ele>615.0</ele><time>2026-04-09T14:01:30.375Z</time></trkpt><trkpt lat="42.9961617" lon="13.3553783"><ele>613.5</ele><time>2026-04-09T14:01:31.375Z</time></trkpt><trkpt lat="42.9961767" lon="13.355545"><ele>612.0</ele><time>2026-04-09T14:01:32.374Z</time></trkpt><trkpt lat="42.9961883" lon="13.3557183"><ele>610.25</ele><time>2026-04-09T14:01:33.375Z</time></trkpt><trkpt lat="42.9961983" lon="13.3558983"><ele>608.5</ele><time>2026-04-09T14:01:34.376Z</time></trkpt><trkpt lat="42.9962083" lon="13.35608"><ele>606.75</ele><time>2026-04-09T14:01:35.375Z</time></trkpt><trkpt lat="42.99622" lon="13.3562633"><ele>605.0</ele><time>2026-04-09T14:01:36.375Z</time></trkpt><trkpt lat="42.9962367" lon="13.3564433"><ele>604.5</ele><time>2026-04-09T14:01:37.375Z</time></trkpt><trkpt lat="42.9962567" lon="13.35661"><ele>604.0</ele><time>2026-04-09T14:01:38.376Z</time></trkpt><trkpt lat="42.9962833" lon="13.3567667"><ele>603.5</ele><time>2026-04-09T14:01:39.375Z</time></trkpt><trkpt lat="42.9963233" lon="13.356915"><ele>603.0</ele><time>2026-04-09T14:01:40.375Z</time></trkpt><trkpt lat="42.99637" lon="13.3570683"><ele>603.75</ele><time>2026-04-09T14:01:41.376Z</time></trkpt><trkpt lat="42.996415" lon="13.3572233"><ele>604.5</ele><time>2026-04-09T14:01:42.374Z</time></trkpt><trkpt lat="42.996455" lon="13.35737"><ele>605.25</ele><time>2026-04-09T14:01:43.375Z</time></trkpt><trkpt lat="42.9965083" lon="13.3575167"><ele>606.0</ele><time>2026-04-09T14:01:44.376Z</time></trkpt><trkpt lat="42.9965667" lon="13.3576583"><ele>606.0</ele><time>2026-04-09T14:01:45.375Z</time></trkpt><trkpt lat="42.99664" lon="13.3577933"><ele>606.0</ele><time>2026-04-09T14:01:46.379Z</time></trkpt><trkpt lat="42.9967233" lon="13.3579267"><ele>606.0</ele><time>2026-04-09T14:01:47.377Z</time></trkpt><trkpt lat="42.9968117" lon="13.3580567"><ele>606.0</ele><time>2026-04-09T14:01:48.377Z</time></trkpt><trkpt lat="42.9969017" lon="13.3581867"><ele>603.75</ele><time>2026-04-09T14:01:49.377Z</time></trkpt><trkpt lat="42.996995" lon="13.3583183"><ele>601.5</ele><time>2026-04-09T14:01:50.375Z</time></trkpt><trkpt lat="42.99708" lon="13.35845"><ele>599.25</ele><time>2026-04-09T14:01:51.378Z</time></trkpt><trkpt lat="42.9971567" lon="13.3585767"><ele>597.0</ele><time>2026-04-09T14:01:52.377Z</time></trkpt><trkpt lat="42.9972267" lon="13.3586883"><ele>597.0</ele><time>2026-04-09T14:01:53.377Z</time></trkpt><trkpt lat="42.9972967" lon="13.358795"><ele>597.0</ele><time>2026-04-09T14:01:54.377Z</time></trkpt><trkpt lat="42.9973717" lon="13.3589033"><ele>597.0</ele><time>2026-04-09T14:01:55.376Z</time></trkpt><trkpt lat="42.9974333" lon="13.3590117"><ele>597.0</ele><time>2026-04-09T14:01:56.38Z</time></trkpt><trkpt lat="42.9974933" lon="13.3591283"><ele>597.0</ele><time>2026-04-09T14:01:57.377Z</time></trkpt><trkpt lat="42.9975483" lon="13.35924"><ele>595.3333333333334</ele><time>2026-04-09T14:01:58.374Z</time></trkpt><trkpt lat="42.9976" lon="13.3593433"><ele>593.6666666666666</ele><time>2026-04-09T14:01:59.377Z</time></trkpt><trkpt lat="42.9976517" lon="13.3594367"><ele>592.0</ele><time>2026-04-09T14:02:00.375Z</time></trkpt><trkpt lat="42.9977033" lon="13.3595233"><ele>590.3333333333333</ele><time>2026-04-09T14:02:01.376Z</time></trkpt><trkpt lat="42.9977483" lon="13.3596083"><ele>588.6666666666666</ele><time>2026-04-09T14:02:02.376Z</time></trkpt><trkpt lat="42.9977883" lon="13.3597033"><ele>587.0</ele><time>2026-04-09T14:02:03.376Z</time></trkpt><trkpt lat="42.9978167" lon="13.3598067"><ele>585.5</ele><time>2026-04-09T14:02:04.375Z</time></trkpt><trkpt lat="42.9978383" lon="13.3599183"><ele>584.0</ele><time>2026-04-09T14:02:05.375Z</time></trkpt><trkpt lat="42.9978567" lon="13.36003"><ele>582.5</ele><time>2026-04-09T14:02:06.376Z</time></trkpt><trkpt lat="42.997875" lon="13.3601317"><ele>581.0</ele><time>2026-04-09T14:02:07.375Z</time></trkpt><trkpt lat="42.9978867" lon="13.360225"><ele>579.5</ele><time>2026-04-09T14:02:08.375Z</time></trkpt><trkpt lat="42.9978833" lon="13.3603817"><ele>578.0</ele><time>2026-04-09T14:02:10.374Z</time></trkpt><trkpt lat="42.9978383" lon="13.3605233"><ele>575.6666666666666</ele><time>2026-04-09T14:02:12.377Z</time></trkpt><trkpt lat="42.997785" lon="13.3605983"><ele>573.3333333333333</ele><time>2026-04-09T14:02:13.378Z</time></trkpt><trkpt lat="42.9977283" lon="13.3606783"><ele>571.0</ele><time>2026-04-09T14:02:14.376Z</time></trkpt><trkpt lat="42.9976783" lon="13.3607583"><ele>568.6666666666666</ele><time>2026-04-09T14:02:15.377Z</time></trkpt><trkpt lat="42.9976483" lon="13.360835"><ele>566.3333333333334</ele><time>2026-04-09T14:02:16.376Z</time></trkpt><trkpt lat="42.9976433" lon="13.3610067"><ele>564.0</ele><time>2026-04-09T14:02:18.374Z</time></trkpt><trkpt lat="42.9976783" lon="13.3611717"><ele>564.0</ele><time>2026-04-09T14:02:20.378Z</time></trkpt><trkpt lat="42.99772" lon="13.3612417"><ele>564.0</ele><time>2026-04-09T14:02:21.377Z</time></trkpt><trkpt lat="42.9977767" lon="13.361295"><ele>564.0</ele><time>2026-04-09T14:02:22.377Z</time></trkpt><trkpt lat="42.997845" lon="13.3613267"><ele>564.0</ele><time>2026-04-09T14:02:23.377Z</time></trkpt><trkpt lat="42.9979233" lon="13.36134"><ele>564.0</ele><time>2026-04-09T14:02:24.375Z</time></trkpt><trkpt lat="42.998005" lon="13.36135"><ele>564.0</ele><time>2026-04-09T14:02:25.374Z</time></trkpt><trkpt lat="42.998085" lon="13.3613633"><ele>564.0</ele><time>2026-04-09T14:02:26.375Z</time></trkpt><trkpt lat="42.998165" lon="13.36138"><ele>560.4</ele><time>2026-04-09T14:02:27.376Z</time></trkpt><trkpt lat="42.9982517" lon="13.3613917"><ele>556.8</ele><time>2026-04-09T14:02:28.374Z</time></trkpt><trkpt lat="42.99834" lon="13.3613917"><ele>553.2</ele><time>2026-04-09T14:02:29.374Z</time></trkpt><trkpt lat="42.9984317" lon="13.3613783"><ele>549.6</ele><time>2026-04-09T14:02:30.375Z</time></trkpt><trkpt lat="42.998525" lon="13.3613583"><ele>546.0</ele><time>2026-04-09T14:02:31.375Z</time></trkpt><trkpt lat="42.9986117" lon="13.3613317"><ele>546.0</ele><time>2026-04-09T14:02:32.374Z</time></trkpt><trkpt lat="42.9986933" lon="13.3613017"><ele>546.0</ele><time>2026-04-09T14:02:33.375Z</time></trkpt><trkpt lat="42.99876" lon="13.3612783"><ele>546.0</ele><time>2026-04-09T14:02:34.375Z</time></trkpt><trkpt lat="42.998875" lon="13.36124"><ele>546.0</ele><time>2026-04-09T14:02:36.376Z</time></trkpt><trkpt lat="42.9989717" lon="13.3612667"><ele>546.0</ele><time>2026-04-09T14:02:38.375Z</time></trkpt><trkpt lat="42.999035" lon="13.3613933"><ele>545.2</ele><time>2026-04-09T14:02:40.375Z</time></trkpt><trkpt lat="42.9990667" lon="13.3614833"><ele>544.4000000000001</ele><time>2026-04-09T14:02:41.377Z</time></trkpt><trkpt lat="42.9990983" lon="13.361605"><ele>543.6</ele><time>2026-04-09T14:02:42.377Z</time></trkpt><trkpt lat="42.9991333" lon="13.36173"><ele>542.8000000000001</ele><time>2026-04-09T14:02:43.377Z</time></trkpt><trkpt lat="42.999175" lon="13.3618567"><ele>542.0</ele><time>2026-04-09T14:02:44.377Z</time></trkpt><trkpt lat="42.999215" lon="13.3619817"><ele>539.6666666666666</ele><time>2026-04-09T14:02:45.38Z</time></trkpt><trkpt lat="42.99925" lon="13.3621"><ele>537.3333333333333</ele><time>2026-04-09T14:02:46.378Z</time></trkpt><trkpt lat="42.9992833" lon="13.3622033"><ele>535.0</ele><time>2026-04-09T14:02:47.374Z</time></trkpt><trkpt lat="42.99931" lon="13.362295"><ele>532.6666666666666</ele><time>2026-04-09T14:02:48.376Z</time></trkpt><trkpt lat="42.9993417" lon="13.362375"><ele>530.3333333333334</ele><time>2026-04-09T14:02:49.377Z</time></trkpt><trkpt lat="42.9994283" lon="13.3624933"><ele>528.0</ele><time>2026-04-09T14:02:51.377Z</time></trkpt><trkpt lat="42.9995483" lon="13.362565"><ele>528.0</ele><time>2026-04-09T14:02:53.378Z</time></trkpt><trkpt lat="42.999625" lon="13.36259"><ele>528.0</ele><time>2026-04-09T14:02:54.375Z</time></trkpt><trkpt lat="42.9997117" lon="13.362605"><ele>528.0</ele><time>2026-04-09T14:02:55.375Z</time></trkpt><trkpt lat="42.9998017" lon="13.3626217"><ele>528.0</ele><time>2026-04-09T14:02:56.376Z</time></trkpt><trkpt lat="42.999895" lon="13.362635"><ele>528.0</ele><time>2026-04-09T14:02:57.373Z</time></trkpt><trkpt lat="42.999995" lon="13.36265"><ele>528.0</ele><time>2026-04-09T14:02:58.374Z</time></trkpt><trkpt lat="43.00009" lon="13.3626717"><ele>528.0</ele><time>2026-04-09T14:02:59.375Z</time></trkpt><trkpt lat="43.0001867" lon="13.3626917"><ele>528.0</ele><time>2026-04-09T14:03:00.375Z</time></trkpt><trkpt lat="43.000295" lon="13.362705"><ele>528.0</ele><time>2026-04-09T14:03:01.374Z</time></trkpt><trkpt lat="43.0004033" lon="13.3627167"><ele>528.0</ele><time>2026-04-09T14:03:02.377Z</time></trkpt><trkpt lat="43.0005117" lon="13.3627333"><ele>528.0</ele><time>2026-04-09T14:03:03.374Z</time></trkpt><trkpt lat="43.0006167" lon="13.362755"><ele>528.0</ele><time>2026-04-09T14:03:04.375Z</time></trkpt><trkpt lat="43.000715" lon="13.362785"><ele>528.0</ele><time>2026-04-09T14:03:05.374Z</time></trkpt><trkpt lat="43.000805" lon="13.3628333"><ele>528.0</ele><time>2026-04-09T14:03:06.375Z</time></trkpt><trkpt lat="43.0008833" lon="13.362905"><ele>528.0</ele><time>2026-04-09T14:03:07.375Z</time></trkpt><trkpt lat="43.0009517" lon="13.3629983"><ele>525.0</ele><time>2026-04-09T14:03:08.375Z</time></trkpt><trkpt lat="43.0010083" lon="13.3631017"><ele>522.0</ele><time>2026-04-09T14:03:09.375Z</time></trkpt><trkpt lat="43.0010617" lon="13.3632017"><ele>519.0</ele><time>2026-04-09T14:03:10.375Z</time></trkpt><trkpt lat="43.001115" lon="13.3633033"><ele>516.0</ele><time>2026-04-09T14:03:11.376Z</time></trkpt><trkpt lat="43.00117" lon="13.3634183"><ele>513.0</ele><time>2026-04-09T14:03:12.378Z</time></trkpt><trkpt lat="43.00123" lon="13.363535"><ele>513.0</ele><time>2026-04-09T14:03:13.374Z</time></trkpt><trkpt lat="43.001275" lon="13.3636517"><ele>513.0</ele><time>2026-04-09T14:03:14.375Z</time></trkpt><trkpt lat="43.0013183" lon="13.3637633"><ele>513.0</ele><time>2026-04-09T14:03:15.375Z</time></trkpt><trkpt lat="43.0013667" lon="13.36388"><ele>513.0</ele><time>2026-04-09T14:03:16.374Z</time></trkpt><trkpt lat="43.0014117" lon="13.3640017"><ele>513.0</ele><time>2026-04-09T14:03:17.377Z</time></trkpt><trkpt lat="43.0014583" lon="13.3641267"><ele>512.1999999999999</ele><time>2026-04-09T14:03:18.374Z</time></trkpt><trkpt lat="43.0014983" lon="13.364255"><ele>511.4</ele><time>2026-04-09T14:03:19.374Z</time></trkpt><trkpt lat="43.0015283" lon="13.3643817"><ele>510.59999999999997</ele><time>2026-04-09T14:03:20.374Z</time></trkpt><trkpt lat="43.001545" lon="13.3645033"><ele>509.79999999999995</ele><time>2026-04-09T14:03:21.375Z</time></trkpt><trkpt lat="43.0015517" lon="13.3646183"><ele>509.0</ele><time>2026-04-09T14:03:22.374Z</time></trkpt><trkpt lat="43.0015617" lon="13.3647217"><ele>506.66666666666663</ele><time>2026-04-09T14:03:23.375Z</time></trkpt><trkpt lat="43.0015733" lon="13.3648117"><ele>504.3333333333333</ele><time>2026-04-09T14:03:24.374Z</time></trkpt><trkpt lat="43.0016033" lon="13.3648983"><ele>502.0</ele><time>2026-04-09T14:03:25.375Z</time></trkpt><trkpt lat="43.0016483" lon="13.3649817"><ele>499.66666666666663</ele><time>2026-04-09T14:03:26.374Z</time></trkpt><trkpt lat="43.0017117" lon="13.36506"><ele>497.3333333333333</ele><time>2026-04-09T14:03:27.375Z</time></trkpt><trkpt lat="43.0017983" lon="13.3651417"><ele>495.0</ele><time>2026-04-09T14:03:28.375Z</time></trkpt><trkpt lat="43.0018967" lon="13.3652183"><ele>493.4</ele><time>2026-04-09T14:03:29.375Z</time></trkpt><trkpt lat="43.001995" lon="13.3652833"><ele>491.8</ele><time>2026-04-09T14:03:30.375Z</time></trkpt><trkpt lat="43.0020783" lon="13.3653517"><ele>490.20000000000005</ele><time>2026-04-09T14:03:31.374Z</time></trkpt><trkpt lat="43.0021617" lon="13.3654217"><ele>488.6</ele><time>2026-04-09T14:03:32.375Z</time></trkpt><trkpt lat="43.0022333" lon="13.365485"><ele>487.0</ele><time>2026-04-09T14:03:33.376Z</time></trkpt><trkpt lat="43.00231" lon="13.3655483"><ele>485.1666666666667</ele><time>2026-04-09T14:03:34.376Z</time></trkpt><trkpt lat="43.0023817" lon="13.365615"><ele>483.33333333333337</ele><time>2026-04-09T14:03:35.374Z</time></trkpt><trkpt lat="43.0024533" lon="13.3656833"><ele>481.5</ele><time>2026-04-09T14:03:36.376Z</time></trkpt><trkpt lat="43.00252" lon="13.365755"><ele>479.66666666666663</ele><time>2026-04-09T14:03:37.375Z</time></trkpt><trkpt lat="43.002575" lon="13.36583"><ele>477.8333333333333</ele><time>2026-04-09T14:03:38.374Z</time></trkpt><trkpt lat="43.0026167" lon="13.3659067"><ele>476.0</ele><time>2026-04-09T14:03:39.376Z</time></trkpt><trkpt lat="43.0026417" lon="13.3659983"><ele>474.8333333333333</ele><time>2026-04-09T14:03:40.374Z</time></trkpt><trkpt lat="43.0026517" lon="13.3661017"><ele>473.66666666666663</ele><time>2026-04-09T14:03:41.375Z</time></trkpt><trkpt lat="43.0026583" lon="13.366225"><ele>472.5</ele><time>2026-04-09T14:03:42.377Z</time></trkpt><trkpt lat="43.0026583" lon="13.366355"><ele>471.33333333333337</ele><time>2026-04-09T14:03:43.378Z</time></trkpt><trkpt lat="43.0026633" lon="13.36647"><ele>470.1666666666667</ele><time>2026-04-09T14:03:44.376Z</time></trkpt><trkpt lat="43.0026717" lon="13.3665767"><ele>469.0</ele><time>2026-04-09T14:03:45.377Z</time></trkpt><trkpt lat="43.0026783" lon="13.3666783"><ele>467.79999999999995</ele><time>2026-04-09T14:03:46.378Z</time></trkpt><trkpt lat="43.00268" lon="13.3667767"><ele>466.59999999999997</ele><time>2026-04-09T14:03:47.378Z</time></trkpt><trkpt lat="43.0026367" lon="13.366925"><ele>465.4</ele><time>2026-04-09T14:03:49.374Z</time></trkpt><trkpt lat="43.0025217" lon="13.3670117"><ele>464.2</ele><time>2026-04-09T14:03:51.374Z</time></trkpt><trkpt lat="43.0024333" lon="13.3670167"><ele>463.0</ele><time>2026-04-09T14:03:52.374Z</time></trkpt><trkpt lat="43.0023517" lon="13.36702"><ele>463.00000000000006</ele><time>2026-04-09T14:03:53.374Z</time></trkpt><trkpt lat="43.0022633" lon="13.3670233"><ele>463.0</ele><time>2026-04-09T14:03:54.375Z</time></trkpt><trkpt lat="43.0021817" lon="13.3670417"><ele>463.0</ele><time>2026-04-09T14:03:55.376Z</time></trkpt><trkpt lat="43.0021033" lon="13.36708"><ele>463.0</ele><time>2026-04-09T14:03:56.374Z</time></trkpt><trkpt lat="43.0020217" lon="13.3671383"><ele>463.00000000000006</ele><time>2026-04-09T14:03:57.373Z</time></trkpt><trkpt lat="43.0019367" lon="13.3672083"><ele>463.0</ele><time>2026-04-09T14:03:58.374Z</time></trkpt><trkpt lat="43.00184" lon="13.36728"><ele>460.79999999999995</ele><time>2026-04-09T14:03:59.374Z</time></trkpt><trkpt lat="43.001745" lon="13.3673417"><ele>458.59999999999997</ele><time>2026-04-09T14:04:00.378Z</time></trkpt><trkpt lat="43.0016417" lon="13.3673917"><ele>456.40000000000003</ele><time>2026-04-09T14:04:01.378Z</time></trkpt><trkpt lat="43.0015317" lon="13.3674417"><ele>454.20000000000005</ele><time>2026-04-09T14:04:02.382Z</time></trkpt><trkpt lat="43.001425" lon="13.3674967"><ele>452.0</ele><time>2026-04-09T14:04:03.376Z</time></trkpt><trkpt lat="43.0013183" lon="13.3675683"><ele>452.0</ele><time>2026-04-09T14:04:04.375Z</time></trkpt><trkpt lat="43.00122" lon="13.367645"><ele>452.00000000000006</ele><time>2026-04-09T14:04:05.376Z</time></trkpt><trkpt lat="43.0011333" lon="13.3677167"><ele>452.00000000000006</ele><time>2026-04-09T14:04:06.376Z</time></trkpt><trkpt lat="43.0010517" lon="13.36778"><ele>452.0</ele><time>2026-04-09T14:04:07.374Z</time></trkpt><trkpt lat="43.0009767" lon="13.3678367"><ele>452.0</ele><time>2026-04-09T14:04:08.377Z</time></trkpt><trkpt lat="43.0009233" lon="13.3678833"><ele>452.0</ele><time>2026-04-09T14:04:09.376Z</time></trkpt><trkpt lat="43.0008433" lon="13.36799"><ele>452.00000000000006</ele><time>2026-04-09T14:04:11.376Z</time></trkpt><trkpt lat="43.0007883" lon="13.36811"><ele>452.00000000000006</ele><time>2026-04-09T14:04:13.376Z</time></trkpt><trkpt lat="43.0007683" lon="13.3682417"><ele>452.0</ele><time>2026-04-09T14:04:15.375Z</time></trkpt><trkpt lat="43.0007967" lon="13.3684033"><ele>452.0</ele><time>2026-04-09T14:04:17.377Z</time></trkpt><trkpt lat="43.00083" lon="13.3684967"><ele>450.0</ele><time>2026-04-09T14:04:18.375Z</time></trkpt><trkpt lat="43.000875" lon="13.368615"><ele>448.00000000000006</ele><time>2026-04-09T14:04:19.376Z</time></trkpt><trkpt lat="43.000925" lon="13.3687267"><ele>446.00000000000006</ele><time>2026-04-09T14:04:20.375Z</time></trkpt><trkpt lat="43.0009733" lon="13.3688417"><ele>444.0</ele><time>2026-04-09T14:04:21.376Z</time></trkpt><trkpt lat="43.0010167" lon="13.3689633"><ele>442.0</ele><time>2026-04-09T14:04:22.377Z</time></trkpt><trkpt lat="43.0010517" lon="13.3690783"><ele>440.33333333333337</ele><time>2026-04-09T14:04:23.378Z</time></trkpt><trkpt lat="43.001075" lon="13.3692117"><ele>438.6666666666667</ele><time>2026-04-09T14:04:24.377Z</time></trkpt><trkpt lat="43.00109" lon="13.36934"><ele>437.0</ele><time>2026-04-09T14:04:25.375Z</time></trkpt><trkpt lat="43.0011" lon="13.36946"><ele>435.33333333333337</ele><time>2026-04-09T14:04:26.376Z</time></trkpt><trkpt lat="43.0011017" lon="13.3695683"><ele>433.6666666666667</ele><time>2026-04-09T14:04:27.377Z</time></trkpt><trkpt lat="43.0010967" lon="13.3696667"><ele>432.0</ele><time>2026-04-09T14:04:28.377Z</time></trkpt><trkpt lat="43.001075" lon="13.3697567"><ele>430.0</ele><time>2026-04-09T14:04:29.377Z</time></trkpt><trkpt lat="43.0010283" lon="13.369825"><ele>428.00000000000006</ele><time>2026-04-09T14:04:30.376Z</time></trkpt><trkpt lat="43.0009583" lon="13.36989"><ele>426.0</ele><time>2026-04-09T14:04:31.378Z</time></trkpt><trkpt lat="43.0008783" lon="13.3699583"><ele>424.0</ele><time>2026-04-09T14:04:32.377Z</time></trkpt><trkpt lat="43.0007933" lon="13.370025"><ele>422.0</ele><time>2026-04-09T14:04:33.378Z</time></trkpt><trkpt lat="43.0006967" lon="13.37008"><ele>421.66666666666663</ele><time>2026-04-09T14:04:34.376Z</time></trkpt><trkpt lat="43.0006" lon="13.37013"><ele>421.3333333333333</ele><time>2026-04-09T14:04:35.378Z</time></trkpt><trkpt lat="43.0005083" lon="13.3701667"><ele>421.0</ele><time>2026-04-09T14:04:36.375Z</time></trkpt><trkpt lat="43.0004233" lon="13.370205"><ele>420.66666666666663</ele><time>2026-04-09T14:04:37.376Z</time></trkpt><trkpt lat="43.000355" lon="13.3702533"><ele>420.3333333333333</ele><time>2026-04-09T14:04:38.375Z</time></trkpt><trkpt lat="43.000295" lon="13.37031"><ele>420.0</ele><time>2026-04-09T14:04:39.375Z</time></trkpt><trkpt lat="43.0002083" lon="13.3704117"><ele>420.0</ele><time>2026-04-09T14:04:41.376Z</time></trkpt><trkpt lat="43.0001583" lon="13.370495"><ele>420.0</ele><time>2026-04-09T14:04:43.378Z</time></trkpt><trkpt lat="43.0001633" lon="13.3706033"><ele>420.0</ele><time>2026-04-09T14:04:45.377Z</time></trkpt><trkpt lat="43.0002233" lon="13.370755"><ele>420.0</ele><time>2026-04-09T14:04:47.374Z</time></trkpt><trkpt lat="43.0002683" lon="13.3708333"><ele>420.0</ele><time>2026-04-09T14:04:48.374Z</time></trkpt><trkpt lat="43.0003217" lon="13.3709233"><ele>420.0</ele><time>2026-04-09T14:04:49.376Z</time></trkpt><trkpt lat="43.00038" lon="13.3710033"><ele>417.3333333333333</ele><time>2026-04-09T14:04:50.375Z</time></trkpt><trkpt lat="43.000445" lon="13.3710717"><ele>414.66666666666663</ele><time>2026-04-09T14:04:51.375Z</time></trkpt><trkpt lat="43.000525" lon="13.371135"><ele>412.0</ele><time>2026-04-09T14:04:52.375Z</time></trkpt><trkpt lat="43.0006033" lon="13.3712"><ele>409.3333333333333</ele><time>2026-04-09T14:04:53.375Z</time></trkpt><trkpt lat="43.0006783" lon="13.3712683"><ele>406.66666666666663</ele><time>2026-04-09T14:04:54.375Z</time></trkpt><trkpt lat="43.00075" lon="13.3713367"><ele>404.0</ele><time>2026-04-09T14:04:55.375Z</time></trkpt><trkpt lat="43.0008167" lon="13.371395"><ele>402.8333333333333</ele><time>2026-04-09T14:04:56.374Z</time></trkpt><trkpt lat="43.00088" lon="13.3714633"><ele>401.66666666666663</ele><time>2026-04-09T14:04:57.375Z</time></trkpt><trkpt lat="43.0009317" lon="13.3715483"><ele>400.5</ele><time>2026-04-09T14:04:58.375Z</time></trkpt><trkpt lat="43.00097" lon="13.37165"><ele>399.33333333333337</ele><time>2026-04-09T14:04:59.376Z</time></trkpt><trkpt lat="43.0009917" lon="13.37177"><ele>398.1666666666667</ele><time>2026-04-09T14:05:00.374Z</time></trkpt><trkpt lat="43.0010233" lon="13.3718867"><ele>397.0</ele><time>2026-04-09T14:05:01.374Z</time></trkpt><trkpt lat="43.0010733" lon="13.372"><ele>397.00000000000006</ele><time>2026-04-09T14:05:02.376Z</time></trkpt><trkpt lat="43.0011333" lon="13.3720867"><ele>397.0</ele><time>2026-04-09T14:05:03.375Z</time></trkpt><trkpt lat="43.0012083" lon="13.3721583"><ele>397.0</ele><time>2026-04-09T14:05:04.375Z</time></trkpt><trkpt lat="43.0012883" lon="13.3722017"><ele>397.0</ele><time>2026-04-09T14:05:05.375Z</time></trkpt><trkpt lat="43.0013683" lon="13.372215"><ele>397.00000000000006</ele><time>2026-04-09T14:05:06.375Z</time></trkpt><trkpt lat="43.0014517" lon="13.372205"><ele>397.0</ele><time>2026-04-09T14:05:07.375Z</time></trkpt><trkpt lat="43.0015383" lon="13.3721783"><ele>397.0</ele><time>2026-04-09T14:05:08.374Z</time></trkpt><trkpt lat="43.0016333" lon="13.3721433"><ele>397.0</ele><time>2026-04-09T14:05:09.374Z</time></trkpt><trkpt lat="43.001735" lon="13.3721083"><ele>397.0</ele><time>2026-04-09T14:05:10.375Z</time></trkpt><trkpt lat="43.0018367" lon="13.372075"><ele>397.0</ele><time>2026-04-09T14:05:11.375Z</time></trkpt><trkpt lat="43.0019533" lon="13.3720333"><ele>397.0</ele><time>2026-04-09T14:05:12.375Z</time></trkpt><trkpt lat="43.0020767" lon="13.37198"><ele>398.0</ele><time>2026-04-09T14:05:13.375Z</time></trkpt><trkpt lat="43.002205" lon="13.3719267"><ele>399.0</ele><time>2026-04-09T14:05:14.376Z</time></trkpt><trkpt lat="43.002345" lon="13.3718717"><ele>400.0</ele><time>2026-04-09T14:05:15.378Z</time></trkpt><trkpt lat="43.0024783" lon="13.371835"><ele>401.0</ele><time>2026-04-09T14:05:16.379Z</time></trkpt><trkpt lat="43.00261" lon="13.3717983"><ele>401.0</ele><time>2026-04-09T14:05:17.375Z</time></trkpt><trkpt lat="43.002735" lon="13.3717583"><ele>401.0</ele><time>2026-04-09T14:05:18.376Z</time></trkpt><trkpt lat="43.0028567" lon="13.3717233"><ele>401.0</ele><time>2026-04-09T14:05:19.376Z</time></trkpt><trkpt lat="43.0029717" lon="13.371695"><ele>401.0</ele><time>2026-04-09T14:05:20.376Z</time></trkpt><trkpt lat="43.0030917" lon="13.37166"><ele>401.0</ele><time>2026-04-09T14:05:21.377Z</time></trkpt><trkpt lat="43.0032167" lon="13.3716167"><ele>401.0</ele><time>2026-04-09T14:05:22.376Z</time></trkpt><trkpt lat="43.0033333" lon="13.3715667"><ele>401.0</ele><time>2026-04-09T14:05:23.375Z</time></trkpt><trkpt lat="43.00344" lon="13.3715267"><ele>401.0</ele><time>2026-04-09T14:05:24.375Z</time></trkpt><trkpt lat="43.0035417" lon="13.3715083"><ele>401.4</ele><time>2026-04-09T14:05:25.377Z</time></trkpt><trkpt lat="43.0036367" lon="13.3715067"><ele>401.8</ele><time>2026-04-09T14:05:26.377Z</time></trkpt><trkpt lat="43.0037283" lon="13.371515"><ele>402.2</ele><time>2026-04-09T14:05:27.375Z</time></trkpt><trkpt lat="43.0038217" lon="13.3715317"><ele>402.59999999999997</ele><time>2026-04-09T14:05:28.376Z</time></trkpt><trkpt lat="43.0039217" lon="13.371535"><ele>403.0</ele><time>2026-04-09T14:05:29.375Z</time></trkpt><trkpt lat="43.0040217" lon="13.3715167"><ele>403.0</ele><time>2026-04-09T14:05:30.378Z</time></trkpt><trkpt lat="43.0041167" lon="13.3714783"><ele>403.0</ele><time>2026-04-09T14:05:31.377Z</time></trkpt><trkpt lat="43.0042083" lon="13.3714333"><ele>403.0</ele><time>2026-04-09T14:05:32.378Z</time></trkpt><trkpt lat="43.0042917" lon="13.3713917"><ele>403.0</ele><time>2026-04-09T14:05:33.377Z</time></trkpt><trkpt lat="43.004375" lon="13.3713567"><ele>403.0</ele><time>2026-04-09T14:05:34.377Z</time></trkpt><trkpt lat="43.0044617" lon="13.3713233"><ele>405.1666666666667</ele><time>2026-04-09T14:05:35.376Z</time></trkpt><trkpt lat="43.0045483" lon="13.3712933"><ele>407.33333333333337</ele><time>2026-04-09T14:05:36.376Z</time></trkpt><trkpt lat="43.0046283" lon="13.3712767"><ele>409.5</ele><time>2026-04-09T14:05:37.374Z</time></trkpt><trkpt lat="43.00471" lon="13.371275"><ele>411.66666666666663</ele><time>2026-04-09T14:05:38.377Z</time></trkpt><trkpt lat="43.0047933" lon="13.37129"><ele>413.8333333333333</ele><time>2026-04-09T14:05:39.375Z</time></trkpt><trkpt lat="43.0048783" lon="13.371315"><ele>416.0</ele><time>2026-04-09T14:05:40.376Z</time></trkpt><trkpt lat="43.00497" lon="13.3713467"><ele>414.0</ele><time>2026-04-09T14:05:41.378Z</time></trkpt><trkpt lat="43.0050683" lon="13.3713767"><ele>412.0</ele><time>2026-04-09T14:05:42.376Z</time></trkpt><trkpt lat="43.0051633" lon="13.371395"><ele>410.0</ele><time>2026-04-09T14:05:43.376Z</time></trkpt><trkpt lat="43.0052567" lon="13.37141"><ele>408.0</ele><time>2026-04-09T14:05:44.376Z</time></trkpt><trkpt lat="43.00534" lon="13.3714283"><ele>406.0</ele><time>2026-04-09T14:05:45.378Z</time></trkpt><trkpt lat="43.0054183" lon="13.3714433"><ele>406.00000000000006</ele><time>2026-04-09T14:05:46.378Z</time></trkpt><trkpt lat="43.0054917" lon="13.3714717"><ele>406.0</ele><time>2026-04-09T14:05:47.374Z</time></trkpt><trkpt lat="43.0055617" lon="13.371515"><ele>406.0</ele><time>2026-04-09T14:05:48.376Z</time></trkpt><trkpt lat="43.0056217" lon="13.37158"><ele>406.0</ele><time>2026-04-09T14:05:49.376Z</time></trkpt><trkpt lat="43.0056633" lon="13.3716783"><ele>406.00000000000006</ele><time>2026-04-09T14:05:50.375Z</time></trkpt><trkpt lat="43.0056817" lon="13.3718033"><ele>406.0</ele><time>2026-04-09T14:05:51.375Z</time></trkpt><trkpt lat="43.005695" lon="13.3719467"><ele>406.0</ele><time>2026-04-09T14:05:52.378Z</time></trkpt><trkpt lat="43.0057117" lon="13.372095"><ele>406.0</ele><time>2026-04-09T14:05:53.378Z</time></trkpt><trkpt lat="43.005725" lon="13.372255"><ele>406.0</ele><time>2026-04-09T14:05:54.377Z</time></trkpt><trkpt lat="43.00574" lon="13.3724183"><ele>406.0</ele><time>2026-04-09T14:05:55.378Z</time></trkpt><trkpt lat="43.00576" lon="13.3725883"><ele>405.0</ele><time>2026-04-09T14:05:56.374Z</time></trkpt><trkpt lat="43.0057883" lon="13.3727583"><ele>404.0</ele><time>2026-04-09T14:05:57.378Z</time></trkpt><trkpt lat="43.005815" lon="13.372925"><ele>403.0</ele><time>2026-04-09T14:05:58.378Z</time></trkpt><trkpt lat="43.0058417" lon="13.373085"><ele>402.0</ele><time>2026-04-09T14:05:59.377Z</time></trkpt><trkpt lat="43.005865" lon="13.3732333"><ele>401.0</ele><time>2026-04-09T14:06:00.378Z</time></trkpt><trkpt lat="43.0058817" lon="13.3733783"><ele>400.0</ele><time>2026-04-09T14:06:01.374Z</time></trkpt><trkpt lat="43.0058933" lon="13.373525"><ele>399.0</ele><time>2026-04-09T14:06:02.375Z</time></trkpt><trkpt lat="43.0058933" lon="13.3736817"><ele>398.0</ele><time>2026-04-09T14:06:03.378Z</time></trkpt><trkpt lat="43.0059" lon="13.3738417"><ele>397.0</ele><time>2026-04-09T14:06:04.375Z</time></trkpt><trkpt lat="43.0059067" lon="13.373995"><ele>395.5</ele><time>2026-04-09T14:06:05.378Z</time></trkpt><trkpt lat="43.0059183" lon="13.3741533"><ele>394.0</ele><time>2026-04-09T14:06:06.377Z</time></trkpt><trkpt lat="43.0059367" lon="13.3743083"><ele>392.5</ele><time>2026-04-09T14:06:07.377Z</time></trkpt><trkpt lat="43.005965" lon="13.3744583"><ele>391.0</ele><time>2026-04-09T14:06:08.377Z</time></trkpt><trkpt lat="43.0060017" lon="13.3745933"><ele>390.00000000000006</ele><time>2026-04-09T14:06:09.376Z</time></trkpt><trkpt lat="43.0060417" lon="13.37472"><ele>389.0</ele><time>2026-04-09T14:06:10.379Z</time></trkpt><trkpt lat="43.0060817" lon="13.3748383"><ele>388.0</ele><time>2026-04-09T14:06:11.378Z</time></trkpt><trkpt lat="43.0061183" lon="13.3749483"><ele>387.0</ele><time>2026-04-09T14:06:12.379Z</time></trkpt><trkpt lat="43.0061583" lon="13.375045"><ele>386.00000000000006</ele><time>2026-04-09T14:06:13.379Z</time></trkpt><trkpt lat="43.0062067" lon="13.3751333"><ele>385.0</ele><time>2026-04-09T14:06:14.375Z</time></trkpt><trkpt lat="43.006265" lon="13.3752167"><ele>385.00000000000006</ele><time>2026-04-09T14:06:15.381Z</time></trkpt><trkpt lat="43.00633" lon="13.3752867"><ele>385.0</ele><time>2026-04-09T14:06:16.377Z</time></trkpt><trkpt lat="43.0063983" lon="13.3753467"><ele>385.0</ele><time>2026-04-09T14:06:17.377Z</time></trkpt><trkpt lat="43.0064617" lon="13.3754083"><ele>385.0</ele><time>2026-04-09T14:06:18.377Z</time></trkpt><trkpt lat="43.0065183" lon="13.37548"><ele>385.00000000000006</ele><time>2026-04-09T14:06:19.376Z</time></trkpt><trkpt lat="43.006555" lon="13.3755583"><ele>385.0</ele><time>2026-04-09T14:06:20.378Z</time></trkpt><trkpt lat="43.00657" lon="13.3756517"><ele>383.1666666666667</ele><time>2026-04-09T14:06:21.375Z</time></trkpt><trkpt lat="43.00657" lon="13.375765"><ele>381.33333333333337</ele><time>2026-04-09T14:06:22.375Z</time></trkpt><trkpt lat="43.00658" lon="13.3758817"><ele>379.5</ele><time>2026-04-09T14:06:23.378Z</time></trkpt><trkpt lat="43.0066017" lon="13.375995"><ele>377.6666666666667</ele><time>2026-04-09T14:06:24.375Z</time></trkpt><trkpt lat="43.0066233" lon="13.3761067"><ele>375.83333333333337</ele><time>2026-04-09T14:06:25.375Z</time></trkpt><trkpt lat="43.0066533" lon="13.3762217"><ele>374.0</ele><time>2026-04-09T14:06:26.377Z</time></trkpt><trkpt lat="43.0066983" lon="13.3763233"><ele>372.0</ele><time>2026-04-09T14:06:27.376Z</time></trkpt><trkpt lat="43.0067417" lon="13.376415"><ele>370.0</ele><time>2026-04-09T14:06:28.376Z</time></trkpt><trkpt lat="43.0067783" lon="13.3765033"><ele>368.0</ele><time>2026-04-09T14:06:29.375Z</time></trkpt><trkpt lat="43.0068133" lon="13.3765883"><ele>366.0</ele><time>2026-04-09T14:06:30.377Z</time></trkpt><trkpt lat="43.0068467" lon="13.3767517"><ele>364.0</ele><time>2026-04-09T14:06:32.374Z</time></trkpt><trkpt lat="43.0067933" lon="13.3769083"><ele>364.0</ele><time>2026-04-09T14:06:34.375Z</time></trkpt><trkpt lat="43.0067183" lon="13.3770283"><ele>364.0</ele><time>2026-04-09T14:06:35.375Z</time></trkpt><trkpt lat="43.0066317" lon="13.3771467"><ele>364.0</ele><time>2026-04-09T14:06:36.374Z</time></trkpt><trkpt lat="43.0065633" lon="13.3772583"><ele>364.0</ele><time>2026-04-09T14:06:37.377Z</time></trkpt><trkpt lat="43.00652" lon="13.3773667"><ele>364.0</ele><time>2026-04-09T14:06:38.377Z</time></trkpt><trkpt lat="43.0065033" lon="13.3774733"><ele>362.6</ele><time>2026-04-09T14:06:39.372Z</time></trkpt><trkpt lat="43.0065083" lon="13.3775683"><ele>361.2</ele><time>2026-04-09T14:06:40.378Z</time></trkpt><trkpt lat="43.0065283" lon="13.3776767"><ele>359.8</ele><time>2026-04-09T14:06:41.375Z</time></trkpt><trkpt lat="43.0065817" lon="13.37778"><ele>358.40000000000003</ele><time>2026-04-09T14:06:42.375Z</time></trkpt><trkpt lat="43.0066683" lon="13.3778883"><ele>357.0</ele><time>2026-04-09T14:06:43.377Z</time></trkpt><trkpt lat="43.0067483" lon="13.3780067"><ele>356.6</ele><time>2026-04-09T14:06:44.377Z</time></trkpt><trkpt lat="43.00682" lon="13.37813"><ele>356.20000000000005</ele><time>2026-04-09T14:06:45.378Z</time></trkpt><trkpt lat="43.0068883" lon="13.3782517"><ele>355.8</ele><time>2026-04-09T14:06:46.377Z</time></trkpt><trkpt lat="43.0069567" lon="13.3783683"><ele>355.4</ele><time>2026-04-09T14:06:47.375Z</time></trkpt><trkpt lat="43.0070167" lon="13.37847"><ele>355.0</ele><time>2026-04-09T14:06:48.374Z</time></trkpt><trkpt lat="43.0070683" lon="13.3785633"><ele>355.0</ele><time>2026-04-09T14:06:49.376Z</time></trkpt><trkpt lat="43.00711" lon="13.3786467"><ele>355.0</ele><time>2026-04-09T14:06:50.378Z</time></trkpt><trkpt lat="43.0071667" lon="13.3787833"><ele>355.0</ele><time>2026-04-09T14:06:52.374Z</time></trkpt><trkpt lat="43.0072017" lon="13.37891"><ele>355.0</ele><time>2026-04-09T14:06:54.374Z</time></trkpt><trkpt lat="43.00724" lon="13.37903"><ele>355.0</ele><time>2026-04-09T14:06:56.378Z</time></trkpt><trkpt lat="43.0072717" lon="13.379105"><ele>355.0</ele><time>2026-04-09T14:06:57.376Z</time></trkpt><trkpt lat="43.0073217" lon="13.37919"><ele>354.8</ele><time>2026-04-09T14:06:58.376Z</time></trkpt><trkpt lat="43.0073783" lon="13.379285"><ele>354.6</ele><time>2026-04-09T14:06:59.376Z</time></trkpt><trkpt lat="43.007435" lon="13.37939"><ele>354.4</ele><time>2026-04-09T14:07:00.374Z</time></trkpt><trkpt lat="43.0074983" lon="13.379505"><ele>354.2</ele><time>2026-04-09T14:07:01.373Z</time></trkpt><trkpt lat="43.0075717" lon="13.379625"><ele>354.0</ele><time>2026-04-09T14:07:02.374Z</time></trkpt><trkpt lat="43.0076517" lon="13.37975"><ele>354.0</ele><time>2026-04-09T14:07:03.374Z</time></trkpt><trkpt lat="43.007735" lon="13.3798767"><ele>354.0</ele><time>2026-04-09T14:07:04.373Z</time></trkpt><trkpt lat="43.00783" lon="13.3800183"><ele>354.0</ele><time>2026-04-09T14:07:05.374Z</time></trkpt><trkpt lat="43.0079317" lon="13.3801633"><ele>354.0</ele><time>2026-04-09T14:07:06.374Z</time></trkpt><trkpt lat="43.0080417" lon="13.3803183"><ele>354.0</ele><time>2026-04-09T14:07:07.374Z</time></trkpt><trkpt lat="43.0081483" lon="13.3804733"><ele>354.0</ele><time>2026-04-09T14:07:08.374Z</time></trkpt><trkpt lat="43.0082517" lon="13.3806217"><ele>354.0</ele><time>2026-04-09T14:07:09.374Z</time></trkpt><trkpt lat="43.0083533" lon="13.3807683"><ele>353.75</ele><time>2026-04-09T14:07:10.373Z</time></trkpt><trkpt lat="43.0084683" lon="13.3809133"><ele>353.5</ele><time>2026-04-09T14:07:11.375Z</time></trkpt><trkpt lat="43.0085783" lon="13.3810517"><ele>353.25</ele><time>2026-04-09T14:07:12.375Z</time></trkpt><trkpt lat="43.0086767" lon="13.38119"><ele>353.0</ele><time>2026-04-09T14:07:13.375Z</time></trkpt><trkpt lat="43.0087617" lon="13.3812967"><ele>353.0</ele><time>2026-04-09T14:07:14.375Z</time></trkpt><trkpt lat="43.0088383" lon="13.3813983"><ele>353.0</ele><time>2026-04-09T14:07:15.375Z</time></trkpt><trkpt lat="43.0089133" lon="13.38148"><ele>353.0</ele><time>2026-04-09T14:07:16.374Z</time></trkpt><trkpt lat="43.0089967" lon="13.3815333"><ele>353.0</ele><time>2026-04-09T14:07:17.373Z</time></trkpt><trkpt lat="43.0091033" lon="13.3815683"><ele>353.0</ele><time>2026-04-09T14:07:18.374Z</time></trkpt><trkpt lat="43.0092167" lon="13.3815933"><ele>353.0</ele><time>2026-04-09T14:07:19.373Z</time></trkpt><trkpt lat="43.0093383" lon="13.3816183"><ele>353.0</ele><time>2026-04-09T14:07:20.374Z</time></trkpt><trkpt lat="43.009465" lon="13.381645"><ele>353.0</ele><time>2026-04-09T14:07:21.373Z</time></trkpt><trkpt lat="43.0096017" lon="13.38168"><ele>353.0</ele><time>2026-04-09T14:07:22.374Z</time></trkpt><trkpt lat="43.00974" lon="13.381725"><ele>353.0</ele><time>2026-04-09T14:07:23.374Z</time></trkpt><trkpt lat="43.009875" lon="13.3817833"><ele>353.0</ele><time>2026-04-09T14:07:24.374Z</time></trkpt><trkpt lat="43.0099983" lon="13.381855"><ele>353.0</ele><time>2026-04-09T14:07:25.374Z</time></trkpt><trkpt lat="43.0101167" lon="13.3819517"><ele>353.0</ele><time>2026-04-09T14:07:26.375Z</time></trkpt><trkpt lat="43.0102317" lon="13.38206"><ele>353.75</ele><time>2026-04-09T14:07:27.374Z</time></trkpt><trkpt lat="43.010345" lon="13.3821767"><ele>354.5</ele><time>2026-04-09T14:07:28.373Z</time></trkpt><trkpt lat="43.010455" lon="13.382295"><ele>355.25</ele><time>2026-04-09T14:07:29.373Z</time></trkpt><trkpt lat="43.0105567" lon="13.3824067"><ele>356.0</ele><time>2026-04-09T14:07:30.375Z</time></trkpt><trkpt lat="43.0106433" lon="13.3825167"><ele>356.6666666666667</ele><time>2026-04-09T14:07:31.374Z</time></trkpt><trkpt lat="43.010735" lon="13.3826133"><ele>357.33333333333337</ele><time>2026-04-09T14:07:32.374Z</time></trkpt><trkpt lat="43.0108083" lon="13.3826817"><ele>358.0</ele><time>2026-04-09T14:07:33.373Z</time></trkpt><trkpt lat="43.01089" lon="13.3827267"><ele>358.6666666666667</ele><time>2026-04-09T14:07:34.374Z</time></trkpt><trkpt lat="43.010965" lon="13.38274"><ele>359.3333333333333</ele><time>2026-04-09T14:07:35.372Z</time></trkpt><trkpt lat="43.0110317" lon="13.3827167"><ele>360.0</ele><time>2026-04-09T14:07:36.373Z</time></trkpt><trkpt lat="43.0110933" lon="13.3826683"><ele>360.0</ele><time>2026-04-09T14:07:37.373Z</time></trkpt><trkpt lat="43.0111567" lon="13.382575"><ele>360.0</ele><time>2026-04-09T14:07:38.375Z</time></trkpt><trkpt lat="43.0112167" lon="13.3824967"><ele>360.0</ele><time>2026-04-09T14:07:39.375Z</time></trkpt><trkpt lat="43.0112617" lon="13.3824217"><ele>360.0</ele><time>2026-04-09T14:07:40.374Z</time></trkpt><trkpt lat="43.0113133" lon="13.3823683"><ele>360.0</ele><time>2026-04-09T14:07:41.374Z</time></trkpt><trkpt lat="43.0114133" lon="13.3823117"><ele>360.0</ele><time>2026-04-09T14:07:43.374Z</time></trkpt><trkpt lat="43.0115117" lon="13.38233"><ele>360.0</ele><time>2026-04-09T14:07:45.374Z</time></trkpt><trkpt lat="43.0115467" lon="13.3824083"><ele>360.0</ele><time>2026-04-09T14:07:46.375Z</time></trkpt><trkpt lat="43.0115733" lon="13.3825133"><ele>360.0</ele><time>2026-04-09T14:07:47.375Z</time></trkpt><trkpt lat="43.011615" lon="13.3826033"><ele>360.0</ele><time>2026-04-09T14:07:48.376Z</time></trkpt><trkpt lat="43.0117017" lon="13.3827067"><ele>360.0</ele><time>2026-04-09T14:07:50.375Z</time></trkpt><trkpt lat="43.011785" lon="13.38277"><ele>360.0</ele><time>2026-04-09T14:07:52.373Z</time></trkpt><trkpt lat="43.011905" lon="13.38271"><ele>363.1666666666667</ele><time>2026-04-09T14:07:54.374Z</time></trkpt><trkpt lat="43.0119733" lon="13.3826367"><ele>366.3333333333333</ele><time>2026-04-09T14:07:55.375Z</time></trkpt><trkpt lat="43.0120283" lon="13.38255"><ele>369.5</ele><time>2026-04-09T14:07:56.375Z</time></trkpt><trkpt lat="43.0120683" lon="13.3824483"><ele>372.66666666666663</ele><time>2026-04-09T14:07:57.373Z</time></trkpt><trkpt lat="43.01211" lon="13.38237"><ele>375.8333333333333</ele><time>2026-04-09T14:07:58.374Z</time></trkpt><trkpt lat="43.0121483" lon="13.3822967"><ele>379.0</ele><time>2026-04-09T14:07:59.373Z</time></trkpt><trkpt lat="43.012205" lon="13.3822167"><ele>380.6</ele><time>2026-04-09T14:08:01.374Z</time></trkpt><trkpt lat="43.012275" lon="13.38218"><ele>382.2</ele><time>2026-04-09T14:08:02.374Z</time></trkpt><trkpt lat="43.0123733" lon="13.3821483"><ele>383.8</ele><time>2026-04-09T14:08:03.374Z</time></trkpt><trkpt lat="43.0124667" lon="13.38212"><ele>385.40000000000003</ele><time>2026-04-09T14:08:04.374Z</time></trkpt><trkpt lat="43.0125767" lon="13.3820667"><ele>387.0</ele><time>2026-04-09T14:08:05.374Z</time></trkpt><trkpt lat="43.012675" lon="13.3819783"><ele>387.0</ele><time>2026-04-09T14:08:06.377Z</time></trkpt><trkpt lat="43.0127633" lon="13.3818567"><ele>387.0</ele><time>2026-04-09T14:08:07.377Z</time></trkpt><trkpt lat="43.0128467" lon="13.3817417"><ele>387.0</ele><time>2026-04-09T14:08:08.373Z</time></trkpt><trkpt lat="43.0129217" lon="13.3816433"><ele>387.0</ele><time>2026-04-09T14:08:09.372Z</time></trkpt><trkpt lat="43.012995" lon="13.38156"><ele>387.0</ele><time>2026-04-09T14:08:10.373Z</time></trkpt><trkpt lat="43.0130767" lon="13.38149"><ele>387.0</ele><time>2026-04-09T14:08:11.375Z</time></trkpt><trkpt lat="43.01316" lon="13.3814317"><ele>387.0</ele><time>2026-04-09T14:08:12.376Z</time></trkpt><trkpt lat="43.013245" lon="13.3813717"><ele>387.0</ele><time>2026-04-09T14:08:13.374Z</time></trkpt><trkpt lat="43.0133317" lon="13.3813167"><ele>387.0</ele><time>2026-04-09T14:08:14.375Z</time></trkpt><trkpt lat="43.0134167" lon="13.3812817"><ele>387.0</ele><time>2026-04-09T14:08:15.374Z</time></trkpt><trkpt lat="43.0135083" lon="13.3812633"><ele>389.20000000000005</ele><time>2026-04-09T14:08:16.377Z</time></trkpt><trkpt lat="43.0136" lon="13.381255"><ele>391.4</ele><time>2026-04-09T14:08:17.377Z</time></trkpt><trkpt lat="43.0136933" lon="13.381255"><ele>393.6</ele><time>2026-04-09T14:08:18.377Z</time></trkpt><trkpt lat="43.01379" lon="13.3812667"><ele>395.79999999999995</ele><time>2026-04-09T14:08:19.378Z</time></trkpt><trkpt lat="43.0138867" lon="13.3812833"><ele>398.0</ele><time>2026-04-09T14:08:20.373Z</time></trkpt><trkpt lat="43.0139783" lon="13.3812967"><ele>398.0</ele><time>2026-04-09T14:08:21.375Z</time></trkpt><trkpt lat="43.0140767" lon="13.3813067"><ele>398.0</ele><time>2026-04-09T14:08:22.373Z</time></trkpt><trkpt lat="43.0141733" lon="13.381305"><ele>398.0</ele><time>2026-04-09T14:08:23.377Z</time></trkpt><trkpt lat="43.0142667" lon="13.38128"><ele>398.0</ele><time>2026-04-09T14:08:24.373Z</time></trkpt><trkpt lat="43.0143483" lon="13.38124"><ele>398.0</ele><time>2026-04-09T14:08:25.375Z</time></trkpt><trkpt lat="43.01443" lon="13.381205"><ele>402.0</ele><time>2026-04-09T14:08:26.374Z</time></trkpt><trkpt lat="43.0145267" lon="13.381165"><ele>406.0</ele><time>2026-04-09T14:08:27.376Z</time></trkpt><trkpt lat="43.0146267" lon="13.381125"><ele>410.0</ele><time>2026-04-09T14:08:28.374Z</time></trkpt><trkpt lat="43.0147367" lon="13.3810867"><ele>414.0</ele><time>2026-04-09T14:08:29.375Z</time></trkpt><trkpt lat="43.014845" lon="13.3810517"><ele>418.0</ele><time>2026-04-09T14:08:30.374Z</time></trkpt><trkpt lat="43.01495" lon="13.38102"><ele>421.4</ele><time>2026-04-09T14:08:31.375Z</time></trkpt><trkpt lat="43.0150533" lon="13.3809883"><ele>424.79999999999995</ele><time>2026-04-09T14:08:32.375Z</time></trkpt><trkpt lat="43.0151433" lon="13.3809667"><ele>428.2</ele><time>2026-04-09T14:08:33.374Z</time></trkpt><trkpt lat="43.0152383" lon="13.380945"><ele>431.6</ele><time>2026-04-09T14:08:34.375Z</time></trkpt><trkpt lat="43.015335" lon="13.3809267"><ele>435.0</ele><time>2026-04-09T14:08:35.374Z</time></trkpt><trkpt lat="43.0154417" lon="13.38091"><ele>435.0</ele><time>2026-04-09T14:08:36.374Z</time></trkpt><trkpt lat="43.0155467" lon="13.38089"><ele>435.0</ele><time>2026-04-09T14:08:37.374Z</time></trkpt><trkpt lat="43.0156583" lon="13.3808683"><ele>435.0</ele><time>2026-04-09T14:08:38.374Z</time></trkpt><trkpt lat="43.01576" lon="13.3808533"><ele>435.0</ele><time>2026-04-09T14:08:39.375Z</time></trkpt><trkpt lat="43.0158483" lon="13.3808433"><ele>435.0</ele><time>2026-04-09T14:08:40.374Z</time></trkpt><trkpt lat="43.0159183" lon="13.3808367"><ele>437.0</ele><time>2026-04-09T14:08:41.377Z</time></trkpt><trkpt lat="43.016035" lon="13.3808533"><ele>439.0</ele><time>2026-04-09T14:08:43.378Z</time></trkpt><trkpt lat="43.0160917" lon="13.3809067"><ele>441.0</ele><time>2026-04-09T14:08:45.377Z</time></trkpt><trkpt lat="43.0160983" lon="13.3810367"><ele>443.0</ele><time>2026-04-09T14:08:47.377Z</time></trkpt><trkpt lat="43.0160933" lon="13.3811233"><ele>445.0</ele><time>2026-04-09T14:08:48.376Z</time></trkpt><trkpt lat="43.016105" lon="13.3812183"><ele>447.0</ele><time>2026-04-09T14:08:49.377Z</time></trkpt><trkpt lat="43.0161367" lon="13.38132"><ele>447.0</ele><time>2026-04-09T14:08:50.378Z</time></trkpt><trkpt lat="43.01618" lon="13.3814233"><ele>447.0</ele><time>2026-04-09T14:08:51.376Z</time></trkpt><trkpt lat="43.0162267" lon="13.3815267"><ele>447.0</ele><time>2026-04-09T14:08:52.374Z</time></trkpt><trkpt lat="43.01626" lon="13.3816333"><ele>447.0</ele><time>2026-04-09T14:08:53.377Z</time></trkpt><trkpt lat="43.0162817" lon="13.3817433"><ele>447.0</ele><time>2026-04-09T14:08:54.374Z</time></trkpt><trkpt lat="43.0162683" lon="13.3818683"><ele>447.0</ele><time>2026-04-09T14:08:55.378Z</time></trkpt><trkpt lat="43.0162233" lon="13.382005"><ele>447.0</ele><time>2026-04-09T14:08:56.374Z</time></trkpt><trkpt lat="43.0161617" lon="13.3821317"><ele>447.0</ele><time>2026-04-09T14:08:57.374Z</time></trkpt><trkpt lat="43.0160767" lon="13.3822567"><ele>447.0</ele><time>2026-04-09T14:08:58.373Z</time></trkpt><trkpt lat="43.0159733" lon="13.38238"><ele>447.0</ele><time>2026-04-09T14:08:59.378Z</time></trkpt><trkpt lat="43.0158733" lon="13.3825167"><ele>442.5</ele><time>2026-04-09T14:09:00.377Z</time></trkpt><trkpt lat="43.015765" lon="13.3826617"><ele>438.0</ele><time>2026-04-09T14:09:01.375Z</time></trkpt><trkpt lat="43.015665" lon="13.3828017"><ele>433.5</ele><time>2026-04-09T14:09:02.378Z</time></trkpt><trkpt lat="43.0155767" lon="13.3829317"><ele>429.0</ele><time>2026-04-09T14:09:03.374Z</time></trkpt><trkpt lat="43.0154967" lon="13.3830633"><ele>427.25</ele><time>2026-04-09T14:09:04.375Z</time></trkpt><trkpt lat="43.0154317" lon="13.3832083"><ele>425.5</ele><time>2026-04-09T14:09:05.381Z</time></trkpt><trkpt lat="43.0153733" lon="13.3833583"><ele>423.75</ele><time>2026-04-09T14:09:06.374Z</time></trkpt><trkpt lat="43.0153233" lon="13.3835167"><ele>422.0</ele><time>2026-04-09T14:09:07.375Z</time></trkpt><trkpt lat="43.0152683" lon="13.38367"><ele>422.0</ele><time>2026-04-09T14:09:08.376Z</time></trkpt><trkpt lat="43.0152233" lon="13.3838283"><ele>422.0</ele><time>2026-04-09T14:09:09.374Z</time></trkpt><trkpt lat="43.015175" lon="13.383975"><ele>422.0</ele><time>2026-04-09T14:09:10.375Z</time></trkpt><trkpt lat="43.0151267" lon="13.384105"><ele>422.0</ele><time>2026-04-09T14:09:11.378Z</time></trkpt><trkpt lat="43.0150767" lon="13.3842267"><ele>422.49999999999994</ele><time>2026-04-09T14:09:12.374Z</time></trkpt><trkpt lat="43.01503" lon="13.384345"><ele>423.0</ele><time>2026-04-09T14:09:13.375Z</time></trkpt><trkpt lat="43.01499" lon="13.3844533"><ele>423.5</ele><time>2026-04-09T14:09:14.377Z</time></trkpt><trkpt lat="43.01495" lon="13.384555"><ele>424.0</ele><time>2026-04-09T14:09:15.377Z</time></trkpt><trkpt lat="43.0149083" lon="13.38466"><ele>424.49999999999994</ele><time>2026-04-09T14:09:16.377Z</time></trkpt><trkpt lat="43.01487" lon="13.3847617"><ele>425.0</ele><time>2026-04-09T14:09:17.376Z</time></trkpt><trkpt lat="43.0148333" lon="13.3848667"><ele>420.6</ele><time>2026-04-09T14:09:18.374Z</time></trkpt><trkpt lat="43.0147867" lon="13.3849883"><ele>416.2</ele><time>2026-04-09T14:09:19.377Z</time></trkpt><trkpt lat="43.0147283" lon="13.3851167"><ele>411.79999999999995</ele><time>2026-04-09T14:09:20.377Z</time></trkpt><trkpt lat="43.0146633" lon="13.3852433"><ele>407.4</ele><time>2026-04-09T14:09:21.377Z</time></trkpt><trkpt lat="43.0145967" lon="13.3853617"><ele>403.0</ele><time>2026-04-09T14:09:22.377Z</time></trkpt><trkpt lat="43.0145333" lon="13.38548"><ele>403.25</ele><time>2026-04-09T14:09:23.376Z</time></trkpt><trkpt lat="43.0144717" lon="13.38561"><ele>403.5</ele><time>2026-04-09T14:09:24.377Z</time></trkpt><trkpt lat="43.014415" lon="13.3857567"><ele>403.75</ele><time>2026-04-09T14:09:25.378Z</time></trkpt><trkpt lat="43.01437" lon="13.3859083"><ele>404.0</ele><time>2026-04-09T14:09:26.375Z</time></trkpt><trkpt lat="43.0143283" lon="13.3860617"><ele>404.0</ele><time>2026-04-09T14:09:27.374Z</time></trkpt><trkpt lat="43.01429" lon="13.3862117"><ele>404.0</ele><time>2026-04-09T14:09:28.377Z</time></trkpt><trkpt lat="43.0142583" lon="13.3863483"><ele>404.0</ele><time>2026-04-09T14:09:29.377Z</time></trkpt><trkpt lat="43.0142333" lon="13.3864783"><ele>404.0</ele><time>2026-04-09T14:09:30.376Z</time></trkpt><trkpt lat="43.0142183" lon="13.3866117"><ele>404.0</ele><time>2026-04-09T14:09:31.377Z</time></trkpt><trkpt lat="43.0142183" lon="13.3867433"><ele>404.5</ele><time>2026-04-09T14:09:32.375Z</time></trkpt><trkpt lat="43.0142317" lon="13.386885"><ele>405.0</ele><time>2026-04-09T14:09:33.375Z</time></trkpt><trkpt lat="43.014265" lon="13.3870333"><ele>405.5</ele><time>2026-04-09T14:09:34.374Z</time></trkpt><trkpt lat="43.0143017" lon="13.3871867"><ele>406.0</ele><time>2026-04-09T14:09:35.375Z</time></trkpt><trkpt lat="43.01434" lon="13.3873567"><ele>405.0</ele><time>2026-04-09T14:09:36.375Z</time></trkpt><trkpt lat="43.01437" lon="13.3875017"><ele>404.0</ele><time>2026-04-09T14:09:37.374Z</time></trkpt><trkpt lat="43.0143983" lon="13.3876467"><ele>403.0</ele><time>2026-04-09T14:09:38.374Z</time></trkpt><trkpt lat="43.0144183" lon="13.3877883"><ele>402.0</ele><time>2026-04-09T14:09:39.374Z</time></trkpt><trkpt lat="43.0144317" lon="13.3879233"><ele>401.0</ele><time>2026-04-09T14:09:40.375Z</time></trkpt><trkpt lat="43.01443" lon="13.388065"><ele>400.0</ele><time>2026-04-09T14:09:41.378Z</time></trkpt><trkpt lat="43.0144167" lon="13.3882133"><ele>399.0</ele><time>2026-04-09T14:09:42.374Z</time></trkpt><trkpt lat="43.0143917" lon="13.3883617"><ele>398.0</ele><time>2026-04-09T14:09:43.378Z</time></trkpt><trkpt lat="43.01436" lon="13.3885167"><ele>397.0</ele><time>2026-04-09T14:09:44.377Z</time></trkpt><trkpt lat="43.0143283" lon="13.3886583"><ele>396.0</ele><time>2026-04-09T14:09:45.377Z</time></trkpt><trkpt lat="43.0143083" lon="13.3887917"><ele>394.6</ele><time>2026-04-09T14:09:46.377Z</time></trkpt><trkpt lat="43.0143" lon="13.38892"><ele>393.20000000000005</ele><time>2026-04-09T14:09:47.375Z</time></trkpt><trkpt lat="43.01431" lon="13.38904"><ele>391.79999999999995</ele><time>2026-04-09T14:09:48.376Z</time></trkpt><trkpt lat="43.0143367" lon="13.3891583"><ele>390.4</ele><time>2026-04-09T14:09:49.375Z</time></trkpt><trkpt lat="43.014395" lon="13.3892617"><ele>389.0</ele><time>2026-04-09T14:09:50.376Z</time></trkpt><trkpt lat="43.0144617" lon="13.3893517"><ele>389.0</ele><time>2026-04-09T14:09:51.377Z</time></trkpt><trkpt lat="43.0145733" lon="13.3894283"><ele>389.0</ele><time>2026-04-09T14:09:52.376Z</time></trkpt><trkpt lat="43.0146833" lon="13.3895183"><ele>389.0</ele><time>2026-04-09T14:09:53.375Z</time></trkpt><trkpt lat="43.01479" lon="13.3896233"><ele>389.0</ele><time>2026-04-09T14:09:54.374Z</time></trkpt><trkpt lat="43.01489" lon="13.389745"><ele>387.75</ele><time>2026-04-09T14:09:55.375Z</time></trkpt><trkpt lat="43.014965" lon="13.3898883"><ele>386.5</ele><time>2026-04-09T14:09:56.377Z</time></trkpt><trkpt lat="43.0150367" lon="13.390045"><ele>385.25</ele><time>2026-04-09T14:09:57.377Z</time></trkpt><trkpt lat="43.0151117" lon="13.3902017"><ele>384.0</ele><time>2026-04-09T14:09:58.374Z</time></trkpt><trkpt lat="43.0151883" lon="13.3903467"><ele>384.0</ele><time>2026-04-09T14:09:59.375Z</time></trkpt><trkpt lat="43.0152567" lon="13.3904767"><ele>384.0</ele><time>2026-04-09T14:10:00.374Z</time></trkpt><trkpt lat="43.0153233" lon="13.39059"><ele>384.0</ele><time>2026-04-09T14:10:01.375Z</time></trkpt><trkpt lat="43.015385" lon="13.3907"><ele>384.0</ele><time>2026-04-09T14:10:02.376Z</time></trkpt><trkpt lat="43.0154417" lon="13.3908117"><ele>384.0</ele><time>2026-04-09T14:10:03.374Z</time></trkpt><trkpt lat="43.0154883" lon="13.3909283"><ele>382.8333333333333</ele><time>2026-04-09T14:10:04.375Z</time></trkpt><trkpt lat="43.0155183" lon="13.3910467"><ele>381.6666666666667</ele><time>2026-04-09T14:10:05.375Z</time></trkpt><trkpt lat="43.015535" lon="13.391175"><ele>380.5</ele><time>2026-04-09T14:10:06.378Z</time></trkpt><trkpt lat="43.015525" lon="13.391295"><ele>379.33333333333337</ele><time>2026-04-09T14:10:07.377Z</time></trkpt><trkpt lat="43.0155033" lon="13.3914117"><ele>378.1666666666667</ele><time>2026-04-09T14:10:08.373Z</time></trkpt><trkpt lat="43.01547" lon="13.39152"><ele>377.0</ele><time>2026-04-09T14:10:09.375Z</time></trkpt><trkpt lat="43.01542" lon="13.3916"><ele>376.0</ele><time>2026-04-09T14:10:10.373Z</time></trkpt><trkpt lat="43.01535" lon="13.391655"><ele>375.0</ele><time>2026-04-09T14:10:11.378Z</time></trkpt><trkpt lat="43.0152517" lon="13.39168"><ele>374.0</ele><time>2026-04-09T14:10:12.373Z</time></trkpt><trkpt lat="43.0151367" lon="13.3916767"><ele>373.0</ele><time>2026-04-09T14:10:13.377Z</time></trkpt><trkpt lat="43.0150067" lon="13.3916383"><ele>372.0</ele><time>2026-04-09T14:10:14.375Z</time></trkpt><trkpt lat="43.0148717" lon="13.39158"><ele>370.25</ele><time>2026-04-09T14:10:15.377Z</time></trkpt><trkpt lat="43.0147533" lon="13.3915233"><ele>368.5</ele><time>2026-04-09T14:10:16.379Z</time></trkpt><trkpt lat="43.0146417" lon="13.39147"><ele>366.75</ele><time>2026-04-09T14:10:17.375Z</time></trkpt><trkpt lat="43.014535" lon="13.39143"><ele>365.0</ele><time>2026-04-09T14:10:18.375Z</time></trkpt><trkpt lat="43.0144317" lon="13.39141"><ele>365.0</ele><time>2026-04-09T14:10:19.375Z</time></trkpt><trkpt lat="43.014335" lon="13.3914217"><ele>365.0</ele><time>2026-04-09T14:10:20.376Z</time></trkpt><trkpt lat="43.0142483" lon="13.3914567"><ele>365.0</ele><time>2026-04-09T14:10:21.375Z</time></trkpt><trkpt lat="43.0141717" lon="13.3915133"><ele>365.0</ele><time>2026-04-09T14:10:22.375Z</time></trkpt><trkpt lat="43.014105" lon="13.39161"><ele>365.0</ele><time>2026-04-09T14:10:23.375Z</time></trkpt><trkpt lat="43.0140417" lon="13.39175"><ele>364.75</ele><time>2026-04-09T14:10:24.377Z</time></trkpt><trkpt lat="43.0139683" lon="13.39189"><ele>364.5</ele><time>2026-04-09T14:10:25.375Z</time></trkpt><trkpt lat="43.01388" lon="13.3920233"><ele>364.25</ele><time>2026-04-09T14:10:26.38Z</time></trkpt><trkpt lat="43.01377" lon="13.3921467"><ele>364.0</ele><time>2026-04-09T14:10:27.377Z</time></trkpt><trkpt lat="43.0136567" lon="13.3922633"><ele>363.75</ele><time>2026-04-09T14:10:28.377Z</time></trkpt><trkpt lat="43.0135433" lon="13.3923767"><ele>363.5</ele><time>2026-04-09T14:10:29.374Z</time></trkpt><trkpt lat="43.01343" lon="13.392485"><ele>363.25</ele><time>2026-04-09T14:10:30.375Z</time></trkpt><trkpt lat="43.0133133" lon="13.3925883"><ele>363.0</ele><time>2026-04-09T14:10:31.379Z</time></trkpt><trkpt lat="43.01319" lon="13.3926933"><ele>362.25</ele><time>2026-04-09T14:10:32.378Z</time></trkpt><trkpt lat="43.01308" lon="13.3928067"><ele>361.5</ele><time>2026-04-09T14:10:33.377Z</time></trkpt><trkpt lat="43.012965" lon="13.3929217"><ele>360.75</ele><time>2026-04-09T14:10:34.374Z</time></trkpt><trkpt lat="43.01285" lon="13.39303"><ele>360.0</ele><time>2026-04-09T14:10:35.373Z</time></trkpt><trkpt lat="43.012745" lon="13.3931267"><ele>359.75</ele><time>2026-04-09T14:10:36.374Z</time></trkpt><trkpt lat="43.0126383" lon="13.3932133"><ele>359.5</ele><time>2026-04-09T14:10:37.376Z</time></trkpt><trkpt lat="43.012525" lon="13.3932933"><ele>359.25</ele><time>2026-04-09T14:10:38.375Z</time></trkpt><trkpt lat="43.01241" lon="13.3933667"><ele>359.0</ele><time>2026-04-09T14:10:39.374Z</time></trkpt><trkpt lat="43.0122933" lon="13.3934333"><ele>355.75</ele><time>2026-04-09T14:10:40.374Z</time></trkpt><trkpt lat="43.0121833" lon="13.3934983"><ele>352.5</ele><time>2026-04-09T14:10:41.375Z</time></trkpt><trkpt lat="43.012075" lon="13.3935667"><ele>349.25</ele><time>2026-04-09T14:10:42.376Z</time></trkpt><trkpt lat="43.0119733" lon="13.3936383"><ele>346.0</ele><time>2026-04-09T14:10:43.374Z</time></trkpt><trkpt lat="43.011885" lon="13.3937267"><ele>346.0</ele><time>2026-04-09T14:10:44.375Z</time></trkpt><trkpt lat="43.0118117" lon="13.39383"><ele>346.0</ele><time>2026-04-09T14:10:45.378Z</time></trkpt><trkpt lat="43.0117467" lon="13.3939533"><ele>346.0</ele><time>2026-04-09T14:10:46.374Z</time></trkpt><trkpt lat="43.011695" lon="13.3940833"><ele>346.0</ele><time>2026-04-09T14:10:47.377Z</time></trkpt><trkpt lat="43.0116483" lon="13.3942283"><ele>346.0</ele><time>2026-04-09T14:10:48.374Z</time></trkpt><trkpt lat="43.0116" lon="13.394385"><ele>346.0</ele><time>2026-04-09T14:10:49.378Z</time></trkpt><trkpt lat="43.0115483" lon="13.3945417"><ele>346.0</ele><time>2026-04-09T14:10:50.375Z</time></trkpt><trkpt lat="43.0115" lon="13.3946933"><ele>346.0</ele><time>2026-04-09T14:10:51.375Z</time></trkpt><trkpt lat="43.0114667" lon="13.3948433"><ele>346.0</ele><time>2026-04-09T14:10:52.373Z</time></trkpt><trkpt lat="43.01145" lon="13.3949967"><ele>346.0</ele><time>2026-04-09T14:10:53.375Z</time></trkpt><trkpt lat="43.0114483" lon="13.3951483"><ele>346.0</ele><time>2026-04-09T14:10:54.375Z</time></trkpt><trkpt lat="43.01145" lon="13.3952833"><ele>346.0</ele><time>2026-04-09T14:10:55.377Z</time></trkpt><trkpt lat="43.01145" lon="13.3954083"><ele>346.0</ele><time>2026-04-09T14:10:56.376Z</time></trkpt><trkpt lat="43.011455" lon="13.395515"><ele>346.0</ele><time>2026-04-09T14:10:57.376Z</time></trkpt><trkpt lat="43.0114667" lon="13.3956067"><ele>346.0</ele><time>2026-04-09T14:10:58.374Z</time></trkpt><trkpt lat="43.01149" lon="13.39569"><ele>346.66666666666663</ele><time>2026-04-09T14:10:59.374Z</time></trkpt><trkpt lat="43.0115267" lon="13.3957783"><ele>347.3333333333333</ele><time>2026-04-09T14:11:00.375Z</time></trkpt><trkpt lat="43.0115667" lon="13.3958767"><ele>348.0</ele><time>2026-04-09T14:11:01.375Z</time></trkpt><trkpt lat="43.0116067" lon="13.395985"><ele>348.6666666666667</ele><time>2026-04-09T14:11:02.375Z</time></trkpt><trkpt lat="43.0116383" lon="13.3961033"><ele>349.33333333333337</ele><time>2026-04-09T14:11:03.374Z</time></trkpt><trkpt lat="43.01167" lon="13.396235"><ele>350.0</ele><time>2026-04-09T14:11:04.374Z</time></trkpt><trkpt lat="43.0117017" lon="13.39637"><ele>353.0</ele><time>2026-04-09T14:11:05.374Z</time></trkpt><trkpt lat="43.01174" lon="13.39651"><ele>356.0</ele><time>2026-04-09T14:11:06.376Z</time></trkpt><trkpt lat="43.011795" lon="13.39665"><ele>359.0</ele><time>2026-04-09T14:11:07.375Z</time></trkpt><trkpt lat="43.01186" lon="13.3967833"><ele>362.0</ele><time>2026-04-09T14:11:08.376Z</time></trkpt><trkpt lat="43.01193" lon="13.3969233"><ele>362.0</ele><time>2026-04-09T14:11:09.375Z</time></trkpt><trkpt lat="43.0120083" lon="13.3970683"><ele>362.0</ele><time>2026-04-09T14:11:10.375Z</time></trkpt><trkpt lat="43.0120967" lon="13.3972117"><ele>362.0</ele><time>2026-04-09T14:11:11.376Z</time></trkpt><trkpt lat="43.0121967" lon="13.3973533"><ele>362.0</ele><time>2026-04-09T14:11:12.375Z</time></trkpt><trkpt lat="43.01231" lon="13.397495"><ele>360.6666666666667</ele><time>2026-04-09T14:11:13.375Z</time></trkpt><trkpt lat="43.0124267" lon="13.3976383"><ele>359.3333333333333</ele><time>2026-04-09T14:11:14.375Z</time></trkpt><trkpt lat="43.0125317" lon="13.3977783"><ele>358.0</ele><time>2026-04-09T14:11:15.378Z</time></trkpt><trkpt lat="43.0126417" lon="13.3979233"><ele>360.0</ele><time>2026-04-09T14:11:16.378Z</time></trkpt><trkpt lat="43.01275" lon="13.3980633"><ele>362.0</ele><time>2026-04-09T14:11:17.374Z</time></trkpt><trkpt lat="43.012845" lon="13.39821"><ele>364.0</ele><time>2026-04-09T14:11:18.375Z</time></trkpt><trkpt lat="43.0129333" lon="13.3983717"><ele>366.0</ele><time>2026-04-09T14:11:19.375Z</time></trkpt><trkpt lat="43.0130117" lon="13.3985517"><ele>366.0</ele><time>2026-04-09T14:11:20.374Z</time></trkpt><trkpt lat="43.01308" lon="13.3987267"><ele>366.0</ele><time>2026-04-09T14:11:21.375Z</time></trkpt><trkpt lat="43.0131483" lon="13.398895"><ele>366.0</ele><time>2026-04-09T14:11:22.374Z</time></trkpt><trkpt lat="43.0132217" lon="13.3990567"><ele>366.0</ele><time>2026-04-09T14:11:23.374Z</time></trkpt><trkpt lat="43.0133033" lon="13.3992117"><ele>369.5</ele><time>2026-04-09T14:11:24.374Z</time></trkpt><trkpt lat="43.013395" lon="13.3993517"><ele>373.0</ele><time>2026-04-09T14:11:25.375Z</time></trkpt><trkpt lat="43.013485" lon="13.3994933"><ele>376.5</ele><time>2026-04-09T14:11:26.375Z</time></trkpt><trkpt lat="43.0135817" lon="13.3996333"><ele>380.0</ele><time>2026-04-09T14:11:27.373Z</time></trkpt><trkpt lat="43.013685" lon="13.39977"><ele>380.0</ele><time>2026-04-09T14:11:28.375Z</time></trkpt><trkpt lat="43.01379" lon="13.399895"><ele>380.0</ele><time>2026-04-09T14:11:29.374Z</time></trkpt><trkpt lat="43.0139067" lon="13.4000067"><ele>380.0</ele><time>2026-04-09T14:11:30.376Z</time></trkpt><trkpt lat="43.0140317" lon="13.4001067"><ele>380.0</ele><time>2026-04-09T14:11:31.375Z</time></trkpt><trkpt lat="43.0141683" lon="13.4002017"><ele>385.0</ele><time>2026-04-09T14:11:32.376Z</time></trkpt><trkpt lat="43.01431" lon="13.400295"><ele>390.0</ele><time>2026-04-09T14:11:33.375Z</time></trkpt><trkpt lat="43.0144533" lon="13.40039"><ele>395.0</ele><time>2026-04-09T14:11:34.376Z</time></trkpt><trkpt lat="43.014595" lon="13.4004983"><ele>392.3333333333333</ele><time>2026-04-09T14:11:35.374Z</time></trkpt><trkpt lat="43.0147283" lon="13.4006217"><ele>389.66666666666663</ele><time>2026-04-09T14:11:36.376Z</time></trkpt><trkpt lat="43.01485" lon="13.400745"><ele>387.0</ele><time>2026-04-09T14:11:37.378Z</time></trkpt><trkpt lat="43.0149667" lon="13.4008733"><ele>389.75</ele><time>2026-04-09T14:11:38.377Z</time></trkpt><trkpt lat="43.0150767" lon="13.4010083"><ele>392.5</ele><time>2026-04-09T14:11:39.378Z</time></trkpt><trkpt lat="43.01518" lon="13.4011467"><ele>395.25</ele><time>2026-04-09T14:11:40.377Z</time></trkpt><trkpt lat="43.0152833" lon="13.4012867"><ele>398.0</ele><time>2026-04-09T14:11:41.374Z</time></trkpt><trkpt lat="43.01538" lon="13.4014283"><ele>398.0</ele><time>2026-04-09T14:11:42.375Z</time></trkpt><trkpt lat="43.015475" lon="13.4015733"><ele>398.0</ele><time>2026-04-09T14:11:43.374Z</time></trkpt><trkpt lat="43.0155633" lon="13.4017383"><ele>398.0</ele><time>2026-04-09T14:11:44.374Z</time></trkpt><trkpt lat="43.01563" lon="13.40192"><ele>398.0</ele><time>2026-04-09T14:11:45.378Z</time></trkpt><trkpt lat="43.0156733" lon="13.4021183"><ele>402.66666666666663</ele><time>2026-04-09T14:11:46.375Z</time></trkpt><trkpt lat="43.0156983" lon="13.4023233"><ele>407.33333333333337</ele><time>2026-04-09T14:11:47.374Z</time></trkpt><trkpt lat="43.0157217" lon="13.4025317"><ele>412.0</ele><time>2026-04-09T14:11:48.378Z</time></trkpt><trkpt lat="43.015745" lon="13.4027433"><ele>412.0</ele><time>2026-04-09T14:11:49.378Z</time></trkpt><trkpt lat="43.01577" lon="13.40296"><ele>412.0</ele><time>2026-04-09T14:11:50.378Z</time></trkpt><trkpt lat="43.01579" lon="13.4031767"><ele>412.0</ele><time>2026-04-09T14:11:51.378Z</time></trkpt><trkpt lat="43.0158017" lon="13.4033733"><ele>414.0</ele><time>2026-04-09T14:11:52.377Z</time></trkpt><trkpt lat="43.0158183" lon="13.4035433"><ele>416.0</ele><time>2026-04-09T14:11:53.377Z</time></trkpt><trkpt lat="43.0158567" lon="13.4036817"><ele>418.0</ele><time>2026-04-09T14:11:54.377Z</time></trkpt><trkpt lat="43.015905" lon="13.4037733"><ele>420.0</ele><time>2026-04-09T14:11:55.378Z</time></trkpt><trkpt lat="43.0159717" lon="13.4038433"><ele>422.0</ele><time>2026-04-09T14:11:56.378Z</time></trkpt><trkpt lat="43.0160633" lon="13.4038983"><ele>422.5</ele><time>2026-04-09T14:11:57.374Z</time></trkpt><trkpt lat="43.01617" lon="13.4039333"><ele>423.0</ele><time>2026-04-09T14:11:58.375Z</time></trkpt><trkpt lat="43.016285" lon="13.403955"><ele>423.5</ele><time>2026-04-09T14:11:59.377Z</time></trkpt><trkpt lat="43.0164067" lon="13.4039867"><ele>424.0</ele><time>2026-04-09T14:12:00.376Z</time></trkpt><trkpt lat="43.01653" lon="13.4040283"><ele>424.0</ele><time>2026-04-09T14:12:01.376Z</time></trkpt><trkpt lat="43.0166517" lon="13.4040867"><ele>424.0</ele><time>2026-04-09T14:12:02.377Z</time></trkpt><trkpt lat="43.0167617" lon="13.4041767"><ele>424.0</ele><time>2026-04-09T14:12:03.375Z</time></trkpt><trkpt lat="43.0168617" lon="13.4042867"><ele>424.0</ele><time>2026-04-09T14:12:04.375Z</time></trkpt><trkpt lat="43.0169467" lon="13.40442"><ele>425.75</ele><time>2026-04-09T14:12:05.377Z</time></trkpt><trkpt lat="43.0170167" lon="13.40457"><ele>427.5</ele><time>2026-04-09T14:12:06.376Z</time></trkpt><trkpt lat="43.017075" lon="13.4047367"><ele>429.25</ele><time>2026-04-09T14:12:07.376Z</time></trkpt><trkpt lat="43.01712" lon="13.4049067"><ele>431.0</ele><time>2026-04-09T14:12:08.378Z</time></trkpt><trkpt lat="43.0171517" lon="13.4050667"><ele>430.99999999999994</ele><time>2026-04-09T14:12:09.376Z</time></trkpt><trkpt lat="43.0171783" lon="13.405205"><ele>431.0</ele><time>2026-04-09T14:12:10.377Z</time></trkpt><trkpt lat="43.0172033" lon="13.4053233"><ele>431.0</ele><time>2026-04-09T14:12:11.376Z</time></trkpt><trkpt lat="43.01723" lon="13.4054267"><ele>431.0</ele><time>2026-04-09T14:12:12.376Z</time></trkpt><trkpt lat="43.01725" lon="13.405515"><ele>430.99999999999994</ele><time>2026-04-09T14:12:13.375Z</time></trkpt><trkpt lat="43.0172517" lon="13.4056383"><ele>431.0</ele><time>2026-04-09T14:12:15.378Z</time></trkpt><trkpt lat="43.0171867" lon="13.40571"><ele>432.3333333333333</ele><time>2026-04-09T14:12:17.378Z</time></trkpt><trkpt lat="43.017075" lon="13.4057783"><ele>433.66666666666663</ele><time>2026-04-09T14:12:19.378Z</time></trkpt><trkpt lat="43.0170117" lon="13.4058083"><ele>435.0</ele><time>2026-04-09T14:12:20.376Z</time></trkpt><trkpt lat="43.0169467" lon="13.4058383"><ele>436.33333333333337</ele><time>2026-04-09T14:12:21.375Z</time></trkpt><trkpt lat="43.0168817" lon="13.40587"><ele>437.6666666666667</ele><time>2026-04-09T14:12:22.375Z</time></trkpt><trkpt lat="43.016815" lon="13.405905"><ele>439.0</ele><time>2026-04-09T14:12:23.378Z</time></trkpt><trkpt lat="43.01675" lon="13.4059417"><ele>439.0</ele><time>2026-04-09T14:12:24.373Z</time></trkpt><trkpt lat="43.016655" lon="13.4060033"><ele>439.0</ele><time>2026-04-09T14:12:26.377Z</time></trkpt><trkpt lat="43.016575" lon="13.40606"><ele>439.0</ele><time>2026-04-09T14:12:28.378Z</time></trkpt><trkpt lat="43.0164867" lon="13.40611"><ele>439.0</ele><time>2026-04-09T14:12:30.378Z</time></trkpt><trkpt lat="43.016385" lon="13.406145"><ele>439.0</ele><time>2026-04-09T14:12:32.378Z</time></trkpt><trkpt lat="43.016305" lon="13.406165"><ele>436.1666666666667</ele><time>2026-04-09T14:12:34.377Z</time></trkpt><trkpt lat="43.0162317" lon="13.4062333"><ele>433.33333333333337</ele><time>2026-04-09T14:12:36.378Z</time></trkpt><trkpt lat="43.0161883" lon="13.4063417"><ele>430.5</ele><time>2026-04-09T14:12:38.374Z</time></trkpt><trkpt lat="43.0161583" lon="13.406485"><ele>427.66666666666663</ele><time>2026-04-09T14:12:40.373Z</time></trkpt><trkpt lat="43.0161383" lon="13.40657"><ele>424.8333333333333</ele><time>2026-04-09T14:12:41.377Z</time></trkpt><trkpt lat="43.0161033" lon="13.40666"><ele>422.0</ele><time>2026-04-09T14:12:42.376Z</time></trkpt><trkpt lat="43.0160633" lon="13.4067533"><ele>421.99999999999994</ele><time>2026-04-09T14:12:43.377Z</time></trkpt><trkpt lat="43.01602" lon="13.4068567"><ele>422.0</ele><time>2026-04-09T14:12:44.378Z</time></trkpt><trkpt lat="43.0159767" lon="13.4069617"><ele>422.0</ele><time>2026-04-09T14:12:45.378Z</time></trkpt><trkpt lat="43.015935" lon="13.4070483"><ele>422.0</ele><time>2026-04-09T14:12:46.378Z</time></trkpt><trkpt lat="43.0158917" lon="13.4071267"><ele>421.99999999999994</ele><time>2026-04-09T14:12:47.378Z</time></trkpt><trkpt lat="43.0158517" lon="13.40721"><ele>422.0</ele><time>2026-04-09T14:12:48.376Z</time></trkpt><trkpt lat="43.0158183" lon="13.4072983"><ele>422.16666666666663</ele><time>2026-04-09T14:12:49.378Z</time></trkpt><trkpt lat="43.0157967" lon="13.4073883"><ele>422.3333333333333</ele><time>2026-04-09T14:12:50.375Z</time></trkpt><trkpt lat="43.01578" lon="13.4074767"><ele>422.5</ele><time>2026-04-09T14:12:51.378Z</time></trkpt><trkpt lat="43.0157817" lon="13.4075767"><ele>422.66666666666663</ele><time>2026-04-09T14:12:52.378Z</time></trkpt><trkpt lat="43.015785" lon="13.4076667"><ele>422.8333333333333</ele><time>2026-04-09T14:12:53.378Z</time></trkpt><trkpt lat="43.0158083" lon="13.407755"><ele>423.0</ele><time>2026-04-09T14:12:54.377Z</time></trkpt><trkpt lat="43.0158933" lon="13.4078533"><ele>423.0</ele><time>2026-04-09T14:12:56.378Z</time></trkpt><trkpt lat="43.0159933" lon="13.4078933"><ele>423.0</ele><time>2026-04-09T14:12:58.378Z</time></trkpt><trkpt lat="43.01609" lon="13.407925"><ele>423.0</ele><time>2026-04-09T14:13:00.376Z</time></trkpt><trkpt lat="43.016193" lon="13.4079155"><ele>423.0</ele><time>2026-04-09T14:13:02.375Z</time></trkpt><trkpt lat="43.0163235" lon="13.4078853"><ele>423.0</ele><time>2026-04-09T14:13:04.375Z</time></trkpt><trkpt lat="43.0163974" lon="13.4078644"><ele>423.0</ele><time>2026-04-09T14:13:05.378Z</time></trkpt><trkpt lat="43.016468" lon="13.4078431"><ele>423.0</ele><time>2026-04-09T14:13:06.376Z</time></trkpt><trkpt lat="43.0165411" lon="13.4078199"><ele>423.0</ele><time>2026-04-09T14:13:07.377Z</time></trkpt><trkpt lat="43.0166124" lon="13.4077988"><ele>423.0</ele><time>2026-04-09T14:13:08.375Z</time></trkpt><trkpt lat="43.0166812" lon="13.4077807"><ele>423.0</ele><time>2026-04-09T14:13:09.376Z</time></trkpt><trkpt lat="43.0167489" lon="13.4077619"><ele>423.0</ele><time>2026-04-09T14:13:10.378Z</time></trkpt><trkpt lat="43.0168164" lon="13.4077414"><ele>423.0</ele><time>2026-04-09T14:13:11.374Z</time></trkpt><trkpt lat="43.0168845" lon="13.4077256"><ele>422.57142857142856</ele><time>2026-04-09T14:13:12.376Z</time></trkpt><trkpt lat="43.0169542" lon="13.4077133"><ele>422.14285714285717</ele><time>2026-04-09T14:13:13.377Z</time></trkpt><trkpt lat="43.0170287" lon="13.4077094"><ele>421.7142857142857</ele><time>2026-04-09T14:13:14.377Z</time></trkpt><trkpt lat="43.0171054" lon="13.4077109"><ele>421.2857142857143</ele><time>2026-04-09T14:13:15.378Z</time></trkpt><trkpt lat="43.0171797" lon="13.4077085"><ele>420.8571428571429</ele><time>2026-04-09T14:13:16.378Z</time></trkpt><trkpt lat="43.0172542" lon="13.4077054"><ele>420.42857142857144</ele><time>2026-04-09T14:13:17.375Z</time></trkpt><trkpt lat="43.0173265" lon="13.4077076"><ele>420.0</ele><time>2026-04-09T14:13:18.379Z</time></trkpt><trkpt lat="43.0173946" lon="13.4077057"><ele>418.2</ele><time>2026-04-09T14:13:19.374Z</time></trkpt><trkpt lat="43.0175041" lon="13.4076964"><ele>416.4</ele><time>2026-04-09T14:13:21.373Z</time></trkpt><trkpt lat="43.0175956" lon="13.4077097"><ele>414.6</ele><time>2026-04-09T14:13:23.375Z</time></trkpt><trkpt lat="43.0177182" lon="13.407709"><ele>412.8</ele><time>2026-04-09T14:13:25.377Z</time></trkpt><trkpt lat="43.0177855" lon="13.4076983"><ele>411.0</ele><time>2026-04-09T14:13:26.378Z</time></trkpt><trkpt lat="43.017849" lon="13.4076854"><ele>411.0</ele><time>2026-04-09T14:13:27.378Z</time></trkpt><trkpt lat="43.0179737" lon="13.4076411"><ele>411.0</ele><time>2026-04-09T14:13:29.375Z</time></trkpt><trkpt lat="43.0180385" lon="13.407599"><ele>411.0</ele><time>2026-04-09T14:13:30.375Z</time></trkpt><trkpt lat="43.0181025" lon="13.4075476"><ele>411.0</ele><time>2026-04-09T14:13:31.377Z</time></trkpt><trkpt lat="43.0181674" lon="13.4075053"><ele>411.0</ele><time>2026-04-09T14:13:32.376Z</time></trkpt><trkpt lat="43.0182689" lon="13.4074945"><ele>411.0</ele><time>2026-04-09T14:13:34.378Z</time></trkpt><trkpt lat="43.0183002" lon="13.4075883"><ele>411.0</ele><time>2026-04-09T14:13:36.375Z</time></trkpt><trkpt lat="43.018293" lon="13.4076789"><ele>411.0</ele><time>2026-04-09T14:13:37.375Z</time></trkpt><trkpt lat="43.0183034" lon="13.4077704"><ele>411.0</ele><time>2026-04-09T14:13:38.376Z</time></trkpt><trkpt lat="43.0183286" lon="13.407863"><ele>411.0</ele><time>2026-04-09T14:13:39.378Z</time></trkpt><trkpt lat="43.0183653" lon="13.407957"><ele>411.0</ele><time>2026-04-09T14:13:40.377Z</time></trkpt><trkpt lat="43.0184027" lon="13.408051"><ele>411.0</ele><time>2026-04-09T14:13:41.374Z</time></trkpt><trkpt lat="43.0184321" lon="13.4081436"><ele>411.0</ele><time>2026-04-09T14:13:42.374Z</time></trkpt><trkpt lat="43.0184551" lon="13.4082441"><ele>409.3333333333333</ele><time>2026-04-09T14:13:43.374Z</time></trkpt><trkpt lat="43.0184701" lon="13.4083531"><ele>407.66666666666663</ele><time>2026-04-09T14:13:44.374Z</time></trkpt><trkpt lat="43.018485" lon="13.4084697"><ele>406.0</ele><time>2026-04-09T14:13:45.373Z</time></trkpt><trkpt lat="43.0185009" lon="13.4085903"><ele>404.3333333333333</ele><time>2026-04-09T14:13:46.373Z</time></trkpt><trkpt lat="43.0185138" lon="13.4087172"><ele>402.66666666666663</ele><time>2026-04-09T14:13:47.373Z</time></trkpt><trkpt lat="43.0185307" lon="13.408843"><ele>401.0</ele><time>2026-04-09T14:13:48.377Z</time></trkpt><trkpt lat="43.018545" lon="13.4089701"><ele>400.99999999999994</ele><time>2026-04-09T14:13:49.377Z</time></trkpt><trkpt lat="43.0185595" lon="13.4090924"><ele>401.0</ele><time>2026-04-09T14:13:50.372Z</time></trkpt><trkpt lat="43.018569" lon="13.4092156"><ele>401.0</ele><time>2026-04-09T14:13:51.375Z</time></trkpt><trkpt lat="43.018576" lon="13.4093281"><ele>401.0</ele><time>2026-04-09T14:13:52.374Z</time></trkpt><trkpt lat="43.0185787" lon="13.4094297"><ele>400.99999999999994</ele><time>2026-04-09T14:13:53.373Z</time></trkpt><trkpt lat="43.0185654" lon="13.4095736"><ele>401.0</ele><time>2026-04-09T14:13:55.374Z</time></trkpt><trkpt lat="43.0185501" lon="13.4096749"><ele>401.66666666666663</ele><time>2026-04-09T14:14:51.372Z</time></trkpt><trkpt lat="43.0184925" lon="13.409752"><ele>402.3333333333333</ele><time>2026-04-09T14:14:53.372Z</time></trkpt><trkpt lat="43.0184405" lon="13.409826"><ele>403.0</ele><time>2026-04-09T14:14:54.377Z</time></trkpt><trkpt lat="43.0183961" lon="13.4099086"><ele>403.66666666666663</ele><time>2026-04-09T14:14:55.376Z</time></trkpt><trkpt lat="43.0183607" lon="13.4100017"><ele>404.3333333333333</ele><time>2026-04-09T14:14:56.378Z</time></trkpt><trkpt lat="43.0183551" lon="13.4101053"><ele>405.0</ele><time>2026-04-09T14:14:57.376Z</time></trkpt><trkpt lat="43.0183527" lon="13.4102188"><ele>405.0</ele><time>2026-04-09T14:14:58.374Z</time></trkpt><trkpt lat="43.0183499" lon="13.4103483"><ele>405.0</ele><time>2026-04-09T14:14:59.373Z</time></trkpt><trkpt lat="43.0183294" lon="13.4104804"><ele>405.0</ele><time>2026-04-09T14:15:00.374Z</time></trkpt><trkpt lat="43.0182899" lon="13.4106064"><ele>405.0</ele><time>2026-04-09T14:15:01.376Z</time></trkpt><trkpt lat="43.0182071" lon="13.410735"><ele>405.0</ele><time>2026-04-09T14:15:02.373Z</time></trkpt><trkpt lat="43.0180887" lon="13.4108514"><ele>402.0</ele><time>2026-04-09T14:15:03.375Z</time></trkpt><trkpt lat="43.0179596" lon="13.4109594"><ele>399.0</ele><time>2026-04-09T14:15:04.374Z</time></trkpt><trkpt lat="43.0178522" lon="13.4110511"><ele>396.0</ele><time>2026-04-09T14:15:05.377Z</time></trkpt><trkpt lat="43.0177703" lon="13.4111154"><ele>393.0</ele><time>2026-04-09T14:15:06.376Z</time></trkpt><trkpt lat="43.0177031" lon="13.4111612"><ele>390.0</ele><time>2026-04-09T14:15:07.376Z</time></trkpt><trkpt lat="43.0175963" lon="13.4111783"><ele>390.0</ele><time>2026-04-09T14:15:09.376Z</time></trkpt><trkpt lat="43.0175444" lon="13.4111144"><ele>390.0</ele><time>2026-04-09T14:15:10.377Z</time></trkpt><trkpt lat="43.0174896" lon="13.410999"><ele>390.0</ele><time>2026-04-09T14:15:11.376Z</time></trkpt><trkpt lat="43.0174322" lon="13.410857"><ele>390.0</ele><time>2026-04-09T14:15:12.377Z</time></trkpt><trkpt lat="43.0173698" lon="13.4107472"><ele>390.0</ele><time>2026-04-09T14:15:13.377Z</time></trkpt><trkpt lat="43.0173066" lon="13.4106714"><ele>386.25</ele><time>2026-04-09T14:15:14.376Z</time></trkpt><trkpt lat="43.0172274" lon="13.4106322"><ele>382.5</ele><time>2026-04-09T14:15:15.373Z</time></trkpt><trkpt lat="43.0171431" lon="13.4106236"><ele>378.75</ele><time>2026-04-09T14:15:16.377Z</time></trkpt><trkpt lat="43.0170261" lon="13.4106584"><ele>375.0</ele><time>2026-04-09T14:15:17.377Z</time></trkpt><trkpt lat="43.0168725" lon="13.4107385"><ele>375.0</ele><time>2026-04-09T14:15:18.375Z</time></trkpt><trkpt lat="43.0167098" lon="13.4108032"><ele>375.0</ele><time>2026-04-09T14:15:19.373Z</time></trkpt><trkpt lat="43.0165594" lon="13.4108441"><ele>375.0</ele><time>2026-04-09T14:15:20.375Z</time></trkpt><trkpt lat="43.0164192" lon="13.4108562"><ele>372.5</ele><time>2026-04-09T14:15:21.375Z</time></trkpt><trkpt lat="43.0162874" lon="13.4108612"><ele>370.0</ele><time>2026-04-09T14:15:22.375Z</time></trkpt><trkpt lat="43.0161636" lon="13.4108814"><ele>367.5</ele><time>2026-04-09T14:15:23.374Z</time></trkpt><trkpt lat="43.01605" lon="13.4109193"><ele>365.0</ele><time>2026-04-09T14:15:24.374Z</time></trkpt><trkpt lat="43.0159547" lon="13.4109624"><ele>365.0</ele><time>2026-04-09T14:15:25.374Z</time></trkpt><trkpt lat="43.0158735" lon="13.411012"><ele>365.0</ele><time>2026-04-09T14:15:26.375Z</time></trkpt><trkpt lat="43.0157953" lon="13.4110577"><ele>365.0</ele><time>2026-04-09T14:15:27.375Z</time></trkpt><trkpt lat="43.0157227" lon="13.4111006"><ele>365.0</ele><time>2026-04-09T14:15:28.375Z</time></trkpt><trkpt lat="43.0156506" lon="13.4111429"><ele>365.0</ele><time>2026-04-09T14:15:29.377Z</time></trkpt><trkpt lat="43.0155754" lon="13.4111844"><ele>365.0</ele><time>2026-04-09T14:15:30.373Z</time></trkpt><trkpt lat="43.0154964" lon="13.4112308"><ele>364.6</ele><time>2026-04-09T14:15:31.375Z</time></trkpt><trkpt lat="43.0154125" lon="13.4112748"><ele>364.2</ele><time>2026-04-09T14:15:32.374Z</time></trkpt><trkpt lat="43.0153255" lon="13.4113208"><ele>363.79999999999995</ele><time>2026-04-09T14:15:33.377Z</time></trkpt><trkpt lat="43.0152387" lon="13.4113676"><ele>363.4</ele><time>2026-04-09T14:15:34.377Z</time></trkpt><trkpt lat="43.015152" lon="13.4114159"><ele>363.0</ele><time>2026-04-09T14:15:35.375Z</time></trkpt><trkpt lat="43.0150607" lon="13.4114601"><ele>361.25</ele><time>2026-04-09T14:15:36.376Z</time></trkpt><trkpt lat="43.0149593" lon="13.4115173"><ele>359.5</ele><time>2026-04-09T14:15:37.377Z</time></trkpt><trkpt lat="43.0148492" lon="13.4115856"><ele>357.75</ele><time>2026-04-09T14:15:38.375Z</time></trkpt><trkpt lat="43.014735" lon="13.4116607"><ele>356.0</ele><time>2026-04-09T14:15:39.374Z</time></trkpt><trkpt lat="43.0146219" lon="13.4117365"><ele>356.0</ele><time>2026-04-09T14:15:40.378Z</time></trkpt><trkpt lat="43.014507" lon="13.4118119"><ele>356.0</ele><time>2026-04-09T14:15:41.377Z</time></trkpt><trkpt lat="43.0143889" lon="13.4118888"><ele>356.0</ele><time>2026-04-09T14:15:42.377Z</time></trkpt><trkpt lat="43.0142772" lon="13.4119654"><ele>356.0</ele><time>2026-04-09T14:15:43.377Z</time></trkpt><trkpt lat="43.0141854" lon="13.4120385"><ele>353.8</ele><time>2026-04-09T14:15:44.376Z</time></trkpt><trkpt lat="43.0141169" lon="13.4121191"><ele>351.6</ele><time>2026-04-09T14:15:45.378Z</time></trkpt><trkpt lat="43.0140703" lon="13.4122215"><ele>349.4</ele><time>2026-04-09T14:15:46.377Z</time></trkpt><trkpt lat="43.0140431" lon="13.412351"><ele>347.2</ele><time>2026-04-09T14:15:47.377Z</time></trkpt><trkpt lat="43.0140222" lon="13.412499"><ele>345.0</ele><time>2026-04-09T14:15:48.375Z</time></trkpt><trkpt lat="43.0139982" lon="13.4126502"><ele>344.75</ele><time>2026-04-09T14:15:49.374Z</time></trkpt><trkpt lat="43.0139654" lon="13.412798"><ele>344.5</ele><time>2026-04-09T14:15:50.374Z</time></trkpt><trkpt lat="43.0139093" lon="13.412947"><ele>344.25</ele><time>2026-04-09T14:15:51.376Z</time></trkpt><trkpt lat="43.0138298" lon="13.4130943"><ele>344.0</ele><time>2026-04-09T14:15:52.374Z</time></trkpt><trkpt lat="43.0137284" lon="13.4132327"><ele>344.0</ele><time>2026-04-09T14:15:53.375Z</time></trkpt><trkpt lat="43.0136198" lon="13.4133569"><ele>344.0</ele><time>2026-04-09T14:15:54.374Z</time></trkpt><trkpt lat="43.0135043" lon="13.4134718"><ele>344.0</ele><time>2026-04-09T14:15:55.375Z</time></trkpt><trkpt lat="43.0133855" lon="13.4135843"><ele>344.0</ele><time>2026-04-09T14:15:56.376Z</time></trkpt><trkpt lat="43.0132609" lon="13.4136956"><ele>342.75</ele><time>2026-04-09T14:15:57.374Z</time></trkpt><trkpt lat="43.0131351" lon="13.4138041"><ele>341.5</ele><time>2026-04-09T14:15:58.375Z</time></trkpt><trkpt lat="43.0130107" lon="13.4139066"><ele>340.25</ele><time>2026-04-09T14:15:59.378Z</time></trkpt><trkpt lat="43.0128912" lon="13.4139996"><ele>339.0</ele><time>2026-04-09T14:16:00.378Z</time></trkpt><trkpt lat="43.0127796" lon="13.4140805"><ele>339.0</ele><time>2026-04-09T14:16:01.377Z</time></trkpt><trkpt lat="43.0126863" lon="13.4141437"><ele>339.0</ele><time>2026-04-09T14:16:02.378Z</time></trkpt><trkpt lat="43.0126127" lon="13.4141913"><ele>339.0</ele><time>2026-04-09T14:16:03.377Z</time></trkpt><trkpt lat="43.0125511" lon="13.4142178"><ele>339.0</ele><time>2026-04-09T14:16:04.377Z</time></trkpt><trkpt lat="43.0124393" lon="13.4141859"><ele>339.0</ele><time>2026-04-09T14:16:06.374Z</time></trkpt><trkpt lat="43.012387" lon="13.4141208"><ele>339.0</ele><time>2026-04-09T14:16:07.377Z</time></trkpt><trkpt lat="43.0123492" lon="13.4140031"><ele>336.75</ele><time>2026-04-09T14:16:08.376Z</time></trkpt><trkpt lat="43.012328" lon="13.4138344"><ele>334.5</ele><time>2026-04-09T14:16:09.377Z</time></trkpt><trkpt lat="43.0123065" lon="13.4136369"><ele>332.25</ele><time>2026-04-09T14:16:10.377Z</time></trkpt><trkpt lat="43.0122736" lon="13.4134461"><ele>330.0</ele><time>2026-04-09T14:16:11.377Z</time></trkpt><trkpt lat="43.0122315" lon="13.4132757"><ele>329.1666666666667</ele><time>2026-04-09T14:16:12.377Z</time></trkpt><trkpt lat="43.0121872" lon="13.4131334"><ele>328.3333333333333</ele><time>2026-04-09T14:16:13.377Z</time></trkpt><trkpt lat="43.0121437" lon="13.4130265"><ele>327.5</ele><time>2026-04-09T14:16:14.377Z</time></trkpt><trkpt lat="43.012102" lon="13.4129522"><ele>326.66666666666663</ele><time>2026-04-09T14:16:15.377Z</time></trkpt><trkpt lat="43.0120382" lon="13.4128945"><ele>325.8333333333333</ele><time>2026-04-09T14:16:17.373Z</time></trkpt><trkpt lat="43.011942" lon="13.4129139"><ele>325.0</ele><time>2026-04-09T14:16:19.373Z</time></trkpt><trkpt lat="43.0118576" lon="13.4129213"><ele>324.8</ele><time>2026-04-09T14:16:20.375Z</time></trkpt><trkpt lat="43.0117686" lon="13.4129245"><ele>324.6</ele><time>2026-04-09T14:16:21.373Z</time></trkpt><trkpt lat="43.0116785" lon="13.4128907"><ele>324.4</ele><time>2026-04-09T14:16:22.374Z</time></trkpt><trkpt lat="43.0116009" lon="13.4128344"><ele>324.2</ele><time>2026-04-09T14:16:23.373Z</time></trkpt><trkpt lat="43.011535" lon="13.4127717"><ele>324.0</ele><time>2026-04-09T14:16:24.375Z</time></trkpt><trkpt lat="43.0114333" lon="13.4127417"><ele>324.0</ele><time>2026-04-09T14:16:26.374Z</time></trkpt><trkpt lat="43.0113433" lon="13.412795"><ele>324.0</ele><time>2026-04-09T14:16:28.374Z</time></trkpt><trkpt lat="43.0112883" lon="13.4128567"><ele>324.0</ele><time>2026-04-09T14:16:29.375Z</time></trkpt><trkpt lat="43.0112217" lon="13.412925"><ele>324.0</ele><time>2026-04-09T14:16:30.376Z</time></trkpt><trkpt lat="43.0111367" lon="13.4130283"><ele>324.0</ele><time>2026-04-09T14:16:31.373Z</time></trkpt><trkpt lat="43.0110617" lon="13.413155"><ele>323.6</ele><time>2026-04-09T14:16:32.375Z</time></trkpt><trkpt lat="43.0109983" lon="13.413285"><ele>323.2</ele><time>2026-04-09T14:16:33.375Z</time></trkpt><trkpt lat="43.0109317" lon="13.4134117"><ele>322.8</ele><time>2026-04-09T14:16:34.373Z</time></trkpt><trkpt lat="43.0108633" lon="13.4135217"><ele>322.40000000000003</ele><time>2026-04-09T14:16:35.375Z</time></trkpt><trkpt lat="43.0107883" lon="13.4136167"><ele>322.0</ele><time>2026-04-09T14:16:36.375Z</time></trkpt><trkpt lat="43.01071" lon="13.413685"><ele>321.8</ele><time>2026-04-09T14:16:37.375Z</time></trkpt><trkpt lat="43.0106267" lon="13.4137433"><ele>321.6</ele><time>2026-04-09T14:16:38.374Z</time></trkpt><trkpt lat="43.01053" lon="13.413795"><ele>321.40000000000003</ele><time>2026-04-09T14:16:39.375Z</time></trkpt><trkpt lat="43.0104333" lon="13.4138367"><ele>321.20000000000005</ele><time>2026-04-09T14:16:40.375Z</time></trkpt><trkpt lat="43.0103267" lon="13.4138817"><ele>321.0</ele><time>2026-04-09T14:16:41.375Z</time></trkpt><trkpt lat="43.01022" lon="13.4139233"><ele>321.0</ele><time>2026-04-09T14:16:42.374Z</time></trkpt><trkpt lat="43.01012" lon="13.413965"><ele>321.0</ele><time>2026-04-09T14:16:43.374Z</time></trkpt><trkpt lat="43.01003" lon="13.413995"><ele>321.0</ele><time>2026-04-09T14:16:44.378Z</time></trkpt><trkpt lat="43.009945" lon="13.4140083"><ele>321.0</ele><time>2026-04-09T14:16:45.378Z</time></trkpt><trkpt lat="43.0098767" lon="13.4139983"><ele>321.0</ele><time>2026-04-09T14:16:46.377Z</time></trkpt><trkpt lat="43.0098117" lon="13.4139733"><ele>321.0</ele><time>2026-04-09T14:16:47.374Z</time></trkpt><trkpt lat="43.0097233" lon="13.4138267"><ele>322.0</ele><time>2026-04-09T14:16:49.378Z</time></trkpt><trkpt lat="43.00969" lon="13.4137"><ele>323.0</ele><time>2026-04-09T14:16:50.373Z</time></trkpt><trkpt lat="43.00964" lon="13.4135833"><ele>324.0</ele><time>2026-04-09T14:16:51.374Z</time></trkpt><trkpt lat="43.009575" lon="13.4134533"><ele>325.0</ele><time>2026-04-09T14:16:52.375Z</time></trkpt><trkpt lat="43.009515" lon="13.4133067"><ele>326.0</ele><time>2026-04-09T14:16:53.375Z</time></trkpt><trkpt lat="43.0094433" lon="13.4131833"><ele>326.0</ele><time>2026-04-09T14:16:54.376Z</time></trkpt><trkpt lat="43.00938" lon="13.413095"><ele>326.0</ele><time>2026-04-09T14:16:55.374Z</time></trkpt><trkpt lat="43.0093133" lon="13.4130367"><ele>326.0</ele><time>2026-04-09T14:16:56.375Z</time></trkpt><trkpt lat="43.00925" lon="13.4130033"><ele>326.0</ele><time>2026-04-09T14:16:57.375Z</time></trkpt><trkpt lat="43.009185" lon="13.4129767"><ele>326.0</ele><time>2026-04-09T14:16:58.375Z</time></trkpt><trkpt lat="43.0090583" lon="13.4130767"><ele>327.8</ele><time>2026-04-09T14:17:00.375Z</time></trkpt><trkpt lat="43.0089733" lon="13.4131867"><ele>329.6</ele><time>2026-04-09T14:17:01.375Z</time></trkpt><trkpt lat="43.008895" lon="13.4132733"><ele>331.4</ele><time>2026-04-09T14:17:02.378Z</time></trkpt><trkpt lat="43.0088117" lon="13.4133667"><ele>333.2</ele><time>2026-04-09T14:17:03.376Z</time></trkpt><trkpt lat="43.0087183" lon="13.4134783"><ele>335.0</ele><time>2026-04-09T14:17:04.374Z</time></trkpt><trkpt lat="43.00863" lon="13.413595"><ele>335.0</ele><time>2026-04-09T14:17:05.374Z</time></trkpt><trkpt lat="43.00854" lon="13.413705"><ele>335.0</ele><time>2026-04-09T14:17:06.376Z</time></trkpt><trkpt lat="43.0084567" lon="13.4138317"><ele>335.0</ele><time>2026-04-09T14:17:07.374Z</time></trkpt><trkpt lat="43.00838" lon="13.4139517"><ele>335.0</ele><time>2026-04-09T14:17:08.374Z</time></trkpt><trkpt lat="43.00831" lon="13.414055"><ele>336.1666666666667</ele><time>2026-04-09T14:17:09.375Z</time></trkpt><trkpt lat="43.0082433" lon="13.4141417"><ele>337.33333333333337</ele><time>2026-04-09T14:17:10.375Z</time></trkpt><trkpt lat="43.0081833" lon="13.4142133"><ele>338.5</ele><time>2026-04-09T14:17:11.374Z</time></trkpt><trkpt lat="43.0081283" lon="13.4142717"><ele>339.6666666666667</ele><time>2026-04-09T14:17:12.375Z</time></trkpt><trkpt lat="43.0080667" lon="13.4143133"><ele>340.8333333333333</ele><time>2026-04-09T14:17:13.375Z</time></trkpt><trkpt lat="43.0080017" lon="13.4143533"><ele>342.0</ele><time>2026-04-09T14:17:14.378Z</time></trkpt><trkpt lat="43.0079267" lon="13.41444"><ele>342.0</ele><time>2026-04-09T14:17:16.377Z</time></trkpt><trkpt lat="43.0078533" lon="13.4145617"><ele>342.0</ele><time>2026-04-09T14:17:18.374Z</time></trkpt><trkpt lat="43.0078083" lon="13.4146417"><ele>342.0</ele><time>2026-04-09T14:17:19.375Z</time></trkpt><trkpt lat="43.0077583" lon="13.4147367"><ele>342.0</ele><time>2026-04-09T14:17:20.375Z</time></trkpt><trkpt lat="43.0077033" lon="13.41484"><ele>342.0</ele><time>2026-04-09T14:17:21.374Z</time></trkpt><trkpt lat="43.0076417" lon="13.414945"><ele>343.40000000000003</ele><time>2026-04-09T14:17:22.375Z</time></trkpt><trkpt lat="43.00758" lon="13.415055"><ele>344.8</ele><time>2026-04-09T14:17:23.375Z</time></trkpt><trkpt lat="43.0075283" lon="13.4151783"><ele>346.2</ele><time>2026-04-09T14:17:24.378Z</time></trkpt><trkpt lat="43.0075133" lon="13.41532"><ele>347.6</ele><time>2026-04-09T14:17:25.377Z</time></trkpt><trkpt lat="43.00752" lon="13.4154717"><ele>349.0</ele><time>2026-04-09T14:17:26.376Z</time></trkpt><trkpt lat="43.007555" lon="13.4156283"><ele>352.25</ele><time>2026-04-09T14:17:27.376Z</time></trkpt><trkpt lat="43.0076033" lon="13.415775"><ele>355.5</ele><time>2026-04-09T14:17:28.377Z</time></trkpt><trkpt lat="43.0076667" lon="13.4159117"><ele>358.75</ele><time>2026-04-09T14:17:29.377Z</time></trkpt><trkpt lat="43.0077433" lon="13.4160383"><ele>362.0</ele><time>2026-04-09T14:17:30.38Z</time></trkpt><trkpt lat="43.0078267" lon="13.4161667"><ele>362.0</ele><time>2026-04-09T14:17:31.378Z</time></trkpt><trkpt lat="43.0079183" lon="13.4162933"><ele>362.0</ele><time>2026-04-09T14:17:32.375Z</time></trkpt><trkpt lat="43.0080067" lon="13.416415"><ele>362.0</ele><time>2026-04-09T14:17:33.375Z</time></trkpt><trkpt lat="43.0080917" lon="13.416515"><ele>362.0</ele><time>2026-04-09T14:17:34.376Z</time></trkpt><trkpt lat="43.008175" lon="13.4166083"><ele>364.83333333333337</ele><time>2026-04-09T14:17:35.376Z</time></trkpt><trkpt lat="43.0082467" lon="13.4166933"><ele>367.6666666666667</ele><time>2026-04-09T14:17:36.377Z</time></trkpt><trkpt lat="43.008315" lon="13.4167667"><ele>370.5</ele><time>2026-04-09T14:17:37.375Z</time></trkpt><trkpt lat="43.0083783" lon="13.4168417"><ele>373.3333333333333</ele><time>2026-04-09T14:17:38.374Z</time></trkpt><trkpt lat="43.008435" lon="13.41691"><ele>376.16666666666663</ele><time>2026-04-09T14:17:39.377Z</time></trkpt><trkpt lat="43.0085067" lon="13.4170083"><ele>379.0</ele><time>2026-04-09T14:17:41.377Z</time></trkpt><trkpt lat="43.0085383" lon="13.41711"><ele>375.5</ele><time>2026-04-09T14:18:14.378Z</time></trkpt><trkpt lat="43.00862" lon="13.41724"><ele>372.0</ele><time>2026-04-09T14:18:16.378Z</time></trkpt><trkpt lat="43.008665" lon="13.4173083"><ele>368.5</ele><time>2026-04-09T14:18:17.377Z</time></trkpt><trkpt lat="43.008715" lon="13.4173833"><ele>365.0</ele><time>2026-04-09T14:18:18.378Z</time></trkpt><trkpt lat="43.0087717" lon="13.4174717"><ele>361.5</ele><time>2026-04-09T14:18:19.377Z</time></trkpt><trkpt lat="43.0088367" lon="13.4175683"><ele>358.0</ele><time>2026-04-09T14:18:20.378Z</time></trkpt><trkpt lat="43.00891" lon="13.4176767"><ele>358.0</ele><time>2026-04-09T14:18:21.378Z</time></trkpt><trkpt lat="43.008985" lon="13.41779"><ele>358.0</ele><time>2026-04-09T14:18:22.377Z</time></trkpt><trkpt lat="43.0090667" lon="13.4179133"><ele>358.0</ele><time>2026-04-09T14:18:23.377Z</time></trkpt><trkpt lat="43.0091483" lon="13.4180467"><ele>358.0</ele><time>2026-04-09T14:18:24.378Z</time></trkpt><trkpt lat="43.0092317" lon="13.4181817"><ele>355.25</ele><time>2026-04-09T14:18:25.378Z</time></trkpt><trkpt lat="43.0093217" lon="13.4183233"><ele>352.5</ele><time>2026-04-09T14:18:26.378Z</time></trkpt><trkpt lat="43.009415" lon="13.4184717"><ele>349.75</ele><time>2026-04-09T14:18:27.378Z</time></trkpt><trkpt lat="43.00951" lon="13.418615"><ele>347.0</ele><time>2026-04-09T14:18:28.377Z</time></trkpt><trkpt lat="43.0096" lon="13.4187567"><ele>350.0</ele><time>2026-04-09T14:18:29.378Z</time></trkpt><trkpt lat="43.0096917" lon="13.4188967"><ele>353.0</ele><time>2026-04-09T14:18:30.378Z</time></trkpt><trkpt lat="43.0097883" lon="13.41904"><ele>356.0</ele><time>2026-04-09T14:18:31.378Z</time></trkpt><trkpt lat="43.0098867" lon="13.4191917"><ele>359.0</ele><time>2026-04-09T14:18:32.378Z</time></trkpt><trkpt lat="43.0099883" lon="13.4193483"><ele>356.33333333333337</ele><time>2026-04-09T14:18:33.378Z</time></trkpt><trkpt lat="43.010095" lon="13.4195067"><ele>353.6666666666667</ele><time>2026-04-09T14:18:34.378Z</time></trkpt><trkpt lat="43.010205" lon="13.41966"><ele>351.0</ele><time>2026-04-09T14:18:35.374Z</time></trkpt><trkpt lat="43.0103217" lon="13.4197967"><ele>351.0</ele><time>2026-04-09T14:18:36.378Z</time></trkpt><trkpt lat="43.01045" lon="13.4199233"><ele>351.0</ele><time>2026-04-09T14:18:37.378Z</time></trkpt><trkpt lat="43.0105833" lon="13.4200467"><ele>351.0</ele><time>2026-04-09T14:18:38.377Z</time></trkpt><trkpt lat="43.01072" lon="13.42017"><ele>349.3333333333333</ele><time>2026-04-09T14:18:39.378Z</time></trkpt><trkpt lat="43.0108583" lon="13.4202883"><ele>347.66666666666663</ele><time>2026-04-09T14:18:40.378Z</time></trkpt><trkpt lat="43.0109983" lon="13.4204067"><ele>346.0</ele><time>2026-04-09T14:18:41.378Z</time></trkpt><trkpt lat="43.01114" lon="13.4205283"><ele>346.0</ele><time>2026-04-09T14:18:42.378Z</time></trkpt><trkpt lat="43.011275" lon="13.4206533"><ele>346.0</ele><time>2026-04-09T14:18:43.378Z</time></trkpt><trkpt lat="43.0114017" lon="13.4207767"><ele>346.0</ele><time>2026-04-09T14:18:44.378Z</time></trkpt><trkpt lat="43.0115233" lon="13.42091"><ele>346.0</ele><time>2026-04-09T14:18:45.378Z</time></trkpt><trkpt lat="43.0116283" lon="13.42106"><ele>346.0</ele><time>2026-04-09T14:18:46.378Z</time></trkpt><trkpt lat="43.0117233" lon="13.42122"><ele>346.0</ele><time>2026-04-09T14:18:47.378Z</time></trkpt><trkpt lat="43.0118033" lon="13.4213883"><ele>346.0</ele><time>2026-04-09T14:18:48.378Z</time></trkpt><trkpt lat="43.0118617" lon="13.4215583"><ele>345.25</ele><time>2026-04-09T14:18:49.377Z</time></trkpt><trkpt lat="43.011935" lon="13.4217017"><ele>344.5</ele><time>2026-04-09T14:18:50.378Z</time></trkpt><trkpt lat="43.01203" lon="13.4218167"><ele>343.75</ele><time>2026-04-09T14:18:51.377Z</time></trkpt><trkpt lat="43.0121417" lon="13.4218917"><ele>343.0</ele><time>2026-04-09T14:18:52.377Z</time></trkpt><trkpt lat="43.0122767" lon="13.42192"><ele>343.0</ele><time>2026-04-09T14:18:53.378Z</time></trkpt><trkpt lat="43.0124233" lon="13.42193"><ele>343.0</ele><time>2026-04-09T14:18:54.378Z</time></trkpt><trkpt lat="43.0125767" lon="13.421935"><ele>343.0</ele><time>2026-04-09T14:18:55.378Z</time></trkpt><trkpt lat="43.0127333" lon="13.4219433"><ele>341.3333333333333</ele><time>2026-04-09T14:18:56.375Z</time></trkpt><trkpt lat="43.0128967" lon="13.4219533"><ele>339.6666666666667</ele><time>2026-04-09T14:18:57.375Z</time></trkpt><trkpt lat="43.013055" lon="13.421965"><ele>338.0</ele><time>2026-04-09T14:18:58.375Z</time></trkpt><trkpt lat="43.013215" lon="13.42197"><ele>336.33333333333337</ele><time>2026-04-09T14:18:59.374Z</time></trkpt><trkpt lat="43.0133833" lon="13.421975"><ele>334.6666666666667</ele><time>2026-04-09T14:19:00.378Z</time></trkpt><trkpt lat="43.0135567" lon="13.4219833"><ele>333.0</ele><time>2026-04-09T14:19:01.378Z</time></trkpt><trkpt lat="43.01373" lon="13.4219917"><ele>333.0</ele><time>2026-04-09T14:19:02.378Z</time></trkpt><trkpt lat="43.0139033" lon="13.422"><ele>333.0</ele><time>2026-04-09T14:19:03.378Z</time></trkpt><trkpt lat="43.0140733" lon="13.422005"><ele>333.0</ele><time>2026-04-09T14:19:04.378Z</time></trkpt><trkpt lat="43.0142317" lon="13.4220117"><ele>332.75</ele><time>2026-04-09T14:19:05.377Z</time></trkpt><trkpt lat="43.0143783" lon="13.4220217"><ele>332.5</ele><time>2026-04-09T14:19:06.378Z</time></trkpt><trkpt lat="43.0145167" lon="13.4220417"><ele>332.25</ele><time>2026-04-09T14:19:07.375Z</time></trkpt><trkpt lat="43.014655" lon="13.4220867"><ele>332.0</ele><time>2026-04-09T14:19:08.378Z</time></trkpt><trkpt lat="43.0147833" lon="13.42217"><ele>332.33333333333337</ele><time>2026-04-09T14:19:09.378Z</time></trkpt><trkpt lat="43.014895" lon="13.422305"><ele>332.6666666666667</ele><time>2026-04-09T14:19:10.377Z</time></trkpt><trkpt lat="43.0149917" lon="13.4224617"><ele>333.0</ele><time>2026-04-09T14:19:11.378Z</time></trkpt><trkpt lat="43.01508" lon="13.422635"><ele>333.0</ele><time>2026-04-09T14:19:12.378Z</time></trkpt><trkpt lat="43.0151633" lon="13.4228167"><ele>333.0</ele><time>2026-04-09T14:19:13.378Z</time></trkpt><trkpt lat="43.01525" lon="13.4230033"><ele>333.0</ele><time>2026-04-09T14:19:14.379Z</time></trkpt><trkpt lat="43.01534" lon="13.4231933"><ele>333.6666666666667</ele><time>2026-04-09T14:19:15.373Z</time></trkpt><trkpt lat="43.0154333" lon="13.4233817"><ele>334.33333333333337</ele><time>2026-04-09T14:19:16.376Z</time></trkpt><trkpt lat="43.0155267" lon="13.4235683"><ele>335.0</ele><time>2026-04-09T14:19:17.375Z</time></trkpt><trkpt lat="43.01562" lon="13.423755"><ele>333.6666666666667</ele><time>2026-04-09T14:19:18.377Z</time></trkpt><trkpt lat="43.0157183" lon="13.4239367"><ele>332.3333333333333</ele><time>2026-04-09T14:19:19.377Z</time></trkpt><trkpt lat="43.015825" lon="13.42411"><ele>331.0</ele><time>2026-04-09T14:19:20.378Z</time></trkpt><trkpt lat="43.0159383" lon="13.424275"><ele>331.0</ele><time>2026-04-09T14:19:21.377Z</time></trkpt><trkpt lat="43.01606" lon="13.4244283"><ele>331.0</ele><time>2026-04-09T14:19:22.378Z</time></trkpt><trkpt lat="43.0161933" lon="13.424575"><ele>331.0</ele><time>2026-04-09T14:19:23.378Z</time></trkpt><trkpt lat="43.016325" lon="13.4247233"><ele>333.3333333333333</ele><time>2026-04-09T14:19:24.378Z</time></trkpt><trkpt lat="43.0164433" lon="13.4248833"><ele>335.6666666666667</ele><time>2026-04-09T14:19:25.378Z</time></trkpt><trkpt lat="43.016545" lon="13.425055"><ele>338.0</ele><time>2026-04-09T14:19:26.377Z</time></trkpt><trkpt lat="43.0166333" lon="13.4252433"><ele>337.33333333333337</ele><time>2026-04-09T14:19:27.377Z</time></trkpt><trkpt lat="43.0167083" lon="13.42545"><ele>336.6666666666667</ele><time>2026-04-09T14:19:28.378Z</time></trkpt><trkpt lat="43.0167833" lon="13.4256617"><ele>336.0</ele><time>2026-04-09T14:19:29.378Z</time></trkpt><trkpt lat="43.016855" lon="13.4258733"><ele>336.0</ele><time>2026-04-09T14:19:30.377Z</time></trkpt><trkpt lat="43.01693" lon="13.426085"><ele>336.0</ele><time>2026-04-09T14:19:31.377Z</time></trkpt><trkpt lat="43.01701" lon="13.42629"><ele>336.0</ele><time>2026-04-09T14:19:32.377Z</time></trkpt><trkpt lat="43.0171017" lon="13.4264833"><ele>339.6666666666667</ele><time>2026-04-09T14:19:33.377Z</time></trkpt><trkpt lat="43.0172117" lon="13.4266667"><ele>343.33333333333337</ele><time>2026-04-09T14:19:34.378Z</time></trkpt><trkpt lat="43.01734" lon="13.4268267"><ele>347.0</ele><time>2026-04-09T14:19:35.378Z</time></trkpt><trkpt lat="43.017485" lon="13.4269633"><ele>346.6666666666667</ele><time>2026-04-09T14:19:36.377Z</time></trkpt><trkpt lat="43.017635" lon="13.4270767"><ele>346.3333333333333</ele><time>2026-04-09T14:19:37.377Z</time></trkpt><trkpt lat="43.01779" lon="13.4271683"><ele>346.0</ele><time>2026-04-09T14:19:38.378Z</time></trkpt><trkpt lat="43.0179567" lon="13.4272367"><ele>346.0</ele><time>2026-04-09T14:19:39.377Z</time></trkpt><trkpt lat="43.01812" lon="13.4272917"><ele>346.0</ele><time>2026-04-09T14:19:40.378Z</time></trkpt><trkpt lat="43.018285" lon="13.42733"><ele>346.0</ele><time>2026-04-09T14:19:41.377Z</time></trkpt><trkpt lat="43.0184483" lon="13.427375"><ele>340.3333333333333</ele><time>2026-04-09T14:19:42.375Z</time></trkpt><trkpt lat="43.0186083" lon="13.42744"><ele>334.6666666666667</ele><time>2026-04-09T14:19:43.378Z</time></trkpt><trkpt lat="43.0187583" lon="13.4275367"><ele>329.0</ele><time>2026-04-09T14:19:44.378Z</time></trkpt><trkpt lat="43.0189017" lon="13.4276667"><ele>329.0</ele><time>2026-04-09T14:19:45.377Z</time></trkpt><trkpt lat="43.0190267" lon="13.4278083"><ele>329.0</ele><time>2026-04-09T14:19:46.377Z</time></trkpt><trkpt lat="43.01916" lon="13.42795"><ele>329.0</ele><time>2026-04-09T14:19:47.376Z</time></trkpt><trkpt lat="43.0192917" lon="13.4280883"><ele>329.6666666666667</ele><time>2026-04-09T14:19:48.377Z</time></trkpt><trkpt lat="43.0194333" lon="13.4282167"><ele>330.3333333333333</ele><time>2026-04-09T14:19:49.378Z</time></trkpt><trkpt lat="43.0195767" lon="13.4283417"><ele>331.0</ele><time>2026-04-09T14:19:50.378Z</time></trkpt><trkpt lat="43.0197233" lon="13.4284733"><ele>331.0</ele><time>2026-04-09T14:19:51.377Z</time></trkpt><trkpt lat="43.0198683" lon="13.4286133"><ele>331.0</ele><time>2026-04-09T14:19:52.377Z</time></trkpt><trkpt lat="43.0200083" lon="13.42876"><ele>331.0</ele><time>2026-04-09T14:19:53.375Z</time></trkpt><trkpt lat="43.02015" lon="13.4289117"><ele>329.66666666666663</ele><time>2026-04-09T14:19:54.374Z</time></trkpt><trkpt lat="43.0202817" lon="13.42907"><ele>328.3333333333333</ele><time>2026-04-09T14:19:55.377Z</time></trkpt><trkpt lat="43.020415" lon="13.4292383"><ele>327.0</ele><time>2026-04-09T14:19:56.378Z</time></trkpt><trkpt lat="43.02055" lon="13.4294067"><ele>327.0</ele><time>2026-04-09T14:19:57.377Z</time></trkpt><trkpt lat="43.0206783" lon="13.4295683"><ele>327.0</ele><time>2026-04-09T14:19:58.378Z</time></trkpt><trkpt lat="43.02081" lon="13.429735"><ele>327.0</ele><time>2026-04-09T14:19:59.378Z</time></trkpt><trkpt lat="43.0209367" lon="13.4299067"><ele>328.0</ele><time>2026-04-09T14:20:00.376Z</time></trkpt><trkpt lat="43.0210583" lon="13.4300933"><ele>329.0</ele><time>2026-04-09T14:20:01.375Z</time></trkpt><trkpt lat="43.02116" lon="13.4303"><ele>330.0</ele><time>2026-04-09T14:20:02.378Z</time></trkpt><trkpt lat="43.021235" lon="13.4305233"><ele>330.0</ele><time>2026-04-09T14:20:03.378Z</time></trkpt><trkpt lat="43.0213017" lon="13.4307533"><ele>330.0</ele><time>2026-04-09T14:20:04.377Z</time></trkpt><trkpt lat="43.0213583" lon="13.430985"><ele>330.0</ele><time>2026-04-09T14:20:05.376Z</time></trkpt><trkpt lat="43.0214067" lon="13.43123"><ele>331.3333333333333</ele><time>2026-04-09T14:20:06.374Z</time></trkpt><trkpt lat="43.0214567" lon="13.4314783"><ele>332.66666666666663</ele><time>2026-04-09T14:20:07.377Z</time></trkpt><trkpt lat="43.0215" lon="13.4317233"><ele>334.0</ele><time>2026-04-09T14:20:08.379Z</time></trkpt><trkpt lat="43.0215417" lon="13.4319733"><ele>334.66666666666663</ele><time>2026-04-09T14:20:09.379Z</time></trkpt><trkpt lat="43.0215767" lon="13.4322333"><ele>335.3333333333333</ele><time>2026-04-09T14:20:10.375Z</time></trkpt><trkpt lat="43.0215967" lon="13.4325"><ele>336.0</ele><time>2026-04-09T14:20:11.373Z</time></trkpt><trkpt lat="43.02161" lon="13.4327583"><ele>335.6666666666667</ele><time>2026-04-09T14:20:12.375Z</time></trkpt><trkpt lat="43.0216167" lon="13.433035"><ele>335.33333333333337</ele><time>2026-04-09T14:20:13.377Z</time></trkpt><trkpt lat="43.0216117" lon="13.433305"><ele>335.0</ele><time>2026-04-09T14:20:14.375Z</time></trkpt><trkpt lat="43.02161" lon="13.4335633"><ele>333.33333333333337</ele><time>2026-04-09T14:20:15.377Z</time></trkpt><trkpt lat="43.021605" lon="13.4338217"><ele>331.6666666666667</ele><time>2026-04-09T14:20:16.375Z</time></trkpt><trkpt lat="43.02159" lon="13.4340883"><ele>330.0</ele><time>2026-04-09T14:20:17.375Z</time></trkpt><trkpt lat="43.021585" lon="13.434335"><ele>330.0</ele><time>2026-04-09T14:20:18.374Z</time></trkpt><trkpt lat="43.0215767" lon="13.4345783"><ele>330.0</ele><time>2026-04-09T14:20:19.374Z</time></trkpt><trkpt lat="43.021565" lon="13.4348217"><ele>330.0</ele><time>2026-04-09T14:20:20.374Z</time></trkpt><trkpt lat="43.0215517" lon="13.435065"><ele>327.6666666666667</ele><time>2026-04-09T14:20:21.377Z</time></trkpt><trkpt lat="43.0215517" lon="13.43531"><ele>325.33333333333337</ele><time>2026-04-09T14:20:22.378Z</time></trkpt><trkpt lat="43.0215767" lon="13.4355583"><ele>323.0</ele><time>2026-04-09T14:20:23.378Z</time></trkpt><trkpt lat="43.0216033" lon="13.4358033"><ele>322.6666666666667</ele><time>2026-04-09T14:20:24.378Z</time></trkpt><trkpt lat="43.0216283" lon="13.4360483"><ele>322.3333333333333</ele><time>2026-04-09T14:20:25.373Z</time></trkpt><trkpt lat="43.0216583" lon="13.43629"><ele>322.0</ele><time>2026-04-09T14:20:26.376Z</time></trkpt><trkpt lat="43.0216883" lon="13.4365367"><ele>321.0</ele><time>2026-04-09T14:20:27.375Z</time></trkpt><trkpt lat="43.0217217" lon="13.436775"><ele>320.0</ele><time>2026-04-09T14:20:28.377Z</time></trkpt><trkpt lat="43.0217533" lon="13.4370117"><ele>319.0</ele><time>2026-04-09T14:20:29.376Z</time></trkpt><trkpt lat="43.0217833" lon="13.4372483"><ele>319.0</ele><time>2026-04-09T14:20:30.378Z</time></trkpt><trkpt lat="43.021815" lon="13.4374783"><ele>319.0</ele><time>2026-04-09T14:20:31.375Z</time></trkpt><trkpt lat="43.0218467" lon="13.4377033"><ele>319.0</ele><time>2026-04-09T14:20:32.376Z</time></trkpt><trkpt lat="43.0218667" lon="13.437925"><ele>318.66666666666663</ele><time>2026-04-09T14:20:33.373Z</time></trkpt><trkpt lat="43.0218817" lon="13.4381367"><ele>318.3333333333333</ele><time>2026-04-09T14:20:34.374Z</time></trkpt><trkpt lat="43.0218733" lon="13.4383467"><ele>318.0</ele><time>2026-04-09T14:20:35.376Z</time></trkpt><trkpt lat="43.0218517" lon="13.43856"><ele>318.0</ele><time>2026-04-09T14:20:36.375Z</time></trkpt><trkpt lat="43.0218533" lon="13.4387717"><ele>318.0</ele><time>2026-04-09T14:20:37.378Z</time></trkpt><trkpt lat="43.0218833" lon="13.43898"><ele>318.0</ele><time>2026-04-09T14:20:38.378Z</time></trkpt><trkpt lat="43.021945" lon="13.4391833"><ele>317.6666666666667</ele><time>2026-04-09T14:20:39.378Z</time></trkpt><trkpt lat="43.0220267" lon="13.43938"><ele>317.33333333333337</ele><time>2026-04-09T14:20:40.378Z</time></trkpt><trkpt lat="43.0221233" lon="13.439565"><ele>317.0</ele><time>2026-04-09T14:20:41.377Z</time></trkpt><trkpt lat="43.022225" lon="13.4397417"><ele>313.6666666666667</ele><time>2026-04-09T14:20:42.378Z</time></trkpt><trkpt lat="43.02233" lon="13.4399217"><ele>310.3333333333333</ele><time>2026-04-09T14:20:43.378Z</time></trkpt><trkpt lat="43.0224283" lon="13.440105"><ele>307.0</ele><time>2026-04-09T14:20:44.378Z</time></trkpt><trkpt lat="43.022525" lon="13.4402983"><ele>310.3333333333333</ele><time>2026-04-09T14:20:45.374Z</time></trkpt><trkpt lat="43.02262" lon="13.4404933"><ele>313.6666666666667</ele><time>2026-04-09T14:20:46.378Z</time></trkpt><trkpt lat="43.0227117" lon="13.4406917"><ele>317.0</ele><time>2026-04-09T14:20:47.374Z</time></trkpt><trkpt lat="43.022795" lon="13.4408917"><ele>317.0</ele><time>2026-04-09T14:20:48.379Z</time></trkpt><trkpt lat="43.0228683" lon="13.4410983"><ele>317.0</ele><time>2026-04-09T14:20:49.378Z</time></trkpt><trkpt lat="43.0229267" lon="13.441315"><ele>317.0</ele><time>2026-04-09T14:20:50.378Z</time></trkpt><trkpt lat="43.0229667" lon="13.4415433"><ele>318.6666666666667</ele><time>2026-04-09T14:20:51.375Z</time></trkpt><trkpt lat="43.0229867" lon="13.441775"><ele>320.3333333333333</ele><time>2026-04-09T14:20:52.373Z</time></trkpt><trkpt lat="43.0229867" lon="13.4420033"><ele>322.0</ele><time>2026-04-09T14:20:53.377Z</time></trkpt><trkpt lat="43.0229767" lon="13.442235"><ele>322.0</ele><time>2026-04-09T14:20:54.376Z</time></trkpt><trkpt lat="43.0229617" lon="13.4424683"><ele>322.0</ele><time>2026-04-09T14:20:55.378Z</time></trkpt><trkpt lat="43.0229433" lon="13.4427033"><ele>322.0</ele><time>2026-04-09T14:20:56.375Z</time></trkpt><trkpt lat="43.02292" lon="13.4429367"><ele>320.66666666666663</ele><time>2026-04-09T14:20:57.376Z</time></trkpt><trkpt lat="43.0228967" lon="13.4431717"><ele>319.3333333333333</ele><time>2026-04-09T14:20:58.375Z</time></trkpt><trkpt lat="43.0228733" lon="13.4434067"><ele>318.0</ele><time>2026-04-09T14:20:59.374Z</time></trkpt><trkpt lat="43.0228517" lon="13.4436417"><ele>319.3333333333333</ele><time>2026-04-09T14:21:00.378Z</time></trkpt><trkpt lat="43.0228333" lon="13.44388"><ele>320.66666666666663</ele><time>2026-04-09T14:21:01.375Z</time></trkpt><trkpt lat="43.0228133" lon="13.4441233"><ele>322.0</ele><time>2026-04-09T14:21:02.375Z</time></trkpt><trkpt lat="43.0227933" lon="13.4443617"><ele>322.0</ele><time>2026-04-09T14:21:03.375Z</time></trkpt><trkpt lat="43.0227683" lon="13.4445883"><ele>322.0</ele><time>2026-04-09T14:21:04.376Z</time></trkpt><trkpt lat="43.02274" lon="13.44481"><ele>322.0</ele><time>2026-04-09T14:21:05.374Z</time></trkpt><trkpt lat="43.0227033" lon="13.44502"><ele>321.66666666666663</ele><time>2026-04-09T14:21:06.374Z</time></trkpt><trkpt lat="43.0226733" lon="13.4452383"><ele>321.3333333333333</ele><time>2026-04-09T14:21:07.373Z</time></trkpt><trkpt lat="43.0226567" lon="13.4454617"><ele>321.0</ele><time>2026-04-09T14:21:08.377Z</time></trkpt><trkpt lat="43.022665" lon="13.4456867"><ele>321.6666666666667</ele><time>2026-04-09T14:21:09.376Z</time></trkpt><trkpt lat="43.0226917" lon="13.4459167"><ele>322.33333333333337</ele><time>2026-04-09T14:21:10.377Z</time></trkpt><trkpt lat="43.0227467" lon="13.4461383"><ele>323.0</ele><time>2026-04-09T14:21:11.378Z</time></trkpt><trkpt lat="43.0228033" lon="13.4463583"><ele>323.0</ele><time>2026-04-09T14:21:12.377Z</time></trkpt><trkpt lat="43.0228683" lon="13.4465767"><ele>323.0</ele><time>2026-04-09T14:21:13.375Z</time></trkpt><trkpt lat="43.0229333" lon="13.4467967"><ele>323.0</ele><time>2026-04-09T14:21:14.377Z</time></trkpt><trkpt lat="43.0230017" lon="13.4470117"><ele>322.6666666666667</ele><time>2026-04-09T14:21:15.376Z</time></trkpt><trkpt lat="43.0230783" lon="13.4472217"><ele>322.3333333333333</ele><time>2026-04-09T14:21:16.377Z</time></trkpt><trkpt lat="43.0231567" lon="13.4474283"><ele>322.0</ele><time>2026-04-09T14:21:17.377Z</time></trkpt><trkpt lat="43.0232317" lon="13.447635"><ele>322.0</ele><time>2026-04-09T14:21:18.377Z</time></trkpt><trkpt lat="43.02328" lon="13.44784"><ele>322.0</ele><time>2026-04-09T14:21:19.376Z</time></trkpt><trkpt lat="43.0233117" lon="13.4480517"><ele>322.0</ele><time>2026-04-09T14:21:20.375Z</time></trkpt><trkpt lat="43.0233067" lon="13.44827"><ele>322.0</ele><time>2026-04-09T14:21:21.374Z</time></trkpt><trkpt lat="43.0232817" lon="13.4484817"><ele>322.0</ele><time>2026-04-09T14:21:22.373Z</time></trkpt><trkpt lat="43.0232333" lon="13.4486883"><ele>322.0</ele><time>2026-04-09T14:21:23.374Z</time></trkpt><trkpt lat="43.0231633" lon="13.44889"><ele>320.0</ele><time>2026-04-09T14:21:24.373Z</time></trkpt><trkpt lat="43.02308" lon="13.449085"><ele>318.0</ele><time>2026-04-09T14:21:25.373Z</time></trkpt><trkpt lat="43.0229833" lon="13.44928"><ele>316.0</ele><time>2026-04-09T14:21:26.376Z</time></trkpt><trkpt lat="43.0228883" lon="13.4494717"><ele>312.0</ele><time>2026-04-09T14:21:27.377Z</time></trkpt><trkpt lat="43.0227917" lon="13.449675"><ele>308.0</ele><time>2026-04-09T14:21:28.374Z</time></trkpt><trkpt lat="43.022695" lon="13.4498817"><ele>304.0</ele><time>2026-04-09T14:21:29.374Z</time></trkpt><trkpt lat="43.0225833" lon="13.450065"><ele>307.66666666666663</ele><time>2026-04-09T14:21:30.374Z</time></trkpt><trkpt lat="43.0224767" lon="13.4502583"><ele>311.3333333333333</ele><time>2026-04-09T14:21:31.375Z</time></trkpt><trkpt lat="43.02236" lon="13.45043"><ele>315.0</ele><time>2026-04-09T14:21:32.374Z</time></trkpt><trkpt lat="43.0222333" lon="13.450605"><ele>315.0</ele><time>2026-04-09T14:21:33.376Z</time></trkpt><trkpt lat="43.0221167" lon="13.4507733"><ele>315.0</ele><time>2026-04-09T14:21:34.377Z</time></trkpt><trkpt lat="43.02202" lon="13.450955"><ele>315.0</ele><time>2026-04-09T14:21:35.376Z</time></trkpt><trkpt lat="43.0219317" lon="13.4511483"><ele>313.0</ele><time>2026-04-09T14:21:36.374Z</time></trkpt><trkpt lat="43.0218567" lon="13.451355"><ele>311.0</ele><time>2026-04-09T14:21:37.378Z</time></trkpt><trkpt lat="43.0218083" lon="13.4515783"><ele>309.0</ele><time>2026-04-09T14:21:38.377Z</time></trkpt><trkpt lat="43.0217733" lon="13.451795"><ele>309.0</ele><time>2026-04-09T14:21:39.377Z</time></trkpt><trkpt lat="43.0217467" lon="13.4520217"><ele>309.0</ele><time>2026-04-09T14:21:40.377Z</time></trkpt><trkpt lat="43.0217317" lon="13.4522567"><ele>309.0</ele><time>2026-04-09T14:21:41.375Z</time></trkpt><trkpt lat="43.0217167" lon="13.45249"><ele>308.3333333333333</ele><time>2026-04-09T14:21:42.375Z</time></trkpt><trkpt lat="43.0217033" lon="13.4527167"><ele>307.66666666666663</ele><time>2026-04-09T14:21:43.375Z</time></trkpt><trkpt lat="43.0216933" lon="13.4529433"><ele>307.0</ele><time>2026-04-09T14:21:44.375Z</time></trkpt><trkpt lat="43.021685" lon="13.4531683"><ele>306.0</ele><time>2026-04-09T14:21:45.375Z</time></trkpt><trkpt lat="43.021675" lon="13.4533933"><ele>305.0</ele><time>2026-04-09T14:21:46.375Z</time></trkpt><trkpt lat="43.0216767" lon="13.4536233"><ele>304.0</ele><time>2026-04-09T14:21:47.374Z</time></trkpt><trkpt lat="43.0216867" lon="13.453845"><ele>304.0</ele><time>2026-04-09T14:21:48.377Z</time></trkpt><trkpt lat="43.0217" lon="13.45406"><ele>304.0</ele><time>2026-04-09T14:21:49.377Z</time></trkpt><trkpt lat="43.0217183" lon="13.4542767"><ele>304.0</ele><time>2026-04-09T14:21:50.374Z</time></trkpt><trkpt lat="43.0217533" lon="13.4544917"><ele>308.3333333333333</ele><time>2026-04-09T14:21:51.374Z</time></trkpt><trkpt lat="43.0218017" lon="13.4547017"><ele>312.6666666666667</ele><time>2026-04-09T14:21:52.374Z</time></trkpt><trkpt lat="43.021855" lon="13.4549167"><ele>317.0</ele><time>2026-04-09T14:21:53.373Z</time></trkpt><trkpt lat="43.0219167" lon="13.455125"><ele>317.0</ele><time>2026-04-09T14:21:54.374Z</time></trkpt><trkpt lat="43.021985" lon="13.455335"><ele>317.0</ele><time>2026-04-09T14:21:55.374Z</time></trkpt><trkpt lat="43.0220567" lon="13.4555383"><ele>317.0</ele><time>2026-04-09T14:21:56.378Z</time></trkpt><trkpt lat="43.022135" lon="13.455725"><ele>317.0</ele><time>2026-04-09T14:21:57.377Z</time></trkpt><trkpt lat="43.0222167" lon="13.4559083"><ele>317.0</ele><time>2026-04-09T14:21:58.377Z</time></trkpt><trkpt lat="43.0223" lon="13.4560967"><ele>317.0</ele><time>2026-04-09T14:21:59.377Z</time></trkpt><trkpt lat="43.022385" lon="13.4562817"><ele>317.33333333333337</ele><time>2026-04-09T14:22:00.377Z</time></trkpt><trkpt lat="43.0224633" lon="13.4564633"><ele>317.6666666666667</ele><time>2026-04-09T14:22:01.376Z</time></trkpt><trkpt lat="43.022545" lon="13.45665"><ele>318.0</ele><time>2026-04-09T14:22:02.378Z</time></trkpt><trkpt lat="43.0226333" lon="13.456835"><ele>314.0</ele><time>2026-04-09T14:22:03.376Z</time></trkpt><trkpt lat="43.0227317" lon="13.4570117"><ele>310.0</ele><time>2026-04-09T14:22:04.376Z</time></trkpt><trkpt lat="43.022845" lon="13.4571683"><ele>306.0</ele><time>2026-04-09T14:22:05.377Z</time></trkpt><trkpt lat="43.0229783" lon="13.45729"><ele>306.0</ele><time>2026-04-09T14:22:06.376Z</time></trkpt><trkpt lat="43.023115" lon="13.45739"><ele>306.0</ele><time>2026-04-09T14:22:07.376Z</time></trkpt><trkpt lat="43.0232517" lon="13.4574717"><ele>306.0</ele><time>2026-04-09T14:22:08.377Z</time></trkpt><trkpt lat="43.0233767" lon="13.4575317"><ele>306.0</ele><time>2026-04-09T14:22:09.376Z</time></trkpt><trkpt lat="43.0235083" lon="13.4575767"><ele>303.75</ele><time>2026-04-09T14:22:10.377Z</time></trkpt><trkpt lat="43.0236433" lon="13.4575867"><ele>301.5</ele><time>2026-04-09T14:22:11.375Z</time></trkpt><trkpt lat="43.023785" lon="13.45755"><ele>299.25</ele><time>2026-04-09T14:22:12.375Z</time></trkpt><trkpt lat="43.0239217" lon="13.457505"><ele>297.0</ele><time>2026-04-09T14:22:13.377Z</time></trkpt><trkpt lat="43.0240567" lon="13.4575"><ele>297.0</ele><time>2026-04-09T14:22:14.378Z</time></trkpt><trkpt lat="43.0241733" lon="13.4575317"><ele>297.0</ele><time>2026-04-09T14:22:15.377Z</time></trkpt><trkpt lat="43.0242717" lon="13.4576083"><ele>297.0</ele><time>2026-04-09T14:22:16.373Z</time></trkpt><trkpt lat="43.024345" lon="13.4577317"><ele>297.0</ele><time>2026-04-09T14:22:17.378Z</time></trkpt><trkpt lat="43.02437" lon="13.4578733"><ele>297.25</ele><time>2026-04-09T14:22:18.374Z</time></trkpt><trkpt lat="43.0243567" lon="13.4580167"><ele>297.5</ele><time>2026-04-09T14:22:19.374Z</time></trkpt><trkpt lat="43.0243233" lon="13.4581617"><ele>297.75</ele><time>2026-04-09T14:22:20.374Z</time></trkpt><trkpt lat="43.0242817" lon="13.458325"><ele>298.0</ele><time>2026-04-09T14:22:21.375Z</time></trkpt><trkpt lat="43.0242567" lon="13.458495"><ele>298.0</ele><time>2026-04-09T14:22:22.377Z</time></trkpt><trkpt lat="43.0242667" lon="13.4586733"><ele>298.0</ele><time>2026-04-09T14:22:23.377Z</time></trkpt><trkpt lat="43.0242933" lon="13.458845"><ele>298.0</ele><time>2026-04-09T14:22:24.374Z</time></trkpt><trkpt lat="43.0243333" lon="13.4590033"><ele>298.0</ele><time>2026-04-09T14:22:25.373Z</time></trkpt><trkpt lat="43.0244017" lon="13.459145"><ele>298.75</ele><time>2026-04-09T14:22:26.377Z</time></trkpt><trkpt lat="43.024505" lon="13.459235"><ele>299.5</ele><time>2026-04-09T14:22:27.377Z</time></trkpt><trkpt lat="43.0246167" lon="13.4592833"><ele>300.25</ele><time>2026-04-09T14:22:28.376Z</time></trkpt><trkpt lat="43.0247383" lon="13.4592767"><ele>301.0</ele><time>2026-04-09T14:22:29.376Z</time></trkpt><trkpt lat="43.0248633" lon="13.45925"><ele>298.25</ele><time>2026-04-09T14:22:30.377Z</time></trkpt><trkpt lat="43.0249817" lon="13.459255"><ele>295.5</ele><time>2026-04-09T14:22:31.377Z</time></trkpt><trkpt lat="43.0250833" lon="13.4593233"><ele>292.75</ele><time>2026-04-09T14:22:32.377Z</time></trkpt><trkpt lat="43.0251733" lon="13.4594383"><ele>290.0</ele><time>2026-04-09T14:22:33.377Z</time></trkpt><trkpt lat="43.0252517" lon="13.4595867"><ele>292.25</ele><time>2026-04-09T14:22:34.377Z</time></trkpt><trkpt lat="43.02533" lon="13.45974"><ele>294.5</ele><time>2026-04-09T14:22:35.377Z</time></trkpt><trkpt lat="43.02541" lon="13.4598983"><ele>296.75</ele><time>2026-04-09T14:22:36.377Z</time></trkpt><trkpt lat="43.0254883" lon="13.4600683"><ele>299.0</ele><time>2026-04-09T14:22:37.374Z</time></trkpt><trkpt lat="43.0255467" lon="13.4602417"><ele>299.0</ele><time>2026-04-09T14:22:38.378Z</time></trkpt><trkpt lat="43.02557" lon="13.460405"><ele>299.0</ele><time>2026-04-09T14:22:39.373Z</time></trkpt><trkpt lat="43.025565" lon="13.4605583"><ele>299.0</ele><time>2026-04-09T14:22:40.377Z</time></trkpt><trkpt lat="43.0255283" lon="13.4606883"><ele>299.0</ele><time>2026-04-09T14:22:41.373Z</time></trkpt><trkpt lat="43.025435" lon="13.460785"><ele>297.5</ele><time>2026-04-09T14:22:42.377Z</time></trkpt><trkpt lat="43.025305" lon="13.4608567"><ele>296.0</ele><time>2026-04-09T14:22:43.377Z</time></trkpt><trkpt lat="43.02518" lon="13.46094"><ele>294.5</ele><time>2026-04-09T14:22:44.373Z</time></trkpt><trkpt lat="43.02506" lon="13.461035"><ele>293.0</ele><time>2026-04-09T14:22:45.374Z</time></trkpt><trkpt lat="43.0249517" lon="13.4611267"><ele>293.0</ele><time>2026-04-09T14:22:46.377Z</time></trkpt><trkpt lat="43.0248483" lon="13.4612133"><ele>293.0</ele><time>2026-04-09T14:22:47.374Z</time></trkpt><trkpt lat="43.02474" lon="13.4612683"><ele>293.0</ele><time>2026-04-09T14:22:48.376Z</time></trkpt><trkpt lat="43.02463" lon="13.461285"><ele>293.0</ele><time>2026-04-09T14:22:49.375Z</time></trkpt><trkpt lat="43.0245117" lon="13.4612583"><ele>293.0</ele><time>2026-04-09T14:22:50.377Z</time></trkpt><trkpt lat="43.024395" lon="13.4612133"><ele>293.0</ele><time>2026-04-09T14:22:51.377Z</time></trkpt><trkpt lat="43.0242733" lon="13.46117"><ele>293.0</ele><time>2026-04-09T14:22:52.376Z</time></trkpt><trkpt lat="43.0241467" lon="13.4611467"><ele>293.0</ele><time>2026-04-09T14:22:53.374Z</time></trkpt><trkpt lat="43.0240117" lon="13.4611417"><ele>294.0</ele><time>2026-04-09T14:22:54.374Z</time></trkpt><trkpt lat="43.0238883" lon="13.461165"><ele>295.0</ele><time>2026-04-09T14:22:55.375Z</time></trkpt><trkpt lat="43.0237633" lon="13.461215"><ele>296.0</ele><time>2026-04-09T14:22:56.377Z</time></trkpt><trkpt lat="43.0236533" lon="13.4612817"><ele>297.0</ele><time>2026-04-09T14:22:57.377Z</time></trkpt><trkpt lat="43.0235567" lon="13.46137"><ele>293.8</ele><time>2026-04-09T14:22:58.376Z</time></trkpt><trkpt lat="43.0234733" lon="13.46148"><ele>290.6</ele><time>2026-04-09T14:22:59.374Z</time></trkpt><trkpt lat="43.023415" lon="13.46161"><ele>287.40000000000003</ele><time>2026-04-09T14:23:00.377Z</time></trkpt><trkpt lat="43.0234117" lon="13.461755"><ele>284.2</ele><time>2026-04-09T14:23:01.377Z</time></trkpt><trkpt lat="43.0234417" lon="13.461905"><ele>281.0</ele><time>2026-04-09T14:23:02.377Z</time></trkpt><trkpt lat="43.0234883" lon="13.4620283"><ele>282.8</ele><time>2026-04-09T14:23:03.377Z</time></trkpt><trkpt lat="43.0235583" lon="13.462135"><ele>284.6</ele><time>2026-04-09T14:23:04.377Z</time></trkpt><trkpt lat="43.023635" lon="13.4621983"><ele>286.4</ele><time>2026-04-09T14:23:05.377Z</time></trkpt><trkpt lat="43.02373" lon="13.4622117"><ele>288.2</ele><time>2026-04-09T14:23:06.375Z</time></trkpt><trkpt lat="43.02383" lon="13.4622117"><ele>290.0</ele><time>2026-04-09T14:23:07.375Z</time></trkpt><trkpt lat="43.023925" lon="13.4622383"><ele>290.0</ele><time>2026-04-09T14:23:08.374Z</time></trkpt><trkpt lat="43.0240283" lon="13.46232"><ele>290.0</ele><time>2026-04-09T14:23:09.375Z</time></trkpt><trkpt lat="43.0241133" lon="13.4624283"><ele>290.0</ele><time>2026-04-09T14:23:10.375Z</time></trkpt><trkpt lat="43.0241983" lon="13.4625617"><ele>290.0</ele><time>2026-04-09T14:23:11.374Z</time></trkpt><trkpt lat="43.0242867" lon="13.4627033"><ele>288.75</ele><time>2026-04-09T14:23:12.374Z</time></trkpt><trkpt lat="43.0243867" lon="13.4628133"><ele>287.5</ele><time>2026-04-09T14:23:13.377Z</time></trkpt><trkpt lat="43.0244967" lon="13.46289"><ele>286.25</ele><time>2026-04-09T14:23:14.377Z</time></trkpt><trkpt lat="43.0246117" lon="13.4629433"><ele>285.0</ele><time>2026-04-09T14:23:15.374Z</time></trkpt><trkpt lat="43.0247633" lon="13.46293"><ele>285.0</ele><time>2026-04-09T14:23:16.377Z</time></trkpt><trkpt lat="43.0248783" lon="13.462915"><ele>285.0</ele><time>2026-04-09T14:23:17.375Z</time></trkpt><trkpt lat="43.0250167" lon="13.46294"><ele>285.0</ele><time>2026-04-09T14:23:18.375Z</time></trkpt><trkpt lat="43.0251417" lon="13.4630017"><ele>285.0</ele><time>2026-04-09T14:23:19.374Z</time></trkpt><trkpt lat="43.02525" lon="13.4631083"><ele>285.3333333333333</ele><time>2026-04-09T14:23:20.375Z</time></trkpt><trkpt lat="43.0253567" lon="13.46325"><ele>285.66666666666663</ele><time>2026-04-09T14:23:21.375Z</time></trkpt><trkpt lat="43.0254633" lon="13.4633967"><ele>286.0</ele><time>2026-04-09T14:23:22.375Z</time></trkpt><trkpt lat="43.025565" lon="13.46355"><ele>286.0</ele><time>2026-04-09T14:23:23.376Z</time></trkpt><trkpt lat="43.0256683" lon="13.4636917"><ele>286.0</ele><time>2026-04-09T14:23:24.377Z</time></trkpt><trkpt lat="43.02577" lon="13.4638383"><ele>286.0</ele><time>2026-04-09T14:23:25.377Z</time></trkpt><trkpt lat="43.025865" lon="13.4639983"><ele>286.0</ele><time>2026-04-09T14:23:26.377Z</time></trkpt><trkpt lat="43.0259467" lon="13.46417"><ele>285.25</ele><time>2026-04-09T14:23:27.378Z</time></trkpt><trkpt lat="43.0260167" lon="13.4643467"><ele>284.5</ele><time>2026-04-09T14:23:28.377Z</time></trkpt><trkpt lat="43.0260783" lon="13.4645267"><ele>283.75</ele><time>2026-04-09T14:23:29.377Z</time></trkpt><trkpt lat="43.0261417" lon="13.4646967"><ele>283.0</ele><time>2026-04-09T14:23:30.378Z</time></trkpt><trkpt lat="43.0262217" lon="13.4648433"><ele>283.0</ele><time>2026-04-09T14:23:31.377Z</time></trkpt><trkpt lat="43.026325" lon="13.4649533"><ele>283.0</ele><time>2026-04-09T14:23:32.377Z</time></trkpt><trkpt lat="43.026445" lon="13.465035"><ele>283.0</ele><time>2026-04-09T14:23:33.379Z</time></trkpt><trkpt lat="43.0265767" lon="13.465105"><ele>283.0</ele><time>2026-04-09T14:23:34.377Z</time></trkpt><trkpt lat="43.0267067" lon="13.4651667"><ele>278.5</ele><time>2026-04-09T14:23:35.377Z</time></trkpt><trkpt lat="43.0268367" lon="13.4652183"><ele>274.0</ele><time>2026-04-09T14:23:36.377Z</time></trkpt><trkpt lat="43.02698" lon="13.4652617"><ele>269.5</ele><time>2026-04-09T14:23:37.376Z</time></trkpt><trkpt lat="43.0271183" lon="13.4653017"><ele>265.0</ele><time>2026-04-09T14:23:38.377Z</time></trkpt><trkpt lat="43.0272533" lon="13.46533"><ele>265.0</ele><time>2026-04-09T14:23:39.376Z</time></trkpt><trkpt lat="43.0273883" lon="13.4653567"><ele>265.0</ele><time>2026-04-09T14:23:40.376Z</time></trkpt><trkpt lat="43.0275267" lon="13.4653917"><ele>265.0</ele><time>2026-04-09T14:23:41.378Z</time></trkpt><trkpt lat="43.027665" lon="13.4654217"><ele>265.0</ele><time>2026-04-09T14:23:42.377Z</time></trkpt><trkpt lat="43.0278033" lon="13.46544"><ele>264.75</ele><time>2026-04-09T14:23:43.378Z</time></trkpt><trkpt lat="43.0279483" lon="13.46544"><ele>264.5</ele><time>2026-04-09T14:23:44.376Z</time></trkpt><trkpt lat="43.028095" lon="13.4654067"><ele>264.25</ele><time>2026-04-09T14:23:45.374Z</time></trkpt><trkpt lat="43.0282367" lon="13.4653467"><ele>264.0</ele><time>2026-04-09T14:23:46.377Z</time></trkpt><trkpt lat="43.0283667" lon="13.4652583"><ele>264.6666666666667</ele><time>2026-04-09T14:23:47.374Z</time></trkpt><trkpt lat="43.0284933" lon="13.4651483"><ele>265.33333333333337</ele><time>2026-04-09T14:23:48.376Z</time></trkpt><trkpt lat="43.0286233" lon="13.4650467"><ele>266.0</ele><time>2026-04-09T14:23:49.374Z</time></trkpt><trkpt lat="43.0287533" lon="13.46494"><ele>266.0</ele><time>2026-04-09T14:23:50.374Z</time></trkpt><trkpt lat="43.02888" lon="13.4648233"><ele>266.0</ele><time>2026-04-09T14:23:51.378Z</time></trkpt><trkpt lat="43.0290067" lon="13.4647117"><ele>266.0</ele><time>2026-04-09T14:23:52.374Z</time></trkpt><trkpt lat="43.0291367" lon="13.46462"><ele>267.75</ele><time>2026-04-09T14:23:53.374Z</time></trkpt><trkpt lat="43.029275" lon="13.4645767"><ele>269.5</ele><time>2026-04-09T14:23:54.375Z</time></trkpt><trkpt lat="43.0294083" lon="13.4645967"><ele>271.25</ele><time>2026-04-09T14:23:55.377Z</time></trkpt><trkpt lat="43.0295483" lon="13.464655"><ele>273.0</ele><time>2026-04-09T14:23:56.378Z</time></trkpt><trkpt lat="43.0296767" lon="13.4647433"><ele>273.0</ele><time>2026-04-09T14:23:57.376Z</time></trkpt><trkpt lat="43.029805" lon="13.4648683"><ele>273.0</ele><time>2026-04-09T14:23:58.378Z</time></trkpt><trkpt lat="43.029925" lon="13.4650217"><ele>273.0</ele><time>2026-04-09T14:23:59.377Z</time></trkpt><trkpt lat="43.0300367" lon="13.4651717"><ele>271.3333333333333</ele><time>2026-04-09T14:24:00.377Z</time></trkpt><trkpt lat="43.03015" lon="13.465315"><ele>269.66666666666663</ele><time>2026-04-09T14:24:01.376Z</time></trkpt><trkpt lat="43.03027" lon="13.465455"><ele>268.0</ele><time>2026-04-09T14:24:02.378Z</time></trkpt><trkpt lat="43.030385" lon="13.4656017"><ele>273.66666666666663</ele><time>2026-04-09T14:24:03.377Z</time></trkpt><trkpt lat="43.0304933" lon="13.4657483"><ele>279.3333333333333</ele><time>2026-04-09T14:24:04.375Z</time></trkpt><trkpt lat="43.0306183" lon="13.46588"><ele>285.0</ele><time>2026-04-09T14:24:05.375Z</time></trkpt><trkpt lat="43.0307717" lon="13.4659717"><ele>279.3333333333333</ele><time>2026-04-09T14:24:06.375Z</time></trkpt><trkpt lat="43.0309367" lon="13.466025"><ele>273.66666666666663</ele><time>2026-04-09T14:24:07.375Z</time></trkpt><trkpt lat="43.031105" lon="13.4660567"><ele>268.0</ele><time>2026-04-09T14:24:08.375Z</time></trkpt><trkpt lat="43.0312767" lon="13.4660833"><ele>268.0</ele><time>2026-04-09T14:24:09.375Z</time></trkpt><trkpt lat="43.03144" lon="13.4661233"><ele>268.0</ele><time>2026-04-09T14:24:10.375Z</time></trkpt><trkpt lat="43.0315967" lon="13.4661867"><ele>268.0</ele><time>2026-04-09T14:24:11.374Z</time></trkpt><trkpt lat="43.0317517" lon="13.4662767"><ele>272.0</ele><time>2026-04-09T14:24:12.374Z</time></trkpt><trkpt lat="43.0319133" lon="13.466375"><ele>276.0</ele><time>2026-04-09T14:24:13.378Z</time></trkpt><trkpt lat="43.0320833" lon="13.46647"><ele>280.0</ele><time>2026-04-09T14:24:14.377Z</time></trkpt><trkpt lat="43.0322517" lon="13.4665517"><ele>280.0</ele><time>2026-04-09T14:24:15.377Z</time></trkpt><trkpt lat="43.0324083" lon="13.46661"><ele>280.0</ele><time>2026-04-09T14:24:16.376Z</time></trkpt><trkpt lat="43.0325633" lon="13.4666483"><ele>280.0</ele><time>2026-04-09T14:24:17.377Z</time></trkpt><trkpt lat="43.0327233" lon="13.4666667"><ele>277.3333333333333</ele><time>2026-04-09T14:24:18.374Z</time></trkpt><trkpt lat="43.03288" lon="13.4666567"><ele>274.6666666666667</ele><time>2026-04-09T14:24:19.377Z</time></trkpt><trkpt lat="43.03304" lon="13.4666283"><ele>272.0</ele><time>2026-04-09T14:24:20.374Z</time></trkpt><trkpt lat="43.0331867" lon="13.46657"><ele>271.0</ele><time>2026-04-09T14:24:21.375Z</time></trkpt><trkpt lat="43.033335" lon="13.466515"><ele>270.0</ele><time>2026-04-09T14:24:22.377Z</time></trkpt><trkpt lat="43.033485" lon="13.4664783"><ele>269.0</ele><time>2026-04-09T14:24:23.374Z</time></trkpt><trkpt lat="43.0336367" lon="13.4664617"><ele>269.0</ele><time>2026-04-09T14:24:24.378Z</time></trkpt><trkpt lat="43.0337883" lon="13.466465"><ele>269.0</ele><time>2026-04-09T14:24:25.373Z</time></trkpt><trkpt lat="43.0339433" lon="13.46648"><ele>269.0</ele><time>2026-04-09T14:24:26.374Z</time></trkpt><trkpt lat="43.0340883" lon="13.466505"><ele>269.33333333333337</ele><time>2026-04-09T14:24:27.374Z</time></trkpt><trkpt lat="43.0342333" lon="13.466535"><ele>269.6666666666667</ele><time>2026-04-09T14:24:28.374Z</time></trkpt><trkpt lat="43.0343933" lon="13.4665683"><ele>270.0</ele><time>2026-04-09T14:24:29.374Z</time></trkpt><trkpt lat="43.0345567" lon="13.4666033"><ele>270.0</ele><time>2026-04-09T14:24:30.374Z</time></trkpt><trkpt lat="43.0347267" lon="13.4666433"><ele>270.0</ele><time>2026-04-09T14:24:31.375Z</time></trkpt><trkpt lat="43.034895" lon="13.4666817"><ele>270.0</ele><time>2026-04-09T14:24:32.374Z</time></trkpt><trkpt lat="43.03506" lon="13.466715"><ele>269.0</ele><time>2026-04-09T14:24:33.374Z</time></trkpt><trkpt lat="43.0352283" lon="13.46675"><ele>268.0</ele><time>2026-04-09T14:24:34.374Z</time></trkpt><trkpt lat="43.0353917" lon="13.46679"><ele>267.0</ele><time>2026-04-09T14:24:35.375Z</time></trkpt><trkpt lat="43.0355617" lon="13.4668267"><ele>267.0</ele><time>2026-04-09T14:24:36.373Z</time></trkpt><trkpt lat="43.0357333" lon="13.466855"><ele>267.0</ele><time>2026-04-09T14:24:37.375Z</time></trkpt><trkpt lat="43.0359033" lon="13.4668567"><ele>267.0</ele><time>2026-04-09T14:24:38.374Z</time></trkpt><trkpt lat="43.0360783" lon="13.466825"><ele>265.3333333333333</ele><time>2026-04-09T14:24:39.373Z</time></trkpt><trkpt lat="43.03625" lon="13.4667717"><ele>263.66666666666663</ele><time>2026-04-09T14:24:40.373Z</time></trkpt><trkpt lat="43.036425" lon="13.466715"><ele>262.0</ele><time>2026-04-09T14:24:41.375Z</time></trkpt><trkpt lat="43.0366083" lon="13.4666617"><ele>262.66666666666663</ele><time>2026-04-09T14:24:42.374Z</time></trkpt><trkpt lat="43.0367783" lon="13.4666183"><ele>263.3333333333333</ele><time>2026-04-09T14:24:43.374Z</time></trkpt><trkpt lat="43.03694" lon="13.46658"><ele>264.0</ele><time>2026-04-09T14:24:44.376Z</time></trkpt><trkpt lat="43.0370933" lon="13.46655"><ele>264.0</ele><time>2026-04-09T14:24:45.376Z</time></trkpt><trkpt lat="43.0372367" lon="13.4665233"><ele>264.0</ele><time>2026-04-09T14:24:46.373Z</time></trkpt><trkpt lat="43.037385" lon="13.4665217"><ele>264.0</ele><time>2026-04-09T14:24:47.373Z</time></trkpt><trkpt lat="43.03753" lon="13.4665567"><ele>264.0</ele><time>2026-04-09T14:24:48.377Z</time></trkpt><trkpt lat="43.037685" lon="13.4666167"><ele>264.6666666666667</ele><time>2026-04-09T14:24:49.374Z</time></trkpt><trkpt lat="43.0378467" lon="13.4666833"><ele>265.33333333333337</ele><time>2026-04-09T14:24:50.378Z</time></trkpt><trkpt lat="43.038005" lon="13.466745"><ele>266.0</ele><time>2026-04-09T14:24:51.373Z</time></trkpt><trkpt lat="43.03816" lon="13.4668083"><ele>263.6666666666667</ele><time>2026-04-09T14:24:52.377Z</time></trkpt><trkpt lat="43.0383233" lon="13.4668717"><ele>261.3333333333333</ele><time>2026-04-09T14:24:53.379Z</time></trkpt><trkpt lat="43.0384867" lon="13.4669383"><ele>259.0</ele><time>2026-04-09T14:24:54.377Z</time></trkpt><trkpt lat="43.0386483" lon="13.467005"><ele>259.0</ele><time>2026-04-09T14:24:55.377Z</time></trkpt><trkpt lat="43.0388067" lon="13.4670783"><ele>259.0</ele><time>2026-04-09T14:24:56.378Z</time></trkpt><trkpt lat="43.03896" lon="13.4671567"><ele>259.0</ele><time>2026-04-09T14:24:57.376Z</time></trkpt><trkpt lat="43.0391133" lon="13.4672333"><ele>259.0</ele><time>2026-04-09T14:24:58.375Z</time></trkpt><trkpt lat="43.0392733" lon="13.4672967"><ele>259.0</ele><time>2026-04-09T14:24:59.377Z</time></trkpt><trkpt lat="43.03943" lon="13.467345"><ele>259.0</ele><time>2026-04-09T14:25:00.373Z</time></trkpt><trkpt lat="43.039595" lon="13.4673983"><ele>259.0</ele><time>2026-04-09T14:25:01.375Z</time></trkpt><trkpt lat="43.0397633" lon="13.46745"><ele>259.0</ele><time>2026-04-09T14:25:02.378Z</time></trkpt><trkpt lat="43.0399367" lon="13.4675083"><ele>259.0</ele><time>2026-04-09T14:25:03.376Z</time></trkpt><trkpt lat="43.04011" lon="13.4675733"><ele>257.66666666666663</ele><time>2026-04-09T14:25:04.377Z</time></trkpt><trkpt lat="43.0402733" lon="13.4676383"><ele>256.3333333333333</ele><time>2026-04-09T14:25:05.375Z</time></trkpt><trkpt lat="43.0404367" lon="13.4677033"><ele>255.0</ele><time>2026-04-09T14:25:06.374Z</time></trkpt><trkpt lat="43.0405933" lon="13.4677717"><ele>255.0</ele><time>2026-04-09T14:25:07.377Z</time></trkpt><trkpt lat="43.04073" lon="13.4678583"><ele>255.0</ele><time>2026-04-09T14:25:08.378Z</time></trkpt><trkpt lat="43.04086" lon="13.46798"><ele>255.0</ele><time>2026-04-09T14:25:09.374Z</time></trkpt><trkpt lat="43.0409767" lon="13.4681267"><ele>255.33333333333331</ele><time>2026-04-09T14:25:10.378Z</time></trkpt><trkpt lat="43.0410883" lon="13.4682917"><ele>255.66666666666666</ele><time>2026-04-09T14:25:11.377Z</time></trkpt><trkpt lat="43.0412" lon="13.4684617"><ele>256.0</ele><time>2026-04-09T14:25:12.374Z</time></trkpt><trkpt lat="43.0413183" lon="13.4686433"><ele>256.0</ele><time>2026-04-09T14:25:13.378Z</time></trkpt><trkpt lat="43.0414383" lon="13.4688317"><ele>256.0</ele><time>2026-04-09T14:25:14.378Z</time></trkpt><trkpt lat="43.0415567" lon="13.4690183"><ele>256.0</ele><time>2026-04-09T14:25:15.377Z</time></trkpt><trkpt lat="43.041675" lon="13.4691933"><ele>255.33333333333331</ele><time>2026-04-09T14:25:16.378Z</time></trkpt><trkpt lat="43.0417967" lon="13.4693733"><ele>254.66666666666669</ele><time>2026-04-09T14:25:17.377Z</time></trkpt><trkpt lat="43.04192" lon="13.4695533"><ele>254.0</ele><time>2026-04-09T14:25:18.374Z</time></trkpt><trkpt lat="43.04204" lon="13.4697367"><ele>254.0</ele><time>2026-04-09T14:25:19.375Z</time></trkpt><trkpt lat="43.0421567" lon="13.4699167"><ele>254.0</ele><time>2026-04-09T14:25:20.375Z</time></trkpt><trkpt lat="43.0422733" lon="13.4700917"><ele>254.0</ele><time>2026-04-09T14:25:21.374Z</time></trkpt><trkpt lat="43.0423867" lon="13.47027"><ele>252.66666666666669</ele><time>2026-04-09T14:25:22.374Z</time></trkpt><trkpt lat="43.0425033" lon="13.4704467"><ele>251.33333333333331</ele><time>2026-04-09T14:25:23.374Z</time></trkpt><trkpt lat="43.0426217" lon="13.47062"><ele>250.0</ele><time>2026-04-09T14:25:24.374Z</time></trkpt><trkpt lat="43.0427383" lon="13.4707867"><ele>250.0</ele><time>2026-04-09T14:25:25.377Z</time></trkpt><trkpt lat="43.0428667" lon="13.4709333"><ele>250.0</ele><time>2026-04-09T14:25:26.377Z</time></trkpt><trkpt lat="43.0430133" lon="13.4710533"><ele>250.0</ele><time>2026-04-09T14:25:27.377Z</time></trkpt><trkpt lat="43.04317" lon="13.4711417"><ele>250.66666666666666</ele><time>2026-04-09T14:25:28.377Z</time></trkpt><trkpt lat="43.0433383" lon="13.4712017"><ele>251.33333333333331</ele><time>2026-04-09T14:25:29.378Z</time></trkpt><trkpt lat="43.0435017" lon="13.4712433"><ele>252.0</ele><time>2026-04-09T14:25:30.375Z</time></trkpt><trkpt lat="43.043665" lon="13.4712767"><ele>252.0</ele><time>2026-04-09T14:25:31.378Z</time></trkpt><trkpt lat="43.0438317" lon="13.47131"><ele>252.0</ele><time>2026-04-09T14:25:32.376Z</time></trkpt><trkpt lat="43.0440017" lon="13.4713417"><ele>252.0</ele><time>2026-04-09T14:25:33.378Z</time></trkpt><trkpt lat="43.0441733" lon="13.4713717"><ele>250.33333333333331</ele><time>2026-04-09T14:25:34.377Z</time></trkpt><trkpt lat="43.044345" lon="13.471405"><ele>248.66666666666666</ele><time>2026-04-09T14:25:35.378Z</time></trkpt><trkpt lat="43.044515" lon="13.4714383"><ele>247.0</ele><time>2026-04-09T14:25:36.376Z</time></trkpt><trkpt lat="43.0446883" lon="13.4714717"><ele>247.0</ele><time>2026-04-09T14:25:37.378Z</time></trkpt><trkpt lat="43.0448617" lon="13.4715"><ele>247.0</ele><time>2026-04-09T14:25:38.377Z</time></trkpt><trkpt lat="43.045035" lon="13.4715267"><ele>247.0</ele><time>2026-04-09T14:25:39.377Z</time></trkpt><trkpt lat="43.0452083" lon="13.4715417"><ele>246.66666666666666</ele><time>2026-04-09T14:25:40.377Z</time></trkpt><trkpt lat="43.0453817" lon="13.471535"><ele>246.33333333333331</ele><time>2026-04-09T14:25:41.378Z</time></trkpt><trkpt lat="43.0455533" lon="13.4715067"><ele>246.0</ele><time>2026-04-09T14:25:42.377Z</time></trkpt><trkpt lat="43.04572" lon="13.47146"><ele>245.66666666666669</ele><time>2026-04-09T14:25:43.377Z</time></trkpt><trkpt lat="43.04589" lon="13.4714"><ele>245.33333333333334</ele><time>2026-04-09T14:25:44.377Z</time></trkpt><trkpt lat="43.0460583" lon="13.4713267"><ele>245.0</ele><time>2026-04-09T14:25:45.375Z</time></trkpt><trkpt lat="43.04622" lon="13.4712367"><ele>245.0</ele><time>2026-04-09T14:25:46.378Z</time></trkpt><trkpt lat="43.0463783" lon="13.4711367"><ele>245.0</ele><time>2026-04-09T14:25:47.377Z</time></trkpt><trkpt lat="43.0465333" lon="13.4710367"><ele>245.0</ele><time>2026-04-09T14:25:48.378Z</time></trkpt><trkpt lat="43.0466833" lon="13.47093"><ele>245.0</ele><time>2026-04-09T14:25:49.378Z</time></trkpt><trkpt lat="43.0468367" lon="13.470825"><ele>245.0</ele><time>2026-04-09T14:25:50.377Z</time></trkpt><trkpt lat="43.04699" lon="13.4707217"><ele>245.0</ele><time>2026-04-09T14:25:51.378Z</time></trkpt><trkpt lat="43.0471417" lon="13.4706267"><ele>245.0</ele><time>2026-04-09T14:25:52.374Z</time></trkpt><trkpt lat="43.0472967" lon="13.47054"><ele>245.0</ele><time>2026-04-09T14:25:53.376Z</time></trkpt><trkpt lat="43.04746" lon="13.4704667"><ele>245.0</ele><time>2026-04-09T14:25:54.378Z</time></trkpt><trkpt lat="43.04763" lon="13.4704017"><ele>244.66666666666669</ele><time>2026-04-09T14:25:55.377Z</time></trkpt><trkpt lat="43.0478" lon="13.4703433"><ele>244.33333333333331</ele><time>2026-04-09T14:25:56.377Z</time></trkpt><trkpt lat="43.0479717" lon="13.4702867"><ele>244.0</ele><time>2026-04-09T14:25:57.378Z</time></trkpt><trkpt lat="43.0481433" lon="13.4702267"><ele>244.66666666666666</ele><time>2026-04-09T14:25:58.378Z</time></trkpt><trkpt lat="43.0483133" lon="13.4701667"><ele>245.33333333333331</ele><time>2026-04-09T14:25:59.378Z</time></trkpt><trkpt lat="43.048485" lon="13.470105"><ele>246.0</ele><time>2026-04-09T14:26:00.378Z</time></trkpt><trkpt lat="43.0486567" lon="13.4700433"><ele>246.0</ele><time>2026-04-09T14:26:01.377Z</time></trkpt><trkpt lat="43.0488333" lon="13.46998"><ele>246.0</ele><time>2026-04-09T14:26:02.375Z</time></trkpt><trkpt lat="43.0490067" lon="13.4699233"><ele>246.0</ele><time>2026-04-09T14:26:03.378Z</time></trkpt><trkpt lat="43.0491783" lon="13.4698683"><ele>246.0</ele><time>2026-04-09T14:26:04.376Z</time></trkpt><trkpt lat="43.0493483" lon="13.4698133"><ele>246.0</ele><time>2026-04-09T14:26:05.378Z</time></trkpt><trkpt lat="43.0495167" lon="13.4697583"><ele>246.0</ele><time>2026-04-09T14:26:06.377Z</time></trkpt><trkpt lat="43.049685" lon="13.4697017"><ele>246.0</ele><time>2026-04-09T14:26:07.378Z</time></trkpt><trkpt lat="43.049855" lon="13.4696483"><ele>246.0</ele><time>2026-04-09T14:26:08.377Z</time></trkpt><trkpt lat="43.0500233" lon="13.4695967"><ele>246.0</ele><time>2026-04-09T14:26:09.377Z</time></trkpt><trkpt lat="43.0501967" lon="13.469555"><ele>244.33333333333331</ele><time>2026-04-09T14:26:10.378Z</time></trkpt><trkpt lat="43.0503733" lon="13.4695167"><ele>242.66666666666666</ele><time>2026-04-09T14:26:11.376Z</time></trkpt><trkpt lat="43.0505533" lon="13.4694817"><ele>241.0</ele><time>2026-04-09T14:26:12.377Z</time></trkpt><trkpt lat="43.05073" lon="13.4694483"><ele>240.33333333333331</ele><time>2026-04-09T14:26:13.378Z</time></trkpt><trkpt lat="43.050905" lon="13.4694183"><ele>239.66666666666669</ele><time>2026-04-09T14:26:14.377Z</time></trkpt><trkpt lat="43.0510783" lon="13.4693917"><ele>239.0</ele><time>2026-04-09T14:26:15.378Z</time></trkpt><trkpt lat="43.0512517" lon="13.4693583"><ele>239.0</ele><time>2026-04-09T14:26:16.378Z</time></trkpt><trkpt lat="43.0514233" lon="13.469325"><ele>239.0</ele><time>2026-04-09T14:26:17.378Z</time></trkpt><trkpt lat="43.0516" lon="13.4692933"><ele>239.0</ele><time>2026-04-09T14:26:18.374Z</time></trkpt><trkpt lat="43.0517767" lon="13.46926"><ele>239.0</ele><time>2026-04-09T14:26:19.375Z</time></trkpt><trkpt lat="43.0519517" lon="13.46923"><ele>239.0</ele><time>2026-04-09T14:26:20.374Z</time></trkpt><trkpt lat="43.052125" lon="13.4691983"><ele>239.0</ele><time>2026-04-09T14:26:21.375Z</time></trkpt><trkpt lat="43.0522967" lon="13.4691683"><ele>239.66666666666669</ele><time>2026-04-09T14:26:22.376Z</time></trkpt><trkpt lat="43.0524683" lon="13.4691383"><ele>240.33333333333331</ele><time>2026-04-09T14:26:23.374Z</time></trkpt><trkpt lat="43.05264" lon="13.469115"><ele>241.0</ele><time>2026-04-09T14:26:24.377Z</time></trkpt><trkpt lat="43.0528117" lon="13.469085"><ele>241.0</ele><time>2026-04-09T14:26:25.375Z</time></trkpt><trkpt lat="43.05298" lon="13.469055"><ele>241.0</ele><time>2026-04-09T14:26:26.378Z</time></trkpt><trkpt lat="43.0531483" lon="13.4690233"><ele>241.0</ele><time>2026-04-09T14:26:27.378Z</time></trkpt><trkpt lat="43.053315" lon="13.46899"><ele>241.0</ele><time>2026-04-09T14:26:28.377Z</time></trkpt><trkpt lat="43.0534767" lon="13.4689583"><ele>241.0</ele><time>2026-04-09T14:26:29.376Z</time></trkpt><trkpt lat="43.053635" lon="13.46893"><ele>241.0</ele><time>2026-04-09T14:26:30.377Z</time></trkpt><trkpt lat="43.0537967" lon="13.4689017"><ele>241.0</ele><time>2026-04-09T14:26:31.377Z</time></trkpt><trkpt lat="43.053955" lon="13.468875"><ele>241.0</ele><time>2026-04-09T14:26:32.374Z</time></trkpt><trkpt lat="43.0541183" lon="13.4688467"><ele>241.0</ele><time>2026-04-09T14:26:33.378Z</time></trkpt><trkpt lat="43.0542767" lon="13.4688167"><ele>242.0</ele><time>2026-04-09T14:26:34.377Z</time></trkpt><trkpt lat="43.0544367" lon="13.468785"><ele>243.0</ele><time>2026-04-09T14:26:35.378Z</time></trkpt><trkpt lat="43.054595" lon="13.4687517"><ele>244.0</ele><time>2026-04-09T14:26:36.376Z</time></trkpt><trkpt lat="43.054755" lon="13.4687183"><ele>242.33333333333331</ele><time>2026-04-09T14:26:37.377Z</time></trkpt><trkpt lat="43.0549167" lon="13.4686867"><ele>240.66666666666669</ele><time>2026-04-09T14:26:38.378Z</time></trkpt><trkpt lat="43.055075" lon="13.4686583"><ele>239.0</ele><time>2026-04-09T14:26:39.377Z</time></trkpt><trkpt lat="43.055235" lon="13.468635"><ele>239.0</ele><time>2026-04-09T14:26:40.377Z</time></trkpt><trkpt lat="43.05539" lon="13.4686283"><ele>239.0</ele><time>2026-04-09T14:26:41.378Z</time></trkpt><trkpt lat="43.055545" lon="13.4686383"><ele>239.0</ele><time>2026-04-09T14:26:42.377Z</time></trkpt><trkpt lat="43.0557" lon="13.468675"><ele>238.66666666666669</ele><time>2026-04-09T14:26:43.377Z</time></trkpt><trkpt lat="43.0558467" lon="13.468755"><ele>238.33333333333331</ele><time>2026-04-09T14:26:44.377Z</time></trkpt><trkpt lat="43.0559833" lon="13.4688717"><ele>238.0</ele><time>2026-04-09T14:26:45.378Z</time></trkpt><trkpt lat="43.0561167" lon="13.4690217"><ele>238.0</ele><time>2026-04-09T14:26:46.378Z</time></trkpt><trkpt lat="43.056245" lon="13.4691783"><ele>238.0</ele><time>2026-04-09T14:26:47.377Z</time></trkpt><trkpt lat="43.0563767" lon="13.469335"><ele>238.0</ele><time>2026-04-09T14:26:48.378Z</time></trkpt><trkpt lat="43.0565117" lon="13.4694933"><ele>237.66666666666666</ele><time>2026-04-09T14:26:49.376Z</time></trkpt><trkpt lat="43.05665" lon="13.469655"><ele>237.33333333333331</ele><time>2026-04-09T14:26:50.378Z</time></trkpt><trkpt lat="43.0567867" lon="13.4698183"><ele>237.0</ele><time>2026-04-09T14:26:51.38Z</time></trkpt><trkpt lat="43.0569183" lon="13.469975"><ele>237.0</ele><time>2026-04-09T14:26:52.377Z</time></trkpt><trkpt lat="43.05705" lon="13.4701283"><ele>237.0</ele><time>2026-04-09T14:26:53.375Z</time></trkpt><trkpt lat="43.05718" lon="13.470275"><ele>237.0</ele><time>2026-04-09T14:26:54.376Z</time></trkpt><trkpt lat="43.057305" lon="13.4704183"><ele>237.0</ele><time>2026-04-09T14:26:55.377Z</time></trkpt><trkpt lat="43.0574283" lon="13.4705583"><ele>237.0</ele><time>2026-04-09T14:26:56.377Z</time></trkpt><trkpt lat="43.0575517" lon="13.4707"><ele>237.0</ele><time>2026-04-09T14:26:57.377Z</time></trkpt><trkpt lat="43.0576717" lon="13.4708333"><ele>237.0</ele><time>2026-04-09T14:26:58.376Z</time></trkpt><trkpt lat="43.05779" lon="13.47097"><ele>237.0</ele><time>2026-04-09T14:26:59.378Z</time></trkpt><trkpt lat="43.05791" lon="13.4711067"><ele>237.0</ele><time>2026-04-09T14:27:00.378Z</time></trkpt><trkpt lat="43.0580283" lon="13.47124"><ele>236.66666666666669</ele><time>2026-04-09T14:27:01.378Z</time></trkpt><trkpt lat="43.0581483" lon="13.471375"><ele>236.33333333333334</ele><time>2026-04-09T14:27:02.378Z</time></trkpt><trkpt lat="43.058275" lon="13.4715017"><ele>236.0</ele><time>2026-04-09T14:27:03.377Z</time></trkpt><trkpt lat="43.0584117" lon="13.471615"><ele>236.0</ele><time>2026-04-09T14:27:04.374Z</time></trkpt><trkpt lat="43.058555" lon="13.471715"><ele>236.0</ele><time>2026-04-09T14:27:05.375Z</time></trkpt><trkpt lat="43.05871" lon="13.4717983"><ele>236.0</ele><time>2026-04-09T14:27:06.378Z</time></trkpt><trkpt lat="43.0588733" lon="13.47186"><ele>236.0</ele><time>2026-04-09T14:27:07.377Z</time></trkpt><trkpt lat="43.059045" lon="13.4719017"><ele>236.0</ele><time>2026-04-09T14:27:08.378Z</time></trkpt><trkpt lat="43.05922" lon="13.471915"><ele>236.0</ele><time>2026-04-09T14:27:09.377Z</time></trkpt><trkpt lat="43.0593983" lon="13.471905"><ele>235.0</ele><time>2026-04-09T14:27:10.377Z</time></trkpt><trkpt lat="43.0595833" lon="13.47186"><ele>234.0</ele><time>2026-04-09T14:27:11.376Z</time></trkpt><trkpt lat="43.059765" lon="13.471795"><ele>233.0</ele><time>2026-04-09T14:27:12.378Z</time></trkpt><trkpt lat="43.05995" lon="13.4717083"><ele>232.66666666666669</ele><time>2026-04-09T14:27:13.378Z</time></trkpt><trkpt lat="43.0601317" lon="13.471615"><ele>232.33333333333331</ele><time>2026-04-09T14:27:14.377Z</time></trkpt><trkpt lat="43.0603017" lon="13.4715217"><ele>232.0</ele><time>2026-04-09T14:27:15.377Z</time></trkpt><trkpt lat="43.0604633" lon="13.4714333"><ele>232.0</ele><time>2026-04-09T14:27:16.377Z</time></trkpt><trkpt lat="43.060625" lon="13.4713467"><ele>232.0</ele><time>2026-04-09T14:27:17.377Z</time></trkpt><trkpt lat="43.0607867" lon="13.47126"><ele>232.0</ele><time>2026-04-09T14:27:18.376Z</time></trkpt><trkpt lat="43.060945" lon="13.4711767"><ele>231.0</ele><time>2026-04-09T14:27:19.375Z</time></trkpt><trkpt lat="43.0611017" lon="13.4710967"><ele>230.0</ele><time>2026-04-09T14:27:20.374Z</time></trkpt><trkpt lat="43.0612567" lon="13.4710233"><ele>229.0</ele><time>2026-04-09T14:27:21.375Z</time></trkpt><trkpt lat="43.061405" lon="13.4709733"><ele>229.0</ele><time>2026-04-09T14:27:22.375Z</time></trkpt><trkpt lat="43.0615417" lon="13.47096"><ele>229.0</ele><time>2026-04-09T14:27:23.375Z</time></trkpt><trkpt lat="43.061665" lon="13.4710017"><ele>229.0</ele><time>2026-04-09T14:27:24.374Z</time></trkpt><trkpt lat="43.0617717" lon="13.4710983"><ele>229.0</ele><time>2026-04-09T14:27:25.378Z</time></trkpt><trkpt lat="43.0618717" lon="13.4712333"><ele>231.33333333333331</ele><time>2026-04-09T14:27:26.375Z</time></trkpt><trkpt lat="43.0619783" lon="13.4713733"><ele>233.66666666666669</ele><time>2026-04-09T14:27:27.374Z</time></trkpt><trkpt lat="43.0621" lon="13.471495"><ele>236.0</ele><time>2026-04-09T14:27:28.375Z</time></trkpt><trkpt lat="43.062235" lon="13.4715967"><ele>236.0</ele><time>2026-04-09T14:27:29.377Z</time></trkpt><trkpt lat="43.062385" lon="13.4716683"><ele>236.0</ele><time>2026-04-09T14:27:30.377Z</time></trkpt><trkpt lat="43.0625433" lon="13.4717167"><ele>236.0</ele><time>2026-04-09T14:27:31.377Z</time></trkpt><trkpt lat="43.062705" lon="13.4717517"><ele>233.0</ele><time>2026-04-09T14:27:32.375Z</time></trkpt><trkpt lat="43.0628783" lon="13.4717867"><ele>230.0</ele><time>2026-04-09T14:27:33.381Z</time></trkpt><trkpt lat="43.063055" lon="13.47181"><ele>227.0</ele><time>2026-04-09T14:27:34.376Z</time></trkpt><trkpt lat="43.0632333" lon="13.4718217"><ele>227.33333333333334</ele><time>2026-04-09T14:27:35.374Z</time></trkpt><trkpt lat="43.0634133" lon="13.4718267"><ele>227.66666666666669</ele><time>2026-04-09T14:27:36.375Z</time></trkpt><trkpt lat="43.063595" lon="13.4718133"><ele>228.0</ele><time>2026-04-09T14:27:37.374Z</time></trkpt><trkpt lat="43.0637783" lon="13.4717883"><ele>228.0</ele><time>2026-04-09T14:27:38.375Z</time></trkpt><trkpt lat="43.0639667" lon="13.4717417"><ele>228.0</ele><time>2026-04-09T14:27:39.375Z</time></trkpt><trkpt lat="43.0641533" lon="13.4716667"><ele>228.0</ele><time>2026-04-09T14:27:40.378Z</time></trkpt><trkpt lat="43.0643317" lon="13.4715733"><ele>228.66666666666669</ele><time>2026-04-09T14:27:41.376Z</time></trkpt><trkpt lat="43.0645133" lon="13.4714767"><ele>229.33333333333334</ele><time>2026-04-09T14:27:42.378Z</time></trkpt><trkpt lat="43.0646817" lon="13.47138"><ele>230.0</ele><time>2026-04-09T14:27:43.374Z</time></trkpt><trkpt lat="43.064835" lon="13.47129"><ele>227.5</ele><time>2026-04-09T14:27:44.378Z</time></trkpt><trkpt lat="43.0649833" lon="13.4712117"><ele>225.0</ele><time>2026-04-09T14:27:45.374Z</time></trkpt><trkpt lat="43.0651217" lon="13.4711483"><ele>222.5</ele><time>2026-04-09T14:27:46.378Z</time></trkpt><trkpt lat="43.0652567" lon="13.47112"><ele>220.0</ele><time>2026-04-09T14:27:47.375Z</time></trkpt><trkpt lat="43.0653867" lon="13.47112"><ele>220.0</ele><time>2026-04-09T14:27:48.374Z</time></trkpt><trkpt lat="43.0655167" lon="13.4711633"><ele>220.0</ele><time>2026-04-09T14:27:49.374Z</time></trkpt><trkpt lat="43.06565" lon="13.4712267"><ele>220.0</ele><time>2026-04-09T14:27:50.374Z</time></trkpt><trkpt lat="43.065785" lon="13.4712933"><ele>220.0</ele><time>2026-04-09T14:27:51.374Z</time></trkpt><trkpt lat="43.065935" lon="13.4713567"><ele>227.33333333333331</ele><time>2026-04-09T14:27:52.374Z</time></trkpt><trkpt lat="43.0660867" lon="13.4714083"><ele>234.66666666666669</ele><time>2026-04-09T14:27:53.375Z</time></trkpt><trkpt lat="43.0662367" lon="13.4714567"><ele>242.0</ele><time>2026-04-09T14:27:54.376Z</time></trkpt><trkpt lat="43.0663917" lon="13.4715067"><ele>242.0</ele><time>2026-04-09T14:27:55.374Z</time></trkpt><trkpt lat="43.066555" lon="13.471555"><ele>242.0</ele><time>2026-04-09T14:27:56.374Z</time></trkpt><trkpt lat="43.0667217" lon="13.4715983"><ele>242.0</ele><time>2026-04-09T14:27:57.374Z</time></trkpt><trkpt lat="43.0668967" lon="13.47163"><ele>239.0</ele><time>2026-04-09T14:27:58.377Z</time></trkpt><trkpt lat="43.0670733" lon="13.4716433"><ele>236.0</ele><time>2026-04-09T14:27:59.375Z</time></trkpt><trkpt lat="43.0672633" lon="13.4716367"><ele>233.0</ele><time>2026-04-09T14:28:00.374Z</time></trkpt><trkpt lat="43.0674517" lon="13.4716283"><ele>233.0</ele><time>2026-04-09T14:28:01.375Z</time></trkpt><trkpt lat="43.067635" lon="13.4716167"><ele>233.0</ele><time>2026-04-09T14:28:02.376Z</time></trkpt><trkpt lat="43.0678183" lon="13.4716033"><ele>233.0</ele><time>2026-04-09T14:28:03.374Z</time></trkpt><trkpt lat="43.068005" lon="13.4715917"><ele>233.0</ele><time>2026-04-09T14:28:04.375Z</time></trkpt><trkpt lat="43.0681883" lon="13.471575"><ele>233.0</ele><time>2026-04-09T14:28:05.374Z</time></trkpt><trkpt lat="43.0683733" lon="13.4715583"><ele>233.0</ele><time>2026-04-09T14:28:06.374Z</time></trkpt><trkpt lat="43.0685583" lon="13.4715467"><ele>233.0</ele><time>2026-04-09T14:28:07.374Z</time></trkpt><trkpt lat="43.0687417" lon="13.471545"><ele>233.0</ele><time>2026-04-09T14:28:08.375Z</time></trkpt><trkpt lat="43.0689233" lon="13.4715633"><ele>233.0</ele><time>2026-04-09T14:28:09.374Z</time></trkpt><trkpt lat="43.0691067" lon="13.471585"><ele>232.0</ele><time>2026-04-09T14:28:10.376Z</time></trkpt><trkpt lat="43.0692933" lon="13.4716067"><ele>231.0</ele><time>2026-04-09T14:28:11.375Z</time></trkpt><trkpt lat="43.06948" lon="13.4716267"><ele>230.0</ele><time>2026-04-09T14:28:12.374Z</time></trkpt><trkpt lat="43.0696583" lon="13.4716483"><ele>230.0</ele><time>2026-04-09T14:28:13.374Z</time></trkpt><trkpt lat="43.0698233" lon="13.47167"><ele>230.0</ele><time>2026-04-09T14:28:14.375Z</time></trkpt><trkpt lat="43.0699767" lon="13.471695"><ele>230.0</ele><time>2026-04-09T14:28:15.374Z</time></trkpt><trkpt lat="43.07012" lon="13.4717267"><ele>228.0</ele><time>2026-04-09T14:28:16.373Z</time></trkpt><trkpt lat="43.0702583" lon="13.4717717"><ele>226.0</ele><time>2026-04-09T14:28:17.375Z</time></trkpt><trkpt lat="43.0703917" lon="13.47184"><ele>224.0</ele><time>2026-04-09T14:28:18.378Z</time></trkpt><trkpt lat="43.07054" lon="13.4719517"><ele>224.0</ele><time>2026-04-09T14:28:19.374Z</time></trkpt><trkpt lat="43.0706767" lon="13.47208"><ele>224.0</ele><time>2026-04-09T14:28:20.375Z</time></trkpt><trkpt lat="43.0708017" lon="13.47222"><ele>224.0</ele><time>2026-04-09T14:28:21.374Z</time></trkpt><trkpt lat="43.0709267" lon="13.472355"><ele>229.66666666666669</ele><time>2026-04-09T14:28:22.374Z</time></trkpt><trkpt lat="43.071055" lon="13.4724983"><ele>235.33333333333331</ele><time>2026-04-09T14:28:23.374Z</time></trkpt><trkpt lat="43.0711833" lon="13.47264"><ele>241.0</ele><time>2026-04-09T14:28:24.373Z</time></trkpt><trkpt lat="43.0713117" lon="13.4727817"><ele>241.0</ele><time>2026-04-09T14:28:25.375Z</time></trkpt><trkpt lat="43.0714483" lon="13.4729233"><ele>241.0</ele><time>2026-04-09T14:28:26.375Z</time></trkpt><trkpt lat="43.0715833" lon="13.473065"><ele>241.0</ele><time>2026-04-09T14:28:27.375Z</time></trkpt><trkpt lat="43.07172" lon="13.4732083"><ele>239.33333333333331</ele><time>2026-04-09T14:28:28.375Z</time></trkpt><trkpt lat="43.0718583" lon="13.4733517"><ele>237.66666666666669</ele><time>2026-04-09T14:28:29.375Z</time></trkpt><trkpt lat="43.0719983" lon="13.4734883"><ele>236.0</ele><time>2026-04-09T14:28:30.378Z</time></trkpt><trkpt lat="43.072135" lon="13.473625"><ele>236.0</ele><time>2026-04-09T14:28:31.377Z</time></trkpt><trkpt lat="43.0722633" lon="13.4737633"><ele>236.0</ele><time>2026-04-09T14:28:32.377Z</time></trkpt><trkpt lat="43.0723983" lon="13.4738967"><ele>236.0</ele><time>2026-04-09T14:28:33.378Z</time></trkpt><trkpt lat="43.0725333" lon="13.4740317"><ele>230.66666666666669</ele><time>2026-04-09T14:28:34.378Z</time></trkpt><trkpt lat="43.07266" lon="13.4741633"><ele>225.33333333333331</ele><time>2026-04-09T14:28:35.377Z</time></trkpt><trkpt lat="43.0727917" lon="13.4743033"><ele>220.0</ele><time>2026-04-09T14:28:36.378Z</time></trkpt><trkpt lat="43.0729167" lon="13.4744517"><ele>222.0</ele><time>2026-04-09T14:28:37.378Z</time></trkpt><trkpt lat="43.07303" lon="13.4746167"><ele>224.0</ele><time>2026-04-09T14:28:38.376Z</time></trkpt><trkpt lat="43.073135" lon="13.4747917"><ele>226.0</ele><time>2026-04-09T14:28:39.374Z</time></trkpt><trkpt lat="43.0732283" lon="13.474985"><ele>225.0</ele><time>2026-04-09T14:28:40.375Z</time></trkpt><trkpt lat="43.07331" lon="13.4751967"><ele>224.0</ele><time>2026-04-09T14:28:41.374Z</time></trkpt><trkpt lat="43.073375" lon="13.475415"><ele>223.0</ele><time>2026-04-09T14:28:42.378Z</time></trkpt><trkpt lat="43.0734233" lon="13.475645"><ele>223.0</ele><time>2026-04-09T14:28:43.375Z</time></trkpt><trkpt lat="43.073465" lon="13.475875"><ele>223.0</ele><time>2026-04-09T14:28:44.378Z</time></trkpt><trkpt lat="43.0735067" lon="13.4761133"><ele>223.0</ele><time>2026-04-09T14:28:45.374Z</time></trkpt><trkpt lat="43.0735483" lon="13.4763483"><ele>223.66666666666666</ele><time>2026-04-09T14:28:46.378Z</time></trkpt><trkpt lat="43.0735833" lon="13.4765783"><ele>224.33333333333331</ele><time>2026-04-09T14:28:47.377Z</time></trkpt><trkpt lat="43.0736117" lon="13.4768033"><ele>225.0</ele><time>2026-04-09T14:28:48.375Z</time></trkpt><trkpt lat="43.0736267" lon="13.4770067"><ele>226.0</ele><time>2026-04-09T14:28:49.374Z</time></trkpt><trkpt lat="43.073635" lon="13.4772067"><ele>227.0</ele><time>2026-04-09T14:28:50.375Z</time></trkpt><trkpt lat="43.0736217" lon="13.4773967"><ele>228.0</ele><time>2026-04-09T14:28:51.374Z</time></trkpt><trkpt lat="43.0735833" lon="13.4775783"><ele>229.0</ele><time>2026-04-09T14:28:52.374Z</time></trkpt><trkpt lat="43.0735267" lon="13.4777633"><ele>229.0</ele><time>2026-04-09T14:28:53.374Z</time></trkpt><trkpt lat="43.0734783" lon="13.47796"><ele>229.0</ele><time>2026-04-09T14:28:54.376Z</time></trkpt><trkpt lat="43.0734467" lon="13.4781633"><ele>229.0</ele><time>2026-04-09T14:28:55.374Z</time></trkpt><trkpt lat="43.073445" lon="13.4783767"><ele>229.0</ele><time>2026-04-09T14:28:56.375Z</time></trkpt><trkpt lat="43.0734617" lon="13.4785917"><ele>229.0</ele><time>2026-04-09T14:28:57.375Z</time></trkpt><trkpt lat="43.0735033" lon="13.4788117"><ele>229.0</ele><time>2026-04-09T14:28:58.375Z</time></trkpt><trkpt lat="43.0735567" lon="13.4790283"><ele>230.66666666666666</ele><time>2026-04-09T14:28:59.377Z</time></trkpt><trkpt lat="43.0736117" lon="13.479235"><ele>232.33333333333331</ele><time>2026-04-09T14:29:00.378Z</time></trkpt><trkpt lat="43.0736783" lon="13.4794467"><ele>234.0</ele><time>2026-04-09T14:29:01.376Z</time></trkpt><trkpt lat="43.0737617" lon="13.4796483"><ele>235.0</ele><time>2026-04-09T14:29:02.375Z</time></trkpt><trkpt lat="43.07386" lon="13.4798433"><ele>236.0</ele><time>2026-04-09T14:29:03.377Z</time></trkpt><trkpt lat="43.0739717" lon="13.4800333"><ele>237.0</ele><time>2026-04-09T14:29:04.378Z</time></trkpt><trkpt lat="43.0740867" lon="13.480215"><ele>233.0</ele><time>2026-04-09T14:29:05.378Z</time></trkpt><trkpt lat="43.0742083" lon="13.48039"><ele>229.0</ele><time>2026-04-09T14:29:06.377Z</time></trkpt><trkpt lat="43.0743267" lon="13.4805617"><ele>225.0</ele><time>2026-04-09T14:29:07.378Z</time></trkpt><trkpt lat="43.0744383" lon="13.4807283"><ele>225.0</ele><time>2026-04-09T14:29:08.375Z</time></trkpt><trkpt lat="43.0745467" lon="13.4808833"><ele>225.0</ele><time>2026-04-09T14:29:09.379Z</time></trkpt><trkpt lat="43.07464" lon="13.4810333"><ele>225.0</ele><time>2026-04-09T14:29:10.377Z</time></trkpt><trkpt lat="43.0747033" lon="13.48119"><ele>225.0</ele><time>2026-04-09T14:29:11.374Z</time></trkpt><trkpt lat="43.0747417" lon="13.4813567"><ele>225.75</ele><time>2026-04-09T14:29:12.375Z</time></trkpt><trkpt lat="43.0747433" lon="13.481535"><ele>226.5</ele><time>2026-04-09T14:29:13.378Z</time></trkpt><trkpt lat="43.0747033" lon="13.4817033"><ele>227.25</ele><time>2026-04-09T14:29:14.377Z</time></trkpt><trkpt lat="43.0746483" lon="13.4818783"><ele>228.0</ele><time>2026-04-09T14:29:15.374Z</time></trkpt><trkpt lat="43.0746233" lon="13.48207"><ele>227.5</ele><time>2026-04-09T14:29:16.378Z</time></trkpt><trkpt lat="43.074635" lon="13.48226"><ele>227.0</ele><time>2026-04-09T14:29:17.377Z</time></trkpt><trkpt lat="43.0746783" lon="13.482445"><ele>226.5</ele><time>2026-04-09T14:29:18.378Z</time></trkpt><trkpt lat="43.0747383" lon="13.4826283"><ele>226.0</ele><time>2026-04-09T14:29:19.378Z</time></trkpt><trkpt lat="43.0748017" lon="13.482815"><ele>225.33333333333331</ele><time>2026-04-09T14:29:20.376Z</time></trkpt><trkpt lat="43.0748733" lon="13.4830067"><ele>224.66666666666669</ele><time>2026-04-09T14:29:21.374Z</time></trkpt><trkpt lat="43.07495" lon="13.4832017"><ele>224.0</ele><time>2026-04-09T14:29:22.378Z</time></trkpt><trkpt lat="43.07503" lon="13.4833967"><ele>224.0</ele><time>2026-04-09T14:29:23.375Z</time></trkpt><trkpt lat="43.0751117" lon="13.48359"><ele>224.0</ele><time>2026-04-09T14:29:24.376Z</time></trkpt><trkpt lat="43.0752" lon="13.483785"><ele>224.0</ele><time>2026-04-09T14:29:25.378Z</time></trkpt><trkpt lat="43.0752933" lon="13.4839783"><ele>225.0</ele><time>2026-04-09T14:29:26.378Z</time></trkpt><trkpt lat="43.0753917" lon="13.4841633"><ele>226.0</ele><time>2026-04-09T14:29:27.378Z</time></trkpt><trkpt lat="43.075485" lon="13.484345"><ele>227.0</ele><time>2026-04-09T14:29:28.377Z</time></trkpt><trkpt lat="43.0755767" lon="13.4845217"><ele>227.0</ele><time>2026-04-09T14:29:29.373Z</time></trkpt><trkpt lat="43.0756683" lon="13.4846883"><ele>227.0</ele><time>2026-04-09T14:29:30.375Z</time></trkpt><trkpt lat="43.07575" lon="13.4848467"><ele>227.0</ele><time>2026-04-09T14:29:31.375Z</time></trkpt><trkpt lat="43.075825" lon="13.4849933"><ele>227.0</ele><time>2026-04-09T14:29:32.375Z</time></trkpt><trkpt lat="43.0758967" lon="13.4851367"><ele>226.6</ele><time>2026-04-09T14:29:33.378Z</time></trkpt><trkpt lat="43.0759667" lon="13.4852617"><ele>226.2</ele><time>2026-04-09T14:29:34.374Z</time></trkpt><trkpt lat="43.0760267" lon="13.485365"><ele>225.8</ele><time>2026-04-09T14:29:35.376Z</time></trkpt><trkpt lat="43.0760783" lon="13.48546"><ele>225.4</ele><time>2026-04-09T14:29:36.378Z</time></trkpt><trkpt lat="43.0761333" lon="13.4855617"><ele>225.0</ele><time>2026-04-09T14:29:37.375Z</time></trkpt><trkpt lat="43.0761917" lon="13.48567"><ele>224.75</ele><time>2026-04-09T14:29:38.378Z</time></trkpt><trkpt lat="43.076255" lon="13.48579"><ele>224.5</ele><time>2026-04-09T14:29:39.379Z</time></trkpt><trkpt lat="43.0763217" lon="13.48592"><ele>224.25</ele><time>2026-04-09T14:29:40.378Z</time></trkpt><trkpt lat="43.0763933" lon="13.4860533"><ele>224.0</ele><time>2026-04-09T14:29:41.378Z</time></trkpt><trkpt lat="43.0764617" lon="13.48619"><ele>224.0</ele><time>2026-04-09T14:29:42.378Z</time></trkpt><trkpt lat="43.0765333" lon="13.48633"><ele>224.0</ele><time>2026-04-09T14:29:43.377Z</time></trkpt><trkpt lat="43.076615" lon="13.4864733"><ele>224.0</ele><time>2026-04-09T14:29:44.378Z</time></trkpt><trkpt lat="43.0766983" lon="13.48662"><ele>224.0</ele><time>2026-04-09T14:29:45.377Z</time></trkpt><trkpt lat="43.076785" lon="13.4867717"><ele>224.0</ele><time>2026-04-09T14:29:46.378Z</time></trkpt><trkpt lat="43.0768683" lon="13.486925"><ele>224.0</ele><time>2026-04-09T14:29:47.378Z</time></trkpt><trkpt lat="43.076955" lon="13.487085"><ele>224.0</ele><time>2026-04-09T14:29:48.375Z</time></trkpt><trkpt lat="43.07704" lon="13.4872517"><ele>224.0</ele><time>2026-04-09T14:29:49.375Z</time></trkpt><trkpt lat="43.0771283" lon="13.4874267"><ele>224.33333333333334</ele><time>2026-04-09T14:29:50.375Z</time></trkpt><trkpt lat="43.0772183" lon="13.4875967"><ele>224.66666666666669</ele><time>2026-04-09T14:29:51.375Z</time></trkpt><trkpt lat="43.0773117" lon="13.4877717"><ele>225.0</ele><time>2026-04-09T14:29:52.376Z</time></trkpt><trkpt lat="43.0774017" lon="13.48794"><ele>225.0</ele><time>2026-04-09T14:29:53.375Z</time></trkpt><trkpt lat="43.0774867" lon="13.4880983"><ele>225.0</ele><time>2026-04-09T14:29:54.378Z</time></trkpt><trkpt lat="43.0775667" lon="13.48825"><ele>225.0</ele><time>2026-04-09T14:29:55.377Z</time></trkpt><trkpt lat="43.0776433" lon="13.488395"><ele>225.0</ele><time>2026-04-09T14:29:56.378Z</time></trkpt><trkpt lat="43.0777233" lon="13.4885333"><ele>225.0</ele><time>2026-04-09T14:29:57.374Z</time></trkpt><trkpt lat="43.0778033" lon="13.4886667"><ele>225.0</ele><time>2026-04-09T14:29:58.375Z</time></trkpt><trkpt lat="43.07789" lon="13.48879"><ele>225.0</ele><time>2026-04-09T14:29:59.375Z</time></trkpt><trkpt lat="43.077975" lon="13.4889067"><ele>225.0</ele><time>2026-04-09T14:30:00.377Z</time></trkpt><trkpt lat="43.078065" lon="13.489015"><ele>225.25</ele><time>2026-04-09T14:30:01.377Z</time></trkpt><trkpt lat="43.0781617" lon="13.48911"><ele>225.5</ele><time>2026-04-09T14:30:02.374Z</time></trkpt><trkpt lat="43.0782617" lon="13.4892033"><ele>225.75</ele><time>2026-04-09T14:30:03.375Z</time></trkpt><trkpt lat="43.0783717" lon="13.4892917"><ele>226.0</ele><time>2026-04-09T14:30:04.375Z</time></trkpt><trkpt lat="43.078485" lon="13.4893733"><ele>225.5</ele><time>2026-04-09T14:30:05.374Z</time></trkpt><trkpt lat="43.0786067" lon="13.4894433"><ele>225.0</ele><time>2026-04-09T14:30:06.376Z</time></trkpt><trkpt lat="43.0787283" lon="13.4895067"><ele>224.5</ele><time>2026-04-09T14:30:07.378Z</time></trkpt><trkpt lat="43.0788533" lon="13.4895667"><ele>224.0</ele><time>2026-04-09T14:30:08.374Z</time></trkpt><trkpt lat="43.0789817" lon="13.489625"><ele>223.25</ele><time>2026-04-09T14:30:09.375Z</time></trkpt><trkpt lat="43.0791067" lon="13.489675"><ele>222.5</ele><time>2026-04-09T14:30:10.377Z</time></trkpt><trkpt lat="43.0792333" lon="13.48972"><ele>221.75</ele><time>2026-04-09T14:30:11.378Z</time></trkpt><trkpt lat="43.0793617" lon="13.4897733"><ele>221.0</ele><time>2026-04-09T14:30:12.377Z</time></trkpt><trkpt lat="43.0794917" lon="13.4898217"><ele>221.0</ele><time>2026-04-09T14:30:13.377Z</time></trkpt><trkpt lat="43.0796167" lon="13.489875"><ele>221.0</ele><time>2026-04-09T14:30:14.378Z</time></trkpt><trkpt lat="43.0797517" lon="13.4899333"><ele>221.0</ele><time>2026-04-09T14:30:15.377Z</time></trkpt><trkpt lat="43.079885" lon="13.4899983"><ele>221.0</ele><time>2026-04-09T14:30:16.377Z</time></trkpt><trkpt lat="43.08001" lon="13.49007"><ele>220.25</ele><time>2026-04-09T14:30:17.378Z</time></trkpt><trkpt lat="43.0801333" lon="13.4901533"><ele>219.5</ele><time>2026-04-09T14:30:18.377Z</time></trkpt><trkpt lat="43.0802533" lon="13.4902383"><ele>218.75</ele><time>2026-04-09T14:30:19.378Z</time></trkpt><trkpt lat="43.0803817" lon="13.4903317"><ele>218.0</ele><time>2026-04-09T14:30:20.378Z</time></trkpt><trkpt lat="43.0805083" lon="13.4904233"><ele>217.75</ele><time>2026-04-09T14:30:21.378Z</time></trkpt><trkpt lat="43.08063" lon="13.4905167"><ele>217.5</ele><time>2026-04-09T14:30:22.378Z</time></trkpt><trkpt lat="43.080745" lon="13.4906083"><ele>217.25</ele><time>2026-04-09T14:30:23.374Z</time></trkpt><trkpt lat="43.0808683" lon="13.4907033"><ele>217.0</ele><time>2026-04-09T14:30:24.376Z</time></trkpt><trkpt lat="43.0809933" lon="13.4907983"><ele>217.0</ele><time>2026-04-09T14:30:25.377Z</time></trkpt><trkpt lat="43.0811133" lon="13.4908883"><ele>217.0</ele><time>2026-04-09T14:30:26.378Z</time></trkpt><trkpt lat="43.0812283" lon="13.4909767"><ele>217.0</ele><time>2026-04-09T14:30:27.377Z</time></trkpt><trkpt lat="43.0813417" lon="13.49107"><ele>217.0</ele><time>2026-04-09T14:30:28.373Z</time></trkpt><trkpt lat="43.081455" lon="13.4911617"><ele>217.0</ele><time>2026-04-09T14:30:29.375Z</time></trkpt><trkpt lat="43.081555" lon="13.4912483"><ele>217.0</ele><time>2026-04-09T14:30:30.376Z</time></trkpt><trkpt lat="43.081645" lon="13.491335"><ele>217.0</ele><time>2026-04-09T14:30:31.377Z</time></trkpt><trkpt lat="43.0817217" lon="13.4914383"><ele>217.0</ele><time>2026-04-09T14:30:32.376Z</time></trkpt><trkpt lat="43.0817933" lon="13.4915617"><ele>216.5</ele><time>2026-04-09T14:30:33.375Z</time></trkpt><trkpt lat="43.0818533" lon="13.491705"><ele>216.0</ele><time>2026-04-09T14:30:34.375Z</time></trkpt><trkpt lat="43.0819083" lon="13.4918617"><ele>215.5</ele><time>2026-04-09T14:30:35.375Z</time></trkpt><trkpt lat="43.08196" lon="13.49202"><ele>215.0</ele><time>2026-04-09T14:30:36.376Z</time></trkpt><trkpt lat="43.0820117" lon="13.49218"><ele>214.75</ele><time>2026-04-09T14:30:37.375Z</time></trkpt><trkpt lat="43.0820717" lon="13.4923417"><ele>214.5</ele><time>2026-04-09T14:30:38.376Z</time></trkpt><trkpt lat="43.0821283" lon="13.4925133"><ele>214.25</ele><time>2026-04-09T14:30:39.374Z</time></trkpt><trkpt lat="43.0821883" lon="13.492685"><ele>214.0</ele><time>2026-04-09T14:30:40.375Z</time></trkpt><trkpt lat="43.08225" lon="13.492855"><ele>214.25</ele><time>2026-04-09T14:30:41.378Z</time></trkpt><trkpt lat="43.0823117" lon="13.493025"><ele>214.5</ele><time>2026-04-09T14:30:42.378Z</time></trkpt><trkpt lat="43.0823733" lon="13.4932"><ele>214.75</ele><time>2026-04-09T14:30:43.378Z</time></trkpt><trkpt lat="43.0824317" lon="13.4933733"><ele>215.0</ele><time>2026-04-09T14:30:44.378Z</time></trkpt><trkpt lat="43.0824883" lon="13.4935483"><ele>214.25</ele><time>2026-04-09T14:30:45.377Z</time></trkpt><trkpt lat="43.082545" lon="13.4937233"><ele>213.5</ele><time>2026-04-09T14:30:46.377Z</time></trkpt><trkpt lat="43.0826017" lon="13.493895"><ele>212.75</ele><time>2026-04-09T14:30:47.377Z</time></trkpt><trkpt lat="43.082665" lon="13.4940633"><ele>212.0</ele><time>2026-04-09T14:30:48.378Z</time></trkpt><trkpt lat="43.08273" lon="13.4942317"><ele>212.0</ele><time>2026-04-09T14:30:49.376Z</time></trkpt><trkpt lat="43.0827917" lon="13.4944017"><ele>212.0</ele><time>2026-04-09T14:30:50.378Z</time></trkpt><trkpt lat="43.082855" lon="13.4945733"><ele>212.0</ele><time>2026-04-09T14:30:51.375Z</time></trkpt><trkpt lat="43.0829183" lon="13.4947467"><ele>212.0</ele><time>2026-04-09T14:30:52.375Z</time></trkpt><trkpt lat="43.08298" lon="13.49492"><ele>212.0</ele><time>2026-04-09T14:30:53.374Z</time></trkpt><trkpt lat="43.0830433" lon="13.49509"><ele>212.0</ele><time>2026-04-09T14:30:54.375Z</time></trkpt><trkpt lat="43.0831083" lon="13.495265"><ele>212.0</ele><time>2026-04-09T14:30:55.378Z</time></trkpt><trkpt lat="43.08317" lon="13.4954433"><ele>212.0</ele><time>2026-04-09T14:30:56.375Z</time></trkpt><trkpt lat="43.08323" lon="13.4956267"><ele>210.75</ele><time>2026-04-09T14:30:57.375Z</time></trkpt><trkpt lat="43.0832933" lon="13.495815"><ele>209.5</ele><time>2026-04-09T14:30:58.376Z</time></trkpt><trkpt lat="43.083355" lon="13.4959967"><ele>208.25</ele><time>2026-04-09T14:30:59.375Z</time></trkpt><trkpt lat="43.0834183" lon="13.4961783"><ele>207.0</ele><time>2026-04-09T14:31:00.375Z</time></trkpt><trkpt lat="43.0834817" lon="13.4963533"><ele>207.0</ele><time>2026-04-09T14:31:01.374Z</time></trkpt><trkpt lat="43.0835517" lon="13.4965317"><ele>207.0</ele><time>2026-04-09T14:31:02.376Z</time></trkpt><trkpt lat="43.083615" lon="13.4967133"><ele>207.0</ele><time>2026-04-09T14:31:03.375Z</time></trkpt><trkpt lat="43.0836833" lon="13.4968967"><ele>207.0</ele><time>2026-04-09T14:31:04.377Z</time></trkpt><trkpt lat="43.0837533" lon="13.4970783"><ele>207.5</ele><time>2026-04-09T14:31:05.375Z</time></trkpt><trkpt lat="43.0838333" lon="13.4972533"><ele>208.0</ele><time>2026-04-09T14:31:06.376Z</time></trkpt><trkpt lat="43.0839267" lon="13.4974033"><ele>208.5</ele><time>2026-04-09T14:31:07.373Z</time></trkpt><trkpt lat="43.0840317" lon="13.497535"><ele>209.0</ele><time>2026-04-09T14:31:08.373Z</time></trkpt><trkpt lat="43.0841517" lon="13.4976517"><ele>206.25</ele><time>2026-04-09T14:31:09.376Z</time></trkpt><trkpt lat="43.0842767" lon="13.49775"><ele>203.5</ele><time>2026-04-09T14:31:10.375Z</time></trkpt><trkpt lat="43.0844033" lon="13.497835"><ele>200.75</ele><time>2026-04-09T14:31:11.379Z</time></trkpt><trkpt lat="43.084535" lon="13.497915"><ele>198.0</ele><time>2026-04-09T14:31:12.378Z</time></trkpt><trkpt lat="43.0846633" lon="13.4979683"><ele>197.75</ele><time>2026-04-09T14:31:13.378Z</time></trkpt><trkpt lat="43.0847983" lon="13.497995"><ele>197.5</ele><time>2026-04-09T14:31:14.377Z</time></trkpt><trkpt lat="43.0849367" lon="13.4980067"><ele>197.25</ele><time>2026-04-09T14:31:15.377Z</time></trkpt><trkpt lat="43.0850817" lon="13.4980133"><ele>197.0</ele><time>2026-04-09T14:31:16.378Z</time></trkpt><trkpt lat="43.0852267" lon="13.498015"><ele>194.5</ele><time>2026-04-09T14:31:17.377Z</time></trkpt><trkpt lat="43.0853717" lon="13.4980167"><ele>192.0</ele><time>2026-04-09T14:31:18.378Z</time></trkpt><trkpt lat="43.0855133" lon="13.498015"><ele>189.5</ele><time>2026-04-09T14:31:19.376Z</time></trkpt><trkpt lat="43.0856567" lon="13.4980117"><ele>187.0</ele><time>2026-04-09T14:31:20.377Z</time></trkpt><trkpt lat="43.0858033" lon="13.4980083"><ele>185.0</ele><time>2026-04-09T14:31:21.378Z</time></trkpt><trkpt lat="43.08595" lon="13.4980083"><ele>183.0</ele><time>2026-04-09T14:31:22.377Z</time></trkpt><trkpt lat="43.0860933" lon="13.49801"><ele>181.0</ele><time>2026-04-09T14:31:23.378Z</time></trkpt><trkpt lat="43.0862417" lon="13.4980117"><ele>179.0</ele><time>2026-04-09T14:31:24.378Z</time></trkpt><trkpt lat="43.0864" lon="13.4980083"><ele>179.0</ele><time>2026-04-09T14:31:25.378Z</time></trkpt><trkpt lat="43.0865583" lon="13.4980083"><ele>179.0</ele><time>2026-04-09T14:31:26.377Z</time></trkpt><trkpt lat="43.0867167" lon="13.49801"><ele>179.0</ele><time>2026-04-09T14:31:27.379Z</time></trkpt><trkpt lat="43.0868767" lon="13.4980133"><ele>180.33333333333331</ele><time>2026-04-09T14:31:28.376Z</time></trkpt><trkpt lat="43.0870383" lon="13.4980183"><ele>181.66666666666666</ele><time>2026-04-09T14:31:29.375Z</time></trkpt><trkpt lat="43.0872" lon="13.4980167"><ele>183.0</ele><time>2026-04-09T14:31:30.375Z</time></trkpt><trkpt lat="43.0873683" lon="13.4980133"><ele>185.0</ele><time>2026-04-09T14:31:31.376Z</time></trkpt><trkpt lat="43.0875283" lon="13.49801"><ele>187.0</ele><time>2026-04-09T14:31:32.375Z</time></trkpt><trkpt lat="43.0876933" lon="13.497995"><ele>189.0</ele><time>2026-04-09T14:31:33.376Z</time></trkpt><trkpt lat="43.0878533" lon="13.4979683"><ele>190.33333333333331</ele><time>2026-04-09T14:31:34.376Z</time></trkpt><trkpt lat="43.088015" lon="13.497915"><ele>191.66666666666666</ele><time>2026-04-09T14:31:35.375Z</time></trkpt><trkpt lat="43.08818" lon="13.49784"><ele>193.0</ele><time>2026-04-09T14:31:36.375Z</time></trkpt><trkpt lat="43.088335" lon="13.497745"><ele>193.0</ele><time>2026-04-09T14:31:37.376Z</time></trkpt><trkpt lat="43.0884817" lon="13.497635"><ele>193.0</ele><time>2026-04-09T14:31:38.376Z</time></trkpt><trkpt lat="43.0886267" lon="13.4975133"><ele>193.0</ele><time>2026-04-09T14:31:39.376Z</time></trkpt><trkpt lat="43.0887667" lon="13.497385"><ele>193.0</ele><time>2026-04-09T14:31:40.375Z</time></trkpt><trkpt lat="43.0889017" lon="13.49725"><ele>193.0</ele><time>2026-04-09T14:31:41.378Z</time></trkpt><trkpt lat="43.089035" lon="13.497115"><ele>193.0</ele><time>2026-04-09T14:31:42.377Z</time></trkpt><trkpt lat="43.0891683" lon="13.4969783"><ele>194.33333333333331</ele><time>2026-04-09T14:31:43.378Z</time></trkpt><trkpt lat="43.089295" lon="13.4968383"><ele>195.66666666666669</ele><time>2026-04-09T14:31:44.377Z</time></trkpt><trkpt lat="43.0894267" lon="13.496705"><ele>197.0</ele><time>2026-04-09T14:31:45.378Z</time></trkpt><trkpt lat="43.0895567" lon="13.4965733"><ele>197.0</ele><time>2026-04-09T14:31:46.378Z</time></trkpt><trkpt lat="43.0896817" lon="13.49644"><ele>197.0</ele><time>2026-04-09T14:31:47.375Z</time></trkpt><trkpt lat="43.0898067" lon="13.4963167"><ele>197.0</ele><time>2026-04-09T14:31:48.378Z</time></trkpt><trkpt lat="43.0899333" lon="13.4961933"><ele>199.33333333333334</ele><time>2026-04-09T14:31:49.378Z</time></trkpt><trkpt lat="43.0900583" lon="13.49607"><ele>201.66666666666669</ele><time>2026-04-09T14:31:50.378Z</time></trkpt><trkpt lat="43.0901833" lon="13.4959467"><ele>204.0</ele><time>2026-04-09T14:31:51.375Z</time></trkpt><trkpt lat="43.09031" lon="13.4958217"><ele>204.0</ele><time>2026-04-09T14:31:52.377Z</time></trkpt><trkpt lat="43.0904367" lon="13.4956983"><ele>204.0</ele><time>2026-04-09T14:31:53.378Z</time></trkpt><trkpt lat="43.0905667" lon="13.495575"><ele>204.0</ele><time>2026-04-09T14:31:54.377Z</time></trkpt><trkpt lat="43.0906917" lon="13.495455"><ele>206.66666666666669</ele><time>2026-04-09T14:31:55.377Z</time></trkpt><trkpt lat="43.0908183" lon="13.4953333"><ele>209.33333333333334</ele><time>2026-04-09T14:31:56.379Z</time></trkpt><trkpt lat="43.0909383" lon="13.49521"><ele>212.0</ele><time>2026-04-09T14:31:57.375Z</time></trkpt><trkpt lat="43.091065" lon="13.49508"><ele>212.0</ele><time>2026-04-09T14:31:58.374Z</time></trkpt><trkpt lat="43.091195" lon="13.4949683"><ele>212.0</ele><time>2026-04-09T14:31:59.377Z</time></trkpt><trkpt lat="43.091335" lon="13.4948767"><ele>212.0</ele><time>2026-04-09T14:32:00.378Z</time></trkpt><trkpt lat="43.0914833" lon="13.4948017"><ele>212.33333333333334</ele><time>2026-04-09T14:32:01.377Z</time></trkpt><trkpt lat="43.0916333" lon="13.4947433"><ele>212.66666666666669</ele><time>2026-04-09T14:32:02.377Z</time></trkpt><trkpt lat="43.0917867" lon="13.4946933"><ele>213.0</ele><time>2026-04-09T14:32:03.378Z</time></trkpt><trkpt lat="43.0919433" lon="13.494665"><ele>213.0</ele><time>2026-04-09T14:32:04.378Z</time></trkpt><trkpt lat="43.0920967" lon="13.4946483"><ele>213.0</ele><time>2026-04-09T14:32:05.375Z</time></trkpt><trkpt lat="43.09225" lon="13.494645"><ele>213.0</ele><time>2026-04-09T14:32:06.377Z</time></trkpt><trkpt lat="43.092395" lon="13.494665"><ele>213.25</ele><time>2026-04-09T14:32:07.376Z</time></trkpt><trkpt lat="43.09253" lon="13.4947"><ele>213.5</ele><time>2026-04-09T14:32:08.376Z</time></trkpt><trkpt lat="43.092655" lon="13.4947433"><ele>213.75</ele><time>2026-04-09T14:32:09.376Z</time></trkpt><trkpt lat="43.09277" lon="13.494785"><ele>214.0</ele><time>2026-04-09T14:32:10.377Z</time></trkpt><trkpt lat="43.0928783" lon="13.49483"><ele>214.0</ele><time>2026-04-09T14:32:11.377Z</time></trkpt><trkpt lat="43.0929817" lon="13.49487"><ele>213.99999999999997</ele><time>2026-04-09T14:32:12.377Z</time></trkpt><trkpt lat="43.0930783" lon="13.49491"><ele>213.99999999999997</ele><time>2026-04-09T14:32:13.377Z</time></trkpt><trkpt lat="43.093165" lon="13.4949417"><ele>214.0</ele><time>2026-04-09T14:32:14.375Z</time></trkpt><trkpt lat="43.0932433" lon="13.494965"><ele>214.0</ele><time>2026-04-09T14:32:15.375Z</time></trkpt><trkpt lat="43.0933167" lon="13.494985"><ele>213.83333333333331</ele><time>2026-04-09T14:32:16.374Z</time></trkpt><trkpt lat="43.0933833" lon="13.495005"><ele>213.66666666666666</ele><time>2026-04-09T14:32:17.374Z</time></trkpt><trkpt lat="43.0934867" lon="13.4950317"><ele>213.5</ele><time>2026-04-09T14:32:19.373Z</time></trkpt><trkpt lat="43.0935567" lon="13.4950267"><ele>213.33333333333331</ele><time>2026-04-09T14:32:21.376Z</time></trkpt><trkpt lat="43.0936283" lon="13.49496"><ele>213.16666666666666</ele><time>2026-04-09T14:32:24.377Z</time></trkpt><trkpt lat="43.0936433" lon="13.4950983"><ele>213.0</ele><time>2026-04-09T14:48:58.375Z</time></trkpt><trkpt lat="43.0937417" lon="13.4951467"><ele>213.0</ele><time>2026-04-09T14:58:57.374Z</time></trkpt><trkpt lat="43.09381" lon="13.4951817"><ele>213.0</ele><time>2026-04-09T14:58:58.375Z</time></trkpt><trkpt lat="43.093885" lon="13.4952083"><ele>213.0</ele><time>2026-04-09T14:58:59.378Z</time></trkpt><trkpt lat="43.0939733" lon="13.4952367"><ele>213.0</ele><time>2026-04-09T14:59:00.373Z</time></trkpt><trkpt lat="43.0940667" lon="13.4952667"><ele>213.0</ele><time>2026-04-09T14:59:01.377Z</time></trkpt><trkpt lat="43.09417" lon="13.4952967"><ele>213.0</ele><time>2026-04-09T14:59:02.374Z</time></trkpt><trkpt lat="43.094265" lon="13.4953233"><ele>213.0</ele><time>2026-04-09T14:59:03.373Z</time></trkpt><trkpt lat="43.0943633" lon="13.4953533"><ele>213.0</ele><time>2026-04-09T14:59:04.378Z</time></trkpt><trkpt lat="43.0944617" lon="13.495385"><ele>213.0</ele><time>2026-04-09T14:59:05.373Z</time></trkpt><trkpt lat="43.0945683" lon="13.4954117"><ele>213.0</ele><time>2026-04-09T14:59:06.374Z</time></trkpt><trkpt lat="43.0946783" lon="13.4954383"><ele>213.0</ele><time>2026-04-09T14:59:07.38Z</time></trkpt><trkpt lat="43.0947967" lon="13.49547"><ele>213.0</ele><time>2026-04-09T14:59:08.373Z</time></trkpt><trkpt lat="43.0949183" lon="13.49551"><ele>213.0</ele><time>2026-04-09T14:59:09.375Z</time></trkpt><trkpt lat="43.0950433" lon="13.495555"><ele>213.0</ele><time>2026-04-09T14:59:10.376Z</time></trkpt><trkpt lat="43.09517" lon="13.4956067"><ele>213.0</ele><time>2026-04-09T14:59:11.374Z</time></trkpt><trkpt lat="43.0953" lon="13.4956517"><ele>213.25</ele><time>2026-04-09T14:59:12.374Z</time></trkpt><trkpt lat="43.09543" lon="13.495695"><ele>213.5</ele><time>2026-04-09T14:59:13.374Z</time></trkpt><trkpt lat="43.0955617" lon="13.4957417"><ele>213.75</ele><time>2026-04-09T14:59:14.375Z</time></trkpt><trkpt lat="43.095695" lon="13.4957867"><ele>214.0</ele><time>2026-04-09T14:59:15.373Z</time></trkpt><trkpt lat="43.0958283" lon="13.495835"><ele>214.0</ele><time>2026-04-09T14:59:16.373Z</time></trkpt><trkpt lat="43.0959617" lon="13.4958783"><ele>214.0</ele><time>2026-04-09T14:59:17.375Z</time></trkpt><trkpt lat="43.0960917" lon="13.4959267"><ele>214.0</ele><time>2026-04-09T14:59:18.373Z</time></trkpt><trkpt lat="43.09623" lon="13.4959733"><ele>214.0</ele><time>2026-04-09T14:59:19.373Z</time></trkpt><trkpt lat="43.0963683" lon="13.4960217"><ele>214.0</ele><time>2026-04-09T14:59:20.375Z</time></trkpt><trkpt lat="43.0965083" lon="13.4960733"><ele>214.0</ele><time>2026-04-09T14:59:21.374Z</time></trkpt><trkpt lat="43.0966517" lon="13.49612"><ele>214.0</ele><time>2026-04-09T14:59:22.373Z</time></trkpt><trkpt lat="43.0967967" lon="13.4961633"><ele>214.0</ele><time>2026-04-09T14:59:23.374Z</time></trkpt><trkpt lat="43.0969433" lon="13.4962117"><ele>214.0</ele><time>2026-04-09T14:59:24.373Z</time></trkpt><trkpt lat="43.0970867" lon="13.4962567"><ele>214.0</ele><time>2026-04-09T14:59:25.375Z</time></trkpt><trkpt lat="43.09723" lon="13.496305"><ele>214.0</ele><time>2026-04-09T14:59:26.376Z</time></trkpt><trkpt lat="43.0973667" lon="13.496355"><ele>214.0</ele><time>2026-04-09T14:59:27.374Z</time></trkpt><trkpt lat="43.0975017" lon="13.4964033"><ele>214.0</ele><time>2026-04-09T14:59:28.376Z</time></trkpt><trkpt lat="43.0976383" lon="13.49646"><ele>214.0</ele><time>2026-04-09T14:59:29.377Z</time></trkpt><trkpt lat="43.0977767" lon="13.496505"><ele>214.0</ele><time>2026-04-09T14:59:30.374Z</time></trkpt><trkpt lat="43.097915" lon="13.4965567"><ele>214.0</ele><time>2026-04-09T14:59:31.375Z</time></trkpt><trkpt lat="43.0980517" lon="13.4966067"><ele>214.0</ele><time>2026-04-09T14:59:32.377Z</time></trkpt><trkpt lat="43.0981883" lon="13.496665"><ele>214.0</ele><time>2026-04-09T14:59:33.378Z</time></trkpt><trkpt lat="43.098325" lon="13.4967283"><ele>214.0</ele><time>2026-04-09T14:59:34.375Z</time></trkpt><trkpt lat="43.098465" lon="13.4968017"><ele>214.0</ele><time>2026-04-09T14:59:35.377Z</time></trkpt><trkpt lat="43.0986017" lon="13.49688"><ele>213.5</ele><time>2026-04-09T14:59:36.377Z</time></trkpt><trkpt lat="43.0987383" lon="13.496965"><ele>213.0</ele><time>2026-04-09T14:59:37.377Z</time></trkpt><trkpt lat="43.0988733" lon="13.4970517"><ele>212.5</ele><time>2026-04-09T14:59:38.377Z</time></trkpt><trkpt lat="43.0990033" lon="13.4971417"><ele>212.0</ele><time>2026-04-09T14:59:39.382Z</time></trkpt><trkpt lat="43.099135" lon="13.4972283"><ele>211.25</ele><time>2026-04-09T14:59:40.376Z</time></trkpt><trkpt lat="43.0992667" lon="13.4973117"><ele>210.5</ele><time>2026-04-09T14:59:41.377Z</time></trkpt><trkpt lat="43.099395" lon="13.4973967"><ele>209.75</ele><time>2026-04-09T14:59:42.377Z</time></trkpt><trkpt lat="43.0995183" lon="13.497485"><ele>209.0</ele><time>2026-04-09T14:59:43.376Z</time></trkpt><trkpt lat="43.099635" lon="13.49757"><ele>209.0</ele><time>2026-04-09T14:59:44.378Z</time></trkpt><trkpt lat="43.09975" lon="13.4976417"><ele>209.0</ele><time>2026-04-09T14:59:45.377Z</time></trkpt><trkpt lat="43.0998517" lon="13.49772"><ele>209.0</ele><time>2026-04-09T14:59:46.377Z</time></trkpt><trkpt lat="43.099945" lon="13.4978"><ele>209.0</ele><time>2026-04-09T14:59:47.377Z</time></trkpt><trkpt lat="43.1000267" lon="13.4979"><ele>210.0</ele><time>2026-04-09T14:59:48.378Z</time></trkpt><trkpt lat="43.1001033" lon="13.4980083"><ele>211.0</ele><time>2026-04-09T14:59:49.377Z</time></trkpt><trkpt lat="43.100165" lon="13.4981317"><ele>212.0</ele><time>2026-04-09T14:59:50.376Z</time></trkpt><trkpt lat="43.100215" lon="13.49827"><ele>213.0</ele><time>2026-04-09T14:59:51.376Z</time></trkpt><trkpt lat="43.1002617" lon="13.498425"><ele>213.0</ele><time>2026-04-09T14:59:52.377Z</time></trkpt><trkpt lat="43.1003067" lon="13.4985817"><ele>213.0</ele><time>2026-04-09T14:59:53.377Z</time></trkpt><trkpt lat="43.1003517" lon="13.4987517"><ele>213.0</ele><time>2026-04-09T14:59:54.376Z</time></trkpt><trkpt lat="43.1004017" lon="13.4989217"><ele>213.0</ele><time>2026-04-09T14:59:55.376Z</time></trkpt><trkpt lat="43.1004533" lon="13.499095"><ele>213.0</ele><time>2026-04-09T14:59:56.376Z</time></trkpt><trkpt lat="43.1005067" lon="13.4992767"><ele>213.0</ele><time>2026-04-09T14:59:57.377Z</time></trkpt><trkpt lat="43.100565" lon="13.4994583"><ele>213.0</ele><time>2026-04-09T14:59:58.376Z</time></trkpt><trkpt lat="43.1006267" lon="13.4996383"><ele>213.0</ele><time>2026-04-09T14:59:59.374Z</time></trkpt><trkpt lat="43.1006917" lon="13.4998183"><ele>213.33333333333331</ele><time>2026-04-09T15:00:00.373Z</time></trkpt><trkpt lat="43.100755" lon="13.5000017"><ele>213.66666666666666</ele><time>2026-04-09T15:00:01.374Z</time></trkpt><trkpt lat="43.1008167" lon="13.50019"><ele>214.0</ele><time>2026-04-09T15:00:02.378Z</time></trkpt><trkpt lat="43.10088" lon="13.500385"><ele>211.33333333333331</ele><time>2026-04-09T15:00:03.374Z</time></trkpt><trkpt lat="43.1009433" lon="13.50058"><ele>208.66666666666669</ele><time>2026-04-09T15:00:04.375Z</time></trkpt><trkpt lat="43.1010083" lon="13.50078"><ele>206.0</ele><time>2026-04-09T15:00:05.375Z</time></trkpt><trkpt lat="43.101075" lon="13.5009833"><ele>206.0</ele><time>2026-04-09T15:00:06.375Z</time></trkpt><trkpt lat="43.1011333" lon="13.5011883"><ele>206.0</ele><time>2026-04-09T15:00:07.374Z</time></trkpt><trkpt lat="43.1011883" lon="13.501395"><ele>206.0</ele><time>2026-04-09T15:00:08.374Z</time></trkpt><trkpt lat="43.1012383" lon="13.5016033"><ele>206.0</ele><time>2026-04-09T15:00:09.375Z</time></trkpt><trkpt lat="43.1012817" lon="13.50181"><ele>206.0</ele><time>2026-04-09T15:00:10.375Z</time></trkpt><trkpt lat="43.1013133" lon="13.5020217"><ele>206.0</ele><time>2026-04-09T15:00:11.373Z</time></trkpt><trkpt lat="43.101345" lon="13.5022317"><ele>206.0</ele><time>2026-04-09T15:00:12.378Z</time></trkpt><trkpt lat="43.101375" lon="13.502445"><ele>206.0</ele><time>2026-04-09T15:00:13.377Z</time></trkpt><trkpt lat="43.1014017" lon="13.5026583"><ele>206.0</ele><time>2026-04-09T15:00:14.378Z</time></trkpt><trkpt lat="43.1014233" lon="13.502875"><ele>206.0</ele><time>2026-04-09T15:00:15.378Z</time></trkpt><trkpt lat="43.1014417" lon="13.5030917"><ele>206.0</ele><time>2026-04-09T15:00:16.377Z</time></trkpt><trkpt lat="43.1014617" lon="13.5033117"><ele>206.0</ele><time>2026-04-09T15:00:17.377Z</time></trkpt><trkpt lat="43.10148" lon="13.5035333"><ele>205.33333333333334</ele><time>2026-04-09T15:00:18.378Z</time></trkpt><trkpt lat="43.101495" lon="13.5037567"><ele>204.66666666666669</ele><time>2026-04-09T15:00:19.377Z</time></trkpt><trkpt lat="43.1015117" lon="13.5039817"><ele>204.0</ele><time>2026-04-09T15:00:20.376Z</time></trkpt><trkpt lat="43.101525" lon="13.504205"><ele>204.0</ele><time>2026-04-09T15:00:21.378Z</time></trkpt><trkpt lat="43.1015317" lon="13.5044283"><ele>204.0</ele><time>2026-04-09T15:00:22.377Z</time></trkpt><trkpt lat="43.1015317" lon="13.5046533"><ele>204.0</ele><time>2026-04-09T15:00:23.378Z</time></trkpt><trkpt lat="43.1015267" lon="13.5048783"><ele>204.0</ele><time>2026-04-09T15:00:24.377Z</time></trkpt><trkpt lat="43.1015167" lon="13.5051017"><ele>204.0</ele><time>2026-04-09T15:00:25.377Z</time></trkpt><trkpt lat="43.101505" lon="13.5053233"><ele>204.0</ele><time>2026-04-09T15:00:26.378Z</time></trkpt><trkpt lat="43.1014917" lon="13.5055433"><ele>204.0</ele><time>2026-04-09T15:00:27.374Z</time></trkpt><trkpt lat="43.1014733" lon="13.5057633"><ele>204.0</ele><time>2026-04-09T15:00:28.375Z</time></trkpt><trkpt lat="43.101455" lon="13.5059783"><ele>204.0</ele><time>2026-04-09T15:00:29.375Z</time></trkpt><trkpt lat="43.101435" lon="13.5061917"><ele>203.66666666666669</ele><time>2026-04-09T15:00:30.375Z</time></trkpt><trkpt lat="43.101415" lon="13.50641"><ele>203.33333333333334</ele><time>2026-04-09T15:00:31.375Z</time></trkpt><trkpt lat="43.1013967" lon="13.5066283"><ele>203.0</ele><time>2026-04-09T15:00:32.375Z</time></trkpt><trkpt lat="43.1013783" lon="13.5068483"><ele>203.0</ele><time>2026-04-09T15:00:33.375Z</time></trkpt><trkpt lat="43.10136" lon="13.5070667"><ele>203.0</ele><time>2026-04-09T15:00:34.375Z</time></trkpt><trkpt lat="43.10134" lon="13.5072883"><ele>203.0</ele><time>2026-04-09T15:00:35.375Z</time></trkpt><trkpt lat="43.1013217" lon="13.50751"><ele>202.66666666666669</ele><time>2026-04-09T15:00:36.374Z</time></trkpt><trkpt lat="43.101305" lon="13.5077317"><ele>202.33333333333331</ele><time>2026-04-09T15:00:37.376Z</time></trkpt><trkpt lat="43.10129" lon="13.5079533"><ele>202.0</ele><time>2026-04-09T15:00:38.375Z</time></trkpt><trkpt lat="43.1012733" lon="13.5081767"><ele>202.0</ele><time>2026-04-09T15:00:39.374Z</time></trkpt><trkpt lat="43.1012567" lon="13.5084017"><ele>202.0</ele><time>2026-04-09T15:00:40.374Z</time></trkpt><trkpt lat="43.10124" lon="13.5086267"><ele>202.0</ele><time>2026-04-09T15:00:41.378Z</time></trkpt><trkpt lat="43.101225" lon="13.50885"><ele>201.66666666666666</ele><time>2026-04-09T15:00:42.374Z</time></trkpt><trkpt lat="43.1012167" lon="13.5090733"><ele>201.33333333333331</ele><time>2026-04-09T15:00:43.375Z</time></trkpt><trkpt lat="43.1012167" lon="13.5092933"><ele>201.0</ele><time>2026-04-09T15:00:44.374Z</time></trkpt><trkpt lat="43.1012267" lon="13.5095117"><ele>200.0</ele><time>2026-04-09T15:00:45.378Z</time></trkpt><trkpt lat="43.101245" lon="13.5097283"><ele>199.0</ele><time>2026-04-09T15:00:46.377Z</time></trkpt><trkpt lat="43.1012767" lon="13.50995"><ele>198.0</ele><time>2026-04-09T15:00:47.377Z</time></trkpt><trkpt lat="43.1013133" lon="13.5101733"><ele>198.0</ele><time>2026-04-09T15:00:48.378Z</time></trkpt><trkpt lat="43.10135" lon="13.5104"><ele>198.0</ele><time>2026-04-09T15:00:49.377Z</time></trkpt><trkpt lat="43.101395" lon="13.51062"><ele>198.0</ele><time>2026-04-09T15:00:50.378Z</time></trkpt><trkpt lat="43.1014417" lon="13.510835"><ele>196.66666666666669</ele><time>2026-04-09T15:00:51.378Z</time></trkpt><trkpt lat="43.1014833" lon="13.51105"><ele>195.33333333333334</ele><time>2026-04-09T15:00:52.378Z</time></trkpt><trkpt lat="43.1015283" lon="13.5112633"><ele>194.0</ele><time>2026-04-09T15:00:53.376Z</time></trkpt><trkpt lat="43.10158" lon="13.511475"><ele>195.33333333333334</ele><time>2026-04-09T15:00:54.374Z</time></trkpt><trkpt lat="43.1016283" lon="13.5116783"><ele>196.66666666666669</ele><time>2026-04-09T15:00:55.374Z</time></trkpt><trkpt lat="43.1016767" lon="13.51188"><ele>198.0</ele><time>2026-04-09T15:00:56.373Z</time></trkpt><trkpt lat="43.1017233" lon="13.5120867"><ele>198.0</ele><time>2026-04-09T15:00:57.374Z</time></trkpt><trkpt lat="43.10177" lon="13.5122917"><ele>198.0</ele><time>2026-04-09T15:00:58.374Z</time></trkpt><trkpt lat="43.101815" lon="13.512495"><ele>198.0</ele><time>2026-04-09T15:00:59.375Z</time></trkpt><trkpt lat="43.101855" lon="13.5127033"><ele>196.33333333333331</ele><time>2026-04-09T15:01:00.374Z</time></trkpt><trkpt lat="43.1018967" lon="13.512915"><ele>194.66666666666666</ele><time>2026-04-09T15:01:01.376Z</time></trkpt><trkpt lat="43.101935" lon="13.513125"><ele>193.0</ele><time>2026-04-09T15:01:02.38Z</time></trkpt><trkpt lat="43.101975" lon="13.51333"><ele>193.0</ele><time>2026-04-09T15:01:03.375Z</time></trkpt><trkpt lat="43.10201" lon="13.5135333"><ele>193.0</ele><time>2026-04-09T15:01:04.374Z</time></trkpt><trkpt lat="43.1020433" lon="13.5137333"><ele>193.0</ele><time>2026-04-09T15:01:05.375Z</time></trkpt><trkpt lat="43.102075" lon="13.5139283"><ele>193.0</ele><time>2026-04-09T15:01:06.375Z</time></trkpt><trkpt lat="43.1021083" lon="13.5141283"><ele>192.66666666666666</ele><time>2026-04-09T15:01:07.376Z</time></trkpt><trkpt lat="43.1021433" lon="13.51433"><ele>192.33333333333331</ele><time>2026-04-09T15:01:08.375Z</time></trkpt><trkpt lat="43.10218" lon="13.5145333"><ele>192.0</ele><time>2026-04-09T15:01:09.374Z</time></trkpt><trkpt lat="43.102215" lon="13.5147383"><ele>191.33333333333334</ele><time>2026-04-09T15:01:10.375Z</time></trkpt><trkpt lat="43.1022517" lon="13.51495"><ele>190.66666666666669</ele><time>2026-04-09T15:01:11.375Z</time></trkpt><trkpt lat="43.10229" lon="13.5151633"><ele>190.0</ele><time>2026-04-09T15:01:12.378Z</time></trkpt><trkpt lat="43.1023283" lon="13.5153783"><ele>189.66666666666669</ele><time>2026-04-09T15:01:13.374Z</time></trkpt><trkpt lat="43.1023667" lon="13.5155917"><ele>189.33333333333334</ele><time>2026-04-09T15:01:14.377Z</time></trkpt><trkpt lat="43.1024033" lon="13.5158067"><ele>189.0</ele><time>2026-04-09T15:01:15.378Z</time></trkpt><trkpt lat="43.1024383" lon="13.51602"><ele>189.66666666666666</ele><time>2026-04-09T15:01:16.378Z</time></trkpt><trkpt lat="43.1024733" lon="13.51623"><ele>190.33333333333331</ele><time>2026-04-09T15:01:17.375Z</time></trkpt><trkpt lat="43.10251" lon="13.5164383"><ele>191.0</ele><time>2026-04-09T15:01:18.376Z</time></trkpt><trkpt lat="43.1025433" lon="13.5166467"><ele>191.0</ele><time>2026-04-09T15:01:19.375Z</time></trkpt><trkpt lat="43.10258" lon="13.5168567"><ele>191.0</ele><time>2026-04-09T15:01:20.376Z</time></trkpt><trkpt lat="43.1026133" lon="13.5170667"><ele>191.0</ele><time>2026-04-09T15:01:21.376Z</time></trkpt><trkpt lat="43.1026467" lon="13.5172767"><ele>190.66666666666666</ele><time>2026-04-09T15:01:22.375Z</time></trkpt><trkpt lat="43.1026817" lon="13.5174817"><ele>190.33333333333334</ele><time>2026-04-09T15:01:23.376Z</time></trkpt><trkpt lat="43.1027183" lon="13.5176883"><ele>190.0</ele><time>2026-04-09T15:01:24.377Z</time></trkpt><trkpt lat="43.102755" lon="13.5178983"><ele>189.66666666666669</ele><time>2026-04-09T15:01:25.375Z</time></trkpt><trkpt lat="43.1027933" lon="13.5181067"><ele>189.33333333333334</ele><time>2026-04-09T15:01:26.378Z</time></trkpt><trkpt lat="43.1028283" lon="13.5183183"><ele>189.0</ele><time>2026-04-09T15:01:27.374Z</time></trkpt><trkpt lat="43.1028667" lon="13.5185333"><ele>188.66666666666666</ele><time>2026-04-09T15:01:28.375Z</time></trkpt><trkpt lat="43.1029033" lon="13.5187483"><ele>188.33333333333331</ele><time>2026-04-09T15:01:29.375Z</time></trkpt><trkpt lat="43.10294" lon="13.5189667"><ele>188.0</ele><time>2026-04-09T15:01:30.375Z</time></trkpt><trkpt lat="43.1029767" lon="13.5191817"><ele>188.0</ele><time>2026-04-09T15:01:31.375Z</time></trkpt><trkpt lat="43.10301" lon="13.5193967"><ele>188.0</ele><time>2026-04-09T15:01:32.376Z</time></trkpt><trkpt lat="43.103045" lon="13.5196117"><ele>188.0</ele><time>2026-04-09T15:01:33.375Z</time></trkpt><trkpt lat="43.1030783" lon="13.5198267"><ele>187.33333333333331</ele><time>2026-04-09T15:01:34.373Z</time></trkpt><trkpt lat="43.10311" lon="13.520045"><ele>186.66666666666666</ele><time>2026-04-09T15:01:35.375Z</time></trkpt><trkpt lat="43.1031367" lon="13.5202583"><ele>186.0</ele><time>2026-04-09T15:01:36.375Z</time></trkpt><trkpt lat="43.103155" lon="13.5204767"><ele>185.0</ele><time>2026-04-09T15:01:37.375Z</time></trkpt><trkpt lat="43.1031717" lon="13.5206967"><ele>184.0</ele><time>2026-04-09T15:01:38.378Z</time></trkpt><trkpt lat="43.10318" lon="13.520915"><ele>183.0</ele><time>2026-04-09T15:01:39.375Z</time></trkpt><trkpt lat="43.1031833" lon="13.521135"><ele>182.0</ele><time>2026-04-09T15:01:40.375Z</time></trkpt><trkpt lat="43.1031817" lon="13.52135"><ele>181.0</ele><time>2026-04-09T15:01:41.378Z</time></trkpt><trkpt lat="43.1031767" lon="13.5215683"><ele>180.0</ele><time>2026-04-09T15:01:42.378Z</time></trkpt><trkpt lat="43.1031683" lon="13.52179"><ele>180.0</ele><time>2026-04-09T15:01:43.377Z</time></trkpt><trkpt lat="43.1031583" lon="13.52201"><ele>180.0</ele><time>2026-04-09T15:01:44.377Z</time></trkpt><trkpt lat="43.103145" lon="13.5222283"><ele>180.0</ele><time>2026-04-09T15:01:45.378Z</time></trkpt><trkpt lat="43.1031317" lon="13.5224467"><ele>180.66666666666666</ele><time>2026-04-09T15:01:46.377Z</time></trkpt><trkpt lat="43.103115" lon="13.52266"><ele>181.33333333333331</ele><time>2026-04-09T15:01:47.378Z</time></trkpt><trkpt lat="43.1031" lon="13.5228767"><ele>182.0</ele><time>2026-04-09T15:01:48.377Z</time></trkpt><trkpt lat="43.1030867" lon="13.523095"><ele>182.66666666666666</ele><time>2026-04-09T15:01:49.377Z</time></trkpt><trkpt lat="43.1030733" lon="13.5233133"><ele>183.33333333333334</ele><time>2026-04-09T15:01:50.378Z</time></trkpt><trkpt lat="43.1030583" lon="13.5235333"><ele>184.0</ele><time>2026-04-09T15:01:51.377Z</time></trkpt><trkpt lat="43.1030433" lon="13.523755"><ele>184.33333333333334</ele><time>2026-04-09T15:01:52.378Z</time></trkpt><trkpt lat="43.1030283" lon="13.5239767"><ele>184.66666666666666</ele><time>2026-04-09T15:01:53.378Z</time></trkpt><trkpt lat="43.1030133" lon="13.524195"><ele>185.0</ele><time>2026-04-09T15:01:54.378Z</time></trkpt><trkpt lat="43.1029983" lon="13.5244117"><ele>184.66666666666666</ele><time>2026-04-09T15:01:55.378Z</time></trkpt><trkpt lat="43.1029833" lon="13.5246283"><ele>184.33333333333334</ele><time>2026-04-09T15:01:56.377Z</time></trkpt><trkpt lat="43.10297" lon="13.5248433"><ele>184.0</ele><time>2026-04-09T15:01:57.378Z</time></trkpt><trkpt lat="43.1029567" lon="13.5250583"><ele>184.0</ele><time>2026-04-09T15:01:58.373Z</time></trkpt><trkpt lat="43.102945" lon="13.525275"><ele>184.0</ele><time>2026-04-09T15:01:59.376Z</time></trkpt><trkpt lat="43.10293" lon="13.5254933"><ele>184.0</ele><time>2026-04-09T15:02:00.375Z</time></trkpt><trkpt lat="43.102915" lon="13.52571"><ele>183.66666666666669</ele><time>2026-04-09T15:02:01.376Z</time></trkpt><trkpt lat="43.1029033" lon="13.5259233"><ele>183.33333333333334</ele><time>2026-04-09T15:02:02.375Z</time></trkpt><trkpt lat="43.10289" lon="13.5261383"><ele>183.0</ele><time>2026-04-09T15:02:03.377Z</time></trkpt><trkpt lat="43.1028783" lon="13.526355"><ele>182.0</ele><time>2026-04-09T15:02:04.376Z</time></trkpt><trkpt lat="43.1028667" lon="13.5265717"><ele>181.0</ele><time>2026-04-09T15:02:05.375Z</time></trkpt><trkpt lat="43.1028567" lon="13.5267917"><ele>180.0</ele><time>2026-04-09T15:02:06.377Z</time></trkpt><trkpt lat="43.102845" lon="13.52701"><ele>179.66666666666666</ele><time>2026-04-09T15:02:07.376Z</time></trkpt><trkpt lat="43.1028333" lon="13.52723"><ele>179.33333333333331</ele><time>2026-04-09T15:02:08.374Z</time></trkpt><trkpt lat="43.1028233" lon="13.527445"><ele>179.0</ele><time>2026-04-09T15:02:09.375Z</time></trkpt><trkpt lat="43.10281" lon="13.5276617"><ele>179.0</ele><time>2026-04-09T15:02:10.375Z</time></trkpt><trkpt lat="43.1027983" lon="13.5278783"><ele>179.0</ele><time>2026-04-09T15:02:11.375Z</time></trkpt><trkpt lat="43.102785" lon="13.5280917"><ele>179.0</ele><time>2026-04-09T15:02:12.376Z</time></trkpt><trkpt lat="43.1027717" lon="13.5283017"><ele>179.0</ele><time>2026-04-09T15:02:13.375Z</time></trkpt><trkpt lat="43.1027567" lon="13.5285117"><ele>179.0</ele><time>2026-04-09T15:02:14.376Z</time></trkpt><trkpt lat="43.102745" lon="13.52872"><ele>179.0</ele><time>2026-04-09T15:02:15.378Z</time></trkpt><trkpt lat="43.1027333" lon="13.5289267"><ele>178.66666666666666</ele><time>2026-04-09T15:02:16.379Z</time></trkpt><trkpt lat="43.1027183" lon="13.52914"><ele>178.33333333333334</ele><time>2026-04-09T15:02:17.378Z</time></trkpt><trkpt lat="43.1027033" lon="13.5293533"><ele>178.0</ele><time>2026-04-09T15:02:18.379Z</time></trkpt><trkpt lat="43.102685" lon="13.5295667"><ele>176.66666666666669</ele><time>2026-04-09T15:02:19.376Z</time></trkpt><trkpt lat="43.10266" lon="13.5297783"><ele>175.33333333333334</ele><time>2026-04-09T15:02:20.377Z</time></trkpt><trkpt lat="43.10262" lon="13.5299883"><ele>174.0</ele><time>2026-04-09T15:02:21.376Z</time></trkpt><trkpt lat="43.102565" lon="13.5302"><ele>173.33333333333334</ele><time>2026-04-09T15:02:22.376Z</time></trkpt><trkpt lat="43.1024967" lon="13.5304067"><ele>172.66666666666669</ele><time>2026-04-09T15:02:23.377Z</time></trkpt><trkpt lat="43.1024217" lon="13.5306083"><ele>172.0</ele><time>2026-04-09T15:02:24.374Z</time></trkpt><trkpt lat="43.10234" lon="13.530805"><ele>171.66666666666669</ele><time>2026-04-09T15:02:25.373Z</time></trkpt><trkpt lat="43.1022533" lon="13.530995"><ele>171.33333333333334</ele><time>2026-04-09T15:02:26.375Z</time></trkpt><trkpt lat="43.1021683" lon="13.5311867"><ele>171.0</ele><time>2026-04-09T15:02:27.374Z</time></trkpt><trkpt lat="43.1020833" lon="13.5313767"><ele>171.0</ele><time>2026-04-09T15:02:28.374Z</time></trkpt><trkpt lat="43.102" lon="13.531565"><ele>171.0</ele><time>2026-04-09T15:02:29.374Z</time></trkpt><trkpt lat="43.1019217" lon="13.5317567"><ele>171.0</ele><time>2026-04-09T15:02:30.374Z</time></trkpt><trkpt lat="43.10185" lon="13.531945"><ele>170.66666666666666</ele><time>2026-04-09T15:02:31.374Z</time></trkpt><trkpt lat="43.1017917" lon="13.53214"><ele>170.33333333333331</ele><time>2026-04-09T15:02:32.375Z</time></trkpt><trkpt lat="43.101745" lon="13.53234"><ele>170.0</ele><time>2026-04-09T15:02:33.374Z</time></trkpt><trkpt lat="43.10171" lon="13.53255"><ele>170.0</ele><time>2026-04-09T15:02:34.375Z</time></trkpt><trkpt lat="43.1016883" lon="13.532765"><ele>170.0</ele><time>2026-04-09T15:02:35.377Z</time></trkpt><trkpt lat="43.10168" lon="13.5329783"><ele>170.0</ele><time>2026-04-09T15:02:36.373Z</time></trkpt><trkpt lat="43.101685" lon="13.5331933"><ele>169.33333333333331</ele><time>2026-04-09T15:02:37.373Z</time></trkpt><trkpt lat="43.101705" lon="13.5334117"><ele>168.66666666666666</ele><time>2026-04-09T15:02:38.374Z</time></trkpt><trkpt lat="43.101735" lon="13.53363"><ele>168.0</ele><time>2026-04-09T15:02:39.373Z</time></trkpt><trkpt lat="43.1017683" lon="13.5338483"><ele>167.33333333333334</ele><time>2026-04-09T15:02:40.375Z</time></trkpt><trkpt lat="43.1018067" lon="13.5340667"><ele>166.66666666666669</ele><time>2026-04-09T15:02:41.374Z</time></trkpt><trkpt lat="43.1018467" lon="13.5342867"><ele>166.0</ele><time>2026-04-09T15:02:42.374Z</time></trkpt><trkpt lat="43.10189" lon="13.5345033"><ele>165.33333333333334</ele><time>2026-04-09T15:02:43.376Z</time></trkpt><trkpt lat="43.101935" lon="13.53472"><ele>164.66666666666666</ele><time>2026-04-09T15:02:44.374Z</time></trkpt><trkpt lat="43.10198" lon="13.534935"><ele>164.0</ele><time>2026-04-09T15:02:45.378Z</time></trkpt><trkpt lat="43.1020233" lon="13.53515"><ele>164.0</ele><time>2026-04-09T15:02:46.378Z</time></trkpt><trkpt lat="43.1020667" lon="13.5353667"><ele>164.0</ele><time>2026-04-09T15:02:47.377Z</time></trkpt><trkpt lat="43.10211" lon="13.5355833"><ele>164.0</ele><time>2026-04-09T15:02:48.377Z</time></trkpt><trkpt lat="43.1021517" lon="13.5357983"><ele>164.33333333333331</ele><time>2026-04-09T15:02:49.377Z</time></trkpt><trkpt lat="43.1021933" lon="13.536015"><ele>164.66666666666666</ele><time>2026-04-09T15:02:50.378Z</time></trkpt><trkpt lat="43.102235" lon="13.5362283"><ele>165.0</ele><time>2026-04-09T15:02:51.377Z</time></trkpt><trkpt lat="43.102275" lon="13.53644"><ele>165.0</ele><time>2026-04-09T15:02:52.376Z</time></trkpt><trkpt lat="43.1023167" lon="13.5366517"><ele>165.0</ele><time>2026-04-09T15:02:53.377Z</time></trkpt><trkpt lat="43.1023583" lon="13.53686"><ele>165.0</ele><time>2026-04-09T15:02:54.373Z</time></trkpt><trkpt lat="43.1024017" lon="13.537065"><ele>166.0</ele><time>2026-04-09T15:02:55.375Z</time></trkpt><trkpt lat="43.1024467" lon="13.5372667"><ele>167.0</ele><time>2026-04-09T15:02:56.374Z</time></trkpt><trkpt lat="43.1024883" lon="13.537465"><ele>168.0</ele><time>2026-04-09T15:02:57.373Z</time></trkpt><trkpt lat="43.1025317" lon="13.5376617"><ele>168.0</ele><time>2026-04-09T15:02:58.374Z</time></trkpt><trkpt lat="43.1025767" lon="13.5378567"><ele>168.0</ele><time>2026-04-09T15:02:59.374Z</time></trkpt><trkpt lat="43.1026217" lon="13.5380517"><ele>168.0</ele><time>2026-04-09T15:03:00.373Z</time></trkpt><trkpt lat="43.10267" lon="13.5382517"><ele>168.0</ele><time>2026-04-09T15:03:01.373Z</time></trkpt><trkpt lat="43.1027183" lon="13.53845"><ele>168.0</ele><time>2026-04-09T15:03:02.374Z</time></trkpt><trkpt lat="43.1027667" lon="13.5386483"><ele>168.0</ele><time>2026-04-09T15:03:03.374Z</time></trkpt><trkpt lat="43.1028117" lon="13.5388417"><ele>168.0</ele><time>2026-04-09T15:03:04.374Z</time></trkpt><trkpt lat="43.1028617" lon="13.539035"><ele>168.0</ele><time>2026-04-09T15:03:05.374Z</time></trkpt><trkpt lat="43.1029133" lon="13.5392217"><ele>168.0</ele><time>2026-04-09T15:03:06.373Z</time></trkpt><trkpt lat="43.1029617" lon="13.539405"><ele>168.0</ele><time>2026-04-09T15:03:07.375Z</time></trkpt><trkpt lat="43.1030083" lon="13.5395817"><ele>167.75</ele><time>2026-04-09T15:03:08.375Z</time></trkpt><trkpt lat="43.1030517" lon="13.5397467"><ele>167.5</ele><time>2026-04-09T15:03:09.374Z</time></trkpt><trkpt lat="43.1030917" lon="13.539905"><ele>167.25</ele><time>2026-04-09T15:03:10.374Z</time></trkpt><trkpt lat="43.10313" lon="13.5400533"><ele>167.0</ele><time>2026-04-09T15:03:11.374Z</time></trkpt><trkpt lat="43.1031617" lon="13.5401867"><ele>167.0</ele><time>2026-04-09T15:03:12.373Z</time></trkpt><trkpt lat="43.1031883" lon="13.5403017"><ele>167.0</ele><time>2026-04-09T15:03:13.374Z</time></trkpt><trkpt lat="43.10321" lon="13.5403867"><ele>167.0</ele><time>2026-04-09T15:03:14.375Z</time></trkpt><trkpt lat="43.1032283" lon="13.5405"><ele>167.0</ele><time>2026-04-09T15:03:16.375Z</time></trkpt><trkpt lat="43.1032233" lon="13.5406333"><ele>167.0</ele><time>2026-04-09T15:03:18.372Z</time></trkpt><trkpt lat="43.1032583" lon="13.5407733"><ele>167.0</ele><time>2026-04-09T15:03:20.375Z</time></trkpt><trkpt lat="43.1033" lon="13.5408483"><ele>167.6</ele><time>2026-04-09T15:03:21.374Z</time></trkpt><trkpt lat="43.1033567" lon="13.54094"><ele>168.2</ele><time>2026-04-09T15:03:22.375Z</time></trkpt><trkpt lat="43.1034117" lon="13.54105"><ele>168.8</ele><time>2026-04-09T15:03:23.375Z</time></trkpt><trkpt lat="43.1034617" lon="13.5411667"><ele>169.4</ele><time>2026-04-09T15:03:24.374Z</time></trkpt><trkpt lat="43.1035133" lon="13.5412917"><ele>170.0</ele><time>2026-04-09T15:03:25.375Z</time></trkpt><trkpt lat="43.103565" lon="13.5414267"><ele>170.0</ele><time>2026-04-09T15:03:26.375Z</time></trkpt><trkpt lat="43.103625" lon="13.5415733"><ele>170.0</ele><time>2026-04-09T15:03:27.375Z</time></trkpt><trkpt lat="43.10369" lon="13.5417267"><ele>170.0</ele><time>2026-04-09T15:03:28.374Z</time></trkpt><trkpt lat="43.1037583" lon="13.54189"><ele>170.0</ele><time>2026-04-09T15:03:29.375Z</time></trkpt><trkpt lat="43.1038267" lon="13.5420533"><ele>170.25</ele><time>2026-04-09T15:03:30.375Z</time></trkpt><trkpt lat="43.103895" lon="13.5422167"><ele>170.5</ele><time>2026-04-09T15:03:31.374Z</time></trkpt><trkpt lat="43.1039667" lon="13.5423817"><ele>170.75</ele><time>2026-04-09T15:03:32.374Z</time></trkpt><trkpt lat="43.1040367" lon="13.5425517"><ele>171.0</ele><time>2026-04-09T15:03:33.375Z</time></trkpt><trkpt lat="43.1041083" lon="13.5427267"><ele>170.66666666666666</ele><time>2026-04-09T15:03:34.376Z</time></trkpt><trkpt lat="43.1041817" lon="13.5429083"><ele>170.33333333333331</ele><time>2026-04-09T15:03:35.373Z</time></trkpt><trkpt lat="43.10426" lon="13.5430933"><ele>170.0</ele><time>2026-04-09T15:03:36.373Z</time></trkpt><trkpt lat="43.1043417" lon="13.5432783"><ele>170.0</ele><time>2026-04-09T15:03:37.374Z</time></trkpt><trkpt lat="43.1044183" lon="13.543465"><ele>170.0</ele><time>2026-04-09T15:03:38.375Z</time></trkpt><trkpt lat="43.1044983" lon="13.543655"><ele>170.0</ele><time>2026-04-09T15:03:39.373Z</time></trkpt><trkpt lat="43.104585" lon="13.5438483"><ele>169.33333333333331</ele><time>2026-04-09T15:03:40.374Z</time></trkpt><trkpt lat="43.1046667" lon="13.5440417"><ele>168.66666666666666</ele><time>2026-04-09T15:03:41.374Z</time></trkpt><trkpt lat="43.1047483" lon="13.5442367"><ele>168.0</ele><time>2026-04-09T15:03:42.373Z</time></trkpt><trkpt lat="43.10483" lon="13.54443"><ele>167.66666666666666</ele><time>2026-04-09T15:03:43.375Z</time></trkpt><trkpt lat="43.1049117" lon="13.5446217"><ele>167.33333333333331</ele><time>2026-04-09T15:03:44.373Z</time></trkpt><trkpt lat="43.1049967" lon="13.5448117"><ele>167.0</ele><time>2026-04-09T15:03:45.377Z</time></trkpt><trkpt lat="43.10508" lon="13.5449983"><ele>167.25</ele><time>2026-04-09T15:03:46.378Z</time></trkpt><trkpt lat="43.1051533" lon="13.54518"><ele>167.5</ele><time>2026-04-09T15:03:47.377Z</time></trkpt><trkpt lat="43.1052217" lon="13.545355"><ele>167.75</ele><time>2026-04-09T15:03:48.374Z</time></trkpt><trkpt lat="43.10529" lon="13.545525"><ele>168.0</ele><time>2026-04-09T15:03:49.374Z</time></trkpt><trkpt lat="43.1053583" lon="13.5456967"><ele>168.0</ele><time>2026-04-09T15:03:50.374Z</time></trkpt><trkpt lat="43.105425" lon="13.5458617"><ele>168.0</ele><time>2026-04-09T15:03:51.375Z</time></trkpt><trkpt lat="43.1054967" lon="13.5460317"><ele>168.0</ele><time>2026-04-09T15:03:52.374Z</time></trkpt><trkpt lat="43.1055633" lon="13.5462"><ele>168.0</ele><time>2026-04-09T15:03:53.375Z</time></trkpt><trkpt lat="43.1056333" lon="13.5463683"><ele>167.5</ele><time>2026-04-09T15:03:54.374Z</time></trkpt><trkpt lat="43.105705" lon="13.5465367"><ele>167.0</ele><time>2026-04-09T15:03:55.375Z</time></trkpt><trkpt lat="43.1057833" lon="13.5467083"><ele>166.5</ele><time>2026-04-09T15:03:56.375Z</time></trkpt><trkpt lat="43.10586" lon="13.5468783"><ele>166.0</ele><time>2026-04-09T15:03:57.373Z</time></trkpt><trkpt lat="43.10593" lon="13.5470467"><ele>165.75</ele><time>2026-04-09T15:03:58.374Z</time></trkpt><trkpt lat="43.1060033" lon="13.5472133"><ele>165.5</ele><time>2026-04-09T15:03:59.375Z</time></trkpt><trkpt lat="43.1060717" lon="13.54738"><ele>165.25</ele><time>2026-04-09T15:04:00.374Z</time></trkpt><trkpt lat="43.1061433" lon="13.547545"><ele>165.0</ele><time>2026-04-09T15:04:01.373Z</time></trkpt><trkpt lat="43.1062133" lon="13.5477083"><ele>165.0</ele><time>2026-04-09T15:04:02.374Z</time></trkpt><trkpt lat="43.1062833" lon="13.5478717"><ele>165.0</ele><time>2026-04-09T15:04:03.374Z</time></trkpt><trkpt lat="43.1063517" lon="13.548035"><ele>165.0</ele><time>2026-04-09T15:04:04.374Z</time></trkpt><trkpt lat="43.10642" lon="13.5481983"><ele>165.0</ele><time>2026-04-09T15:04:05.373Z</time></trkpt><trkpt lat="43.1064883" lon="13.5483633"><ele>165.25</ele><time>2026-04-09T15:04:06.373Z</time></trkpt><trkpt lat="43.1065567" lon="13.54853"><ele>165.5</ele><time>2026-04-09T15:04:07.375Z</time></trkpt><trkpt lat="43.1066267" lon="13.5486967"><ele>165.75</ele><time>2026-04-09T15:04:08.373Z</time></trkpt><trkpt lat="43.106695" lon="13.54886"><ele>166.0</ele><time>2026-04-09T15:04:09.373Z</time></trkpt><trkpt lat="43.1067633" lon="13.5490217"><ele>166.25</ele><time>2026-04-09T15:04:10.375Z</time></trkpt><trkpt lat="43.10683" lon="13.54918"><ele>166.5</ele><time>2026-04-09T15:04:11.374Z</time></trkpt><trkpt lat="43.1068967" lon="13.5493433"><ele>166.75</ele><time>2026-04-09T15:04:12.377Z</time></trkpt><trkpt lat="43.106965" lon="13.5495067"><ele>167.0</ele><time>2026-04-09T15:04:13.375Z</time></trkpt><trkpt lat="43.107035" lon="13.5496683"><ele>167.0</ele><time>2026-04-09T15:04:14.374Z</time></trkpt><trkpt lat="43.1071033" lon="13.5498283"><ele>167.0</ele><time>2026-04-09T15:04:15.377Z</time></trkpt><trkpt lat="43.1071667" lon="13.5499867"><ele>167.0</ele><time>2026-04-09T15:04:16.374Z</time></trkpt><trkpt lat="43.1072283" lon="13.5501467"><ele>167.0</ele><time>2026-04-09T15:04:17.377Z</time></trkpt><trkpt lat="43.1072867" lon="13.5503"><ele>166.75</ele><time>2026-04-09T15:04:18.374Z</time></trkpt><trkpt lat="43.1073467" lon="13.550455"><ele>166.5</ele><time>2026-04-09T15:04:19.374Z</time></trkpt><trkpt lat="43.107405" lon="13.55061"><ele>166.25</ele><time>2026-04-09T15:04:20.375Z</time></trkpt><trkpt lat="43.107465" lon="13.550765"><ele>166.0</ele><time>2026-04-09T15:04:21.374Z</time></trkpt><trkpt lat="43.10752" lon="13.5509133"><ele>166.0</ele><time>2026-04-09T15:04:22.375Z</time></trkpt><trkpt lat="43.1075717" lon="13.551045"><ele>166.0</ele><time>2026-04-09T15:04:23.374Z</time></trkpt><trkpt lat="43.107625" lon="13.5511783"><ele>166.0</ele><time>2026-04-09T15:04:24.373Z</time></trkpt><trkpt lat="43.1076833" lon="13.5513117"><ele>166.0</ele><time>2026-04-09T15:04:25.375Z</time></trkpt><trkpt lat="43.1077433" lon="13.5514517"><ele>165.5</ele><time>2026-04-09T15:04:26.375Z</time></trkpt><trkpt lat="43.1078" lon="13.5515967"><ele>165.0</ele><time>2026-04-09T15:04:27.373Z</time></trkpt><trkpt lat="43.1078617" lon="13.5517483"><ele>164.5</ele><time>2026-04-09T15:04:28.375Z</time></trkpt><trkpt lat="43.1079233" lon="13.5518983"><ele>164.0</ele><time>2026-04-09T15:04:29.377Z</time></trkpt><trkpt lat="43.1079833" lon="13.55205"><ele>163.75</ele><time>2026-04-09T15:04:30.375Z</time></trkpt><trkpt lat="43.108035" lon="13.5521917"><ele>163.5</ele><time>2026-04-09T15:04:31.374Z</time></trkpt><trkpt lat="43.1080883" lon="13.5523317"><ele>163.25</ele><time>2026-04-09T15:04:32.374Z</time></trkpt><trkpt lat="43.10814" lon="13.55247"><ele>163.0</ele><time>2026-04-09T15:04:33.376Z</time></trkpt><trkpt lat="43.1081883" lon="13.552605"><ele>163.0</ele><time>2026-04-09T15:04:34.375Z</time></trkpt><trkpt lat="43.1082317" lon="13.55273"><ele>163.0</ele><time>2026-04-09T15:04:35.378Z</time></trkpt><trkpt lat="43.1082667" lon="13.552845"><ele>163.0</ele><time>2026-04-09T15:04:36.374Z</time></trkpt><trkpt lat="43.108295" lon="13.5529583"><ele>163.0</ele><time>2026-04-09T15:04:37.375Z</time></trkpt><trkpt lat="43.1083183" lon="13.5530667"><ele>163.0</ele><time>2026-04-09T15:04:38.375Z</time></trkpt><trkpt lat="43.1083417" lon="13.5531683"><ele>163.0</ele><time>2026-04-09T15:04:39.374Z</time></trkpt><trkpt lat="43.10837" lon="13.5532633"><ele>163.0</ele><time>2026-04-09T15:04:40.375Z</time></trkpt><trkpt lat="43.108395" lon="13.5533483"><ele>163.0</ele><time>2026-04-09T15:04:41.374Z</time></trkpt><trkpt lat="43.10842" lon="13.5534967"><ele>163.0</ele><time>2026-04-09T15:04:43.376Z</time></trkpt><trkpt lat="43.10837" lon="13.553575"><ele>163.0</ele><time>2026-04-09T15:04:45.378Z</time></trkpt></trkseg></trk></gpx>